<?xml version="1.0" encoding="UTF-8" standalone="no" ?>
<gpx xmlns="http://www.topografix.com/GPX/1/1" xmlns:xsi="http://www.w3.org/2001/XMLSchema-instance" xsi:schemaLocation="http://www.topografix.com/GPX/1/1 http://www.topografix.com/GPX/1/1/gpx.xsd" version="1.1" creator="VisuGPX - https://www.visugpx.com">
  <metadata>
    <name>Crevant-Laveine Cyclisme</name>
  </metadata>
  <trk>
    <name><![CDATA[Crevant-Laveine Cyclisme_1]]></name>
    <trkseg>
      <trkpt lat="45.91334" lon="3.37353">
        <ele>311.2</ele>
        <time>2024-05-01T10:52:01Z</time>
      </trkpt>
      <trkpt lat="45.91334" lon="3.37353">
        <ele>311.4</ele>
        <time>2024-05-01T10:52:02Z</time>
      </trkpt>
      <trkpt lat="45.91334" lon="3.37353">
        <ele>311.4</ele>
        <time>2024-05-01T10:52:03Z</time>
      </trkpt>
      <trkpt lat="45.91327" lon="3.37355">
        <ele>311.4</ele>
        <time>2024-05-01T10:52:04Z</time>
      </trkpt>
      <trkpt lat="45.91324" lon="3.37357">
        <ele>311.6</ele>
        <time>2024-05-01T10:52:05Z</time>
      </trkpt>
      <trkpt lat="45.9132" lon="3.37358">
        <ele>311.6</ele>
        <time>2024-05-01T10:52:06Z</time>
      </trkpt>
      <trkpt lat="45.91317" lon="3.37359">
        <ele>311.6</ele>
        <time>2024-05-01T10:52:07Z</time>
      </trkpt>
      <trkpt lat="45.91314" lon="3.37361">
        <ele>311.6</ele>
        <time>2024-05-01T10:52:08Z</time>
      </trkpt>
      <trkpt lat="45.9131" lon="3.37362">
        <ele>311.8</ele>
        <time>2024-05-01T10:52:09Z</time>
      </trkpt>
      <trkpt lat="45.91306" lon="3.37364">
        <ele>311.8</ele>
        <time>2024-05-01T10:52:10Z</time>
      </trkpt>
      <trkpt lat="45.91301" lon="3.37366">
        <ele>311.8</ele>
        <time>2024-05-01T10:52:11Z</time>
      </trkpt>
      <trkpt lat="45.91297" lon="3.37367">
        <ele>312</ele>
        <time>2024-05-01T10:52:12Z</time>
      </trkpt>
      <trkpt lat="45.91293" lon="3.37369">
        <ele>312</ele>
        <time>2024-05-01T10:52:13Z</time>
      </trkpt>
      <trkpt lat="45.91288" lon="3.37371">
        <ele>312</ele>
        <time>2024-05-01T10:52:14Z</time>
      </trkpt>
      <trkpt lat="45.91283" lon="3.37373">
        <ele>312.2</ele>
        <time>2024-05-01T10:52:15Z</time>
      </trkpt>
      <trkpt lat="45.91279" lon="3.37375">
        <ele>312.2</ele>
        <time>2024-05-01T10:52:16Z</time>
      </trkpt>
      <trkpt lat="45.91275" lon="3.37376">
        <ele>312.4</ele>
        <time>2024-05-01T10:52:17Z</time>
      </trkpt>
      <trkpt lat="45.91271" lon="3.37378">
        <ele>312.4</ele>
        <time>2024-05-01T10:52:18Z</time>
      </trkpt>
      <trkpt lat="45.91265" lon="3.37376">
        <ele>312.4</ele>
        <time>2024-05-01T10:52:19Z</time>
      </trkpt>
      <trkpt lat="45.91261" lon="3.37373">
        <ele>312.4</ele>
        <time>2024-05-01T10:52:20Z</time>
      </trkpt>
      <trkpt lat="45.91258" lon="3.37369">
        <ele>312.4</ele>
        <time>2024-05-01T10:52:21Z</time>
      </trkpt>
      <trkpt lat="45.91254" lon="3.37366">
        <ele>312.4</ele>
        <time>2024-05-01T10:52:22Z</time>
      </trkpt>
      <trkpt lat="45.9125" lon="3.37362">
        <ele>312.4</ele>
        <time>2024-05-01T10:52:23Z</time>
      </trkpt>
      <trkpt lat="45.91246" lon="3.37359">
        <ele>312.6</ele>
        <time>2024-05-01T10:52:24Z</time>
      </trkpt>
      <trkpt lat="45.91241" lon="3.37355">
        <ele>312.6</ele>
        <time>2024-05-01T10:52:25Z</time>
      </trkpt>
      <trkpt lat="45.91237" lon="3.37355">
        <ele>312.6</ele>
        <time>2024-05-01T10:52:26Z</time>
      </trkpt>
      <trkpt lat="45.91234" lon="3.37355">
        <ele>312.8</ele>
        <time>2024-05-01T10:52:27Z</time>
      </trkpt>
      <trkpt lat="45.9123" lon="3.3736">
        <ele>312.8</ele>
        <time>2024-05-01T10:52:28Z</time>
      </trkpt>
      <trkpt lat="45.91228" lon="3.37363">
        <ele>312.6</ele>
        <time>2024-05-01T10:52:29Z</time>
      </trkpt>
      <trkpt lat="45.91225" lon="3.37366">
        <ele>312.8</ele>
        <time>2024-05-01T10:52:30Z</time>
      </trkpt>
      <trkpt lat="45.91223" lon="3.37369">
        <ele>312.8</ele>
        <time>2024-05-01T10:52:31Z</time>
      </trkpt>
      <trkpt lat="45.9122" lon="3.37373">
        <ele>312.8</ele>
        <time>2024-05-01T10:52:32Z</time>
      </trkpt>
      <trkpt lat="45.91217" lon="3.37376">
        <ele>313</ele>
        <time>2024-05-01T10:52:33Z</time>
      </trkpt>
      <trkpt lat="45.91215" lon="3.3738">
        <ele>313</ele>
        <time>2024-05-01T10:52:34Z</time>
      </trkpt>
      <trkpt lat="45.91212" lon="3.37384">
        <ele>313</ele>
        <time>2024-05-01T10:52:35Z</time>
      </trkpt>
      <trkpt lat="45.91208" lon="3.37388">
        <ele>313.2</ele>
        <time>2024-05-01T10:52:36Z</time>
      </trkpt>
      <trkpt lat="45.91205" lon="3.37392">
        <ele>313.2</ele>
        <time>2024-05-01T10:52:37Z</time>
      </trkpt>
      <trkpt lat="45.91202" lon="3.37396">
        <ele>313.4</ele>
        <time>2024-05-01T10:52:38Z</time>
      </trkpt>
      <trkpt lat="45.91199" lon="3.374">
        <ele>313.4</ele>
        <time>2024-05-01T10:52:39Z</time>
      </trkpt>
      <trkpt lat="45.91196" lon="3.37404">
        <ele>313.4</ele>
        <time>2024-05-01T10:52:40Z</time>
      </trkpt>
      <trkpt lat="45.91195" lon="3.37405">
        <ele>313.4</ele>
        <time>2024-05-01T10:52:41Z</time>
      </trkpt>
      <trkpt lat="45.91195" lon="3.37405">
        <ele>313.6</ele>
        <time>2024-05-01T10:52:42Z</time>
      </trkpt>
      <trkpt lat="45.91195" lon="3.37405">
        <ele>313.6</ele>
        <time>2024-05-01T10:52:43Z</time>
      </trkpt>
      <trkpt lat="45.91195" lon="3.37405">
        <ele>313.6</ele>
        <time>2024-05-01T10:52:44Z</time>
      </trkpt>
      <trkpt lat="45.91195" lon="3.37405">
        <ele>313.6</ele>
        <time>2024-05-01T10:52:45Z</time>
      </trkpt>
      <trkpt lat="45.91195" lon="3.37405">
        <ele>313.6</ele>
        <time>2024-05-01T10:52:46Z</time>
      </trkpt>
      <trkpt lat="45.91195" lon="3.37405">
        <ele>313.6</ele>
        <time>2024-05-01T10:52:47Z</time>
      </trkpt>
      <trkpt lat="45.91195" lon="3.37405">
        <ele>313.6</ele>
        <time>2024-05-01T10:52:48Z</time>
      </trkpt>
      <trkpt lat="45.91195" lon="3.37405">
        <ele>313.6</ele>
        <time>2024-05-01T10:52:49Z</time>
      </trkpt>
      <trkpt lat="45.91169" lon="3.37445">
        <ele>313.6</ele>
        <time>2024-05-01T10:52:50Z</time>
      </trkpt>
      <trkpt lat="45.91166" lon="3.3745">
        <ele>313.6</ele>
        <time>2024-05-01T10:52:51Z</time>
      </trkpt>
      <trkpt lat="45.91163" lon="3.37453">
        <ele>313.8</ele>
        <time>2024-05-01T10:52:52Z</time>
      </trkpt>
      <trkpt lat="45.9116" lon="3.37456">
        <ele>313.8</ele>
        <time>2024-05-01T10:52:53Z</time>
      </trkpt>
      <trkpt lat="45.91158" lon="3.3746">
        <ele>313.8</ele>
        <time>2024-05-01T10:52:54Z</time>
      </trkpt>
      <trkpt lat="45.91156" lon="3.37463">
        <ele>313.8</ele>
        <time>2024-05-01T10:52:55Z</time>
      </trkpt>
      <trkpt lat="45.91153" lon="3.37466">
        <ele>313.8</ele>
        <time>2024-05-01T10:52:56Z</time>
      </trkpt>
      <trkpt lat="45.91151" lon="3.3747">
        <ele>313.8</ele>
        <time>2024-05-01T10:52:57Z</time>
      </trkpt>
      <trkpt lat="45.91149" lon="3.37474">
        <ele>314</ele>
        <time>2024-05-01T10:52:58Z</time>
      </trkpt>
      <trkpt lat="45.91148" lon="3.37478">
        <ele>314</ele>
        <time>2024-05-01T10:52:59Z</time>
      </trkpt>
      <trkpt lat="45.91146" lon="3.37483">
        <ele>313.8</ele>
        <time>2024-05-01T10:53:00Z</time>
      </trkpt>
      <trkpt lat="45.91143" lon="3.37488">
        <ele>313.8</ele>
        <time>2024-05-01T10:53:01Z</time>
      </trkpt>
      <trkpt lat="45.91139" lon="3.37492">
        <ele>314</ele>
        <time>2024-05-01T10:53:02Z</time>
      </trkpt>
      <trkpt lat="45.91135" lon="3.37496">
        <ele>314</ele>
        <time>2024-05-01T10:53:03Z</time>
      </trkpt>
      <trkpt lat="45.91132" lon="3.375">
        <ele>314.2</ele>
        <time>2024-05-01T10:53:04Z</time>
      </trkpt>
      <trkpt lat="45.91128" lon="3.37504">
        <ele>314.4</ele>
        <time>2024-05-01T10:53:05Z</time>
      </trkpt>
      <trkpt lat="45.91124" lon="3.3751">
        <ele>314.4</ele>
        <time>2024-05-01T10:53:06Z</time>
      </trkpt>
      <trkpt lat="45.91121" lon="3.37515">
        <ele>314.6</ele>
        <time>2024-05-01T10:53:07Z</time>
      </trkpt>
      <trkpt lat="45.91119" lon="3.37519">
        <ele>314.6</ele>
        <time>2024-05-01T10:53:08Z</time>
      </trkpt>
      <trkpt lat="45.91117" lon="3.37525">
        <ele>314.8</ele>
        <time>2024-05-01T10:53:09Z</time>
      </trkpt>
      <trkpt lat="45.91116" lon="3.37531">
        <ele>314.8</ele>
        <time>2024-05-01T10:53:10Z</time>
      </trkpt>
      <trkpt lat="45.91109" lon="3.37533">
        <ele>315</ele>
        <time>2024-05-01T10:53:11Z</time>
      </trkpt>
      <trkpt lat="45.91113" lon="3.37539">
        <ele>315</ele>
        <time>2024-05-01T10:53:12Z</time>
      </trkpt>
      <trkpt lat="45.91116" lon="3.37542">
        <ele>315</ele>
        <time>2024-05-01T10:53:13Z</time>
      </trkpt>
      <trkpt lat="45.91119" lon="3.37547">
        <ele>315</ele>
        <time>2024-05-01T10:53:14Z</time>
      </trkpt>
      <trkpt lat="45.91122" lon="3.37551">
        <ele>315</ele>
        <time>2024-05-01T10:53:15Z</time>
      </trkpt>
      <trkpt lat="45.91125" lon="3.37555">
        <ele>315.2</ele>
        <time>2024-05-01T10:53:16Z</time>
      </trkpt>
      <trkpt lat="45.91128" lon="3.3756">
        <ele>315.2</ele>
        <time>2024-05-01T10:53:17Z</time>
      </trkpt>
      <trkpt lat="45.91132" lon="3.37564">
        <ele>315.2</ele>
        <time>2024-05-01T10:53:18Z</time>
      </trkpt>
      <trkpt lat="45.91135" lon="3.37569">
        <ele>315.2</ele>
        <time>2024-05-01T10:53:19Z</time>
      </trkpt>
      <trkpt lat="45.91139" lon="3.37574">
        <ele>315.2</ele>
        <time>2024-05-01T10:53:20Z</time>
      </trkpt>
      <trkpt lat="45.91142" lon="3.37578">
        <ele>315.2</ele>
        <time>2024-05-01T10:53:21Z</time>
      </trkpt>
      <trkpt lat="45.91145" lon="3.37583">
        <ele>315.2</ele>
        <time>2024-05-01T10:53:22Z</time>
      </trkpt>
      <trkpt lat="45.91148" lon="3.37587">
        <ele>315.2</ele>
        <time>2024-05-01T10:53:23Z</time>
      </trkpt>
      <trkpt lat="45.91146" lon="3.37598">
        <ele>315.2</ele>
        <time>2024-05-01T10:53:24Z</time>
      </trkpt>
      <trkpt lat="45.91143" lon="3.37602">
        <ele>315.2</ele>
        <time>2024-05-01T10:53:25Z</time>
      </trkpt>
      <trkpt lat="45.91141" lon="3.37607">
        <ele>315.4</ele>
        <time>2024-05-01T10:53:26Z</time>
      </trkpt>
      <trkpt lat="45.91138" lon="3.37612">
        <ele>315.4</ele>
        <time>2024-05-01T10:53:27Z</time>
      </trkpt>
      <trkpt lat="45.91135" lon="3.37617">
        <ele>315.4</ele>
        <time>2024-05-01T10:53:28Z</time>
      </trkpt>
      <trkpt lat="45.91132" lon="3.37622">
        <ele>315.6</ele>
        <time>2024-05-01T10:53:29Z</time>
      </trkpt>
      <trkpt lat="45.91129" lon="3.37628">
        <ele>315.6</ele>
        <time>2024-05-01T10:53:30Z</time>
      </trkpt>
      <trkpt lat="45.91126" lon="3.37633">
        <ele>315.8</ele>
        <time>2024-05-01T10:53:31Z</time>
      </trkpt>
      <trkpt lat="45.91124" lon="3.37639">
        <ele>316</ele>
        <time>2024-05-01T10:53:32Z</time>
      </trkpt>
      <trkpt lat="45.91121" lon="3.37644">
        <ele>316</ele>
        <time>2024-05-01T10:53:33Z</time>
      </trkpt>
      <trkpt lat="45.91117" lon="3.37651">
        <ele>316</ele>
        <time>2024-05-01T10:53:34Z</time>
      </trkpt>
      <trkpt lat="45.91116" lon="3.37657">
        <ele>316</ele>
        <time>2024-05-01T10:53:35Z</time>
      </trkpt>
      <trkpt lat="45.91115" lon="3.37664">
        <ele>316.2</ele>
        <time>2024-05-01T10:53:36Z</time>
      </trkpt>
      <trkpt lat="45.91113" lon="3.3767">
        <ele>316.2</ele>
        <time>2024-05-01T10:53:37Z</time>
      </trkpt>
      <trkpt lat="45.9111" lon="3.37678">
        <ele>316.4</ele>
        <time>2024-05-01T10:53:38Z</time>
      </trkpt>
      <trkpt lat="45.91105" lon="3.37681">
        <ele>316.4</ele>
        <time>2024-05-01T10:53:39Z</time>
      </trkpt>
      <trkpt lat="45.91101" lon="3.37683">
        <ele>316.6</ele>
        <time>2024-05-01T10:53:40Z</time>
      </trkpt>
      <trkpt lat="45.91097" lon="3.37686">
        <ele>316.6</ele>
        <time>2024-05-01T10:53:41Z</time>
      </trkpt>
      <trkpt lat="45.91093" lon="3.37688">
        <ele>316.8</ele>
        <time>2024-05-01T10:53:42Z</time>
      </trkpt>
      <trkpt lat="45.91088" lon="3.3769">
        <ele>316.8</ele>
        <time>2024-05-01T10:53:43Z</time>
      </trkpt>
      <trkpt lat="45.91084" lon="3.37693">
        <ele>317</ele>
        <time>2024-05-01T10:53:44Z</time>
      </trkpt>
      <trkpt lat="45.9108" lon="3.37695">
        <ele>317</ele>
        <time>2024-05-01T10:53:45Z</time>
      </trkpt>
      <trkpt lat="45.91075" lon="3.37698">
        <ele>317</ele>
        <time>2024-05-01T10:53:46Z</time>
      </trkpt>
      <trkpt lat="45.91071" lon="3.377">
        <ele>317</ele>
        <time>2024-05-01T10:53:47Z</time>
      </trkpt>
      <trkpt lat="45.91066" lon="3.37703">
        <ele>317</ele>
        <time>2024-05-01T10:53:48Z</time>
      </trkpt>
      <trkpt lat="45.91061" lon="3.37706">
        <ele>317.2</ele>
        <time>2024-05-01T10:53:49Z</time>
      </trkpt>
      <trkpt lat="45.91056" lon="3.37708">
        <ele>317.2</ele>
        <time>2024-05-01T10:53:50Z</time>
      </trkpt>
      <trkpt lat="45.91052" lon="3.37711">
        <ele>317.2</ele>
        <time>2024-05-01T10:53:51Z</time>
      </trkpt>
      <trkpt lat="45.91047" lon="3.37714">
        <ele>317.4</ele>
        <time>2024-05-01T10:53:52Z</time>
      </trkpt>
      <trkpt lat="45.91043" lon="3.37716">
        <ele>317.4</ele>
        <time>2024-05-01T10:53:53Z</time>
      </trkpt>
      <trkpt lat="45.91038" lon="3.37719">
        <ele>317.4</ele>
        <time>2024-05-01T10:53:54Z</time>
      </trkpt>
      <trkpt lat="45.91034" lon="3.37721">
        <ele>317.6</ele>
        <time>2024-05-01T10:53:55Z</time>
      </trkpt>
      <trkpt lat="45.91029" lon="3.37724">
        <ele>317.6</ele>
        <time>2024-05-01T10:53:56Z</time>
      </trkpt>
      <trkpt lat="45.91024" lon="3.37727">
        <ele>317.6</ele>
        <time>2024-05-01T10:53:57Z</time>
      </trkpt>
      <trkpt lat="45.91019" lon="3.3773">
        <ele>317.6</ele>
        <time>2024-05-01T10:53:58Z</time>
      </trkpt>
      <trkpt lat="45.91014" lon="3.37732">
        <ele>317.6</ele>
        <time>2024-05-01T10:53:59Z</time>
      </trkpt>
      <trkpt lat="45.9101" lon="3.37735">
        <ele>317.8</ele>
        <time>2024-05-01T10:54:00Z</time>
      </trkpt>
      <trkpt lat="45.91005" lon="3.37738">
        <ele>317.8</ele>
        <time>2024-05-01T10:54:01Z</time>
      </trkpt>
      <trkpt lat="45.91" lon="3.37741">
        <ele>317.8</ele>
        <time>2024-05-01T10:54:02Z</time>
      </trkpt>
      <trkpt lat="45.90995" lon="3.37743">
        <ele>318</ele>
        <time>2024-05-01T10:54:03Z</time>
      </trkpt>
      <trkpt lat="45.9099" lon="3.37746">
        <ele>318.2</ele>
        <time>2024-05-01T10:54:04Z</time>
      </trkpt>
      <trkpt lat="45.90984" lon="3.37749">
        <ele>318</ele>
        <time>2024-05-01T10:54:05Z</time>
      </trkpt>
      <trkpt lat="45.90979" lon="3.37752">
        <ele>318</ele>
        <time>2024-05-01T10:54:06Z</time>
      </trkpt>
      <trkpt lat="45.90974" lon="3.37755">
        <ele>318.2</ele>
        <time>2024-05-01T10:54:07Z</time>
      </trkpt>
      <trkpt lat="45.9097" lon="3.37758">
        <ele>318.2</ele>
        <time>2024-05-01T10:54:08Z</time>
      </trkpt>
      <trkpt lat="45.90964" lon="3.37761">
        <ele>318.2</ele>
        <time>2024-05-01T10:54:09Z</time>
      </trkpt>
      <trkpt lat="45.90959" lon="3.37764">
        <ele>318.2</ele>
        <time>2024-05-01T10:54:10Z</time>
      </trkpt>
      <trkpt lat="45.90954" lon="3.37767">
        <ele>318.2</ele>
        <time>2024-05-01T10:54:11Z</time>
      </trkpt>
      <trkpt lat="45.90949" lon="3.37769">
        <ele>318.4</ele>
        <time>2024-05-01T10:54:12Z</time>
      </trkpt>
      <trkpt lat="45.90944" lon="3.37772">
        <ele>318.4</ele>
        <time>2024-05-01T10:54:13Z</time>
      </trkpt>
      <trkpt lat="45.90939" lon="3.37775">
        <ele>318.4</ele>
        <time>2024-05-01T10:54:14Z</time>
      </trkpt>
      <trkpt lat="45.90934" lon="3.37778">
        <ele>318.4</ele>
        <time>2024-05-01T10:54:15Z</time>
      </trkpt>
      <trkpt lat="45.90928" lon="3.37781">
        <ele>318.6</ele>
        <time>2024-05-01T10:54:16Z</time>
      </trkpt>
      <trkpt lat="45.90923" lon="3.37784">
        <ele>318.6</ele>
        <time>2024-05-01T10:54:17Z</time>
      </trkpt>
      <trkpt lat="45.90918" lon="3.37787">
        <ele>318.6</ele>
        <time>2024-05-01T10:54:18Z</time>
      </trkpt>
      <trkpt lat="45.90913" lon="3.3779">
        <ele>318.6</ele>
        <time>2024-05-01T10:54:19Z</time>
      </trkpt>
      <trkpt lat="45.90908" lon="3.37793">
        <ele>318.8</ele>
        <time>2024-05-01T10:54:20Z</time>
      </trkpt>
      <trkpt lat="45.90902" lon="3.37796">
        <ele>318.8</ele>
        <time>2024-05-01T10:54:21Z</time>
      </trkpt>
      <trkpt lat="45.90897" lon="3.37799">
        <ele>318.8</ele>
        <time>2024-05-01T10:54:22Z</time>
      </trkpt>
      <trkpt lat="45.90892" lon="3.37802">
        <ele>319</ele>
        <time>2024-05-01T10:54:23Z</time>
      </trkpt>
      <trkpt lat="45.90887" lon="3.37805">
        <ele>319</ele>
        <time>2024-05-01T10:54:24Z</time>
      </trkpt>
      <trkpt lat="45.90882" lon="3.37808">
        <ele>319.2</ele>
        <time>2024-05-01T10:54:25Z</time>
      </trkpt>
      <trkpt lat="45.90877" lon="3.37811">
        <ele>319.4</ele>
        <time>2024-05-01T10:54:26Z</time>
      </trkpt>
      <trkpt lat="45.90872" lon="3.37814">
        <ele>319.6</ele>
        <time>2024-05-01T10:54:27Z</time>
      </trkpt>
      <trkpt lat="45.90866" lon="3.37817">
        <ele>319.8</ele>
        <time>2024-05-01T10:54:28Z</time>
      </trkpt>
      <trkpt lat="45.90861" lon="3.3782">
        <ele>319.8</ele>
        <time>2024-05-01T10:54:29Z</time>
      </trkpt>
      <trkpt lat="45.90856" lon="3.37822">
        <ele>320</ele>
        <time>2024-05-01T10:54:30Z</time>
      </trkpt>
      <trkpt lat="45.90851" lon="3.37825">
        <ele>320</ele>
        <time>2024-05-01T10:54:31Z</time>
      </trkpt>
      <trkpt lat="45.90846" lon="3.37828">
        <ele>320.2</ele>
        <time>2024-05-01T10:54:32Z</time>
      </trkpt>
      <trkpt lat="45.90841" lon="3.37831">
        <ele>320.2</ele>
        <time>2024-05-01T10:54:33Z</time>
      </trkpt>
      <trkpt lat="45.90836" lon="3.37834">
        <ele>320.4</ele>
        <time>2024-05-01T10:54:34Z</time>
      </trkpt>
      <trkpt lat="45.90831" lon="3.37837">
        <ele>320.4</ele>
        <time>2024-05-01T10:54:35Z</time>
      </trkpt>
      <trkpt lat="45.90825" lon="3.3784">
        <ele>320.4</ele>
        <time>2024-05-01T10:54:36Z</time>
      </trkpt>
      <trkpt lat="45.90821" lon="3.37842">
        <ele>320.4</ele>
        <time>2024-05-01T10:54:37Z</time>
      </trkpt>
      <trkpt lat="45.90816" lon="3.37845">
        <ele>320.6</ele>
        <time>2024-05-01T10:54:38Z</time>
      </trkpt>
      <trkpt lat="45.90811" lon="3.37848">
        <ele>320.4</ele>
        <time>2024-05-01T10:54:39Z</time>
      </trkpt>
      <trkpt lat="45.90806" lon="3.37851">
        <ele>320.4</ele>
        <time>2024-05-01T10:54:40Z</time>
      </trkpt>
      <trkpt lat="45.90801" lon="3.37854">
        <ele>320.4</ele>
        <time>2024-05-01T10:54:41Z</time>
      </trkpt>
      <trkpt lat="45.90796" lon="3.37857">
        <ele>320.6</ele>
        <time>2024-05-01T10:54:42Z</time>
      </trkpt>
      <trkpt lat="45.90792" lon="3.3786">
        <ele>320.8</ele>
        <time>2024-05-01T10:54:43Z</time>
      </trkpt>
      <trkpt lat="45.90787" lon="3.37863">
        <ele>320.8</ele>
        <time>2024-05-01T10:54:44Z</time>
      </trkpt>
      <trkpt lat="45.90782" lon="3.37866">
        <ele>320.8</ele>
        <time>2024-05-01T10:54:45Z</time>
      </trkpt>
      <trkpt lat="45.90777" lon="3.37869">
        <ele>321</ele>
        <time>2024-05-01T10:54:46Z</time>
      </trkpt>
      <trkpt lat="45.90773" lon="3.37872">
        <ele>321</ele>
        <time>2024-05-01T10:54:47Z</time>
      </trkpt>
      <trkpt lat="45.90768" lon="3.37875">
        <ele>321</ele>
        <time>2024-05-01T10:54:48Z</time>
      </trkpt>
      <trkpt lat="45.90763" lon="3.37878">
        <ele>321.2</ele>
        <time>2024-05-01T10:54:49Z</time>
      </trkpt>
      <trkpt lat="45.90758" lon="3.37881">
        <ele>321.4</ele>
        <time>2024-05-01T10:54:50Z</time>
      </trkpt>
      <trkpt lat="45.90753" lon="3.37884">
        <ele>321.4</ele>
        <time>2024-05-01T10:54:51Z</time>
      </trkpt>
      <trkpt lat="45.90749" lon="3.37887">
        <ele>321.4</ele>
        <time>2024-05-01T10:54:52Z</time>
      </trkpt>
      <trkpt lat="45.90743" lon="3.37891">
        <ele>321.6</ele>
        <time>2024-05-01T10:54:53Z</time>
      </trkpt>
      <trkpt lat="45.90739" lon="3.37894">
        <ele>321.6</ele>
        <time>2024-05-01T10:54:54Z</time>
      </trkpt>
      <trkpt lat="45.90734" lon="3.37897">
        <ele>321.6</ele>
        <time>2024-05-01T10:54:55Z</time>
      </trkpt>
      <trkpt lat="45.90729" lon="3.379">
        <ele>321.8</ele>
        <time>2024-05-01T10:54:56Z</time>
      </trkpt>
      <trkpt lat="45.90725" lon="3.37902">
        <ele>322</ele>
        <time>2024-05-01T10:54:57Z</time>
      </trkpt>
      <trkpt lat="45.9072" lon="3.37905">
        <ele>322</ele>
        <time>2024-05-01T10:54:58Z</time>
      </trkpt>
      <trkpt lat="45.90716" lon="3.37908">
        <ele>322</ele>
        <time>2024-05-01T10:54:59Z</time>
      </trkpt>
      <trkpt lat="45.90712" lon="3.3791">
        <ele>322.2</ele>
        <time>2024-05-01T10:55:00Z</time>
      </trkpt>
      <trkpt lat="45.90708" lon="3.37913">
        <ele>322</ele>
        <time>2024-05-01T10:55:01Z</time>
      </trkpt>
      <trkpt lat="45.90703" lon="3.37916">
        <ele>322</ele>
        <time>2024-05-01T10:55:02Z</time>
      </trkpt>
      <trkpt lat="45.90698" lon="3.3792">
        <ele>322</ele>
        <time>2024-05-01T10:55:03Z</time>
      </trkpt>
      <trkpt lat="45.90697" lon="3.3792">
        <ele>322.2</ele>
        <time>2024-05-01T10:55:04Z</time>
      </trkpt>
      <trkpt lat="45.90685" lon="3.37914">
        <ele>322.2</ele>
        <time>2024-05-01T10:55:05Z</time>
      </trkpt>
      <trkpt lat="45.90676" lon="3.37926">
        <ele>322.2</ele>
        <time>2024-05-01T10:55:06Z</time>
      </trkpt>
      <trkpt lat="45.90675" lon="3.37934">
        <ele>322.2</ele>
        <time>2024-05-01T10:55:07Z</time>
      </trkpt>
      <trkpt lat="45.90684" lon="3.37954">
        <ele>322.2</ele>
        <time>2024-05-01T10:55:08Z</time>
      </trkpt>
      <trkpt lat="45.90684" lon="3.37954">
        <ele>322.4</ele>
        <time>2024-05-01T10:55:09Z</time>
      </trkpt>
      <trkpt lat="45.90684" lon="3.37961">
        <ele>322.4</ele>
        <time>2024-05-01T10:55:10Z</time>
      </trkpt>
      <trkpt lat="45.90683" lon="3.37968">
        <ele>322.4</ele>
        <time>2024-05-01T10:55:11Z</time>
      </trkpt>
      <trkpt lat="45.90682" lon="3.37976">
        <ele>322.4</ele>
        <time>2024-05-01T10:55:12Z</time>
      </trkpt>
      <trkpt lat="45.90681" lon="3.37984">
        <ele>322.6</ele>
        <time>2024-05-01T10:55:13Z</time>
      </trkpt>
      <trkpt lat="45.90681" lon="3.37992">
        <ele>322.6</ele>
        <time>2024-05-01T10:55:14Z</time>
      </trkpt>
      <trkpt lat="45.9068" lon="3.38">
        <ele>322.6</ele>
        <time>2024-05-01T10:55:15Z</time>
      </trkpt>
      <trkpt lat="45.90679" lon="3.38007">
        <ele>322.6</ele>
        <time>2024-05-01T10:55:16Z</time>
      </trkpt>
      <trkpt lat="45.90678" lon="3.38015">
        <ele>322.8</ele>
        <time>2024-05-01T10:55:17Z</time>
      </trkpt>
      <trkpt lat="45.90678" lon="3.38023">
        <ele>322.8</ele>
        <time>2024-05-01T10:55:18Z</time>
      </trkpt>
      <trkpt lat="45.90677" lon="3.38031">
        <ele>322.8</ele>
        <time>2024-05-01T10:55:19Z</time>
      </trkpt>
      <trkpt lat="45.90676" lon="3.38038">
        <ele>323</ele>
        <time>2024-05-01T10:55:20Z</time>
      </trkpt>
      <trkpt lat="45.90675" lon="3.38046">
        <ele>323</ele>
        <time>2024-05-01T10:55:21Z</time>
      </trkpt>
      <trkpt lat="45.90675" lon="3.38054">
        <ele>323.2</ele>
        <time>2024-05-01T10:55:22Z</time>
      </trkpt>
      <trkpt lat="45.90674" lon="3.38062">
        <ele>323.2</ele>
        <time>2024-05-01T10:55:23Z</time>
      </trkpt>
      <trkpt lat="45.90673" lon="3.3807">
        <ele>323.2</ele>
        <time>2024-05-01T10:55:24Z</time>
      </trkpt>
      <trkpt lat="45.90672" lon="3.38078">
        <ele>323.2</ele>
        <time>2024-05-01T10:55:25Z</time>
      </trkpt>
      <trkpt lat="45.90672" lon="3.38086">
        <ele>323.2</ele>
        <time>2024-05-01T10:55:26Z</time>
      </trkpt>
      <trkpt lat="45.90671" lon="3.38093">
        <ele>323.4</ele>
        <time>2024-05-01T10:55:27Z</time>
      </trkpt>
      <trkpt lat="45.9067" lon="3.38101">
        <ele>323.4</ele>
        <time>2024-05-01T10:55:28Z</time>
      </trkpt>
      <trkpt lat="45.90669" lon="3.38109">
        <ele>323.4</ele>
        <time>2024-05-01T10:55:29Z</time>
      </trkpt>
      <trkpt lat="45.90668" lon="3.38117">
        <ele>323.4</ele>
        <time>2024-05-01T10:55:30Z</time>
      </trkpt>
      <trkpt lat="45.90668" lon="3.38124">
        <ele>323.6</ele>
        <time>2024-05-01T10:55:31Z</time>
      </trkpt>
      <trkpt lat="45.90667" lon="3.38132">
        <ele>323.6</ele>
        <time>2024-05-01T10:55:32Z</time>
      </trkpt>
      <trkpt lat="45.90666" lon="3.38139">
        <ele>323.6</ele>
        <time>2024-05-01T10:55:33Z</time>
      </trkpt>
      <trkpt lat="45.90666" lon="3.38147">
        <ele>323.8</ele>
        <time>2024-05-01T10:55:34Z</time>
      </trkpt>
      <trkpt lat="45.90665" lon="3.38154">
        <ele>323.8</ele>
        <time>2024-05-01T10:55:35Z</time>
      </trkpt>
      <trkpt lat="45.90664" lon="3.38162">
        <ele>323.8</ele>
        <time>2024-05-01T10:55:36Z</time>
      </trkpt>
      <trkpt lat="45.90663" lon="3.3817">
        <ele>323.8</ele>
        <time>2024-05-01T10:55:37Z</time>
      </trkpt>
      <trkpt lat="45.90663" lon="3.38177">
        <ele>324</ele>
        <time>2024-05-01T10:55:38Z</time>
      </trkpt>
      <trkpt lat="45.90662" lon="3.38185">
        <ele>324</ele>
        <time>2024-05-01T10:55:39Z</time>
      </trkpt>
      <trkpt lat="45.90661" lon="3.38192">
        <ele>324</ele>
        <time>2024-05-01T10:55:40Z</time>
      </trkpt>
      <trkpt lat="45.9066" lon="3.382">
        <ele>324.2</ele>
        <time>2024-05-01T10:55:41Z</time>
      </trkpt>
      <trkpt lat="45.9066" lon="3.38207">
        <ele>324.2</ele>
        <time>2024-05-01T10:55:42Z</time>
      </trkpt>
      <trkpt lat="45.90659" lon="3.38215">
        <ele>324.2</ele>
        <time>2024-05-01T10:55:43Z</time>
      </trkpt>
      <trkpt lat="45.90658" lon="3.38222">
        <ele>324.2</ele>
        <time>2024-05-01T10:55:44Z</time>
      </trkpt>
      <trkpt lat="45.90657" lon="3.38229">
        <ele>324.4</ele>
        <time>2024-05-01T10:55:45Z</time>
      </trkpt>
      <trkpt lat="45.90657" lon="3.38236">
        <ele>324.4</ele>
        <time>2024-05-01T10:55:46Z</time>
      </trkpt>
      <trkpt lat="45.90656" lon="3.38243">
        <ele>324.4</ele>
        <time>2024-05-01T10:55:47Z</time>
      </trkpt>
      <trkpt lat="45.90655" lon="3.38251">
        <ele>324.6</ele>
        <time>2024-05-01T10:55:48Z</time>
      </trkpt>
      <trkpt lat="45.90655" lon="3.38258">
        <ele>324.6</ele>
        <time>2024-05-01T10:55:49Z</time>
      </trkpt>
      <trkpt lat="45.90654" lon="3.38266">
        <ele>324.6</ele>
        <time>2024-05-01T10:55:50Z</time>
      </trkpt>
      <trkpt lat="45.90653" lon="3.38273">
        <ele>324.6</ele>
        <time>2024-05-01T10:55:51Z</time>
      </trkpt>
      <trkpt lat="45.90653" lon="3.3828">
        <ele>324.6</ele>
        <time>2024-05-01T10:55:52Z</time>
      </trkpt>
      <trkpt lat="45.90652" lon="3.38287">
        <ele>324.8</ele>
        <time>2024-05-01T10:55:53Z</time>
      </trkpt>
      <trkpt lat="45.90651" lon="3.38294">
        <ele>324.8</ele>
        <time>2024-05-01T10:55:54Z</time>
      </trkpt>
      <trkpt lat="45.9065" lon="3.38301">
        <ele>324.8</ele>
        <time>2024-05-01T10:55:55Z</time>
      </trkpt>
      <trkpt lat="45.9065" lon="3.38309">
        <ele>325</ele>
        <time>2024-05-01T10:55:56Z</time>
      </trkpt>
      <trkpt lat="45.90649" lon="3.38316">
        <ele>325</ele>
        <time>2024-05-01T10:55:57Z</time>
      </trkpt>
      <trkpt lat="45.90648" lon="3.38323">
        <ele>325.2</ele>
        <time>2024-05-01T10:55:58Z</time>
      </trkpt>
      <trkpt lat="45.90648" lon="3.3833">
        <ele>325.2</ele>
        <time>2024-05-01T10:55:59Z</time>
      </trkpt>
      <trkpt lat="45.90647" lon="3.38338">
        <ele>325.2</ele>
        <time>2024-05-01T10:56:00Z</time>
      </trkpt>
      <trkpt lat="45.90646" lon="3.38345">
        <ele>325.2</ele>
        <time>2024-05-01T10:56:01Z</time>
      </trkpt>
      <trkpt lat="45.90645" lon="3.38352">
        <ele>325.4</ele>
        <time>2024-05-01T10:56:02Z</time>
      </trkpt>
      <trkpt lat="45.90645" lon="3.3836">
        <ele>325.4</ele>
        <time>2024-05-01T10:56:03Z</time>
      </trkpt>
      <trkpt lat="45.90644" lon="3.38368">
        <ele>325.6</ele>
        <time>2024-05-01T10:56:04Z</time>
      </trkpt>
      <trkpt lat="45.90642" lon="3.38375">
        <ele>325.6</ele>
        <time>2024-05-01T10:56:05Z</time>
      </trkpt>
      <trkpt lat="45.9064" lon="3.38382">
        <ele>325.6</ele>
        <time>2024-05-01T10:56:06Z</time>
      </trkpt>
      <trkpt lat="45.90638" lon="3.38389">
        <ele>325.8</ele>
        <time>2024-05-01T10:56:07Z</time>
      </trkpt>
      <trkpt lat="45.90636" lon="3.38395">
        <ele>325.8</ele>
        <time>2024-05-01T10:56:08Z</time>
      </trkpt>
      <trkpt lat="45.90634" lon="3.38403">
        <ele>325.8</ele>
        <time>2024-05-01T10:56:09Z</time>
      </trkpt>
      <trkpt lat="45.90632" lon="3.38409">
        <ele>325.8</ele>
        <time>2024-05-01T10:56:10Z</time>
      </trkpt>
      <trkpt lat="45.9063" lon="3.38416">
        <ele>326</ele>
        <time>2024-05-01T10:56:11Z</time>
      </trkpt>
      <trkpt lat="45.90628" lon="3.38423">
        <ele>326</ele>
        <time>2024-05-01T10:56:12Z</time>
      </trkpt>
      <trkpt lat="45.90626" lon="3.38429">
        <ele>326.2</ele>
        <time>2024-05-01T10:56:13Z</time>
      </trkpt>
      <trkpt lat="45.90625" lon="3.38436">
        <ele>326.2</ele>
        <time>2024-05-01T10:56:14Z</time>
      </trkpt>
      <trkpt lat="45.90623" lon="3.38443">
        <ele>326.4</ele>
        <time>2024-05-01T10:56:15Z</time>
      </trkpt>
      <trkpt lat="45.90621" lon="3.3845">
        <ele>326.4</ele>
        <time>2024-05-01T10:56:16Z</time>
      </trkpt>
      <trkpt lat="45.90619" lon="3.38457">
        <ele>326.4</ele>
        <time>2024-05-01T10:56:17Z</time>
      </trkpt>
      <trkpt lat="45.90617" lon="3.38464">
        <ele>326.6</ele>
        <time>2024-05-01T10:56:18Z</time>
      </trkpt>
      <trkpt lat="45.90615" lon="3.38471">
        <ele>326.6</ele>
        <time>2024-05-01T10:56:19Z</time>
      </trkpt>
      <trkpt lat="45.90613" lon="3.38478">
        <ele>326.8</ele>
        <time>2024-05-01T10:56:20Z</time>
      </trkpt>
      <trkpt lat="45.90611" lon="3.38484">
        <ele>326.8</ele>
        <time>2024-05-01T10:56:21Z</time>
      </trkpt>
      <trkpt lat="45.90609" lon="3.38491">
        <ele>326.8</ele>
        <time>2024-05-01T10:56:22Z</time>
      </trkpt>
      <trkpt lat="45.90607" lon="3.38498">
        <ele>327</ele>
        <time>2024-05-01T10:56:23Z</time>
      </trkpt>
      <trkpt lat="45.90605" lon="3.38505">
        <ele>327</ele>
        <time>2024-05-01T10:56:24Z</time>
      </trkpt>
      <trkpt lat="45.90603" lon="3.38511">
        <ele>327.2</ele>
        <time>2024-05-01T10:56:25Z</time>
      </trkpt>
      <trkpt lat="45.90601" lon="3.38518">
        <ele>327.2</ele>
        <time>2024-05-01T10:56:26Z</time>
      </trkpt>
      <trkpt lat="45.90599" lon="3.38524">
        <ele>327.4</ele>
        <time>2024-05-01T10:56:27Z</time>
      </trkpt>
      <trkpt lat="45.90597" lon="3.38531">
        <ele>327.4</ele>
        <time>2024-05-01T10:56:28Z</time>
      </trkpt>
      <trkpt lat="45.90595" lon="3.38538">
        <ele>327.4</ele>
        <time>2024-05-01T10:56:29Z</time>
      </trkpt>
      <trkpt lat="45.90593" lon="3.38544">
        <ele>327.6</ele>
        <time>2024-05-01T10:56:30Z</time>
      </trkpt>
      <trkpt lat="45.90591" lon="3.38551">
        <ele>327.6</ele>
        <time>2024-05-01T10:56:31Z</time>
      </trkpt>
      <trkpt lat="45.90589" lon="3.38558">
        <ele>327.6</ele>
        <time>2024-05-01T10:56:32Z</time>
      </trkpt>
      <trkpt lat="45.90587" lon="3.38565">
        <ele>327.8</ele>
        <time>2024-05-01T10:56:33Z</time>
      </trkpt>
      <trkpt lat="45.90585" lon="3.38572">
        <ele>327.8</ele>
        <time>2024-05-01T10:56:34Z</time>
      </trkpt>
      <trkpt lat="45.90584" lon="3.38579">
        <ele>328</ele>
        <time>2024-05-01T10:56:35Z</time>
      </trkpt>
      <trkpt lat="45.90583" lon="3.38586">
        <ele>328</ele>
        <time>2024-05-01T10:56:36Z</time>
      </trkpt>
      <trkpt lat="45.90582" lon="3.38593">
        <ele>328.2</ele>
        <time>2024-05-01T10:56:37Z</time>
      </trkpt>
      <trkpt lat="45.90581" lon="3.386">
        <ele>328.2</ele>
        <time>2024-05-01T10:56:38Z</time>
      </trkpt>
      <trkpt lat="45.9058" lon="3.38606">
        <ele>328.4</ele>
        <time>2024-05-01T10:56:39Z</time>
      </trkpt>
      <trkpt lat="45.90579" lon="3.38613">
        <ele>328.4</ele>
        <time>2024-05-01T10:56:40Z</time>
      </trkpt>
      <trkpt lat="45.90578" lon="3.3862">
        <ele>328.6</ele>
        <time>2024-05-01T10:56:41Z</time>
      </trkpt>
      <trkpt lat="45.90577" lon="3.38627">
        <ele>328.6</ele>
        <time>2024-05-01T10:56:42Z</time>
      </trkpt>
      <trkpt lat="45.90576" lon="3.38633">
        <ele>328.8</ele>
        <time>2024-05-01T10:56:43Z</time>
      </trkpt>
      <trkpt lat="45.90575" lon="3.3864">
        <ele>329</ele>
        <time>2024-05-01T10:56:44Z</time>
      </trkpt>
      <trkpt lat="45.90573" lon="3.38647">
        <ele>329</ele>
        <time>2024-05-01T10:56:45Z</time>
      </trkpt>
      <trkpt lat="45.90572" lon="3.38653">
        <ele>329.2</ele>
        <time>2024-05-01T10:56:46Z</time>
      </trkpt>
      <trkpt lat="45.90571" lon="3.3866">
        <ele>329.2</ele>
        <time>2024-05-01T10:56:47Z</time>
      </trkpt>
      <trkpt lat="45.9057" lon="3.38667">
        <ele>329.4</ele>
        <time>2024-05-01T10:56:48Z</time>
      </trkpt>
      <trkpt lat="45.90569" lon="3.38673">
        <ele>329.6</ele>
        <time>2024-05-01T10:56:49Z</time>
      </trkpt>
      <trkpt lat="45.90568" lon="3.3868">
        <ele>329.6</ele>
        <time>2024-05-01T10:56:50Z</time>
      </trkpt>
      <trkpt lat="45.90567" lon="3.38687">
        <ele>329.8</ele>
        <time>2024-05-01T10:56:51Z</time>
      </trkpt>
      <trkpt lat="45.90566" lon="3.38693">
        <ele>330</ele>
        <time>2024-05-01T10:56:52Z</time>
      </trkpt>
      <trkpt lat="45.90565" lon="3.387">
        <ele>330.2</ele>
        <time>2024-05-01T10:56:53Z</time>
      </trkpt>
      <trkpt lat="45.90564" lon="3.38706">
        <ele>330.4</ele>
        <time>2024-05-01T10:56:54Z</time>
      </trkpt>
      <trkpt lat="45.90563" lon="3.38713">
        <ele>330.4</ele>
        <time>2024-05-01T10:56:55Z</time>
      </trkpt>
      <trkpt lat="45.90562" lon="3.3872">
        <ele>330.6</ele>
        <time>2024-05-01T10:56:56Z</time>
      </trkpt>
      <trkpt lat="45.90561" lon="3.38727">
        <ele>330.8</ele>
        <time>2024-05-01T10:56:57Z</time>
      </trkpt>
      <trkpt lat="45.9056" lon="3.38734">
        <ele>330.8</ele>
        <time>2024-05-01T10:56:58Z</time>
      </trkpt>
      <trkpt lat="45.90559" lon="3.38741">
        <ele>331</ele>
        <time>2024-05-01T10:56:59Z</time>
      </trkpt>
      <trkpt lat="45.90557" lon="3.38747">
        <ele>331.2</ele>
        <time>2024-05-01T10:57:00Z</time>
      </trkpt>
      <trkpt lat="45.90556" lon="3.38754">
        <ele>331.2</ele>
        <time>2024-05-01T10:57:01Z</time>
      </trkpt>
      <trkpt lat="45.90555" lon="3.38761">
        <ele>331.4</ele>
        <time>2024-05-01T10:57:02Z</time>
      </trkpt>
      <trkpt lat="45.90554" lon="3.38767">
        <ele>331.6</ele>
        <time>2024-05-01T10:57:03Z</time>
      </trkpt>
      <trkpt lat="45.90553" lon="3.38774">
        <ele>331.8</ele>
        <time>2024-05-01T10:57:04Z</time>
      </trkpt>
      <trkpt lat="45.90552" lon="3.3878">
        <ele>332</ele>
        <time>2024-05-01T10:57:05Z</time>
      </trkpt>
      <trkpt lat="45.90551" lon="3.38787">
        <ele>332</ele>
        <time>2024-05-01T10:57:06Z</time>
      </trkpt>
      <trkpt lat="45.9055" lon="3.38793">
        <ele>332.2</ele>
        <time>2024-05-01T10:57:07Z</time>
      </trkpt>
      <trkpt lat="45.90549" lon="3.388">
        <ele>332.4</ele>
        <time>2024-05-01T10:57:08Z</time>
      </trkpt>
      <trkpt lat="45.90548" lon="3.38807">
        <ele>332.6</ele>
        <time>2024-05-01T10:57:09Z</time>
      </trkpt>
      <trkpt lat="45.90547" lon="3.38815">
        <ele>332.6</ele>
        <time>2024-05-01T10:57:10Z</time>
      </trkpt>
      <trkpt lat="45.90548" lon="3.38822">
        <ele>332.8</ele>
        <time>2024-05-01T10:57:11Z</time>
      </trkpt>
      <trkpt lat="45.90548" lon="3.38828">
        <ele>333</ele>
        <time>2024-05-01T10:57:12Z</time>
      </trkpt>
      <trkpt lat="45.90549" lon="3.38835">
        <ele>333.2</ele>
        <time>2024-05-01T10:57:13Z</time>
      </trkpt>
      <trkpt lat="45.90549" lon="3.38841">
        <ele>333.2</ele>
        <time>2024-05-01T10:57:14Z</time>
      </trkpt>
      <trkpt lat="45.9055" lon="3.38848">
        <ele>333.4</ele>
        <time>2024-05-01T10:57:15Z</time>
      </trkpt>
      <trkpt lat="45.90552" lon="3.38853">
        <ele>333.6</ele>
        <time>2024-05-01T10:57:16Z</time>
      </trkpt>
      <trkpt lat="45.90553" lon="3.38859">
        <ele>333.8</ele>
        <time>2024-05-01T10:57:17Z</time>
      </trkpt>
      <trkpt lat="45.90555" lon="3.38865">
        <ele>334</ele>
        <time>2024-05-01T10:57:18Z</time>
      </trkpt>
      <trkpt lat="45.90556" lon="3.38871">
        <ele>334.2</ele>
        <time>2024-05-01T10:57:19Z</time>
      </trkpt>
      <trkpt lat="45.90558" lon="3.38877">
        <ele>334.2</ele>
        <time>2024-05-01T10:57:20Z</time>
      </trkpt>
      <trkpt lat="45.90559" lon="3.38883">
        <ele>334.4</ele>
        <time>2024-05-01T10:57:21Z</time>
      </trkpt>
      <trkpt lat="45.90561" lon="3.38889">
        <ele>334.6</ele>
        <time>2024-05-01T10:57:22Z</time>
      </trkpt>
      <trkpt lat="45.90562" lon="3.38895">
        <ele>334.8</ele>
        <time>2024-05-01T10:57:23Z</time>
      </trkpt>
      <trkpt lat="45.90564" lon="3.389">
        <ele>335</ele>
        <time>2024-05-01T10:57:24Z</time>
      </trkpt>
      <trkpt lat="45.90565" lon="3.38906">
        <ele>335.2</ele>
        <time>2024-05-01T10:57:25Z</time>
      </trkpt>
      <trkpt lat="45.90566" lon="3.38912">
        <ele>335.4</ele>
        <time>2024-05-01T10:57:26Z</time>
      </trkpt>
      <trkpt lat="45.90568" lon="3.38918">
        <ele>335.4</ele>
        <time>2024-05-01T10:57:27Z</time>
      </trkpt>
      <trkpt lat="45.90569" lon="3.38923">
        <ele>335.6</ele>
        <time>2024-05-01T10:57:28Z</time>
      </trkpt>
      <trkpt lat="45.90571" lon="3.38929">
        <ele>335.6</ele>
        <time>2024-05-01T10:57:29Z</time>
      </trkpt>
      <trkpt lat="45.90572" lon="3.38934">
        <ele>335.8</ele>
        <time>2024-05-01T10:57:30Z</time>
      </trkpt>
      <trkpt lat="45.90574" lon="3.3894">
        <ele>336</ele>
        <time>2024-05-01T10:57:31Z</time>
      </trkpt>
      <trkpt lat="45.90575" lon="3.38946">
        <ele>336</ele>
        <time>2024-05-01T10:57:32Z</time>
      </trkpt>
      <trkpt lat="45.90577" lon="3.38952">
        <ele>336</ele>
        <time>2024-05-01T10:57:33Z</time>
      </trkpt>
      <trkpt lat="45.90578" lon="3.38958">
        <ele>336.2</ele>
        <time>2024-05-01T10:57:34Z</time>
      </trkpt>
      <trkpt lat="45.9058" lon="3.38964">
        <ele>336.2</ele>
        <time>2024-05-01T10:57:35Z</time>
      </trkpt>
      <trkpt lat="45.90581" lon="3.3897">
        <ele>336.4</ele>
        <time>2024-05-01T10:57:36Z</time>
      </trkpt>
      <trkpt lat="45.90583" lon="3.38975">
        <ele>336.6</ele>
        <time>2024-05-01T10:57:37Z</time>
      </trkpt>
      <trkpt lat="45.90584" lon="3.3898">
        <ele>336.6</ele>
        <time>2024-05-01T10:57:38Z</time>
      </trkpt>
      <trkpt lat="45.90585" lon="3.38986">
        <ele>336.8</ele>
        <time>2024-05-01T10:57:39Z</time>
      </trkpt>
      <trkpt lat="45.90587" lon="3.38991">
        <ele>337</ele>
        <time>2024-05-01T10:57:40Z</time>
      </trkpt>
      <trkpt lat="45.90588" lon="3.38996">
        <ele>337</ele>
        <time>2024-05-01T10:57:41Z</time>
      </trkpt>
      <trkpt lat="45.90589" lon="3.39001">
        <ele>337.2</ele>
        <time>2024-05-01T10:57:42Z</time>
      </trkpt>
      <trkpt lat="45.9059" lon="3.39007">
        <ele>337.2</ele>
        <time>2024-05-01T10:57:43Z</time>
      </trkpt>
      <trkpt lat="45.9059" lon="3.39012">
        <ele>337.2</ele>
        <time>2024-05-01T10:57:44Z</time>
      </trkpt>
      <trkpt lat="45.9059" lon="3.39018">
        <ele>337.2</ele>
        <time>2024-05-01T10:57:45Z</time>
      </trkpt>
      <trkpt lat="45.9059" lon="3.39024">
        <ele>337.4</ele>
        <time>2024-05-01T10:57:46Z</time>
      </trkpt>
      <trkpt lat="45.90591" lon="3.3903">
        <ele>337.6</ele>
        <time>2024-05-01T10:57:47Z</time>
      </trkpt>
      <trkpt lat="45.90591" lon="3.39035">
        <ele>337.8</ele>
        <time>2024-05-01T10:57:48Z</time>
      </trkpt>
      <trkpt lat="45.90591" lon="3.39041">
        <ele>338</ele>
        <time>2024-05-01T10:57:49Z</time>
      </trkpt>
      <trkpt lat="45.90591" lon="3.39048">
        <ele>338.4</ele>
        <time>2024-05-01T10:57:50Z</time>
      </trkpt>
      <trkpt lat="45.90591" lon="3.39054">
        <ele>338.6</ele>
        <time>2024-05-01T10:57:51Z</time>
      </trkpt>
      <trkpt lat="45.90591" lon="3.3906">
        <ele>338.8</ele>
        <time>2024-05-01T10:57:52Z</time>
      </trkpt>
      <trkpt lat="45.90591" lon="3.39067">
        <ele>339</ele>
        <time>2024-05-01T10:57:53Z</time>
      </trkpt>
      <trkpt lat="45.90591" lon="3.39074">
        <ele>339.2</ele>
        <time>2024-05-01T10:57:54Z</time>
      </trkpt>
      <trkpt lat="45.90592" lon="3.39081">
        <ele>339.4</ele>
        <time>2024-05-01T10:57:55Z</time>
      </trkpt>
      <trkpt lat="45.90592" lon="3.39088">
        <ele>339.6</ele>
        <time>2024-05-01T10:57:56Z</time>
      </trkpt>
      <trkpt lat="45.90592" lon="3.39094">
        <ele>339.6</ele>
        <time>2024-05-01T10:57:57Z</time>
      </trkpt>
      <trkpt lat="45.90592" lon="3.39101">
        <ele>339.8</ele>
        <time>2024-05-01T10:57:58Z</time>
      </trkpt>
      <trkpt lat="45.90592" lon="3.39108">
        <ele>340</ele>
        <time>2024-05-01T10:57:59Z</time>
      </trkpt>
      <trkpt lat="45.90592" lon="3.39115">
        <ele>340.2</ele>
        <time>2024-05-01T10:58:00Z</time>
      </trkpt>
      <trkpt lat="45.90591" lon="3.39121">
        <ele>340.2</ele>
        <time>2024-05-01T10:58:01Z</time>
      </trkpt>
      <trkpt lat="45.90591" lon="3.39128">
        <ele>340.4</ele>
        <time>2024-05-01T10:58:02Z</time>
      </trkpt>
      <trkpt lat="45.9059" lon="3.39135">
        <ele>340.6</ele>
        <time>2024-05-01T10:58:03Z</time>
      </trkpt>
      <trkpt lat="45.9059" lon="3.39143">
        <ele>340.6</ele>
        <time>2024-05-01T10:58:04Z</time>
      </trkpt>
      <trkpt lat="45.9059" lon="3.3915">
        <ele>340.8</ele>
        <time>2024-05-01T10:58:05Z</time>
      </trkpt>
      <trkpt lat="45.90589" lon="3.39157">
        <ele>340.8</ele>
        <time>2024-05-01T10:58:06Z</time>
      </trkpt>
      <trkpt lat="45.90589" lon="3.39164">
        <ele>341</ele>
        <time>2024-05-01T10:58:07Z</time>
      </trkpt>
      <trkpt lat="45.90588" lon="3.39171">
        <ele>341</ele>
        <time>2024-05-01T10:58:08Z</time>
      </trkpt>
      <trkpt lat="45.90588" lon="3.39178">
        <ele>341.2</ele>
        <time>2024-05-01T10:58:09Z</time>
      </trkpt>
      <trkpt lat="45.90587" lon="3.39185">
        <ele>341.4</ele>
        <time>2024-05-01T10:58:10Z</time>
      </trkpt>
      <trkpt lat="45.90586" lon="3.39192">
        <ele>341.4</ele>
        <time>2024-05-01T10:58:11Z</time>
      </trkpt>
      <trkpt lat="45.90585" lon="3.39199">
        <ele>341.6</ele>
        <time>2024-05-01T10:58:12Z</time>
      </trkpt>
      <trkpt lat="45.90584" lon="3.39205">
        <ele>341.8</ele>
        <time>2024-05-01T10:58:13Z</time>
      </trkpt>
      <trkpt lat="45.90583" lon="3.39212">
        <ele>341.8</ele>
        <time>2024-05-01T10:58:14Z</time>
      </trkpt>
      <trkpt lat="45.90582" lon="3.39219">
        <ele>342</ele>
        <time>2024-05-01T10:58:15Z</time>
      </trkpt>
      <trkpt lat="45.90581" lon="3.39225">
        <ele>342.2</ele>
        <time>2024-05-01T10:58:16Z</time>
      </trkpt>
      <trkpt lat="45.9058" lon="3.39232">
        <ele>342.4</ele>
        <time>2024-05-01T10:58:17Z</time>
      </trkpt>
      <trkpt lat="45.90579" lon="3.39239">
        <ele>342.4</ele>
        <time>2024-05-01T10:58:18Z</time>
      </trkpt>
      <trkpt lat="45.90578" lon="3.39245">
        <ele>342.6</ele>
        <time>2024-05-01T10:58:19Z</time>
      </trkpt>
      <trkpt lat="45.90577" lon="3.39252">
        <ele>342.8</ele>
        <time>2024-05-01T10:58:20Z</time>
      </trkpt>
      <trkpt lat="45.90576" lon="3.39258">
        <ele>343</ele>
        <time>2024-05-01T10:58:21Z</time>
      </trkpt>
      <trkpt lat="45.90575" lon="3.39265">
        <ele>343.2</ele>
        <time>2024-05-01T10:58:22Z</time>
      </trkpt>
      <trkpt lat="45.90574" lon="3.39272">
        <ele>343.4</ele>
        <time>2024-05-01T10:58:23Z</time>
      </trkpt>
      <trkpt lat="45.90573" lon="3.39279">
        <ele>343.6</ele>
        <time>2024-05-01T10:58:24Z</time>
      </trkpt>
      <trkpt lat="45.90572" lon="3.39285">
        <ele>343.8</ele>
        <time>2024-05-01T10:58:25Z</time>
      </trkpt>
      <trkpt lat="45.90571" lon="3.39292">
        <ele>344</ele>
        <time>2024-05-01T10:58:26Z</time>
      </trkpt>
      <trkpt lat="45.9057" lon="3.39299">
        <ele>344.2</ele>
        <time>2024-05-01T10:58:27Z</time>
      </trkpt>
      <trkpt lat="45.90569" lon="3.39306">
        <ele>344.4</ele>
        <time>2024-05-01T10:58:28Z</time>
      </trkpt>
      <trkpt lat="45.90568" lon="3.39312">
        <ele>344.6</ele>
        <time>2024-05-01T10:58:29Z</time>
      </trkpt>
      <trkpt lat="45.90567" lon="3.39319">
        <ele>344.8</ele>
        <time>2024-05-01T10:58:30Z</time>
      </trkpt>
      <trkpt lat="45.90566" lon="3.39325">
        <ele>345</ele>
        <time>2024-05-01T10:58:31Z</time>
      </trkpt>
      <trkpt lat="45.90565" lon="3.39332">
        <ele>345</ele>
        <time>2024-05-01T10:58:32Z</time>
      </trkpt>
      <trkpt lat="45.90564" lon="3.39339">
        <ele>345.2</ele>
        <time>2024-05-01T10:58:33Z</time>
      </trkpt>
      <trkpt lat="45.90563" lon="3.39345">
        <ele>345.4</ele>
        <time>2024-05-01T10:58:34Z</time>
      </trkpt>
      <trkpt lat="45.90562" lon="3.39352">
        <ele>345.6</ele>
        <time>2024-05-01T10:58:35Z</time>
      </trkpt>
      <trkpt lat="45.90561" lon="3.39359">
        <ele>345.8</ele>
        <time>2024-05-01T10:58:36Z</time>
      </trkpt>
      <trkpt lat="45.9056" lon="3.39366">
        <ele>346</ele>
        <time>2024-05-01T10:58:37Z</time>
      </trkpt>
      <trkpt lat="45.90558" lon="3.39372">
        <ele>346.2</ele>
        <time>2024-05-01T10:58:38Z</time>
      </trkpt>
      <trkpt lat="45.90557" lon="3.39379">
        <ele>346.4</ele>
        <time>2024-05-01T10:58:39Z</time>
      </trkpt>
      <trkpt lat="45.90555" lon="3.39386">
        <ele>346.6</ele>
        <time>2024-05-01T10:58:40Z</time>
      </trkpt>
      <trkpt lat="45.90554" lon="3.39393">
        <ele>346.8</ele>
        <time>2024-05-01T10:58:41Z</time>
      </trkpt>
      <trkpt lat="45.90552" lon="3.394">
        <ele>346.8</ele>
        <time>2024-05-01T10:58:42Z</time>
      </trkpt>
      <trkpt lat="45.90551" lon="3.39407">
        <ele>347</ele>
        <time>2024-05-01T10:58:43Z</time>
      </trkpt>
      <trkpt lat="45.90549" lon="3.39414">
        <ele>347.2</ele>
        <time>2024-05-01T10:58:44Z</time>
      </trkpt>
      <trkpt lat="45.90548" lon="3.39422">
        <ele>347.4</ele>
        <time>2024-05-01T10:58:45Z</time>
      </trkpt>
      <trkpt lat="45.90546" lon="3.39429">
        <ele>347.6</ele>
        <time>2024-05-01T10:58:46Z</time>
      </trkpt>
      <trkpt lat="45.90544" lon="3.39436">
        <ele>347.6</ele>
        <time>2024-05-01T10:58:47Z</time>
      </trkpt>
      <trkpt lat="45.90543" lon="3.39443">
        <ele>347.8</ele>
        <time>2024-05-01T10:58:48Z</time>
      </trkpt>
      <trkpt lat="45.90541" lon="3.3945">
        <ele>348</ele>
        <time>2024-05-01T10:58:49Z</time>
      </trkpt>
      <trkpt lat="45.9054" lon="3.39457">
        <ele>348</ele>
        <time>2024-05-01T10:58:50Z</time>
      </trkpt>
      <trkpt lat="45.90538" lon="3.39465">
        <ele>348.2</ele>
        <time>2024-05-01T10:58:51Z</time>
      </trkpt>
      <trkpt lat="45.90536" lon="3.39473">
        <ele>348.2</ele>
        <time>2024-05-01T10:58:52Z</time>
      </trkpt>
      <trkpt lat="45.90535" lon="3.39481">
        <ele>348.4</ele>
        <time>2024-05-01T10:58:53Z</time>
      </trkpt>
      <trkpt lat="45.90533" lon="3.39489">
        <ele>348.4</ele>
        <time>2024-05-01T10:58:54Z</time>
      </trkpt>
      <trkpt lat="45.90531" lon="3.39497">
        <ele>348.4</ele>
        <time>2024-05-01T10:58:55Z</time>
      </trkpt>
      <trkpt lat="45.9053" lon="3.39504">
        <ele>348.6</ele>
        <time>2024-05-01T10:58:56Z</time>
      </trkpt>
      <trkpt lat="45.90528" lon="3.39512">
        <ele>348.6</ele>
        <time>2024-05-01T10:58:57Z</time>
      </trkpt>
      <trkpt lat="45.90526" lon="3.3952">
        <ele>348.8</ele>
        <time>2024-05-01T10:58:58Z</time>
      </trkpt>
      <trkpt lat="45.90525" lon="3.39528">
        <ele>348.8</ele>
        <time>2024-05-01T10:58:59Z</time>
      </trkpt>
      <trkpt lat="45.90523" lon="3.39536">
        <ele>349</ele>
        <time>2024-05-01T10:59:00Z</time>
      </trkpt>
      <trkpt lat="45.90521" lon="3.39544">
        <ele>349</ele>
        <time>2024-05-01T10:59:01Z</time>
      </trkpt>
      <trkpt lat="45.90519" lon="3.39552">
        <ele>349</ele>
        <time>2024-05-01T10:59:02Z</time>
      </trkpt>
      <trkpt lat="45.90518" lon="3.3956">
        <ele>349.2</ele>
        <time>2024-05-01T10:59:03Z</time>
      </trkpt>
      <trkpt lat="45.90516" lon="3.39568">
        <ele>349.2</ele>
        <time>2024-05-01T10:59:04Z</time>
      </trkpt>
      <trkpt lat="45.90514" lon="3.39576">
        <ele>349.2</ele>
        <time>2024-05-01T10:59:05Z</time>
      </trkpt>
      <trkpt lat="45.90513" lon="3.39584">
        <ele>349.4</ele>
        <time>2024-05-01T10:59:06Z</time>
      </trkpt>
      <trkpt lat="45.90511" lon="3.39592">
        <ele>349.4</ele>
        <time>2024-05-01T10:59:07Z</time>
      </trkpt>
      <trkpt lat="45.90509" lon="3.396">
        <ele>349.4</ele>
        <time>2024-05-01T10:59:08Z</time>
      </trkpt>
      <trkpt lat="45.90507" lon="3.39608">
        <ele>349.6</ele>
        <time>2024-05-01T10:59:09Z</time>
      </trkpt>
      <trkpt lat="45.90506" lon="3.39616">
        <ele>349.6</ele>
        <time>2024-05-01T10:59:10Z</time>
      </trkpt>
      <trkpt lat="45.90504" lon="3.39624">
        <ele>349.6</ele>
        <time>2024-05-01T10:59:11Z</time>
      </trkpt>
      <trkpt lat="45.90502" lon="3.39632">
        <ele>349.6</ele>
        <time>2024-05-01T10:59:12Z</time>
      </trkpt>
      <trkpt lat="45.905" lon="3.3964">
        <ele>349.8</ele>
        <time>2024-05-01T10:59:13Z</time>
      </trkpt>
      <trkpt lat="45.90499" lon="3.39648">
        <ele>349.8</ele>
        <time>2024-05-01T10:59:14Z</time>
      </trkpt>
      <trkpt lat="45.90499" lon="3.39656">
        <ele>349.8</ele>
        <time>2024-05-01T10:59:15Z</time>
      </trkpt>
      <trkpt lat="45.90498" lon="3.39665">
        <ele>349.8</ele>
        <time>2024-05-01T10:59:16Z</time>
      </trkpt>
      <trkpt lat="45.90497" lon="3.39674">
        <ele>349.8</ele>
        <time>2024-05-01T10:59:17Z</time>
      </trkpt>
      <trkpt lat="45.90496" lon="3.39683">
        <ele>349.8</ele>
        <time>2024-05-01T10:59:18Z</time>
      </trkpt>
      <trkpt lat="45.90496" lon="3.39692">
        <ele>349.8</ele>
        <time>2024-05-01T10:59:19Z</time>
      </trkpt>
      <trkpt lat="45.90497" lon="3.39701">
        <ele>349.8</ele>
        <time>2024-05-01T10:59:20Z</time>
      </trkpt>
      <trkpt lat="45.90497" lon="3.39711">
        <ele>349.8</ele>
        <time>2024-05-01T10:59:21Z</time>
      </trkpt>
      <trkpt lat="45.90498" lon="3.39721">
        <ele>349.8</ele>
        <time>2024-05-01T10:59:22Z</time>
      </trkpt>
      <trkpt lat="45.90499" lon="3.3973">
        <ele>349.8</ele>
        <time>2024-05-01T10:59:23Z</time>
      </trkpt>
      <trkpt lat="45.905" lon="3.39739">
        <ele>349.8</ele>
        <time>2024-05-01T10:59:24Z</time>
      </trkpt>
      <trkpt lat="45.905" lon="3.39748">
        <ele>349.8</ele>
        <time>2024-05-01T10:59:25Z</time>
      </trkpt>
      <trkpt lat="45.90501" lon="3.39758">
        <ele>349.8</ele>
        <time>2024-05-01T10:59:26Z</time>
      </trkpt>
      <trkpt lat="45.90502" lon="3.39767">
        <ele>349.8</ele>
        <time>2024-05-01T10:59:27Z</time>
      </trkpt>
      <trkpt lat="45.90503" lon="3.39777">
        <ele>349.8</ele>
        <time>2024-05-01T10:59:28Z</time>
      </trkpt>
      <trkpt lat="45.90504" lon="3.39786">
        <ele>349.6</ele>
        <time>2024-05-01T10:59:29Z</time>
      </trkpt>
      <trkpt lat="45.90504" lon="3.39796">
        <ele>350.2</ele>
        <time>2024-05-01T10:59:30Z</time>
      </trkpt>
      <trkpt lat="45.90505" lon="3.39805">
        <ele>349.8</ele>
        <time>2024-05-01T10:59:31Z</time>
      </trkpt>
      <trkpt lat="45.90506" lon="3.39813">
        <ele>349.6</ele>
        <time>2024-05-01T10:59:32Z</time>
      </trkpt>
      <trkpt lat="45.90506" lon="3.39822">
        <ele>349.4</ele>
        <time>2024-05-01T10:59:33Z</time>
      </trkpt>
      <trkpt lat="45.90507" lon="3.3983">
        <ele>349</ele>
        <time>2024-05-01T10:59:34Z</time>
      </trkpt>
      <trkpt lat="45.90508" lon="3.39839">
        <ele>349.4</ele>
        <time>2024-05-01T10:59:35Z</time>
      </trkpt>
      <trkpt lat="45.90508" lon="3.39847">
        <ele>349.4</ele>
        <time>2024-05-01T10:59:36Z</time>
      </trkpt>
      <trkpt lat="45.90509" lon="3.39855">
        <ele>349.4</ele>
        <time>2024-05-01T10:59:37Z</time>
      </trkpt>
      <trkpt lat="45.9051" lon="3.39863">
        <ele>349.4</ele>
        <time>2024-05-01T10:59:38Z</time>
      </trkpt>
      <trkpt lat="45.9051" lon="3.3987">
        <ele>349.4</ele>
        <time>2024-05-01T10:59:39Z</time>
      </trkpt>
      <trkpt lat="45.90511" lon="3.39878">
        <ele>349.4</ele>
        <time>2024-05-01T10:59:40Z</time>
      </trkpt>
      <trkpt lat="45.90512" lon="3.39885">
        <ele>349.4</ele>
        <time>2024-05-01T10:59:41Z</time>
      </trkpt>
      <trkpt lat="45.90512" lon="3.39893">
        <ele>349.4</ele>
        <time>2024-05-01T10:59:42Z</time>
      </trkpt>
      <trkpt lat="45.90513" lon="3.399">
        <ele>349.4</ele>
        <time>2024-05-01T10:59:43Z</time>
      </trkpt>
      <trkpt lat="45.90513" lon="3.39908">
        <ele>349.4</ele>
        <time>2024-05-01T10:59:44Z</time>
      </trkpt>
      <trkpt lat="45.90514" lon="3.39916">
        <ele>349.4</ele>
        <time>2024-05-01T10:59:45Z</time>
      </trkpt>
      <trkpt lat="45.90514" lon="3.39923">
        <ele>349.4</ele>
        <time>2024-05-01T10:59:46Z</time>
      </trkpt>
      <trkpt lat="45.90515" lon="3.39931">
        <ele>349.4</ele>
        <time>2024-05-01T10:59:47Z</time>
      </trkpt>
      <trkpt lat="45.90515" lon="3.39939">
        <ele>349.4</ele>
        <time>2024-05-01T10:59:48Z</time>
      </trkpt>
      <trkpt lat="45.90516" lon="3.39947">
        <ele>349.4</ele>
        <time>2024-05-01T10:59:49Z</time>
      </trkpt>
      <trkpt lat="45.90516" lon="3.39955">
        <ele>349.4</ele>
        <time>2024-05-01T10:59:50Z</time>
      </trkpt>
      <trkpt lat="45.90517" lon="3.39963">
        <ele>349.4</ele>
        <time>2024-05-01T10:59:51Z</time>
      </trkpt>
      <trkpt lat="45.90516" lon="3.39971">
        <ele>349.4</ele>
        <time>2024-05-01T10:59:52Z</time>
      </trkpt>
      <trkpt lat="45.90516" lon="3.39979">
        <ele>349.2</ele>
        <time>2024-05-01T10:59:53Z</time>
      </trkpt>
      <trkpt lat="45.90515" lon="3.39987">
        <ele>349.2</ele>
        <time>2024-05-01T10:59:54Z</time>
      </trkpt>
      <trkpt lat="45.90514" lon="3.39995">
        <ele>349.2</ele>
        <time>2024-05-01T10:59:55Z</time>
      </trkpt>
      <trkpt lat="45.90513" lon="3.40003">
        <ele>349.2</ele>
        <time>2024-05-01T10:59:56Z</time>
      </trkpt>
      <trkpt lat="45.90512" lon="3.40011">
        <ele>349.4</ele>
        <time>2024-05-01T10:59:57Z</time>
      </trkpt>
      <trkpt lat="45.90511" lon="3.40018">
        <ele>349.6</ele>
        <time>2024-05-01T10:59:58Z</time>
      </trkpt>
      <trkpt lat="45.90511" lon="3.40026">
        <ele>349.6</ele>
        <time>2024-05-01T10:59:59Z</time>
      </trkpt>
      <trkpt lat="45.90509" lon="3.40034">
        <ele>349.4</ele>
        <time>2024-05-01T11:00:00Z</time>
      </trkpt>
      <trkpt lat="45.90507" lon="3.40041">
        <ele>349.6</ele>
        <time>2024-05-01T11:00:01Z</time>
      </trkpt>
      <trkpt lat="45.90505" lon="3.40048">
        <ele>349.8</ele>
        <time>2024-05-01T11:00:02Z</time>
      </trkpt>
      <trkpt lat="45.90503" lon="3.40054">
        <ele>349.6</ele>
        <time>2024-05-01T11:00:03Z</time>
      </trkpt>
      <trkpt lat="45.90501" lon="3.40062">
        <ele>349.6</ele>
        <time>2024-05-01T11:00:04Z</time>
      </trkpt>
      <trkpt lat="45.90499" lon="3.40069">
        <ele>349.6</ele>
        <time>2024-05-01T11:00:05Z</time>
      </trkpt>
      <trkpt lat="45.90497" lon="3.40076">
        <ele>349.6</ele>
        <time>2024-05-01T11:00:06Z</time>
      </trkpt>
      <trkpt lat="45.90495" lon="3.40083">
        <ele>349.6</ele>
        <time>2024-05-01T11:00:07Z</time>
      </trkpt>
      <trkpt lat="45.90493" lon="3.4009">
        <ele>349.8</ele>
        <time>2024-05-01T11:00:08Z</time>
      </trkpt>
      <trkpt lat="45.90491" lon="3.40097">
        <ele>349.8</ele>
        <time>2024-05-01T11:00:09Z</time>
      </trkpt>
      <trkpt lat="45.9049" lon="3.40104">
        <ele>349.8</ele>
        <time>2024-05-01T11:00:10Z</time>
      </trkpt>
      <trkpt lat="45.90488" lon="3.4011">
        <ele>349.8</ele>
        <time>2024-05-01T11:00:11Z</time>
      </trkpt>
      <trkpt lat="45.90486" lon="3.40117">
        <ele>349.8</ele>
        <time>2024-05-01T11:00:12Z</time>
      </trkpt>
      <trkpt lat="45.90484" lon="3.40124">
        <ele>349.8</ele>
        <time>2024-05-01T11:00:13Z</time>
      </trkpt>
      <trkpt lat="45.90482" lon="3.40131">
        <ele>350</ele>
        <time>2024-05-01T11:00:14Z</time>
      </trkpt>
      <trkpt lat="45.9048" lon="3.40137">
        <ele>350</ele>
        <time>2024-05-01T11:00:15Z</time>
      </trkpt>
      <trkpt lat="45.90478" lon="3.40144">
        <ele>350</ele>
        <time>2024-05-01T11:00:16Z</time>
      </trkpt>
      <trkpt lat="45.90476" lon="3.40151">
        <ele>350</ele>
        <time>2024-05-01T11:00:17Z</time>
      </trkpt>
      <trkpt lat="45.90474" lon="3.40158">
        <ele>350.2</ele>
        <time>2024-05-01T11:00:18Z</time>
      </trkpt>
      <trkpt lat="45.90473" lon="3.40165">
        <ele>350.2</ele>
        <time>2024-05-01T11:00:19Z</time>
      </trkpt>
      <trkpt lat="45.90471" lon="3.40172">
        <ele>350.2</ele>
        <time>2024-05-01T11:00:20Z</time>
      </trkpt>
      <trkpt lat="45.90469" lon="3.40179">
        <ele>350.4</ele>
        <time>2024-05-01T11:00:21Z</time>
      </trkpt>
      <trkpt lat="45.90467" lon="3.40186">
        <ele>350.4</ele>
        <time>2024-05-01T11:00:22Z</time>
      </trkpt>
      <trkpt lat="45.90465" lon="3.40193">
        <ele>350.4</ele>
        <time>2024-05-01T11:00:23Z</time>
      </trkpt>
      <trkpt lat="45.90463" lon="3.402">
        <ele>350.4</ele>
        <time>2024-05-01T11:00:24Z</time>
      </trkpt>
      <trkpt lat="45.90461" lon="3.40207">
        <ele>350.6</ele>
        <time>2024-05-01T11:00:25Z</time>
      </trkpt>
      <trkpt lat="45.90459" lon="3.40215">
        <ele>350.6</ele>
        <time>2024-05-01T11:00:26Z</time>
      </trkpt>
      <trkpt lat="45.90457" lon="3.40222">
        <ele>350.6</ele>
        <time>2024-05-01T11:00:27Z</time>
      </trkpt>
      <trkpt lat="45.90455" lon="3.40229">
        <ele>350.6</ele>
        <time>2024-05-01T11:00:28Z</time>
      </trkpt>
      <trkpt lat="45.90453" lon="3.40237">
        <ele>350.6</ele>
        <time>2024-05-01T11:00:29Z</time>
      </trkpt>
      <trkpt lat="45.90451" lon="3.40244">
        <ele>350.8</ele>
        <time>2024-05-01T11:00:30Z</time>
      </trkpt>
      <trkpt lat="45.90449" lon="3.40252">
        <ele>350.8</ele>
        <time>2024-05-01T11:00:31Z</time>
      </trkpt>
      <trkpt lat="45.90447" lon="3.40259">
        <ele>350.8</ele>
        <time>2024-05-01T11:00:32Z</time>
      </trkpt>
      <trkpt lat="45.90445" lon="3.40267">
        <ele>350.8</ele>
        <time>2024-05-01T11:00:33Z</time>
      </trkpt>
      <trkpt lat="45.90443" lon="3.40274">
        <ele>351</ele>
        <time>2024-05-01T11:00:34Z</time>
      </trkpt>
      <trkpt lat="45.90441" lon="3.40282">
        <ele>351</ele>
        <time>2024-05-01T11:00:35Z</time>
      </trkpt>
      <trkpt lat="45.90439" lon="3.40289">
        <ele>351</ele>
        <time>2024-05-01T11:00:36Z</time>
      </trkpt>
      <trkpt lat="45.90436" lon="3.40297">
        <ele>351</ele>
        <time>2024-05-01T11:00:37Z</time>
      </trkpt>
      <trkpt lat="45.90434" lon="3.40304">
        <ele>351</ele>
        <time>2024-05-01T11:00:38Z</time>
      </trkpt>
      <trkpt lat="45.90432" lon="3.40311">
        <ele>351</ele>
        <time>2024-05-01T11:00:39Z</time>
      </trkpt>
      <trkpt lat="45.9043" lon="3.40319">
        <ele>351.2</ele>
        <time>2024-05-01T11:00:40Z</time>
      </trkpt>
      <trkpt lat="45.90428" lon="3.40326">
        <ele>351.2</ele>
        <time>2024-05-01T11:00:41Z</time>
      </trkpt>
      <trkpt lat="45.90425" lon="3.40333">
        <ele>351.2</ele>
        <time>2024-05-01T11:00:42Z</time>
      </trkpt>
      <trkpt lat="45.90423" lon="3.40341">
        <ele>351.2</ele>
        <time>2024-05-01T11:00:43Z</time>
      </trkpt>
      <trkpt lat="45.90421" lon="3.40348">
        <ele>351.2</ele>
        <time>2024-05-01T11:00:44Z</time>
      </trkpt>
      <trkpt lat="45.90419" lon="3.40356">
        <ele>351.4</ele>
        <time>2024-05-01T11:00:45Z</time>
      </trkpt>
      <trkpt lat="45.90416" lon="3.40363">
        <ele>351.4</ele>
        <time>2024-05-01T11:00:46Z</time>
      </trkpt>
      <trkpt lat="45.90414" lon="3.40371">
        <ele>351.4</ele>
        <time>2024-05-01T11:00:47Z</time>
      </trkpt>
      <trkpt lat="45.9041" lon="3.40376">
        <ele>351.4</ele>
        <time>2024-05-01T11:00:48Z</time>
      </trkpt>
      <trkpt lat="45.90406" lon="3.40382">
        <ele>351.6</ele>
        <time>2024-05-01T11:00:49Z</time>
      </trkpt>
      <trkpt lat="45.90402" lon="3.40388">
        <ele>351.6</ele>
        <time>2024-05-01T11:00:50Z</time>
      </trkpt>
      <trkpt lat="45.90399" lon="3.40394">
        <ele>351.6</ele>
        <time>2024-05-01T11:00:51Z</time>
      </trkpt>
      <trkpt lat="45.90395" lon="3.40399">
        <ele>351.6</ele>
        <time>2024-05-01T11:00:52Z</time>
      </trkpt>
      <trkpt lat="45.90391" lon="3.40405">
        <ele>351.6</ele>
        <time>2024-05-01T11:00:53Z</time>
      </trkpt>
      <trkpt lat="45.90387" lon="3.40411">
        <ele>351.8</ele>
        <time>2024-05-01T11:00:54Z</time>
      </trkpt>
      <trkpt lat="45.90383" lon="3.40417">
        <ele>351.8</ele>
        <time>2024-05-01T11:00:55Z</time>
      </trkpt>
      <trkpt lat="45.90379" lon="3.40423">
        <ele>351.8</ele>
        <time>2024-05-01T11:00:56Z</time>
      </trkpt>
      <trkpt lat="45.90375" lon="3.40429">
        <ele>352</ele>
        <time>2024-05-01T11:00:57Z</time>
      </trkpt>
      <trkpt lat="45.90371" lon="3.40436">
        <ele>352</ele>
        <time>2024-05-01T11:00:58Z</time>
      </trkpt>
      <trkpt lat="45.90367" lon="3.40442">
        <ele>352</ele>
        <time>2024-05-01T11:00:59Z</time>
      </trkpt>
      <trkpt lat="45.90363" lon="3.40448">
        <ele>352</ele>
        <time>2024-05-01T11:01:00Z</time>
      </trkpt>
      <trkpt lat="45.90359" lon="3.40454">
        <ele>352</ele>
        <time>2024-05-01T11:01:01Z</time>
      </trkpt>
      <trkpt lat="45.90355" lon="3.4046">
        <ele>352</ele>
        <time>2024-05-01T11:01:02Z</time>
      </trkpt>
      <trkpt lat="45.90351" lon="3.40466">
        <ele>352.2</ele>
        <time>2024-05-01T11:01:03Z</time>
      </trkpt>
      <trkpt lat="45.90347" lon="3.40472">
        <ele>352.2</ele>
        <time>2024-05-01T11:01:04Z</time>
      </trkpt>
      <trkpt lat="45.90343" lon="3.40478">
        <ele>352.2</ele>
        <time>2024-05-01T11:01:05Z</time>
      </trkpt>
      <trkpt lat="45.90339" lon="3.40484">
        <ele>352.2</ele>
        <time>2024-05-01T11:01:06Z</time>
      </trkpt>
      <trkpt lat="45.90335" lon="3.40489">
        <ele>352.2</ele>
        <time>2024-05-01T11:01:07Z</time>
      </trkpt>
      <trkpt lat="45.90331" lon="3.40495">
        <ele>352.2</ele>
        <time>2024-05-01T11:01:08Z</time>
      </trkpt>
      <trkpt lat="45.90327" lon="3.40501">
        <ele>352.2</ele>
        <time>2024-05-01T11:01:09Z</time>
      </trkpt>
      <trkpt lat="45.90323" lon="3.40507">
        <ele>352.4</ele>
        <time>2024-05-01T11:01:10Z</time>
      </trkpt>
      <trkpt lat="45.9032" lon="3.40513">
        <ele>352.4</ele>
        <time>2024-05-01T11:01:11Z</time>
      </trkpt>
      <trkpt lat="45.90316" lon="3.40518">
        <ele>352.4</ele>
        <time>2024-05-01T11:01:12Z</time>
      </trkpt>
      <trkpt lat="45.90312" lon="3.40524">
        <ele>352.4</ele>
        <time>2024-05-01T11:01:13Z</time>
      </trkpt>
      <trkpt lat="45.90308" lon="3.4053">
        <ele>352.6</ele>
        <time>2024-05-01T11:01:14Z</time>
      </trkpt>
      <trkpt lat="45.90304" lon="3.40536">
        <ele>352.6</ele>
        <time>2024-05-01T11:01:15Z</time>
      </trkpt>
      <trkpt lat="45.903" lon="3.40542">
        <ele>352.6</ele>
        <time>2024-05-01T11:01:16Z</time>
      </trkpt>
      <trkpt lat="45.90296" lon="3.40547">
        <ele>352.6</ele>
        <time>2024-05-01T11:01:17Z</time>
      </trkpt>
      <trkpt lat="45.90293" lon="3.40553">
        <ele>352.8</ele>
        <time>2024-05-01T11:01:18Z</time>
      </trkpt>
      <trkpt lat="45.90289" lon="3.40559">
        <ele>352.8</ele>
        <time>2024-05-01T11:01:19Z</time>
      </trkpt>
      <trkpt lat="45.90285" lon="3.40565">
        <ele>352.8</ele>
        <time>2024-05-01T11:01:20Z</time>
      </trkpt>
      <trkpt lat="45.90281" lon="3.40571">
        <ele>353</ele>
        <time>2024-05-01T11:01:21Z</time>
      </trkpt>
      <trkpt lat="45.90278" lon="3.40576">
        <ele>353</ele>
        <time>2024-05-01T11:01:22Z</time>
      </trkpt>
      <trkpt lat="45.90274" lon="3.40582">
        <ele>353</ele>
        <time>2024-05-01T11:01:23Z</time>
      </trkpt>
      <trkpt lat="45.90269" lon="3.40587">
        <ele>353</ele>
        <time>2024-05-01T11:01:24Z</time>
      </trkpt>
      <trkpt lat="45.90265" lon="3.40593">
        <ele>353</ele>
        <time>2024-05-01T11:01:25Z</time>
      </trkpt>
      <trkpt lat="45.90261" lon="3.40598">
        <ele>353.2</ele>
        <time>2024-05-01T11:01:26Z</time>
      </trkpt>
      <trkpt lat="45.90257" lon="3.40604">
        <ele>353.2</ele>
        <time>2024-05-01T11:01:27Z</time>
      </trkpt>
      <trkpt lat="45.90253" lon="3.40609">
        <ele>353.2</ele>
        <time>2024-05-01T11:01:28Z</time>
      </trkpt>
      <trkpt lat="45.90249" lon="3.40615">
        <ele>353.2</ele>
        <time>2024-05-01T11:01:29Z</time>
      </trkpt>
      <trkpt lat="45.90245" lon="3.40621">
        <ele>353.2</ele>
        <time>2024-05-01T11:01:30Z</time>
      </trkpt>
      <trkpt lat="45.90241" lon="3.40626">
        <ele>353.4</ele>
        <time>2024-05-01T11:01:31Z</time>
      </trkpt>
      <trkpt lat="45.90237" lon="3.40632">
        <ele>353.4</ele>
        <time>2024-05-01T11:01:32Z</time>
      </trkpt>
      <trkpt lat="45.90232" lon="3.40638">
        <ele>353.4</ele>
        <time>2024-05-01T11:01:33Z</time>
      </trkpt>
      <trkpt lat="45.90228" lon="3.40644">
        <ele>353.4</ele>
        <time>2024-05-01T11:01:34Z</time>
      </trkpt>
      <trkpt lat="45.90223" lon="3.4065">
        <ele>353.4</ele>
        <time>2024-05-01T11:01:35Z</time>
      </trkpt>
      <trkpt lat="45.90219" lon="3.40656">
        <ele>353.4</ele>
        <time>2024-05-01T11:01:36Z</time>
      </trkpt>
      <trkpt lat="45.90215" lon="3.40662">
        <ele>353.4</ele>
        <time>2024-05-01T11:01:37Z</time>
      </trkpt>
      <trkpt lat="45.90211" lon="3.40668">
        <ele>353.4</ele>
        <time>2024-05-01T11:01:38Z</time>
      </trkpt>
      <trkpt lat="45.90206" lon="3.40673">
        <ele>353.6</ele>
        <time>2024-05-01T11:01:39Z</time>
      </trkpt>
      <trkpt lat="45.90202" lon="3.40679">
        <ele>353.6</ele>
        <time>2024-05-01T11:01:40Z</time>
      </trkpt>
      <trkpt lat="45.90198" lon="3.40685">
        <ele>353.6</ele>
        <time>2024-05-01T11:01:41Z</time>
      </trkpt>
      <trkpt lat="45.90194" lon="3.4069">
        <ele>353.6</ele>
        <time>2024-05-01T11:01:42Z</time>
      </trkpt>
      <trkpt lat="45.9019" lon="3.40696">
        <ele>353.6</ele>
        <time>2024-05-01T11:01:43Z</time>
      </trkpt>
      <trkpt lat="45.90185" lon="3.40702">
        <ele>353.8</ele>
        <time>2024-05-01T11:01:44Z</time>
      </trkpt>
      <trkpt lat="45.90181" lon="3.40708">
        <ele>353.8</ele>
        <time>2024-05-01T11:01:45Z</time>
      </trkpt>
      <trkpt lat="45.90178" lon="3.40715">
        <ele>353.8</ele>
        <time>2024-05-01T11:01:46Z</time>
      </trkpt>
      <trkpt lat="45.90175" lon="3.40722">
        <ele>353.8</ele>
        <time>2024-05-01T11:01:47Z</time>
      </trkpt>
      <trkpt lat="45.90172" lon="3.40729">
        <ele>353.8</ele>
        <time>2024-05-01T11:01:48Z</time>
      </trkpt>
      <trkpt lat="45.90169" lon="3.40736">
        <ele>353.8</ele>
        <time>2024-05-01T11:01:49Z</time>
      </trkpt>
      <trkpt lat="45.90165" lon="3.40743">
        <ele>353.8</ele>
        <time>2024-05-01T11:01:50Z</time>
      </trkpt>
      <trkpt lat="45.90162" lon="3.4075">
        <ele>354</ele>
        <time>2024-05-01T11:01:51Z</time>
      </trkpt>
      <trkpt lat="45.90159" lon="3.40758">
        <ele>354</ele>
        <time>2024-05-01T11:01:52Z</time>
      </trkpt>
      <trkpt lat="45.90156" lon="3.40765">
        <ele>354</ele>
        <time>2024-05-01T11:01:53Z</time>
      </trkpt>
      <trkpt lat="45.90153" lon="3.40772">
        <ele>354</ele>
        <time>2024-05-01T11:01:54Z</time>
      </trkpt>
      <trkpt lat="45.9015" lon="3.4078">
        <ele>354</ele>
        <time>2024-05-01T11:01:55Z</time>
      </trkpt>
      <trkpt lat="45.90147" lon="3.40787">
        <ele>354</ele>
        <time>2024-05-01T11:01:56Z</time>
      </trkpt>
      <trkpt lat="45.90143" lon="3.40794">
        <ele>354</ele>
        <time>2024-05-01T11:01:57Z</time>
      </trkpt>
      <trkpt lat="45.9014" lon="3.40802">
        <ele>354</ele>
        <time>2024-05-01T11:01:58Z</time>
      </trkpt>
      <trkpt lat="45.90137" lon="3.40809">
        <ele>354.2</ele>
        <time>2024-05-01T11:01:59Z</time>
      </trkpt>
      <trkpt lat="45.90134" lon="3.40817">
        <ele>354.2</ele>
        <time>2024-05-01T11:02:00Z</time>
      </trkpt>
      <trkpt lat="45.90131" lon="3.40824">
        <ele>354.2</ele>
        <time>2024-05-01T11:02:01Z</time>
      </trkpt>
      <trkpt lat="45.90128" lon="3.40831">
        <ele>354.2</ele>
        <time>2024-05-01T11:02:02Z</time>
      </trkpt>
      <trkpt lat="45.90124" lon="3.40838">
        <ele>354.2</ele>
        <time>2024-05-01T11:02:03Z</time>
      </trkpt>
      <trkpt lat="45.90121" lon="3.40845">
        <ele>354.2</ele>
        <time>2024-05-01T11:02:04Z</time>
      </trkpt>
      <trkpt lat="45.90118" lon="3.40853">
        <ele>354.4</ele>
        <time>2024-05-01T11:02:05Z</time>
      </trkpt>
      <trkpt lat="45.90115" lon="3.4086">
        <ele>354.4</ele>
        <time>2024-05-01T11:02:06Z</time>
      </trkpt>
      <trkpt lat="45.90112" lon="3.40867">
        <ele>354.4</ele>
        <time>2024-05-01T11:02:07Z</time>
      </trkpt>
      <trkpt lat="45.90109" lon="3.40875">
        <ele>354.4</ele>
        <time>2024-05-01T11:02:08Z</time>
      </trkpt>
      <trkpt lat="45.90105" lon="3.40882">
        <ele>354.4</ele>
        <time>2024-05-01T11:02:09Z</time>
      </trkpt>
      <trkpt lat="45.90102" lon="3.4089">
        <ele>354.4</ele>
        <time>2024-05-01T11:02:10Z</time>
      </trkpt>
      <trkpt lat="45.90099" lon="3.40897">
        <ele>354.4</ele>
        <time>2024-05-01T11:02:11Z</time>
      </trkpt>
      <trkpt lat="45.90096" lon="3.40905">
        <ele>354.4</ele>
        <time>2024-05-01T11:02:12Z</time>
      </trkpt>
      <trkpt lat="45.90092" lon="3.40913">
        <ele>354.2</ele>
        <time>2024-05-01T11:02:13Z</time>
      </trkpt>
      <trkpt lat="45.90089" lon="3.40921">
        <ele>354.2</ele>
        <time>2024-05-01T11:02:14Z</time>
      </trkpt>
      <trkpt lat="45.90085" lon="3.40929">
        <ele>354.2</ele>
        <time>2024-05-01T11:02:15Z</time>
      </trkpt>
      <trkpt lat="45.90081" lon="3.40937">
        <ele>354.2</ele>
        <time>2024-05-01T11:02:16Z</time>
      </trkpt>
      <trkpt lat="45.90077" lon="3.40945">
        <ele>354.2</ele>
        <time>2024-05-01T11:02:17Z</time>
      </trkpt>
      <trkpt lat="45.90073" lon="3.40953">
        <ele>354.2</ele>
        <time>2024-05-01T11:02:18Z</time>
      </trkpt>
      <trkpt lat="45.90069" lon="3.40961">
        <ele>354.4</ele>
        <time>2024-05-01T11:02:19Z</time>
      </trkpt>
      <trkpt lat="45.90064" lon="3.40969">
        <ele>354</ele>
        <time>2024-05-01T11:02:20Z</time>
      </trkpt>
      <trkpt lat="45.9006" lon="3.40977">
        <ele>353.8</ele>
        <time>2024-05-01T11:02:21Z</time>
      </trkpt>
      <trkpt lat="45.90056" lon="3.40985">
        <ele>354</ele>
        <time>2024-05-01T11:02:22Z</time>
      </trkpt>
      <trkpt lat="45.90051" lon="3.40992">
        <ele>354</ele>
        <time>2024-05-01T11:02:23Z</time>
      </trkpt>
      <trkpt lat="45.90047" lon="3.40999">
        <ele>354</ele>
        <time>2024-05-01T11:02:24Z</time>
      </trkpt>
      <trkpt lat="45.90041" lon="3.41006">
        <ele>354</ele>
        <time>2024-05-01T11:02:25Z</time>
      </trkpt>
      <trkpt lat="45.90036" lon="3.41013">
        <ele>354</ele>
        <time>2024-05-01T11:02:26Z</time>
      </trkpt>
      <trkpt lat="45.90031" lon="3.4102">
        <ele>353.8</ele>
        <time>2024-05-01T11:02:27Z</time>
      </trkpt>
      <trkpt lat="45.90026" lon="3.41027">
        <ele>353.8</ele>
        <time>2024-05-01T11:02:28Z</time>
      </trkpt>
      <trkpt lat="45.90021" lon="3.41033">
        <ele>353.8</ele>
        <time>2024-05-01T11:02:29Z</time>
      </trkpt>
      <trkpt lat="45.90016" lon="3.4104">
        <ele>353.8</ele>
        <time>2024-05-01T11:02:30Z</time>
      </trkpt>
      <trkpt lat="45.90012" lon="3.41047">
        <ele>353.8</ele>
        <time>2024-05-01T11:02:31Z</time>
      </trkpt>
      <trkpt lat="45.90007" lon="3.41053">
        <ele>353.8</ele>
        <time>2024-05-01T11:02:32Z</time>
      </trkpt>
      <trkpt lat="45.90002" lon="3.4106">
        <ele>353.8</ele>
        <time>2024-05-01T11:02:33Z</time>
      </trkpt>
      <trkpt lat="45.89997" lon="3.41066">
        <ele>353.6</ele>
        <time>2024-05-01T11:02:34Z</time>
      </trkpt>
      <trkpt lat="45.89993" lon="3.41073">
        <ele>353.6</ele>
        <time>2024-05-01T11:02:35Z</time>
      </trkpt>
      <trkpt lat="45.89988" lon="3.41079">
        <ele>353.6</ele>
        <time>2024-05-01T11:02:36Z</time>
      </trkpt>
      <trkpt lat="45.89984" lon="3.41087">
        <ele>353.4</ele>
        <time>2024-05-01T11:02:37Z</time>
      </trkpt>
      <trkpt lat="45.8998" lon="3.41094">
        <ele>353.4</ele>
        <time>2024-05-01T11:02:38Z</time>
      </trkpt>
      <trkpt lat="45.89976" lon="3.41102">
        <ele>353.4</ele>
        <time>2024-05-01T11:02:39Z</time>
      </trkpt>
      <trkpt lat="45.89972" lon="3.4111">
        <ele>353.2</ele>
        <time>2024-05-01T11:02:40Z</time>
      </trkpt>
      <trkpt lat="45.89969" lon="3.41117">
        <ele>353.2</ele>
        <time>2024-05-01T11:02:41Z</time>
      </trkpt>
      <trkpt lat="45.89965" lon="3.41125">
        <ele>353</ele>
        <time>2024-05-01T11:02:42Z</time>
      </trkpt>
      <trkpt lat="45.89961" lon="3.41133">
        <ele>353</ele>
        <time>2024-05-01T11:02:43Z</time>
      </trkpt>
      <trkpt lat="45.89957" lon="3.4114">
        <ele>353</ele>
        <time>2024-05-01T11:02:44Z</time>
      </trkpt>
      <trkpt lat="45.89953" lon="3.41148">
        <ele>352.8</ele>
        <time>2024-05-01T11:02:45Z</time>
      </trkpt>
      <trkpt lat="45.8995" lon="3.41155">
        <ele>352.8</ele>
        <time>2024-05-01T11:02:46Z</time>
      </trkpt>
      <trkpt lat="45.89946" lon="3.41163">
        <ele>352.8</ele>
        <time>2024-05-01T11:02:47Z</time>
      </trkpt>
      <trkpt lat="45.89943" lon="3.41171">
        <ele>352.8</ele>
        <time>2024-05-01T11:02:48Z</time>
      </trkpt>
      <trkpt lat="45.8994" lon="3.4118">
        <ele>352.6</ele>
        <time>2024-05-01T11:02:49Z</time>
      </trkpt>
      <trkpt lat="45.89938" lon="3.4119">
        <ele>352.6</ele>
        <time>2024-05-01T11:02:50Z</time>
      </trkpt>
      <trkpt lat="45.89936" lon="3.41199">
        <ele>352.4</ele>
        <time>2024-05-01T11:02:51Z</time>
      </trkpt>
      <trkpt lat="45.89934" lon="3.41208">
        <ele>352.4</ele>
        <time>2024-05-01T11:02:52Z</time>
      </trkpt>
      <trkpt lat="45.89932" lon="3.41217">
        <ele>352.2</ele>
        <time>2024-05-01T11:02:53Z</time>
      </trkpt>
      <trkpt lat="45.89931" lon="3.41226">
        <ele>352.2</ele>
        <time>2024-05-01T11:02:54Z</time>
      </trkpt>
      <trkpt lat="45.8993" lon="3.41236">
        <ele>352</ele>
        <time>2024-05-01T11:02:55Z</time>
      </trkpt>
      <trkpt lat="45.89929" lon="3.41246">
        <ele>352</ele>
        <time>2024-05-01T11:02:56Z</time>
      </trkpt>
      <trkpt lat="45.89928" lon="3.41255">
        <ele>352</ele>
        <time>2024-05-01T11:02:57Z</time>
      </trkpt>
      <trkpt lat="45.89927" lon="3.41264">
        <ele>351.8</ele>
        <time>2024-05-01T11:02:58Z</time>
      </trkpt>
      <trkpt lat="45.89926" lon="3.41274">
        <ele>352</ele>
        <time>2024-05-01T11:02:59Z</time>
      </trkpt>
      <trkpt lat="45.89925" lon="3.41284">
        <ele>352</ele>
        <time>2024-05-01T11:03:00Z</time>
      </trkpt>
      <trkpt lat="45.89924" lon="3.41293">
        <ele>351.8</ele>
        <time>2024-05-01T11:03:01Z</time>
      </trkpt>
      <trkpt lat="45.89923" lon="3.41302">
        <ele>351.8</ele>
        <time>2024-05-01T11:03:02Z</time>
      </trkpt>
      <trkpt lat="45.89922" lon="3.41312">
        <ele>351.8</ele>
        <time>2024-05-01T11:03:03Z</time>
      </trkpt>
      <trkpt lat="45.89921" lon="3.41321">
        <ele>351.8</ele>
        <time>2024-05-01T11:03:04Z</time>
      </trkpt>
      <trkpt lat="45.8992" lon="3.4133">
        <ele>351.6</ele>
        <time>2024-05-01T11:03:05Z</time>
      </trkpt>
      <trkpt lat="45.89919" lon="3.41339">
        <ele>351.6</ele>
        <time>2024-05-01T11:03:06Z</time>
      </trkpt>
      <trkpt lat="45.89917" lon="3.41348">
        <ele>351.6</ele>
        <time>2024-05-01T11:03:07Z</time>
      </trkpt>
      <trkpt lat="45.89915" lon="3.41356">
        <ele>351.6</ele>
        <time>2024-05-01T11:03:08Z</time>
      </trkpt>
      <trkpt lat="45.89912" lon="3.41365">
        <ele>351.4</ele>
        <time>2024-05-01T11:03:09Z</time>
      </trkpt>
      <trkpt lat="45.89909" lon="3.41373">
        <ele>351.4</ele>
        <time>2024-05-01T11:03:10Z</time>
      </trkpt>
      <trkpt lat="45.89906" lon="3.41381">
        <ele>351.4</ele>
        <time>2024-05-01T11:03:11Z</time>
      </trkpt>
      <trkpt lat="45.89902" lon="3.41389">
        <ele>351.4</ele>
        <time>2024-05-01T11:03:12Z</time>
      </trkpt>
      <trkpt lat="45.89899" lon="3.41396">
        <ele>351.4</ele>
        <time>2024-05-01T11:03:13Z</time>
      </trkpt>
      <trkpt lat="45.89896" lon="3.41404">
        <ele>351.4</ele>
        <time>2024-05-01T11:03:14Z</time>
      </trkpt>
      <trkpt lat="45.89892" lon="3.41412">
        <ele>351.4</ele>
        <time>2024-05-01T11:03:15Z</time>
      </trkpt>
      <trkpt lat="45.89889" lon="3.41419">
        <ele>351.4</ele>
        <time>2024-05-01T11:03:16Z</time>
      </trkpt>
      <trkpt lat="45.89886" lon="3.41426">
        <ele>351.4</ele>
        <time>2024-05-01T11:03:17Z</time>
      </trkpt>
      <trkpt lat="45.89883" lon="3.41434">
        <ele>351.4</ele>
        <time>2024-05-01T11:03:18Z</time>
      </trkpt>
      <trkpt lat="45.8988" lon="3.41442">
        <ele>351.4</ele>
        <time>2024-05-01T11:03:19Z</time>
      </trkpt>
      <trkpt lat="45.89876" lon="3.41449">
        <ele>351.4</ele>
        <time>2024-05-01T11:03:20Z</time>
      </trkpt>
      <trkpt lat="45.89873" lon="3.41457">
        <ele>351.4</ele>
        <time>2024-05-01T11:03:21Z</time>
      </trkpt>
      <trkpt lat="45.8987" lon="3.41465">
        <ele>351.4</ele>
        <time>2024-05-01T11:03:22Z</time>
      </trkpt>
      <trkpt lat="45.89866" lon="3.41473">
        <ele>351.4</ele>
        <time>2024-05-01T11:03:23Z</time>
      </trkpt>
      <trkpt lat="45.89863" lon="3.41481">
        <ele>351.4</ele>
        <time>2024-05-01T11:03:24Z</time>
      </trkpt>
      <trkpt lat="45.89859" lon="3.41488">
        <ele>351.4</ele>
        <time>2024-05-01T11:03:25Z</time>
      </trkpt>
      <trkpt lat="45.89854" lon="3.41495">
        <ele>351.4</ele>
        <time>2024-05-01T11:03:26Z</time>
      </trkpt>
      <trkpt lat="45.8985" lon="3.41503">
        <ele>351.2</ele>
        <time>2024-05-01T11:03:27Z</time>
      </trkpt>
      <trkpt lat="45.89846" lon="3.4151">
        <ele>351.2</ele>
        <time>2024-05-01T11:03:28Z</time>
      </trkpt>
      <trkpt lat="45.89842" lon="3.41517">
        <ele>351.2</ele>
        <time>2024-05-01T11:03:29Z</time>
      </trkpt>
      <trkpt lat="45.89838" lon="3.41524">
        <ele>351.4</ele>
        <time>2024-05-01T11:03:30Z</time>
      </trkpt>
      <trkpt lat="45.89834" lon="3.41531">
        <ele>351.2</ele>
        <time>2024-05-01T11:03:31Z</time>
      </trkpt>
      <trkpt lat="45.89829" lon="3.41538">
        <ele>351.4</ele>
        <time>2024-05-01T11:03:32Z</time>
      </trkpt>
      <trkpt lat="45.89825" lon="3.41545">
        <ele>351.2</ele>
        <time>2024-05-01T11:03:33Z</time>
      </trkpt>
      <trkpt lat="45.89821" lon="3.41553">
        <ele>351</ele>
        <time>2024-05-01T11:03:34Z</time>
      </trkpt>
      <trkpt lat="45.89817" lon="3.4156">
        <ele>351.4</ele>
        <time>2024-05-01T11:03:35Z</time>
      </trkpt>
      <trkpt lat="45.89813" lon="3.41567">
        <ele>351.2</ele>
        <time>2024-05-01T11:03:36Z</time>
      </trkpt>
      <trkpt lat="45.89808" lon="3.41574">
        <ele>351.2</ele>
        <time>2024-05-01T11:03:37Z</time>
      </trkpt>
      <trkpt lat="45.89803" lon="3.4158">
        <ele>351.2</ele>
        <time>2024-05-01T11:03:38Z</time>
      </trkpt>
      <trkpt lat="45.89799" lon="3.41586">
        <ele>351.2</ele>
        <time>2024-05-01T11:03:39Z</time>
      </trkpt>
      <trkpt lat="45.89794" lon="3.41591">
        <ele>351.2</ele>
        <time>2024-05-01T11:03:40Z</time>
      </trkpt>
      <trkpt lat="45.89789" lon="3.41598">
        <ele>351.2</ele>
        <time>2024-05-01T11:03:41Z</time>
      </trkpt>
      <trkpt lat="45.89784" lon="3.41604">
        <ele>351.2</ele>
        <time>2024-05-01T11:03:42Z</time>
      </trkpt>
      <trkpt lat="45.8978" lon="3.4161">
        <ele>351.2</ele>
        <time>2024-05-01T11:03:43Z</time>
      </trkpt>
      <trkpt lat="45.89775" lon="3.41615">
        <ele>351.2</ele>
        <time>2024-05-01T11:03:44Z</time>
      </trkpt>
      <trkpt lat="45.89771" lon="3.41621">
        <ele>351.2</ele>
        <time>2024-05-01T11:03:45Z</time>
      </trkpt>
      <trkpt lat="45.89766" lon="3.41627">
        <ele>351.2</ele>
        <time>2024-05-01T11:03:46Z</time>
      </trkpt>
      <trkpt lat="45.89762" lon="3.41633">
        <ele>351.2</ele>
        <time>2024-05-01T11:03:47Z</time>
      </trkpt>
      <trkpt lat="45.89757" lon="3.41638">
        <ele>351.2</ele>
        <time>2024-05-01T11:03:48Z</time>
      </trkpt>
      <trkpt lat="45.89753" lon="3.41644">
        <ele>351.2</ele>
        <time>2024-05-01T11:03:49Z</time>
      </trkpt>
      <trkpt lat="45.89748" lon="3.41649">
        <ele>351.2</ele>
        <time>2024-05-01T11:03:50Z</time>
      </trkpt>
      <trkpt lat="45.89744" lon="3.41655">
        <ele>351.2</ele>
        <time>2024-05-01T11:03:51Z</time>
      </trkpt>
      <trkpt lat="45.8974" lon="3.41661">
        <ele>351.2</ele>
        <time>2024-05-01T11:03:52Z</time>
      </trkpt>
      <trkpt lat="45.89735" lon="3.41666">
        <ele>351.2</ele>
        <time>2024-05-01T11:03:53Z</time>
      </trkpt>
      <trkpt lat="45.89731" lon="3.41673">
        <ele>351.2</ele>
        <time>2024-05-01T11:03:54Z</time>
      </trkpt>
      <trkpt lat="45.89727" lon="3.4168">
        <ele>351.2</ele>
        <time>2024-05-01T11:03:55Z</time>
      </trkpt>
      <trkpt lat="45.89723" lon="3.41687">
        <ele>351.2</ele>
        <time>2024-05-01T11:03:56Z</time>
      </trkpt>
      <trkpt lat="45.89719" lon="3.41694">
        <ele>351.2</ele>
        <time>2024-05-01T11:03:57Z</time>
      </trkpt>
      <trkpt lat="45.89715" lon="3.41702">
        <ele>351.4</ele>
        <time>2024-05-01T11:03:58Z</time>
      </trkpt>
      <trkpt lat="45.89712" lon="3.4171">
        <ele>351.4</ele>
        <time>2024-05-01T11:03:59Z</time>
      </trkpt>
      <trkpt lat="45.89708" lon="3.41717">
        <ele>351.2</ele>
        <time>2024-05-01T11:04:00Z</time>
      </trkpt>
      <trkpt lat="45.89704" lon="3.41725">
        <ele>351.4</ele>
        <time>2024-05-01T11:04:01Z</time>
      </trkpt>
      <trkpt lat="45.897" lon="3.41732">
        <ele>351.4</ele>
        <time>2024-05-01T11:04:02Z</time>
      </trkpt>
      <trkpt lat="45.89696" lon="3.4174">
        <ele>351.4</ele>
        <time>2024-05-01T11:04:03Z</time>
      </trkpt>
      <trkpt lat="45.89692" lon="3.41748">
        <ele>351.4</ele>
        <time>2024-05-01T11:04:04Z</time>
      </trkpt>
      <trkpt lat="45.89689" lon="3.41756">
        <ele>351.4</ele>
        <time>2024-05-01T11:04:05Z</time>
      </trkpt>
      <trkpt lat="45.89686" lon="3.41765">
        <ele>351.4</ele>
        <time>2024-05-01T11:04:06Z</time>
      </trkpt>
      <trkpt lat="45.89683" lon="3.41773">
        <ele>351.4</ele>
        <time>2024-05-01T11:04:07Z</time>
      </trkpt>
      <trkpt lat="45.89679" lon="3.41782">
        <ele>351.4</ele>
        <time>2024-05-01T11:04:08Z</time>
      </trkpt>
      <trkpt lat="45.89676" lon="3.4179">
        <ele>351.2</ele>
        <time>2024-05-01T11:04:09Z</time>
      </trkpt>
      <trkpt lat="45.89673" lon="3.41799">
        <ele>351.4</ele>
        <time>2024-05-01T11:04:10Z</time>
      </trkpt>
      <trkpt lat="45.89669" lon="3.41808">
        <ele>351.2</ele>
        <time>2024-05-01T11:04:11Z</time>
      </trkpt>
      <trkpt lat="45.89666" lon="3.41817">
        <ele>351.2</ele>
        <time>2024-05-01T11:04:12Z</time>
      </trkpt>
      <trkpt lat="45.89663" lon="3.41825">
        <ele>351.2</ele>
        <time>2024-05-01T11:04:13Z</time>
      </trkpt>
      <trkpt lat="45.89659" lon="3.41834">
        <ele>351.2</ele>
        <time>2024-05-01T11:04:14Z</time>
      </trkpt>
      <trkpt lat="45.89656" lon="3.41843">
        <ele>351.2</ele>
        <time>2024-05-01T11:04:15Z</time>
      </trkpt>
      <trkpt lat="45.89653" lon="3.41851">
        <ele>351.2</ele>
        <time>2024-05-01T11:04:16Z</time>
      </trkpt>
      <trkpt lat="45.8965" lon="3.41859">
        <ele>351.2</ele>
        <time>2024-05-01T11:04:17Z</time>
      </trkpt>
      <trkpt lat="45.89646" lon="3.41868">
        <ele>351.2</ele>
        <time>2024-05-01T11:04:18Z</time>
      </trkpt>
      <trkpt lat="45.89643" lon="3.41876">
        <ele>351.2</ele>
        <time>2024-05-01T11:04:19Z</time>
      </trkpt>
      <trkpt lat="45.8964" lon="3.41884">
        <ele>351</ele>
        <time>2024-05-01T11:04:20Z</time>
      </trkpt>
      <trkpt lat="45.89637" lon="3.41892">
        <ele>351</ele>
        <time>2024-05-01T11:04:21Z</time>
      </trkpt>
      <trkpt lat="45.89634" lon="3.419">
        <ele>351</ele>
        <time>2024-05-01T11:04:22Z</time>
      </trkpt>
      <trkpt lat="45.89631" lon="3.41908">
        <ele>351</ele>
        <time>2024-05-01T11:04:23Z</time>
      </trkpt>
      <trkpt lat="45.89628" lon="3.41917">
        <ele>351</ele>
        <time>2024-05-01T11:04:24Z</time>
      </trkpt>
      <trkpt lat="45.89625" lon="3.41925">
        <ele>351</ele>
        <time>2024-05-01T11:04:25Z</time>
      </trkpt>
      <trkpt lat="45.89621" lon="3.41933">
        <ele>351</ele>
        <time>2024-05-01T11:04:26Z</time>
      </trkpt>
      <trkpt lat="45.89618" lon="3.41941">
        <ele>351</ele>
        <time>2024-05-01T11:04:27Z</time>
      </trkpt>
      <trkpt lat="45.89615" lon="3.4195">
        <ele>351</ele>
        <time>2024-05-01T11:04:28Z</time>
      </trkpt>
      <trkpt lat="45.89612" lon="3.41959">
        <ele>351</ele>
        <time>2024-05-01T11:04:29Z</time>
      </trkpt>
      <trkpt lat="45.89607" lon="3.41967">
        <ele>350.8</ele>
        <time>2024-05-01T11:04:30Z</time>
      </trkpt>
      <trkpt lat="45.89601" lon="3.41973">
        <ele>350.8</ele>
        <time>2024-05-01T11:04:31Z</time>
      </trkpt>
      <trkpt lat="45.89596" lon="3.41979">
        <ele>350.8</ele>
        <time>2024-05-01T11:04:32Z</time>
      </trkpt>
      <trkpt lat="45.8959" lon="3.41985">
        <ele>350.8</ele>
        <time>2024-05-01T11:04:33Z</time>
      </trkpt>
      <trkpt lat="45.89584" lon="3.4199">
        <ele>350.8</ele>
        <time>2024-05-01T11:04:34Z</time>
      </trkpt>
      <trkpt lat="45.89579" lon="3.41996">
        <ele>350.8</ele>
        <time>2024-05-01T11:04:35Z</time>
      </trkpt>
      <trkpt lat="45.89573" lon="3.42002">
        <ele>350.8</ele>
        <time>2024-05-01T11:04:36Z</time>
      </trkpt>
      <trkpt lat="45.89568" lon="3.42008">
        <ele>350.8</ele>
        <time>2024-05-01T11:04:37Z</time>
      </trkpt>
      <trkpt lat="45.89562" lon="3.42013">
        <ele>350.8</ele>
        <time>2024-05-01T11:04:38Z</time>
      </trkpt>
      <trkpt lat="45.89557" lon="3.42019">
        <ele>350.8</ele>
        <time>2024-05-01T11:04:39Z</time>
      </trkpt>
      <trkpt lat="45.89551" lon="3.42025">
        <ele>350.6</ele>
        <time>2024-05-01T11:04:40Z</time>
      </trkpt>
      <trkpt lat="45.89546" lon="3.4203">
        <ele>350.6</ele>
        <time>2024-05-01T11:04:41Z</time>
      </trkpt>
      <trkpt lat="45.8954" lon="3.42036">
        <ele>350.6</ele>
        <time>2024-05-01T11:04:42Z</time>
      </trkpt>
      <trkpt lat="45.89535" lon="3.42042">
        <ele>350.6</ele>
        <time>2024-05-01T11:04:43Z</time>
      </trkpt>
      <trkpt lat="45.89529" lon="3.42047">
        <ele>350.6</ele>
        <time>2024-05-01T11:04:44Z</time>
      </trkpt>
      <trkpt lat="45.89524" lon="3.42053">
        <ele>350.6</ele>
        <time>2024-05-01T11:04:45Z</time>
      </trkpt>
      <trkpt lat="45.89519" lon="3.42058">
        <ele>350.4</ele>
        <time>2024-05-01T11:04:46Z</time>
      </trkpt>
      <trkpt lat="45.89514" lon="3.42063">
        <ele>350.4</ele>
        <time>2024-05-01T11:04:47Z</time>
      </trkpt>
      <trkpt lat="45.89509" lon="3.42068">
        <ele>350.4</ele>
        <time>2024-05-01T11:04:48Z</time>
      </trkpt>
      <trkpt lat="45.89504" lon="3.42073">
        <ele>350.2</ele>
        <time>2024-05-01T11:04:49Z</time>
      </trkpt>
      <trkpt lat="45.895" lon="3.42078">
        <ele>350.2</ele>
        <time>2024-05-01T11:04:50Z</time>
      </trkpt>
      <trkpt lat="45.89495" lon="3.42083">
        <ele>350.2</ele>
        <time>2024-05-01T11:04:51Z</time>
      </trkpt>
      <trkpt lat="45.8949" lon="3.42089">
        <ele>350</ele>
        <time>2024-05-01T11:04:52Z</time>
      </trkpt>
      <trkpt lat="45.89484" lon="3.42094">
        <ele>350</ele>
        <time>2024-05-01T11:04:53Z</time>
      </trkpt>
      <trkpt lat="45.89479" lon="3.421">
        <ele>350</ele>
        <time>2024-05-01T11:04:54Z</time>
      </trkpt>
      <trkpt lat="45.89473" lon="3.42106">
        <ele>349.8</ele>
        <time>2024-05-01T11:04:55Z</time>
      </trkpt>
      <trkpt lat="45.89468" lon="3.42111">
        <ele>349.8</ele>
        <time>2024-05-01T11:04:56Z</time>
      </trkpt>
      <trkpt lat="45.89462" lon="3.42117">
        <ele>349.6</ele>
        <time>2024-05-01T11:04:57Z</time>
      </trkpt>
      <trkpt lat="45.89457" lon="3.42122">
        <ele>349.6</ele>
        <time>2024-05-01T11:04:58Z</time>
      </trkpt>
      <trkpt lat="45.89452" lon="3.42128">
        <ele>349.6</ele>
        <time>2024-05-01T11:04:59Z</time>
      </trkpt>
      <trkpt lat="45.89447" lon="3.42133">
        <ele>349.6</ele>
        <time>2024-05-01T11:05:00Z</time>
      </trkpt>
      <trkpt lat="45.89442" lon="3.42138">
        <ele>349.4</ele>
        <time>2024-05-01T11:05:01Z</time>
      </trkpt>
      <trkpt lat="45.89437" lon="3.42143">
        <ele>349.4</ele>
        <time>2024-05-01T11:05:02Z</time>
      </trkpt>
      <trkpt lat="45.89433" lon="3.42147">
        <ele>349.4</ele>
        <time>2024-05-01T11:05:03Z</time>
      </trkpt>
      <trkpt lat="45.89428" lon="3.42152">
        <ele>349.4</ele>
        <time>2024-05-01T11:05:04Z</time>
      </trkpt>
      <trkpt lat="45.89424" lon="3.42157">
        <ele>349.2</ele>
        <time>2024-05-01T11:05:05Z</time>
      </trkpt>
      <trkpt lat="45.89419" lon="3.42162">
        <ele>349.2</ele>
        <time>2024-05-01T11:05:06Z</time>
      </trkpt>
      <trkpt lat="45.89414" lon="3.42167">
        <ele>349.2</ele>
        <time>2024-05-01T11:05:07Z</time>
      </trkpt>
      <trkpt lat="45.89409" lon="3.42172">
        <ele>349.2</ele>
        <time>2024-05-01T11:05:08Z</time>
      </trkpt>
      <trkpt lat="45.89404" lon="3.42177">
        <ele>349.2</ele>
        <time>2024-05-01T11:05:09Z</time>
      </trkpt>
      <trkpt lat="45.89399" lon="3.42183">
        <ele>349</ele>
        <time>2024-05-01T11:05:10Z</time>
      </trkpt>
      <trkpt lat="45.89393" lon="3.42188">
        <ele>349</ele>
        <time>2024-05-01T11:05:11Z</time>
      </trkpt>
      <trkpt lat="45.89388" lon="3.42194">
        <ele>349</ele>
        <time>2024-05-01T11:05:12Z</time>
      </trkpt>
      <trkpt lat="45.89383" lon="3.42199">
        <ele>349</ele>
        <time>2024-05-01T11:05:13Z</time>
      </trkpt>
      <trkpt lat="45.89378" lon="3.42204">
        <ele>349</ele>
        <time>2024-05-01T11:05:14Z</time>
      </trkpt>
      <trkpt lat="45.89374" lon="3.42209">
        <ele>349</ele>
        <time>2024-05-01T11:05:15Z</time>
      </trkpt>
      <trkpt lat="45.89368" lon="3.42216">
        <ele>348.8</ele>
        <time>2024-05-01T11:05:16Z</time>
      </trkpt>
      <trkpt lat="45.89366" lon="3.42224">
        <ele>348.8</ele>
        <time>2024-05-01T11:05:17Z</time>
      </trkpt>
      <trkpt lat="45.89363" lon="3.42232">
        <ele>348.8</ele>
        <time>2024-05-01T11:05:18Z</time>
      </trkpt>
      <trkpt lat="45.8936" lon="3.42241">
        <ele>348.8</ele>
        <time>2024-05-01T11:05:19Z</time>
      </trkpt>
      <trkpt lat="45.89357" lon="3.42249">
        <ele>348.8</ele>
        <time>2024-05-01T11:05:20Z</time>
      </trkpt>
      <trkpt lat="45.89355" lon="3.42258">
        <ele>348.8</ele>
        <time>2024-05-01T11:05:21Z</time>
      </trkpt>
      <trkpt lat="45.89352" lon="3.42266">
        <ele>348.6</ele>
        <time>2024-05-01T11:05:22Z</time>
      </trkpt>
      <trkpt lat="45.89349" lon="3.42275">
        <ele>348.6</ele>
        <time>2024-05-01T11:05:23Z</time>
      </trkpt>
      <trkpt lat="45.89346" lon="3.42283">
        <ele>348.6</ele>
        <time>2024-05-01T11:05:24Z</time>
      </trkpt>
      <trkpt lat="45.89343" lon="3.42292">
        <ele>348.6</ele>
        <time>2024-05-01T11:05:25Z</time>
      </trkpt>
      <trkpt lat="45.89341" lon="3.423">
        <ele>348.4</ele>
        <time>2024-05-01T11:05:26Z</time>
      </trkpt>
      <trkpt lat="45.89338" lon="3.42309">
        <ele>348.4</ele>
        <time>2024-05-01T11:05:27Z</time>
      </trkpt>
      <trkpt lat="45.89335" lon="3.42317">
        <ele>348.4</ele>
        <time>2024-05-01T11:05:28Z</time>
      </trkpt>
      <trkpt lat="45.89333" lon="3.42326">
        <ele>348.4</ele>
        <time>2024-05-01T11:05:29Z</time>
      </trkpt>
      <trkpt lat="45.8933" lon="3.42334">
        <ele>348.2</ele>
        <time>2024-05-01T11:05:30Z</time>
      </trkpt>
      <trkpt lat="45.89327" lon="3.42342">
        <ele>348.2</ele>
        <time>2024-05-01T11:05:31Z</time>
      </trkpt>
      <trkpt lat="45.89324" lon="3.42351">
        <ele>348.2</ele>
        <time>2024-05-01T11:05:32Z</time>
      </trkpt>
      <trkpt lat="45.89322" lon="3.42359">
        <ele>348.2</ele>
        <time>2024-05-01T11:05:33Z</time>
      </trkpt>
      <trkpt lat="45.89319" lon="3.42368">
        <ele>348.2</ele>
        <time>2024-05-01T11:05:34Z</time>
      </trkpt>
      <trkpt lat="45.89316" lon="3.42376">
        <ele>348.2</ele>
        <time>2024-05-01T11:05:35Z</time>
      </trkpt>
      <trkpt lat="45.89313" lon="3.42385">
        <ele>348.2</ele>
        <time>2024-05-01T11:05:36Z</time>
      </trkpt>
      <trkpt lat="45.8931" lon="3.42394">
        <ele>348.2</ele>
        <time>2024-05-01T11:05:37Z</time>
      </trkpt>
      <trkpt lat="45.89307" lon="3.42402">
        <ele>348.2</ele>
        <time>2024-05-01T11:05:38Z</time>
      </trkpt>
      <trkpt lat="45.89304" lon="3.4241">
        <ele>348.2</ele>
        <time>2024-05-01T11:05:39Z</time>
      </trkpt>
      <trkpt lat="45.893" lon="3.42418">
        <ele>348.2</ele>
        <time>2024-05-01T11:05:40Z</time>
      </trkpt>
      <trkpt lat="45.89296" lon="3.42426">
        <ele>348.2</ele>
        <time>2024-05-01T11:05:41Z</time>
      </trkpt>
      <trkpt lat="45.89292" lon="3.42434">
        <ele>348</ele>
        <time>2024-05-01T11:05:42Z</time>
      </trkpt>
      <trkpt lat="45.89289" lon="3.42442">
        <ele>348</ele>
        <time>2024-05-01T11:05:43Z</time>
      </trkpt>
      <trkpt lat="45.89285" lon="3.4245">
        <ele>348</ele>
        <time>2024-05-01T11:05:44Z</time>
      </trkpt>
      <trkpt lat="45.89281" lon="3.42458">
        <ele>348</ele>
        <time>2024-05-01T11:05:45Z</time>
      </trkpt>
      <trkpt lat="45.89278" lon="3.42466">
        <ele>347.8</ele>
        <time>2024-05-01T11:05:46Z</time>
      </trkpt>
      <trkpt lat="45.89274" lon="3.42474">
        <ele>347.8</ele>
        <time>2024-05-01T11:05:47Z</time>
      </trkpt>
      <trkpt lat="45.8927" lon="3.42482">
        <ele>347.8</ele>
        <time>2024-05-01T11:05:48Z</time>
      </trkpt>
      <trkpt lat="45.89266" lon="3.42491">
        <ele>347.8</ele>
        <time>2024-05-01T11:05:49Z</time>
      </trkpt>
      <trkpt lat="45.89262" lon="3.42499">
        <ele>347.6</ele>
        <time>2024-05-01T11:05:50Z</time>
      </trkpt>
      <trkpt lat="45.89258" lon="3.42508">
        <ele>347.6</ele>
        <time>2024-05-01T11:05:51Z</time>
      </trkpt>
      <trkpt lat="45.89256" lon="3.42518">
        <ele>347.6</ele>
        <time>2024-05-01T11:05:52Z</time>
      </trkpt>
      <trkpt lat="45.89255" lon="3.42527">
        <ele>347.6</ele>
        <time>2024-05-01T11:05:53Z</time>
      </trkpt>
      <trkpt lat="45.89253" lon="3.42537">
        <ele>347.4</ele>
        <time>2024-05-01T11:05:54Z</time>
      </trkpt>
      <trkpt lat="45.89252" lon="3.42547">
        <ele>347.4</ele>
        <time>2024-05-01T11:05:55Z</time>
      </trkpt>
      <trkpt lat="45.89251" lon="3.42557">
        <ele>347.4</ele>
        <time>2024-05-01T11:05:56Z</time>
      </trkpt>
      <trkpt lat="45.8925" lon="3.42568">
        <ele>347.2</ele>
        <time>2024-05-01T11:05:57Z</time>
      </trkpt>
      <trkpt lat="45.89249" lon="3.42578">
        <ele>347.2</ele>
        <time>2024-05-01T11:05:58Z</time>
      </trkpt>
      <trkpt lat="45.89249" lon="3.42589">
        <ele>347</ele>
        <time>2024-05-01T11:05:59Z</time>
      </trkpt>
      <trkpt lat="45.8925" lon="3.426">
        <ele>347</ele>
        <time>2024-05-01T11:06:00Z</time>
      </trkpt>
      <trkpt lat="45.89252" lon="3.42611">
        <ele>346.8</ele>
        <time>2024-05-01T11:06:01Z</time>
      </trkpt>
      <trkpt lat="45.89253" lon="3.42623">
        <ele>346.8</ele>
        <time>2024-05-01T11:06:02Z</time>
      </trkpt>
      <trkpt lat="45.89254" lon="3.42634">
        <ele>346.8</ele>
        <time>2024-05-01T11:06:03Z</time>
      </trkpt>
      <trkpt lat="45.89255" lon="3.42646">
        <ele>346.6</ele>
        <time>2024-05-01T11:06:04Z</time>
      </trkpt>
      <trkpt lat="45.89257" lon="3.42658">
        <ele>346.6</ele>
        <time>2024-05-01T11:06:05Z</time>
      </trkpt>
      <trkpt lat="45.89258" lon="3.4267">
        <ele>346.4</ele>
        <time>2024-05-01T11:06:06Z</time>
      </trkpt>
      <trkpt lat="45.8926" lon="3.42682">
        <ele>346.4</ele>
        <time>2024-05-01T11:06:07Z</time>
      </trkpt>
      <trkpt lat="45.89261" lon="3.42694">
        <ele>346.2</ele>
        <time>2024-05-01T11:06:08Z</time>
      </trkpt>
      <trkpt lat="45.89263" lon="3.42707">
        <ele>346</ele>
        <time>2024-05-01T11:06:09Z</time>
      </trkpt>
      <trkpt lat="45.89264" lon="3.42719">
        <ele>345.8</ele>
        <time>2024-05-01T11:06:10Z</time>
      </trkpt>
      <trkpt lat="45.89265" lon="3.42732">
        <ele>345.6</ele>
        <time>2024-05-01T11:06:11Z</time>
      </trkpt>
      <trkpt lat="45.89266" lon="3.42746">
        <ele>345.4</ele>
        <time>2024-05-01T11:06:12Z</time>
      </trkpt>
      <trkpt lat="45.89267" lon="3.42759">
        <ele>345.4</ele>
        <time>2024-05-01T11:06:13Z</time>
      </trkpt>
      <trkpt lat="45.89268" lon="3.42772">
        <ele>345.2</ele>
        <time>2024-05-01T11:06:14Z</time>
      </trkpt>
      <trkpt lat="45.89269" lon="3.42786">
        <ele>344.8</ele>
        <time>2024-05-01T11:06:15Z</time>
      </trkpt>
      <trkpt lat="45.8927" lon="3.42799">
        <ele>344.6</ele>
        <time>2024-05-01T11:06:16Z</time>
      </trkpt>
      <trkpt lat="45.89271" lon="3.42813">
        <ele>344.4</ele>
        <time>2024-05-01T11:06:17Z</time>
      </trkpt>
      <trkpt lat="45.89272" lon="3.42826">
        <ele>344.2</ele>
        <time>2024-05-01T11:06:18Z</time>
      </trkpt>
      <trkpt lat="45.89272" lon="3.4284">
        <ele>344</ele>
        <time>2024-05-01T11:06:19Z</time>
      </trkpt>
      <trkpt lat="45.89272" lon="3.42854">
        <ele>344</ele>
        <time>2024-05-01T11:06:20Z</time>
      </trkpt>
      <trkpt lat="45.89271" lon="3.42868">
        <ele>343.8</ele>
        <time>2024-05-01T11:06:21Z</time>
      </trkpt>
      <trkpt lat="45.89271" lon="3.42882">
        <ele>343.6</ele>
        <time>2024-05-01T11:06:22Z</time>
      </trkpt>
      <trkpt lat="45.8927" lon="3.42896">
        <ele>343.4</ele>
        <time>2024-05-01T11:06:23Z</time>
      </trkpt>
      <trkpt lat="45.89268" lon="3.42909">
        <ele>343</ele>
        <time>2024-05-01T11:06:24Z</time>
      </trkpt>
      <trkpt lat="45.89266" lon="3.42922">
        <ele>342.8</ele>
        <time>2024-05-01T11:06:25Z</time>
      </trkpt>
      <trkpt lat="45.89264" lon="3.42935">
        <ele>342.6</ele>
        <time>2024-05-01T11:06:26Z</time>
      </trkpt>
      <trkpt lat="45.89262" lon="3.42948">
        <ele>342.4</ele>
        <time>2024-05-01T11:06:27Z</time>
      </trkpt>
      <trkpt lat="45.8926" lon="3.42961">
        <ele>342.4</ele>
        <time>2024-05-01T11:06:28Z</time>
      </trkpt>
      <trkpt lat="45.89258" lon="3.42974">
        <ele>342.2</ele>
        <time>2024-05-01T11:06:29Z</time>
      </trkpt>
      <trkpt lat="45.89257" lon="3.42987">
        <ele>342</ele>
        <time>2024-05-01T11:06:30Z</time>
      </trkpt>
      <trkpt lat="45.89254" lon="3.42999">
        <ele>341.8</ele>
        <time>2024-05-01T11:06:31Z</time>
      </trkpt>
      <trkpt lat="45.89251" lon="3.43011">
        <ele>341.6</ele>
        <time>2024-05-01T11:06:32Z</time>
      </trkpt>
      <trkpt lat="45.89247" lon="3.43023">
        <ele>341.4</ele>
        <time>2024-05-01T11:06:33Z</time>
      </trkpt>
      <trkpt lat="45.89243" lon="3.43035">
        <ele>341.4</ele>
        <time>2024-05-01T11:06:34Z</time>
      </trkpt>
      <trkpt lat="45.8924" lon="3.43046">
        <ele>341.2</ele>
        <time>2024-05-01T11:06:35Z</time>
      </trkpt>
      <trkpt lat="45.89236" lon="3.43058">
        <ele>341</ele>
        <time>2024-05-01T11:06:36Z</time>
      </trkpt>
      <trkpt lat="45.89233" lon="3.4307">
        <ele>340.8</ele>
        <time>2024-05-01T11:06:37Z</time>
      </trkpt>
      <trkpt lat="45.8923" lon="3.43081">
        <ele>340.6</ele>
        <time>2024-05-01T11:06:38Z</time>
      </trkpt>
      <trkpt lat="45.89226" lon="3.43093">
        <ele>340.4</ele>
        <time>2024-05-01T11:06:39Z</time>
      </trkpt>
      <trkpt lat="45.89223" lon="3.43105">
        <ele>340.2</ele>
        <time>2024-05-01T11:06:40Z</time>
      </trkpt>
      <trkpt lat="45.89219" lon="3.43116">
        <ele>340</ele>
        <time>2024-05-01T11:06:41Z</time>
      </trkpt>
      <trkpt lat="45.89216" lon="3.43128">
        <ele>339.8</ele>
        <time>2024-05-01T11:06:42Z</time>
      </trkpt>
      <trkpt lat="45.89212" lon="3.43139">
        <ele>339.6</ele>
        <time>2024-05-01T11:06:43Z</time>
      </trkpt>
      <trkpt lat="45.89209" lon="3.43151">
        <ele>339.4</ele>
        <time>2024-05-01T11:06:44Z</time>
      </trkpt>
      <trkpt lat="45.89206" lon="3.43162">
        <ele>339.2</ele>
        <time>2024-05-01T11:06:45Z</time>
      </trkpt>
      <trkpt lat="45.89202" lon="3.43174">
        <ele>339</ele>
        <time>2024-05-01T11:06:46Z</time>
      </trkpt>
      <trkpt lat="45.89199" lon="3.43185">
        <ele>339</ele>
        <time>2024-05-01T11:06:47Z</time>
      </trkpt>
      <trkpt lat="45.89195" lon="3.43196">
        <ele>338.8</ele>
        <time>2024-05-01T11:06:48Z</time>
      </trkpt>
      <trkpt lat="45.89192" lon="3.43208">
        <ele>338.6</ele>
        <time>2024-05-01T11:06:49Z</time>
      </trkpt>
      <trkpt lat="45.89189" lon="3.43219">
        <ele>338.4</ele>
        <time>2024-05-01T11:06:50Z</time>
      </trkpt>
      <trkpt lat="45.89185" lon="3.4323">
        <ele>338.2</ele>
        <time>2024-05-01T11:06:51Z</time>
      </trkpt>
      <trkpt lat="45.89182" lon="3.43242">
        <ele>338</ele>
        <time>2024-05-01T11:06:52Z</time>
      </trkpt>
      <trkpt lat="45.89179" lon="3.43253">
        <ele>337.8</ele>
        <time>2024-05-01T11:06:53Z</time>
      </trkpt>
      <trkpt lat="45.89175" lon="3.43264">
        <ele>337.6</ele>
        <time>2024-05-01T11:06:54Z</time>
      </trkpt>
      <trkpt lat="45.89172" lon="3.43275">
        <ele>337.4</ele>
        <time>2024-05-01T11:06:55Z</time>
      </trkpt>
      <trkpt lat="45.89169" lon="3.43286">
        <ele>337.2</ele>
        <time>2024-05-01T11:06:56Z</time>
      </trkpt>
      <trkpt lat="45.89165" lon="3.43298">
        <ele>337</ele>
        <time>2024-05-01T11:06:57Z</time>
      </trkpt>
      <trkpt lat="45.89162" lon="3.43309">
        <ele>337</ele>
        <time>2024-05-01T11:06:58Z</time>
      </trkpt>
      <trkpt lat="45.89159" lon="3.4332">
        <ele>336.8</ele>
        <time>2024-05-01T11:06:59Z</time>
      </trkpt>
      <trkpt lat="45.89155" lon="3.43331">
        <ele>336.6</ele>
        <time>2024-05-01T11:07:00Z</time>
      </trkpt>
      <trkpt lat="45.89152" lon="3.43342">
        <ele>336.4</ele>
        <time>2024-05-01T11:07:01Z</time>
      </trkpt>
      <trkpt lat="45.89149" lon="3.43354">
        <ele>336.2</ele>
        <time>2024-05-01T11:07:02Z</time>
      </trkpt>
      <trkpt lat="45.89145" lon="3.43365">
        <ele>336.2</ele>
        <time>2024-05-01T11:07:03Z</time>
      </trkpt>
      <trkpt lat="45.89142" lon="3.43376">
        <ele>336</ele>
        <time>2024-05-01T11:07:04Z</time>
      </trkpt>
      <trkpt lat="45.89139" lon="3.43388">
        <ele>335.8</ele>
        <time>2024-05-01T11:07:05Z</time>
      </trkpt>
      <trkpt lat="45.89135" lon="3.43399">
        <ele>335.6</ele>
        <time>2024-05-01T11:07:06Z</time>
      </trkpt>
      <trkpt lat="45.89132" lon="3.43411">
        <ele>335.4</ele>
        <time>2024-05-01T11:07:07Z</time>
      </trkpt>
      <trkpt lat="45.89128" lon="3.43422">
        <ele>335.2</ele>
        <time>2024-05-01T11:07:08Z</time>
      </trkpt>
      <trkpt lat="45.89125" lon="3.43433">
        <ele>335</ele>
        <time>2024-05-01T11:07:09Z</time>
      </trkpt>
      <trkpt lat="45.89122" lon="3.43445">
        <ele>334.8</ele>
        <time>2024-05-01T11:07:10Z</time>
      </trkpt>
      <trkpt lat="45.89118" lon="3.43456">
        <ele>334.6</ele>
        <time>2024-05-01T11:07:11Z</time>
      </trkpt>
      <trkpt lat="45.89115" lon="3.43468">
        <ele>334.4</ele>
        <time>2024-05-01T11:07:12Z</time>
      </trkpt>
      <trkpt lat="45.89111" lon="3.43479">
        <ele>334.4</ele>
        <time>2024-05-01T11:07:13Z</time>
      </trkpt>
      <trkpt lat="45.89108" lon="3.43491">
        <ele>334</ele>
        <time>2024-05-01T11:07:14Z</time>
      </trkpt>
      <trkpt lat="45.89105" lon="3.43502">
        <ele>333.8</ele>
        <time>2024-05-01T11:07:15Z</time>
      </trkpt>
      <trkpt lat="45.89101" lon="3.43514">
        <ele>333.8</ele>
        <time>2024-05-01T11:07:16Z</time>
      </trkpt>
      <trkpt lat="45.89098" lon="3.43525">
        <ele>333.6</ele>
        <time>2024-05-01T11:07:17Z</time>
      </trkpt>
      <trkpt lat="45.89094" lon="3.43537">
        <ele>333.4</ele>
        <time>2024-05-01T11:07:18Z</time>
      </trkpt>
      <trkpt lat="45.89091" lon="3.43548">
        <ele>333.2</ele>
        <time>2024-05-01T11:07:19Z</time>
      </trkpt>
      <trkpt lat="45.89088" lon="3.4356">
        <ele>333</ele>
        <time>2024-05-01T11:07:20Z</time>
      </trkpt>
      <trkpt lat="45.89084" lon="3.43571">
        <ele>332.8</ele>
        <time>2024-05-01T11:07:21Z</time>
      </trkpt>
      <trkpt lat="45.89081" lon="3.43582">
        <ele>332.6</ele>
        <time>2024-05-01T11:07:22Z</time>
      </trkpt>
      <trkpt lat="45.89077" lon="3.43594">
        <ele>332.4</ele>
        <time>2024-05-01T11:07:23Z</time>
      </trkpt>
      <trkpt lat="45.89074" lon="3.43605">
        <ele>332.2</ele>
        <time>2024-05-01T11:07:24Z</time>
      </trkpt>
      <trkpt lat="45.89071" lon="3.43616">
        <ele>332</ele>
        <time>2024-05-01T11:07:25Z</time>
      </trkpt>
      <trkpt lat="45.89067" lon="3.43627">
        <ele>331.8</ele>
        <time>2024-05-01T11:07:26Z</time>
      </trkpt>
      <trkpt lat="45.89064" lon="3.43639">
        <ele>331.6</ele>
        <time>2024-05-01T11:07:27Z</time>
      </trkpt>
      <trkpt lat="45.89061" lon="3.4365">
        <ele>331.4</ele>
        <time>2024-05-01T11:07:28Z</time>
      </trkpt>
      <trkpt lat="45.89058" lon="3.43661">
        <ele>331.2</ele>
        <time>2024-05-01T11:07:29Z</time>
      </trkpt>
      <trkpt lat="45.89054" lon="3.43672">
        <ele>331.2</ele>
        <time>2024-05-01T11:07:30Z</time>
      </trkpt>
      <trkpt lat="45.89051" lon="3.43683">
        <ele>331</ele>
        <time>2024-05-01T11:07:31Z</time>
      </trkpt>
      <trkpt lat="45.89048" lon="3.43694">
        <ele>330.8</ele>
        <time>2024-05-01T11:07:32Z</time>
      </trkpt>
      <trkpt lat="45.89044" lon="3.43705">
        <ele>330.6</ele>
        <time>2024-05-01T11:07:33Z</time>
      </trkpt>
      <trkpt lat="45.89041" lon="3.43716">
        <ele>330.4</ele>
        <time>2024-05-01T11:07:34Z</time>
      </trkpt>
      <trkpt lat="45.89038" lon="3.43727">
        <ele>330.2</ele>
        <time>2024-05-01T11:07:35Z</time>
      </trkpt>
      <trkpt lat="45.89035" lon="3.43738">
        <ele>330.2</ele>
        <time>2024-05-01T11:07:36Z</time>
      </trkpt>
      <trkpt lat="45.89032" lon="3.43748">
        <ele>330</ele>
        <time>2024-05-01T11:07:37Z</time>
      </trkpt>
      <trkpt lat="45.89029" lon="3.43759">
        <ele>329.8</ele>
        <time>2024-05-01T11:07:38Z</time>
      </trkpt>
      <trkpt lat="45.89025" lon="3.43769">
        <ele>329.6</ele>
        <time>2024-05-01T11:07:39Z</time>
      </trkpt>
      <trkpt lat="45.89022" lon="3.4378">
        <ele>329.6</ele>
        <time>2024-05-01T11:07:40Z</time>
      </trkpt>
      <trkpt lat="45.89019" lon="3.4379">
        <ele>329.4</ele>
        <time>2024-05-01T11:07:41Z</time>
      </trkpt>
      <trkpt lat="45.89016" lon="3.43801">
        <ele>329.2</ele>
        <time>2024-05-01T11:07:42Z</time>
      </trkpt>
      <trkpt lat="45.89013" lon="3.43812">
        <ele>329</ele>
        <time>2024-05-01T11:07:43Z</time>
      </trkpt>
      <trkpt lat="45.8901" lon="3.43822">
        <ele>328.8</ele>
        <time>2024-05-01T11:07:44Z</time>
      </trkpt>
      <trkpt lat="45.89007" lon="3.43833">
        <ele>328.8</ele>
        <time>2024-05-01T11:07:45Z</time>
      </trkpt>
      <trkpt lat="45.89003" lon="3.43843">
        <ele>328.6</ele>
        <time>2024-05-01T11:07:46Z</time>
      </trkpt>
      <trkpt lat="45.89001" lon="3.43853">
        <ele>328.4</ele>
        <time>2024-05-01T11:07:47Z</time>
      </trkpt>
      <trkpt lat="45.88998" lon="3.43863">
        <ele>328.4</ele>
        <time>2024-05-01T11:07:48Z</time>
      </trkpt>
      <trkpt lat="45.88995" lon="3.43873">
        <ele>328.2</ele>
        <time>2024-05-01T11:07:49Z</time>
      </trkpt>
      <trkpt lat="45.88992" lon="3.43882">
        <ele>328</ele>
        <time>2024-05-01T11:07:50Z</time>
      </trkpt>
      <trkpt lat="45.88988" lon="3.43892">
        <ele>328</ele>
        <time>2024-05-01T11:07:51Z</time>
      </trkpt>
      <trkpt lat="45.88985" lon="3.43901">
        <ele>327.8</ele>
        <time>2024-05-01T11:07:52Z</time>
      </trkpt>
      <trkpt lat="45.88982" lon="3.43911">
        <ele>327.8</ele>
        <time>2024-05-01T11:07:53Z</time>
      </trkpt>
      <trkpt lat="45.88979" lon="3.4392">
        <ele>327.6</ele>
        <time>2024-05-01T11:07:54Z</time>
      </trkpt>
      <trkpt lat="45.88976" lon="3.4393">
        <ele>327.4</ele>
        <time>2024-05-01T11:07:55Z</time>
      </trkpt>
      <trkpt lat="45.88973" lon="3.43939">
        <ele>327.4</ele>
        <time>2024-05-01T11:07:56Z</time>
      </trkpt>
      <trkpt lat="45.8897" lon="3.43948">
        <ele>327.2</ele>
        <time>2024-05-01T11:07:57Z</time>
      </trkpt>
      <trkpt lat="45.88967" lon="3.43957">
        <ele>327.2</ele>
        <time>2024-05-01T11:07:58Z</time>
      </trkpt>
      <trkpt lat="45.88964" lon="3.43966">
        <ele>327.2</ele>
        <time>2024-05-01T11:07:59Z</time>
      </trkpt>
      <trkpt lat="45.88961" lon="3.43975">
        <ele>327</ele>
        <time>2024-05-01T11:08:00Z</time>
      </trkpt>
      <trkpt lat="45.88958" lon="3.43984">
        <ele>327</ele>
        <time>2024-05-01T11:08:01Z</time>
      </trkpt>
      <trkpt lat="45.88955" lon="3.43993">
        <ele>326.8</ele>
        <time>2024-05-01T11:08:02Z</time>
      </trkpt>
      <trkpt lat="45.88952" lon="3.44002">
        <ele>326.6</ele>
        <time>2024-05-01T11:08:03Z</time>
      </trkpt>
      <trkpt lat="45.88949" lon="3.44011">
        <ele>326.6</ele>
        <time>2024-05-01T11:08:04Z</time>
      </trkpt>
      <trkpt lat="45.88946" lon="3.44019">
        <ele>326.4</ele>
        <time>2024-05-01T11:08:05Z</time>
      </trkpt>
      <trkpt lat="45.88943" lon="3.44027">
        <ele>326.4</ele>
        <time>2024-05-01T11:08:06Z</time>
      </trkpt>
      <trkpt lat="45.8894" lon="3.44035">
        <ele>326.2</ele>
        <time>2024-05-01T11:08:07Z</time>
      </trkpt>
      <trkpt lat="45.88937" lon="3.44044">
        <ele>326.2</ele>
        <time>2024-05-01T11:08:08Z</time>
      </trkpt>
      <trkpt lat="45.88933" lon="3.44052">
        <ele>326</ele>
        <time>2024-05-01T11:08:09Z</time>
      </trkpt>
      <trkpt lat="45.8893" lon="3.4406">
        <ele>326</ele>
        <time>2024-05-01T11:08:10Z</time>
      </trkpt>
      <trkpt lat="45.88927" lon="3.44068">
        <ele>326</ele>
        <time>2024-05-01T11:08:11Z</time>
      </trkpt>
      <trkpt lat="45.88924" lon="3.44076">
        <ele>325.8</ele>
        <time>2024-05-01T11:08:12Z</time>
      </trkpt>
      <trkpt lat="45.8892" lon="3.44084">
        <ele>325.8</ele>
        <time>2024-05-01T11:08:13Z</time>
      </trkpt>
      <trkpt lat="45.88917" lon="3.44092">
        <ele>325.6</ele>
        <time>2024-05-01T11:08:14Z</time>
      </trkpt>
      <trkpt lat="45.88912" lon="3.441">
        <ele>325.6</ele>
        <time>2024-05-01T11:08:15Z</time>
      </trkpt>
      <trkpt lat="45.88908" lon="3.44108">
        <ele>325.4</ele>
        <time>2024-05-01T11:08:16Z</time>
      </trkpt>
      <trkpt lat="45.88904" lon="3.44116">
        <ele>325.4</ele>
        <time>2024-05-01T11:08:17Z</time>
      </trkpt>
      <trkpt lat="45.889" lon="3.44124">
        <ele>325.2</ele>
        <time>2024-05-01T11:08:18Z</time>
      </trkpt>
      <trkpt lat="45.88896" lon="3.44132">
        <ele>325.2</ele>
        <time>2024-05-01T11:08:19Z</time>
      </trkpt>
      <trkpt lat="45.88891" lon="3.4414">
        <ele>325.2</ele>
        <time>2024-05-01T11:08:20Z</time>
      </trkpt>
      <trkpt lat="45.88887" lon="3.44148">
        <ele>325</ele>
        <time>2024-05-01T11:08:21Z</time>
      </trkpt>
      <trkpt lat="45.88883" lon="3.44156">
        <ele>325</ele>
        <time>2024-05-01T11:08:22Z</time>
      </trkpt>
      <trkpt lat="45.88879" lon="3.44164">
        <ele>324.8</ele>
        <time>2024-05-01T11:08:23Z</time>
      </trkpt>
      <trkpt lat="45.88875" lon="3.44171">
        <ele>324.8</ele>
        <time>2024-05-01T11:08:24Z</time>
      </trkpt>
      <trkpt lat="45.88871" lon="3.44179">
        <ele>324.8</ele>
        <time>2024-05-01T11:08:25Z</time>
      </trkpt>
      <trkpt lat="45.88866" lon="3.44187">
        <ele>324.6</ele>
        <time>2024-05-01T11:08:26Z</time>
      </trkpt>
      <trkpt lat="45.88862" lon="3.44195">
        <ele>324.6</ele>
        <time>2024-05-01T11:08:27Z</time>
      </trkpt>
      <trkpt lat="45.88858" lon="3.44203">
        <ele>324.6</ele>
        <time>2024-05-01T11:08:28Z</time>
      </trkpt>
      <trkpt lat="45.88853" lon="3.4421">
        <ele>324.4</ele>
        <time>2024-05-01T11:08:29Z</time>
      </trkpt>
      <trkpt lat="45.88849" lon="3.44217">
        <ele>324.4</ele>
        <time>2024-05-01T11:08:30Z</time>
      </trkpt>
      <trkpt lat="45.88844" lon="3.44224">
        <ele>324.4</ele>
        <time>2024-05-01T11:08:31Z</time>
      </trkpt>
      <trkpt lat="45.88839" lon="3.44231">
        <ele>324.2</ele>
        <time>2024-05-01T11:08:32Z</time>
      </trkpt>
      <trkpt lat="45.88835" lon="3.44238">
        <ele>324.2</ele>
        <time>2024-05-01T11:08:33Z</time>
      </trkpt>
      <trkpt lat="45.8883" lon="3.44245">
        <ele>324.2</ele>
        <time>2024-05-01T11:08:34Z</time>
      </trkpt>
      <trkpt lat="45.88825" lon="3.44251">
        <ele>324.2</ele>
        <time>2024-05-01T11:08:35Z</time>
      </trkpt>
      <trkpt lat="45.88821" lon="3.44257">
        <ele>324</ele>
        <time>2024-05-01T11:08:36Z</time>
      </trkpt>
      <trkpt lat="45.88816" lon="3.44263">
        <ele>324</ele>
        <time>2024-05-01T11:08:37Z</time>
      </trkpt>
      <trkpt lat="45.88811" lon="3.44269">
        <ele>324</ele>
        <time>2024-05-01T11:08:38Z</time>
      </trkpt>
      <trkpt lat="45.88806" lon="3.44275">
        <ele>324</ele>
        <time>2024-05-01T11:08:39Z</time>
      </trkpt>
      <trkpt lat="45.88801" lon="3.44281">
        <ele>323.8</ele>
        <time>2024-05-01T11:08:40Z</time>
      </trkpt>
      <trkpt lat="45.88797" lon="3.44287">
        <ele>323.8</ele>
        <time>2024-05-01T11:08:41Z</time>
      </trkpt>
      <trkpt lat="45.88792" lon="3.44293">
        <ele>323.8</ele>
        <time>2024-05-01T11:08:42Z</time>
      </trkpt>
      <trkpt lat="45.88787" lon="3.44299">
        <ele>323.6</ele>
        <time>2024-05-01T11:08:43Z</time>
      </trkpt>
      <trkpt lat="45.88783" lon="3.44305">
        <ele>323.6</ele>
        <time>2024-05-01T11:08:44Z</time>
      </trkpt>
      <trkpt lat="45.88778" lon="3.44311">
        <ele>323.6</ele>
        <time>2024-05-01T11:08:45Z</time>
      </trkpt>
      <trkpt lat="45.88773" lon="3.44317">
        <ele>323.4</ele>
        <time>2024-05-01T11:08:46Z</time>
      </trkpt>
      <trkpt lat="45.88768" lon="3.44323">
        <ele>323.4</ele>
        <time>2024-05-01T11:08:47Z</time>
      </trkpt>
      <trkpt lat="45.88764" lon="3.44329">
        <ele>323.4</ele>
        <time>2024-05-01T11:08:48Z</time>
      </trkpt>
      <trkpt lat="45.88759" lon="3.44335">
        <ele>323.4</ele>
        <time>2024-05-01T11:08:49Z</time>
      </trkpt>
      <trkpt lat="45.88754" lon="3.44341">
        <ele>323.4</ele>
        <time>2024-05-01T11:08:50Z</time>
      </trkpt>
      <trkpt lat="45.88749" lon="3.44347">
        <ele>323.4</ele>
        <time>2024-05-01T11:08:51Z</time>
      </trkpt>
      <trkpt lat="45.88745" lon="3.44353">
        <ele>323.2</ele>
        <time>2024-05-01T11:08:52Z</time>
      </trkpt>
      <trkpt lat="45.88739" lon="3.44358">
        <ele>323.2</ele>
        <time>2024-05-01T11:08:53Z</time>
      </trkpt>
      <trkpt lat="45.88734" lon="3.44363">
        <ele>323.2</ele>
        <time>2024-05-01T11:08:54Z</time>
      </trkpt>
      <trkpt lat="45.88729" lon="3.44368">
        <ele>323.2</ele>
        <time>2024-05-01T11:08:55Z</time>
      </trkpt>
      <trkpt lat="45.88724" lon="3.44373">
        <ele>323</ele>
        <time>2024-05-01T11:08:56Z</time>
      </trkpt>
      <trkpt lat="45.88719" lon="3.44378">
        <ele>323</ele>
        <time>2024-05-01T11:08:57Z</time>
      </trkpt>
      <trkpt lat="45.88714" lon="3.44382">
        <ele>323</ele>
        <time>2024-05-01T11:08:58Z</time>
      </trkpt>
      <trkpt lat="45.88709" lon="3.44388">
        <ele>323</ele>
        <time>2024-05-01T11:08:59Z</time>
      </trkpt>
      <trkpt lat="45.88704" lon="3.44393">
        <ele>322.8</ele>
        <time>2024-05-01T11:09:00Z</time>
      </trkpt>
      <trkpt lat="45.88699" lon="3.44398">
        <ele>322.8</ele>
        <time>2024-05-01T11:09:01Z</time>
      </trkpt>
      <trkpt lat="45.88694" lon="3.44403">
        <ele>322.8</ele>
        <time>2024-05-01T11:09:02Z</time>
      </trkpt>
      <trkpt lat="45.88689" lon="3.44408">
        <ele>322.8</ele>
        <time>2024-05-01T11:09:03Z</time>
      </trkpt>
      <trkpt lat="45.88683" lon="3.44413">
        <ele>322.8</ele>
        <time>2024-05-01T11:09:04Z</time>
      </trkpt>
      <trkpt lat="45.88678" lon="3.44418">
        <ele>322.6</ele>
        <time>2024-05-01T11:09:05Z</time>
      </trkpt>
      <trkpt lat="45.88673" lon="3.44424">
        <ele>322.6</ele>
        <time>2024-05-01T11:09:06Z</time>
      </trkpt>
      <trkpt lat="45.88668" lon="3.44429">
        <ele>322.6</ele>
        <time>2024-05-01T11:09:07Z</time>
      </trkpt>
      <trkpt lat="45.88662" lon="3.44434">
        <ele>322.6</ele>
        <time>2024-05-01T11:09:08Z</time>
      </trkpt>
      <trkpt lat="45.88657" lon="3.44439">
        <ele>322.6</ele>
        <time>2024-05-01T11:09:09Z</time>
      </trkpt>
      <trkpt lat="45.88652" lon="3.44444">
        <ele>322.4</ele>
        <time>2024-05-01T11:09:10Z</time>
      </trkpt>
      <trkpt lat="45.88647" lon="3.44449">
        <ele>322.4</ele>
        <time>2024-05-01T11:09:11Z</time>
      </trkpt>
      <trkpt lat="45.88642" lon="3.44454">
        <ele>322.4</ele>
        <time>2024-05-01T11:09:12Z</time>
      </trkpt>
      <trkpt lat="45.88636" lon="3.4446">
        <ele>322.4</ele>
        <time>2024-05-01T11:09:13Z</time>
      </trkpt>
      <trkpt lat="45.88631" lon="3.44465">
        <ele>322.2</ele>
        <time>2024-05-01T11:09:14Z</time>
      </trkpt>
      <trkpt lat="45.88626" lon="3.4447">
        <ele>322.2</ele>
        <time>2024-05-01T11:09:15Z</time>
      </trkpt>
      <trkpt lat="45.88621" lon="3.44475">
        <ele>322.2</ele>
        <time>2024-05-01T11:09:16Z</time>
      </trkpt>
      <trkpt lat="45.88615" lon="3.4448">
        <ele>322.2</ele>
        <time>2024-05-01T11:09:17Z</time>
      </trkpt>
      <trkpt lat="45.8861" lon="3.44485">
        <ele>322</ele>
        <time>2024-05-01T11:09:18Z</time>
      </trkpt>
      <trkpt lat="45.88605" lon="3.44491">
        <ele>322</ele>
        <time>2024-05-01T11:09:19Z</time>
      </trkpt>
      <trkpt lat="45.88599" lon="3.44496">
        <ele>322</ele>
        <time>2024-05-01T11:09:20Z</time>
      </trkpt>
      <trkpt lat="45.88594" lon="3.44502">
        <ele>321.8</ele>
        <time>2024-05-01T11:09:21Z</time>
      </trkpt>
      <trkpt lat="45.88588" lon="3.44507">
        <ele>321.8</ele>
        <time>2024-05-01T11:09:22Z</time>
      </trkpt>
      <trkpt lat="45.88583" lon="3.44512">
        <ele>321.8</ele>
        <time>2024-05-01T11:09:23Z</time>
      </trkpt>
      <trkpt lat="45.88578" lon="3.44518">
        <ele>321.8</ele>
        <time>2024-05-01T11:09:24Z</time>
      </trkpt>
      <trkpt lat="45.88573" lon="3.44524">
        <ele>321.6</ele>
        <time>2024-05-01T11:09:25Z</time>
      </trkpt>
      <trkpt lat="45.88568" lon="3.4453">
        <ele>321.6</ele>
        <time>2024-05-01T11:09:26Z</time>
      </trkpt>
      <trkpt lat="45.88563" lon="3.44535">
        <ele>321.6</ele>
        <time>2024-05-01T11:09:27Z</time>
      </trkpt>
      <trkpt lat="45.88557" lon="3.44541">
        <ele>321.4</ele>
        <time>2024-05-01T11:09:28Z</time>
      </trkpt>
      <trkpt lat="45.88552" lon="3.44547">
        <ele>321.4</ele>
        <time>2024-05-01T11:09:29Z</time>
      </trkpt>
      <trkpt lat="45.88547" lon="3.44553">
        <ele>321.4</ele>
        <time>2024-05-01T11:09:30Z</time>
      </trkpt>
      <trkpt lat="45.88542" lon="3.4456">
        <ele>321.2</ele>
        <time>2024-05-01T11:09:31Z</time>
      </trkpt>
      <trkpt lat="45.88537" lon="3.44566">
        <ele>321.2</ele>
        <time>2024-05-01T11:09:32Z</time>
      </trkpt>
      <trkpt lat="45.88532" lon="3.44573">
        <ele>321.2</ele>
        <time>2024-05-01T11:09:33Z</time>
      </trkpt>
      <trkpt lat="45.88527" lon="3.4458">
        <ele>321</ele>
        <time>2024-05-01T11:09:34Z</time>
      </trkpt>
      <trkpt lat="45.88521" lon="3.44587">
        <ele>320.8</ele>
        <time>2024-05-01T11:09:35Z</time>
      </trkpt>
      <trkpt lat="45.88517" lon="3.44596">
        <ele>320.8</ele>
        <time>2024-05-01T11:09:36Z</time>
      </trkpt>
      <trkpt lat="45.88513" lon="3.44605">
        <ele>320.6</ele>
        <time>2024-05-01T11:09:37Z</time>
      </trkpt>
      <trkpt lat="45.88508" lon="3.44614">
        <ele>320.6</ele>
        <time>2024-05-01T11:09:38Z</time>
      </trkpt>
      <trkpt lat="45.88504" lon="3.44624">
        <ele>320.4</ele>
        <time>2024-05-01T11:09:39Z</time>
      </trkpt>
      <trkpt lat="45.885" lon="3.44634">
        <ele>320.4</ele>
        <time>2024-05-01T11:09:40Z</time>
      </trkpt>
      <trkpt lat="45.88497" lon="3.44645">
        <ele>320.2</ele>
        <time>2024-05-01T11:09:41Z</time>
      </trkpt>
      <trkpt lat="45.88494" lon="3.44655">
        <ele>320</ele>
        <time>2024-05-01T11:09:42Z</time>
      </trkpt>
      <trkpt lat="45.88491" lon="3.44666">
        <ele>319.8</ele>
        <time>2024-05-01T11:09:43Z</time>
      </trkpt>
      <trkpt lat="45.88488" lon="3.44678">
        <ele>319.6</ele>
        <time>2024-05-01T11:09:44Z</time>
      </trkpt>
      <trkpt lat="45.88484" lon="3.44689">
        <ele>319.6</ele>
        <time>2024-05-01T11:09:45Z</time>
      </trkpt>
      <trkpt lat="45.88481" lon="3.44699">
        <ele>319.4</ele>
        <time>2024-05-01T11:09:46Z</time>
      </trkpt>
      <trkpt lat="45.88478" lon="3.4471">
        <ele>319.2</ele>
        <time>2024-05-01T11:09:47Z</time>
      </trkpt>
      <trkpt lat="45.88475" lon="3.44721">
        <ele>319.2</ele>
        <time>2024-05-01T11:09:48Z</time>
      </trkpt>
      <trkpt lat="45.88472" lon="3.44732">
        <ele>319.2</ele>
        <time>2024-05-01T11:09:49Z</time>
      </trkpt>
      <trkpt lat="45.88469" lon="3.44743">
        <ele>319</ele>
        <time>2024-05-01T11:09:50Z</time>
      </trkpt>
      <trkpt lat="45.88465" lon="3.44754">
        <ele>318.8</ele>
        <time>2024-05-01T11:09:51Z</time>
      </trkpt>
      <trkpt lat="45.88462" lon="3.44764">
        <ele>318.8</ele>
        <time>2024-05-01T11:09:52Z</time>
      </trkpt>
      <trkpt lat="45.8846" lon="3.44774">
        <ele>318.8</ele>
        <time>2024-05-01T11:09:53Z</time>
      </trkpt>
      <trkpt lat="45.88457" lon="3.44785">
        <ele>318.6</ele>
        <time>2024-05-01T11:09:54Z</time>
      </trkpt>
      <trkpt lat="45.88455" lon="3.44795">
        <ele>318.6</ele>
        <time>2024-05-01T11:09:55Z</time>
      </trkpt>
      <trkpt lat="45.88453" lon="3.44805">
        <ele>318.4</ele>
        <time>2024-05-01T11:09:56Z</time>
      </trkpt>
      <trkpt lat="45.88452" lon="3.44816">
        <ele>318.4</ele>
        <time>2024-05-01T11:09:57Z</time>
      </trkpt>
      <trkpt lat="45.8845" lon="3.44826">
        <ele>318.4</ele>
        <time>2024-05-01T11:09:58Z</time>
      </trkpt>
      <trkpt lat="45.88449" lon="3.44835">
        <ele>318.4</ele>
        <time>2024-05-01T11:09:59Z</time>
      </trkpt>
      <trkpt lat="45.88447" lon="3.44844">
        <ele>318.2</ele>
        <time>2024-05-01T11:10:00Z</time>
      </trkpt>
      <trkpt lat="45.88446" lon="3.44853">
        <ele>318.2</ele>
        <time>2024-05-01T11:10:01Z</time>
      </trkpt>
      <trkpt lat="45.88445" lon="3.44861">
        <ele>318.2</ele>
        <time>2024-05-01T11:10:02Z</time>
      </trkpt>
      <trkpt lat="45.88444" lon="3.4487">
        <ele>318.2</ele>
        <time>2024-05-01T11:10:03Z</time>
      </trkpt>
      <trkpt lat="45.88443" lon="3.44878">
        <ele>318.2</ele>
        <time>2024-05-01T11:10:04Z</time>
      </trkpt>
      <trkpt lat="45.88442" lon="3.44886">
        <ele>318.2</ele>
        <time>2024-05-01T11:10:05Z</time>
      </trkpt>
      <trkpt lat="45.88441" lon="3.44895">
        <ele>318.2</ele>
        <time>2024-05-01T11:10:06Z</time>
      </trkpt>
      <trkpt lat="45.88439" lon="3.44903">
        <ele>318.2</ele>
        <time>2024-05-01T11:10:07Z</time>
      </trkpt>
      <trkpt lat="45.88438" lon="3.44911">
        <ele>318.2</ele>
        <time>2024-05-01T11:10:08Z</time>
      </trkpt>
      <trkpt lat="45.88437" lon="3.4492">
        <ele>318</ele>
        <time>2024-05-01T11:10:09Z</time>
      </trkpt>
      <trkpt lat="45.88436" lon="3.44927">
        <ele>318</ele>
        <time>2024-05-01T11:10:10Z</time>
      </trkpt>
      <trkpt lat="45.88435" lon="3.44935">
        <ele>318</ele>
        <time>2024-05-01T11:10:11Z</time>
      </trkpt>
      <trkpt lat="45.88434" lon="3.44943">
        <ele>318</ele>
        <time>2024-05-01T11:10:12Z</time>
      </trkpt>
      <trkpt lat="45.88433" lon="3.44952">
        <ele>318</ele>
        <time>2024-05-01T11:10:13Z</time>
      </trkpt>
      <trkpt lat="45.88432" lon="3.4496">
        <ele>318</ele>
        <time>2024-05-01T11:10:14Z</time>
      </trkpt>
      <trkpt lat="45.88431" lon="3.44968">
        <ele>318</ele>
        <time>2024-05-01T11:10:15Z</time>
      </trkpt>
      <trkpt lat="45.8843" lon="3.44976">
        <ele>318</ele>
        <time>2024-05-01T11:10:16Z</time>
      </trkpt>
      <trkpt lat="45.88429" lon="3.44985">
        <ele>318</ele>
        <time>2024-05-01T11:10:17Z</time>
      </trkpt>
      <trkpt lat="45.88429" lon="3.44994">
        <ele>317.8</ele>
        <time>2024-05-01T11:10:18Z</time>
      </trkpt>
      <trkpt lat="45.88428" lon="3.45002">
        <ele>317.8</ele>
        <time>2024-05-01T11:10:19Z</time>
      </trkpt>
      <trkpt lat="45.88428" lon="3.45011">
        <ele>317.8</ele>
        <time>2024-05-01T11:10:20Z</time>
      </trkpt>
      <trkpt lat="45.88428" lon="3.4502">
        <ele>317.8</ele>
        <time>2024-05-01T11:10:21Z</time>
      </trkpt>
      <trkpt lat="45.88427" lon="3.45029">
        <ele>317.8</ele>
        <time>2024-05-01T11:10:22Z</time>
      </trkpt>
      <trkpt lat="45.88427" lon="3.45038">
        <ele>317.8</ele>
        <time>2024-05-01T11:10:23Z</time>
      </trkpt>
      <trkpt lat="45.88427" lon="3.45046">
        <ele>317.8</ele>
        <time>2024-05-01T11:10:24Z</time>
      </trkpt>
      <trkpt lat="45.88426" lon="3.45055">
        <ele>317.6</ele>
        <time>2024-05-01T11:10:25Z</time>
      </trkpt>
      <trkpt lat="45.88426" lon="3.45064">
        <ele>317.6</ele>
        <time>2024-05-01T11:10:26Z</time>
      </trkpt>
      <trkpt lat="45.88425" lon="3.45073">
        <ele>317.6</ele>
        <time>2024-05-01T11:10:27Z</time>
      </trkpt>
      <trkpt lat="45.88425" lon="3.45083">
        <ele>317.6</ele>
        <time>2024-05-01T11:10:28Z</time>
      </trkpt>
      <trkpt lat="45.88425" lon="3.45092">
        <ele>317.4</ele>
        <time>2024-05-01T11:10:29Z</time>
      </trkpt>
      <trkpt lat="45.88424" lon="3.45101">
        <ele>317.4</ele>
        <time>2024-05-01T11:10:30Z</time>
      </trkpt>
      <trkpt lat="45.88424" lon="3.45111">
        <ele>317.4</ele>
        <time>2024-05-01T11:10:31Z</time>
      </trkpt>
      <trkpt lat="45.88424" lon="3.4512">
        <ele>317.4</ele>
        <time>2024-05-01T11:10:32Z</time>
      </trkpt>
      <trkpt lat="45.88423" lon="3.45129">
        <ele>317.4</ele>
        <time>2024-05-01T11:10:33Z</time>
      </trkpt>
      <trkpt lat="45.88423" lon="3.45138">
        <ele>317.4</ele>
        <time>2024-05-01T11:10:34Z</time>
      </trkpt>
      <trkpt lat="45.88422" lon="3.45147">
        <ele>317.2</ele>
        <time>2024-05-01T11:10:35Z</time>
      </trkpt>
      <trkpt lat="45.88422" lon="3.45156">
        <ele>317.2</ele>
        <time>2024-05-01T11:10:36Z</time>
      </trkpt>
      <trkpt lat="45.88422" lon="3.45165">
        <ele>317.2</ele>
        <time>2024-05-01T11:10:37Z</time>
      </trkpt>
      <trkpt lat="45.88421" lon="3.45174">
        <ele>317.2</ele>
        <time>2024-05-01T11:10:38Z</time>
      </trkpt>
      <trkpt lat="45.88421" lon="3.45184">
        <ele>317.2</ele>
        <time>2024-05-01T11:10:39Z</time>
      </trkpt>
      <trkpt lat="45.88421" lon="3.45193">
        <ele>317</ele>
        <time>2024-05-01T11:10:40Z</time>
      </trkpt>
      <trkpt lat="45.8842" lon="3.45203">
        <ele>317</ele>
        <time>2024-05-01T11:10:41Z</time>
      </trkpt>
      <trkpt lat="45.8842" lon="3.45213">
        <ele>317</ele>
        <time>2024-05-01T11:10:42Z</time>
      </trkpt>
      <trkpt lat="45.88419" lon="3.45223">
        <ele>317</ele>
        <time>2024-05-01T11:10:43Z</time>
      </trkpt>
      <trkpt lat="45.88419" lon="3.45233">
        <ele>317</ele>
        <time>2024-05-01T11:10:44Z</time>
      </trkpt>
      <trkpt lat="45.88419" lon="3.45243">
        <ele>316.8</ele>
        <time>2024-05-01T11:10:45Z</time>
      </trkpt>
      <trkpt lat="45.88418" lon="3.45252">
        <ele>316.8</ele>
        <time>2024-05-01T11:10:46Z</time>
      </trkpt>
      <trkpt lat="45.88418" lon="3.45262">
        <ele>316.8</ele>
        <time>2024-05-01T11:10:47Z</time>
      </trkpt>
      <trkpt lat="45.88417" lon="3.45272">
        <ele>316.8</ele>
        <time>2024-05-01T11:10:48Z</time>
      </trkpt>
      <trkpt lat="45.88417" lon="3.45282">
        <ele>316.8</ele>
        <time>2024-05-01T11:10:49Z</time>
      </trkpt>
      <trkpt lat="45.88416" lon="3.45292">
        <ele>316.6</ele>
        <time>2024-05-01T11:10:50Z</time>
      </trkpt>
      <trkpt lat="45.88416" lon="3.45302">
        <ele>316.6</ele>
        <time>2024-05-01T11:10:51Z</time>
      </trkpt>
      <trkpt lat="45.88416" lon="3.45311">
        <ele>316.4</ele>
        <time>2024-05-01T11:10:52Z</time>
      </trkpt>
      <trkpt lat="45.88415" lon="3.45321">
        <ele>316.4</ele>
        <time>2024-05-01T11:10:53Z</time>
      </trkpt>
      <trkpt lat="45.88415" lon="3.45331">
        <ele>316.4</ele>
        <time>2024-05-01T11:10:54Z</time>
      </trkpt>
      <trkpt lat="45.88414" lon="3.45341">
        <ele>316.4</ele>
        <time>2024-05-01T11:10:55Z</time>
      </trkpt>
      <trkpt lat="45.88414" lon="3.4535">
        <ele>316.2</ele>
        <time>2024-05-01T11:10:56Z</time>
      </trkpt>
      <trkpt lat="45.88414" lon="3.4536">
        <ele>316.2</ele>
        <time>2024-05-01T11:10:57Z</time>
      </trkpt>
      <trkpt lat="45.88413" lon="3.4537">
        <ele>316.2</ele>
        <time>2024-05-01T11:10:58Z</time>
      </trkpt>
      <trkpt lat="45.88413" lon="3.45379">
        <ele>316.2</ele>
        <time>2024-05-01T11:10:59Z</time>
      </trkpt>
      <trkpt lat="45.88412" lon="3.45389">
        <ele>316</ele>
        <time>2024-05-01T11:11:00Z</time>
      </trkpt>
      <trkpt lat="45.88412" lon="3.45399">
        <ele>316</ele>
        <time>2024-05-01T11:11:01Z</time>
      </trkpt>
      <trkpt lat="45.88411" lon="3.45408">
        <ele>316</ele>
        <time>2024-05-01T11:11:02Z</time>
      </trkpt>
      <trkpt lat="45.8841" lon="3.45418">
        <ele>316</ele>
        <time>2024-05-01T11:11:03Z</time>
      </trkpt>
      <trkpt lat="45.88409" lon="3.45427">
        <ele>315.8</ele>
        <time>2024-05-01T11:11:04Z</time>
      </trkpt>
      <trkpt lat="45.88408" lon="3.45437">
        <ele>315.8</ele>
        <time>2024-05-01T11:11:05Z</time>
      </trkpt>
      <trkpt lat="45.88407" lon="3.45446">
        <ele>315.8</ele>
        <time>2024-05-01T11:11:06Z</time>
      </trkpt>
      <trkpt lat="45.88406" lon="3.45456">
        <ele>315.8</ele>
        <time>2024-05-01T11:11:07Z</time>
      </trkpt>
      <trkpt lat="45.88404" lon="3.45465">
        <ele>315.6</ele>
        <time>2024-05-01T11:11:08Z</time>
      </trkpt>
      <trkpt lat="45.88402" lon="3.45473">
        <ele>315.6</ele>
        <time>2024-05-01T11:11:09Z</time>
      </trkpt>
      <trkpt lat="45.88399" lon="3.45482">
        <ele>315.6</ele>
        <time>2024-05-01T11:11:10Z</time>
      </trkpt>
      <trkpt lat="45.88397" lon="3.45491">
        <ele>315.4</ele>
        <time>2024-05-01T11:11:11Z</time>
      </trkpt>
      <trkpt lat="45.88394" lon="3.455">
        <ele>315.4</ele>
        <time>2024-05-01T11:11:12Z</time>
      </trkpt>
      <trkpt lat="45.88392" lon="3.45509">
        <ele>315.4</ele>
        <time>2024-05-01T11:11:13Z</time>
      </trkpt>
      <trkpt lat="45.8839" lon="3.45518">
        <ele>315.2</ele>
        <time>2024-05-01T11:11:14Z</time>
      </trkpt>
      <trkpt lat="45.88387" lon="3.45526">
        <ele>315.2</ele>
        <time>2024-05-01T11:11:15Z</time>
      </trkpt>
      <trkpt lat="45.88385" lon="3.45536">
        <ele>315</ele>
        <time>2024-05-01T11:11:16Z</time>
      </trkpt>
      <trkpt lat="45.88382" lon="3.45545">
        <ele>315</ele>
        <time>2024-05-01T11:11:17Z</time>
      </trkpt>
      <trkpt lat="45.88379" lon="3.45554">
        <ele>315</ele>
        <time>2024-05-01T11:11:18Z</time>
      </trkpt>
      <trkpt lat="45.88375" lon="3.45563">
        <ele>314.8</ele>
        <time>2024-05-01T11:11:19Z</time>
      </trkpt>
      <trkpt lat="45.8837" lon="3.45571">
        <ele>314.6</ele>
        <time>2024-05-01T11:11:20Z</time>
      </trkpt>
      <trkpt lat="45.88366" lon="3.4558">
        <ele>314.6</ele>
        <time>2024-05-01T11:11:21Z</time>
      </trkpt>
      <trkpt lat="45.88362" lon="3.45588">
        <ele>314.4</ele>
        <time>2024-05-01T11:11:22Z</time>
      </trkpt>
      <trkpt lat="45.88358" lon="3.45597">
        <ele>314.4</ele>
        <time>2024-05-01T11:11:23Z</time>
      </trkpt>
      <trkpt lat="45.88353" lon="3.45605">
        <ele>314.2</ele>
        <time>2024-05-01T11:11:24Z</time>
      </trkpt>
      <trkpt lat="45.88349" lon="3.45614">
        <ele>314.2</ele>
        <time>2024-05-01T11:11:25Z</time>
      </trkpt>
      <trkpt lat="45.88345" lon="3.45623">
        <ele>314</ele>
        <time>2024-05-01T11:11:26Z</time>
      </trkpt>
      <trkpt lat="45.88341" lon="3.45631">
        <ele>314</ele>
        <time>2024-05-01T11:11:27Z</time>
      </trkpt>
      <trkpt lat="45.88336" lon="3.45639">
        <ele>313.8</ele>
        <time>2024-05-01T11:11:28Z</time>
      </trkpt>
      <trkpt lat="45.88332" lon="3.45647">
        <ele>313.6</ele>
        <time>2024-05-01T11:11:29Z</time>
      </trkpt>
      <trkpt lat="45.88328" lon="3.45656">
        <ele>313.4</ele>
        <time>2024-05-01T11:11:30Z</time>
      </trkpt>
      <trkpt lat="45.88324" lon="3.45664">
        <ele>313.2</ele>
        <time>2024-05-01T11:11:31Z</time>
      </trkpt>
      <trkpt lat="45.8832" lon="3.45673">
        <ele>313.2</ele>
        <time>2024-05-01T11:11:32Z</time>
      </trkpt>
      <trkpt lat="45.88315" lon="3.45681">
        <ele>313</ele>
        <time>2024-05-01T11:11:33Z</time>
      </trkpt>
      <trkpt lat="45.88311" lon="3.45689">
        <ele>312.8</ele>
        <time>2024-05-01T11:11:34Z</time>
      </trkpt>
      <trkpt lat="45.88307" lon="3.45697">
        <ele>312.6</ele>
        <time>2024-05-01T11:11:35Z</time>
      </trkpt>
      <trkpt lat="45.88302" lon="3.45706">
        <ele>312.6</ele>
        <time>2024-05-01T11:11:36Z</time>
      </trkpt>
      <trkpt lat="45.88298" lon="3.45714">
        <ele>312.6</ele>
        <time>2024-05-01T11:11:37Z</time>
      </trkpt>
      <trkpt lat="45.88294" lon="3.45722">
        <ele>312.6</ele>
        <time>2024-05-01T11:11:38Z</time>
      </trkpt>
      <trkpt lat="45.8829" lon="3.45731">
        <ele>312.6</ele>
        <time>2024-05-01T11:11:39Z</time>
      </trkpt>
      <trkpt lat="45.88286" lon="3.45739">
        <ele>312.4</ele>
        <time>2024-05-01T11:11:40Z</time>
      </trkpt>
      <trkpt lat="45.88282" lon="3.45747">
        <ele>312.4</ele>
        <time>2024-05-01T11:11:41Z</time>
      </trkpt>
      <trkpt lat="45.88278" lon="3.45755">
        <ele>312.4</ele>
        <time>2024-05-01T11:11:42Z</time>
      </trkpt>
      <trkpt lat="45.88274" lon="3.45763">
        <ele>312.2</ele>
        <time>2024-05-01T11:11:43Z</time>
      </trkpt>
      <trkpt lat="45.8827" lon="3.45771">
        <ele>312.2</ele>
        <time>2024-05-01T11:11:44Z</time>
      </trkpt>
      <trkpt lat="45.88266" lon="3.45779">
        <ele>312.2</ele>
        <time>2024-05-01T11:11:45Z</time>
      </trkpt>
      <trkpt lat="45.88262" lon="3.45788">
        <ele>312.2</ele>
        <time>2024-05-01T11:11:46Z</time>
      </trkpt>
      <trkpt lat="45.88258" lon="3.45795">
        <ele>312.2</ele>
        <time>2024-05-01T11:11:47Z</time>
      </trkpt>
      <trkpt lat="45.88254" lon="3.45803">
        <ele>312.2</ele>
        <time>2024-05-01T11:11:48Z</time>
      </trkpt>
      <trkpt lat="45.8825" lon="3.45811">
        <ele>312.2</ele>
        <time>2024-05-01T11:11:49Z</time>
      </trkpt>
      <trkpt lat="45.88246" lon="3.45819">
        <ele>312.2</ele>
        <time>2024-05-01T11:11:50Z</time>
      </trkpt>
      <trkpt lat="45.88242" lon="3.45827">
        <ele>312.2</ele>
        <time>2024-05-01T11:11:51Z</time>
      </trkpt>
      <trkpt lat="45.88238" lon="3.45835">
        <ele>312.2</ele>
        <time>2024-05-01T11:11:52Z</time>
      </trkpt>
      <trkpt lat="45.88234" lon="3.45843">
        <ele>312</ele>
        <time>2024-05-01T11:11:53Z</time>
      </trkpt>
      <trkpt lat="45.8823" lon="3.45851">
        <ele>312</ele>
        <time>2024-05-01T11:11:54Z</time>
      </trkpt>
      <trkpt lat="45.88227" lon="3.45858">
        <ele>312</ele>
        <time>2024-05-01T11:11:55Z</time>
      </trkpt>
      <trkpt lat="45.88223" lon="3.45866">
        <ele>312</ele>
        <time>2024-05-01T11:11:56Z</time>
      </trkpt>
      <trkpt lat="45.88219" lon="3.45874">
        <ele>312</ele>
        <time>2024-05-01T11:11:57Z</time>
      </trkpt>
      <trkpt lat="45.88215" lon="3.45882">
        <ele>312</ele>
        <time>2024-05-01T11:11:58Z</time>
      </trkpt>
      <trkpt lat="45.88211" lon="3.45889">
        <ele>311.8</ele>
        <time>2024-05-01T11:11:59Z</time>
      </trkpt>
      <trkpt lat="45.88207" lon="3.45897">
        <ele>311.8</ele>
        <time>2024-05-01T11:12:00Z</time>
      </trkpt>
      <trkpt lat="45.88203" lon="3.45904">
        <ele>311.8</ele>
        <time>2024-05-01T11:12:01Z</time>
      </trkpt>
      <trkpt lat="45.882" lon="3.45912">
        <ele>311.8</ele>
        <time>2024-05-01T11:12:02Z</time>
      </trkpt>
      <trkpt lat="45.88196" lon="3.4592">
        <ele>311.8</ele>
        <time>2024-05-01T11:12:03Z</time>
      </trkpt>
      <trkpt lat="45.88192" lon="3.45928">
        <ele>311.8</ele>
        <time>2024-05-01T11:12:04Z</time>
      </trkpt>
      <trkpt lat="45.88188" lon="3.45935">
        <ele>311.8</ele>
        <time>2024-05-01T11:12:05Z</time>
      </trkpt>
      <trkpt lat="45.88184" lon="3.45943">
        <ele>311.8</ele>
        <time>2024-05-01T11:12:06Z</time>
      </trkpt>
      <trkpt lat="45.8818" lon="3.4595">
        <ele>311.8</ele>
        <time>2024-05-01T11:12:07Z</time>
      </trkpt>
      <trkpt lat="45.88176" lon="3.45958">
        <ele>311.6</ele>
        <time>2024-05-01T11:12:08Z</time>
      </trkpt>
      <trkpt lat="45.88173" lon="3.45965">
        <ele>311.6</ele>
        <time>2024-05-01T11:12:09Z</time>
      </trkpt>
      <trkpt lat="45.88169" lon="3.45973">
        <ele>311.6</ele>
        <time>2024-05-01T11:12:10Z</time>
      </trkpt>
      <trkpt lat="45.88165" lon="3.45981">
        <ele>311.6</ele>
        <time>2024-05-01T11:12:11Z</time>
      </trkpt>
      <trkpt lat="45.88161" lon="3.45989">
        <ele>311.6</ele>
        <time>2024-05-01T11:12:12Z</time>
      </trkpt>
      <trkpt lat="45.88157" lon="3.45997">
        <ele>311.6</ele>
        <time>2024-05-01T11:12:13Z</time>
      </trkpt>
      <trkpt lat="45.88153" lon="3.46005">
        <ele>311.4</ele>
        <time>2024-05-01T11:12:14Z</time>
      </trkpt>
      <trkpt lat="45.88149" lon="3.46013">
        <ele>311.4</ele>
        <time>2024-05-01T11:12:15Z</time>
      </trkpt>
      <trkpt lat="45.88145" lon="3.4602">
        <ele>311.4</ele>
        <time>2024-05-01T11:12:16Z</time>
      </trkpt>
      <trkpt lat="45.88141" lon="3.46028">
        <ele>311.4</ele>
        <time>2024-05-01T11:12:17Z</time>
      </trkpt>
      <trkpt lat="45.88137" lon="3.46036">
        <ele>311.4</ele>
        <time>2024-05-01T11:12:18Z</time>
      </trkpt>
      <trkpt lat="45.88133" lon="3.46044">
        <ele>311.2</ele>
        <time>2024-05-01T11:12:19Z</time>
      </trkpt>
      <trkpt lat="45.8813" lon="3.46051">
        <ele>311.2</ele>
        <time>2024-05-01T11:12:20Z</time>
      </trkpt>
      <trkpt lat="45.88126" lon="3.46059">
        <ele>311.2</ele>
        <time>2024-05-01T11:12:21Z</time>
      </trkpt>
      <trkpt lat="45.88122" lon="3.46067">
        <ele>311.2</ele>
        <time>2024-05-01T11:12:22Z</time>
      </trkpt>
      <trkpt lat="45.88118" lon="3.46075">
        <ele>311.2</ele>
        <time>2024-05-01T11:12:23Z</time>
      </trkpt>
      <trkpt lat="45.88114" lon="3.46082">
        <ele>311.2</ele>
        <time>2024-05-01T11:12:24Z</time>
      </trkpt>
      <trkpt lat="45.8811" lon="3.4609">
        <ele>311.2</ele>
        <time>2024-05-01T11:12:25Z</time>
      </trkpt>
      <trkpt lat="45.88106" lon="3.46097">
        <ele>311</ele>
        <time>2024-05-01T11:12:26Z</time>
      </trkpt>
      <trkpt lat="45.88103" lon="3.46105">
        <ele>311</ele>
        <time>2024-05-01T11:12:27Z</time>
      </trkpt>
      <trkpt lat="45.88099" lon="3.46113">
        <ele>311</ele>
        <time>2024-05-01T11:12:28Z</time>
      </trkpt>
      <trkpt lat="45.88095" lon="3.4612">
        <ele>310.8</ele>
        <time>2024-05-01T11:12:29Z</time>
      </trkpt>
      <trkpt lat="45.88091" lon="3.46128">
        <ele>310.8</ele>
        <time>2024-05-01T11:12:30Z</time>
      </trkpt>
      <trkpt lat="45.88087" lon="3.46136">
        <ele>310.8</ele>
        <time>2024-05-01T11:12:31Z</time>
      </trkpt>
      <trkpt lat="45.88083" lon="3.46143">
        <ele>310.8</ele>
        <time>2024-05-01T11:12:32Z</time>
      </trkpt>
      <trkpt lat="45.88079" lon="3.46151">
        <ele>310.8</ele>
        <time>2024-05-01T11:12:33Z</time>
      </trkpt>
      <trkpt lat="45.88075" lon="3.46159">
        <ele>310.6</ele>
        <time>2024-05-01T11:12:34Z</time>
      </trkpt>
      <trkpt lat="45.88072" lon="3.46167">
        <ele>310.6</ele>
        <time>2024-05-01T11:12:35Z</time>
      </trkpt>
      <trkpt lat="45.88068" lon="3.46175">
        <ele>310.6</ele>
        <time>2024-05-01T11:12:36Z</time>
      </trkpt>
      <trkpt lat="45.88064" lon="3.46183">
        <ele>310.4</ele>
        <time>2024-05-01T11:12:37Z</time>
      </trkpt>
      <trkpt lat="45.8806" lon="3.4619">
        <ele>310.4</ele>
        <time>2024-05-01T11:12:38Z</time>
      </trkpt>
      <trkpt lat="45.88055" lon="3.46197">
        <ele>310.4</ele>
        <time>2024-05-01T11:12:39Z</time>
      </trkpt>
      <trkpt lat="45.8805" lon="3.46204">
        <ele>310.4</ele>
        <time>2024-05-01T11:12:40Z</time>
      </trkpt>
      <trkpt lat="45.88046" lon="3.46211">
        <ele>310.4</ele>
        <time>2024-05-01T11:12:41Z</time>
      </trkpt>
      <trkpt lat="45.88041" lon="3.46218">
        <ele>310.4</ele>
        <time>2024-05-01T11:12:42Z</time>
      </trkpt>
      <trkpt lat="45.88036" lon="3.46224">
        <ele>310.2</ele>
        <time>2024-05-01T11:12:43Z</time>
      </trkpt>
      <trkpt lat="45.88032" lon="3.46231">
        <ele>310.2</ele>
        <time>2024-05-01T11:12:44Z</time>
      </trkpt>
      <trkpt lat="45.88027" lon="3.46238">
        <ele>310.2</ele>
        <time>2024-05-01T11:12:45Z</time>
      </trkpt>
      <trkpt lat="45.88023" lon="3.46244">
        <ele>310.2</ele>
        <time>2024-05-01T11:12:46Z</time>
      </trkpt>
      <trkpt lat="45.88018" lon="3.46251">
        <ele>310.2</ele>
        <time>2024-05-01T11:12:47Z</time>
      </trkpt>
      <trkpt lat="45.88014" lon="3.46258">
        <ele>310.2</ele>
        <time>2024-05-01T11:12:48Z</time>
      </trkpt>
      <trkpt lat="45.88009" lon="3.46264">
        <ele>310</ele>
        <time>2024-05-01T11:12:49Z</time>
      </trkpt>
      <trkpt lat="45.88005" lon="3.46271">
        <ele>310</ele>
        <time>2024-05-01T11:12:50Z</time>
      </trkpt>
      <trkpt lat="45.88" lon="3.46278">
        <ele>310</ele>
        <time>2024-05-01T11:12:51Z</time>
      </trkpt>
      <trkpt lat="45.87996" lon="3.46284">
        <ele>310</ele>
        <time>2024-05-01T11:12:52Z</time>
      </trkpt>
      <trkpt lat="45.87991" lon="3.46291">
        <ele>310</ele>
        <time>2024-05-01T11:12:53Z</time>
      </trkpt>
      <trkpt lat="45.87987" lon="3.46298">
        <ele>309.8</ele>
        <time>2024-05-01T11:12:54Z</time>
      </trkpt>
      <trkpt lat="45.87982" lon="3.46304">
        <ele>310</ele>
        <time>2024-05-01T11:12:55Z</time>
      </trkpt>
      <trkpt lat="45.87978" lon="3.46311">
        <ele>309.8</ele>
        <time>2024-05-01T11:12:56Z</time>
      </trkpt>
      <trkpt lat="45.87972" lon="3.46316">
        <ele>309.8</ele>
        <time>2024-05-01T11:12:57Z</time>
      </trkpt>
      <trkpt lat="45.87967" lon="3.46322">
        <ele>309.8</ele>
        <time>2024-05-01T11:12:58Z</time>
      </trkpt>
      <trkpt lat="45.87962" lon="3.46327">
        <ele>309.8</ele>
        <time>2024-05-01T11:12:59Z</time>
      </trkpt>
      <trkpt lat="45.87957" lon="3.46332">
        <ele>309.8</ele>
        <time>2024-05-01T11:13:00Z</time>
      </trkpt>
      <trkpt lat="45.87952" lon="3.46338">
        <ele>309.8</ele>
        <time>2024-05-01T11:13:01Z</time>
      </trkpt>
      <trkpt lat="45.87947" lon="3.46343">
        <ele>309.8</ele>
        <time>2024-05-01T11:13:02Z</time>
      </trkpt>
      <trkpt lat="45.87941" lon="3.46349">
        <ele>309.8</ele>
        <time>2024-05-01T11:13:03Z</time>
      </trkpt>
      <trkpt lat="45.87936" lon="3.46353">
        <ele>309.8</ele>
        <time>2024-05-01T11:13:04Z</time>
      </trkpt>
      <trkpt lat="45.8793" lon="3.46358">
        <ele>309.8</ele>
        <time>2024-05-01T11:13:05Z</time>
      </trkpt>
      <trkpt lat="45.87924" lon="3.46363">
        <ele>309.8</ele>
        <time>2024-05-01T11:13:06Z</time>
      </trkpt>
      <trkpt lat="45.87919" lon="3.46367">
        <ele>309.6</ele>
        <time>2024-05-01T11:13:07Z</time>
      </trkpt>
      <trkpt lat="45.87913" lon="3.46372">
        <ele>309.6</ele>
        <time>2024-05-01T11:13:08Z</time>
      </trkpt>
      <trkpt lat="45.87907" lon="3.46376">
        <ele>309.6</ele>
        <time>2024-05-01T11:13:09Z</time>
      </trkpt>
      <trkpt lat="45.87901" lon="3.46381">
        <ele>309.6</ele>
        <time>2024-05-01T11:13:10Z</time>
      </trkpt>
      <trkpt lat="45.87896" lon="3.46386">
        <ele>309.6</ele>
        <time>2024-05-01T11:13:11Z</time>
      </trkpt>
      <trkpt lat="45.8789" lon="3.4639">
        <ele>309.6</ele>
        <time>2024-05-01T11:13:12Z</time>
      </trkpt>
      <trkpt lat="45.87884" lon="3.46394">
        <ele>309.4</ele>
        <time>2024-05-01T11:13:13Z</time>
      </trkpt>
      <trkpt lat="45.87878" lon="3.46397">
        <ele>309.4</ele>
        <time>2024-05-01T11:13:14Z</time>
      </trkpt>
      <trkpt lat="45.87872" lon="3.46401">
        <ele>309.4</ele>
        <time>2024-05-01T11:13:15Z</time>
      </trkpt>
      <trkpt lat="45.87866" lon="3.46404">
        <ele>309.4</ele>
        <time>2024-05-01T11:13:16Z</time>
      </trkpt>
      <trkpt lat="45.8786" lon="3.46408">
        <ele>309.2</ele>
        <time>2024-05-01T11:13:17Z</time>
      </trkpt>
      <trkpt lat="45.87853" lon="3.46412">
        <ele>309.2</ele>
        <time>2024-05-01T11:13:18Z</time>
      </trkpt>
      <trkpt lat="45.87847" lon="3.46415">
        <ele>309.2</ele>
        <time>2024-05-01T11:13:19Z</time>
      </trkpt>
      <trkpt lat="45.87841" lon="3.46419">
        <ele>309</ele>
        <time>2024-05-01T11:13:20Z</time>
      </trkpt>
      <trkpt lat="45.87834" lon="3.46422">
        <ele>309</ele>
        <time>2024-05-01T11:13:21Z</time>
      </trkpt>
      <trkpt lat="45.87827" lon="3.46425">
        <ele>309</ele>
        <time>2024-05-01T11:13:22Z</time>
      </trkpt>
      <trkpt lat="45.87821" lon="3.46427">
        <ele>309</ele>
        <time>2024-05-01T11:13:23Z</time>
      </trkpt>
      <trkpt lat="45.87814" lon="3.46429">
        <ele>309</ele>
        <time>2024-05-01T11:13:24Z</time>
      </trkpt>
      <trkpt lat="45.87807" lon="3.46431">
        <ele>309</ele>
        <time>2024-05-01T11:13:25Z</time>
      </trkpt>
      <trkpt lat="45.878" lon="3.46433">
        <ele>308.8</ele>
        <time>2024-05-01T11:13:26Z</time>
      </trkpt>
      <trkpt lat="45.87793" lon="3.46435">
        <ele>308.8</ele>
        <time>2024-05-01T11:13:27Z</time>
      </trkpt>
      <trkpt lat="45.87786" lon="3.46437">
        <ele>308.8</ele>
        <time>2024-05-01T11:13:28Z</time>
      </trkpt>
      <trkpt lat="45.87779" lon="3.46439">
        <ele>308.6</ele>
        <time>2024-05-01T11:13:29Z</time>
      </trkpt>
      <trkpt lat="45.87771" lon="3.4644">
        <ele>308.6</ele>
        <time>2024-05-01T11:13:30Z</time>
      </trkpt>
      <trkpt lat="45.87764" lon="3.46441">
        <ele>308.6</ele>
        <time>2024-05-01T11:13:31Z</time>
      </trkpt>
      <trkpt lat="45.87757" lon="3.46442">
        <ele>308.4</ele>
        <time>2024-05-01T11:13:32Z</time>
      </trkpt>
      <trkpt lat="45.8775" lon="3.46443">
        <ele>308.4</ele>
        <time>2024-05-01T11:13:33Z</time>
      </trkpt>
      <trkpt lat="45.87743" lon="3.46444">
        <ele>308.2</ele>
        <time>2024-05-01T11:13:34Z</time>
      </trkpt>
      <trkpt lat="45.87736" lon="3.46445">
        <ele>308.2</ele>
        <time>2024-05-01T11:13:35Z</time>
      </trkpt>
      <trkpt lat="45.87729" lon="3.46446">
        <ele>308</ele>
        <time>2024-05-01T11:13:36Z</time>
      </trkpt>
      <trkpt lat="45.87722" lon="3.46449">
        <ele>308</ele>
        <time>2024-05-01T11:13:37Z</time>
      </trkpt>
      <trkpt lat="45.87715" lon="3.46452">
        <ele>307.8</ele>
        <time>2024-05-01T11:13:38Z</time>
      </trkpt>
      <trkpt lat="45.87708" lon="3.46455">
        <ele>307.8</ele>
        <time>2024-05-01T11:13:39Z</time>
      </trkpt>
      <trkpt lat="45.87701" lon="3.46458">
        <ele>307.8</ele>
        <time>2024-05-01T11:13:40Z</time>
      </trkpt>
      <trkpt lat="45.87694" lon="3.46462">
        <ele>307.6</ele>
        <time>2024-05-01T11:13:41Z</time>
      </trkpt>
      <trkpt lat="45.87687" lon="3.46465">
        <ele>307.6</ele>
        <time>2024-05-01T11:13:42Z</time>
      </trkpt>
      <trkpt lat="45.8768" lon="3.46468">
        <ele>307.6</ele>
        <time>2024-05-01T11:13:43Z</time>
      </trkpt>
      <trkpt lat="45.87673" lon="3.46471">
        <ele>307.4</ele>
        <time>2024-05-01T11:13:44Z</time>
      </trkpt>
      <trkpt lat="45.87667" lon="3.46474">
        <ele>307.4</ele>
        <time>2024-05-01T11:13:45Z</time>
      </trkpt>
      <trkpt lat="45.87661" lon="3.46477">
        <ele>307.4</ele>
        <time>2024-05-01T11:13:46Z</time>
      </trkpt>
      <trkpt lat="45.87656" lon="3.4648">
        <ele>307.4</ele>
        <time>2024-05-01T11:13:47Z</time>
      </trkpt>
      <trkpt lat="45.8765" lon="3.46485">
        <ele>307.2</ele>
        <time>2024-05-01T11:13:48Z</time>
      </trkpt>
      <trkpt lat="45.87645" lon="3.46489">
        <ele>307.2</ele>
        <time>2024-05-01T11:13:49Z</time>
      </trkpt>
      <trkpt lat="45.8764" lon="3.46493">
        <ele>307.2</ele>
        <time>2024-05-01T11:13:50Z</time>
      </trkpt>
      <trkpt lat="45.87635" lon="3.46498">
        <ele>307</ele>
        <time>2024-05-01T11:13:51Z</time>
      </trkpt>
      <trkpt lat="45.8763" lon="3.46504">
        <ele>307</ele>
        <time>2024-05-01T11:13:52Z</time>
      </trkpt>
      <trkpt lat="45.87625" lon="3.46508">
        <ele>307</ele>
        <time>2024-05-01T11:13:53Z</time>
      </trkpt>
      <trkpt lat="45.8762" lon="3.46514">
        <ele>307.2</ele>
        <time>2024-05-01T11:13:54Z</time>
      </trkpt>
      <trkpt lat="45.87615" lon="3.46519">
        <ele>307</ele>
        <time>2024-05-01T11:13:55Z</time>
      </trkpt>
      <trkpt lat="45.87611" lon="3.46525">
        <ele>307.2</ele>
        <time>2024-05-01T11:13:56Z</time>
      </trkpt>
      <trkpt lat="45.87606" lon="3.46532">
        <ele>307.2</ele>
        <time>2024-05-01T11:13:57Z</time>
      </trkpt>
      <trkpt lat="45.87602" lon="3.46538">
        <ele>307.2</ele>
        <time>2024-05-01T11:13:58Z</time>
      </trkpt>
      <trkpt lat="45.87598" lon="3.46544">
        <ele>307.2</ele>
        <time>2024-05-01T11:13:59Z</time>
      </trkpt>
      <trkpt lat="45.87593" lon="3.4655">
        <ele>307.2</ele>
        <time>2024-05-01T11:14:00Z</time>
      </trkpt>
      <trkpt lat="45.87589" lon="3.46556">
        <ele>307.2</ele>
        <time>2024-05-01T11:14:01Z</time>
      </trkpt>
      <trkpt lat="45.87585" lon="3.46562">
        <ele>307.2</ele>
        <time>2024-05-01T11:14:02Z</time>
      </trkpt>
      <trkpt lat="45.87581" lon="3.46568">
        <ele>307.2</ele>
        <time>2024-05-01T11:14:03Z</time>
      </trkpt>
      <trkpt lat="45.87577" lon="3.46574">
        <ele>307.2</ele>
        <time>2024-05-01T11:14:04Z</time>
      </trkpt>
      <trkpt lat="45.87573" lon="3.4658">
        <ele>307.2</ele>
        <time>2024-05-01T11:14:05Z</time>
      </trkpt>
      <trkpt lat="45.87569" lon="3.46586">
        <ele>306.6</ele>
        <time>2024-05-01T11:14:06Z</time>
      </trkpt>
      <trkpt lat="45.87565" lon="3.46592">
        <ele>307</ele>
        <time>2024-05-01T11:14:07Z</time>
      </trkpt>
      <trkpt lat="45.8756" lon="3.46598">
        <ele>307.4</ele>
        <time>2024-05-01T11:14:08Z</time>
      </trkpt>
      <trkpt lat="45.87556" lon="3.46604">
        <ele>307.2</ele>
        <time>2024-05-01T11:14:09Z</time>
      </trkpt>
      <trkpt lat="45.87552" lon="3.4661">
        <ele>307.2</ele>
        <time>2024-05-01T11:14:10Z</time>
      </trkpt>
      <trkpt lat="45.87547" lon="3.46617">
        <ele>307.2</ele>
        <time>2024-05-01T11:14:11Z</time>
      </trkpt>
      <trkpt lat="45.87543" lon="3.46623">
        <ele>307.2</ele>
        <time>2024-05-01T11:14:12Z</time>
      </trkpt>
      <trkpt lat="45.87539" lon="3.4663">
        <ele>307.4</ele>
        <time>2024-05-01T11:14:13Z</time>
      </trkpt>
      <trkpt lat="45.87534" lon="3.46636">
        <ele>307.4</ele>
        <time>2024-05-01T11:14:14Z</time>
      </trkpt>
      <trkpt lat="45.87529" lon="3.46641">
        <ele>307.4</ele>
        <time>2024-05-01T11:14:15Z</time>
      </trkpt>
      <trkpt lat="45.87523" lon="3.46646">
        <ele>307.4</ele>
        <time>2024-05-01T11:14:16Z</time>
      </trkpt>
      <trkpt lat="45.87518" lon="3.4665">
        <ele>307.4</ele>
        <time>2024-05-01T11:14:17Z</time>
      </trkpt>
      <trkpt lat="45.87513" lon="3.46655">
        <ele>307.4</ele>
        <time>2024-05-01T11:14:18Z</time>
      </trkpt>
      <trkpt lat="45.87507" lon="3.4666">
        <ele>307.2</ele>
        <time>2024-05-01T11:14:19Z</time>
      </trkpt>
      <trkpt lat="45.87502" lon="3.46665">
        <ele>307.6</ele>
        <time>2024-05-01T11:14:20Z</time>
      </trkpt>
      <trkpt lat="45.87496" lon="3.46669">
        <ele>307.4</ele>
        <time>2024-05-01T11:14:21Z</time>
      </trkpt>
      <trkpt lat="45.87491" lon="3.46674">
        <ele>307.4</ele>
        <time>2024-05-01T11:14:22Z</time>
      </trkpt>
      <trkpt lat="45.87486" lon="3.46679">
        <ele>307.6</ele>
        <time>2024-05-01T11:14:23Z</time>
      </trkpt>
      <trkpt lat="45.87481" lon="3.46684">
        <ele>307.4</ele>
        <time>2024-05-01T11:14:24Z</time>
      </trkpt>
      <trkpt lat="45.87474" lon="3.46688">
        <ele>307.4</ele>
        <time>2024-05-01T11:14:25Z</time>
      </trkpt>
      <trkpt lat="45.87468" lon="3.46691">
        <ele>307.4</ele>
        <time>2024-05-01T11:14:26Z</time>
      </trkpt>
      <trkpt lat="45.87463" lon="3.46695">
        <ele>307.2</ele>
        <time>2024-05-01T11:14:27Z</time>
      </trkpt>
      <trkpt lat="45.87457" lon="3.46698">
        <ele>307.2</ele>
        <time>2024-05-01T11:14:28Z</time>
      </trkpt>
      <trkpt lat="45.87451" lon="3.46702">
        <ele>307.4</ele>
        <time>2024-05-01T11:14:29Z</time>
      </trkpt>
      <trkpt lat="45.87446" lon="3.46705">
        <ele>307.2</ele>
        <time>2024-05-01T11:14:30Z</time>
      </trkpt>
      <trkpt lat="45.8744" lon="3.46709">
        <ele>307.2</ele>
        <time>2024-05-01T11:14:31Z</time>
      </trkpt>
      <trkpt lat="45.87434" lon="3.46711">
        <ele>307</ele>
        <time>2024-05-01T11:14:32Z</time>
      </trkpt>
      <trkpt lat="45.87428" lon="3.46713">
        <ele>307</ele>
        <time>2024-05-01T11:14:33Z</time>
      </trkpt>
      <trkpt lat="45.87422" lon="3.46716">
        <ele>307.2</ele>
        <time>2024-05-01T11:14:34Z</time>
      </trkpt>
      <trkpt lat="45.87416" lon="3.46718">
        <ele>307</ele>
        <time>2024-05-01T11:14:35Z</time>
      </trkpt>
      <trkpt lat="45.8741" lon="3.46721">
        <ele>306.8</ele>
        <time>2024-05-01T11:14:36Z</time>
      </trkpt>
      <trkpt lat="45.87404" lon="3.46723">
        <ele>307.2</ele>
        <time>2024-05-01T11:14:37Z</time>
      </trkpt>
      <trkpt lat="45.87398" lon="3.46726">
        <ele>307.2</ele>
        <time>2024-05-01T11:14:38Z</time>
      </trkpt>
      <trkpt lat="45.87391" lon="3.46728">
        <ele>307.2</ele>
        <time>2024-05-01T11:14:39Z</time>
      </trkpt>
      <trkpt lat="45.87385" lon="3.4673">
        <ele>307</ele>
        <time>2024-05-01T11:14:40Z</time>
      </trkpt>
      <trkpt lat="45.87379" lon="3.46733">
        <ele>307</ele>
        <time>2024-05-01T11:14:41Z</time>
      </trkpt>
      <trkpt lat="45.87373" lon="3.46735">
        <ele>307</ele>
        <time>2024-05-01T11:14:42Z</time>
      </trkpt>
      <trkpt lat="45.87367" lon="3.46738">
        <ele>307</ele>
        <time>2024-05-01T11:14:43Z</time>
      </trkpt>
      <trkpt lat="45.87361" lon="3.4674">
        <ele>307</ele>
        <time>2024-05-01T11:14:44Z</time>
      </trkpt>
      <trkpt lat="45.87355" lon="3.46743">
        <ele>307</ele>
        <time>2024-05-01T11:14:45Z</time>
      </trkpt>
      <trkpt lat="45.87348" lon="3.46745">
        <ele>307</ele>
        <time>2024-05-01T11:14:46Z</time>
      </trkpt>
      <trkpt lat="45.87342" lon="3.46748">
        <ele>307</ele>
        <time>2024-05-01T11:14:47Z</time>
      </trkpt>
      <trkpt lat="45.87335" lon="3.4675">
        <ele>306.8</ele>
        <time>2024-05-01T11:14:48Z</time>
      </trkpt>
      <trkpt lat="45.87329" lon="3.46753">
        <ele>306.8</ele>
        <time>2024-05-01T11:14:49Z</time>
      </trkpt>
      <trkpt lat="45.87323" lon="3.46755">
        <ele>306.8</ele>
        <time>2024-05-01T11:14:50Z</time>
      </trkpt>
      <trkpt lat="45.87316" lon="3.46758">
        <ele>306.8</ele>
        <time>2024-05-01T11:14:51Z</time>
      </trkpt>
      <trkpt lat="45.8731" lon="3.4676">
        <ele>306.8</ele>
        <time>2024-05-01T11:14:52Z</time>
      </trkpt>
      <trkpt lat="45.87303" lon="3.46763">
        <ele>306.6</ele>
        <time>2024-05-01T11:14:53Z</time>
      </trkpt>
      <trkpt lat="45.87296" lon="3.46766">
        <ele>306.6</ele>
        <time>2024-05-01T11:14:54Z</time>
      </trkpt>
      <trkpt lat="45.8729" lon="3.46768">
        <ele>306.6</ele>
        <time>2024-05-01T11:14:55Z</time>
      </trkpt>
      <trkpt lat="45.87283" lon="3.46771">
        <ele>306.6</ele>
        <time>2024-05-01T11:14:56Z</time>
      </trkpt>
      <trkpt lat="45.87277" lon="3.46773">
        <ele>306.4</ele>
        <time>2024-05-01T11:14:57Z</time>
      </trkpt>
      <trkpt lat="45.8727" lon="3.46775">
        <ele>306.4</ele>
        <time>2024-05-01T11:14:58Z</time>
      </trkpt>
      <trkpt lat="45.87264" lon="3.46778">
        <ele>306.2</ele>
        <time>2024-05-01T11:14:59Z</time>
      </trkpt>
      <trkpt lat="45.87258" lon="3.4678">
        <ele>306</ele>
        <time>2024-05-01T11:15:00Z</time>
      </trkpt>
      <trkpt lat="45.87251" lon="3.46782">
        <ele>306</ele>
        <time>2024-05-01T11:15:01Z</time>
      </trkpt>
      <trkpt lat="45.87245" lon="3.46785">
        <ele>305.8</ele>
        <time>2024-05-01T11:15:02Z</time>
      </trkpt>
      <trkpt lat="45.87237" lon="3.46788">
        <ele>305.8</ele>
        <time>2024-05-01T11:15:03Z</time>
      </trkpt>
      <trkpt lat="45.8723" lon="3.46791">
        <ele>305.8</ele>
        <time>2024-05-01T11:15:04Z</time>
      </trkpt>
      <trkpt lat="45.87223" lon="3.46794">
        <ele>305.8</ele>
        <time>2024-05-01T11:15:05Z</time>
      </trkpt>
      <trkpt lat="45.87216" lon="3.46797">
        <ele>305.6</ele>
        <time>2024-05-01T11:15:06Z</time>
      </trkpt>
      <trkpt lat="45.87209" lon="3.468">
        <ele>305.6</ele>
        <time>2024-05-01T11:15:07Z</time>
      </trkpt>
      <trkpt lat="45.87203" lon="3.46802">
        <ele>305.6</ele>
        <time>2024-05-01T11:15:08Z</time>
      </trkpt>
      <trkpt lat="45.87196" lon="3.46805">
        <ele>305.4</ele>
        <time>2024-05-01T11:15:09Z</time>
      </trkpt>
      <trkpt lat="45.8719" lon="3.46808">
        <ele>305.4</ele>
        <time>2024-05-01T11:15:10Z</time>
      </trkpt>
      <trkpt lat="45.87183" lon="3.4681">
        <ele>305.4</ele>
        <time>2024-05-01T11:15:11Z</time>
      </trkpt>
      <trkpt lat="45.87176" lon="3.46813">
        <ele>305.4</ele>
        <time>2024-05-01T11:15:12Z</time>
      </trkpt>
      <trkpt lat="45.87169" lon="3.46816">
        <ele>305.2</ele>
        <time>2024-05-01T11:15:13Z</time>
      </trkpt>
      <trkpt lat="45.87162" lon="3.46819">
        <ele>305.2</ele>
        <time>2024-05-01T11:15:14Z</time>
      </trkpt>
      <trkpt lat="45.87156" lon="3.46824">
        <ele>305</ele>
        <time>2024-05-01T11:15:15Z</time>
      </trkpt>
      <trkpt lat="45.8715" lon="3.4683">
        <ele>305</ele>
        <time>2024-05-01T11:15:16Z</time>
      </trkpt>
      <trkpt lat="45.87144" lon="3.46835">
        <ele>305</ele>
        <time>2024-05-01T11:15:17Z</time>
      </trkpt>
      <trkpt lat="45.87137" lon="3.46841">
        <ele>304.8</ele>
        <time>2024-05-01T11:15:18Z</time>
      </trkpt>
      <trkpt lat="45.87131" lon="3.46846">
        <ele>304.8</ele>
        <time>2024-05-01T11:15:19Z</time>
      </trkpt>
      <trkpt lat="45.87126" lon="3.46854">
        <ele>304.8</ele>
        <time>2024-05-01T11:15:20Z</time>
      </trkpt>
      <trkpt lat="45.8712" lon="3.46862">
        <ele>304.6</ele>
        <time>2024-05-01T11:15:21Z</time>
      </trkpt>
      <trkpt lat="45.87115" lon="3.4687">
        <ele>304.6</ele>
        <time>2024-05-01T11:15:22Z</time>
      </trkpt>
      <trkpt lat="45.8711" lon="3.46878">
        <ele>304.6</ele>
        <time>2024-05-01T11:15:23Z</time>
      </trkpt>
      <trkpt lat="45.87104" lon="3.46886">
        <ele>304.4</ele>
        <time>2024-05-01T11:15:24Z</time>
      </trkpt>
      <trkpt lat="45.87099" lon="3.46893">
        <ele>304.2</ele>
        <time>2024-05-01T11:15:25Z</time>
      </trkpt>
      <trkpt lat="45.87094" lon="3.46901">
        <ele>304.2</ele>
        <time>2024-05-01T11:15:26Z</time>
      </trkpt>
      <trkpt lat="45.87089" lon="3.46909">
        <ele>304</ele>
        <time>2024-05-01T11:15:27Z</time>
      </trkpt>
      <trkpt lat="45.87084" lon="3.46917">
        <ele>304</ele>
        <time>2024-05-01T11:15:28Z</time>
      </trkpt>
      <trkpt lat="45.87079" lon="3.46926">
        <ele>303.8</ele>
        <time>2024-05-01T11:15:29Z</time>
      </trkpt>
      <trkpt lat="45.87075" lon="3.46935">
        <ele>303.8</ele>
        <time>2024-05-01T11:15:30Z</time>
      </trkpt>
      <trkpt lat="45.8707" lon="3.46944">
        <ele>303.6</ele>
        <time>2024-05-01T11:15:31Z</time>
      </trkpt>
      <trkpt lat="45.87065" lon="3.46952">
        <ele>303.6</ele>
        <time>2024-05-01T11:15:32Z</time>
      </trkpt>
      <trkpt lat="45.87061" lon="3.46961">
        <ele>303.4</ele>
        <time>2024-05-01T11:15:33Z</time>
      </trkpt>
      <trkpt lat="45.87056" lon="3.4697">
        <ele>303.2</ele>
        <time>2024-05-01T11:15:34Z</time>
      </trkpt>
      <trkpt lat="45.87051" lon="3.46979">
        <ele>303.2</ele>
        <time>2024-05-01T11:15:35Z</time>
      </trkpt>
      <trkpt lat="45.87046" lon="3.46988">
        <ele>303</ele>
        <time>2024-05-01T11:15:36Z</time>
      </trkpt>
      <trkpt lat="45.87041" lon="3.46997">
        <ele>303</ele>
        <time>2024-05-01T11:15:37Z</time>
      </trkpt>
      <trkpt lat="45.87037" lon="3.47006">
        <ele>302.8</ele>
        <time>2024-05-01T11:15:38Z</time>
      </trkpt>
      <trkpt lat="45.87032" lon="3.47015">
        <ele>302.6</ele>
        <time>2024-05-01T11:15:39Z</time>
      </trkpt>
      <trkpt lat="45.87027" lon="3.47024">
        <ele>302.4</ele>
        <time>2024-05-01T11:15:40Z</time>
      </trkpt>
      <trkpt lat="45.87022" lon="3.47033">
        <ele>302.4</ele>
        <time>2024-05-01T11:15:41Z</time>
      </trkpt>
      <trkpt lat="45.87017" lon="3.47042">
        <ele>302.2</ele>
        <time>2024-05-01T11:15:42Z</time>
      </trkpt>
      <trkpt lat="45.87011" lon="3.47051">
        <ele>302</ele>
        <time>2024-05-01T11:15:43Z</time>
      </trkpt>
      <trkpt lat="45.87006" lon="3.4706">
        <ele>302</ele>
        <time>2024-05-01T11:15:44Z</time>
      </trkpt>
      <trkpt lat="45.87" lon="3.47069">
        <ele>301.8</ele>
        <time>2024-05-01T11:15:45Z</time>
      </trkpt>
      <trkpt lat="45.86995" lon="3.47078">
        <ele>301.6</ele>
        <time>2024-05-01T11:15:46Z</time>
      </trkpt>
      <trkpt lat="45.86989" lon="3.47087">
        <ele>301.4</ele>
        <time>2024-05-01T11:15:47Z</time>
      </trkpt>
      <trkpt lat="45.86983" lon="3.47096">
        <ele>301.2</ele>
        <time>2024-05-01T11:15:48Z</time>
      </trkpt>
      <trkpt lat="45.86978" lon="3.47105">
        <ele>301</ele>
        <time>2024-05-01T11:15:49Z</time>
      </trkpt>
      <trkpt lat="45.86972" lon="3.47113">
        <ele>300.8</ele>
        <time>2024-05-01T11:15:50Z</time>
      </trkpt>
      <trkpt lat="45.86967" lon="3.47122">
        <ele>300.6</ele>
        <time>2024-05-01T11:15:51Z</time>
      </trkpt>
      <trkpt lat="45.86961" lon="3.47131">
        <ele>300.4</ele>
        <time>2024-05-01T11:15:52Z</time>
      </trkpt>
      <trkpt lat="45.86956" lon="3.4714">
        <ele>300.4</ele>
        <time>2024-05-01T11:15:53Z</time>
      </trkpt>
      <trkpt lat="45.86951" lon="3.47148">
        <ele>300.2</ele>
        <time>2024-05-01T11:15:54Z</time>
      </trkpt>
      <trkpt lat="45.86945" lon="3.47157">
        <ele>300</ele>
        <time>2024-05-01T11:15:55Z</time>
      </trkpt>
      <trkpt lat="45.8694" lon="3.47166">
        <ele>299.8</ele>
        <time>2024-05-01T11:15:56Z</time>
      </trkpt>
      <trkpt lat="45.86934" lon="3.47174">
        <ele>299.6</ele>
        <time>2024-05-01T11:15:57Z</time>
      </trkpt>
      <trkpt lat="45.86929" lon="3.47183">
        <ele>299.6</ele>
        <time>2024-05-01T11:15:58Z</time>
      </trkpt>
      <trkpt lat="45.86924" lon="3.47191">
        <ele>299.4</ele>
        <time>2024-05-01T11:15:59Z</time>
      </trkpt>
      <trkpt lat="45.86919" lon="3.47199">
        <ele>299.2</ele>
        <time>2024-05-01T11:16:00Z</time>
      </trkpt>
      <trkpt lat="45.86914" lon="3.47208">
        <ele>299.2</ele>
        <time>2024-05-01T11:16:01Z</time>
      </trkpt>
      <trkpt lat="45.86909" lon="3.47216">
        <ele>299</ele>
        <time>2024-05-01T11:16:02Z</time>
      </trkpt>
      <trkpt lat="45.86904" lon="3.47225">
        <ele>298.8</ele>
        <time>2024-05-01T11:16:03Z</time>
      </trkpt>
      <trkpt lat="45.869" lon="3.47233">
        <ele>298.8</ele>
        <time>2024-05-01T11:16:04Z</time>
      </trkpt>
      <trkpt lat="45.86895" lon="3.47241">
        <ele>298.8</ele>
        <time>2024-05-01T11:16:05Z</time>
      </trkpt>
      <trkpt lat="45.8689" lon="3.47248">
        <ele>298.8</ele>
        <time>2024-05-01T11:16:06Z</time>
      </trkpt>
      <trkpt lat="45.86884" lon="3.47255">
        <ele>298.6</ele>
        <time>2024-05-01T11:16:07Z</time>
      </trkpt>
      <trkpt lat="45.86879" lon="3.47262">
        <ele>298.6</ele>
        <time>2024-05-01T11:16:08Z</time>
      </trkpt>
      <trkpt lat="45.86874" lon="3.47269">
        <ele>298.6</ele>
        <time>2024-05-01T11:16:09Z</time>
      </trkpt>
      <trkpt lat="45.8687" lon="3.47275">
        <ele>298.6</ele>
        <time>2024-05-01T11:16:10Z</time>
      </trkpt>
      <trkpt lat="45.86864" lon="3.4728">
        <ele>298.6</ele>
        <time>2024-05-01T11:16:11Z</time>
      </trkpt>
      <trkpt lat="45.86859" lon="3.47284">
        <ele>298.6</ele>
        <time>2024-05-01T11:16:12Z</time>
      </trkpt>
      <trkpt lat="45.86854" lon="3.47289">
        <ele>298.6</ele>
        <time>2024-05-01T11:16:13Z</time>
      </trkpt>
      <trkpt lat="45.86849" lon="3.47294">
        <ele>298.6</ele>
        <time>2024-05-01T11:16:14Z</time>
      </trkpt>
      <trkpt lat="45.86844" lon="3.47298">
        <ele>298.8</ele>
        <time>2024-05-01T11:16:15Z</time>
      </trkpt>
      <trkpt lat="45.86839" lon="3.47303">
        <ele>298.8</ele>
        <time>2024-05-01T11:16:16Z</time>
      </trkpt>
      <trkpt lat="45.86833" lon="3.47308">
        <ele>298.8</ele>
        <time>2024-05-01T11:16:17Z</time>
      </trkpt>
      <trkpt lat="45.86828" lon="3.47313">
        <ele>298.6</ele>
        <time>2024-05-01T11:16:18Z</time>
      </trkpt>
      <trkpt lat="45.86823" lon="3.47317">
        <ele>298.6</ele>
        <time>2024-05-01T11:16:19Z</time>
      </trkpt>
      <trkpt lat="45.86818" lon="3.4732">
        <ele>298.6</ele>
        <time>2024-05-01T11:16:20Z</time>
      </trkpt>
      <trkpt lat="45.86813" lon="3.47322">
        <ele>298.6</ele>
        <time>2024-05-01T11:16:21Z</time>
      </trkpt>
      <trkpt lat="45.86808" lon="3.47324">
        <ele>298.6</ele>
        <time>2024-05-01T11:16:22Z</time>
      </trkpt>
      <trkpt lat="45.86802" lon="3.47327">
        <ele>298.6</ele>
        <time>2024-05-01T11:16:23Z</time>
      </trkpt>
      <trkpt lat="45.86797" lon="3.47329">
        <ele>298.6</ele>
        <time>2024-05-01T11:16:24Z</time>
      </trkpt>
      <trkpt lat="45.86792" lon="3.47331">
        <ele>298.6</ele>
        <time>2024-05-01T11:16:25Z</time>
      </trkpt>
      <trkpt lat="45.86786" lon="3.47334">
        <ele>298.6</ele>
        <time>2024-05-01T11:16:26Z</time>
      </trkpt>
      <trkpt lat="45.8678" lon="3.47336">
        <ele>298.6</ele>
        <time>2024-05-01T11:16:27Z</time>
      </trkpt>
      <trkpt lat="45.86774" lon="3.47339">
        <ele>298.4</ele>
        <time>2024-05-01T11:16:28Z</time>
      </trkpt>
      <trkpt lat="45.86769" lon="3.47341">
        <ele>298.4</ele>
        <time>2024-05-01T11:16:29Z</time>
      </trkpt>
      <trkpt lat="45.86763" lon="3.47344">
        <ele>298.6</ele>
        <time>2024-05-01T11:16:30Z</time>
      </trkpt>
      <trkpt lat="45.86758" lon="3.47346">
        <ele>298.6</ele>
        <time>2024-05-01T11:16:31Z</time>
      </trkpt>
      <trkpt lat="45.86752" lon="3.47348">
        <ele>298.6</ele>
        <time>2024-05-01T11:16:32Z</time>
      </trkpt>
      <trkpt lat="45.86747" lon="3.47351">
        <ele>298.6</ele>
        <time>2024-05-01T11:16:33Z</time>
      </trkpt>
      <trkpt lat="45.86742" lon="3.47353">
        <ele>298.4</ele>
        <time>2024-05-01T11:16:34Z</time>
      </trkpt>
      <trkpt lat="45.86736" lon="3.47355">
        <ele>298.6</ele>
        <time>2024-05-01T11:16:35Z</time>
      </trkpt>
      <trkpt lat="45.86731" lon="3.47358">
        <ele>298.8</ele>
        <time>2024-05-01T11:16:36Z</time>
      </trkpt>
      <trkpt lat="45.86726" lon="3.4736">
        <ele>298.8</ele>
        <time>2024-05-01T11:16:37Z</time>
      </trkpt>
      <trkpt lat="45.8672" lon="3.47362">
        <ele>298.8</ele>
        <time>2024-05-01T11:16:38Z</time>
      </trkpt>
      <trkpt lat="45.86715" lon="3.47364">
        <ele>298.8</ele>
        <time>2024-05-01T11:16:39Z</time>
      </trkpt>
      <trkpt lat="45.86709" lon="3.47367">
        <ele>299</ele>
        <time>2024-05-01T11:16:40Z</time>
      </trkpt>
      <trkpt lat="45.86704" lon="3.47369">
        <ele>299</ele>
        <time>2024-05-01T11:16:41Z</time>
      </trkpt>
      <trkpt lat="45.86699" lon="3.47371">
        <ele>299</ele>
        <time>2024-05-01T11:16:42Z</time>
      </trkpt>
      <trkpt lat="45.86693" lon="3.47373">
        <ele>299.2</ele>
        <time>2024-05-01T11:16:43Z</time>
      </trkpt>
      <trkpt lat="45.86687" lon="3.47375">
        <ele>299.2</ele>
        <time>2024-05-01T11:16:44Z</time>
      </trkpt>
      <trkpt lat="45.86682" lon="3.47377">
        <ele>299.4</ele>
        <time>2024-05-01T11:16:45Z</time>
      </trkpt>
      <trkpt lat="45.86677" lon="3.47379">
        <ele>299.4</ele>
        <time>2024-05-01T11:16:46Z</time>
      </trkpt>
      <trkpt lat="45.86671" lon="3.47381">
        <ele>299.4</ele>
        <time>2024-05-01T11:16:47Z</time>
      </trkpt>
      <trkpt lat="45.86666" lon="3.47382">
        <ele>299.6</ele>
        <time>2024-05-01T11:16:48Z</time>
      </trkpt>
      <trkpt lat="45.8666" lon="3.47384">
        <ele>299.6</ele>
        <time>2024-05-01T11:16:49Z</time>
      </trkpt>
      <trkpt lat="45.86655" lon="3.47386">
        <ele>299.6</ele>
        <time>2024-05-01T11:16:50Z</time>
      </trkpt>
      <trkpt lat="45.8665" lon="3.47388">
        <ele>299.8</ele>
        <time>2024-05-01T11:16:51Z</time>
      </trkpt>
      <trkpt lat="45.86644" lon="3.4739">
        <ele>299.8</ele>
        <time>2024-05-01T11:16:52Z</time>
      </trkpt>
      <trkpt lat="45.86639" lon="3.47391">
        <ele>299.8</ele>
        <time>2024-05-01T11:16:53Z</time>
      </trkpt>
      <trkpt lat="45.86634" lon="3.47393">
        <ele>300</ele>
        <time>2024-05-01T11:16:54Z</time>
      </trkpt>
      <trkpt lat="45.86628" lon="3.47395">
        <ele>300</ele>
        <time>2024-05-01T11:16:55Z</time>
      </trkpt>
      <trkpt lat="45.86622" lon="3.47397">
        <ele>300</ele>
        <time>2024-05-01T11:16:56Z</time>
      </trkpt>
      <trkpt lat="45.86617" lon="3.47399">
        <ele>300.2</ele>
        <time>2024-05-01T11:16:57Z</time>
      </trkpt>
      <trkpt lat="45.86611" lon="3.47401">
        <ele>300.2</ele>
        <time>2024-05-01T11:16:58Z</time>
      </trkpt>
      <trkpt lat="45.86606" lon="3.47402">
        <ele>300.2</ele>
        <time>2024-05-01T11:16:59Z</time>
      </trkpt>
      <trkpt lat="45.866" lon="3.47404">
        <ele>300.4</ele>
        <time>2024-05-01T11:17:00Z</time>
      </trkpt>
      <trkpt lat="45.86595" lon="3.47406">
        <ele>300.4</ele>
        <time>2024-05-01T11:17:01Z</time>
      </trkpt>
      <trkpt lat="45.8659" lon="3.47408">
        <ele>300.6</ele>
        <time>2024-05-01T11:17:02Z</time>
      </trkpt>
      <trkpt lat="45.86584" lon="3.4741">
        <ele>300.6</ele>
        <time>2024-05-01T11:17:03Z</time>
      </trkpt>
      <trkpt lat="45.86579" lon="3.47411">
        <ele>300.8</ele>
        <time>2024-05-01T11:17:04Z</time>
      </trkpt>
      <trkpt lat="45.86574" lon="3.47413">
        <ele>300.8</ele>
        <time>2024-05-01T11:17:05Z</time>
      </trkpt>
      <trkpt lat="45.86568" lon="3.47415">
        <ele>301</ele>
        <time>2024-05-01T11:17:06Z</time>
      </trkpt>
      <trkpt lat="45.86563" lon="3.47417">
        <ele>301</ele>
        <time>2024-05-01T11:17:07Z</time>
      </trkpt>
      <trkpt lat="45.86558" lon="3.47418">
        <ele>301.2</ele>
        <time>2024-05-01T11:17:08Z</time>
      </trkpt>
      <trkpt lat="45.86552" lon="3.4742">
        <ele>301.2</ele>
        <time>2024-05-01T11:17:09Z</time>
      </trkpt>
      <trkpt lat="45.86547" lon="3.47422">
        <ele>301.4</ele>
        <time>2024-05-01T11:17:10Z</time>
      </trkpt>
      <trkpt lat="45.86541" lon="3.47424">
        <ele>301.4</ele>
        <time>2024-05-01T11:17:11Z</time>
      </trkpt>
      <trkpt lat="45.86536" lon="3.47426">
        <ele>301.6</ele>
        <time>2024-05-01T11:17:12Z</time>
      </trkpt>
      <trkpt lat="45.8653" lon="3.47428">
        <ele>301.6</ele>
        <time>2024-05-01T11:17:13Z</time>
      </trkpt>
      <trkpt lat="45.86524" lon="3.4743">
        <ele>301.6</ele>
        <time>2024-05-01T11:17:14Z</time>
      </trkpt>
      <trkpt lat="45.86518" lon="3.47432">
        <ele>301.8</ele>
        <time>2024-05-01T11:17:15Z</time>
      </trkpt>
      <trkpt lat="45.86512" lon="3.47434">
        <ele>302</ele>
        <time>2024-05-01T11:17:16Z</time>
      </trkpt>
      <trkpt lat="45.86507" lon="3.47435">
        <ele>302</ele>
        <time>2024-05-01T11:17:17Z</time>
      </trkpt>
      <trkpt lat="45.86501" lon="3.47437">
        <ele>302.2</ele>
        <time>2024-05-01T11:17:18Z</time>
      </trkpt>
      <trkpt lat="45.86495" lon="3.4744">
        <ele>302.4</ele>
        <time>2024-05-01T11:17:19Z</time>
      </trkpt>
      <trkpt lat="45.86489" lon="3.47442">
        <ele>302.4</ele>
        <time>2024-05-01T11:17:20Z</time>
      </trkpt>
      <trkpt lat="45.86483" lon="3.47444">
        <ele>302.6</ele>
        <time>2024-05-01T11:17:21Z</time>
      </trkpt>
      <trkpt lat="45.86477" lon="3.47446">
        <ele>302.6</ele>
        <time>2024-05-01T11:17:22Z</time>
      </trkpt>
      <trkpt lat="45.86471" lon="3.47448">
        <ele>302.6</ele>
        <time>2024-05-01T11:17:23Z</time>
      </trkpt>
      <trkpt lat="45.86465" lon="3.4745">
        <ele>302.8</ele>
        <time>2024-05-01T11:17:24Z</time>
      </trkpt>
      <trkpt lat="45.86459" lon="3.47452">
        <ele>302.8</ele>
        <time>2024-05-01T11:17:25Z</time>
      </trkpt>
      <trkpt lat="45.86454" lon="3.47454">
        <ele>302.8</ele>
        <time>2024-05-01T11:17:26Z</time>
      </trkpt>
      <trkpt lat="45.86448" lon="3.47456">
        <ele>303</ele>
        <time>2024-05-01T11:17:27Z</time>
      </trkpt>
      <trkpt lat="45.86442" lon="3.47458">
        <ele>303</ele>
        <time>2024-05-01T11:17:28Z</time>
      </trkpt>
      <trkpt lat="45.86437" lon="3.4746">
        <ele>303</ele>
        <time>2024-05-01T11:17:29Z</time>
      </trkpt>
      <trkpt lat="45.86432" lon="3.47462">
        <ele>303</ele>
        <time>2024-05-01T11:17:30Z</time>
      </trkpt>
      <trkpt lat="45.86426" lon="3.47464">
        <ele>303.2</ele>
        <time>2024-05-01T11:17:31Z</time>
      </trkpt>
      <trkpt lat="45.8642" lon="3.47466">
        <ele>303.2</ele>
        <time>2024-05-01T11:17:32Z</time>
      </trkpt>
      <trkpt lat="45.86414" lon="3.47468">
        <ele>303.2</ele>
        <time>2024-05-01T11:17:33Z</time>
      </trkpt>
      <trkpt lat="45.86408" lon="3.4747">
        <ele>303.4</ele>
        <time>2024-05-01T11:17:34Z</time>
      </trkpt>
      <trkpt lat="45.86402" lon="3.47472">
        <ele>303.4</ele>
        <time>2024-05-01T11:17:35Z</time>
      </trkpt>
      <trkpt lat="45.86396" lon="3.47474">
        <ele>303.4</ele>
        <time>2024-05-01T11:17:36Z</time>
      </trkpt>
      <trkpt lat="45.8639" lon="3.47476">
        <ele>303.6</ele>
        <time>2024-05-01T11:17:37Z</time>
      </trkpt>
      <trkpt lat="45.86384" lon="3.47478">
        <ele>303.6</ele>
        <time>2024-05-01T11:17:38Z</time>
      </trkpt>
      <trkpt lat="45.86378" lon="3.4748">
        <ele>303.6</ele>
        <time>2024-05-01T11:17:39Z</time>
      </trkpt>
      <trkpt lat="45.86373" lon="3.47482">
        <ele>303.8</ele>
        <time>2024-05-01T11:17:40Z</time>
      </trkpt>
      <trkpt lat="45.86367" lon="3.47484">
        <ele>303.8</ele>
        <time>2024-05-01T11:17:41Z</time>
      </trkpt>
      <trkpt lat="45.86361" lon="3.47486">
        <ele>303.8</ele>
        <time>2024-05-01T11:17:42Z</time>
      </trkpt>
      <trkpt lat="45.86355" lon="3.47488">
        <ele>303.8</ele>
        <time>2024-05-01T11:17:43Z</time>
      </trkpt>
      <trkpt lat="45.86349" lon="3.4749">
        <ele>304</ele>
        <time>2024-05-01T11:17:44Z</time>
      </trkpt>
      <trkpt lat="45.86343" lon="3.47492">
        <ele>304</ele>
        <time>2024-05-01T11:17:45Z</time>
      </trkpt>
      <trkpt lat="45.86337" lon="3.47494">
        <ele>304</ele>
        <time>2024-05-01T11:17:46Z</time>
      </trkpt>
      <trkpt lat="45.86331" lon="3.47496">
        <ele>304</ele>
        <time>2024-05-01T11:17:47Z</time>
      </trkpt>
      <trkpt lat="45.86325" lon="3.47498">
        <ele>304.2</ele>
        <time>2024-05-01T11:17:48Z</time>
      </trkpt>
      <trkpt lat="45.86318" lon="3.475">
        <ele>304.2</ele>
        <time>2024-05-01T11:17:49Z</time>
      </trkpt>
      <trkpt lat="45.86312" lon="3.47503">
        <ele>304.2</ele>
        <time>2024-05-01T11:17:50Z</time>
      </trkpt>
      <trkpt lat="45.86306" lon="3.47505">
        <ele>304.2</ele>
        <time>2024-05-01T11:17:51Z</time>
      </trkpt>
      <trkpt lat="45.863" lon="3.47507">
        <ele>304.4</ele>
        <time>2024-05-01T11:17:52Z</time>
      </trkpt>
      <trkpt lat="45.86293" lon="3.47509">
        <ele>304.4</ele>
        <time>2024-05-01T11:17:53Z</time>
      </trkpt>
      <trkpt lat="45.86287" lon="3.47512">
        <ele>304.4</ele>
        <time>2024-05-01T11:17:54Z</time>
      </trkpt>
      <trkpt lat="45.86281" lon="3.47514">
        <ele>304.2</ele>
        <time>2024-05-01T11:17:55Z</time>
      </trkpt>
      <trkpt lat="45.86275" lon="3.47516">
        <ele>304.4</ele>
        <time>2024-05-01T11:17:56Z</time>
      </trkpt>
      <trkpt lat="45.86269" lon="3.47518">
        <ele>304.4</ele>
        <time>2024-05-01T11:17:57Z</time>
      </trkpt>
      <trkpt lat="45.86263" lon="3.4752">
        <ele>304.4</ele>
        <time>2024-05-01T11:17:58Z</time>
      </trkpt>
      <trkpt lat="45.86257" lon="3.47523">
        <ele>304.4</ele>
        <time>2024-05-01T11:17:59Z</time>
      </trkpt>
      <trkpt lat="45.86251" lon="3.47525">
        <ele>304.4</ele>
        <time>2024-05-01T11:18:00Z</time>
      </trkpt>
      <trkpt lat="45.86244" lon="3.47527">
        <ele>304.2</ele>
        <time>2024-05-01T11:18:01Z</time>
      </trkpt>
      <trkpt lat="45.86238" lon="3.47529">
        <ele>304.2</ele>
        <time>2024-05-01T11:18:02Z</time>
      </trkpt>
      <trkpt lat="45.86231" lon="3.47532">
        <ele>304.2</ele>
        <time>2024-05-01T11:18:03Z</time>
      </trkpt>
      <trkpt lat="45.86225" lon="3.47534">
        <ele>304.2</ele>
        <time>2024-05-01T11:18:04Z</time>
      </trkpt>
      <trkpt lat="45.86218" lon="3.47536">
        <ele>304.2</ele>
        <time>2024-05-01T11:18:05Z</time>
      </trkpt>
      <trkpt lat="45.86212" lon="3.47539">
        <ele>304.6</ele>
        <time>2024-05-01T11:18:06Z</time>
      </trkpt>
      <trkpt lat="45.86205" lon="3.47541">
        <ele>304.2</ele>
        <time>2024-05-01T11:18:07Z</time>
      </trkpt>
      <trkpt lat="45.86199" lon="3.47543">
        <ele>303.6</ele>
        <time>2024-05-01T11:18:08Z</time>
      </trkpt>
      <trkpt lat="45.86192" lon="3.47546">
        <ele>303.8</ele>
        <time>2024-05-01T11:18:09Z</time>
      </trkpt>
      <trkpt lat="45.86186" lon="3.47548">
        <ele>303.8</ele>
        <time>2024-05-01T11:18:10Z</time>
      </trkpt>
      <trkpt lat="45.8618" lon="3.4755">
        <ele>303.6</ele>
        <time>2024-05-01T11:18:11Z</time>
      </trkpt>
      <trkpt lat="45.86174" lon="3.47552">
        <ele>303.6</ele>
        <time>2024-05-01T11:18:12Z</time>
      </trkpt>
      <trkpt lat="45.86167" lon="3.47554">
        <ele>303.4</ele>
        <time>2024-05-01T11:18:13Z</time>
      </trkpt>
      <trkpt lat="45.86161" lon="3.47557">
        <ele>303.4</ele>
        <time>2024-05-01T11:18:14Z</time>
      </trkpt>
      <trkpt lat="45.86154" lon="3.47559">
        <ele>303.4</ele>
        <time>2024-05-01T11:18:15Z</time>
      </trkpt>
      <trkpt lat="45.86148" lon="3.47561">
        <ele>303.2</ele>
        <time>2024-05-01T11:18:16Z</time>
      </trkpt>
      <trkpt lat="45.86143" lon="3.47563">
        <ele>303</ele>
        <time>2024-05-01T11:18:17Z</time>
      </trkpt>
      <trkpt lat="45.86137" lon="3.47565">
        <ele>303</ele>
        <time>2024-05-01T11:18:18Z</time>
      </trkpt>
      <trkpt lat="45.86131" lon="3.47567">
        <ele>303</ele>
        <time>2024-05-01T11:18:19Z</time>
      </trkpt>
      <trkpt lat="45.86125" lon="3.47569">
        <ele>302.8</ele>
        <time>2024-05-01T11:18:20Z</time>
      </trkpt>
      <trkpt lat="45.86119" lon="3.47571">
        <ele>302.8</ele>
        <time>2024-05-01T11:18:21Z</time>
      </trkpt>
      <trkpt lat="45.86113" lon="3.47573">
        <ele>302.8</ele>
        <time>2024-05-01T11:18:22Z</time>
      </trkpt>
      <trkpt lat="45.86107" lon="3.47575">
        <ele>302.8</ele>
        <time>2024-05-01T11:18:23Z</time>
      </trkpt>
      <trkpt lat="45.861" lon="3.47577">
        <ele>302.8</ele>
        <time>2024-05-01T11:18:24Z</time>
      </trkpt>
      <trkpt lat="45.86094" lon="3.47579">
        <ele>303</ele>
        <time>2024-05-01T11:18:25Z</time>
      </trkpt>
      <trkpt lat="45.86088" lon="3.47582">
        <ele>302.8</ele>
        <time>2024-05-01T11:18:26Z</time>
      </trkpt>
      <trkpt lat="45.86082" lon="3.47584">
        <ele>303</ele>
        <time>2024-05-01T11:18:27Z</time>
      </trkpt>
      <trkpt lat="45.86076" lon="3.47586">
        <ele>303</ele>
        <time>2024-05-01T11:18:28Z</time>
      </trkpt>
      <trkpt lat="45.8607" lon="3.47588">
        <ele>303</ele>
        <time>2024-05-01T11:18:29Z</time>
      </trkpt>
      <trkpt lat="45.86064" lon="3.4759">
        <ele>302.8</ele>
        <time>2024-05-01T11:18:30Z</time>
      </trkpt>
      <trkpt lat="45.86058" lon="3.47592">
        <ele>302.8</ele>
        <time>2024-05-01T11:18:31Z</time>
      </trkpt>
      <trkpt lat="45.86052" lon="3.47594">
        <ele>302.8</ele>
        <time>2024-05-01T11:18:32Z</time>
      </trkpt>
      <trkpt lat="45.86046" lon="3.47596">
        <ele>302.8</ele>
        <time>2024-05-01T11:18:33Z</time>
      </trkpt>
      <trkpt lat="45.8604" lon="3.47598">
        <ele>302.8</ele>
        <time>2024-05-01T11:18:34Z</time>
      </trkpt>
      <trkpt lat="45.86034" lon="3.476">
        <ele>302.8</ele>
        <time>2024-05-01T11:18:35Z</time>
      </trkpt>
      <trkpt lat="45.86027" lon="3.47602">
        <ele>302.8</ele>
        <time>2024-05-01T11:18:36Z</time>
      </trkpt>
      <trkpt lat="45.86021" lon="3.47604">
        <ele>302.8</ele>
        <time>2024-05-01T11:18:37Z</time>
      </trkpt>
      <trkpt lat="45.86015" lon="3.47607">
        <ele>302.8</ele>
        <time>2024-05-01T11:18:38Z</time>
      </trkpt>
      <trkpt lat="45.86009" lon="3.47609">
        <ele>302.8</ele>
        <time>2024-05-01T11:18:39Z</time>
      </trkpt>
      <trkpt lat="45.86003" lon="3.47611">
        <ele>302.8</ele>
        <time>2024-05-01T11:18:40Z</time>
      </trkpt>
      <trkpt lat="45.85997" lon="3.47613">
        <ele>302.8</ele>
        <time>2024-05-01T11:18:41Z</time>
      </trkpt>
      <trkpt lat="45.8599" lon="3.47615">
        <ele>302.8</ele>
        <time>2024-05-01T11:18:42Z</time>
      </trkpt>
      <trkpt lat="45.85984" lon="3.47617">
        <ele>302.8</ele>
        <time>2024-05-01T11:18:43Z</time>
      </trkpt>
      <trkpt lat="45.85978" lon="3.47619">
        <ele>302.8</ele>
        <time>2024-05-01T11:18:44Z</time>
      </trkpt>
      <trkpt lat="45.85971" lon="3.47622">
        <ele>302.8</ele>
        <time>2024-05-01T11:18:45Z</time>
      </trkpt>
      <trkpt lat="45.85965" lon="3.47624">
        <ele>302.8</ele>
        <time>2024-05-01T11:18:46Z</time>
      </trkpt>
      <trkpt lat="45.85959" lon="3.47626">
        <ele>302.8</ele>
        <time>2024-05-01T11:18:47Z</time>
      </trkpt>
      <trkpt lat="45.85952" lon="3.47628">
        <ele>302.8</ele>
        <time>2024-05-01T11:18:48Z</time>
      </trkpt>
      <trkpt lat="45.85946" lon="3.4763">
        <ele>302.8</ele>
        <time>2024-05-01T11:18:49Z</time>
      </trkpt>
      <trkpt lat="45.8594" lon="3.47632">
        <ele>302.8</ele>
        <time>2024-05-01T11:18:50Z</time>
      </trkpt>
      <trkpt lat="45.85934" lon="3.47634">
        <ele>302.6</ele>
        <time>2024-05-01T11:18:51Z</time>
      </trkpt>
      <trkpt lat="45.85928" lon="3.47637">
        <ele>302.6</ele>
        <time>2024-05-01T11:18:52Z</time>
      </trkpt>
      <trkpt lat="45.85922" lon="3.47639">
        <ele>302.6</ele>
        <time>2024-05-01T11:18:53Z</time>
      </trkpt>
      <trkpt lat="45.85916" lon="3.47641">
        <ele>302.6</ele>
        <time>2024-05-01T11:18:54Z</time>
      </trkpt>
      <trkpt lat="45.8591" lon="3.47643">
        <ele>302.6</ele>
        <time>2024-05-01T11:18:55Z</time>
      </trkpt>
      <trkpt lat="45.85904" lon="3.47645">
        <ele>302.6</ele>
        <time>2024-05-01T11:18:56Z</time>
      </trkpt>
      <trkpt lat="45.85898" lon="3.47647">
        <ele>302.4</ele>
        <time>2024-05-01T11:18:57Z</time>
      </trkpt>
      <trkpt lat="45.85892" lon="3.47649">
        <ele>302.4</ele>
        <time>2024-05-01T11:18:58Z</time>
      </trkpt>
      <trkpt lat="45.85886" lon="3.47651">
        <ele>302.4</ele>
        <time>2024-05-01T11:18:59Z</time>
      </trkpt>
      <trkpt lat="45.85879" lon="3.47653">
        <ele>302.4</ele>
        <time>2024-05-01T11:19:00Z</time>
      </trkpt>
      <trkpt lat="45.85874" lon="3.47655">
        <ele>302.4</ele>
        <time>2024-05-01T11:19:01Z</time>
      </trkpt>
      <trkpt lat="45.85868" lon="3.47657">
        <ele>302.2</ele>
        <time>2024-05-01T11:19:02Z</time>
      </trkpt>
      <trkpt lat="45.85862" lon="3.47659">
        <ele>302.2</ele>
        <time>2024-05-01T11:19:03Z</time>
      </trkpt>
      <trkpt lat="45.85856" lon="3.47661">
        <ele>302.2</ele>
        <time>2024-05-01T11:19:04Z</time>
      </trkpt>
      <trkpt lat="45.8585" lon="3.47663">
        <ele>302</ele>
        <time>2024-05-01T11:19:05Z</time>
      </trkpt>
      <trkpt lat="45.85843" lon="3.47665">
        <ele>302</ele>
        <time>2024-05-01T11:19:06Z</time>
      </trkpt>
      <trkpt lat="45.85838" lon="3.47667">
        <ele>302</ele>
        <time>2024-05-01T11:19:07Z</time>
      </trkpt>
      <trkpt lat="45.85832" lon="3.4767">
        <ele>301.8</ele>
        <time>2024-05-01T11:19:08Z</time>
      </trkpt>
      <trkpt lat="45.85825" lon="3.47672">
        <ele>301.8</ele>
        <time>2024-05-01T11:19:09Z</time>
      </trkpt>
      <trkpt lat="45.85819" lon="3.47674">
        <ele>301.6</ele>
        <time>2024-05-01T11:19:10Z</time>
      </trkpt>
      <trkpt lat="45.85813" lon="3.47676">
        <ele>301.6</ele>
        <time>2024-05-01T11:19:11Z</time>
      </trkpt>
      <trkpt lat="45.85807" lon="3.47678">
        <ele>301.4</ele>
        <time>2024-05-01T11:19:12Z</time>
      </trkpt>
      <trkpt lat="45.85801" lon="3.4768">
        <ele>301.4</ele>
        <time>2024-05-01T11:19:13Z</time>
      </trkpt>
      <trkpt lat="45.85794" lon="3.47682">
        <ele>301.2</ele>
        <time>2024-05-01T11:19:14Z</time>
      </trkpt>
      <trkpt lat="45.85788" lon="3.47685">
        <ele>301.2</ele>
        <time>2024-05-01T11:19:15Z</time>
      </trkpt>
      <trkpt lat="45.85781" lon="3.47687">
        <ele>301.2</ele>
        <time>2024-05-01T11:19:16Z</time>
      </trkpt>
      <trkpt lat="45.85775" lon="3.47689">
        <ele>301</ele>
        <time>2024-05-01T11:19:17Z</time>
      </trkpt>
      <trkpt lat="45.85768" lon="3.47691">
        <ele>301</ele>
        <time>2024-05-01T11:19:18Z</time>
      </trkpt>
      <trkpt lat="45.85762" lon="3.47693">
        <ele>300.8</ele>
        <time>2024-05-01T11:19:19Z</time>
      </trkpt>
      <trkpt lat="45.85756" lon="3.47696">
        <ele>300.8</ele>
        <time>2024-05-01T11:19:20Z</time>
      </trkpt>
      <trkpt lat="45.8575" lon="3.47698">
        <ele>300.8</ele>
        <time>2024-05-01T11:19:21Z</time>
      </trkpt>
      <trkpt lat="45.85743" lon="3.477">
        <ele>300.6</ele>
        <time>2024-05-01T11:19:22Z</time>
      </trkpt>
      <trkpt lat="45.85737" lon="3.47702">
        <ele>300.6</ele>
        <time>2024-05-01T11:19:23Z</time>
      </trkpt>
      <trkpt lat="45.85731" lon="3.47704">
        <ele>300.6</ele>
        <time>2024-05-01T11:19:24Z</time>
      </trkpt>
      <trkpt lat="45.85724" lon="3.47706">
        <ele>300.6</ele>
        <time>2024-05-01T11:19:25Z</time>
      </trkpt>
      <trkpt lat="45.85718" lon="3.47707">
        <ele>300.6</ele>
        <time>2024-05-01T11:19:26Z</time>
      </trkpt>
      <trkpt lat="45.85711" lon="3.47708">
        <ele>300.6</ele>
        <time>2024-05-01T11:19:27Z</time>
      </trkpt>
      <trkpt lat="45.85704" lon="3.47709">
        <ele>300.6</ele>
        <time>2024-05-01T11:19:28Z</time>
      </trkpt>
      <trkpt lat="45.85697" lon="3.47709">
        <ele>300.6</ele>
        <time>2024-05-01T11:19:29Z</time>
      </trkpt>
      <trkpt lat="45.8569" lon="3.4771">
        <ele>300.6</ele>
        <time>2024-05-01T11:19:30Z</time>
      </trkpt>
      <trkpt lat="45.85682" lon="3.47711">
        <ele>300.6</ele>
        <time>2024-05-01T11:19:31Z</time>
      </trkpt>
      <trkpt lat="45.85675" lon="3.47712">
        <ele>300.6</ele>
        <time>2024-05-01T11:19:32Z</time>
      </trkpt>
      <trkpt lat="45.85667" lon="3.47713">
        <ele>300.6</ele>
        <time>2024-05-01T11:19:33Z</time>
      </trkpt>
      <trkpt lat="45.85659" lon="3.47714">
        <ele>300.6</ele>
        <time>2024-05-01T11:19:34Z</time>
      </trkpt>
      <trkpt lat="45.85651" lon="3.47715">
        <ele>300.6</ele>
        <time>2024-05-01T11:19:35Z</time>
      </trkpt>
      <trkpt lat="45.85643" lon="3.47716">
        <ele>300.6</ele>
        <time>2024-05-01T11:19:36Z</time>
      </trkpt>
      <trkpt lat="45.85635" lon="3.47717">
        <ele>300.6</ele>
        <time>2024-05-01T11:19:37Z</time>
      </trkpt>
      <trkpt lat="45.85626" lon="3.47719">
        <ele>300.4</ele>
        <time>2024-05-01T11:19:38Z</time>
      </trkpt>
      <trkpt lat="45.85618" lon="3.4772">
        <ele>300.4</ele>
        <time>2024-05-01T11:19:39Z</time>
      </trkpt>
      <trkpt lat="45.85609" lon="3.47721">
        <ele>300.2</ele>
        <time>2024-05-01T11:19:40Z</time>
      </trkpt>
      <trkpt lat="45.856" lon="3.47722">
        <ele>300.2</ele>
        <time>2024-05-01T11:19:41Z</time>
      </trkpt>
      <trkpt lat="45.85591" lon="3.47723">
        <ele>300</ele>
        <time>2024-05-01T11:19:42Z</time>
      </trkpt>
      <trkpt lat="45.85582" lon="3.47725">
        <ele>299.8</ele>
        <time>2024-05-01T11:19:43Z</time>
      </trkpt>
      <trkpt lat="45.85573" lon="3.47727">
        <ele>299.8</ele>
        <time>2024-05-01T11:19:44Z</time>
      </trkpt>
      <trkpt lat="45.85564" lon="3.4773">
        <ele>299.6</ele>
        <time>2024-05-01T11:19:45Z</time>
      </trkpt>
      <trkpt lat="45.85555" lon="3.47732">
        <ele>299.6</ele>
        <time>2024-05-01T11:19:46Z</time>
      </trkpt>
      <trkpt lat="45.85546" lon="3.47735">
        <ele>299.4</ele>
        <time>2024-05-01T11:19:47Z</time>
      </trkpt>
      <trkpt lat="45.85537" lon="3.47737">
        <ele>299.2</ele>
        <time>2024-05-01T11:19:48Z</time>
      </trkpt>
      <trkpt lat="45.85528" lon="3.4774">
        <ele>299.2</ele>
        <time>2024-05-01T11:19:49Z</time>
      </trkpt>
      <trkpt lat="45.8552" lon="3.47743">
        <ele>299</ele>
        <time>2024-05-01T11:19:50Z</time>
      </trkpt>
      <trkpt lat="45.85513" lon="3.47745">
        <ele>298.8</ele>
        <time>2024-05-01T11:19:51Z</time>
      </trkpt>
      <trkpt lat="45.85505" lon="3.47749">
        <ele>298.6</ele>
        <time>2024-05-01T11:19:52Z</time>
      </trkpt>
      <trkpt lat="45.85498" lon="3.47752">
        <ele>298.6</ele>
        <time>2024-05-01T11:19:53Z</time>
      </trkpt>
      <trkpt lat="45.85492" lon="3.47755">
        <ele>298.6</ele>
        <time>2024-05-01T11:19:54Z</time>
      </trkpt>
      <trkpt lat="45.85485" lon="3.47758">
        <ele>298.6</ele>
        <time>2024-05-01T11:19:55Z</time>
      </trkpt>
      <trkpt lat="45.85479" lon="3.47761">
        <ele>298.6</ele>
        <time>2024-05-01T11:19:56Z</time>
      </trkpt>
      <trkpt lat="45.85473" lon="3.47764">
        <ele>298.6</ele>
        <time>2024-05-01T11:19:57Z</time>
      </trkpt>
      <trkpt lat="45.85467" lon="3.47767">
        <ele>298.6</ele>
        <time>2024-05-01T11:19:58Z</time>
      </trkpt>
      <trkpt lat="45.85461" lon="3.47769">
        <ele>298.6</ele>
        <time>2024-05-01T11:19:59Z</time>
      </trkpt>
      <trkpt lat="45.85455" lon="3.47772">
        <ele>298.6</ele>
        <time>2024-05-01T11:20:00Z</time>
      </trkpt>
      <trkpt lat="45.8545" lon="3.47775">
        <ele>298.8</ele>
        <time>2024-05-01T11:20:01Z</time>
      </trkpt>
      <trkpt lat="45.85444" lon="3.47777">
        <ele>298.6</ele>
        <time>2024-05-01T11:20:02Z</time>
      </trkpt>
      <trkpt lat="45.85438" lon="3.4778">
        <ele>298.6</ele>
        <time>2024-05-01T11:20:03Z</time>
      </trkpt>
      <trkpt lat="45.85432" lon="3.47783">
        <ele>298.6</ele>
        <time>2024-05-01T11:20:04Z</time>
      </trkpt>
      <trkpt lat="45.85426" lon="3.47786">
        <ele>298.6</ele>
        <time>2024-05-01T11:20:05Z</time>
      </trkpt>
      <trkpt lat="45.8542" lon="3.47792">
        <ele>298.4</ele>
        <time>2024-05-01T11:20:06Z</time>
      </trkpt>
      <trkpt lat="45.85415" lon="3.47797">
        <ele>298.4</ele>
        <time>2024-05-01T11:20:07Z</time>
      </trkpt>
      <trkpt lat="45.8541" lon="3.47803">
        <ele>298.2</ele>
        <time>2024-05-01T11:20:08Z</time>
      </trkpt>
      <trkpt lat="45.85405" lon="3.4781">
        <ele>298.2</ele>
        <time>2024-05-01T11:20:09Z</time>
      </trkpt>
      <trkpt lat="45.854" lon="3.47816">
        <ele>298.2</ele>
        <time>2024-05-01T11:20:10Z</time>
      </trkpt>
      <trkpt lat="45.85395" lon="3.47822">
        <ele>298</ele>
        <time>2024-05-01T11:20:11Z</time>
      </trkpt>
      <trkpt lat="45.8539" lon="3.47828">
        <ele>298</ele>
        <time>2024-05-01T11:20:12Z</time>
      </trkpt>
      <trkpt lat="45.85385" lon="3.47834">
        <ele>298</ele>
        <time>2024-05-01T11:20:13Z</time>
      </trkpt>
      <trkpt lat="45.85379" lon="3.4784">
        <ele>298</ele>
        <time>2024-05-01T11:20:14Z</time>
      </trkpt>
      <trkpt lat="45.85374" lon="3.47846">
        <ele>298</ele>
        <time>2024-05-01T11:20:15Z</time>
      </trkpt>
      <trkpt lat="45.85369" lon="3.47852">
        <ele>298</ele>
        <time>2024-05-01T11:20:16Z</time>
      </trkpt>
      <trkpt lat="45.85364" lon="3.47858">
        <ele>298</ele>
        <time>2024-05-01T11:20:17Z</time>
      </trkpt>
      <trkpt lat="45.85359" lon="3.47864">
        <ele>298</ele>
        <time>2024-05-01T11:20:18Z</time>
      </trkpt>
      <trkpt lat="45.85354" lon="3.4787">
        <ele>298</ele>
        <time>2024-05-01T11:20:19Z</time>
      </trkpt>
      <trkpt lat="45.85349" lon="3.47876">
        <ele>298.2</ele>
        <time>2024-05-01T11:20:20Z</time>
      </trkpt>
      <trkpt lat="45.85343" lon="3.47882">
        <ele>298.2</ele>
        <time>2024-05-01T11:20:21Z</time>
      </trkpt>
      <trkpt lat="45.85338" lon="3.47888">
        <ele>298.2</ele>
        <time>2024-05-01T11:20:22Z</time>
      </trkpt>
      <trkpt lat="45.85333" lon="3.47894">
        <ele>298</ele>
        <time>2024-05-01T11:20:23Z</time>
      </trkpt>
      <trkpt lat="45.85328" lon="3.47901">
        <ele>297.8</ele>
        <time>2024-05-01T11:20:24Z</time>
      </trkpt>
      <trkpt lat="45.85323" lon="3.47907">
        <ele>298.2</ele>
        <time>2024-05-01T11:20:25Z</time>
      </trkpt>
      <trkpt lat="45.85318" lon="3.47914">
        <ele>298.2</ele>
        <time>2024-05-01T11:20:26Z</time>
      </trkpt>
      <trkpt lat="45.85313" lon="3.4792">
        <ele>298.2</ele>
        <time>2024-05-01T11:20:27Z</time>
      </trkpt>
      <trkpt lat="45.85308" lon="3.47926">
        <ele>298</ele>
        <time>2024-05-01T11:20:28Z</time>
      </trkpt>
      <trkpt lat="45.85303" lon="3.47932">
        <ele>297.8</ele>
        <time>2024-05-01T11:20:29Z</time>
      </trkpt>
      <trkpt lat="45.85298" lon="3.47938">
        <ele>298</ele>
        <time>2024-05-01T11:20:30Z</time>
      </trkpt>
      <trkpt lat="45.85293" lon="3.47944">
        <ele>298</ele>
        <time>2024-05-01T11:20:31Z</time>
      </trkpt>
      <trkpt lat="45.85289" lon="3.4795">
        <ele>298</ele>
        <time>2024-05-01T11:20:32Z</time>
      </trkpt>
      <trkpt lat="45.85285" lon="3.47955">
        <ele>297.8</ele>
        <time>2024-05-01T11:20:33Z</time>
      </trkpt>
      <trkpt lat="45.8528" lon="3.47961">
        <ele>297.8</ele>
        <time>2024-05-01T11:20:34Z</time>
      </trkpt>
      <trkpt lat="45.85275" lon="3.47967">
        <ele>297.8</ele>
        <time>2024-05-01T11:20:35Z</time>
      </trkpt>
      <trkpt lat="45.85271" lon="3.47973">
        <ele>297.6</ele>
        <time>2024-05-01T11:20:36Z</time>
      </trkpt>
      <trkpt lat="45.85267" lon="3.47978">
        <ele>297.6</ele>
        <time>2024-05-01T11:20:37Z</time>
      </trkpt>
      <trkpt lat="45.85263" lon="3.47983">
        <ele>297.4</ele>
        <time>2024-05-01T11:20:38Z</time>
      </trkpt>
      <trkpt lat="45.85258" lon="3.47989">
        <ele>297.4</ele>
        <time>2024-05-01T11:20:39Z</time>
      </trkpt>
      <trkpt lat="45.85254" lon="3.47995">
        <ele>297.4</ele>
        <time>2024-05-01T11:20:40Z</time>
      </trkpt>
      <trkpt lat="45.85249" lon="3.48001">
        <ele>297.4</ele>
        <time>2024-05-01T11:20:41Z</time>
      </trkpt>
      <trkpt lat="45.85244" lon="3.48008">
        <ele>297.4</ele>
        <time>2024-05-01T11:20:42Z</time>
      </trkpt>
      <trkpt lat="45.8524" lon="3.48014">
        <ele>297.4</ele>
        <time>2024-05-01T11:20:43Z</time>
      </trkpt>
      <trkpt lat="45.85235" lon="3.4802">
        <ele>297.4</ele>
        <time>2024-05-01T11:20:44Z</time>
      </trkpt>
      <trkpt lat="45.8523" lon="3.48027">
        <ele>297.4</ele>
        <time>2024-05-01T11:20:45Z</time>
      </trkpt>
      <trkpt lat="45.85225" lon="3.48034">
        <ele>297.4</ele>
        <time>2024-05-01T11:20:46Z</time>
      </trkpt>
      <trkpt lat="45.8522" lon="3.48041">
        <ele>297.2</ele>
        <time>2024-05-01T11:20:47Z</time>
      </trkpt>
      <trkpt lat="45.85215" lon="3.48048">
        <ele>297.2</ele>
        <time>2024-05-01T11:20:48Z</time>
      </trkpt>
      <trkpt lat="45.8521" lon="3.48054">
        <ele>297.2</ele>
        <time>2024-05-01T11:20:49Z</time>
      </trkpt>
      <trkpt lat="45.85205" lon="3.48061">
        <ele>297.2</ele>
        <time>2024-05-01T11:20:50Z</time>
      </trkpt>
      <trkpt lat="45.852" lon="3.48068">
        <ele>297</ele>
        <time>2024-05-01T11:20:51Z</time>
      </trkpt>
      <trkpt lat="45.85195" lon="3.48075">
        <ele>297</ele>
        <time>2024-05-01T11:20:52Z</time>
      </trkpt>
      <trkpt lat="45.85189" lon="3.48082">
        <ele>296.8</ele>
        <time>2024-05-01T11:20:53Z</time>
      </trkpt>
      <trkpt lat="45.85183" lon="3.48091">
        <ele>296.8</ele>
        <time>2024-05-01T11:20:54Z</time>
      </trkpt>
      <trkpt lat="45.85177" lon="3.48099">
        <ele>296.6</ele>
        <time>2024-05-01T11:20:55Z</time>
      </trkpt>
      <trkpt lat="45.85171" lon="3.48107">
        <ele>296.6</ele>
        <time>2024-05-01T11:20:56Z</time>
      </trkpt>
      <trkpt lat="45.85165" lon="3.48115">
        <ele>296.6</ele>
        <time>2024-05-01T11:20:57Z</time>
      </trkpt>
      <trkpt lat="45.85159" lon="3.48123">
        <ele>296.6</ele>
        <time>2024-05-01T11:20:58Z</time>
      </trkpt>
      <trkpt lat="45.85153" lon="3.48131">
        <ele>296.6</ele>
        <time>2024-05-01T11:20:59Z</time>
      </trkpt>
      <trkpt lat="45.85147" lon="3.48139">
        <ele>296.6</ele>
        <time>2024-05-01T11:21:00Z</time>
      </trkpt>
      <trkpt lat="45.85141" lon="3.48147">
        <ele>296.4</ele>
        <time>2024-05-01T11:21:01Z</time>
      </trkpt>
      <trkpt lat="45.85135" lon="3.48155">
        <ele>296.4</ele>
        <time>2024-05-01T11:21:02Z</time>
      </trkpt>
      <trkpt lat="45.85129" lon="3.48163">
        <ele>296.2</ele>
        <time>2024-05-01T11:21:03Z</time>
      </trkpt>
      <trkpt lat="45.85123" lon="3.48172">
        <ele>296.2</ele>
        <time>2024-05-01T11:21:04Z</time>
      </trkpt>
      <trkpt lat="45.85116" lon="3.4818">
        <ele>296.2</ele>
        <time>2024-05-01T11:21:05Z</time>
      </trkpt>
      <trkpt lat="45.8511" lon="3.48188">
        <ele>296.2</ele>
        <time>2024-05-01T11:21:06Z</time>
      </trkpt>
      <trkpt lat="45.85104" lon="3.48196">
        <ele>296.2</ele>
        <time>2024-05-01T11:21:07Z</time>
      </trkpt>
      <trkpt lat="45.85098" lon="3.48204">
        <ele>296.2</ele>
        <time>2024-05-01T11:21:08Z</time>
      </trkpt>
      <trkpt lat="45.85092" lon="3.48213">
        <ele>296.2</ele>
        <time>2024-05-01T11:21:09Z</time>
      </trkpt>
      <trkpt lat="45.85086" lon="3.48221">
        <ele>296.2</ele>
        <time>2024-05-01T11:21:10Z</time>
      </trkpt>
      <trkpt lat="45.8508" lon="3.48229">
        <ele>296.2</ele>
        <time>2024-05-01T11:21:11Z</time>
      </trkpt>
      <trkpt lat="45.85074" lon="3.48237">
        <ele>296.4</ele>
        <time>2024-05-01T11:21:12Z</time>
      </trkpt>
      <trkpt lat="45.85069" lon="3.48244">
        <ele>296.4</ele>
        <time>2024-05-01T11:21:13Z</time>
      </trkpt>
      <trkpt lat="45.85063" lon="3.48252">
        <ele>296.4</ele>
        <time>2024-05-01T11:21:14Z</time>
      </trkpt>
      <trkpt lat="45.85057" lon="3.4826">
        <ele>296.4</ele>
        <time>2024-05-01T11:21:15Z</time>
      </trkpt>
      <trkpt lat="45.85052" lon="3.48267">
        <ele>296.4</ele>
        <time>2024-05-01T11:21:16Z</time>
      </trkpt>
      <trkpt lat="45.85046" lon="3.48275">
        <ele>296</ele>
        <time>2024-05-01T11:21:17Z</time>
      </trkpt>
      <trkpt lat="45.85041" lon="3.48282">
        <ele>296.2</ele>
        <time>2024-05-01T11:21:18Z</time>
      </trkpt>
      <trkpt lat="45.85035" lon="3.48289">
        <ele>296.2</ele>
        <time>2024-05-01T11:21:19Z</time>
      </trkpt>
      <trkpt lat="45.8503" lon="3.48297">
        <ele>296.4</ele>
        <time>2024-05-01T11:21:20Z</time>
      </trkpt>
      <trkpt lat="45.85025" lon="3.48304">
        <ele>296.8</ele>
        <time>2024-05-01T11:21:21Z</time>
      </trkpt>
      <trkpt lat="45.85019" lon="3.48311">
        <ele>297</ele>
        <time>2024-05-01T11:21:22Z</time>
      </trkpt>
      <trkpt lat="45.85014" lon="3.48318">
        <ele>297</ele>
        <time>2024-05-01T11:21:23Z</time>
      </trkpt>
      <trkpt lat="45.85009" lon="3.48325">
        <ele>296.6</ele>
        <time>2024-05-01T11:21:24Z</time>
      </trkpt>
      <trkpt lat="45.85004" lon="3.48331">
        <ele>296.6</ele>
        <time>2024-05-01T11:21:25Z</time>
      </trkpt>
      <trkpt lat="45.84999" lon="3.48338">
        <ele>296.6</ele>
        <time>2024-05-01T11:21:26Z</time>
      </trkpt>
      <trkpt lat="45.84994" lon="3.48345">
        <ele>296.8</ele>
        <time>2024-05-01T11:21:27Z</time>
      </trkpt>
      <trkpt lat="45.84988" lon="3.48352">
        <ele>296.8</ele>
        <time>2024-05-01T11:21:28Z</time>
      </trkpt>
      <trkpt lat="45.84984" lon="3.48359">
        <ele>296.8</ele>
        <time>2024-05-01T11:21:29Z</time>
      </trkpt>
      <trkpt lat="45.84979" lon="3.48365">
        <ele>296.8</ele>
        <time>2024-05-01T11:21:30Z</time>
      </trkpt>
      <trkpt lat="45.84974" lon="3.48372">
        <ele>296.8</ele>
        <time>2024-05-01T11:21:31Z</time>
      </trkpt>
      <trkpt lat="45.84969" lon="3.48378">
        <ele>296.8</ele>
        <time>2024-05-01T11:21:32Z</time>
      </trkpt>
      <trkpt lat="45.84964" lon="3.48384">
        <ele>297</ele>
        <time>2024-05-01T11:21:33Z</time>
      </trkpt>
      <trkpt lat="45.8496" lon="3.48391">
        <ele>297</ele>
        <time>2024-05-01T11:21:34Z</time>
      </trkpt>
      <trkpt lat="45.84955" lon="3.48397">
        <ele>297</ele>
        <time>2024-05-01T11:21:35Z</time>
      </trkpt>
      <trkpt lat="45.84946" lon="3.48409">
        <ele>297</ele>
        <time>2024-05-01T11:21:36Z</time>
      </trkpt>
      <trkpt lat="45.84946" lon="3.48409">
        <ele>297</ele>
        <time>2024-05-01T11:21:37Z</time>
      </trkpt>
      <trkpt lat="45.84942" lon="3.48415">
        <ele>297.2</ele>
        <time>2024-05-01T11:21:38Z</time>
      </trkpt>
      <trkpt lat="45.84937" lon="3.48421">
        <ele>297.2</ele>
        <time>2024-05-01T11:21:39Z</time>
      </trkpt>
      <trkpt lat="45.84933" lon="3.48427">
        <ele>297.2</ele>
        <time>2024-05-01T11:21:40Z</time>
      </trkpt>
      <trkpt lat="45.84928" lon="3.48433">
        <ele>297.2</ele>
        <time>2024-05-01T11:21:41Z</time>
      </trkpt>
      <trkpt lat="45.84923" lon="3.4844">
        <ele>297.4</ele>
        <time>2024-05-01T11:21:42Z</time>
      </trkpt>
      <trkpt lat="45.84919" lon="3.48446">
        <ele>297.4</ele>
        <time>2024-05-01T11:21:43Z</time>
      </trkpt>
      <trkpt lat="45.84914" lon="3.48453">
        <ele>297.4</ele>
        <time>2024-05-01T11:21:44Z</time>
      </trkpt>
      <trkpt lat="45.84909" lon="3.48459">
        <ele>297.4</ele>
        <time>2024-05-01T11:21:45Z</time>
      </trkpt>
      <trkpt lat="45.84904" lon="3.48466">
        <ele>297.4</ele>
        <time>2024-05-01T11:21:46Z</time>
      </trkpt>
      <trkpt lat="45.84898" lon="3.48474">
        <ele>297.6</ele>
        <time>2024-05-01T11:21:47Z</time>
      </trkpt>
      <trkpt lat="45.84893" lon="3.48481">
        <ele>297.6</ele>
        <time>2024-05-01T11:21:48Z</time>
      </trkpt>
      <trkpt lat="45.84888" lon="3.48488">
        <ele>297.6</ele>
        <time>2024-05-01T11:21:49Z</time>
      </trkpt>
      <trkpt lat="45.84882" lon="3.48495">
        <ele>297.8</ele>
        <time>2024-05-01T11:21:50Z</time>
      </trkpt>
      <trkpt lat="45.84877" lon="3.48502">
        <ele>297.8</ele>
        <time>2024-05-01T11:21:51Z</time>
      </trkpt>
      <trkpt lat="45.84872" lon="3.48509">
        <ele>297.8</ele>
        <time>2024-05-01T11:21:52Z</time>
      </trkpt>
      <trkpt lat="45.84867" lon="3.48516">
        <ele>297.8</ele>
        <time>2024-05-01T11:21:53Z</time>
      </trkpt>
      <trkpt lat="45.84862" lon="3.48523">
        <ele>298</ele>
        <time>2024-05-01T11:21:54Z</time>
      </trkpt>
      <trkpt lat="45.84857" lon="3.4853">
        <ele>298</ele>
        <time>2024-05-01T11:21:55Z</time>
      </trkpt>
      <trkpt lat="45.84851" lon="3.48536">
        <ele>298</ele>
        <time>2024-05-01T11:21:56Z</time>
      </trkpt>
      <trkpt lat="45.84846" lon="3.48543">
        <ele>298</ele>
        <time>2024-05-01T11:21:57Z</time>
      </trkpt>
      <trkpt lat="45.84841" lon="3.4855">
        <ele>298</ele>
        <time>2024-05-01T11:21:58Z</time>
      </trkpt>
      <trkpt lat="45.84836" lon="3.48557">
        <ele>298.2</ele>
        <time>2024-05-01T11:21:59Z</time>
      </trkpt>
      <trkpt lat="45.84832" lon="3.48563">
        <ele>298.2</ele>
        <time>2024-05-01T11:22:00Z</time>
      </trkpt>
      <trkpt lat="45.84827" lon="3.4857">
        <ele>298.2</ele>
        <time>2024-05-01T11:22:01Z</time>
      </trkpt>
      <trkpt lat="45.84822" lon="3.48576">
        <ele>298.2</ele>
        <time>2024-05-01T11:22:02Z</time>
      </trkpt>
      <trkpt lat="45.84817" lon="3.48582">
        <ele>298.2</ele>
        <time>2024-05-01T11:22:03Z</time>
      </trkpt>
      <trkpt lat="45.84813" lon="3.48588">
        <ele>298.4</ele>
        <time>2024-05-01T11:22:04Z</time>
      </trkpt>
      <trkpt lat="45.84808" lon="3.48595">
        <ele>298.4</ele>
        <time>2024-05-01T11:22:05Z</time>
      </trkpt>
      <trkpt lat="45.84804" lon="3.48601">
        <ele>298.4</ele>
        <time>2024-05-01T11:22:06Z</time>
      </trkpt>
      <trkpt lat="45.84799" lon="3.48607">
        <ele>298.4</ele>
        <time>2024-05-01T11:22:07Z</time>
      </trkpt>
      <trkpt lat="45.84795" lon="3.48613">
        <ele>298.4</ele>
        <time>2024-05-01T11:22:08Z</time>
      </trkpt>
      <trkpt lat="45.8479" lon="3.48619">
        <ele>298.4</ele>
        <time>2024-05-01T11:22:09Z</time>
      </trkpt>
      <trkpt lat="45.84786" lon="3.48625">
        <ele>298.4</ele>
        <time>2024-05-01T11:22:10Z</time>
      </trkpt>
      <trkpt lat="45.84781" lon="3.48631">
        <ele>298.4</ele>
        <time>2024-05-01T11:22:11Z</time>
      </trkpt>
      <trkpt lat="45.84777" lon="3.48637">
        <ele>298.4</ele>
        <time>2024-05-01T11:22:12Z</time>
      </trkpt>
      <trkpt lat="45.84772" lon="3.48644">
        <ele>298.6</ele>
        <time>2024-05-01T11:22:13Z</time>
      </trkpt>
      <trkpt lat="45.84767" lon="3.4865">
        <ele>298.6</ele>
        <time>2024-05-01T11:22:14Z</time>
      </trkpt>
      <trkpt lat="45.84763" lon="3.48656">
        <ele>298.6</ele>
        <time>2024-05-01T11:22:15Z</time>
      </trkpt>
      <trkpt lat="45.84758" lon="3.48662">
        <ele>298.6</ele>
        <time>2024-05-01T11:22:16Z</time>
      </trkpt>
      <trkpt lat="45.84753" lon="3.48668">
        <ele>298.8</ele>
        <time>2024-05-01T11:22:17Z</time>
      </trkpt>
      <trkpt lat="45.84749" lon="3.48674">
        <ele>298.8</ele>
        <time>2024-05-01T11:22:18Z</time>
      </trkpt>
      <trkpt lat="45.84744" lon="3.4868">
        <ele>298.8</ele>
        <time>2024-05-01T11:22:19Z</time>
      </trkpt>
      <trkpt lat="45.8474" lon="3.48687">
        <ele>299</ele>
        <time>2024-05-01T11:22:20Z</time>
      </trkpt>
      <trkpt lat="45.84735" lon="3.48693">
        <ele>299</ele>
        <time>2024-05-01T11:22:21Z</time>
      </trkpt>
      <trkpt lat="45.84731" lon="3.48699">
        <ele>299.2</ele>
        <time>2024-05-01T11:22:22Z</time>
      </trkpt>
      <trkpt lat="45.84726" lon="3.48705">
        <ele>299.2</ele>
        <time>2024-05-01T11:22:23Z</time>
      </trkpt>
      <trkpt lat="45.84722" lon="3.48711">
        <ele>299.4</ele>
        <time>2024-05-01T11:22:24Z</time>
      </trkpt>
      <trkpt lat="45.84717" lon="3.48717">
        <ele>299.4</ele>
        <time>2024-05-01T11:22:25Z</time>
      </trkpt>
      <trkpt lat="45.84713" lon="3.48724">
        <ele>299.4</ele>
        <time>2024-05-01T11:22:26Z</time>
      </trkpt>
      <trkpt lat="45.84708" lon="3.4873">
        <ele>299.6</ele>
        <time>2024-05-01T11:22:27Z</time>
      </trkpt>
      <trkpt lat="45.84704" lon="3.48737">
        <ele>299.6</ele>
        <time>2024-05-01T11:22:28Z</time>
      </trkpt>
      <trkpt lat="45.84699" lon="3.48744">
        <ele>299.8</ele>
        <time>2024-05-01T11:22:29Z</time>
      </trkpt>
      <trkpt lat="45.84694" lon="3.4875">
        <ele>299.8</ele>
        <time>2024-05-01T11:22:30Z</time>
      </trkpt>
      <trkpt lat="45.8469" lon="3.48757">
        <ele>299.8</ele>
        <time>2024-05-01T11:22:31Z</time>
      </trkpt>
      <trkpt lat="45.84685" lon="3.48764">
        <ele>300</ele>
        <time>2024-05-01T11:22:32Z</time>
      </trkpt>
      <trkpt lat="45.84681" lon="3.4877">
        <ele>300</ele>
        <time>2024-05-01T11:22:33Z</time>
      </trkpt>
      <trkpt lat="45.84676" lon="3.48776">
        <ele>300</ele>
        <time>2024-05-01T11:22:34Z</time>
      </trkpt>
      <trkpt lat="45.84672" lon="3.48783">
        <ele>300</ele>
        <time>2024-05-01T11:22:35Z</time>
      </trkpt>
      <trkpt lat="45.84667" lon="3.48789">
        <ele>300.2</ele>
        <time>2024-05-01T11:22:36Z</time>
      </trkpt>
      <trkpt lat="45.84663" lon="3.48796">
        <ele>300.2</ele>
        <time>2024-05-01T11:22:37Z</time>
      </trkpt>
      <trkpt lat="45.84658" lon="3.48802">
        <ele>300.4</ele>
        <time>2024-05-01T11:22:38Z</time>
      </trkpt>
      <trkpt lat="45.84654" lon="3.48808">
        <ele>300.4</ele>
        <time>2024-05-01T11:22:39Z</time>
      </trkpt>
      <trkpt lat="45.8465" lon="3.48814">
        <ele>300.4</ele>
        <time>2024-05-01T11:22:40Z</time>
      </trkpt>
      <trkpt lat="45.84645" lon="3.48821">
        <ele>300.6</ele>
        <time>2024-05-01T11:22:41Z</time>
      </trkpt>
      <trkpt lat="45.84641" lon="3.48827">
        <ele>300.6</ele>
        <time>2024-05-01T11:22:42Z</time>
      </trkpt>
      <trkpt lat="45.84637" lon="3.48833">
        <ele>300.6</ele>
        <time>2024-05-01T11:22:43Z</time>
      </trkpt>
      <trkpt lat="45.84632" lon="3.48839">
        <ele>300.6</ele>
        <time>2024-05-01T11:22:44Z</time>
      </trkpt>
      <trkpt lat="45.84628" lon="3.48846">
        <ele>300.6</ele>
        <time>2024-05-01T11:22:45Z</time>
      </trkpt>
      <trkpt lat="45.84623" lon="3.48852">
        <ele>300.8</ele>
        <time>2024-05-01T11:22:46Z</time>
      </trkpt>
      <trkpt lat="45.84619" lon="3.48858">
        <ele>300.8</ele>
        <time>2024-05-01T11:22:47Z</time>
      </trkpt>
      <trkpt lat="45.84615" lon="3.48864">
        <ele>300.6</ele>
        <time>2024-05-01T11:22:48Z</time>
      </trkpt>
      <trkpt lat="45.84609" lon="3.48868">
        <ele>300.6</ele>
        <time>2024-05-01T11:22:49Z</time>
      </trkpt>
      <trkpt lat="45.84604" lon="3.48872">
        <ele>300.8</ele>
        <time>2024-05-01T11:22:50Z</time>
      </trkpt>
      <trkpt lat="45.84598" lon="3.48875">
        <ele>300.8</ele>
        <time>2024-05-01T11:22:51Z</time>
      </trkpt>
      <trkpt lat="45.84593" lon="3.48879">
        <ele>300.8</ele>
        <time>2024-05-01T11:22:52Z</time>
      </trkpt>
      <trkpt lat="45.84588" lon="3.48882">
        <ele>300.8</ele>
        <time>2024-05-01T11:22:53Z</time>
      </trkpt>
      <trkpt lat="45.84583" lon="3.48886">
        <ele>300.8</ele>
        <time>2024-05-01T11:22:54Z</time>
      </trkpt>
      <trkpt lat="45.84578" lon="3.48889">
        <ele>300.8</ele>
        <time>2024-05-01T11:22:55Z</time>
      </trkpt>
      <trkpt lat="45.84573" lon="3.48892">
        <ele>300.8</ele>
        <time>2024-05-01T11:22:56Z</time>
      </trkpt>
      <trkpt lat="45.84568" lon="3.48895">
        <ele>300.6</ele>
        <time>2024-05-01T11:22:57Z</time>
      </trkpt>
      <trkpt lat="45.84563" lon="3.48899">
        <ele>300.6</ele>
        <time>2024-05-01T11:22:58Z</time>
      </trkpt>
      <trkpt lat="45.84558" lon="3.48902">
        <ele>300.8</ele>
        <time>2024-05-01T11:22:59Z</time>
      </trkpt>
      <trkpt lat="45.84552" lon="3.48906">
        <ele>300.6</ele>
        <time>2024-05-01T11:23:00Z</time>
      </trkpt>
      <trkpt lat="45.84547" lon="3.48909">
        <ele>300.8</ele>
        <time>2024-05-01T11:23:01Z</time>
      </trkpt>
      <trkpt lat="45.84541" lon="3.48912">
        <ele>300.8</ele>
        <time>2024-05-01T11:23:02Z</time>
      </trkpt>
      <trkpt lat="45.84535" lon="3.48913">
        <ele>300.8</ele>
        <time>2024-05-01T11:23:03Z</time>
      </trkpt>
      <trkpt lat="45.84529" lon="3.48915">
        <ele>300.8</ele>
        <time>2024-05-01T11:23:04Z</time>
      </trkpt>
      <trkpt lat="45.84524" lon="3.48916">
        <ele>300.8</ele>
        <time>2024-05-01T11:23:05Z</time>
      </trkpt>
      <trkpt lat="45.84518" lon="3.48918">
        <ele>300.8</ele>
        <time>2024-05-01T11:23:06Z</time>
      </trkpt>
      <trkpt lat="45.84512" lon="3.4892">
        <ele>300.8</ele>
        <time>2024-05-01T11:23:07Z</time>
      </trkpt>
      <trkpt lat="45.84507" lon="3.48921">
        <ele>300.8</ele>
        <time>2024-05-01T11:23:08Z</time>
      </trkpt>
      <trkpt lat="45.84501" lon="3.48923">
        <ele>300.8</ele>
        <time>2024-05-01T11:23:09Z</time>
      </trkpt>
      <trkpt lat="45.84495" lon="3.48925">
        <ele>300.8</ele>
        <time>2024-05-01T11:23:10Z</time>
      </trkpt>
      <trkpt lat="45.84489" lon="3.48926">
        <ele>300.8</ele>
        <time>2024-05-01T11:23:11Z</time>
      </trkpt>
      <trkpt lat="45.84483" lon="3.48928">
        <ele>300.8</ele>
        <time>2024-05-01T11:23:12Z</time>
      </trkpt>
      <trkpt lat="45.84477" lon="3.4893">
        <ele>300.8</ele>
        <time>2024-05-01T11:23:13Z</time>
      </trkpt>
      <trkpt lat="45.84471" lon="3.48931">
        <ele>301</ele>
        <time>2024-05-01T11:23:14Z</time>
      </trkpt>
      <trkpt lat="45.84465" lon="3.48933">
        <ele>300.8</ele>
        <time>2024-05-01T11:23:15Z</time>
      </trkpt>
      <trkpt lat="45.84459" lon="3.48935">
        <ele>300.8</ele>
        <time>2024-05-01T11:23:16Z</time>
      </trkpt>
      <trkpt lat="45.84453" lon="3.48938">
        <ele>300.8</ele>
        <time>2024-05-01T11:23:17Z</time>
      </trkpt>
      <trkpt lat="45.84448" lon="3.48941">
        <ele>300.8</ele>
        <time>2024-05-01T11:23:18Z</time>
      </trkpt>
      <trkpt lat="45.84442" lon="3.48944">
        <ele>300.8</ele>
        <time>2024-05-01T11:23:19Z</time>
      </trkpt>
      <trkpt lat="45.84437" lon="3.48946">
        <ele>300.8</ele>
        <time>2024-05-01T11:23:20Z</time>
      </trkpt>
      <trkpt lat="45.84431" lon="3.48951">
        <ele>301</ele>
        <time>2024-05-01T11:23:21Z</time>
      </trkpt>
      <trkpt lat="45.84428" lon="3.48958">
        <ele>300.8</ele>
        <time>2024-05-01T11:23:22Z</time>
      </trkpt>
      <trkpt lat="45.84425" lon="3.48966">
        <ele>300.8</ele>
        <time>2024-05-01T11:23:23Z</time>
      </trkpt>
      <trkpt lat="45.84422" lon="3.48974">
        <ele>300.8</ele>
        <time>2024-05-01T11:23:24Z</time>
      </trkpt>
      <trkpt lat="45.84419" lon="3.48981">
        <ele>300.8</ele>
        <time>2024-05-01T11:23:25Z</time>
      </trkpt>
      <trkpt lat="45.84416" lon="3.48989">
        <ele>300.8</ele>
        <time>2024-05-01T11:23:26Z</time>
      </trkpt>
      <trkpt lat="45.84415" lon="3.48998">
        <ele>300.6</ele>
        <time>2024-05-01T11:23:27Z</time>
      </trkpt>
      <trkpt lat="45.84415" lon="3.49006">
        <ele>300.6</ele>
        <time>2024-05-01T11:23:28Z</time>
      </trkpt>
      <trkpt lat="45.84415" lon="3.49016">
        <ele>300.6</ele>
        <time>2024-05-01T11:23:29Z</time>
      </trkpt>
      <trkpt lat="45.84415" lon="3.49025">
        <ele>300.4</ele>
        <time>2024-05-01T11:23:30Z</time>
      </trkpt>
      <trkpt lat="45.84416" lon="3.49035">
        <ele>300.4</ele>
        <time>2024-05-01T11:23:31Z</time>
      </trkpt>
      <trkpt lat="45.84416" lon="3.49044">
        <ele>300.2</ele>
        <time>2024-05-01T11:23:32Z</time>
      </trkpt>
      <trkpt lat="45.84416" lon="3.49054">
        <ele>300.2</ele>
        <time>2024-05-01T11:23:33Z</time>
      </trkpt>
      <trkpt lat="45.84416" lon="3.49064">
        <ele>300.2</ele>
        <time>2024-05-01T11:23:34Z</time>
      </trkpt>
      <trkpt lat="45.84417" lon="3.49073">
        <ele>300.2</ele>
        <time>2024-05-01T11:23:35Z</time>
      </trkpt>
      <trkpt lat="45.84417" lon="3.49082">
        <ele>300.2</ele>
        <time>2024-05-01T11:23:36Z</time>
      </trkpt>
      <trkpt lat="45.84417" lon="3.49091">
        <ele>300.2</ele>
        <time>2024-05-01T11:23:37Z</time>
      </trkpt>
      <trkpt lat="45.84417" lon="3.49101">
        <ele>300.4</ele>
        <time>2024-05-01T11:23:38Z</time>
      </trkpt>
      <trkpt lat="45.84415" lon="3.49109">
        <ele>300.4</ele>
        <time>2024-05-01T11:23:39Z</time>
      </trkpt>
      <trkpt lat="45.84413" lon="3.49118">
        <ele>300.4</ele>
        <time>2024-05-01T11:23:40Z</time>
      </trkpt>
      <trkpt lat="45.84411" lon="3.49127">
        <ele>300.4</ele>
        <time>2024-05-01T11:23:41Z</time>
      </trkpt>
      <trkpt lat="45.84409" lon="3.49135">
        <ele>300.4</ele>
        <time>2024-05-01T11:23:42Z</time>
      </trkpt>
      <trkpt lat="45.84405" lon="3.49142">
        <ele>300.4</ele>
        <time>2024-05-01T11:23:43Z</time>
      </trkpt>
      <trkpt lat="45.844" lon="3.49149">
        <ele>300.4</ele>
        <time>2024-05-01T11:23:44Z</time>
      </trkpt>
      <trkpt lat="45.84396" lon="3.49156">
        <ele>300.4</ele>
        <time>2024-05-01T11:23:45Z</time>
      </trkpt>
      <trkpt lat="45.84391" lon="3.49162">
        <ele>300.4</ele>
        <time>2024-05-01T11:23:46Z</time>
      </trkpt>
      <trkpt lat="45.84386" lon="3.49169">
        <ele>300.2</ele>
        <time>2024-05-01T11:23:47Z</time>
      </trkpt>
      <trkpt lat="45.84381" lon="3.49176">
        <ele>300.6</ele>
        <time>2024-05-01T11:23:48Z</time>
      </trkpt>
      <trkpt lat="45.84377" lon="3.49182">
        <ele>301</ele>
        <time>2024-05-01T11:23:49Z</time>
      </trkpt>
      <trkpt lat="45.84372" lon="3.49189">
        <ele>300.8</ele>
        <time>2024-05-01T11:23:50Z</time>
      </trkpt>
      <trkpt lat="45.84367" lon="3.49196">
        <ele>300.8</ele>
        <time>2024-05-01T11:23:51Z</time>
      </trkpt>
      <trkpt lat="45.84362" lon="3.49202">
        <ele>300.8</ele>
        <time>2024-05-01T11:23:52Z</time>
      </trkpt>
      <trkpt lat="45.84357" lon="3.49209">
        <ele>300.8</ele>
        <time>2024-05-01T11:23:53Z</time>
      </trkpt>
      <trkpt lat="45.84352" lon="3.49216">
        <ele>300.8</ele>
        <time>2024-05-01T11:23:54Z</time>
      </trkpt>
      <trkpt lat="45.84347" lon="3.49223">
        <ele>300.8</ele>
        <time>2024-05-01T11:23:55Z</time>
      </trkpt>
      <trkpt lat="45.84342" lon="3.4923">
        <ele>300.8</ele>
        <time>2024-05-01T11:23:56Z</time>
      </trkpt>
      <trkpt lat="45.84337" lon="3.49237">
        <ele>301</ele>
        <time>2024-05-01T11:23:57Z</time>
      </trkpt>
      <trkpt lat="45.84332" lon="3.49244">
        <ele>301</ele>
        <time>2024-05-01T11:23:58Z</time>
      </trkpt>
      <trkpt lat="45.84327" lon="3.49251">
        <ele>301</ele>
        <time>2024-05-01T11:23:59Z</time>
      </trkpt>
      <trkpt lat="45.84322" lon="3.49258">
        <ele>301</ele>
        <time>2024-05-01T11:24:00Z</time>
      </trkpt>
      <trkpt lat="45.84316" lon="3.49265">
        <ele>301</ele>
        <time>2024-05-01T11:24:01Z</time>
      </trkpt>
      <trkpt lat="45.84311" lon="3.49272">
        <ele>301</ele>
        <time>2024-05-01T11:24:02Z</time>
      </trkpt>
      <trkpt lat="45.84307" lon="3.49278">
        <ele>301.2</ele>
        <time>2024-05-01T11:24:03Z</time>
      </trkpt>
      <trkpt lat="45.84302" lon="3.49285">
        <ele>301.2</ele>
        <time>2024-05-01T11:24:04Z</time>
      </trkpt>
      <trkpt lat="45.84297" lon="3.49292">
        <ele>301.2</ele>
        <time>2024-05-01T11:24:05Z</time>
      </trkpt>
      <trkpt lat="45.84292" lon="3.49299">
        <ele>301.2</ele>
        <time>2024-05-01T11:24:06Z</time>
      </trkpt>
      <trkpt lat="45.84287" lon="3.49306">
        <ele>301.4</ele>
        <time>2024-05-01T11:24:07Z</time>
      </trkpt>
      <trkpt lat="45.84282" lon="3.49312">
        <ele>301.4</ele>
        <time>2024-05-01T11:24:08Z</time>
      </trkpt>
      <trkpt lat="45.84278" lon="3.49318">
        <ele>301.4</ele>
        <time>2024-05-01T11:24:09Z</time>
      </trkpt>
      <trkpt lat="45.84273" lon="3.49325">
        <ele>301.4</ele>
        <time>2024-05-01T11:24:10Z</time>
      </trkpt>
      <trkpt lat="45.84268" lon="3.49331">
        <ele>301.4</ele>
        <time>2024-05-01T11:24:11Z</time>
      </trkpt>
      <trkpt lat="45.84263" lon="3.49338">
        <ele>301.6</ele>
        <time>2024-05-01T11:24:12Z</time>
      </trkpt>
      <trkpt lat="45.84258" lon="3.49345">
        <ele>301.8</ele>
        <time>2024-05-01T11:24:13Z</time>
      </trkpt>
      <trkpt lat="45.84254" lon="3.49352">
        <ele>301.8</ele>
        <time>2024-05-01T11:24:14Z</time>
      </trkpt>
      <trkpt lat="45.84249" lon="3.49358">
        <ele>301.8</ele>
        <time>2024-05-01T11:24:15Z</time>
      </trkpt>
      <trkpt lat="45.84244" lon="3.49365">
        <ele>302</ele>
        <time>2024-05-01T11:24:16Z</time>
      </trkpt>
      <trkpt lat="45.84239" lon="3.49372">
        <ele>302</ele>
        <time>2024-05-01T11:24:17Z</time>
      </trkpt>
      <trkpt lat="45.84234" lon="3.49378">
        <ele>302</ele>
        <time>2024-05-01T11:24:18Z</time>
      </trkpt>
      <trkpt lat="45.84229" lon="3.49385">
        <ele>302</ele>
        <time>2024-05-01T11:24:19Z</time>
      </trkpt>
      <trkpt lat="45.84225" lon="3.49392">
        <ele>302</ele>
        <time>2024-05-01T11:24:20Z</time>
      </trkpt>
      <trkpt lat="45.8422" lon="3.49398">
        <ele>302</ele>
        <time>2024-05-01T11:24:21Z</time>
      </trkpt>
      <trkpt lat="45.84215" lon="3.49405">
        <ele>302.2</ele>
        <time>2024-05-01T11:24:22Z</time>
      </trkpt>
      <trkpt lat="45.8421" lon="3.49411">
        <ele>302.2</ele>
        <time>2024-05-01T11:24:23Z</time>
      </trkpt>
      <trkpt lat="45.84206" lon="3.49418">
        <ele>302.2</ele>
        <time>2024-05-01T11:24:24Z</time>
      </trkpt>
      <trkpt lat="45.84201" lon="3.49424">
        <ele>302.2</ele>
        <time>2024-05-01T11:24:25Z</time>
      </trkpt>
      <trkpt lat="45.84197" lon="3.49431">
        <ele>302.2</ele>
        <time>2024-05-01T11:24:26Z</time>
      </trkpt>
      <trkpt lat="45.84192" lon="3.49437">
        <ele>302.2</ele>
        <time>2024-05-01T11:24:27Z</time>
      </trkpt>
      <trkpt lat="45.84187" lon="3.49443">
        <ele>302.2</ele>
        <time>2024-05-01T11:24:28Z</time>
      </trkpt>
      <trkpt lat="45.84183" lon="3.4945">
        <ele>302.2</ele>
        <time>2024-05-01T11:24:29Z</time>
      </trkpt>
      <trkpt lat="45.84178" lon="3.49456">
        <ele>302.2</ele>
        <time>2024-05-01T11:24:30Z</time>
      </trkpt>
      <trkpt lat="45.84173" lon="3.49463">
        <ele>302.2</ele>
        <time>2024-05-01T11:24:31Z</time>
      </trkpt>
      <trkpt lat="45.84168" lon="3.4947">
        <ele>302.2</ele>
        <time>2024-05-01T11:24:32Z</time>
      </trkpt>
      <trkpt lat="45.84163" lon="3.49476">
        <ele>302.4</ele>
        <time>2024-05-01T11:24:33Z</time>
      </trkpt>
      <trkpt lat="45.84159" lon="3.49483">
        <ele>302.6</ele>
        <time>2024-05-01T11:24:34Z</time>
      </trkpt>
      <trkpt lat="45.84154" lon="3.4949">
        <ele>302.8</ele>
        <time>2024-05-01T11:24:35Z</time>
      </trkpt>
      <trkpt lat="45.84148" lon="3.49497">
        <ele>303</ele>
        <time>2024-05-01T11:24:36Z</time>
      </trkpt>
      <trkpt lat="45.84143" lon="3.49504">
        <ele>303</ele>
        <time>2024-05-01T11:24:37Z</time>
      </trkpt>
      <trkpt lat="45.84138" lon="3.49512">
        <ele>303</ele>
        <time>2024-05-01T11:24:38Z</time>
      </trkpt>
      <trkpt lat="45.84132" lon="3.49519">
        <ele>303</ele>
        <time>2024-05-01T11:24:39Z</time>
      </trkpt>
      <trkpt lat="45.84127" lon="3.49526">
        <ele>303.2</ele>
        <time>2024-05-01T11:24:40Z</time>
      </trkpt>
      <trkpt lat="45.84122" lon="3.49533">
        <ele>303.2</ele>
        <time>2024-05-01T11:24:41Z</time>
      </trkpt>
      <trkpt lat="45.84117" lon="3.49539">
        <ele>303.2</ele>
        <time>2024-05-01T11:24:42Z</time>
      </trkpt>
      <trkpt lat="45.84112" lon="3.49546">
        <ele>303.4</ele>
        <time>2024-05-01T11:24:43Z</time>
      </trkpt>
      <trkpt lat="45.84106" lon="3.49553">
        <ele>303.4</ele>
        <time>2024-05-01T11:24:44Z</time>
      </trkpt>
      <trkpt lat="45.84101" lon="3.4956">
        <ele>303.6</ele>
        <time>2024-05-01T11:24:45Z</time>
      </trkpt>
      <trkpt lat="45.84096" lon="3.49567">
        <ele>303.6</ele>
        <time>2024-05-01T11:24:46Z</time>
      </trkpt>
      <trkpt lat="45.84091" lon="3.49574">
        <ele>303.8</ele>
        <time>2024-05-01T11:24:47Z</time>
      </trkpt>
      <trkpt lat="45.84086" lon="3.49581">
        <ele>303.8</ele>
        <time>2024-05-01T11:24:48Z</time>
      </trkpt>
      <trkpt lat="45.84081" lon="3.49588">
        <ele>303.8</ele>
        <time>2024-05-01T11:24:49Z</time>
      </trkpt>
      <trkpt lat="45.84076" lon="3.49595">
        <ele>304</ele>
        <time>2024-05-01T11:24:50Z</time>
      </trkpt>
      <trkpt lat="45.8407" lon="3.49602">
        <ele>304</ele>
        <time>2024-05-01T11:24:51Z</time>
      </trkpt>
      <trkpt lat="45.84065" lon="3.49609">
        <ele>304</ele>
        <time>2024-05-01T11:24:52Z</time>
      </trkpt>
      <trkpt lat="45.8406" lon="3.49616">
        <ele>304</ele>
        <time>2024-05-01T11:24:53Z</time>
      </trkpt>
      <trkpt lat="45.84055" lon="3.49623">
        <ele>304</ele>
        <time>2024-05-01T11:24:54Z</time>
      </trkpt>
      <trkpt lat="45.8405" lon="3.4963">
        <ele>304</ele>
        <time>2024-05-01T11:24:55Z</time>
      </trkpt>
      <trkpt lat="45.84045" lon="3.49637">
        <ele>304</ele>
        <time>2024-05-01T11:24:56Z</time>
      </trkpt>
      <trkpt lat="45.8404" lon="3.49643">
        <ele>304</ele>
        <time>2024-05-01T11:24:57Z</time>
      </trkpt>
      <trkpt lat="45.84035" lon="3.4965">
        <ele>303.8</ele>
        <time>2024-05-01T11:24:58Z</time>
      </trkpt>
      <trkpt lat="45.8403" lon="3.49657">
        <ele>303.8</ele>
        <time>2024-05-01T11:24:59Z</time>
      </trkpt>
      <trkpt lat="45.84025" lon="3.49664">
        <ele>303.6</ele>
        <time>2024-05-01T11:25:00Z</time>
      </trkpt>
      <trkpt lat="45.8402" lon="3.4967">
        <ele>303.6</ele>
        <time>2024-05-01T11:25:01Z</time>
      </trkpt>
      <trkpt lat="45.84015" lon="3.49677">
        <ele>304.4</ele>
        <time>2024-05-01T11:25:02Z</time>
      </trkpt>
      <trkpt lat="45.8401" lon="3.49682">
        <ele>304</ele>
        <time>2024-05-01T11:25:03Z</time>
      </trkpt>
      <trkpt lat="45.84005" lon="3.49689">
        <ele>303.2</ele>
        <time>2024-05-01T11:25:04Z</time>
      </trkpt>
      <trkpt lat="45.84" lon="3.49696">
        <ele>302.6</ele>
        <time>2024-05-01T11:25:05Z</time>
      </trkpt>
      <trkpt lat="45.83996" lon="3.49703">
        <ele>302.4</ele>
        <time>2024-05-01T11:25:06Z</time>
      </trkpt>
      <trkpt lat="45.83991" lon="3.49709">
        <ele>303.2</ele>
        <time>2024-05-01T11:25:07Z</time>
      </trkpt>
      <trkpt lat="45.83986" lon="3.49716">
        <ele>303.2</ele>
        <time>2024-05-01T11:25:08Z</time>
      </trkpt>
      <trkpt lat="45.83982" lon="3.49722">
        <ele>303</ele>
        <time>2024-05-01T11:25:09Z</time>
      </trkpt>
      <trkpt lat="45.83977" lon="3.49728">
        <ele>303.2</ele>
        <time>2024-05-01T11:25:10Z</time>
      </trkpt>
      <trkpt lat="45.83973" lon="3.49735">
        <ele>303</ele>
        <time>2024-05-01T11:25:11Z</time>
      </trkpt>
      <trkpt lat="45.83968" lon="3.49741">
        <ele>303</ele>
        <time>2024-05-01T11:25:12Z</time>
      </trkpt>
      <trkpt lat="45.83963" lon="3.49748">
        <ele>303</ele>
        <time>2024-05-01T11:25:13Z</time>
      </trkpt>
      <trkpt lat="45.83958" lon="3.49754">
        <ele>303</ele>
        <time>2024-05-01T11:25:14Z</time>
      </trkpt>
      <trkpt lat="45.83954" lon="3.4976">
        <ele>302.8</ele>
        <time>2024-05-01T11:25:15Z</time>
      </trkpt>
      <trkpt lat="45.83949" lon="3.49766">
        <ele>302.8</ele>
        <time>2024-05-01T11:25:16Z</time>
      </trkpt>
      <trkpt lat="45.83945" lon="3.49773">
        <ele>302.8</ele>
        <time>2024-05-01T11:25:17Z</time>
      </trkpt>
      <trkpt lat="45.8394" lon="3.49779">
        <ele>302.6</ele>
        <time>2024-05-01T11:25:18Z</time>
      </trkpt>
      <trkpt lat="45.83935" lon="3.49786">
        <ele>302.6</ele>
        <time>2024-05-01T11:25:19Z</time>
      </trkpt>
      <trkpt lat="45.8393" lon="3.49793">
        <ele>302.6</ele>
        <time>2024-05-01T11:25:20Z</time>
      </trkpt>
      <trkpt lat="45.83925" lon="3.49799">
        <ele>302.6</ele>
        <time>2024-05-01T11:25:21Z</time>
      </trkpt>
      <trkpt lat="45.8392" lon="3.49807">
        <ele>302.6</ele>
        <time>2024-05-01T11:25:22Z</time>
      </trkpt>
      <trkpt lat="45.83915" lon="3.49813">
        <ele>302.4</ele>
        <time>2024-05-01T11:25:23Z</time>
      </trkpt>
      <trkpt lat="45.8391" lon="3.4982">
        <ele>302.4</ele>
        <time>2024-05-01T11:25:24Z</time>
      </trkpt>
      <trkpt lat="45.83905" lon="3.49826">
        <ele>302.4</ele>
        <time>2024-05-01T11:25:25Z</time>
      </trkpt>
      <trkpt lat="45.839" lon="3.49833">
        <ele>302.4</ele>
        <time>2024-05-01T11:25:26Z</time>
      </trkpt>
      <trkpt lat="45.83895" lon="3.49839">
        <ele>302.2</ele>
        <time>2024-05-01T11:25:27Z</time>
      </trkpt>
      <trkpt lat="45.83891" lon="3.49845">
        <ele>302.2</ele>
        <time>2024-05-01T11:25:28Z</time>
      </trkpt>
      <trkpt lat="45.83887" lon="3.4985">
        <ele>302.2</ele>
        <time>2024-05-01T11:25:29Z</time>
      </trkpt>
      <trkpt lat="45.83883" lon="3.49855">
        <ele>302.2</ele>
        <time>2024-05-01T11:25:30Z</time>
      </trkpt>
      <trkpt lat="45.8388" lon="3.49859">
        <ele>302</ele>
        <time>2024-05-01T11:25:31Z</time>
      </trkpt>
      <trkpt lat="45.83878" lon="3.49862">
        <ele>302</ele>
        <time>2024-05-01T11:25:32Z</time>
      </trkpt>
      <trkpt lat="45.83876" lon="3.49865">
        <ele>302</ele>
        <time>2024-05-01T11:25:33Z</time>
      </trkpt>
      <trkpt lat="45.83874" lon="3.49867">
        <ele>302</ele>
        <time>2024-05-01T11:25:34Z</time>
      </trkpt>
      <trkpt lat="45.83874" lon="3.49868">
        <ele>302</ele>
        <time>2024-05-01T11:25:35Z</time>
      </trkpt>
      <trkpt lat="45.83873" lon="3.49868">
        <ele>301.8</ele>
        <time>2024-05-01T11:25:36Z</time>
      </trkpt>
      <trkpt lat="45.83873" lon="3.49868">
        <ele>301.8</ele>
        <time>2024-05-01T11:25:37Z</time>
      </trkpt>
      <trkpt lat="45.83872" lon="3.49869">
        <ele>299.8</ele>
        <time>2024-05-01T11:27:51Z</time>
      </trkpt>
      <trkpt lat="45.83871" lon="3.49871">
        <ele>299.8</ele>
        <time>2024-05-01T11:27:52Z</time>
      </trkpt>
      <trkpt lat="45.8387" lon="3.49873">
        <ele>299.8</ele>
        <time>2024-05-01T11:27:53Z</time>
      </trkpt>
      <trkpt lat="45.83867" lon="3.49876">
        <ele>300</ele>
        <time>2024-05-01T11:27:54Z</time>
      </trkpt>
      <trkpt lat="45.83864" lon="3.4988">
        <ele>300</ele>
        <time>2024-05-01T11:27:55Z</time>
      </trkpt>
      <trkpt lat="45.83861" lon="3.49884">
        <ele>300</ele>
        <time>2024-05-01T11:27:56Z</time>
      </trkpt>
      <trkpt lat="45.83858" lon="3.49889">
        <ele>300</ele>
        <time>2024-05-01T11:27:57Z</time>
      </trkpt>
      <trkpt lat="45.83852" lon="3.49894">
        <ele>300</ele>
        <time>2024-05-01T11:27:58Z</time>
      </trkpt>
      <trkpt lat="45.83846" lon="3.49895">
        <ele>300.2</ele>
        <time>2024-05-01T11:27:59Z</time>
      </trkpt>
      <trkpt lat="45.8384" lon="3.49897">
        <ele>300</ele>
        <time>2024-05-01T11:28:00Z</time>
      </trkpt>
      <trkpt lat="45.83833" lon="3.49899">
        <ele>300</ele>
        <time>2024-05-01T11:28:01Z</time>
      </trkpt>
      <trkpt lat="45.83827" lon="3.49901">
        <ele>300</ele>
        <time>2024-05-01T11:28:02Z</time>
      </trkpt>
      <trkpt lat="45.8382" lon="3.49903">
        <ele>300</ele>
        <time>2024-05-01T11:28:03Z</time>
      </trkpt>
      <trkpt lat="45.83813" lon="3.49904">
        <ele>299.8</ele>
        <time>2024-05-01T11:28:04Z</time>
      </trkpt>
      <trkpt lat="45.83806" lon="3.49906">
        <ele>299.8</ele>
        <time>2024-05-01T11:28:05Z</time>
      </trkpt>
      <trkpt lat="45.838" lon="3.49908">
        <ele>300</ele>
        <time>2024-05-01T11:28:06Z</time>
      </trkpt>
      <trkpt lat="45.83793" lon="3.4991">
        <ele>300</ele>
        <time>2024-05-01T11:28:07Z</time>
      </trkpt>
      <trkpt lat="45.83787" lon="3.49912">
        <ele>300</ele>
        <time>2024-05-01T11:28:08Z</time>
      </trkpt>
      <trkpt lat="45.8378" lon="3.49914">
        <ele>300</ele>
        <time>2024-05-01T11:28:09Z</time>
      </trkpt>
      <trkpt lat="45.83774" lon="3.49915">
        <ele>300</ele>
        <time>2024-05-01T11:28:10Z</time>
      </trkpt>
      <trkpt lat="45.83767" lon="3.49917">
        <ele>300</ele>
        <time>2024-05-01T11:28:11Z</time>
      </trkpt>
      <trkpt lat="45.8376" lon="3.49919">
        <ele>299.8</ele>
        <time>2024-05-01T11:28:12Z</time>
      </trkpt>
      <trkpt lat="45.83753" lon="3.49921">
        <ele>299.8</ele>
        <time>2024-05-01T11:28:13Z</time>
      </trkpt>
      <trkpt lat="45.83747" lon="3.49923">
        <ele>299.8</ele>
        <time>2024-05-01T11:28:14Z</time>
      </trkpt>
      <trkpt lat="45.8374" lon="3.49925">
        <ele>299.6</ele>
        <time>2024-05-01T11:28:15Z</time>
      </trkpt>
      <trkpt lat="45.83734" lon="3.49926">
        <ele>299.6</ele>
        <time>2024-05-01T11:28:16Z</time>
      </trkpt>
      <trkpt lat="45.83727" lon="3.49928">
        <ele>299.6</ele>
        <time>2024-05-01T11:28:17Z</time>
      </trkpt>
      <trkpt lat="45.83721" lon="3.49929">
        <ele>299.6</ele>
        <time>2024-05-01T11:28:18Z</time>
      </trkpt>
      <trkpt lat="45.83714" lon="3.49931">
        <ele>299.6</ele>
        <time>2024-05-01T11:28:19Z</time>
      </trkpt>
      <trkpt lat="45.83707" lon="3.49932">
        <ele>299.6</ele>
        <time>2024-05-01T11:28:20Z</time>
      </trkpt>
      <trkpt lat="45.83701" lon="3.49934">
        <ele>299.6</ele>
        <time>2024-05-01T11:28:21Z</time>
      </trkpt>
      <trkpt lat="45.83694" lon="3.49935">
        <ele>299.4</ele>
        <time>2024-05-01T11:28:22Z</time>
      </trkpt>
      <trkpt lat="45.83688" lon="3.49937">
        <ele>299.4</ele>
        <time>2024-05-01T11:28:23Z</time>
      </trkpt>
      <trkpt lat="45.83681" lon="3.49938">
        <ele>299.4</ele>
        <time>2024-05-01T11:28:24Z</time>
      </trkpt>
      <trkpt lat="45.83675" lon="3.49939">
        <ele>299.4</ele>
        <time>2024-05-01T11:28:25Z</time>
      </trkpt>
      <trkpt lat="45.83668" lon="3.49941">
        <ele>299.2</ele>
        <time>2024-05-01T11:28:26Z</time>
      </trkpt>
      <trkpt lat="45.83661" lon="3.49942">
        <ele>299.2</ele>
        <time>2024-05-01T11:28:27Z</time>
      </trkpt>
      <trkpt lat="45.83655" lon="3.49944">
        <ele>299.2</ele>
        <time>2024-05-01T11:28:28Z</time>
      </trkpt>
      <trkpt lat="45.83648" lon="3.49946">
        <ele>299.2</ele>
        <time>2024-05-01T11:28:29Z</time>
      </trkpt>
      <trkpt lat="45.83642" lon="3.49947">
        <ele>299.2</ele>
        <time>2024-05-01T11:28:30Z</time>
      </trkpt>
      <trkpt lat="45.83635" lon="3.49949">
        <ele>299</ele>
        <time>2024-05-01T11:28:31Z</time>
      </trkpt>
      <trkpt lat="45.83628" lon="3.4995">
        <ele>299</ele>
        <time>2024-05-01T11:28:32Z</time>
      </trkpt>
      <trkpt lat="45.83622" lon="3.49952">
        <ele>299</ele>
        <time>2024-05-01T11:28:33Z</time>
      </trkpt>
      <trkpt lat="45.83615" lon="3.49953">
        <ele>299</ele>
        <time>2024-05-01T11:28:34Z</time>
      </trkpt>
      <trkpt lat="45.83609" lon="3.49956">
        <ele>299</ele>
        <time>2024-05-01T11:28:35Z</time>
      </trkpt>
      <trkpt lat="45.83602" lon="3.49958">
        <ele>299</ele>
        <time>2024-05-01T11:28:36Z</time>
      </trkpt>
      <trkpt lat="45.83595" lon="3.49959">
        <ele>299</ele>
        <time>2024-05-01T11:28:37Z</time>
      </trkpt>
      <trkpt lat="45.83589" lon="3.49961">
        <ele>299</ele>
        <time>2024-05-01T11:28:38Z</time>
      </trkpt>
      <trkpt lat="45.83582" lon="3.49962">
        <ele>299</ele>
        <time>2024-05-01T11:28:39Z</time>
      </trkpt>
      <trkpt lat="45.83576" lon="3.49963">
        <ele>299</ele>
        <time>2024-05-01T11:28:40Z</time>
      </trkpt>
      <trkpt lat="45.83569" lon="3.49965">
        <ele>299</ele>
        <time>2024-05-01T11:28:41Z</time>
      </trkpt>
      <trkpt lat="45.83562" lon="3.49966">
        <ele>299</ele>
        <time>2024-05-01T11:28:42Z</time>
      </trkpt>
      <trkpt lat="45.83556" lon="3.49968">
        <ele>299</ele>
        <time>2024-05-01T11:28:43Z</time>
      </trkpt>
      <trkpt lat="45.83549" lon="3.49969">
        <ele>299</ele>
        <time>2024-05-01T11:28:44Z</time>
      </trkpt>
      <trkpt lat="45.83543" lon="3.49971">
        <ele>298.8</ele>
        <time>2024-05-01T11:28:45Z</time>
      </trkpt>
      <trkpt lat="45.83536" lon="3.49972">
        <ele>298.8</ele>
        <time>2024-05-01T11:28:46Z</time>
      </trkpt>
      <trkpt lat="45.8353" lon="3.49973">
        <ele>298.8</ele>
        <time>2024-05-01T11:28:47Z</time>
      </trkpt>
      <trkpt lat="45.83523" lon="3.49975">
        <ele>298.8</ele>
        <time>2024-05-01T11:28:48Z</time>
      </trkpt>
      <trkpt lat="45.83516" lon="3.49976">
        <ele>298.8</ele>
        <time>2024-05-01T11:28:49Z</time>
      </trkpt>
      <trkpt lat="45.8351" lon="3.49977">
        <ele>298.8</ele>
        <time>2024-05-01T11:28:50Z</time>
      </trkpt>
      <trkpt lat="45.83503" lon="3.49978">
        <ele>298.8</ele>
        <time>2024-05-01T11:28:51Z</time>
      </trkpt>
      <trkpt lat="45.83496" lon="3.4998">
        <ele>298.8</ele>
        <time>2024-05-01T11:28:52Z</time>
      </trkpt>
      <trkpt lat="45.8349" lon="3.49981">
        <ele>298.8</ele>
        <time>2024-05-01T11:28:53Z</time>
      </trkpt>
      <trkpt lat="45.83483" lon="3.49983">
        <ele>298.8</ele>
        <time>2024-05-01T11:28:54Z</time>
      </trkpt>
      <trkpt lat="45.83477" lon="3.49984">
        <ele>298.8</ele>
        <time>2024-05-01T11:28:55Z</time>
      </trkpt>
      <trkpt lat="45.83471" lon="3.49986">
        <ele>298.8</ele>
        <time>2024-05-01T11:28:56Z</time>
      </trkpt>
      <trkpt lat="45.83464" lon="3.49987">
        <ele>298.8</ele>
        <time>2024-05-01T11:28:57Z</time>
      </trkpt>
      <trkpt lat="45.83458" lon="3.49989">
        <ele>298.8</ele>
        <time>2024-05-01T11:28:58Z</time>
      </trkpt>
      <trkpt lat="45.83451" lon="3.4999">
        <ele>298.8</ele>
        <time>2024-05-01T11:28:59Z</time>
      </trkpt>
      <trkpt lat="45.83445" lon="3.49992">
        <ele>298.8</ele>
        <time>2024-05-01T11:29:00Z</time>
      </trkpt>
      <trkpt lat="45.83438" lon="3.49993">
        <ele>298.8</ele>
        <time>2024-05-01T11:29:01Z</time>
      </trkpt>
      <trkpt lat="45.83432" lon="3.49995">
        <ele>298.8</ele>
        <time>2024-05-01T11:29:02Z</time>
      </trkpt>
      <trkpt lat="45.83425" lon="3.49996">
        <ele>298.8</ele>
        <time>2024-05-01T11:29:03Z</time>
      </trkpt>
      <trkpt lat="45.83419" lon="3.49998">
        <ele>298.8</ele>
        <time>2024-05-01T11:29:04Z</time>
      </trkpt>
      <trkpt lat="45.83412" lon="3.49999">
        <ele>298.8</ele>
        <time>2024-05-01T11:29:05Z</time>
      </trkpt>
      <trkpt lat="45.83406" lon="3.50001">
        <ele>298.8</ele>
        <time>2024-05-01T11:29:06Z</time>
      </trkpt>
      <trkpt lat="45.83399" lon="3.50003">
        <ele>298.8</ele>
        <time>2024-05-01T11:29:07Z</time>
      </trkpt>
      <trkpt lat="45.83393" lon="3.50004">
        <ele>298.8</ele>
        <time>2024-05-01T11:29:08Z</time>
      </trkpt>
      <trkpt lat="45.83387" lon="3.50006">
        <ele>298.8</ele>
        <time>2024-05-01T11:29:09Z</time>
      </trkpt>
      <trkpt lat="45.8338" lon="3.50007">
        <ele>298.8</ele>
        <time>2024-05-01T11:29:10Z</time>
      </trkpt>
      <trkpt lat="45.83374" lon="3.50009">
        <ele>298.8</ele>
        <time>2024-05-01T11:29:11Z</time>
      </trkpt>
      <trkpt lat="45.83368" lon="3.5001">
        <ele>298.6</ele>
        <time>2024-05-01T11:29:12Z</time>
      </trkpt>
      <trkpt lat="45.83361" lon="3.50012">
        <ele>298.8</ele>
        <time>2024-05-01T11:29:13Z</time>
      </trkpt>
      <trkpt lat="45.83355" lon="3.50013">
        <ele>298.8</ele>
        <time>2024-05-01T11:29:14Z</time>
      </trkpt>
      <trkpt lat="45.83348" lon="3.50015">
        <ele>298.8</ele>
        <time>2024-05-01T11:29:15Z</time>
      </trkpt>
      <trkpt lat="45.83342" lon="3.50016">
        <ele>298.8</ele>
        <time>2024-05-01T11:29:16Z</time>
      </trkpt>
      <trkpt lat="45.83335" lon="3.50018">
        <ele>298.8</ele>
        <time>2024-05-01T11:29:17Z</time>
      </trkpt>
      <trkpt lat="45.83329" lon="3.50019">
        <ele>298.8</ele>
        <time>2024-05-01T11:29:18Z</time>
      </trkpt>
      <trkpt lat="45.83322" lon="3.50021">
        <ele>298.8</ele>
        <time>2024-05-01T11:29:19Z</time>
      </trkpt>
      <trkpt lat="45.83316" lon="3.50022">
        <ele>298.8</ele>
        <time>2024-05-01T11:29:20Z</time>
      </trkpt>
      <trkpt lat="45.83309" lon="3.50024">
        <ele>298.8</ele>
        <time>2024-05-01T11:29:21Z</time>
      </trkpt>
      <trkpt lat="45.83303" lon="3.50025">
        <ele>298.8</ele>
        <time>2024-05-01T11:29:22Z</time>
      </trkpt>
      <trkpt lat="45.83297" lon="3.50026">
        <ele>298.8</ele>
        <time>2024-05-01T11:29:23Z</time>
      </trkpt>
      <trkpt lat="45.8329" lon="3.50028">
        <ele>298.8</ele>
        <time>2024-05-01T11:29:24Z</time>
      </trkpt>
      <trkpt lat="45.83284" lon="3.50029">
        <ele>298.8</ele>
        <time>2024-05-01T11:29:25Z</time>
      </trkpt>
      <trkpt lat="45.83278" lon="3.50031">
        <ele>298.6</ele>
        <time>2024-05-01T11:29:26Z</time>
      </trkpt>
      <trkpt lat="45.83271" lon="3.50032">
        <ele>298.6</ele>
        <time>2024-05-01T11:29:27Z</time>
      </trkpt>
      <trkpt lat="45.83265" lon="3.50034">
        <ele>298.6</ele>
        <time>2024-05-01T11:29:28Z</time>
      </trkpt>
      <trkpt lat="45.83259" lon="3.50035">
        <ele>298.6</ele>
        <time>2024-05-01T11:29:29Z</time>
      </trkpt>
      <trkpt lat="45.83253" lon="3.50037">
        <ele>298.6</ele>
        <time>2024-05-01T11:29:30Z</time>
      </trkpt>
      <trkpt lat="45.83246" lon="3.50038">
        <ele>298.6</ele>
        <time>2024-05-01T11:29:31Z</time>
      </trkpt>
      <trkpt lat="45.8324" lon="3.5004">
        <ele>298.8</ele>
        <time>2024-05-01T11:29:32Z</time>
      </trkpt>
      <trkpt lat="45.83233" lon="3.50041">
        <ele>298.8</ele>
        <time>2024-05-01T11:29:33Z</time>
      </trkpt>
      <trkpt lat="45.83227" lon="3.50042">
        <ele>299</ele>
        <time>2024-05-01T11:29:34Z</time>
      </trkpt>
      <trkpt lat="45.8322" lon="3.50044">
        <ele>299</ele>
        <time>2024-05-01T11:29:35Z</time>
      </trkpt>
      <trkpt lat="45.83214" lon="3.50045">
        <ele>299</ele>
        <time>2024-05-01T11:29:36Z</time>
      </trkpt>
      <trkpt lat="45.83208" lon="3.50047">
        <ele>299</ele>
        <time>2024-05-01T11:29:37Z</time>
      </trkpt>
      <trkpt lat="45.83201" lon="3.50048">
        <ele>299</ele>
        <time>2024-05-01T11:29:38Z</time>
      </trkpt>
      <trkpt lat="45.83194" lon="3.5005">
        <ele>299</ele>
        <time>2024-05-01T11:29:39Z</time>
      </trkpt>
      <trkpt lat="45.83188" lon="3.50051">
        <ele>299</ele>
        <time>2024-05-01T11:29:40Z</time>
      </trkpt>
      <trkpt lat="45.83182" lon="3.50053">
        <ele>298.8</ele>
        <time>2024-05-01T11:29:41Z</time>
      </trkpt>
      <trkpt lat="45.83176" lon="3.50054">
        <ele>298.8</ele>
        <time>2024-05-01T11:29:42Z</time>
      </trkpt>
      <trkpt lat="45.83169" lon="3.50057">
        <ele>298.8</ele>
        <time>2024-05-01T11:29:43Z</time>
      </trkpt>
      <trkpt lat="45.83163" lon="3.50058">
        <ele>298.8</ele>
        <time>2024-05-01T11:29:44Z</time>
      </trkpt>
      <trkpt lat="45.83157" lon="3.50059">
        <ele>298.8</ele>
        <time>2024-05-01T11:29:45Z</time>
      </trkpt>
      <trkpt lat="45.83151" lon="3.50061">
        <ele>298.8</ele>
        <time>2024-05-01T11:29:46Z</time>
      </trkpt>
      <trkpt lat="45.83145" lon="3.50062">
        <ele>298.8</ele>
        <time>2024-05-01T11:29:47Z</time>
      </trkpt>
      <trkpt lat="45.83138" lon="3.50064">
        <ele>299</ele>
        <time>2024-05-01T11:29:48Z</time>
      </trkpt>
      <trkpt lat="45.83132" lon="3.50065">
        <ele>298.8</ele>
        <time>2024-05-01T11:29:49Z</time>
      </trkpt>
      <trkpt lat="45.83126" lon="3.50066">
        <ele>299</ele>
        <time>2024-05-01T11:29:50Z</time>
      </trkpt>
      <trkpt lat="45.8312" lon="3.50068">
        <ele>298.8</ele>
        <time>2024-05-01T11:29:51Z</time>
      </trkpt>
      <trkpt lat="45.83113" lon="3.50069">
        <ele>299</ele>
        <time>2024-05-01T11:29:52Z</time>
      </trkpt>
      <trkpt lat="45.83107" lon="3.5007">
        <ele>299</ele>
        <time>2024-05-01T11:29:53Z</time>
      </trkpt>
      <trkpt lat="45.83101" lon="3.50072">
        <ele>299</ele>
        <time>2024-05-01T11:29:54Z</time>
      </trkpt>
      <trkpt lat="45.83095" lon="3.50073">
        <ele>299</ele>
        <time>2024-05-01T11:29:55Z</time>
      </trkpt>
      <trkpt lat="45.83088" lon="3.50074">
        <ele>299</ele>
        <time>2024-05-01T11:29:56Z</time>
      </trkpt>
      <trkpt lat="45.83082" lon="3.50076">
        <ele>299</ele>
        <time>2024-05-01T11:29:57Z</time>
      </trkpt>
      <trkpt lat="45.83076" lon="3.50077">
        <ele>299</ele>
        <time>2024-05-01T11:29:58Z</time>
      </trkpt>
      <trkpt lat="45.8307" lon="3.50079">
        <ele>299</ele>
        <time>2024-05-01T11:29:59Z</time>
      </trkpt>
      <trkpt lat="45.83063" lon="3.5008">
        <ele>299</ele>
        <time>2024-05-01T11:30:00Z</time>
      </trkpt>
      <trkpt lat="45.83057" lon="3.50081">
        <ele>299.2</ele>
        <time>2024-05-01T11:30:01Z</time>
      </trkpt>
      <trkpt lat="45.83051" lon="3.50083">
        <ele>299.2</ele>
        <time>2024-05-01T11:30:02Z</time>
      </trkpt>
      <trkpt lat="45.83046" lon="3.50086">
        <ele>299.2</ele>
        <time>2024-05-01T11:30:03Z</time>
      </trkpt>
      <trkpt lat="45.8304" lon="3.50094">
        <ele>299.2</ele>
        <time>2024-05-01T11:30:04Z</time>
      </trkpt>
      <trkpt lat="45.83039" lon="3.50103">
        <ele>299.2</ele>
        <time>2024-05-01T11:30:05Z</time>
      </trkpt>
      <trkpt lat="45.8304" lon="3.50111">
        <ele>299.2</ele>
        <time>2024-05-01T11:30:06Z</time>
      </trkpt>
      <trkpt lat="45.83041" lon="3.50119">
        <ele>299</ele>
        <time>2024-05-01T11:30:07Z</time>
      </trkpt>
      <trkpt lat="45.83041" lon="3.50127">
        <ele>299.2</ele>
        <time>2024-05-01T11:30:08Z</time>
      </trkpt>
      <trkpt lat="45.83042" lon="3.50136">
        <ele>299</ele>
        <time>2024-05-01T11:30:09Z</time>
      </trkpt>
      <trkpt lat="45.83043" lon="3.50145">
        <ele>299</ele>
        <time>2024-05-01T11:30:10Z</time>
      </trkpt>
      <trkpt lat="45.83043" lon="3.50154">
        <ele>299.2</ele>
        <time>2024-05-01T11:30:11Z</time>
      </trkpt>
      <trkpt lat="45.83044" lon="3.50163">
        <ele>299.2</ele>
        <time>2024-05-01T11:30:12Z</time>
      </trkpt>
      <trkpt lat="45.83045" lon="3.50172">
        <ele>299</ele>
        <time>2024-05-01T11:30:13Z</time>
      </trkpt>
      <trkpt lat="45.83045" lon="3.50181">
        <ele>299</ele>
        <time>2024-05-01T11:30:14Z</time>
      </trkpt>
      <trkpt lat="45.83046" lon="3.5019">
        <ele>299</ele>
        <time>2024-05-01T11:30:15Z</time>
      </trkpt>
      <trkpt lat="45.83047" lon="3.502">
        <ele>299</ele>
        <time>2024-05-01T11:30:16Z</time>
      </trkpt>
      <trkpt lat="45.83047" lon="3.50209">
        <ele>299</ele>
        <time>2024-05-01T11:30:17Z</time>
      </trkpt>
      <trkpt lat="45.83047" lon="3.50217">
        <ele>298.8</ele>
        <time>2024-05-01T11:30:18Z</time>
      </trkpt>
      <trkpt lat="45.83045" lon="3.50226">
        <ele>298.8</ele>
        <time>2024-05-01T11:30:19Z</time>
      </trkpt>
      <trkpt lat="45.83043" lon="3.50234">
        <ele>299</ele>
        <time>2024-05-01T11:30:20Z</time>
      </trkpt>
      <trkpt lat="45.83041" lon="3.50243">
        <ele>299</ele>
        <time>2024-05-01T11:30:21Z</time>
      </trkpt>
      <trkpt lat="45.83039" lon="3.50251">
        <ele>299</ele>
        <time>2024-05-01T11:30:22Z</time>
      </trkpt>
      <trkpt lat="45.83038" lon="3.5026">
        <ele>298.8</ele>
        <time>2024-05-01T11:30:23Z</time>
      </trkpt>
      <trkpt lat="45.83036" lon="3.50268">
        <ele>298.8</ele>
        <time>2024-05-01T11:30:24Z</time>
      </trkpt>
      <trkpt lat="45.83034" lon="3.50276">
        <ele>298.8</ele>
        <time>2024-05-01T11:30:25Z</time>
      </trkpt>
      <trkpt lat="45.83033" lon="3.50284">
        <ele>298.8</ele>
        <time>2024-05-01T11:30:26Z</time>
      </trkpt>
      <trkpt lat="45.83031" lon="3.50291">
        <ele>299.2</ele>
        <time>2024-05-01T11:30:27Z</time>
      </trkpt>
      <trkpt lat="45.8303" lon="3.50298">
        <ele>299.2</ele>
        <time>2024-05-01T11:30:28Z</time>
      </trkpt>
      <trkpt lat="45.83028" lon="3.50305">
        <ele>299.2</ele>
        <time>2024-05-01T11:30:29Z</time>
      </trkpt>
      <trkpt lat="45.83027" lon="3.50311">
        <ele>299.2</ele>
        <time>2024-05-01T11:30:30Z</time>
      </trkpt>
      <trkpt lat="45.83018" lon="3.50322">
        <ele>299.2</ele>
        <time>2024-05-01T11:30:31Z</time>
      </trkpt>
      <trkpt lat="45.83015" lon="3.5032">
        <ele>299.2</ele>
        <time>2024-05-01T11:30:32Z</time>
      </trkpt>
      <trkpt lat="45.83011" lon="3.50319">
        <ele>299.2</ele>
        <time>2024-05-01T11:30:33Z</time>
      </trkpt>
      <trkpt lat="45.83006" lon="3.50317">
        <ele>299.4</ele>
        <time>2024-05-01T11:30:34Z</time>
      </trkpt>
      <trkpt lat="45.83001" lon="3.50315">
        <ele>299.4</ele>
        <time>2024-05-01T11:30:35Z</time>
      </trkpt>
      <trkpt lat="45.82996" lon="3.50313">
        <ele>299.4</ele>
        <time>2024-05-01T11:30:36Z</time>
      </trkpt>
      <trkpt lat="45.82991" lon="3.5031">
        <ele>299.4</ele>
        <time>2024-05-01T11:30:37Z</time>
      </trkpt>
      <trkpt lat="45.82985" lon="3.50308">
        <ele>299.4</ele>
        <time>2024-05-01T11:30:38Z</time>
      </trkpt>
      <trkpt lat="45.8298" lon="3.50306">
        <ele>299.4</ele>
        <time>2024-05-01T11:30:39Z</time>
      </trkpt>
      <trkpt lat="45.82974" lon="3.50304">
        <ele>299.4</ele>
        <time>2024-05-01T11:30:40Z</time>
      </trkpt>
      <trkpt lat="45.82969" lon="3.50301">
        <ele>299.4</ele>
        <time>2024-05-01T11:30:41Z</time>
      </trkpt>
      <trkpt lat="45.82963" lon="3.50299">
        <ele>299.6</ele>
        <time>2024-05-01T11:30:42Z</time>
      </trkpt>
      <trkpt lat="45.82957" lon="3.50296">
        <ele>299.4</ele>
        <time>2024-05-01T11:30:43Z</time>
      </trkpt>
      <trkpt lat="45.82951" lon="3.50294">
        <ele>299.6</ele>
        <time>2024-05-01T11:30:44Z</time>
      </trkpt>
      <trkpt lat="45.82946" lon="3.50291">
        <ele>299.6</ele>
        <time>2024-05-01T11:30:45Z</time>
      </trkpt>
      <trkpt lat="45.8294" lon="3.50289">
        <ele>299.4</ele>
        <time>2024-05-01T11:30:46Z</time>
      </trkpt>
      <trkpt lat="45.82934" lon="3.50287">
        <ele>299.6</ele>
        <time>2024-05-01T11:30:47Z</time>
      </trkpt>
      <trkpt lat="45.82928" lon="3.50284">
        <ele>299.6</ele>
        <time>2024-05-01T11:30:48Z</time>
      </trkpt>
      <trkpt lat="45.82922" lon="3.50282">
        <ele>299.6</ele>
        <time>2024-05-01T11:30:49Z</time>
      </trkpt>
      <trkpt lat="45.82916" lon="3.50279">
        <ele>299.6</ele>
        <time>2024-05-01T11:30:50Z</time>
      </trkpt>
      <trkpt lat="45.82911" lon="3.50277">
        <ele>299.8</ele>
        <time>2024-05-01T11:30:51Z</time>
      </trkpt>
      <trkpt lat="45.82905" lon="3.50275">
        <ele>299.8</ele>
        <time>2024-05-01T11:30:52Z</time>
      </trkpt>
      <trkpt lat="45.829" lon="3.50274">
        <ele>299.8</ele>
        <time>2024-05-01T11:30:53Z</time>
      </trkpt>
      <trkpt lat="45.82894" lon="3.50272">
        <ele>300</ele>
        <time>2024-05-01T11:30:54Z</time>
      </trkpt>
      <trkpt lat="45.82889" lon="3.5027">
        <ele>300</ele>
        <time>2024-05-01T11:30:55Z</time>
      </trkpt>
      <trkpt lat="45.82884" lon="3.50268">
        <ele>300.2</ele>
        <time>2024-05-01T11:30:56Z</time>
      </trkpt>
      <trkpt lat="45.82878" lon="3.50267">
        <ele>300.2</ele>
        <time>2024-05-01T11:30:57Z</time>
      </trkpt>
      <trkpt lat="45.82873" lon="3.50265">
        <ele>300.2</ele>
        <time>2024-05-01T11:30:58Z</time>
      </trkpt>
      <trkpt lat="45.82868" lon="3.50263">
        <ele>300.4</ele>
        <time>2024-05-01T11:30:59Z</time>
      </trkpt>
      <trkpt lat="45.82864" lon="3.50262">
        <ele>300.4</ele>
        <time>2024-05-01T11:31:00Z</time>
      </trkpt>
      <trkpt lat="45.82859" lon="3.5026">
        <ele>300.4</ele>
        <time>2024-05-01T11:31:01Z</time>
      </trkpt>
      <trkpt lat="45.82854" lon="3.50258">
        <ele>300.6</ele>
        <time>2024-05-01T11:31:02Z</time>
      </trkpt>
      <trkpt lat="45.8285" lon="3.50257">
        <ele>300.6</ele>
        <time>2024-05-01T11:31:03Z</time>
      </trkpt>
      <trkpt lat="45.82845" lon="3.50255">
        <ele>300.8</ele>
        <time>2024-05-01T11:31:04Z</time>
      </trkpt>
      <trkpt lat="45.82841" lon="3.50254">
        <ele>300.8</ele>
        <time>2024-05-01T11:31:05Z</time>
      </trkpt>
      <trkpt lat="45.82836" lon="3.50252">
        <ele>301</ele>
        <time>2024-05-01T11:31:06Z</time>
      </trkpt>
      <trkpt lat="45.82832" lon="3.50251">
        <ele>301</ele>
        <time>2024-05-01T11:31:07Z</time>
      </trkpt>
      <trkpt lat="45.82828" lon="3.5025">
        <ele>301.2</ele>
        <time>2024-05-01T11:31:08Z</time>
      </trkpt>
      <trkpt lat="45.82823" lon="3.50248">
        <ele>301.2</ele>
        <time>2024-05-01T11:31:09Z</time>
      </trkpt>
      <trkpt lat="45.82819" lon="3.50247">
        <ele>301.4</ele>
        <time>2024-05-01T11:31:10Z</time>
      </trkpt>
      <trkpt lat="45.82815" lon="3.50245">
        <ele>301.6</ele>
        <time>2024-05-01T11:31:11Z</time>
      </trkpt>
      <trkpt lat="45.8281" lon="3.50244">
        <ele>301.6</ele>
        <time>2024-05-01T11:31:12Z</time>
      </trkpt>
      <trkpt lat="45.82805" lon="3.50242">
        <ele>301.6</ele>
        <time>2024-05-01T11:31:13Z</time>
      </trkpt>
      <trkpt lat="45.82801" lon="3.50241">
        <ele>301.8</ele>
        <time>2024-05-01T11:31:14Z</time>
      </trkpt>
      <trkpt lat="45.82796" lon="3.50239">
        <ele>301.8</ele>
        <time>2024-05-01T11:31:15Z</time>
      </trkpt>
      <trkpt lat="45.82791" lon="3.50237">
        <ele>302</ele>
        <time>2024-05-01T11:31:16Z</time>
      </trkpt>
      <trkpt lat="45.82786" lon="3.50236">
        <ele>302</ele>
        <time>2024-05-01T11:31:17Z</time>
      </trkpt>
      <trkpt lat="45.82782" lon="3.50234">
        <ele>302.2</ele>
        <time>2024-05-01T11:31:18Z</time>
      </trkpt>
      <trkpt lat="45.82777" lon="3.50233">
        <ele>302.4</ele>
        <time>2024-05-01T11:31:19Z</time>
      </trkpt>
      <trkpt lat="45.82772" lon="3.50231">
        <ele>302.4</ele>
        <time>2024-05-01T11:31:20Z</time>
      </trkpt>
      <trkpt lat="45.82767" lon="3.5023">
        <ele>302.6</ele>
        <time>2024-05-01T11:31:21Z</time>
      </trkpt>
      <trkpt lat="45.82763" lon="3.50228">
        <ele>302.6</ele>
        <time>2024-05-01T11:31:22Z</time>
      </trkpt>
      <trkpt lat="45.82758" lon="3.50227">
        <ele>302.8</ele>
        <time>2024-05-01T11:31:23Z</time>
      </trkpt>
      <trkpt lat="45.82753" lon="3.50225">
        <ele>302.8</ele>
        <time>2024-05-01T11:31:24Z</time>
      </trkpt>
      <trkpt lat="45.82749" lon="3.50225">
        <ele>303</ele>
        <time>2024-05-01T11:31:25Z</time>
      </trkpt>
      <trkpt lat="45.82744" lon="3.50224">
        <ele>303</ele>
        <time>2024-05-01T11:31:26Z</time>
      </trkpt>
      <trkpt lat="45.82739" lon="3.50224">
        <ele>303.2</ele>
        <time>2024-05-01T11:31:27Z</time>
      </trkpt>
      <trkpt lat="45.82734" lon="3.50223">
        <ele>303.2</ele>
        <time>2024-05-01T11:31:28Z</time>
      </trkpt>
      <trkpt lat="45.8273" lon="3.50223">
        <ele>303.2</ele>
        <time>2024-05-01T11:31:29Z</time>
      </trkpt>
      <trkpt lat="45.82725" lon="3.50223">
        <ele>303.2</ele>
        <time>2024-05-01T11:31:30Z</time>
      </trkpt>
      <trkpt lat="45.82721" lon="3.50222">
        <ele>303.2</ele>
        <time>2024-05-01T11:31:31Z</time>
      </trkpt>
      <trkpt lat="45.82716" lon="3.50222">
        <ele>303.2</ele>
        <time>2024-05-01T11:31:32Z</time>
      </trkpt>
      <trkpt lat="45.82711" lon="3.50221">
        <ele>303.4</ele>
        <time>2024-05-01T11:31:33Z</time>
      </trkpt>
      <trkpt lat="45.82706" lon="3.50221">
        <ele>303.4</ele>
        <time>2024-05-01T11:31:34Z</time>
      </trkpt>
      <trkpt lat="45.82701" lon="3.5022">
        <ele>303.4</ele>
        <time>2024-05-01T11:31:35Z</time>
      </trkpt>
      <trkpt lat="45.82696" lon="3.5022">
        <ele>303.4</ele>
        <time>2024-05-01T11:31:36Z</time>
      </trkpt>
      <trkpt lat="45.82691" lon="3.5022">
        <ele>303.6</ele>
        <time>2024-05-01T11:31:37Z</time>
      </trkpt>
      <trkpt lat="45.82686" lon="3.50219">
        <ele>303.6</ele>
        <time>2024-05-01T11:31:38Z</time>
      </trkpt>
      <trkpt lat="45.82681" lon="3.50219">
        <ele>303.8</ele>
        <time>2024-05-01T11:31:39Z</time>
      </trkpt>
      <trkpt lat="45.82676" lon="3.50218">
        <ele>303.8</ele>
        <time>2024-05-01T11:31:40Z</time>
      </trkpt>
      <trkpt lat="45.82671" lon="3.50218">
        <ele>303.8</ele>
        <time>2024-05-01T11:31:41Z</time>
      </trkpt>
      <trkpt lat="45.82665" lon="3.50217">
        <ele>304</ele>
        <time>2024-05-01T11:31:42Z</time>
      </trkpt>
      <trkpt lat="45.8266" lon="3.50217">
        <ele>304</ele>
        <time>2024-05-01T11:31:43Z</time>
      </trkpt>
      <trkpt lat="45.82654" lon="3.50216">
        <ele>304</ele>
        <time>2024-05-01T11:31:44Z</time>
      </trkpt>
      <trkpt lat="45.82649" lon="3.50216">
        <ele>304</ele>
        <time>2024-05-01T11:31:45Z</time>
      </trkpt>
      <trkpt lat="45.82643" lon="3.50215">
        <ele>304.2</ele>
        <time>2024-05-01T11:31:46Z</time>
      </trkpt>
      <trkpt lat="45.82637" lon="3.50215">
        <ele>304.2</ele>
        <time>2024-05-01T11:31:47Z</time>
      </trkpt>
      <trkpt lat="45.82631" lon="3.50216">
        <ele>304.4</ele>
        <time>2024-05-01T11:31:48Z</time>
      </trkpt>
      <trkpt lat="45.82625" lon="3.50217">
        <ele>304.4</ele>
        <time>2024-05-01T11:31:49Z</time>
      </trkpt>
      <trkpt lat="45.82619" lon="3.50218">
        <ele>304.4</ele>
        <time>2024-05-01T11:31:50Z</time>
      </trkpt>
      <trkpt lat="45.82613" lon="3.50219">
        <ele>304.6</ele>
        <time>2024-05-01T11:31:51Z</time>
      </trkpt>
      <trkpt lat="45.82607" lon="3.5022">
        <ele>304.6</ele>
        <time>2024-05-01T11:31:52Z</time>
      </trkpt>
      <trkpt lat="45.82601" lon="3.5022">
        <ele>304.6</ele>
        <time>2024-05-01T11:31:53Z</time>
      </trkpt>
      <trkpt lat="45.82595" lon="3.50221">
        <ele>304.8</ele>
        <time>2024-05-01T11:31:54Z</time>
      </trkpt>
      <trkpt lat="45.82588" lon="3.50222">
        <ele>304.8</ele>
        <time>2024-05-01T11:31:55Z</time>
      </trkpt>
      <trkpt lat="45.82582" lon="3.50223">
        <ele>304.8</ele>
        <time>2024-05-01T11:31:56Z</time>
      </trkpt>
      <trkpt lat="45.82576" lon="3.50224">
        <ele>305</ele>
        <time>2024-05-01T11:31:57Z</time>
      </trkpt>
      <trkpt lat="45.8257" lon="3.50225">
        <ele>305</ele>
        <time>2024-05-01T11:31:58Z</time>
      </trkpt>
      <trkpt lat="45.82563" lon="3.50225">
        <ele>305</ele>
        <time>2024-05-01T11:31:59Z</time>
      </trkpt>
      <trkpt lat="45.82557" lon="3.50226">
        <ele>305</ele>
        <time>2024-05-01T11:32:00Z</time>
      </trkpt>
      <trkpt lat="45.82551" lon="3.50227">
        <ele>305</ele>
        <time>2024-05-01T11:32:01Z</time>
      </trkpt>
      <trkpt lat="45.82544" lon="3.50228">
        <ele>305.2</ele>
        <time>2024-05-01T11:32:02Z</time>
      </trkpt>
      <trkpt lat="45.82538" lon="3.50229">
        <ele>305.2</ele>
        <time>2024-05-01T11:32:03Z</time>
      </trkpt>
      <trkpt lat="45.82532" lon="3.5023">
        <ele>305.2</ele>
        <time>2024-05-01T11:32:04Z</time>
      </trkpt>
      <trkpt lat="45.82525" lon="3.50232">
        <ele>305.2</ele>
        <time>2024-05-01T11:32:05Z</time>
      </trkpt>
      <trkpt lat="45.82519" lon="3.50234">
        <ele>305.2</ele>
        <time>2024-05-01T11:32:06Z</time>
      </trkpt>
      <trkpt lat="45.82513" lon="3.50235">
        <ele>305.2</ele>
        <time>2024-05-01T11:32:07Z</time>
      </trkpt>
      <trkpt lat="45.82506" lon="3.50237">
        <ele>305.4</ele>
        <time>2024-05-01T11:32:08Z</time>
      </trkpt>
      <trkpt lat="45.825" lon="3.50239">
        <ele>305.4</ele>
        <time>2024-05-01T11:32:09Z</time>
      </trkpt>
      <trkpt lat="45.82493" lon="3.50242">
        <ele>305.4</ele>
        <time>2024-05-01T11:32:10Z</time>
      </trkpt>
      <trkpt lat="45.82486" lon="3.50244">
        <ele>305.4</ele>
        <time>2024-05-01T11:32:11Z</time>
      </trkpt>
      <trkpt lat="45.8248" lon="3.50246">
        <ele>305.4</ele>
        <time>2024-05-01T11:32:12Z</time>
      </trkpt>
      <trkpt lat="45.82473" lon="3.50248">
        <ele>305.6</ele>
        <time>2024-05-01T11:32:13Z</time>
      </trkpt>
      <trkpt lat="45.82467" lon="3.5025">
        <ele>305.6</ele>
        <time>2024-05-01T11:32:14Z</time>
      </trkpt>
      <trkpt lat="45.8246" lon="3.50252">
        <ele>305.6</ele>
        <time>2024-05-01T11:32:15Z</time>
      </trkpt>
      <trkpt lat="45.82454" lon="3.50255">
        <ele>305.6</ele>
        <time>2024-05-01T11:32:16Z</time>
      </trkpt>
      <trkpt lat="45.82447" lon="3.50257">
        <ele>305.6</ele>
        <time>2024-05-01T11:32:17Z</time>
      </trkpt>
      <trkpt lat="45.82441" lon="3.5026">
        <ele>305.6</ele>
        <time>2024-05-01T11:32:18Z</time>
      </trkpt>
      <trkpt lat="45.82434" lon="3.50262">
        <ele>305.6</ele>
        <time>2024-05-01T11:32:19Z</time>
      </trkpt>
      <trkpt lat="45.82427" lon="3.50264">
        <ele>305.8</ele>
        <time>2024-05-01T11:32:20Z</time>
      </trkpt>
      <trkpt lat="45.82421" lon="3.50268">
        <ele>305.8</ele>
        <time>2024-05-01T11:32:21Z</time>
      </trkpt>
      <trkpt lat="45.82415" lon="3.50271">
        <ele>305.8</ele>
        <time>2024-05-01T11:32:22Z</time>
      </trkpt>
      <trkpt lat="45.82409" lon="3.50275">
        <ele>305.8</ele>
        <time>2024-05-01T11:32:23Z</time>
      </trkpt>
      <trkpt lat="45.82402" lon="3.50279">
        <ele>305.8</ele>
        <time>2024-05-01T11:32:24Z</time>
      </trkpt>
      <trkpt lat="45.82396" lon="3.50282">
        <ele>305.8</ele>
        <time>2024-05-01T11:32:25Z</time>
      </trkpt>
      <trkpt lat="45.82389" lon="3.50286">
        <ele>306</ele>
        <time>2024-05-01T11:32:26Z</time>
      </trkpt>
      <trkpt lat="45.82383" lon="3.5029">
        <ele>306</ele>
        <time>2024-05-01T11:32:27Z</time>
      </trkpt>
      <trkpt lat="45.82377" lon="3.50293">
        <ele>306</ele>
        <time>2024-05-01T11:32:28Z</time>
      </trkpt>
      <trkpt lat="45.8237" lon="3.50297">
        <ele>306</ele>
        <time>2024-05-01T11:32:29Z</time>
      </trkpt>
      <trkpt lat="45.82364" lon="3.50301">
        <ele>306</ele>
        <time>2024-05-01T11:32:30Z</time>
      </trkpt>
      <trkpt lat="45.82357" lon="3.50305">
        <ele>306</ele>
        <time>2024-05-01T11:32:31Z</time>
      </trkpt>
      <trkpt lat="45.8235" lon="3.50309">
        <ele>306</ele>
        <time>2024-05-01T11:32:32Z</time>
      </trkpt>
      <trkpt lat="45.82342" lon="3.50313">
        <ele>306</ele>
        <time>2024-05-01T11:32:33Z</time>
      </trkpt>
      <trkpt lat="45.82335" lon="3.50317">
        <ele>306</ele>
        <time>2024-05-01T11:32:34Z</time>
      </trkpt>
      <trkpt lat="45.82328" lon="3.50322">
        <ele>305.8</ele>
        <time>2024-05-01T11:32:35Z</time>
      </trkpt>
      <trkpt lat="45.82321" lon="3.50326">
        <ele>306</ele>
        <time>2024-05-01T11:32:36Z</time>
      </trkpt>
      <trkpt lat="45.82314" lon="3.5033">
        <ele>305.6</ele>
        <time>2024-05-01T11:32:37Z</time>
      </trkpt>
      <trkpt lat="45.82306" lon="3.50334">
        <ele>305.6</ele>
        <time>2024-05-01T11:32:38Z</time>
      </trkpt>
      <trkpt lat="45.82299" lon="3.50338">
        <ele>305.4</ele>
        <time>2024-05-01T11:32:39Z</time>
      </trkpt>
      <trkpt lat="45.82292" lon="3.50342">
        <ele>305.4</ele>
        <time>2024-05-01T11:32:40Z</time>
      </trkpt>
      <trkpt lat="45.82284" lon="3.50347">
        <ele>305.6</ele>
        <time>2024-05-01T11:32:41Z</time>
      </trkpt>
      <trkpt lat="45.82277" lon="3.50352">
        <ele>305.6</ele>
        <time>2024-05-01T11:32:42Z</time>
      </trkpt>
      <trkpt lat="45.8227" lon="3.50357">
        <ele>305.4</ele>
        <time>2024-05-01T11:32:43Z</time>
      </trkpt>
      <trkpt lat="45.82263" lon="3.50363">
        <ele>305.6</ele>
        <time>2024-05-01T11:32:44Z</time>
      </trkpt>
      <trkpt lat="45.82256" lon="3.50368">
        <ele>305.6</ele>
        <time>2024-05-01T11:32:45Z</time>
      </trkpt>
      <trkpt lat="45.8225" lon="3.50373">
        <ele>305.6</ele>
        <time>2024-05-01T11:32:46Z</time>
      </trkpt>
      <trkpt lat="45.82244" lon="3.50378">
        <ele>305.6</ele>
        <time>2024-05-01T11:32:47Z</time>
      </trkpt>
      <trkpt lat="45.82238" lon="3.50382">
        <ele>305.6</ele>
        <time>2024-05-01T11:32:48Z</time>
      </trkpt>
      <trkpt lat="45.82231" lon="3.50387">
        <ele>305.6</ele>
        <time>2024-05-01T11:32:49Z</time>
      </trkpt>
      <trkpt lat="45.82225" lon="3.50392">
        <ele>305.6</ele>
        <time>2024-05-01T11:32:50Z</time>
      </trkpt>
      <trkpt lat="45.82219" lon="3.50397">
        <ele>306</ele>
        <time>2024-05-01T11:32:51Z</time>
      </trkpt>
      <trkpt lat="45.82213" lon="3.50402">
        <ele>305.8</ele>
        <time>2024-05-01T11:32:52Z</time>
      </trkpt>
      <trkpt lat="45.82207" lon="3.50406">
        <ele>306.2</ele>
        <time>2024-05-01T11:32:53Z</time>
      </trkpt>
      <trkpt lat="45.82201" lon="3.50411">
        <ele>305.8</ele>
        <time>2024-05-01T11:32:54Z</time>
      </trkpt>
      <trkpt lat="45.82195" lon="3.50416">
        <ele>305.8</ele>
        <time>2024-05-01T11:32:55Z</time>
      </trkpt>
      <trkpt lat="45.82189" lon="3.5042">
        <ele>306</ele>
        <time>2024-05-01T11:32:56Z</time>
      </trkpt>
      <trkpt lat="45.82178" lon="3.50429">
        <ele>306</ele>
        <time>2024-05-01T11:32:57Z</time>
      </trkpt>
      <trkpt lat="45.82178" lon="3.50429">
        <ele>306</ele>
        <time>2024-05-01T11:32:58Z</time>
      </trkpt>
      <trkpt lat="45.82172" lon="3.50434">
        <ele>306</ele>
        <time>2024-05-01T11:32:59Z</time>
      </trkpt>
      <trkpt lat="45.82167" lon="3.50439">
        <ele>306</ele>
        <time>2024-05-01T11:33:00Z</time>
      </trkpt>
      <trkpt lat="45.82161" lon="3.50444">
        <ele>306</ele>
        <time>2024-05-01T11:33:01Z</time>
      </trkpt>
      <trkpt lat="45.82156" lon="3.50449">
        <ele>306.2</ele>
        <time>2024-05-01T11:33:02Z</time>
      </trkpt>
      <trkpt lat="45.8215" lon="3.50454">
        <ele>306.2</ele>
        <time>2024-05-01T11:33:03Z</time>
      </trkpt>
      <trkpt lat="45.82144" lon="3.50459">
        <ele>306.2</ele>
        <time>2024-05-01T11:33:04Z</time>
      </trkpt>
      <trkpt lat="45.82139" lon="3.50464">
        <ele>306.2</ele>
        <time>2024-05-01T11:33:05Z</time>
      </trkpt>
      <trkpt lat="45.82127" lon="3.50474">
        <ele>306.2</ele>
        <time>2024-05-01T11:33:06Z</time>
      </trkpt>
      <trkpt lat="45.82127" lon="3.50474">
        <ele>306.2</ele>
        <time>2024-05-01T11:33:07Z</time>
      </trkpt>
      <trkpt lat="45.82122" lon="3.50479">
        <ele>306.2</ele>
        <time>2024-05-01T11:33:08Z</time>
      </trkpt>
      <trkpt lat="45.82116" lon="3.50483">
        <ele>306.2</ele>
        <time>2024-05-01T11:33:09Z</time>
      </trkpt>
      <trkpt lat="45.82111" lon="3.50488">
        <ele>306.2</ele>
        <time>2024-05-01T11:33:10Z</time>
      </trkpt>
      <trkpt lat="45.82105" lon="3.50493">
        <ele>306.4</ele>
        <time>2024-05-01T11:33:11Z</time>
      </trkpt>
      <trkpt lat="45.821" lon="3.50498">
        <ele>306.4</ele>
        <time>2024-05-01T11:33:12Z</time>
      </trkpt>
      <trkpt lat="45.82094" lon="3.50503">
        <ele>306.4</ele>
        <time>2024-05-01T11:33:13Z</time>
      </trkpt>
      <trkpt lat="45.82089" lon="3.50508">
        <ele>306.4</ele>
        <time>2024-05-01T11:33:14Z</time>
      </trkpt>
      <trkpt lat="45.82083" lon="3.50512">
        <ele>306.4</ele>
        <time>2024-05-01T11:33:15Z</time>
      </trkpt>
      <trkpt lat="45.82078" lon="3.50517">
        <ele>306.6</ele>
        <time>2024-05-01T11:33:16Z</time>
      </trkpt>
      <trkpt lat="45.82073" lon="3.50522">
        <ele>306.6</ele>
        <time>2024-05-01T11:33:17Z</time>
      </trkpt>
      <trkpt lat="45.82067" lon="3.50526">
        <ele>306.6</ele>
        <time>2024-05-01T11:33:18Z</time>
      </trkpt>
      <trkpt lat="45.82062" lon="3.50531">
        <ele>306.6</ele>
        <time>2024-05-01T11:33:19Z</time>
      </trkpt>
      <trkpt lat="45.82057" lon="3.50536">
        <ele>306.6</ele>
        <time>2024-05-01T11:33:20Z</time>
      </trkpt>
      <trkpt lat="45.82051" lon="3.50541">
        <ele>306.6</ele>
        <time>2024-05-01T11:33:21Z</time>
      </trkpt>
      <trkpt lat="45.82045" lon="3.50545">
        <ele>306.6</ele>
        <time>2024-05-01T11:33:22Z</time>
      </trkpt>
      <trkpt lat="45.8204" lon="3.5055">
        <ele>306.6</ele>
        <time>2024-05-01T11:33:23Z</time>
      </trkpt>
      <trkpt lat="45.82035" lon="3.50555">
        <ele>306.6</ele>
        <time>2024-05-01T11:33:24Z</time>
      </trkpt>
      <trkpt lat="45.82029" lon="3.5056">
        <ele>306.8</ele>
        <time>2024-05-01T11:33:25Z</time>
      </trkpt>
      <trkpt lat="45.82024" lon="3.50564">
        <ele>306.8</ele>
        <time>2024-05-01T11:33:26Z</time>
      </trkpt>
      <trkpt lat="45.82019" lon="3.50569">
        <ele>306.8</ele>
        <time>2024-05-01T11:33:27Z</time>
      </trkpt>
      <trkpt lat="45.82013" lon="3.50574">
        <ele>306.8</ele>
        <time>2024-05-01T11:33:28Z</time>
      </trkpt>
      <trkpt lat="45.82008" lon="3.50578">
        <ele>306.8</ele>
        <time>2024-05-01T11:33:29Z</time>
      </trkpt>
      <trkpt lat="45.82003" lon="3.50583">
        <ele>307</ele>
        <time>2024-05-01T11:33:30Z</time>
      </trkpt>
      <trkpt lat="45.81998" lon="3.50587">
        <ele>307</ele>
        <time>2024-05-01T11:33:31Z</time>
      </trkpt>
      <trkpt lat="45.81992" lon="3.50592">
        <ele>307</ele>
        <time>2024-05-01T11:33:32Z</time>
      </trkpt>
      <trkpt lat="45.81987" lon="3.50597">
        <ele>307</ele>
        <time>2024-05-01T11:33:33Z</time>
      </trkpt>
      <trkpt lat="45.81981" lon="3.50601">
        <ele>307</ele>
        <time>2024-05-01T11:33:34Z</time>
      </trkpt>
      <trkpt lat="45.81976" lon="3.50606">
        <ele>307</ele>
        <time>2024-05-01T11:33:35Z</time>
      </trkpt>
      <trkpt lat="45.81971" lon="3.5061">
        <ele>307</ele>
        <time>2024-05-01T11:33:36Z</time>
      </trkpt>
      <trkpt lat="45.81965" lon="3.50614">
        <ele>307</ele>
        <time>2024-05-01T11:33:37Z</time>
      </trkpt>
      <trkpt lat="45.8196" lon="3.50619">
        <ele>307</ele>
        <time>2024-05-01T11:33:38Z</time>
      </trkpt>
      <trkpt lat="45.81955" lon="3.50623">
        <ele>307</ele>
        <time>2024-05-01T11:33:39Z</time>
      </trkpt>
      <trkpt lat="45.81949" lon="3.50627">
        <ele>306.8</ele>
        <time>2024-05-01T11:33:40Z</time>
      </trkpt>
      <trkpt lat="45.81944" lon="3.50632">
        <ele>306.8</ele>
        <time>2024-05-01T11:33:41Z</time>
      </trkpt>
      <trkpt lat="45.81939" lon="3.50636">
        <ele>306.8</ele>
        <time>2024-05-01T11:33:42Z</time>
      </trkpt>
      <trkpt lat="45.81933" lon="3.50641">
        <ele>306.8</ele>
        <time>2024-05-01T11:33:43Z</time>
      </trkpt>
      <trkpt lat="45.81927" lon="3.50645">
        <ele>306.8</ele>
        <time>2024-05-01T11:33:44Z</time>
      </trkpt>
      <trkpt lat="45.81922" lon="3.5065">
        <ele>306.8</ele>
        <time>2024-05-01T11:33:45Z</time>
      </trkpt>
      <trkpt lat="45.81916" lon="3.50655">
        <ele>306.8</ele>
        <time>2024-05-01T11:33:46Z</time>
      </trkpt>
      <trkpt lat="45.8191" lon="3.5066">
        <ele>306.8</ele>
        <time>2024-05-01T11:33:47Z</time>
      </trkpt>
      <trkpt lat="45.81904" lon="3.50664">
        <ele>306.8</ele>
        <time>2024-05-01T11:33:48Z</time>
      </trkpt>
      <trkpt lat="45.81899" lon="3.50669">
        <ele>306.8</ele>
        <time>2024-05-01T11:33:49Z</time>
      </trkpt>
      <trkpt lat="45.81893" lon="3.50674">
        <ele>307</ele>
        <time>2024-05-01T11:33:50Z</time>
      </trkpt>
      <trkpt lat="45.81887" lon="3.50678">
        <ele>307</ele>
        <time>2024-05-01T11:33:51Z</time>
      </trkpt>
      <trkpt lat="45.81882" lon="3.50683">
        <ele>307</ele>
        <time>2024-05-01T11:33:52Z</time>
      </trkpt>
      <trkpt lat="45.81876" lon="3.50688">
        <ele>307</ele>
        <time>2024-05-01T11:33:53Z</time>
      </trkpt>
      <trkpt lat="45.8187" lon="3.50693">
        <ele>307</ele>
        <time>2024-05-01T11:33:54Z</time>
      </trkpt>
      <trkpt lat="45.81864" lon="3.50698">
        <ele>307.2</ele>
        <time>2024-05-01T11:33:55Z</time>
      </trkpt>
      <trkpt lat="45.81858" lon="3.50703">
        <ele>307.2</ele>
        <time>2024-05-01T11:33:56Z</time>
      </trkpt>
      <trkpt lat="45.81852" lon="3.50707">
        <ele>307.2</ele>
        <time>2024-05-01T11:33:57Z</time>
      </trkpt>
      <trkpt lat="45.81847" lon="3.50712">
        <ele>307.2</ele>
        <time>2024-05-01T11:33:58Z</time>
      </trkpt>
      <trkpt lat="45.81841" lon="3.50717">
        <ele>307.2</ele>
        <time>2024-05-01T11:33:59Z</time>
      </trkpt>
      <trkpt lat="45.81835" lon="3.50722">
        <ele>307.2</ele>
        <time>2024-05-01T11:34:00Z</time>
      </trkpt>
      <trkpt lat="45.81829" lon="3.50727">
        <ele>307.2</ele>
        <time>2024-05-01T11:34:01Z</time>
      </trkpt>
      <trkpt lat="45.81823" lon="3.50731">
        <ele>307.2</ele>
        <time>2024-05-01T11:34:02Z</time>
      </trkpt>
      <trkpt lat="45.81818" lon="3.50736">
        <ele>307.2</ele>
        <time>2024-05-01T11:34:03Z</time>
      </trkpt>
      <trkpt lat="45.81812" lon="3.50741">
        <ele>307.2</ele>
        <time>2024-05-01T11:34:04Z</time>
      </trkpt>
      <trkpt lat="45.81806" lon="3.50746">
        <ele>307.2</ele>
        <time>2024-05-01T11:34:05Z</time>
      </trkpt>
      <trkpt lat="45.818" lon="3.5075">
        <ele>307.2</ele>
        <time>2024-05-01T11:34:06Z</time>
      </trkpt>
      <trkpt lat="45.81795" lon="3.50755">
        <ele>307.2</ele>
        <time>2024-05-01T11:34:07Z</time>
      </trkpt>
      <trkpt lat="45.81789" lon="3.5076">
        <ele>307.4</ele>
        <time>2024-05-01T11:34:08Z</time>
      </trkpt>
      <trkpt lat="45.81784" lon="3.50764">
        <ele>307.4</ele>
        <time>2024-05-01T11:34:09Z</time>
      </trkpt>
      <trkpt lat="45.81778" lon="3.50769">
        <ele>307.4</ele>
        <time>2024-05-01T11:34:10Z</time>
      </trkpt>
      <trkpt lat="45.81772" lon="3.50774">
        <ele>307.4</ele>
        <time>2024-05-01T11:34:11Z</time>
      </trkpt>
      <trkpt lat="45.81766" lon="3.50779">
        <ele>307.4</ele>
        <time>2024-05-01T11:34:12Z</time>
      </trkpt>
      <trkpt lat="45.8176" lon="3.50784">
        <ele>307.4</ele>
        <time>2024-05-01T11:34:13Z</time>
      </trkpt>
      <trkpt lat="45.81754" lon="3.50789">
        <ele>307.4</ele>
        <time>2024-05-01T11:34:14Z</time>
      </trkpt>
      <trkpt lat="45.81749" lon="3.50794">
        <ele>307.4</ele>
        <time>2024-05-01T11:34:15Z</time>
      </trkpt>
      <trkpt lat="45.81743" lon="3.50799">
        <ele>307.4</ele>
        <time>2024-05-01T11:34:16Z</time>
      </trkpt>
      <trkpt lat="45.81737" lon="3.50804">
        <ele>307.4</ele>
        <time>2024-05-01T11:34:17Z</time>
      </trkpt>
      <trkpt lat="45.81731" lon="3.50809">
        <ele>307.4</ele>
        <time>2024-05-01T11:34:18Z</time>
      </trkpt>
      <trkpt lat="45.81725" lon="3.50814">
        <ele>307.4</ele>
        <time>2024-05-01T11:34:19Z</time>
      </trkpt>
      <trkpt lat="45.8172" lon="3.50819">
        <ele>307.4</ele>
        <time>2024-05-01T11:34:20Z</time>
      </trkpt>
      <trkpt lat="45.81714" lon="3.50824">
        <ele>307.4</ele>
        <time>2024-05-01T11:34:21Z</time>
      </trkpt>
      <trkpt lat="45.81708" lon="3.50829">
        <ele>307.4</ele>
        <time>2024-05-01T11:34:22Z</time>
      </trkpt>
      <trkpt lat="45.81702" lon="3.50834">
        <ele>307.4</ele>
        <time>2024-05-01T11:34:23Z</time>
      </trkpt>
      <trkpt lat="45.81696" lon="3.50839">
        <ele>307.6</ele>
        <time>2024-05-01T11:34:24Z</time>
      </trkpt>
      <trkpt lat="45.8169" lon="3.50845">
        <ele>307.6</ele>
        <time>2024-05-01T11:34:25Z</time>
      </trkpt>
      <trkpt lat="45.81685" lon="3.5085">
        <ele>307.4</ele>
        <time>2024-05-01T11:34:26Z</time>
      </trkpt>
      <trkpt lat="45.81679" lon="3.50855">
        <ele>307.4</ele>
        <time>2024-05-01T11:34:27Z</time>
      </trkpt>
      <trkpt lat="45.81673" lon="3.5086">
        <ele>307.4</ele>
        <time>2024-05-01T11:34:28Z</time>
      </trkpt>
      <trkpt lat="45.81667" lon="3.50865">
        <ele>307.2</ele>
        <time>2024-05-01T11:34:29Z</time>
      </trkpt>
      <trkpt lat="45.81661" lon="3.5087">
        <ele>307.2</ele>
        <time>2024-05-01T11:34:30Z</time>
      </trkpt>
      <trkpt lat="45.81656" lon="3.50875">
        <ele>307.2</ele>
        <time>2024-05-01T11:34:31Z</time>
      </trkpt>
      <trkpt lat="45.8165" lon="3.5088">
        <ele>307.2</ele>
        <time>2024-05-01T11:34:32Z</time>
      </trkpt>
      <trkpt lat="45.81644" lon="3.50885">
        <ele>307.2</ele>
        <time>2024-05-01T11:34:33Z</time>
      </trkpt>
      <trkpt lat="45.81638" lon="3.5089">
        <ele>307.2</ele>
        <time>2024-05-01T11:34:34Z</time>
      </trkpt>
      <trkpt lat="45.81632" lon="3.50895">
        <ele>307</ele>
        <time>2024-05-01T11:34:35Z</time>
      </trkpt>
      <trkpt lat="45.81626" lon="3.50899">
        <ele>307.2</ele>
        <time>2024-05-01T11:34:36Z</time>
      </trkpt>
      <trkpt lat="45.8162" lon="3.50904">
        <ele>307.2</ele>
        <time>2024-05-01T11:34:37Z</time>
      </trkpt>
      <trkpt lat="45.81614" lon="3.50909">
        <ele>307</ele>
        <time>2024-05-01T11:34:38Z</time>
      </trkpt>
      <trkpt lat="45.81609" lon="3.50914">
        <ele>307</ele>
        <time>2024-05-01T11:34:39Z</time>
      </trkpt>
      <trkpt lat="45.81603" lon="3.50919">
        <ele>307</ele>
        <time>2024-05-01T11:34:40Z</time>
      </trkpt>
      <trkpt lat="45.81597" lon="3.50924">
        <ele>307</ele>
        <time>2024-05-01T11:34:41Z</time>
      </trkpt>
      <trkpt lat="45.81591" lon="3.50929">
        <ele>307.2</ele>
        <time>2024-05-01T11:34:42Z</time>
      </trkpt>
      <trkpt lat="45.81585" lon="3.50934">
        <ele>307.2</ele>
        <time>2024-05-01T11:34:43Z</time>
      </trkpt>
      <trkpt lat="45.81579" lon="3.50939">
        <ele>307.2</ele>
        <time>2024-05-01T11:34:44Z</time>
      </trkpt>
      <trkpt lat="45.81574" lon="3.50944">
        <ele>307.2</ele>
        <time>2024-05-01T11:34:45Z</time>
      </trkpt>
      <trkpt lat="45.81568" lon="3.50949">
        <ele>307</ele>
        <time>2024-05-01T11:34:46Z</time>
      </trkpt>
      <trkpt lat="45.81562" lon="3.50954">
        <ele>307.4</ele>
        <time>2024-05-01T11:34:47Z</time>
      </trkpt>
      <trkpt lat="45.81556" lon="3.50959">
        <ele>307.4</ele>
        <time>2024-05-01T11:34:48Z</time>
      </trkpt>
      <trkpt lat="45.8155" lon="3.50964">
        <ele>307.4</ele>
        <time>2024-05-01T11:34:49Z</time>
      </trkpt>
      <trkpt lat="45.81544" lon="3.50969">
        <ele>307.4</ele>
        <time>2024-05-01T11:34:50Z</time>
      </trkpt>
      <trkpt lat="45.81538" lon="3.50973">
        <ele>307.4</ele>
        <time>2024-05-01T11:34:51Z</time>
      </trkpt>
      <trkpt lat="45.81532" lon="3.50978">
        <ele>307.4</ele>
        <time>2024-05-01T11:34:52Z</time>
      </trkpt>
      <trkpt lat="45.81527" lon="3.50983">
        <ele>307.4</ele>
        <time>2024-05-01T11:34:53Z</time>
      </trkpt>
      <trkpt lat="45.81521" lon="3.50988">
        <ele>307.6</ele>
        <time>2024-05-01T11:34:54Z</time>
      </trkpt>
      <trkpt lat="45.81515" lon="3.50993">
        <ele>307.6</ele>
        <time>2024-05-01T11:34:55Z</time>
      </trkpt>
      <trkpt lat="45.8151" lon="3.50998">
        <ele>307.4</ele>
        <time>2024-05-01T11:34:56Z</time>
      </trkpt>
      <trkpt lat="45.81504" lon="3.51002">
        <ele>307.6</ele>
        <time>2024-05-01T11:34:57Z</time>
      </trkpt>
      <trkpt lat="45.81498" lon="3.51007">
        <ele>307.6</ele>
        <time>2024-05-01T11:34:58Z</time>
      </trkpt>
      <trkpt lat="45.81493" lon="3.51012">
        <ele>307.6</ele>
        <time>2024-05-01T11:34:59Z</time>
      </trkpt>
      <trkpt lat="45.81487" lon="3.51017">
        <ele>307.6</ele>
        <time>2024-05-01T11:35:00Z</time>
      </trkpt>
      <trkpt lat="45.81482" lon="3.51021">
        <ele>307.6</ele>
        <time>2024-05-01T11:35:01Z</time>
      </trkpt>
      <trkpt lat="45.81476" lon="3.51026">
        <ele>307.6</ele>
        <time>2024-05-01T11:35:02Z</time>
      </trkpt>
      <trkpt lat="45.8147" lon="3.51031">
        <ele>307.6</ele>
        <time>2024-05-01T11:35:03Z</time>
      </trkpt>
      <trkpt lat="45.81465" lon="3.51036">
        <ele>307.6</ele>
        <time>2024-05-01T11:35:04Z</time>
      </trkpt>
      <trkpt lat="45.81459" lon="3.5104">
        <ele>307.6</ele>
        <time>2024-05-01T11:35:05Z</time>
      </trkpt>
      <trkpt lat="45.81454" lon="3.51045">
        <ele>307.6</ele>
        <time>2024-05-01T11:35:06Z</time>
      </trkpt>
      <trkpt lat="45.81448" lon="3.5105">
        <ele>307.6</ele>
        <time>2024-05-01T11:35:07Z</time>
      </trkpt>
      <trkpt lat="45.81443" lon="3.51054">
        <ele>307.6</ele>
        <time>2024-05-01T11:35:08Z</time>
      </trkpt>
      <trkpt lat="45.81437" lon="3.51059">
        <ele>307.6</ele>
        <time>2024-05-01T11:35:09Z</time>
      </trkpt>
      <trkpt lat="45.81432" lon="3.51064">
        <ele>307.6</ele>
        <time>2024-05-01T11:35:10Z</time>
      </trkpt>
      <trkpt lat="45.81426" lon="3.51068">
        <ele>307.6</ele>
        <time>2024-05-01T11:35:11Z</time>
      </trkpt>
      <trkpt lat="45.8142" lon="3.51073">
        <ele>307.8</ele>
        <time>2024-05-01T11:35:12Z</time>
      </trkpt>
      <trkpt lat="45.81415" lon="3.51078">
        <ele>307.6</ele>
        <time>2024-05-01T11:35:13Z</time>
      </trkpt>
      <trkpt lat="45.81409" lon="3.51082">
        <ele>307.6</ele>
        <time>2024-05-01T11:35:14Z</time>
      </trkpt>
      <trkpt lat="45.81404" lon="3.51087">
        <ele>307.8</ele>
        <time>2024-05-01T11:35:15Z</time>
      </trkpt>
      <trkpt lat="45.81398" lon="3.51091">
        <ele>307.8</ele>
        <time>2024-05-01T11:35:16Z</time>
      </trkpt>
      <trkpt lat="45.81393" lon="3.51096">
        <ele>307.8</ele>
        <time>2024-05-01T11:35:17Z</time>
      </trkpt>
      <trkpt lat="45.81387" lon="3.51101">
        <ele>307.8</ele>
        <time>2024-05-01T11:35:18Z</time>
      </trkpt>
      <trkpt lat="45.81382" lon="3.51105">
        <ele>307.8</ele>
        <time>2024-05-01T11:35:19Z</time>
      </trkpt>
      <trkpt lat="45.81376" lon="3.5111">
        <ele>307.8</ele>
        <time>2024-05-01T11:35:20Z</time>
      </trkpt>
      <trkpt lat="45.8137" lon="3.51115">
        <ele>307.8</ele>
        <time>2024-05-01T11:35:21Z</time>
      </trkpt>
      <trkpt lat="45.81365" lon="3.5112">
        <ele>307.8</ele>
        <time>2024-05-01T11:35:22Z</time>
      </trkpt>
      <trkpt lat="45.81359" lon="3.51125">
        <ele>307.8</ele>
        <time>2024-05-01T11:35:23Z</time>
      </trkpt>
      <trkpt lat="45.81353" lon="3.5113">
        <ele>307.8</ele>
        <time>2024-05-01T11:35:24Z</time>
      </trkpt>
      <trkpt lat="45.81347" lon="3.51134">
        <ele>308</ele>
        <time>2024-05-01T11:35:25Z</time>
      </trkpt>
      <trkpt lat="45.81342" lon="3.51139">
        <ele>308</ele>
        <time>2024-05-01T11:35:26Z</time>
      </trkpt>
      <trkpt lat="45.81336" lon="3.51144">
        <ele>308</ele>
        <time>2024-05-01T11:35:27Z</time>
      </trkpt>
      <trkpt lat="45.8133" lon="3.51149">
        <ele>308</ele>
        <time>2024-05-01T11:35:28Z</time>
      </trkpt>
      <trkpt lat="45.81325" lon="3.51153">
        <ele>308</ele>
        <time>2024-05-01T11:35:29Z</time>
      </trkpt>
      <trkpt lat="45.81319" lon="3.51158">
        <ele>308</ele>
        <time>2024-05-01T11:35:30Z</time>
      </trkpt>
      <trkpt lat="45.81314" lon="3.51163">
        <ele>308</ele>
        <time>2024-05-01T11:35:31Z</time>
      </trkpt>
      <trkpt lat="45.81308" lon="3.51168">
        <ele>308</ele>
        <time>2024-05-01T11:35:32Z</time>
      </trkpt>
      <trkpt lat="45.81302" lon="3.51172">
        <ele>308</ele>
        <time>2024-05-01T11:35:33Z</time>
      </trkpt>
      <trkpt lat="45.81297" lon="3.51177">
        <ele>308</ele>
        <time>2024-05-01T11:35:34Z</time>
      </trkpt>
      <trkpt lat="45.81291" lon="3.51182">
        <ele>308.2</ele>
        <time>2024-05-01T11:35:35Z</time>
      </trkpt>
      <trkpt lat="45.81286" lon="3.51186">
        <ele>308.2</ele>
        <time>2024-05-01T11:35:36Z</time>
      </trkpt>
      <trkpt lat="45.8128" lon="3.51191">
        <ele>308.2</ele>
        <time>2024-05-01T11:35:37Z</time>
      </trkpt>
      <trkpt lat="45.81275" lon="3.51196">
        <ele>308.2</ele>
        <time>2024-05-01T11:35:38Z</time>
      </trkpt>
      <trkpt lat="45.81269" lon="3.512">
        <ele>308.4</ele>
        <time>2024-05-01T11:35:39Z</time>
      </trkpt>
      <trkpt lat="45.81264" lon="3.51205">
        <ele>308.4</ele>
        <time>2024-05-01T11:35:40Z</time>
      </trkpt>
      <trkpt lat="45.81258" lon="3.5121">
        <ele>308.4</ele>
        <time>2024-05-01T11:35:41Z</time>
      </trkpt>
      <trkpt lat="45.81252" lon="3.51214">
        <ele>308.4</ele>
        <time>2024-05-01T11:35:42Z</time>
      </trkpt>
      <trkpt lat="45.81247" lon="3.51219">
        <ele>308.4</ele>
        <time>2024-05-01T11:35:43Z</time>
      </trkpt>
      <trkpt lat="45.81242" lon="3.51224">
        <ele>308.4</ele>
        <time>2024-05-01T11:35:44Z</time>
      </trkpt>
      <trkpt lat="45.81236" lon="3.51228">
        <ele>308.4</ele>
        <time>2024-05-01T11:35:45Z</time>
      </trkpt>
      <trkpt lat="45.8123" lon="3.51233">
        <ele>308.4</ele>
        <time>2024-05-01T11:35:46Z</time>
      </trkpt>
      <trkpt lat="45.81225" lon="3.51238">
        <ele>308.4</ele>
        <time>2024-05-01T11:35:47Z</time>
      </trkpt>
      <trkpt lat="45.8122" lon="3.51242">
        <ele>308.4</ele>
        <time>2024-05-01T11:35:48Z</time>
      </trkpt>
      <trkpt lat="45.81214" lon="3.51247">
        <ele>308.4</ele>
        <time>2024-05-01T11:35:49Z</time>
      </trkpt>
      <trkpt lat="45.81209" lon="3.51251">
        <ele>308.4</ele>
        <time>2024-05-01T11:35:50Z</time>
      </trkpt>
      <trkpt lat="45.81204" lon="3.51256">
        <ele>308.6</ele>
        <time>2024-05-01T11:35:51Z</time>
      </trkpt>
      <trkpt lat="45.81199" lon="3.5126">
        <ele>308.6</ele>
        <time>2024-05-01T11:35:52Z</time>
      </trkpt>
      <trkpt lat="45.81194" lon="3.51264">
        <ele>308.6</ele>
        <time>2024-05-01T11:35:53Z</time>
      </trkpt>
      <trkpt lat="45.81188" lon="3.51269">
        <ele>308.4</ele>
        <time>2024-05-01T11:35:54Z</time>
      </trkpt>
      <trkpt lat="45.81183" lon="3.51274">
        <ele>308.4</ele>
        <time>2024-05-01T11:35:55Z</time>
      </trkpt>
      <trkpt lat="45.81177" lon="3.51278">
        <ele>308.4</ele>
        <time>2024-05-01T11:35:56Z</time>
      </trkpt>
      <trkpt lat="45.81172" lon="3.51283">
        <ele>308.4</ele>
        <time>2024-05-01T11:35:57Z</time>
      </trkpt>
      <trkpt lat="45.81166" lon="3.51287">
        <ele>308.4</ele>
        <time>2024-05-01T11:35:58Z</time>
      </trkpt>
      <trkpt lat="45.81161" lon="3.51292">
        <ele>308.6</ele>
        <time>2024-05-01T11:35:59Z</time>
      </trkpt>
      <trkpt lat="45.81156" lon="3.51297">
        <ele>308.4</ele>
        <time>2024-05-01T11:36:00Z</time>
      </trkpt>
      <trkpt lat="45.8115" lon="3.51302">
        <ele>308.2</ele>
        <time>2024-05-01T11:36:01Z</time>
      </trkpt>
      <trkpt lat="45.81144" lon="3.51306">
        <ele>308</ele>
        <time>2024-05-01T11:36:02Z</time>
      </trkpt>
      <trkpt lat="45.81139" lon="3.51311">
        <ele>308.2</ele>
        <time>2024-05-01T11:36:03Z</time>
      </trkpt>
      <trkpt lat="45.81133" lon="3.51316">
        <ele>308.2</ele>
        <time>2024-05-01T11:36:04Z</time>
      </trkpt>
      <trkpt lat="45.81128" lon="3.5132">
        <ele>308.2</ele>
        <time>2024-05-01T11:36:05Z</time>
      </trkpt>
      <trkpt lat="45.81123" lon="3.51325">
        <ele>308</ele>
        <time>2024-05-01T11:36:06Z</time>
      </trkpt>
      <trkpt lat="45.81117" lon="3.51329">
        <ele>308</ele>
        <time>2024-05-01T11:36:07Z</time>
      </trkpt>
      <trkpt lat="45.81112" lon="3.51334">
        <ele>308.2</ele>
        <time>2024-05-01T11:36:08Z</time>
      </trkpt>
      <trkpt lat="45.81106" lon="3.51339">
        <ele>308</ele>
        <time>2024-05-01T11:36:09Z</time>
      </trkpt>
      <trkpt lat="45.81101" lon="3.51343">
        <ele>308</ele>
        <time>2024-05-01T11:36:10Z</time>
      </trkpt>
      <trkpt lat="45.81096" lon="3.51348">
        <ele>308</ele>
        <time>2024-05-01T11:36:11Z</time>
      </trkpt>
      <trkpt lat="45.81091" lon="3.51352">
        <ele>308</ele>
        <time>2024-05-01T11:36:12Z</time>
      </trkpt>
      <trkpt lat="45.81085" lon="3.51357">
        <ele>307.8</ele>
        <time>2024-05-01T11:36:13Z</time>
      </trkpt>
      <trkpt lat="45.8108" lon="3.51361">
        <ele>307.8</ele>
        <time>2024-05-01T11:36:14Z</time>
      </trkpt>
      <trkpt lat="45.81075" lon="3.51365">
        <ele>307.8</ele>
        <time>2024-05-01T11:36:15Z</time>
      </trkpt>
      <trkpt lat="45.81069" lon="3.5137">
        <ele>307.8</ele>
        <time>2024-05-01T11:36:16Z</time>
      </trkpt>
      <trkpt lat="45.81064" lon="3.51375">
        <ele>307.6</ele>
        <time>2024-05-01T11:36:17Z</time>
      </trkpt>
      <trkpt lat="45.81059" lon="3.51379">
        <ele>307.6</ele>
        <time>2024-05-01T11:36:18Z</time>
      </trkpt>
      <trkpt lat="45.81053" lon="3.51384">
        <ele>307.6</ele>
        <time>2024-05-01T11:36:19Z</time>
      </trkpt>
      <trkpt lat="45.81048" lon="3.51388">
        <ele>307.6</ele>
        <time>2024-05-01T11:36:20Z</time>
      </trkpt>
      <trkpt lat="45.81043" lon="3.51393">
        <ele>307.6</ele>
        <time>2024-05-01T11:36:21Z</time>
      </trkpt>
      <trkpt lat="45.81038" lon="3.51397">
        <ele>307.6</ele>
        <time>2024-05-01T11:36:22Z</time>
      </trkpt>
      <trkpt lat="45.81032" lon="3.51402">
        <ele>307.6</ele>
        <time>2024-05-01T11:36:23Z</time>
      </trkpt>
      <trkpt lat="45.81027" lon="3.51406">
        <ele>307.6</ele>
        <time>2024-05-01T11:36:24Z</time>
      </trkpt>
      <trkpt lat="45.81021" lon="3.51411">
        <ele>307.6</ele>
        <time>2024-05-01T11:36:25Z</time>
      </trkpt>
      <trkpt lat="45.81016" lon="3.51416">
        <ele>307.6</ele>
        <time>2024-05-01T11:36:26Z</time>
      </trkpt>
      <trkpt lat="45.8101" lon="3.51421">
        <ele>307.6</ele>
        <time>2024-05-01T11:36:27Z</time>
      </trkpt>
      <trkpt lat="45.81005" lon="3.51425">
        <ele>307.6</ele>
        <time>2024-05-01T11:36:28Z</time>
      </trkpt>
      <trkpt lat="45.80999" lon="3.5143">
        <ele>307.8</ele>
        <time>2024-05-01T11:36:29Z</time>
      </trkpt>
      <trkpt lat="45.80993" lon="3.51435">
        <ele>307.6</ele>
        <time>2024-05-01T11:36:30Z</time>
      </trkpt>
      <trkpt lat="45.80987" lon="3.51439">
        <ele>307.6</ele>
        <time>2024-05-01T11:36:31Z</time>
      </trkpt>
      <trkpt lat="45.80981" lon="3.51443">
        <ele>307.6</ele>
        <time>2024-05-01T11:36:32Z</time>
      </trkpt>
      <trkpt lat="45.80975" lon="3.51447">
        <ele>307.6</ele>
        <time>2024-05-01T11:36:33Z</time>
      </trkpt>
      <trkpt lat="45.80969" lon="3.51451">
        <ele>307.6</ele>
        <time>2024-05-01T11:36:34Z</time>
      </trkpt>
      <trkpt lat="45.80964" lon="3.51455">
        <ele>307.6</ele>
        <time>2024-05-01T11:36:35Z</time>
      </trkpt>
      <trkpt lat="45.80958" lon="3.51459">
        <ele>307.6</ele>
        <time>2024-05-01T11:36:36Z</time>
      </trkpt>
      <trkpt lat="45.80952" lon="3.51464">
        <ele>307.6</ele>
        <time>2024-05-01T11:36:37Z</time>
      </trkpt>
      <trkpt lat="45.80946" lon="3.51468">
        <ele>307.6</ele>
        <time>2024-05-01T11:36:38Z</time>
      </trkpt>
      <trkpt lat="45.8094" lon="3.51472">
        <ele>307.6</ele>
        <time>2024-05-01T11:36:39Z</time>
      </trkpt>
      <trkpt lat="45.80933" lon="3.51476">
        <ele>307.6</ele>
        <time>2024-05-01T11:36:40Z</time>
      </trkpt>
      <trkpt lat="45.80927" lon="3.5148">
        <ele>307.4</ele>
        <time>2024-05-01T11:36:41Z</time>
      </trkpt>
      <trkpt lat="45.80921" lon="3.51484">
        <ele>307.6</ele>
        <time>2024-05-01T11:36:42Z</time>
      </trkpt>
      <trkpt lat="45.80915" lon="3.51488">
        <ele>307.6</ele>
        <time>2024-05-01T11:36:43Z</time>
      </trkpt>
      <trkpt lat="45.80909" lon="3.51492">
        <ele>307.6</ele>
        <time>2024-05-01T11:36:44Z</time>
      </trkpt>
      <trkpt lat="45.80903" lon="3.51495">
        <ele>307.4</ele>
        <time>2024-05-01T11:36:45Z</time>
      </trkpt>
      <trkpt lat="45.80897" lon="3.51498">
        <ele>307.4</ele>
        <time>2024-05-01T11:36:46Z</time>
      </trkpt>
      <trkpt lat="45.8089" lon="3.515">
        <ele>307.4</ele>
        <time>2024-05-01T11:36:47Z</time>
      </trkpt>
      <trkpt lat="45.80884" lon="3.51503">
        <ele>307.4</ele>
        <time>2024-05-01T11:36:48Z</time>
      </trkpt>
      <trkpt lat="45.80877" lon="3.51506">
        <ele>307.4</ele>
        <time>2024-05-01T11:36:49Z</time>
      </trkpt>
      <trkpt lat="45.80871" lon="3.51509">
        <ele>307.4</ele>
        <time>2024-05-01T11:36:50Z</time>
      </trkpt>
      <trkpt lat="45.80865" lon="3.51511">
        <ele>307.4</ele>
        <time>2024-05-01T11:36:51Z</time>
      </trkpt>
      <trkpt lat="45.80858" lon="3.51514">
        <ele>307.2</ele>
        <time>2024-05-01T11:36:52Z</time>
      </trkpt>
      <trkpt lat="45.80852" lon="3.51517">
        <ele>307.2</ele>
        <time>2024-05-01T11:36:53Z</time>
      </trkpt>
      <trkpt lat="45.80845" lon="3.51519">
        <ele>307.2</ele>
        <time>2024-05-01T11:36:54Z</time>
      </trkpt>
      <trkpt lat="45.80839" lon="3.51521">
        <ele>307.2</ele>
        <time>2024-05-01T11:36:55Z</time>
      </trkpt>
      <trkpt lat="45.80832" lon="3.51523">
        <ele>307.2</ele>
        <time>2024-05-01T11:36:56Z</time>
      </trkpt>
      <trkpt lat="45.80826" lon="3.51524">
        <ele>307.2</ele>
        <time>2024-05-01T11:36:57Z</time>
      </trkpt>
      <trkpt lat="45.8082" lon="3.51526">
        <ele>307</ele>
        <time>2024-05-01T11:36:58Z</time>
      </trkpt>
      <trkpt lat="45.80813" lon="3.51528">
        <ele>307</ele>
        <time>2024-05-01T11:36:59Z</time>
      </trkpt>
      <trkpt lat="45.80807" lon="3.5153">
        <ele>307</ele>
        <time>2024-05-01T11:37:00Z</time>
      </trkpt>
      <trkpt lat="45.80801" lon="3.51531">
        <ele>307</ele>
        <time>2024-05-01T11:37:01Z</time>
      </trkpt>
      <trkpt lat="45.80795" lon="3.51533">
        <ele>307.2</ele>
        <time>2024-05-01T11:37:02Z</time>
      </trkpt>
      <trkpt lat="45.80789" lon="3.51534">
        <ele>307.2</ele>
        <time>2024-05-01T11:37:03Z</time>
      </trkpt>
      <trkpt lat="45.80783" lon="3.51535">
        <ele>307.2</ele>
        <time>2024-05-01T11:37:04Z</time>
      </trkpt>
      <trkpt lat="45.80777" lon="3.51537">
        <ele>307.2</ele>
        <time>2024-05-01T11:37:05Z</time>
      </trkpt>
      <trkpt lat="45.80771" lon="3.51538">
        <ele>307.2</ele>
        <time>2024-05-01T11:37:06Z</time>
      </trkpt>
      <trkpt lat="45.80765" lon="3.5154">
        <ele>307</ele>
        <time>2024-05-01T11:37:07Z</time>
      </trkpt>
      <trkpt lat="45.80758" lon="3.51541">
        <ele>307</ele>
        <time>2024-05-01T11:37:08Z</time>
      </trkpt>
      <trkpt lat="45.80752" lon="3.51542">
        <ele>306.8</ele>
        <time>2024-05-01T11:37:09Z</time>
      </trkpt>
      <trkpt lat="45.80746" lon="3.51544">
        <ele>306.8</ele>
        <time>2024-05-01T11:37:10Z</time>
      </trkpt>
      <trkpt lat="45.8074" lon="3.51545">
        <ele>306.6</ele>
        <time>2024-05-01T11:37:11Z</time>
      </trkpt>
      <trkpt lat="45.80734" lon="3.51546">
        <ele>306.4</ele>
        <time>2024-05-01T11:37:12Z</time>
      </trkpt>
      <trkpt lat="45.80727" lon="3.51548">
        <ele>306.2</ele>
        <time>2024-05-01T11:37:13Z</time>
      </trkpt>
      <trkpt lat="45.80721" lon="3.51549">
        <ele>306</ele>
        <time>2024-05-01T11:37:14Z</time>
      </trkpt>
      <trkpt lat="45.80715" lon="3.5155">
        <ele>306</ele>
        <time>2024-05-01T11:37:15Z</time>
      </trkpt>
      <trkpt lat="45.80709" lon="3.51552">
        <ele>305.8</ele>
        <time>2024-05-01T11:37:16Z</time>
      </trkpt>
      <trkpt lat="45.80703" lon="3.51553">
        <ele>305.6</ele>
        <time>2024-05-01T11:37:17Z</time>
      </trkpt>
      <trkpt lat="45.80697" lon="3.51554">
        <ele>305.6</ele>
        <time>2024-05-01T11:37:18Z</time>
      </trkpt>
      <trkpt lat="45.80691" lon="3.51556">
        <ele>305.4</ele>
        <time>2024-05-01T11:37:19Z</time>
      </trkpt>
      <trkpt lat="45.80684" lon="3.51557">
        <ele>305.2</ele>
        <time>2024-05-01T11:37:20Z</time>
      </trkpt>
      <trkpt lat="45.80678" lon="3.51558">
        <ele>305.2</ele>
        <time>2024-05-01T11:37:21Z</time>
      </trkpt>
      <trkpt lat="45.80672" lon="3.5156">
        <ele>305</ele>
        <time>2024-05-01T11:37:22Z</time>
      </trkpt>
      <trkpt lat="45.80666" lon="3.51561">
        <ele>305</ele>
        <time>2024-05-01T11:37:23Z</time>
      </trkpt>
      <trkpt lat="45.8066" lon="3.51563">
        <ele>304.8</ele>
        <time>2024-05-01T11:37:24Z</time>
      </trkpt>
      <trkpt lat="45.80654" lon="3.51564">
        <ele>304.8</ele>
        <time>2024-05-01T11:37:25Z</time>
      </trkpt>
      <trkpt lat="45.80648" lon="3.51565">
        <ele>304.8</ele>
        <time>2024-05-01T11:37:26Z</time>
      </trkpt>
      <trkpt lat="45.80642" lon="3.51566">
        <ele>304.8</ele>
        <time>2024-05-01T11:37:27Z</time>
      </trkpt>
      <trkpt lat="45.80635" lon="3.51568">
        <ele>304.8</ele>
        <time>2024-05-01T11:37:28Z</time>
      </trkpt>
      <trkpt lat="45.80629" lon="3.51569">
        <ele>304.6</ele>
        <time>2024-05-01T11:37:29Z</time>
      </trkpt>
      <trkpt lat="45.80623" lon="3.51571">
        <ele>304.6</ele>
        <time>2024-05-01T11:37:30Z</time>
      </trkpt>
      <trkpt lat="45.80617" lon="3.51572">
        <ele>304.6</ele>
        <time>2024-05-01T11:37:31Z</time>
      </trkpt>
      <trkpt lat="45.80611" lon="3.51573">
        <ele>304.8</ele>
        <time>2024-05-01T11:37:32Z</time>
      </trkpt>
      <trkpt lat="45.80604" lon="3.51575">
        <ele>304.8</ele>
        <time>2024-05-01T11:37:33Z</time>
      </trkpt>
      <trkpt lat="45.80598" lon="3.51576">
        <ele>305</ele>
        <time>2024-05-01T11:37:34Z</time>
      </trkpt>
      <trkpt lat="45.80592" lon="3.51577">
        <ele>305</ele>
        <time>2024-05-01T11:37:35Z</time>
      </trkpt>
      <trkpt lat="45.80585" lon="3.51579">
        <ele>305</ele>
        <time>2024-05-01T11:37:36Z</time>
      </trkpt>
      <trkpt lat="45.80579" lon="3.5158">
        <ele>305</ele>
        <time>2024-05-01T11:37:37Z</time>
      </trkpt>
      <trkpt lat="45.80573" lon="3.51582">
        <ele>305</ele>
        <time>2024-05-01T11:37:38Z</time>
      </trkpt>
      <trkpt lat="45.80567" lon="3.51583">
        <ele>305</ele>
        <time>2024-05-01T11:37:39Z</time>
      </trkpt>
      <trkpt lat="45.8056" lon="3.51584">
        <ele>305</ele>
        <time>2024-05-01T11:37:40Z</time>
      </trkpt>
      <trkpt lat="45.80554" lon="3.51586">
        <ele>304</ele>
        <time>2024-05-01T11:37:41Z</time>
      </trkpt>
      <trkpt lat="45.80547" lon="3.51587">
        <ele>304</ele>
        <time>2024-05-01T11:37:42Z</time>
      </trkpt>
      <trkpt lat="45.80541" lon="3.51589">
        <ele>304</ele>
        <time>2024-05-01T11:37:43Z</time>
      </trkpt>
      <trkpt lat="45.80534" lon="3.51591">
        <ele>304.6</ele>
        <time>2024-05-01T11:37:44Z</time>
      </trkpt>
      <trkpt lat="45.80528" lon="3.51593">
        <ele>304.8</ele>
        <time>2024-05-01T11:37:45Z</time>
      </trkpt>
      <trkpt lat="45.80522" lon="3.51594">
        <ele>305</ele>
        <time>2024-05-01T11:37:46Z</time>
      </trkpt>
      <trkpt lat="45.80516" lon="3.51596">
        <ele>305.2</ele>
        <time>2024-05-01T11:37:47Z</time>
      </trkpt>
      <trkpt lat="45.80509" lon="3.51597">
        <ele>305.4</ele>
        <time>2024-05-01T11:37:48Z</time>
      </trkpt>
      <trkpt lat="45.80503" lon="3.51599">
        <ele>305.2</ele>
        <time>2024-05-01T11:37:49Z</time>
      </trkpt>
      <trkpt lat="45.80497" lon="3.516">
        <ele>305.2</ele>
        <time>2024-05-01T11:37:50Z</time>
      </trkpt>
      <trkpt lat="45.8049" lon="3.51602">
        <ele>305.2</ele>
        <time>2024-05-01T11:37:51Z</time>
      </trkpt>
      <trkpt lat="45.80484" lon="3.51603">
        <ele>305.2</ele>
        <time>2024-05-01T11:37:52Z</time>
      </trkpt>
      <trkpt lat="45.80478" lon="3.51605">
        <ele>305.2</ele>
        <time>2024-05-01T11:37:53Z</time>
      </trkpt>
      <trkpt lat="45.80471" lon="3.51607">
        <ele>305.2</ele>
        <time>2024-05-01T11:37:54Z</time>
      </trkpt>
      <trkpt lat="45.80465" lon="3.51609">
        <ele>305.2</ele>
        <time>2024-05-01T11:37:55Z</time>
      </trkpt>
      <trkpt lat="45.80459" lon="3.51611">
        <ele>305.2</ele>
        <time>2024-05-01T11:37:56Z</time>
      </trkpt>
      <trkpt lat="45.80453" lon="3.51613">
        <ele>305.2</ele>
        <time>2024-05-01T11:37:57Z</time>
      </trkpt>
      <trkpt lat="45.80446" lon="3.51616">
        <ele>305.2</ele>
        <time>2024-05-01T11:37:58Z</time>
      </trkpt>
      <trkpt lat="45.8044" lon="3.51618">
        <ele>305.4</ele>
        <time>2024-05-01T11:37:59Z</time>
      </trkpt>
      <trkpt lat="45.80434" lon="3.51619">
        <ele>305.2</ele>
        <time>2024-05-01T11:38:00Z</time>
      </trkpt>
      <trkpt lat="45.80427" lon="3.51621">
        <ele>305.2</ele>
        <time>2024-05-01T11:38:01Z</time>
      </trkpt>
      <trkpt lat="45.80421" lon="3.51623">
        <ele>305.2</ele>
        <time>2024-05-01T11:38:02Z</time>
      </trkpt>
      <trkpt lat="45.80415" lon="3.51625">
        <ele>305.4</ele>
        <time>2024-05-01T11:38:03Z</time>
      </trkpt>
      <trkpt lat="45.80409" lon="3.51627">
        <ele>304.8</ele>
        <time>2024-05-01T11:38:04Z</time>
      </trkpt>
      <trkpt lat="45.80402" lon="3.5163">
        <ele>304.8</ele>
        <time>2024-05-01T11:38:05Z</time>
      </trkpt>
      <trkpt lat="45.80397" lon="3.51634">
        <ele>304.6</ele>
        <time>2024-05-01T11:38:06Z</time>
      </trkpt>
      <trkpt lat="45.80391" lon="3.51639">
        <ele>304.6</ele>
        <time>2024-05-01T11:38:07Z</time>
      </trkpt>
      <trkpt lat="45.80385" lon="3.51643">
        <ele>304.4</ele>
        <time>2024-05-01T11:38:08Z</time>
      </trkpt>
      <trkpt lat="45.80379" lon="3.51647">
        <ele>304.2</ele>
        <time>2024-05-01T11:38:09Z</time>
      </trkpt>
      <trkpt lat="45.80373" lon="3.51652">
        <ele>304.2</ele>
        <time>2024-05-01T11:38:10Z</time>
      </trkpt>
      <trkpt lat="45.80367" lon="3.51656">
        <ele>304.2</ele>
        <time>2024-05-01T11:38:11Z</time>
      </trkpt>
      <trkpt lat="45.80361" lon="3.5166">
        <ele>304</ele>
        <time>2024-05-01T11:38:12Z</time>
      </trkpt>
      <trkpt lat="45.80356" lon="3.51664">
        <ele>303.8</ele>
        <time>2024-05-01T11:38:13Z</time>
      </trkpt>
      <trkpt lat="45.8035" lon="3.51669">
        <ele>303.8</ele>
        <time>2024-05-01T11:38:14Z</time>
      </trkpt>
      <trkpt lat="45.80344" lon="3.51673">
        <ele>303.6</ele>
        <time>2024-05-01T11:38:15Z</time>
      </trkpt>
      <trkpt lat="45.80338" lon="3.51677">
        <ele>303.4</ele>
        <time>2024-05-01T11:38:16Z</time>
      </trkpt>
      <trkpt lat="45.80332" lon="3.51681">
        <ele>303.2</ele>
        <time>2024-05-01T11:38:17Z</time>
      </trkpt>
      <trkpt lat="45.80326" lon="3.51686">
        <ele>303.2</ele>
        <time>2024-05-01T11:38:18Z</time>
      </trkpt>
      <trkpt lat="45.80321" lon="3.5169">
        <ele>303</ele>
        <time>2024-05-01T11:38:19Z</time>
      </trkpt>
      <trkpt lat="45.80315" lon="3.51694">
        <ele>302.8</ele>
        <time>2024-05-01T11:38:20Z</time>
      </trkpt>
      <trkpt lat="45.80309" lon="3.51698">
        <ele>302.8</ele>
        <time>2024-05-01T11:38:21Z</time>
      </trkpt>
      <trkpt lat="45.80303" lon="3.51703">
        <ele>302.8</ele>
        <time>2024-05-01T11:38:22Z</time>
      </trkpt>
      <trkpt lat="45.80297" lon="3.51707">
        <ele>302.6</ele>
        <time>2024-05-01T11:38:23Z</time>
      </trkpt>
      <trkpt lat="45.80291" lon="3.51712">
        <ele>302.6</ele>
        <time>2024-05-01T11:38:24Z</time>
      </trkpt>
      <trkpt lat="45.80285" lon="3.51717">
        <ele>302.4</ele>
        <time>2024-05-01T11:38:25Z</time>
      </trkpt>
      <trkpt lat="45.8028" lon="3.51722">
        <ele>302.4</ele>
        <time>2024-05-01T11:38:26Z</time>
      </trkpt>
      <trkpt lat="45.80274" lon="3.51728">
        <ele>302.2</ele>
        <time>2024-05-01T11:38:27Z</time>
      </trkpt>
      <trkpt lat="45.80268" lon="3.51733">
        <ele>302.2</ele>
        <time>2024-05-01T11:38:28Z</time>
      </trkpt>
      <trkpt lat="45.80262" lon="3.51738">
        <ele>302</ele>
        <time>2024-05-01T11:38:29Z</time>
      </trkpt>
      <trkpt lat="45.80256" lon="3.51744">
        <ele>301.8</ele>
        <time>2024-05-01T11:38:30Z</time>
      </trkpt>
      <trkpt lat="45.80251" lon="3.51749">
        <ele>301.6</ele>
        <time>2024-05-01T11:38:31Z</time>
      </trkpt>
      <trkpt lat="45.80245" lon="3.51754">
        <ele>301.6</ele>
        <time>2024-05-01T11:38:32Z</time>
      </trkpt>
      <trkpt lat="45.8024" lon="3.51759">
        <ele>301.4</ele>
        <time>2024-05-01T11:38:33Z</time>
      </trkpt>
      <trkpt lat="45.80234" lon="3.51764">
        <ele>301.4</ele>
        <time>2024-05-01T11:38:34Z</time>
      </trkpt>
      <trkpt lat="45.80228" lon="3.51769">
        <ele>301.2</ele>
        <time>2024-05-01T11:38:35Z</time>
      </trkpt>
      <trkpt lat="45.80223" lon="3.51775">
        <ele>301.2</ele>
        <time>2024-05-01T11:38:36Z</time>
      </trkpt>
      <trkpt lat="45.80217" lon="3.5178">
        <ele>301</ele>
        <time>2024-05-01T11:38:37Z</time>
      </trkpt>
      <trkpt lat="45.80211" lon="3.51785">
        <ele>301</ele>
        <time>2024-05-01T11:38:38Z</time>
      </trkpt>
      <trkpt lat="45.80206" lon="3.5179">
        <ele>300.8</ele>
        <time>2024-05-01T11:38:39Z</time>
      </trkpt>
      <trkpt lat="45.802" lon="3.51795">
        <ele>300.6</ele>
        <time>2024-05-01T11:38:40Z</time>
      </trkpt>
      <trkpt lat="45.80195" lon="3.518">
        <ele>300.6</ele>
        <time>2024-05-01T11:38:41Z</time>
      </trkpt>
      <trkpt lat="45.80189" lon="3.51805">
        <ele>300.4</ele>
        <time>2024-05-01T11:38:42Z</time>
      </trkpt>
      <trkpt lat="45.80184" lon="3.5181">
        <ele>300.2</ele>
        <time>2024-05-01T11:38:43Z</time>
      </trkpt>
      <trkpt lat="45.80178" lon="3.51815">
        <ele>300</ele>
        <time>2024-05-01T11:38:44Z</time>
      </trkpt>
      <trkpt lat="45.80173" lon="3.5182">
        <ele>300</ele>
        <time>2024-05-01T11:38:45Z</time>
      </trkpt>
      <trkpt lat="45.80167" lon="3.51825">
        <ele>299.8</ele>
        <time>2024-05-01T11:38:46Z</time>
      </trkpt>
      <trkpt lat="45.80162" lon="3.5183">
        <ele>299.8</ele>
        <time>2024-05-01T11:38:47Z</time>
      </trkpt>
      <trkpt lat="45.80156" lon="3.51835">
        <ele>299.6</ele>
        <time>2024-05-01T11:38:48Z</time>
      </trkpt>
      <trkpt lat="45.80151" lon="3.5184">
        <ele>299.4</ele>
        <time>2024-05-01T11:38:49Z</time>
      </trkpt>
      <trkpt lat="45.80146" lon="3.51845">
        <ele>299.4</ele>
        <time>2024-05-01T11:38:50Z</time>
      </trkpt>
      <trkpt lat="45.8014" lon="3.5185">
        <ele>299.2</ele>
        <time>2024-05-01T11:38:51Z</time>
      </trkpt>
      <trkpt lat="45.80135" lon="3.51855">
        <ele>299.2</ele>
        <time>2024-05-01T11:38:52Z</time>
      </trkpt>
      <trkpt lat="45.80129" lon="3.5186">
        <ele>299.2</ele>
        <time>2024-05-01T11:38:53Z</time>
      </trkpt>
      <trkpt lat="45.80124" lon="3.51865">
        <ele>299</ele>
        <time>2024-05-01T11:38:54Z</time>
      </trkpt>
      <trkpt lat="45.80118" lon="3.5187">
        <ele>299</ele>
        <time>2024-05-01T11:38:55Z</time>
      </trkpt>
      <trkpt lat="45.80112" lon="3.51875">
        <ele>298.8</ele>
        <time>2024-05-01T11:38:56Z</time>
      </trkpt>
      <trkpt lat="45.80107" lon="3.5188">
        <ele>298.8</ele>
        <time>2024-05-01T11:38:57Z</time>
      </trkpt>
      <trkpt lat="45.80102" lon="3.51885">
        <ele>298.8</ele>
        <time>2024-05-01T11:38:58Z</time>
      </trkpt>
      <trkpt lat="45.80096" lon="3.5189">
        <ele>298.8</ele>
        <time>2024-05-01T11:38:59Z</time>
      </trkpt>
      <trkpt lat="45.80091" lon="3.51895">
        <ele>298.8</ele>
        <time>2024-05-01T11:39:00Z</time>
      </trkpt>
      <trkpt lat="45.80086" lon="3.519">
        <ele>298.8</ele>
        <time>2024-05-01T11:39:01Z</time>
      </trkpt>
      <trkpt lat="45.80081" lon="3.51904">
        <ele>299</ele>
        <time>2024-05-01T11:39:02Z</time>
      </trkpt>
      <trkpt lat="45.80075" lon="3.51909">
        <ele>299</ele>
        <time>2024-05-01T11:39:03Z</time>
      </trkpt>
      <trkpt lat="45.8007" lon="3.51914">
        <ele>299.2</ele>
        <time>2024-05-01T11:39:04Z</time>
      </trkpt>
      <trkpt lat="45.80064" lon="3.51919">
        <ele>299.2</ele>
        <time>2024-05-01T11:39:05Z</time>
      </trkpt>
      <trkpt lat="45.80059" lon="3.51924">
        <ele>299.4</ele>
        <time>2024-05-01T11:39:06Z</time>
      </trkpt>
      <trkpt lat="45.80053" lon="3.51929">
        <ele>299.4</ele>
        <time>2024-05-01T11:39:07Z</time>
      </trkpt>
      <trkpt lat="45.80048" lon="3.51934">
        <ele>298</ele>
        <time>2024-05-01T11:39:08Z</time>
      </trkpt>
      <trkpt lat="45.80043" lon="3.51939">
        <ele>298.6</ele>
        <time>2024-05-01T11:39:09Z</time>
      </trkpt>
      <trkpt lat="45.80037" lon="3.51943">
        <ele>299.4</ele>
        <time>2024-05-01T11:39:10Z</time>
      </trkpt>
      <trkpt lat="45.80032" lon="3.51948">
        <ele>300.2</ele>
        <time>2024-05-01T11:39:11Z</time>
      </trkpt>
      <trkpt lat="45.80026" lon="3.51952">
        <ele>299.8</ele>
        <time>2024-05-01T11:39:12Z</time>
      </trkpt>
      <trkpt lat="45.8002" lon="3.51956">
        <ele>300</ele>
        <time>2024-05-01T11:39:13Z</time>
      </trkpt>
      <trkpt lat="45.80015" lon="3.51961">
        <ele>300.2</ele>
        <time>2024-05-01T11:39:14Z</time>
      </trkpt>
      <trkpt lat="45.80009" lon="3.51965">
        <ele>300.6</ele>
        <time>2024-05-01T11:39:15Z</time>
      </trkpt>
      <trkpt lat="45.80004" lon="3.51969">
        <ele>300.6</ele>
        <time>2024-05-01T11:39:16Z</time>
      </trkpt>
      <trkpt lat="45.79998" lon="3.51973">
        <ele>300.8</ele>
        <time>2024-05-01T11:39:17Z</time>
      </trkpt>
      <trkpt lat="45.79993" lon="3.51978">
        <ele>301</ele>
        <time>2024-05-01T11:39:18Z</time>
      </trkpt>
      <trkpt lat="45.79988" lon="3.51982">
        <ele>301</ele>
        <time>2024-05-01T11:39:19Z</time>
      </trkpt>
      <trkpt lat="45.79983" lon="3.51986">
        <ele>301</ele>
        <time>2024-05-01T11:39:20Z</time>
      </trkpt>
      <trkpt lat="45.79977" lon="3.5199">
        <ele>301.2</ele>
        <time>2024-05-01T11:39:21Z</time>
      </trkpt>
      <trkpt lat="45.79972" lon="3.51994">
        <ele>301.2</ele>
        <time>2024-05-01T11:39:22Z</time>
      </trkpt>
      <trkpt lat="45.79967" lon="3.51998">
        <ele>301.4</ele>
        <time>2024-05-01T11:39:23Z</time>
      </trkpt>
      <trkpt lat="45.79961" lon="3.52002">
        <ele>301.4</ele>
        <time>2024-05-01T11:39:24Z</time>
      </trkpt>
      <trkpt lat="45.79956" lon="3.52006">
        <ele>301.4</ele>
        <time>2024-05-01T11:39:25Z</time>
      </trkpt>
      <trkpt lat="45.79951" lon="3.5201">
        <ele>301.6</ele>
        <time>2024-05-01T11:39:26Z</time>
      </trkpt>
      <trkpt lat="45.79946" lon="3.52014">
        <ele>301.6</ele>
        <time>2024-05-01T11:39:27Z</time>
      </trkpt>
      <trkpt lat="45.79941" lon="3.52018">
        <ele>301.8</ele>
        <time>2024-05-01T11:39:28Z</time>
      </trkpt>
      <trkpt lat="45.79936" lon="3.52022">
        <ele>302</ele>
        <time>2024-05-01T11:39:29Z</time>
      </trkpt>
      <trkpt lat="45.79931" lon="3.52026">
        <ele>302</ele>
        <time>2024-05-01T11:39:30Z</time>
      </trkpt>
      <trkpt lat="45.79926" lon="3.52029">
        <ele>302</ele>
        <time>2024-05-01T11:39:31Z</time>
      </trkpt>
      <trkpt lat="45.79921" lon="3.52033">
        <ele>302.2</ele>
        <time>2024-05-01T11:39:32Z</time>
      </trkpt>
      <trkpt lat="45.79916" lon="3.52037">
        <ele>302.2</ele>
        <time>2024-05-01T11:39:33Z</time>
      </trkpt>
      <trkpt lat="45.79911" lon="3.52041">
        <ele>302.4</ele>
        <time>2024-05-01T11:39:34Z</time>
      </trkpt>
      <trkpt lat="45.79906" lon="3.52045">
        <ele>302.4</ele>
        <time>2024-05-01T11:39:35Z</time>
      </trkpt>
      <trkpt lat="45.79901" lon="3.52049">
        <ele>302.4</ele>
        <time>2024-05-01T11:39:36Z</time>
      </trkpt>
      <trkpt lat="45.79896" lon="3.52053">
        <ele>302.6</ele>
        <time>2024-05-01T11:39:37Z</time>
      </trkpt>
      <trkpt lat="45.79891" lon="3.52057">
        <ele>302.8</ele>
        <time>2024-05-01T11:39:38Z</time>
      </trkpt>
      <trkpt lat="45.79886" lon="3.5206">
        <ele>302.8</ele>
        <time>2024-05-01T11:39:39Z</time>
      </trkpt>
      <trkpt lat="45.79881" lon="3.52064">
        <ele>303</ele>
        <time>2024-05-01T11:39:40Z</time>
      </trkpt>
      <trkpt lat="45.79876" lon="3.52068">
        <ele>303</ele>
        <time>2024-05-01T11:39:41Z</time>
      </trkpt>
      <trkpt lat="45.79871" lon="3.52071">
        <ele>303.2</ele>
        <time>2024-05-01T11:39:42Z</time>
      </trkpt>
      <trkpt lat="45.79866" lon="3.52075">
        <ele>303.2</ele>
        <time>2024-05-01T11:39:43Z</time>
      </trkpt>
      <trkpt lat="45.79861" lon="3.52079">
        <ele>303.4</ele>
        <time>2024-05-01T11:39:44Z</time>
      </trkpt>
      <trkpt lat="45.79856" lon="3.52082">
        <ele>303.4</ele>
        <time>2024-05-01T11:39:45Z</time>
      </trkpt>
      <trkpt lat="45.79851" lon="3.52086">
        <ele>303.6</ele>
        <time>2024-05-01T11:39:46Z</time>
      </trkpt>
      <trkpt lat="45.79846" lon="3.52089">
        <ele>303.6</ele>
        <time>2024-05-01T11:39:47Z</time>
      </trkpt>
      <trkpt lat="45.79841" lon="3.52093">
        <ele>303.8</ele>
        <time>2024-05-01T11:39:48Z</time>
      </trkpt>
      <trkpt lat="45.79836" lon="3.52096">
        <ele>303.8</ele>
        <time>2024-05-01T11:39:49Z</time>
      </trkpt>
      <trkpt lat="45.79832" lon="3.521">
        <ele>303.8</ele>
        <time>2024-05-01T11:39:50Z</time>
      </trkpt>
      <trkpt lat="45.79827" lon="3.52103">
        <ele>303.8</ele>
        <time>2024-05-01T11:39:51Z</time>
      </trkpt>
      <trkpt lat="45.79822" lon="3.52107">
        <ele>303.8</ele>
        <time>2024-05-01T11:39:52Z</time>
      </trkpt>
      <trkpt lat="45.79817" lon="3.52111">
        <ele>304</ele>
        <time>2024-05-01T11:39:53Z</time>
      </trkpt>
      <trkpt lat="45.79812" lon="3.52115">
        <ele>304</ele>
        <time>2024-05-01T11:39:54Z</time>
      </trkpt>
      <trkpt lat="45.79807" lon="3.52118">
        <ele>304</ele>
        <time>2024-05-01T11:39:55Z</time>
      </trkpt>
      <trkpt lat="45.79803" lon="3.52122">
        <ele>304</ele>
        <time>2024-05-01T11:39:56Z</time>
      </trkpt>
      <trkpt lat="45.79798" lon="3.52125">
        <ele>304</ele>
        <time>2024-05-01T11:39:57Z</time>
      </trkpt>
      <trkpt lat="45.79793" lon="3.52129">
        <ele>304</ele>
        <time>2024-05-01T11:39:58Z</time>
      </trkpt>
      <trkpt lat="45.79789" lon="3.52133">
        <ele>304</ele>
        <time>2024-05-01T11:39:59Z</time>
      </trkpt>
      <trkpt lat="45.79784" lon="3.52136">
        <ele>304</ele>
        <time>2024-05-01T11:40:00Z</time>
      </trkpt>
      <trkpt lat="45.79779" lon="3.5214">
        <ele>304</ele>
        <time>2024-05-01T11:40:01Z</time>
      </trkpt>
      <trkpt lat="45.79774" lon="3.52144">
        <ele>304</ele>
        <time>2024-05-01T11:40:02Z</time>
      </trkpt>
      <trkpt lat="45.79769" lon="3.52148">
        <ele>304.2</ele>
        <time>2024-05-01T11:40:03Z</time>
      </trkpt>
      <trkpt lat="45.79763" lon="3.52152">
        <ele>304.2</ele>
        <time>2024-05-01T11:40:04Z</time>
      </trkpt>
      <trkpt lat="45.79758" lon="3.52155">
        <ele>304.6</ele>
        <time>2024-05-01T11:40:05Z</time>
      </trkpt>
      <trkpt lat="45.79753" lon="3.5216">
        <ele>304.8</ele>
        <time>2024-05-01T11:40:06Z</time>
      </trkpt>
      <trkpt lat="45.79747" lon="3.52164">
        <ele>304.8</ele>
        <time>2024-05-01T11:40:07Z</time>
      </trkpt>
      <trkpt lat="45.79742" lon="3.52168">
        <ele>304.8</ele>
        <time>2024-05-01T11:40:08Z</time>
      </trkpt>
      <trkpt lat="45.79737" lon="3.52171">
        <ele>305</ele>
        <time>2024-05-01T11:40:09Z</time>
      </trkpt>
      <trkpt lat="45.79732" lon="3.52175">
        <ele>305</ele>
        <time>2024-05-01T11:40:10Z</time>
      </trkpt>
      <trkpt lat="45.79727" lon="3.52179">
        <ele>305</ele>
        <time>2024-05-01T11:40:11Z</time>
      </trkpt>
      <trkpt lat="45.79722" lon="3.52183">
        <ele>305</ele>
        <time>2024-05-01T11:40:12Z</time>
      </trkpt>
      <trkpt lat="45.79717" lon="3.52187">
        <ele>305.2</ele>
        <time>2024-05-01T11:40:13Z</time>
      </trkpt>
      <trkpt lat="45.79711" lon="3.52191">
        <ele>305.2</ele>
        <time>2024-05-01T11:40:14Z</time>
      </trkpt>
      <trkpt lat="45.79706" lon="3.52195">
        <ele>305.4</ele>
        <time>2024-05-01T11:40:15Z</time>
      </trkpt>
      <trkpt lat="45.797" lon="3.52199">
        <ele>305.8</ele>
        <time>2024-05-01T11:40:16Z</time>
      </trkpt>
      <trkpt lat="45.79695" lon="3.52203">
        <ele>305.8</ele>
        <time>2024-05-01T11:40:17Z</time>
      </trkpt>
      <trkpt lat="45.7969" lon="3.52207">
        <ele>305.8</ele>
        <time>2024-05-01T11:40:18Z</time>
      </trkpt>
      <trkpt lat="45.79684" lon="3.52211">
        <ele>306</ele>
        <time>2024-05-01T11:40:19Z</time>
      </trkpt>
      <trkpt lat="45.79679" lon="3.52215">
        <ele>306</ele>
        <time>2024-05-01T11:40:20Z</time>
      </trkpt>
      <trkpt lat="45.79674" lon="3.52219">
        <ele>306.2</ele>
        <time>2024-05-01T11:40:21Z</time>
      </trkpt>
      <trkpt lat="45.79668" lon="3.52224">
        <ele>306.2</ele>
        <time>2024-05-01T11:40:22Z</time>
      </trkpt>
      <trkpt lat="45.79663" lon="3.52228">
        <ele>306.4</ele>
        <time>2024-05-01T11:40:23Z</time>
      </trkpt>
      <trkpt lat="45.79658" lon="3.52232">
        <ele>306.4</ele>
        <time>2024-05-01T11:40:24Z</time>
      </trkpt>
      <trkpt lat="45.79652" lon="3.52236">
        <ele>306.4</ele>
        <time>2024-05-01T11:40:25Z</time>
      </trkpt>
      <trkpt lat="45.79647" lon="3.5224">
        <ele>306.6</ele>
        <time>2024-05-01T11:40:26Z</time>
      </trkpt>
      <trkpt lat="45.79642" lon="3.52244">
        <ele>306.6</ele>
        <time>2024-05-01T11:40:27Z</time>
      </trkpt>
      <trkpt lat="45.79636" lon="3.52248">
        <ele>306.6</ele>
        <time>2024-05-01T11:40:28Z</time>
      </trkpt>
      <trkpt lat="45.79631" lon="3.52252">
        <ele>306.6</ele>
        <time>2024-05-01T11:40:29Z</time>
      </trkpt>
      <trkpt lat="45.79625" lon="3.52256">
        <ele>306.8</ele>
        <time>2024-05-01T11:40:30Z</time>
      </trkpt>
      <trkpt lat="45.7962" lon="3.5226">
        <ele>306.8</ele>
        <time>2024-05-01T11:40:31Z</time>
      </trkpt>
      <trkpt lat="45.79614" lon="3.52264">
        <ele>307</ele>
        <time>2024-05-01T11:40:32Z</time>
      </trkpt>
      <trkpt lat="45.79609" lon="3.52268">
        <ele>307</ele>
        <time>2024-05-01T11:40:33Z</time>
      </trkpt>
      <trkpt lat="45.79603" lon="3.52273">
        <ele>307</ele>
        <time>2024-05-01T11:40:34Z</time>
      </trkpt>
      <trkpt lat="45.79598" lon="3.52277">
        <ele>307.2</ele>
        <time>2024-05-01T11:40:35Z</time>
      </trkpt>
      <trkpt lat="45.79592" lon="3.52281">
        <ele>307.4</ele>
        <time>2024-05-01T11:40:36Z</time>
      </trkpt>
      <trkpt lat="45.79586" lon="3.52285">
        <ele>307.4</ele>
        <time>2024-05-01T11:40:37Z</time>
      </trkpt>
      <trkpt lat="45.79581" lon="3.5229">
        <ele>307.6</ele>
        <time>2024-05-01T11:40:38Z</time>
      </trkpt>
      <trkpt lat="45.79575" lon="3.52294">
        <ele>307.6</ele>
        <time>2024-05-01T11:40:39Z</time>
      </trkpt>
      <trkpt lat="45.7957" lon="3.52298">
        <ele>307.8</ele>
        <time>2024-05-01T11:40:40Z</time>
      </trkpt>
      <trkpt lat="45.79564" lon="3.52302">
        <ele>307.8</ele>
        <time>2024-05-01T11:40:41Z</time>
      </trkpt>
      <trkpt lat="45.79559" lon="3.52306">
        <ele>307.8</ele>
        <time>2024-05-01T11:40:42Z</time>
      </trkpt>
      <trkpt lat="45.79553" lon="3.52311">
        <ele>308</ele>
        <time>2024-05-01T11:40:43Z</time>
      </trkpt>
      <trkpt lat="45.79548" lon="3.52315">
        <ele>308</ele>
        <time>2024-05-01T11:40:44Z</time>
      </trkpt>
      <trkpt lat="45.79542" lon="3.52319">
        <ele>308</ele>
        <time>2024-05-01T11:40:45Z</time>
      </trkpt>
      <trkpt lat="45.79537" lon="3.52323">
        <ele>308</ele>
        <time>2024-05-01T11:40:46Z</time>
      </trkpt>
      <trkpt lat="45.79531" lon="3.52327">
        <ele>308.2</ele>
        <time>2024-05-01T11:40:47Z</time>
      </trkpt>
      <trkpt lat="45.79526" lon="3.52331">
        <ele>308.2</ele>
        <time>2024-05-01T11:40:48Z</time>
      </trkpt>
      <trkpt lat="45.7952" lon="3.52336">
        <ele>308.2</ele>
        <time>2024-05-01T11:40:49Z</time>
      </trkpt>
      <trkpt lat="45.79515" lon="3.5234">
        <ele>308.2</ele>
        <time>2024-05-01T11:40:50Z</time>
      </trkpt>
      <trkpt lat="45.79509" lon="3.52344">
        <ele>308.4</ele>
        <time>2024-05-01T11:40:51Z</time>
      </trkpt>
      <trkpt lat="45.79504" lon="3.52348">
        <ele>308.4</ele>
        <time>2024-05-01T11:40:52Z</time>
      </trkpt>
      <trkpt lat="45.79498" lon="3.52352">
        <ele>308.4</ele>
        <time>2024-05-01T11:40:53Z</time>
      </trkpt>
      <trkpt lat="45.79493" lon="3.52356">
        <ele>308.4</ele>
        <time>2024-05-01T11:40:54Z</time>
      </trkpt>
      <trkpt lat="45.79487" lon="3.5236">
        <ele>308.4</ele>
        <time>2024-05-01T11:40:55Z</time>
      </trkpt>
      <trkpt lat="45.79482" lon="3.52365">
        <ele>308.4</ele>
        <time>2024-05-01T11:40:56Z</time>
      </trkpt>
      <trkpt lat="45.79476" lon="3.52369">
        <ele>308.6</ele>
        <time>2024-05-01T11:40:57Z</time>
      </trkpt>
      <trkpt lat="45.79471" lon="3.52373">
        <ele>308.6</ele>
        <time>2024-05-01T11:40:58Z</time>
      </trkpt>
      <trkpt lat="45.79466" lon="3.52377">
        <ele>308.6</ele>
        <time>2024-05-01T11:40:59Z</time>
      </trkpt>
      <trkpt lat="45.7946" lon="3.52381">
        <ele>308.8</ele>
        <time>2024-05-01T11:41:00Z</time>
      </trkpt>
      <trkpt lat="45.79455" lon="3.52385">
        <ele>308.8</ele>
        <time>2024-05-01T11:41:01Z</time>
      </trkpt>
      <trkpt lat="45.7945" lon="3.52389">
        <ele>308.8</ele>
        <time>2024-05-01T11:41:02Z</time>
      </trkpt>
      <trkpt lat="45.79444" lon="3.52393">
        <ele>309</ele>
        <time>2024-05-01T11:41:03Z</time>
      </trkpt>
      <trkpt lat="45.79439" lon="3.52398">
        <ele>309</ele>
        <time>2024-05-01T11:41:04Z</time>
      </trkpt>
      <trkpt lat="45.79434" lon="3.52402">
        <ele>309</ele>
        <time>2024-05-01T11:41:05Z</time>
      </trkpt>
      <trkpt lat="45.79428" lon="3.52406">
        <ele>309</ele>
        <time>2024-05-01T11:41:06Z</time>
      </trkpt>
      <trkpt lat="45.79423" lon="3.5241">
        <ele>309</ele>
        <time>2024-05-01T11:41:07Z</time>
      </trkpt>
      <trkpt lat="45.79417" lon="3.52414">
        <ele>309</ele>
        <time>2024-05-01T11:41:08Z</time>
      </trkpt>
      <trkpt lat="45.79412" lon="3.52418">
        <ele>309</ele>
        <time>2024-05-01T11:41:09Z</time>
      </trkpt>
      <trkpt lat="45.79407" lon="3.52422">
        <ele>309.2</ele>
        <time>2024-05-01T11:41:10Z</time>
      </trkpt>
      <trkpt lat="45.79401" lon="3.52426">
        <ele>309.2</ele>
        <time>2024-05-01T11:41:11Z</time>
      </trkpt>
      <trkpt lat="45.79396" lon="3.5243">
        <ele>309.2</ele>
        <time>2024-05-01T11:41:12Z</time>
      </trkpt>
      <trkpt lat="45.7939" lon="3.52435">
        <ele>309.2</ele>
        <time>2024-05-01T11:41:13Z</time>
      </trkpt>
      <trkpt lat="45.79385" lon="3.52439">
        <ele>309.2</ele>
        <time>2024-05-01T11:41:14Z</time>
      </trkpt>
      <trkpt lat="45.7938" lon="3.52443">
        <ele>309.2</ele>
        <time>2024-05-01T11:41:15Z</time>
      </trkpt>
      <trkpt lat="45.79374" lon="3.52447">
        <ele>309.4</ele>
        <time>2024-05-01T11:41:16Z</time>
      </trkpt>
      <trkpt lat="45.79368" lon="3.52451">
        <ele>309.4</ele>
        <time>2024-05-01T11:41:17Z</time>
      </trkpt>
      <trkpt lat="45.79363" lon="3.52455">
        <ele>309.4</ele>
        <time>2024-05-01T11:41:18Z</time>
      </trkpt>
      <trkpt lat="45.79357" lon="3.52459">
        <ele>309.6</ele>
        <time>2024-05-01T11:41:19Z</time>
      </trkpt>
      <trkpt lat="45.79352" lon="3.52464">
        <ele>309.6</ele>
        <time>2024-05-01T11:41:20Z</time>
      </trkpt>
      <trkpt lat="45.79346" lon="3.52468">
        <ele>309.6</ele>
        <time>2024-05-01T11:41:21Z</time>
      </trkpt>
      <trkpt lat="45.7934" lon="3.52472">
        <ele>309.6</ele>
        <time>2024-05-01T11:41:22Z</time>
      </trkpt>
      <trkpt lat="45.79335" lon="3.52477">
        <ele>310.2</ele>
        <time>2024-05-01T11:41:23Z</time>
      </trkpt>
      <trkpt lat="45.79328" lon="3.52481">
        <ele>310.6</ele>
        <time>2024-05-01T11:41:24Z</time>
      </trkpt>
      <trkpt lat="45.79322" lon="3.52486">
        <ele>311</ele>
        <time>2024-05-01T11:41:25Z</time>
      </trkpt>
      <trkpt lat="45.79316" lon="3.52491">
        <ele>311.2</ele>
        <time>2024-05-01T11:41:26Z</time>
      </trkpt>
      <trkpt lat="45.79309" lon="3.52496">
        <ele>311.2</ele>
        <time>2024-05-01T11:41:27Z</time>
      </trkpt>
      <trkpt lat="45.79303" lon="3.525">
        <ele>311.2</ele>
        <time>2024-05-01T11:41:28Z</time>
      </trkpt>
      <trkpt lat="45.79297" lon="3.52505">
        <ele>311.2</ele>
        <time>2024-05-01T11:41:29Z</time>
      </trkpt>
      <trkpt lat="45.79291" lon="3.52509">
        <ele>311.2</ele>
        <time>2024-05-01T11:41:30Z</time>
      </trkpt>
      <trkpt lat="45.79285" lon="3.52514">
        <ele>311.2</ele>
        <time>2024-05-01T11:41:31Z</time>
      </trkpt>
      <trkpt lat="45.79279" lon="3.52518">
        <ele>311.2</ele>
        <time>2024-05-01T11:41:32Z</time>
      </trkpt>
      <trkpt lat="45.79273" lon="3.52523">
        <ele>311.4</ele>
        <time>2024-05-01T11:41:33Z</time>
      </trkpt>
      <trkpt lat="45.79267" lon="3.52527">
        <ele>311.4</ele>
        <time>2024-05-01T11:41:34Z</time>
      </trkpt>
      <trkpt lat="45.79261" lon="3.52532">
        <ele>311.4</ele>
        <time>2024-05-01T11:41:35Z</time>
      </trkpt>
      <trkpt lat="45.79255" lon="3.52537">
        <ele>311.4</ele>
        <time>2024-05-01T11:41:36Z</time>
      </trkpt>
      <trkpt lat="45.79249" lon="3.52541">
        <ele>311.4</ele>
        <time>2024-05-01T11:41:37Z</time>
      </trkpt>
      <trkpt lat="45.79243" lon="3.52545">
        <ele>311.6</ele>
        <time>2024-05-01T11:41:38Z</time>
      </trkpt>
      <trkpt lat="45.79238" lon="3.5255">
        <ele>311.6</ele>
        <time>2024-05-01T11:41:39Z</time>
      </trkpt>
      <trkpt lat="45.79232" lon="3.52554">
        <ele>311.6</ele>
        <time>2024-05-01T11:41:40Z</time>
      </trkpt>
      <trkpt lat="45.79226" lon="3.52559">
        <ele>311.6</ele>
        <time>2024-05-01T11:41:41Z</time>
      </trkpt>
      <trkpt lat="45.7922" lon="3.52563">
        <ele>311.8</ele>
        <time>2024-05-01T11:41:42Z</time>
      </trkpt>
      <trkpt lat="45.79214" lon="3.52568">
        <ele>311.8</ele>
        <time>2024-05-01T11:41:43Z</time>
      </trkpt>
      <trkpt lat="45.79208" lon="3.52572">
        <ele>312</ele>
        <time>2024-05-01T11:41:44Z</time>
      </trkpt>
      <trkpt lat="45.79202" lon="3.52577">
        <ele>312</ele>
        <time>2024-05-01T11:41:45Z</time>
      </trkpt>
      <trkpt lat="45.79196" lon="3.52581">
        <ele>312</ele>
        <time>2024-05-01T11:41:46Z</time>
      </trkpt>
      <trkpt lat="45.7919" lon="3.52586">
        <ele>312</ele>
        <time>2024-05-01T11:41:47Z</time>
      </trkpt>
      <trkpt lat="45.79184" lon="3.5259">
        <ele>312.2</ele>
        <time>2024-05-01T11:41:48Z</time>
      </trkpt>
      <trkpt lat="45.79178" lon="3.52595">
        <ele>312.2</ele>
        <time>2024-05-01T11:41:49Z</time>
      </trkpt>
      <trkpt lat="45.79172" lon="3.526">
        <ele>312.2</ele>
        <time>2024-05-01T11:41:50Z</time>
      </trkpt>
      <trkpt lat="45.79165" lon="3.52604">
        <ele>312.2</ele>
        <time>2024-05-01T11:41:51Z</time>
      </trkpt>
      <trkpt lat="45.79159" lon="3.52609">
        <ele>312.4</ele>
        <time>2024-05-01T11:41:52Z</time>
      </trkpt>
      <trkpt lat="45.79153" lon="3.52613">
        <ele>312.4</ele>
        <time>2024-05-01T11:41:53Z</time>
      </trkpt>
      <trkpt lat="45.79147" lon="3.52618">
        <ele>312.4</ele>
        <time>2024-05-01T11:41:54Z</time>
      </trkpt>
      <trkpt lat="45.79142" lon="3.52622">
        <ele>312.4</ele>
        <time>2024-05-01T11:41:55Z</time>
      </trkpt>
      <trkpt lat="45.79136" lon="3.52627">
        <ele>312.4</ele>
        <time>2024-05-01T11:41:56Z</time>
      </trkpt>
      <trkpt lat="45.7913" lon="3.52631">
        <ele>312.6</ele>
        <time>2024-05-01T11:41:57Z</time>
      </trkpt>
      <trkpt lat="45.79124" lon="3.52636">
        <ele>312.6</ele>
        <time>2024-05-01T11:41:58Z</time>
      </trkpt>
      <trkpt lat="45.79118" lon="3.5264">
        <ele>312.6</ele>
        <time>2024-05-01T11:41:59Z</time>
      </trkpt>
      <trkpt lat="45.79112" lon="3.52644">
        <ele>312.6</ele>
        <time>2024-05-01T11:42:00Z</time>
      </trkpt>
      <trkpt lat="45.79107" lon="3.52649">
        <ele>312.6</ele>
        <time>2024-05-01T11:42:01Z</time>
      </trkpt>
      <trkpt lat="45.79101" lon="3.52653">
        <ele>312.8</ele>
        <time>2024-05-01T11:42:02Z</time>
      </trkpt>
      <trkpt lat="45.79095" lon="3.52657">
        <ele>312.8</ele>
        <time>2024-05-01T11:42:03Z</time>
      </trkpt>
      <trkpt lat="45.79089" lon="3.52662">
        <ele>312.8</ele>
        <time>2024-05-01T11:42:04Z</time>
      </trkpt>
      <trkpt lat="45.79083" lon="3.52666">
        <ele>312.8</ele>
        <time>2024-05-01T11:42:05Z</time>
      </trkpt>
      <trkpt lat="45.79078" lon="3.5267">
        <ele>312.8</ele>
        <time>2024-05-01T11:42:06Z</time>
      </trkpt>
      <trkpt lat="45.79072" lon="3.52675">
        <ele>312.8</ele>
        <time>2024-05-01T11:42:07Z</time>
      </trkpt>
      <trkpt lat="45.79066" lon="3.52679">
        <ele>312.8</ele>
        <time>2024-05-01T11:42:08Z</time>
      </trkpt>
      <trkpt lat="45.79061" lon="3.52683">
        <ele>312.8</ele>
        <time>2024-05-01T11:42:09Z</time>
      </trkpt>
      <trkpt lat="45.79055" lon="3.52687">
        <ele>312.8</ele>
        <time>2024-05-01T11:42:10Z</time>
      </trkpt>
      <trkpt lat="45.79049" lon="3.52692">
        <ele>312.8</ele>
        <time>2024-05-01T11:42:11Z</time>
      </trkpt>
      <trkpt lat="45.79044" lon="3.52696">
        <ele>312.8</ele>
        <time>2024-05-01T11:42:12Z</time>
      </trkpt>
      <trkpt lat="45.79038" lon="3.52701">
        <ele>312.8</ele>
        <time>2024-05-01T11:42:13Z</time>
      </trkpt>
      <trkpt lat="45.79032" lon="3.52705">
        <ele>312.8</ele>
        <time>2024-05-01T11:42:14Z</time>
      </trkpt>
      <trkpt lat="45.79027" lon="3.52709">
        <ele>312.8</ele>
        <time>2024-05-01T11:42:15Z</time>
      </trkpt>
      <trkpt lat="45.79021" lon="3.52713">
        <ele>312.8</ele>
        <time>2024-05-01T11:42:16Z</time>
      </trkpt>
      <trkpt lat="45.79016" lon="3.52718">
        <ele>312.8</ele>
        <time>2024-05-01T11:42:17Z</time>
      </trkpt>
      <trkpt lat="45.79011" lon="3.52722">
        <ele>312.8</ele>
        <time>2024-05-01T11:42:18Z</time>
      </trkpt>
      <trkpt lat="45.79006" lon="3.52726">
        <ele>312.8</ele>
        <time>2024-05-01T11:42:19Z</time>
      </trkpt>
      <trkpt lat="45.79" lon="3.5273">
        <ele>312.6</ele>
        <time>2024-05-01T11:42:20Z</time>
      </trkpt>
      <trkpt lat="45.78995" lon="3.52734">
        <ele>312.6</ele>
        <time>2024-05-01T11:42:21Z</time>
      </trkpt>
      <trkpt lat="45.78989" lon="3.52739">
        <ele>313</ele>
        <time>2024-05-01T11:42:22Z</time>
      </trkpt>
      <trkpt lat="45.78984" lon="3.52743">
        <ele>313</ele>
        <time>2024-05-01T11:42:23Z</time>
      </trkpt>
      <trkpt lat="45.78979" lon="3.52747">
        <ele>312.8</ele>
        <time>2024-05-01T11:42:24Z</time>
      </trkpt>
      <trkpt lat="45.78973" lon="3.52751">
        <ele>312.6</ele>
        <time>2024-05-01T11:42:25Z</time>
      </trkpt>
      <trkpt lat="45.78968" lon="3.52755">
        <ele>312.6</ele>
        <time>2024-05-01T11:42:26Z</time>
      </trkpt>
      <trkpt lat="45.78963" lon="3.52759">
        <ele>312.6</ele>
        <time>2024-05-01T11:42:27Z</time>
      </trkpt>
      <trkpt lat="45.78958" lon="3.52763">
        <ele>312.4</ele>
        <time>2024-05-01T11:42:28Z</time>
      </trkpt>
      <trkpt lat="45.78953" lon="3.52767">
        <ele>312.4</ele>
        <time>2024-05-01T11:42:29Z</time>
      </trkpt>
      <trkpt lat="45.78947" lon="3.52771">
        <ele>312.6</ele>
        <time>2024-05-01T11:42:30Z</time>
      </trkpt>
      <trkpt lat="45.78942" lon="3.52775">
        <ele>312.6</ele>
        <time>2024-05-01T11:42:31Z</time>
      </trkpt>
      <trkpt lat="45.78936" lon="3.52779">
        <ele>312.6</ele>
        <time>2024-05-01T11:42:32Z</time>
      </trkpt>
      <trkpt lat="45.78931" lon="3.52783">
        <ele>312.8</ele>
        <time>2024-05-01T11:42:33Z</time>
      </trkpt>
      <trkpt lat="45.78926" lon="3.52787">
        <ele>312.8</ele>
        <time>2024-05-01T11:42:34Z</time>
      </trkpt>
      <trkpt lat="45.7892" lon="3.52791">
        <ele>313</ele>
        <time>2024-05-01T11:42:35Z</time>
      </trkpt>
      <trkpt lat="45.78915" lon="3.52795">
        <ele>312.8</ele>
        <time>2024-05-01T11:42:36Z</time>
      </trkpt>
      <trkpt lat="45.7891" lon="3.52799">
        <ele>312.8</ele>
        <time>2024-05-01T11:42:37Z</time>
      </trkpt>
      <trkpt lat="45.78904" lon="3.52803">
        <ele>313</ele>
        <time>2024-05-01T11:42:38Z</time>
      </trkpt>
      <trkpt lat="45.78899" lon="3.52807">
        <ele>313</ele>
        <time>2024-05-01T11:42:39Z</time>
      </trkpt>
      <trkpt lat="45.78894" lon="3.52811">
        <ele>313</ele>
        <time>2024-05-01T11:42:40Z</time>
      </trkpt>
      <trkpt lat="45.78888" lon="3.52815">
        <ele>313.2</ele>
        <time>2024-05-01T11:42:41Z</time>
      </trkpt>
      <trkpt lat="45.78883" lon="3.52819">
        <ele>313.2</ele>
        <time>2024-05-01T11:42:42Z</time>
      </trkpt>
      <trkpt lat="45.78878" lon="3.52823">
        <ele>313.2</ele>
        <time>2024-05-01T11:42:43Z</time>
      </trkpt>
      <trkpt lat="45.78873" lon="3.52827">
        <ele>313.2</ele>
        <time>2024-05-01T11:42:44Z</time>
      </trkpt>
      <trkpt lat="45.78867" lon="3.52831">
        <ele>313.2</ele>
        <time>2024-05-01T11:42:45Z</time>
      </trkpt>
      <trkpt lat="45.78862" lon="3.52835">
        <ele>313.2</ele>
        <time>2024-05-01T11:42:46Z</time>
      </trkpt>
      <trkpt lat="45.78857" lon="3.52839">
        <ele>313.4</ele>
        <time>2024-05-01T11:42:47Z</time>
      </trkpt>
      <trkpt lat="45.78851" lon="3.52843">
        <ele>313.4</ele>
        <time>2024-05-01T11:42:48Z</time>
      </trkpt>
      <trkpt lat="45.78846" lon="3.52847">
        <ele>313.6</ele>
        <time>2024-05-01T11:42:49Z</time>
      </trkpt>
      <trkpt lat="45.78841" lon="3.52851">
        <ele>313.6</ele>
        <time>2024-05-01T11:42:50Z</time>
      </trkpt>
      <trkpt lat="45.78835" lon="3.52855">
        <ele>313.6</ele>
        <time>2024-05-01T11:42:51Z</time>
      </trkpt>
      <trkpt lat="45.7883" lon="3.52859">
        <ele>313.8</ele>
        <time>2024-05-01T11:42:52Z</time>
      </trkpt>
      <trkpt lat="45.78824" lon="3.52863">
        <ele>313.8</ele>
        <time>2024-05-01T11:42:53Z</time>
      </trkpt>
      <trkpt lat="45.78819" lon="3.52867">
        <ele>313.8</ele>
        <time>2024-05-01T11:42:54Z</time>
      </trkpt>
      <trkpt lat="45.78814" lon="3.52871">
        <ele>313.8</ele>
        <time>2024-05-01T11:42:55Z</time>
      </trkpt>
      <trkpt lat="45.78808" lon="3.52875">
        <ele>313.8</ele>
        <time>2024-05-01T11:42:56Z</time>
      </trkpt>
      <trkpt lat="45.78803" lon="3.52879">
        <ele>314</ele>
        <time>2024-05-01T11:42:57Z</time>
      </trkpt>
      <trkpt lat="45.78798" lon="3.52883">
        <ele>314</ele>
        <time>2024-05-01T11:42:58Z</time>
      </trkpt>
      <trkpt lat="45.78792" lon="3.52887">
        <ele>314</ele>
        <time>2024-05-01T11:42:59Z</time>
      </trkpt>
      <trkpt lat="45.78787" lon="3.52891">
        <ele>314</ele>
        <time>2024-05-01T11:43:00Z</time>
      </trkpt>
      <trkpt lat="45.78782" lon="3.52895">
        <ele>314</ele>
        <time>2024-05-01T11:43:01Z</time>
      </trkpt>
      <trkpt lat="45.78776" lon="3.52899">
        <ele>314.2</ele>
        <time>2024-05-01T11:43:02Z</time>
      </trkpt>
      <trkpt lat="45.78771" lon="3.52903">
        <ele>314.2</ele>
        <time>2024-05-01T11:43:03Z</time>
      </trkpt>
      <trkpt lat="45.78766" lon="3.52907">
        <ele>314.2</ele>
        <time>2024-05-01T11:43:04Z</time>
      </trkpt>
      <trkpt lat="45.78761" lon="3.52911">
        <ele>314.4</ele>
        <time>2024-05-01T11:43:05Z</time>
      </trkpt>
      <trkpt lat="45.78755" lon="3.52915">
        <ele>314.4</ele>
        <time>2024-05-01T11:43:06Z</time>
      </trkpt>
      <trkpt lat="45.7875" lon="3.52919">
        <ele>314.4</ele>
        <time>2024-05-01T11:43:07Z</time>
      </trkpt>
      <trkpt lat="45.78745" lon="3.52923">
        <ele>314.4</ele>
        <time>2024-05-01T11:43:08Z</time>
      </trkpt>
      <trkpt lat="45.78739" lon="3.52927">
        <ele>314.6</ele>
        <time>2024-05-01T11:43:09Z</time>
      </trkpt>
      <trkpt lat="45.78734" lon="3.52931">
        <ele>314.6</ele>
        <time>2024-05-01T11:43:10Z</time>
      </trkpt>
      <trkpt lat="45.78728" lon="3.52935">
        <ele>314.6</ele>
        <time>2024-05-01T11:43:11Z</time>
      </trkpt>
      <trkpt lat="45.78723" lon="3.52939">
        <ele>314.8</ele>
        <time>2024-05-01T11:43:12Z</time>
      </trkpt>
      <trkpt lat="45.78717" lon="3.52944">
        <ele>314.8</ele>
        <time>2024-05-01T11:43:13Z</time>
      </trkpt>
      <trkpt lat="45.78712" lon="3.52948">
        <ele>314.8</ele>
        <time>2024-05-01T11:43:14Z</time>
      </trkpt>
      <trkpt lat="45.78706" lon="3.52952">
        <ele>314.8</ele>
        <time>2024-05-01T11:43:15Z</time>
      </trkpt>
      <trkpt lat="45.78701" lon="3.52956">
        <ele>314.8</ele>
        <time>2024-05-01T11:43:16Z</time>
      </trkpt>
      <trkpt lat="45.78695" lon="3.5296">
        <ele>315</ele>
        <time>2024-05-01T11:43:17Z</time>
      </trkpt>
      <trkpt lat="45.7869" lon="3.52964">
        <ele>315</ele>
        <time>2024-05-01T11:43:18Z</time>
      </trkpt>
      <trkpt lat="45.78684" lon="3.52968">
        <ele>315</ele>
        <time>2024-05-01T11:43:19Z</time>
      </trkpt>
      <trkpt lat="45.78679" lon="3.52972">
        <ele>315.2</ele>
        <time>2024-05-01T11:43:20Z</time>
      </trkpt>
      <trkpt lat="45.78674" lon="3.52977">
        <ele>315.2</ele>
        <time>2024-05-01T11:43:21Z</time>
      </trkpt>
      <trkpt lat="45.78668" lon="3.52981">
        <ele>315.2</ele>
        <time>2024-05-01T11:43:22Z</time>
      </trkpt>
      <trkpt lat="45.78662" lon="3.52985">
        <ele>315.2</ele>
        <time>2024-05-01T11:43:23Z</time>
      </trkpt>
      <trkpt lat="45.78657" lon="3.52989">
        <ele>315.2</ele>
        <time>2024-05-01T11:43:24Z</time>
      </trkpt>
      <trkpt lat="45.78652" lon="3.52993">
        <ele>315.2</ele>
        <time>2024-05-01T11:43:25Z</time>
      </trkpt>
      <trkpt lat="45.78646" lon="3.52997">
        <ele>315.2</ele>
        <time>2024-05-01T11:43:26Z</time>
      </trkpt>
      <trkpt lat="45.78641" lon="3.53001">
        <ele>315.2</ele>
        <time>2024-05-01T11:43:27Z</time>
      </trkpt>
      <trkpt lat="45.78635" lon="3.53005">
        <ele>315.2</ele>
        <time>2024-05-01T11:43:28Z</time>
      </trkpt>
      <trkpt lat="45.7863" lon="3.5301">
        <ele>315.2</ele>
        <time>2024-05-01T11:43:29Z</time>
      </trkpt>
      <trkpt lat="45.78625" lon="3.53014">
        <ele>315.2</ele>
        <time>2024-05-01T11:43:30Z</time>
      </trkpt>
      <trkpt lat="45.78619" lon="3.53018">
        <ele>315.2</ele>
        <time>2024-05-01T11:43:31Z</time>
      </trkpt>
      <trkpt lat="45.78614" lon="3.53022">
        <ele>315.2</ele>
        <time>2024-05-01T11:43:32Z</time>
      </trkpt>
      <trkpt lat="45.78608" lon="3.53026">
        <ele>315.2</ele>
        <time>2024-05-01T11:43:33Z</time>
      </trkpt>
      <trkpt lat="45.78603" lon="3.5303">
        <ele>315.2</ele>
        <time>2024-05-01T11:43:34Z</time>
      </trkpt>
      <trkpt lat="45.78598" lon="3.53034">
        <ele>315.2</ele>
        <time>2024-05-01T11:43:35Z</time>
      </trkpt>
      <trkpt lat="45.78592" lon="3.53038">
        <ele>315.4</ele>
        <time>2024-05-01T11:43:36Z</time>
      </trkpt>
      <trkpt lat="45.78587" lon="3.53042">
        <ele>315.4</ele>
        <time>2024-05-01T11:43:37Z</time>
      </trkpt>
      <trkpt lat="45.78582" lon="3.53046">
        <ele>315.4</ele>
        <time>2024-05-01T11:43:38Z</time>
      </trkpt>
      <trkpt lat="45.78576" lon="3.5305">
        <ele>315.4</ele>
        <time>2024-05-01T11:43:39Z</time>
      </trkpt>
      <trkpt lat="45.78571" lon="3.53054">
        <ele>315.4</ele>
        <time>2024-05-01T11:43:40Z</time>
      </trkpt>
      <trkpt lat="45.78566" lon="3.53058">
        <ele>315.4</ele>
        <time>2024-05-01T11:43:41Z</time>
      </trkpt>
      <trkpt lat="45.7856" lon="3.53062">
        <ele>315.4</ele>
        <time>2024-05-01T11:43:42Z</time>
      </trkpt>
      <trkpt lat="45.78555" lon="3.53066">
        <ele>315.4</ele>
        <time>2024-05-01T11:43:43Z</time>
      </trkpt>
      <trkpt lat="45.7855" lon="3.5307">
        <ele>315.4</ele>
        <time>2024-05-01T11:43:44Z</time>
      </trkpt>
      <trkpt lat="45.78544" lon="3.53074">
        <ele>315.4</ele>
        <time>2024-05-01T11:43:45Z</time>
      </trkpt>
      <trkpt lat="45.78539" lon="3.53078">
        <ele>315.4</ele>
        <time>2024-05-01T11:43:46Z</time>
      </trkpt>
      <trkpt lat="45.78533" lon="3.53082">
        <ele>315.4</ele>
        <time>2024-05-01T11:43:47Z</time>
      </trkpt>
      <trkpt lat="45.78528" lon="3.53087">
        <ele>315.4</ele>
        <time>2024-05-01T11:43:48Z</time>
      </trkpt>
      <trkpt lat="45.78522" lon="3.53091">
        <ele>315.4</ele>
        <time>2024-05-01T11:43:49Z</time>
      </trkpt>
      <trkpt lat="45.78517" lon="3.53095">
        <ele>315.4</ele>
        <time>2024-05-01T11:43:50Z</time>
      </trkpt>
      <trkpt lat="45.78511" lon="3.53099">
        <ele>315.2</ele>
        <time>2024-05-01T11:43:51Z</time>
      </trkpt>
      <trkpt lat="45.78506" lon="3.53103">
        <ele>315</ele>
        <time>2024-05-01T11:43:52Z</time>
      </trkpt>
      <trkpt lat="45.785" lon="3.53108">
        <ele>315.2</ele>
        <time>2024-05-01T11:43:53Z</time>
      </trkpt>
      <trkpt lat="45.78494" lon="3.53112">
        <ele>315.2</ele>
        <time>2024-05-01T11:43:54Z</time>
      </trkpt>
      <trkpt lat="45.78489" lon="3.53116">
        <ele>315.4</ele>
        <time>2024-05-01T11:43:55Z</time>
      </trkpt>
      <trkpt lat="45.78483" lon="3.53121">
        <ele>315.4</ele>
        <time>2024-05-01T11:43:56Z</time>
      </trkpt>
      <trkpt lat="45.78477" lon="3.53125">
        <ele>315.4</ele>
        <time>2024-05-01T11:43:57Z</time>
      </trkpt>
      <trkpt lat="45.78472" lon="3.53129">
        <ele>315.6</ele>
        <time>2024-05-01T11:43:58Z</time>
      </trkpt>
      <trkpt lat="45.78466" lon="3.53134">
        <ele>315.8</ele>
        <time>2024-05-01T11:43:59Z</time>
      </trkpt>
      <trkpt lat="45.7846" lon="3.53138">
        <ele>315.8</ele>
        <time>2024-05-01T11:44:00Z</time>
      </trkpt>
      <trkpt lat="45.78454" lon="3.53142">
        <ele>315.8</ele>
        <time>2024-05-01T11:44:01Z</time>
      </trkpt>
      <trkpt lat="45.78448" lon="3.53147">
        <ele>316</ele>
        <time>2024-05-01T11:44:02Z</time>
      </trkpt>
      <trkpt lat="45.78443" lon="3.53151">
        <ele>316</ele>
        <time>2024-05-01T11:44:03Z</time>
      </trkpt>
      <trkpt lat="45.78437" lon="3.53155">
        <ele>316</ele>
        <time>2024-05-01T11:44:04Z</time>
      </trkpt>
      <trkpt lat="45.78431" lon="3.53158">
        <ele>316</ele>
        <time>2024-05-01T11:44:05Z</time>
      </trkpt>
      <trkpt lat="45.78425" lon="3.53162">
        <ele>316.2</ele>
        <time>2024-05-01T11:44:06Z</time>
      </trkpt>
      <trkpt lat="45.78418" lon="3.53166">
        <ele>316.2</ele>
        <time>2024-05-01T11:44:07Z</time>
      </trkpt>
      <trkpt lat="45.78412" lon="3.53169">
        <ele>316.4</ele>
        <time>2024-05-01T11:44:08Z</time>
      </trkpt>
      <trkpt lat="45.78406" lon="3.53173">
        <ele>316.4</ele>
        <time>2024-05-01T11:44:09Z</time>
      </trkpt>
      <trkpt lat="45.784" lon="3.53177">
        <ele>316.4</ele>
        <time>2024-05-01T11:44:10Z</time>
      </trkpt>
      <trkpt lat="45.78394" lon="3.5318">
        <ele>316.6</ele>
        <time>2024-05-01T11:44:11Z</time>
      </trkpt>
      <trkpt lat="45.78388" lon="3.53184">
        <ele>316.6</ele>
        <time>2024-05-01T11:44:12Z</time>
      </trkpt>
      <trkpt lat="45.78382" lon="3.53187">
        <ele>316.6</ele>
        <time>2024-05-01T11:44:13Z</time>
      </trkpt>
      <trkpt lat="45.78376" lon="3.53191">
        <ele>316.6</ele>
        <time>2024-05-01T11:44:14Z</time>
      </trkpt>
      <trkpt lat="45.7837" lon="3.53194">
        <ele>316.6</ele>
        <time>2024-05-01T11:44:15Z</time>
      </trkpt>
      <trkpt lat="45.78364" lon="3.53198">
        <ele>316.8</ele>
        <time>2024-05-01T11:44:16Z</time>
      </trkpt>
      <trkpt lat="45.78358" lon="3.53201">
        <ele>316.8</ele>
        <time>2024-05-01T11:44:17Z</time>
      </trkpt>
      <trkpt lat="45.78352" lon="3.53205">
        <ele>316.8</ele>
        <time>2024-05-01T11:44:18Z</time>
      </trkpt>
      <trkpt lat="45.78346" lon="3.53208">
        <ele>317</ele>
        <time>2024-05-01T11:44:19Z</time>
      </trkpt>
      <trkpt lat="45.7834" lon="3.53212">
        <ele>317</ele>
        <time>2024-05-01T11:44:20Z</time>
      </trkpt>
      <trkpt lat="45.78334" lon="3.53215">
        <ele>317</ele>
        <time>2024-05-01T11:44:21Z</time>
      </trkpt>
      <trkpt lat="45.78328" lon="3.53219">
        <ele>317.2</ele>
        <time>2024-05-01T11:44:22Z</time>
      </trkpt>
      <trkpt lat="45.78322" lon="3.53222">
        <ele>317.2</ele>
        <time>2024-05-01T11:44:23Z</time>
      </trkpt>
      <trkpt lat="45.78316" lon="3.53225">
        <ele>317.2</ele>
        <time>2024-05-01T11:44:24Z</time>
      </trkpt>
      <trkpt lat="45.7831" lon="3.53228">
        <ele>317.2</ele>
        <time>2024-05-01T11:44:25Z</time>
      </trkpt>
      <trkpt lat="45.78304" lon="3.53231">
        <ele>317.2</ele>
        <time>2024-05-01T11:44:26Z</time>
      </trkpt>
      <trkpt lat="45.78297" lon="3.53234">
        <ele>317.2</ele>
        <time>2024-05-01T11:44:27Z</time>
      </trkpt>
      <trkpt lat="45.78291" lon="3.53237">
        <ele>317.4</ele>
        <time>2024-05-01T11:44:28Z</time>
      </trkpt>
      <trkpt lat="45.78285" lon="3.5324">
        <ele>317.4</ele>
        <time>2024-05-01T11:44:29Z</time>
      </trkpt>
      <trkpt lat="45.78279" lon="3.53243">
        <ele>317.4</ele>
        <time>2024-05-01T11:44:30Z</time>
      </trkpt>
      <trkpt lat="45.78272" lon="3.53246">
        <ele>317.4</ele>
        <time>2024-05-01T11:44:31Z</time>
      </trkpt>
      <trkpt lat="45.78266" lon="3.53249">
        <ele>317.4</ele>
        <time>2024-05-01T11:44:32Z</time>
      </trkpt>
      <trkpt lat="45.7826" lon="3.53252">
        <ele>317.4</ele>
        <time>2024-05-01T11:44:33Z</time>
      </trkpt>
      <trkpt lat="45.78253" lon="3.53255">
        <ele>317.4</ele>
        <time>2024-05-01T11:44:34Z</time>
      </trkpt>
      <trkpt lat="45.78247" lon="3.53258">
        <ele>317.4</ele>
        <time>2024-05-01T11:44:35Z</time>
      </trkpt>
      <trkpt lat="45.78241" lon="3.53261">
        <ele>317.4</ele>
        <time>2024-05-01T11:44:36Z</time>
      </trkpt>
      <trkpt lat="45.78234" lon="3.53264">
        <ele>317.6</ele>
        <time>2024-05-01T11:44:37Z</time>
      </trkpt>
      <trkpt lat="45.78228" lon="3.53267">
        <ele>317.6</ele>
        <time>2024-05-01T11:44:38Z</time>
      </trkpt>
      <trkpt lat="45.78221" lon="3.53269">
        <ele>317.6</ele>
        <time>2024-05-01T11:44:39Z</time>
      </trkpt>
      <trkpt lat="45.78215" lon="3.53272">
        <ele>317.6</ele>
        <time>2024-05-01T11:44:40Z</time>
      </trkpt>
      <trkpt lat="45.78208" lon="3.53275">
        <ele>317.8</ele>
        <time>2024-05-01T11:44:41Z</time>
      </trkpt>
      <trkpt lat="45.78201" lon="3.53277">
        <ele>317.8</ele>
        <time>2024-05-01T11:44:42Z</time>
      </trkpt>
      <trkpt lat="45.78195" lon="3.5328">
        <ele>317.8</ele>
        <time>2024-05-01T11:44:43Z</time>
      </trkpt>
      <trkpt lat="45.78188" lon="3.53283">
        <ele>317.8</ele>
        <time>2024-05-01T11:44:44Z</time>
      </trkpt>
      <trkpt lat="45.78182" lon="3.53285">
        <ele>317.8</ele>
        <time>2024-05-01T11:44:45Z</time>
      </trkpt>
      <trkpt lat="45.78175" lon="3.53288">
        <ele>317.8</ele>
        <time>2024-05-01T11:44:46Z</time>
      </trkpt>
      <trkpt lat="45.78169" lon="3.5329">
        <ele>317.6</ele>
        <time>2024-05-01T11:44:47Z</time>
      </trkpt>
      <trkpt lat="45.78163" lon="3.53293">
        <ele>317.8</ele>
        <time>2024-05-01T11:44:48Z</time>
      </trkpt>
      <trkpt lat="45.78156" lon="3.53295">
        <ele>317.8</ele>
        <time>2024-05-01T11:44:49Z</time>
      </trkpt>
      <trkpt lat="45.78149" lon="3.53298">
        <ele>317.8</ele>
        <time>2024-05-01T11:44:50Z</time>
      </trkpt>
      <trkpt lat="45.78143" lon="3.53301">
        <ele>317.8</ele>
        <time>2024-05-01T11:44:51Z</time>
      </trkpt>
      <trkpt lat="45.78136" lon="3.53303">
        <ele>317.8</ele>
        <time>2024-05-01T11:44:52Z</time>
      </trkpt>
      <trkpt lat="45.7813" lon="3.53306">
        <ele>317.8</ele>
        <time>2024-05-01T11:44:53Z</time>
      </trkpt>
      <trkpt lat="45.78123" lon="3.53308">
        <ele>317.8</ele>
        <time>2024-05-01T11:44:54Z</time>
      </trkpt>
      <trkpt lat="45.78117" lon="3.53311">
        <ele>317.8</ele>
        <time>2024-05-01T11:44:55Z</time>
      </trkpt>
      <trkpt lat="45.7811" lon="3.53314">
        <ele>317.8</ele>
        <time>2024-05-01T11:44:56Z</time>
      </trkpt>
      <trkpt lat="45.78104" lon="3.53316">
        <ele>317.8</ele>
        <time>2024-05-01T11:44:57Z</time>
      </trkpt>
      <trkpt lat="45.78097" lon="3.53319">
        <ele>318</ele>
        <time>2024-05-01T11:44:58Z</time>
      </trkpt>
      <trkpt lat="45.7809" lon="3.53322">
        <ele>318</ele>
        <time>2024-05-01T11:44:59Z</time>
      </trkpt>
      <trkpt lat="45.78084" lon="3.53324">
        <ele>318</ele>
        <time>2024-05-01T11:45:00Z</time>
      </trkpt>
      <trkpt lat="45.78077" lon="3.53327">
        <ele>318</ele>
        <time>2024-05-01T11:45:01Z</time>
      </trkpt>
      <trkpt lat="45.7807" lon="3.53329">
        <ele>318</ele>
        <time>2024-05-01T11:45:02Z</time>
      </trkpt>
      <trkpt lat="45.78064" lon="3.53332">
        <ele>318</ele>
        <time>2024-05-01T11:45:03Z</time>
      </trkpt>
      <trkpt lat="45.78057" lon="3.53335">
        <ele>318</ele>
        <time>2024-05-01T11:45:04Z</time>
      </trkpt>
      <trkpt lat="45.78051" lon="3.53337">
        <ele>318.2</ele>
        <time>2024-05-01T11:45:05Z</time>
      </trkpt>
      <trkpt lat="45.78044" lon="3.5334">
        <ele>318.2</ele>
        <time>2024-05-01T11:45:06Z</time>
      </trkpt>
      <trkpt lat="45.78037" lon="3.53343">
        <ele>318.2</ele>
        <time>2024-05-01T11:45:07Z</time>
      </trkpt>
      <trkpt lat="45.7803" lon="3.53345">
        <ele>318.2</ele>
        <time>2024-05-01T11:45:08Z</time>
      </trkpt>
      <trkpt lat="45.78023" lon="3.53348">
        <ele>318</ele>
        <time>2024-05-01T11:45:09Z</time>
      </trkpt>
      <trkpt lat="45.78016" lon="3.53351">
        <ele>318</ele>
        <time>2024-05-01T11:45:10Z</time>
      </trkpt>
      <trkpt lat="45.7801" lon="3.53354">
        <ele>318</ele>
        <time>2024-05-01T11:45:11Z</time>
      </trkpt>
      <trkpt lat="45.78003" lon="3.53356">
        <ele>318</ele>
        <time>2024-05-01T11:45:12Z</time>
      </trkpt>
      <trkpt lat="45.77996" lon="3.53359">
        <ele>318</ele>
        <time>2024-05-01T11:45:13Z</time>
      </trkpt>
      <trkpt lat="45.77989" lon="3.53362">
        <ele>318</ele>
        <time>2024-05-01T11:45:14Z</time>
      </trkpt>
      <trkpt lat="45.77983" lon="3.53364">
        <ele>318</ele>
        <time>2024-05-01T11:45:15Z</time>
      </trkpt>
      <trkpt lat="45.77976" lon="3.53367">
        <ele>318</ele>
        <time>2024-05-01T11:45:16Z</time>
      </trkpt>
      <trkpt lat="45.7797" lon="3.5337">
        <ele>318</ele>
        <time>2024-05-01T11:45:17Z</time>
      </trkpt>
      <trkpt lat="45.77963" lon="3.53372">
        <ele>318</ele>
        <time>2024-05-01T11:45:18Z</time>
      </trkpt>
      <trkpt lat="45.77957" lon="3.53375">
        <ele>318</ele>
        <time>2024-05-01T11:45:19Z</time>
      </trkpt>
      <trkpt lat="45.7795" lon="3.53377">
        <ele>318</ele>
        <time>2024-05-01T11:45:20Z</time>
      </trkpt>
      <trkpt lat="45.77944" lon="3.5338">
        <ele>318</ele>
        <time>2024-05-01T11:45:21Z</time>
      </trkpt>
      <trkpt lat="45.77937" lon="3.53383">
        <ele>318</ele>
        <time>2024-05-01T11:45:22Z</time>
      </trkpt>
      <trkpt lat="45.7793" lon="3.53385">
        <ele>318.2</ele>
        <time>2024-05-01T11:45:23Z</time>
      </trkpt>
      <trkpt lat="45.77924" lon="3.53388">
        <ele>318.2</ele>
        <time>2024-05-01T11:45:24Z</time>
      </trkpt>
      <trkpt lat="45.77917" lon="3.53391">
        <ele>317.8</ele>
        <time>2024-05-01T11:45:25Z</time>
      </trkpt>
      <trkpt lat="45.77911" lon="3.53393">
        <ele>317.8</ele>
        <time>2024-05-01T11:45:26Z</time>
      </trkpt>
      <trkpt lat="45.77904" lon="3.53396">
        <ele>317.8</ele>
        <time>2024-05-01T11:45:27Z</time>
      </trkpt>
      <trkpt lat="45.77898" lon="3.53398">
        <ele>317.8</ele>
        <time>2024-05-01T11:45:28Z</time>
      </trkpt>
      <trkpt lat="45.77891" lon="3.53401">
        <ele>318</ele>
        <time>2024-05-01T11:45:29Z</time>
      </trkpt>
      <trkpt lat="45.77885" lon="3.53403">
        <ele>318</ele>
        <time>2024-05-01T11:45:30Z</time>
      </trkpt>
      <trkpt lat="45.77879" lon="3.53406">
        <ele>318</ele>
        <time>2024-05-01T11:45:31Z</time>
      </trkpt>
      <trkpt lat="45.77872" lon="3.53409">
        <ele>317.8</ele>
        <time>2024-05-01T11:45:32Z</time>
      </trkpt>
      <trkpt lat="45.77866" lon="3.53411">
        <ele>317.8</ele>
        <time>2024-05-01T11:45:33Z</time>
      </trkpt>
      <trkpt lat="45.77859" lon="3.53414">
        <ele>317.8</ele>
        <time>2024-05-01T11:45:34Z</time>
      </trkpt>
      <trkpt lat="45.77852" lon="3.53417">
        <ele>317.8</ele>
        <time>2024-05-01T11:45:35Z</time>
      </trkpt>
      <trkpt lat="45.77846" lon="3.53419">
        <ele>317.8</ele>
        <time>2024-05-01T11:45:36Z</time>
      </trkpt>
      <trkpt lat="45.77839" lon="3.53422">
        <ele>318</ele>
        <time>2024-05-01T11:45:37Z</time>
      </trkpt>
      <trkpt lat="45.77833" lon="3.53424">
        <ele>318</ele>
        <time>2024-05-01T11:45:38Z</time>
      </trkpt>
      <trkpt lat="45.77827" lon="3.53427">
        <ele>318</ele>
        <time>2024-05-01T11:45:39Z</time>
      </trkpt>
      <trkpt lat="45.7782" lon="3.53429">
        <ele>318</ele>
        <time>2024-05-01T11:45:40Z</time>
      </trkpt>
      <trkpt lat="45.77814" lon="3.53432">
        <ele>317.8</ele>
        <time>2024-05-01T11:45:41Z</time>
      </trkpt>
      <trkpt lat="45.77807" lon="3.53435">
        <ele>317.8</ele>
        <time>2024-05-01T11:45:42Z</time>
      </trkpt>
      <trkpt lat="45.77801" lon="3.53437">
        <ele>318</ele>
        <time>2024-05-01T11:45:43Z</time>
      </trkpt>
      <trkpt lat="45.77795" lon="3.5344">
        <ele>318</ele>
        <time>2024-05-01T11:45:44Z</time>
      </trkpt>
      <trkpt lat="45.77788" lon="3.53442">
        <ele>318</ele>
        <time>2024-05-01T11:45:45Z</time>
      </trkpt>
      <trkpt lat="45.77782" lon="3.53445">
        <ele>318</ele>
        <time>2024-05-01T11:45:46Z</time>
      </trkpt>
      <trkpt lat="45.77775" lon="3.53448">
        <ele>318</ele>
        <time>2024-05-01T11:45:47Z</time>
      </trkpt>
      <trkpt lat="45.77768" lon="3.5345">
        <ele>318</ele>
        <time>2024-05-01T11:45:48Z</time>
      </trkpt>
      <trkpt lat="45.77762" lon="3.53453">
        <ele>318</ele>
        <time>2024-05-01T11:45:49Z</time>
      </trkpt>
      <trkpt lat="45.77755" lon="3.53455">
        <ele>318</ele>
        <time>2024-05-01T11:45:50Z</time>
      </trkpt>
      <trkpt lat="45.77749" lon="3.53458">
        <ele>318</ele>
        <time>2024-05-01T11:45:51Z</time>
      </trkpt>
      <trkpt lat="45.77742" lon="3.53461">
        <ele>318</ele>
        <time>2024-05-01T11:45:52Z</time>
      </trkpt>
      <trkpt lat="45.77736" lon="3.53463">
        <ele>318</ele>
        <time>2024-05-01T11:45:53Z</time>
      </trkpt>
      <trkpt lat="45.77729" lon="3.53466">
        <ele>318</ele>
        <time>2024-05-01T11:45:54Z</time>
      </trkpt>
      <trkpt lat="45.77723" lon="3.53468">
        <ele>318</ele>
        <time>2024-05-01T11:45:55Z</time>
      </trkpt>
      <trkpt lat="45.77717" lon="3.53471">
        <ele>318</ele>
        <time>2024-05-01T11:45:56Z</time>
      </trkpt>
      <trkpt lat="45.7771" lon="3.53474">
        <ele>318</ele>
        <time>2024-05-01T11:45:57Z</time>
      </trkpt>
      <trkpt lat="45.77704" lon="3.53476">
        <ele>318</ele>
        <time>2024-05-01T11:45:58Z</time>
      </trkpt>
      <trkpt lat="45.77697" lon="3.53479">
        <ele>318</ele>
        <time>2024-05-01T11:45:59Z</time>
      </trkpt>
      <trkpt lat="45.77691" lon="3.53481">
        <ele>318</ele>
        <time>2024-05-01T11:46:00Z</time>
      </trkpt>
      <trkpt lat="45.77684" lon="3.53484">
        <ele>318</ele>
        <time>2024-05-01T11:46:01Z</time>
      </trkpt>
      <trkpt lat="45.77678" lon="3.53486">
        <ele>318</ele>
        <time>2024-05-01T11:46:02Z</time>
      </trkpt>
      <trkpt lat="45.77671" lon="3.53489">
        <ele>317.8</ele>
        <time>2024-05-01T11:46:03Z</time>
      </trkpt>
      <trkpt lat="45.77665" lon="3.53491">
        <ele>317.8</ele>
        <time>2024-05-01T11:46:04Z</time>
      </trkpt>
      <trkpt lat="45.77659" lon="3.53494">
        <ele>317.8</ele>
        <time>2024-05-01T11:46:05Z</time>
      </trkpt>
      <trkpt lat="45.77652" lon="3.53497">
        <ele>317.8</ele>
        <time>2024-05-01T11:46:06Z</time>
      </trkpt>
      <trkpt lat="45.77646" lon="3.53499">
        <ele>317.8</ele>
        <time>2024-05-01T11:46:07Z</time>
      </trkpt>
      <trkpt lat="45.7764" lon="3.53502">
        <ele>317.8</ele>
        <time>2024-05-01T11:46:08Z</time>
      </trkpt>
      <trkpt lat="45.77634" lon="3.53504">
        <ele>317.8</ele>
        <time>2024-05-01T11:46:09Z</time>
      </trkpt>
      <trkpt lat="45.77628" lon="3.53506">
        <ele>317.8</ele>
        <time>2024-05-01T11:46:10Z</time>
      </trkpt>
      <trkpt lat="45.77621" lon="3.53509">
        <ele>317.6</ele>
        <time>2024-05-01T11:46:11Z</time>
      </trkpt>
      <trkpt lat="45.77615" lon="3.53512">
        <ele>317.6</ele>
        <time>2024-05-01T11:46:12Z</time>
      </trkpt>
      <trkpt lat="45.77609" lon="3.53514">
        <ele>317.6</ele>
        <time>2024-05-01T11:46:13Z</time>
      </trkpt>
      <trkpt lat="45.77602" lon="3.53517">
        <ele>317.6</ele>
        <time>2024-05-01T11:46:14Z</time>
      </trkpt>
      <trkpt lat="45.77596" lon="3.53519">
        <ele>317.6</ele>
        <time>2024-05-01T11:46:15Z</time>
      </trkpt>
      <trkpt lat="45.77589" lon="3.53522">
        <ele>317.6</ele>
        <time>2024-05-01T11:46:16Z</time>
      </trkpt>
      <trkpt lat="45.77583" lon="3.53524">
        <ele>317.6</ele>
        <time>2024-05-01T11:46:17Z</time>
      </trkpt>
      <trkpt lat="45.77577" lon="3.53527">
        <ele>317.6</ele>
        <time>2024-05-01T11:46:18Z</time>
      </trkpt>
      <trkpt lat="45.77571" lon="3.53529">
        <ele>317.6</ele>
        <time>2024-05-01T11:46:19Z</time>
      </trkpt>
      <trkpt lat="45.77564" lon="3.53532">
        <ele>317.6</ele>
        <time>2024-05-01T11:46:20Z</time>
      </trkpt>
      <trkpt lat="45.77558" lon="3.53534">
        <ele>317.4</ele>
        <time>2024-05-01T11:46:21Z</time>
      </trkpt>
      <trkpt lat="45.77552" lon="3.53537">
        <ele>317.4</ele>
        <time>2024-05-01T11:46:22Z</time>
      </trkpt>
      <trkpt lat="45.77546" lon="3.53539">
        <ele>317.4</ele>
        <time>2024-05-01T11:46:23Z</time>
      </trkpt>
      <trkpt lat="45.7754" lon="3.53542">
        <ele>317.2</ele>
        <time>2024-05-01T11:46:24Z</time>
      </trkpt>
      <trkpt lat="45.77533" lon="3.53544">
        <ele>317.2</ele>
        <time>2024-05-01T11:46:25Z</time>
      </trkpt>
      <trkpt lat="45.77527" lon="3.53547">
        <ele>317.2</ele>
        <time>2024-05-01T11:46:26Z</time>
      </trkpt>
      <trkpt lat="45.77521" lon="3.53549">
        <ele>317.2</ele>
        <time>2024-05-01T11:46:27Z</time>
      </trkpt>
      <trkpt lat="45.77514" lon="3.53552">
        <ele>317</ele>
        <time>2024-05-01T11:46:28Z</time>
      </trkpt>
      <trkpt lat="45.77508" lon="3.53554">
        <ele>317</ele>
        <time>2024-05-01T11:46:29Z</time>
      </trkpt>
      <trkpt lat="45.77502" lon="3.53557">
        <ele>317</ele>
        <time>2024-05-01T11:46:30Z</time>
      </trkpt>
      <trkpt lat="45.77495" lon="3.53559">
        <ele>316.8</ele>
        <time>2024-05-01T11:46:31Z</time>
      </trkpt>
      <trkpt lat="45.77489" lon="3.53562">
        <ele>316.8</ele>
        <time>2024-05-01T11:46:32Z</time>
      </trkpt>
      <trkpt lat="45.77483" lon="3.53564">
        <ele>316.6</ele>
        <time>2024-05-01T11:46:33Z</time>
      </trkpt>
      <trkpt lat="45.77477" lon="3.53567">
        <ele>316.6</ele>
        <time>2024-05-01T11:46:34Z</time>
      </trkpt>
      <trkpt lat="45.7747" lon="3.53569">
        <ele>316.4</ele>
        <time>2024-05-01T11:46:35Z</time>
      </trkpt>
      <trkpt lat="45.77464" lon="3.53572">
        <ele>316.4</ele>
        <time>2024-05-01T11:46:36Z</time>
      </trkpt>
      <trkpt lat="45.77458" lon="3.53575">
        <ele>316.2</ele>
        <time>2024-05-01T11:46:37Z</time>
      </trkpt>
      <trkpt lat="45.77451" lon="3.53577">
        <ele>316.2</ele>
        <time>2024-05-01T11:46:38Z</time>
      </trkpt>
      <trkpt lat="45.77445" lon="3.53579">
        <ele>316</ele>
        <time>2024-05-01T11:46:39Z</time>
      </trkpt>
      <trkpt lat="45.77439" lon="3.53582">
        <ele>316</ele>
        <time>2024-05-01T11:46:40Z</time>
      </trkpt>
      <trkpt lat="45.77433" lon="3.53584">
        <ele>316</ele>
        <time>2024-05-01T11:46:41Z</time>
      </trkpt>
      <trkpt lat="45.77427" lon="3.53587">
        <ele>315.8</ele>
        <time>2024-05-01T11:46:42Z</time>
      </trkpt>
      <trkpt lat="45.7742" lon="3.53589">
        <ele>315.8</ele>
        <time>2024-05-01T11:46:43Z</time>
      </trkpt>
      <trkpt lat="45.77414" lon="3.53592">
        <ele>316</ele>
        <time>2024-05-01T11:46:44Z</time>
      </trkpt>
      <trkpt lat="45.77408" lon="3.53595">
        <ele>316.2</ele>
        <time>2024-05-01T11:46:45Z</time>
      </trkpt>
      <trkpt lat="45.77401" lon="3.53597">
        <ele>316.4</ele>
        <time>2024-05-01T11:46:46Z</time>
      </trkpt>
      <trkpt lat="45.77395" lon="3.536">
        <ele>316.4</ele>
        <time>2024-05-01T11:46:47Z</time>
      </trkpt>
      <trkpt lat="45.77388" lon="3.53603">
        <ele>316.4</ele>
        <time>2024-05-01T11:46:48Z</time>
      </trkpt>
      <trkpt lat="45.77382" lon="3.53605">
        <ele>316</ele>
        <time>2024-05-01T11:46:49Z</time>
      </trkpt>
      <trkpt lat="45.77375" lon="3.53608">
        <ele>316.4</ele>
        <time>2024-05-01T11:46:50Z</time>
      </trkpt>
      <trkpt lat="45.77369" lon="3.5361">
        <ele>316.6</ele>
        <time>2024-05-01T11:46:51Z</time>
      </trkpt>
      <trkpt lat="45.77362" lon="3.53613">
        <ele>316.8</ele>
        <time>2024-05-01T11:46:52Z</time>
      </trkpt>
      <trkpt lat="45.77356" lon="3.53615">
        <ele>317</ele>
        <time>2024-05-01T11:46:53Z</time>
      </trkpt>
      <trkpt lat="45.7735" lon="3.53618">
        <ele>317.2</ele>
        <time>2024-05-01T11:46:54Z</time>
      </trkpt>
      <trkpt lat="45.77344" lon="3.5362">
        <ele>317.2</ele>
        <time>2024-05-01T11:46:55Z</time>
      </trkpt>
      <trkpt lat="45.77337" lon="3.53623">
        <ele>317.4</ele>
        <time>2024-05-01T11:46:56Z</time>
      </trkpt>
      <trkpt lat="45.77331" lon="3.53625">
        <ele>317.4</ele>
        <time>2024-05-01T11:46:57Z</time>
      </trkpt>
      <trkpt lat="45.77325" lon="3.53628">
        <ele>317.4</ele>
        <time>2024-05-01T11:46:58Z</time>
      </trkpt>
      <trkpt lat="45.77319" lon="3.53631">
        <ele>317.6</ele>
        <time>2024-05-01T11:46:59Z</time>
      </trkpt>
      <trkpt lat="45.77312" lon="3.53633">
        <ele>317.4</ele>
        <time>2024-05-01T11:47:00Z</time>
      </trkpt>
      <trkpt lat="45.77306" lon="3.53635">
        <ele>317.6</ele>
        <time>2024-05-01T11:47:01Z</time>
      </trkpt>
      <trkpt lat="45.773" lon="3.53638">
        <ele>317.6</ele>
        <time>2024-05-01T11:47:02Z</time>
      </trkpt>
      <trkpt lat="45.77294" lon="3.5364">
        <ele>317.6</ele>
        <time>2024-05-01T11:47:03Z</time>
      </trkpt>
      <trkpt lat="45.77288" lon="3.53643">
        <ele>317</ele>
        <time>2024-05-01T11:47:04Z</time>
      </trkpt>
      <trkpt lat="45.77282" lon="3.53645">
        <ele>317</ele>
        <time>2024-05-01T11:47:05Z</time>
      </trkpt>
      <trkpt lat="45.77276" lon="3.53648">
        <ele>317</ele>
        <time>2024-05-01T11:47:06Z</time>
      </trkpt>
      <trkpt lat="45.7727" lon="3.5365">
        <ele>317</ele>
        <time>2024-05-01T11:47:07Z</time>
      </trkpt>
      <trkpt lat="45.77264" lon="3.53653">
        <ele>317</ele>
        <time>2024-05-01T11:47:08Z</time>
      </trkpt>
      <trkpt lat="45.77258" lon="3.53655">
        <ele>317</ele>
        <time>2024-05-01T11:47:09Z</time>
      </trkpt>
      <trkpt lat="45.77252" lon="3.53657">
        <ele>317</ele>
        <time>2024-05-01T11:47:10Z</time>
      </trkpt>
      <trkpt lat="45.77246" lon="3.5366">
        <ele>317</ele>
        <time>2024-05-01T11:47:11Z</time>
      </trkpt>
      <trkpt lat="45.7724" lon="3.53662">
        <ele>317</ele>
        <time>2024-05-01T11:47:12Z</time>
      </trkpt>
      <trkpt lat="45.77234" lon="3.53665">
        <ele>317</ele>
        <time>2024-05-01T11:47:13Z</time>
      </trkpt>
      <trkpt lat="45.77228" lon="3.53667">
        <ele>317</ele>
        <time>2024-05-01T11:47:14Z</time>
      </trkpt>
      <trkpt lat="45.77222" lon="3.53669">
        <ele>317</ele>
        <time>2024-05-01T11:47:15Z</time>
      </trkpt>
      <trkpt lat="45.77216" lon="3.53672">
        <ele>317.2</ele>
        <time>2024-05-01T11:47:16Z</time>
      </trkpt>
      <trkpt lat="45.7721" lon="3.53674">
        <ele>317.2</ele>
        <time>2024-05-01T11:47:17Z</time>
      </trkpt>
      <trkpt lat="45.77204" lon="3.53677">
        <ele>317.2</ele>
        <time>2024-05-01T11:47:18Z</time>
      </trkpt>
      <trkpt lat="45.77198" lon="3.53679">
        <ele>317.2</ele>
        <time>2024-05-01T11:47:19Z</time>
      </trkpt>
      <trkpt lat="45.77192" lon="3.53682">
        <ele>317.4</ele>
        <time>2024-05-01T11:47:20Z</time>
      </trkpt>
      <trkpt lat="45.77186" lon="3.53684">
        <ele>317.4</ele>
        <time>2024-05-01T11:47:21Z</time>
      </trkpt>
      <trkpt lat="45.77179" lon="3.53687">
        <ele>317.4</ele>
        <time>2024-05-01T11:47:22Z</time>
      </trkpt>
      <trkpt lat="45.77173" lon="3.53689">
        <ele>317.4</ele>
        <time>2024-05-01T11:47:23Z</time>
      </trkpt>
      <trkpt lat="45.77167" lon="3.53692">
        <ele>317.4</ele>
        <time>2024-05-01T11:47:24Z</time>
      </trkpt>
      <trkpt lat="45.77161" lon="3.53694">
        <ele>317.4</ele>
        <time>2024-05-01T11:47:25Z</time>
      </trkpt>
      <trkpt lat="45.77155" lon="3.53697">
        <ele>317.4</ele>
        <time>2024-05-01T11:47:26Z</time>
      </trkpt>
      <trkpt lat="45.77148" lon="3.53699">
        <ele>317.4</ele>
        <time>2024-05-01T11:47:27Z</time>
      </trkpt>
      <trkpt lat="45.77142" lon="3.53702">
        <ele>317.4</ele>
        <time>2024-05-01T11:47:28Z</time>
      </trkpt>
      <trkpt lat="45.77136" lon="3.53704">
        <ele>317.4</ele>
        <time>2024-05-01T11:47:29Z</time>
      </trkpt>
      <trkpt lat="45.7713" lon="3.53707">
        <ele>317.4</ele>
        <time>2024-05-01T11:47:30Z</time>
      </trkpt>
      <trkpt lat="45.77124" lon="3.53709">
        <ele>317.4</ele>
        <time>2024-05-01T11:47:31Z</time>
      </trkpt>
      <trkpt lat="45.77118" lon="3.53711">
        <ele>317.4</ele>
        <time>2024-05-01T11:47:32Z</time>
      </trkpt>
      <trkpt lat="45.77112" lon="3.53714">
        <ele>317.6</ele>
        <time>2024-05-01T11:47:33Z</time>
      </trkpt>
      <trkpt lat="45.77105" lon="3.53717">
        <ele>317.4</ele>
        <time>2024-05-01T11:47:34Z</time>
      </trkpt>
      <trkpt lat="45.77099" lon="3.53719">
        <ele>317.4</ele>
        <time>2024-05-01T11:47:35Z</time>
      </trkpt>
      <trkpt lat="45.77093" lon="3.53721">
        <ele>317.2</ele>
        <time>2024-05-01T11:47:36Z</time>
      </trkpt>
      <trkpt lat="45.77087" lon="3.53724">
        <ele>317</ele>
        <time>2024-05-01T11:47:37Z</time>
      </trkpt>
      <trkpt lat="45.77081" lon="3.53726">
        <ele>316.8</ele>
        <time>2024-05-01T11:47:38Z</time>
      </trkpt>
      <trkpt lat="45.77074" lon="3.53729">
        <ele>317</ele>
        <time>2024-05-01T11:47:39Z</time>
      </trkpt>
      <trkpt lat="45.77068" lon="3.53732">
        <ele>317</ele>
        <time>2024-05-01T11:47:40Z</time>
      </trkpt>
      <trkpt lat="45.77062" lon="3.53734">
        <ele>317</ele>
        <time>2024-05-01T11:47:41Z</time>
      </trkpt>
      <trkpt lat="45.77055" lon="3.53737">
        <ele>316.8</ele>
        <time>2024-05-01T11:47:42Z</time>
      </trkpt>
      <trkpt lat="45.77049" lon="3.53739">
        <ele>316.8</ele>
        <time>2024-05-01T11:47:43Z</time>
      </trkpt>
      <trkpt lat="45.77043" lon="3.53741">
        <ele>316.8</ele>
        <time>2024-05-01T11:47:44Z</time>
      </trkpt>
      <trkpt lat="45.77037" lon="3.53744">
        <ele>316.6</ele>
        <time>2024-05-01T11:47:45Z</time>
      </trkpt>
      <trkpt lat="45.7703" lon="3.53746">
        <ele>316.6</ele>
        <time>2024-05-01T11:47:46Z</time>
      </trkpt>
      <trkpt lat="45.77024" lon="3.53749">
        <ele>316.6</ele>
        <time>2024-05-01T11:47:47Z</time>
      </trkpt>
      <trkpt lat="45.77018" lon="3.53751">
        <ele>316.6</ele>
        <time>2024-05-01T11:47:48Z</time>
      </trkpt>
      <trkpt lat="45.77011" lon="3.53754">
        <ele>316.4</ele>
        <time>2024-05-01T11:47:49Z</time>
      </trkpt>
      <trkpt lat="45.77005" lon="3.53756">
        <ele>316.4</ele>
        <time>2024-05-01T11:47:50Z</time>
      </trkpt>
      <trkpt lat="45.76999" lon="3.53758">
        <ele>316.4</ele>
        <time>2024-05-01T11:47:51Z</time>
      </trkpt>
      <trkpt lat="45.76992" lon="3.53761">
        <ele>316.4</ele>
        <time>2024-05-01T11:47:52Z</time>
      </trkpt>
      <trkpt lat="45.76986" lon="3.53763">
        <ele>316.4</ele>
        <time>2024-05-01T11:47:53Z</time>
      </trkpt>
      <trkpt lat="45.7698" lon="3.53766">
        <ele>316.2</ele>
        <time>2024-05-01T11:47:54Z</time>
      </trkpt>
      <trkpt lat="45.76973" lon="3.53768">
        <ele>316.2</ele>
        <time>2024-05-01T11:47:55Z</time>
      </trkpt>
      <trkpt lat="45.76967" lon="3.53771">
        <ele>316.2</ele>
        <time>2024-05-01T11:47:56Z</time>
      </trkpt>
      <trkpt lat="45.7696" lon="3.53774">
        <ele>316.2</ele>
        <time>2024-05-01T11:47:57Z</time>
      </trkpt>
      <trkpt lat="45.76954" lon="3.53777">
        <ele>316</ele>
        <time>2024-05-01T11:47:58Z</time>
      </trkpt>
      <trkpt lat="45.76948" lon="3.53779">
        <ele>315.8</ele>
        <time>2024-05-01T11:47:59Z</time>
      </trkpt>
      <trkpt lat="45.76942" lon="3.53782">
        <ele>315.8</ele>
        <time>2024-05-01T11:48:00Z</time>
      </trkpt>
      <trkpt lat="45.76936" lon="3.53785">
        <ele>315.8</ele>
        <time>2024-05-01T11:48:01Z</time>
      </trkpt>
      <trkpt lat="45.7693" lon="3.53787">
        <ele>315.8</ele>
        <time>2024-05-01T11:48:02Z</time>
      </trkpt>
      <trkpt lat="45.76923" lon="3.53789">
        <ele>315.8</ele>
        <time>2024-05-01T11:48:03Z</time>
      </trkpt>
      <trkpt lat="45.76917" lon="3.53791">
        <ele>315.8</ele>
        <time>2024-05-01T11:48:04Z</time>
      </trkpt>
      <trkpt lat="45.7691" lon="3.53794">
        <ele>315.8</ele>
        <time>2024-05-01T11:48:05Z</time>
      </trkpt>
      <trkpt lat="45.76904" lon="3.53796">
        <ele>315.8</ele>
        <time>2024-05-01T11:48:06Z</time>
      </trkpt>
      <trkpt lat="45.76898" lon="3.53798">
        <ele>315.8</ele>
        <time>2024-05-01T11:48:07Z</time>
      </trkpt>
      <trkpt lat="45.76891" lon="3.53801">
        <ele>315.8</ele>
        <time>2024-05-01T11:48:08Z</time>
      </trkpt>
      <trkpt lat="45.76885" lon="3.53803">
        <ele>315.8</ele>
        <time>2024-05-01T11:48:09Z</time>
      </trkpt>
      <trkpt lat="45.76878" lon="3.53806">
        <ele>315.8</ele>
        <time>2024-05-01T11:48:10Z</time>
      </trkpt>
      <trkpt lat="45.76872" lon="3.53808">
        <ele>315.8</ele>
        <time>2024-05-01T11:48:11Z</time>
      </trkpt>
      <trkpt lat="45.76866" lon="3.53811">
        <ele>315.8</ele>
        <time>2024-05-01T11:48:12Z</time>
      </trkpt>
      <trkpt lat="45.76859" lon="3.53813">
        <ele>315.8</ele>
        <time>2024-05-01T11:48:13Z</time>
      </trkpt>
      <trkpt lat="45.76853" lon="3.53816">
        <ele>315.6</ele>
        <time>2024-05-01T11:48:14Z</time>
      </trkpt>
      <trkpt lat="45.76847" lon="3.53818">
        <ele>315.6</ele>
        <time>2024-05-01T11:48:15Z</time>
      </trkpt>
      <trkpt lat="45.7684" lon="3.53821">
        <ele>315.6</ele>
        <time>2024-05-01T11:48:16Z</time>
      </trkpt>
      <trkpt lat="45.76834" lon="3.53823">
        <ele>315.6</ele>
        <time>2024-05-01T11:48:17Z</time>
      </trkpt>
      <trkpt lat="45.76828" lon="3.53826">
        <ele>315.4</ele>
        <time>2024-05-01T11:48:18Z</time>
      </trkpt>
      <trkpt lat="45.76821" lon="3.53828">
        <ele>315.4</ele>
        <time>2024-05-01T11:48:19Z</time>
      </trkpt>
      <trkpt lat="45.76815" lon="3.5383">
        <ele>315.4</ele>
        <time>2024-05-01T11:48:20Z</time>
      </trkpt>
      <trkpt lat="45.76809" lon="3.53833">
        <ele>315.4</ele>
        <time>2024-05-01T11:48:21Z</time>
      </trkpt>
      <trkpt lat="45.76802" lon="3.53835">
        <ele>315.2</ele>
        <time>2024-05-01T11:48:22Z</time>
      </trkpt>
      <trkpt lat="45.76796" lon="3.53838">
        <ele>315.2</ele>
        <time>2024-05-01T11:48:23Z</time>
      </trkpt>
      <trkpt lat="45.7679" lon="3.5384">
        <ele>315.2</ele>
        <time>2024-05-01T11:48:24Z</time>
      </trkpt>
      <trkpt lat="45.76783" lon="3.53843">
        <ele>315.2</ele>
        <time>2024-05-01T11:48:25Z</time>
      </trkpt>
      <trkpt lat="45.76777" lon="3.53845">
        <ele>315</ele>
        <time>2024-05-01T11:48:26Z</time>
      </trkpt>
      <trkpt lat="45.76771" lon="3.53848">
        <ele>315</ele>
        <time>2024-05-01T11:48:27Z</time>
      </trkpt>
      <trkpt lat="45.76764" lon="3.5385">
        <ele>315</ele>
        <time>2024-05-01T11:48:28Z</time>
      </trkpt>
      <trkpt lat="45.76758" lon="3.53853">
        <ele>315</ele>
        <time>2024-05-01T11:48:29Z</time>
      </trkpt>
      <trkpt lat="45.76752" lon="3.53855">
        <ele>314.8</ele>
        <time>2024-05-01T11:48:30Z</time>
      </trkpt>
      <trkpt lat="45.76745" lon="3.53858">
        <ele>314.8</ele>
        <time>2024-05-01T11:48:31Z</time>
      </trkpt>
      <trkpt lat="45.76739" lon="3.5386">
        <ele>314.8</ele>
        <time>2024-05-01T11:48:32Z</time>
      </trkpt>
      <trkpt lat="45.76733" lon="3.53863">
        <ele>314.8</ele>
        <time>2024-05-01T11:48:33Z</time>
      </trkpt>
      <trkpt lat="45.76726" lon="3.53865">
        <ele>314.6</ele>
        <time>2024-05-01T11:48:34Z</time>
      </trkpt>
      <trkpt lat="45.7672" lon="3.53868">
        <ele>314.6</ele>
        <time>2024-05-01T11:48:35Z</time>
      </trkpt>
      <trkpt lat="45.76714" lon="3.5387">
        <ele>314.6</ele>
        <time>2024-05-01T11:48:36Z</time>
      </trkpt>
      <trkpt lat="45.76708" lon="3.53873">
        <ele>314.8</ele>
        <time>2024-05-01T11:48:37Z</time>
      </trkpt>
      <trkpt lat="45.76701" lon="3.53875">
        <ele>314.8</ele>
        <time>2024-05-01T11:48:38Z</time>
      </trkpt>
      <trkpt lat="45.76695" lon="3.53878">
        <ele>314.8</ele>
        <time>2024-05-01T11:48:39Z</time>
      </trkpt>
      <trkpt lat="45.76689" lon="3.5388">
        <ele>315</ele>
        <time>2024-05-01T11:48:40Z</time>
      </trkpt>
      <trkpt lat="45.76683" lon="3.53883">
        <ele>315</ele>
        <time>2024-05-01T11:48:41Z</time>
      </trkpt>
      <trkpt lat="45.76677" lon="3.53885">
        <ele>315</ele>
        <time>2024-05-01T11:48:42Z</time>
      </trkpt>
      <trkpt lat="45.76671" lon="3.53887">
        <ele>315</ele>
        <time>2024-05-01T11:48:43Z</time>
      </trkpt>
      <trkpt lat="45.76665" lon="3.5389">
        <ele>315</ele>
        <time>2024-05-01T11:48:44Z</time>
      </trkpt>
      <trkpt lat="45.7666" lon="3.53892">
        <ele>314.6</ele>
        <time>2024-05-01T11:48:45Z</time>
      </trkpt>
      <trkpt lat="45.76654" lon="3.53894">
        <ele>314.8</ele>
        <time>2024-05-01T11:48:46Z</time>
      </trkpt>
      <trkpt lat="45.76648" lon="3.53897">
        <ele>315</ele>
        <time>2024-05-01T11:48:47Z</time>
      </trkpt>
      <trkpt lat="45.76642" lon="3.53899">
        <ele>314.8</ele>
        <time>2024-05-01T11:48:48Z</time>
      </trkpt>
      <trkpt lat="45.76636" lon="3.53901">
        <ele>314.6</ele>
        <time>2024-05-01T11:48:49Z</time>
      </trkpt>
      <trkpt lat="45.7663" lon="3.53904">
        <ele>314.6</ele>
        <time>2024-05-01T11:48:50Z</time>
      </trkpt>
      <trkpt lat="45.76624" lon="3.53906">
        <ele>314.8</ele>
        <time>2024-05-01T11:48:51Z</time>
      </trkpt>
      <trkpt lat="45.76618" lon="3.53909">
        <ele>314.8</ele>
        <time>2024-05-01T11:48:52Z</time>
      </trkpt>
      <trkpt lat="45.76612" lon="3.53911">
        <ele>315</ele>
        <time>2024-05-01T11:48:53Z</time>
      </trkpt>
      <trkpt lat="45.76606" lon="3.53913">
        <ele>314.8</ele>
        <time>2024-05-01T11:48:54Z</time>
      </trkpt>
      <trkpt lat="45.76601" lon="3.53916">
        <ele>314.8</ele>
        <time>2024-05-01T11:48:55Z</time>
      </trkpt>
      <trkpt lat="45.76595" lon="3.53918">
        <ele>314.8</ele>
        <time>2024-05-01T11:48:56Z</time>
      </trkpt>
      <trkpt lat="45.76589" lon="3.5392">
        <ele>314.6</ele>
        <time>2024-05-01T11:48:57Z</time>
      </trkpt>
      <trkpt lat="45.76584" lon="3.53922">
        <ele>315</ele>
        <time>2024-05-01T11:48:58Z</time>
      </trkpt>
      <trkpt lat="45.76578" lon="3.53925">
        <ele>315</ele>
        <time>2024-05-01T11:48:59Z</time>
      </trkpt>
      <trkpt lat="45.76572" lon="3.53927">
        <ele>315</ele>
        <time>2024-05-01T11:49:00Z</time>
      </trkpt>
      <trkpt lat="45.76566" lon="3.53929">
        <ele>315</ele>
        <time>2024-05-01T11:49:01Z</time>
      </trkpt>
      <trkpt lat="45.76561" lon="3.53932">
        <ele>315</ele>
        <time>2024-05-01T11:49:02Z</time>
      </trkpt>
      <trkpt lat="45.76555" lon="3.53934">
        <ele>315</ele>
        <time>2024-05-01T11:49:03Z</time>
      </trkpt>
      <trkpt lat="45.7655" lon="3.53936">
        <ele>315</ele>
        <time>2024-05-01T11:49:04Z</time>
      </trkpt>
      <trkpt lat="45.76545" lon="3.53938">
        <ele>315</ele>
        <time>2024-05-01T11:49:05Z</time>
      </trkpt>
      <trkpt lat="45.76539" lon="3.5394">
        <ele>315</ele>
        <time>2024-05-01T11:49:06Z</time>
      </trkpt>
      <trkpt lat="45.76534" lon="3.53942">
        <ele>315</ele>
        <time>2024-05-01T11:49:07Z</time>
      </trkpt>
      <trkpt lat="45.76528" lon="3.53945">
        <ele>315.2</ele>
        <time>2024-05-01T11:49:08Z</time>
      </trkpt>
      <trkpt lat="45.76523" lon="3.53947">
        <ele>315.2</ele>
        <time>2024-05-01T11:49:09Z</time>
      </trkpt>
      <trkpt lat="45.76517" lon="3.53949">
        <ele>315.2</ele>
        <time>2024-05-01T11:49:10Z</time>
      </trkpt>
      <trkpt lat="45.76512" lon="3.53951">
        <ele>315.2</ele>
        <time>2024-05-01T11:49:11Z</time>
      </trkpt>
      <trkpt lat="45.76506" lon="3.53953">
        <ele>315.2</ele>
        <time>2024-05-01T11:49:12Z</time>
      </trkpt>
      <trkpt lat="45.765" lon="3.53956">
        <ele>315.2</ele>
        <time>2024-05-01T11:49:13Z</time>
      </trkpt>
      <trkpt lat="45.76495" lon="3.53958">
        <ele>315.4</ele>
        <time>2024-05-01T11:49:14Z</time>
      </trkpt>
      <trkpt lat="45.76489" lon="3.5396">
        <ele>315.4</ele>
        <time>2024-05-01T11:49:15Z</time>
      </trkpt>
      <trkpt lat="45.76484" lon="3.53962">
        <ele>315.4</ele>
        <time>2024-05-01T11:49:16Z</time>
      </trkpt>
      <trkpt lat="45.76478" lon="3.53965">
        <ele>315.4</ele>
        <time>2024-05-01T11:49:17Z</time>
      </trkpt>
      <trkpt lat="45.76473" lon="3.53967">
        <ele>315.4</ele>
        <time>2024-05-01T11:49:18Z</time>
      </trkpt>
      <trkpt lat="45.76467" lon="3.53969">
        <ele>315.6</ele>
        <time>2024-05-01T11:49:19Z</time>
      </trkpt>
      <trkpt lat="45.76462" lon="3.53971">
        <ele>315.6</ele>
        <time>2024-05-01T11:49:20Z</time>
      </trkpt>
      <trkpt lat="45.76456" lon="3.53973">
        <ele>315.6</ele>
        <time>2024-05-01T11:49:21Z</time>
      </trkpt>
      <trkpt lat="45.7645" lon="3.53976">
        <ele>315.6</ele>
        <time>2024-05-01T11:49:22Z</time>
      </trkpt>
      <trkpt lat="45.76444" lon="3.53978">
        <ele>315.8</ele>
        <time>2024-05-01T11:49:23Z</time>
      </trkpt>
      <trkpt lat="45.76439" lon="3.5398">
        <ele>315.8</ele>
        <time>2024-05-01T11:49:24Z</time>
      </trkpt>
      <trkpt lat="45.76433" lon="3.53983">
        <ele>315.8</ele>
        <time>2024-05-01T11:49:25Z</time>
      </trkpt>
      <trkpt lat="45.76427" lon="3.53985">
        <ele>316</ele>
        <time>2024-05-01T11:49:26Z</time>
      </trkpt>
      <trkpt lat="45.76422" lon="3.53987">
        <ele>316</ele>
        <time>2024-05-01T11:49:27Z</time>
      </trkpt>
      <trkpt lat="45.76416" lon="3.53989">
        <ele>316.2</ele>
        <time>2024-05-01T11:49:28Z</time>
      </trkpt>
      <trkpt lat="45.76411" lon="3.53992">
        <ele>316.2</ele>
        <time>2024-05-01T11:49:29Z</time>
      </trkpt>
      <trkpt lat="45.76405" lon="3.53994">
        <ele>316.2</ele>
        <time>2024-05-01T11:49:30Z</time>
      </trkpt>
      <trkpt lat="45.764" lon="3.53996">
        <ele>316.2</ele>
        <time>2024-05-01T11:49:31Z</time>
      </trkpt>
      <trkpt lat="45.76394" lon="3.53997">
        <ele>316.4</ele>
        <time>2024-05-01T11:49:32Z</time>
      </trkpt>
      <trkpt lat="45.76388" lon="3.53999">
        <ele>316.4</ele>
        <time>2024-05-01T11:49:33Z</time>
      </trkpt>
      <trkpt lat="45.76382" lon="3.54001">
        <ele>316.4</ele>
        <time>2024-05-01T11:49:34Z</time>
      </trkpt>
      <trkpt lat="45.76378" lon="3.54005">
        <ele>316.6</ele>
        <time>2024-05-01T11:49:35Z</time>
      </trkpt>
      <trkpt lat="45.76373" lon="3.54009">
        <ele>316.6</ele>
        <time>2024-05-01T11:49:36Z</time>
      </trkpt>
      <trkpt lat="45.76368" lon="3.54014">
        <ele>316.6</ele>
        <time>2024-05-01T11:49:37Z</time>
      </trkpt>
      <trkpt lat="45.76363" lon="3.54018">
        <ele>316.8</ele>
        <time>2024-05-01T11:49:38Z</time>
      </trkpt>
      <trkpt lat="45.76358" lon="3.54023">
        <ele>316.8</ele>
        <time>2024-05-01T11:49:39Z</time>
      </trkpt>
      <trkpt lat="45.76354" lon="3.54025">
        <ele>316.8</ele>
        <time>2024-05-01T11:49:40Z</time>
      </trkpt>
      <trkpt lat="45.76349" lon="3.54026">
        <ele>317</ele>
        <time>2024-05-01T11:49:41Z</time>
      </trkpt>
      <trkpt lat="45.76344" lon="3.54021">
        <ele>317</ele>
        <time>2024-05-01T11:49:42Z</time>
      </trkpt>
      <trkpt lat="45.7634" lon="3.54018">
        <ele>317.2</ele>
        <time>2024-05-01T11:49:43Z</time>
      </trkpt>
      <trkpt lat="45.76334" lon="3.54015">
        <ele>317.2</ele>
        <time>2024-05-01T11:49:44Z</time>
      </trkpt>
      <trkpt lat="45.76327" lon="3.54024">
        <ele>317.2</ele>
        <time>2024-05-01T11:49:45Z</time>
      </trkpt>
      <trkpt lat="45.76324" lon="3.54029">
        <ele>317.2</ele>
        <time>2024-05-01T11:49:46Z</time>
      </trkpt>
      <trkpt lat="45.76321" lon="3.54035">
        <ele>317.2</ele>
        <time>2024-05-01T11:49:47Z</time>
      </trkpt>
      <trkpt lat="45.76317" lon="3.54042">
        <ele>317.4</ele>
        <time>2024-05-01T11:49:48Z</time>
      </trkpt>
      <trkpt lat="45.76313" lon="3.54048">
        <ele>317.4</ele>
        <time>2024-05-01T11:49:49Z</time>
      </trkpt>
      <trkpt lat="45.76309" lon="3.54055">
        <ele>317.4</ele>
        <time>2024-05-01T11:49:50Z</time>
      </trkpt>
      <trkpt lat="45.76303" lon="3.5406">
        <ele>317.4</ele>
        <time>2024-05-01T11:49:51Z</time>
      </trkpt>
      <trkpt lat="45.76298" lon="3.54064">
        <ele>317.6</ele>
        <time>2024-05-01T11:49:52Z</time>
      </trkpt>
      <trkpt lat="45.76293" lon="3.54068">
        <ele>317.6</ele>
        <time>2024-05-01T11:49:53Z</time>
      </trkpt>
      <trkpt lat="45.76287" lon="3.54073">
        <ele>317.6</ele>
        <time>2024-05-01T11:49:54Z</time>
      </trkpt>
      <trkpt lat="45.76282" lon="3.54077">
        <ele>317.6</ele>
        <time>2024-05-01T11:49:55Z</time>
      </trkpt>
      <trkpt lat="45.76277" lon="3.54081">
        <ele>317.8</ele>
        <time>2024-05-01T11:49:56Z</time>
      </trkpt>
      <trkpt lat="45.76271" lon="3.54086">
        <ele>317.8</ele>
        <time>2024-05-01T11:49:57Z</time>
      </trkpt>
      <trkpt lat="45.76266" lon="3.54089">
        <ele>317.8</ele>
        <time>2024-05-01T11:49:58Z</time>
      </trkpt>
      <trkpt lat="45.7626" lon="3.54093">
        <ele>317.8</ele>
        <time>2024-05-01T11:49:59Z</time>
      </trkpt>
      <trkpt lat="45.76254" lon="3.54096">
        <ele>317.8</ele>
        <time>2024-05-01T11:50:00Z</time>
      </trkpt>
      <trkpt lat="45.76248" lon="3.541">
        <ele>318</ele>
        <time>2024-05-01T11:50:01Z</time>
      </trkpt>
      <trkpt lat="45.76242" lon="3.54104">
        <ele>318</ele>
        <time>2024-05-01T11:50:02Z</time>
      </trkpt>
      <trkpt lat="45.76236" lon="3.54108">
        <ele>318</ele>
        <time>2024-05-01T11:50:03Z</time>
      </trkpt>
      <trkpt lat="45.7623" lon="3.54112">
        <ele>318</ele>
        <time>2024-05-01T11:50:04Z</time>
      </trkpt>
      <trkpt lat="45.76224" lon="3.54116">
        <ele>318</ele>
        <time>2024-05-01T11:50:05Z</time>
      </trkpt>
      <trkpt lat="45.76218" lon="3.5412">
        <ele>318</ele>
        <time>2024-05-01T11:50:06Z</time>
      </trkpt>
      <trkpt lat="45.76211" lon="3.54124">
        <ele>318</ele>
        <time>2024-05-01T11:50:07Z</time>
      </trkpt>
      <trkpt lat="45.76206" lon="3.54128">
        <ele>318</ele>
        <time>2024-05-01T11:50:08Z</time>
      </trkpt>
      <trkpt lat="45.762" lon="3.54132">
        <ele>318</ele>
        <time>2024-05-01T11:50:09Z</time>
      </trkpt>
      <trkpt lat="45.76194" lon="3.54135">
        <ele>318</ele>
        <time>2024-05-01T11:50:10Z</time>
      </trkpt>
      <trkpt lat="45.76188" lon="3.54139">
        <ele>318.2</ele>
        <time>2024-05-01T11:50:11Z</time>
      </trkpt>
      <trkpt lat="45.76183" lon="3.54143">
        <ele>318.2</ele>
        <time>2024-05-01T11:50:12Z</time>
      </trkpt>
      <trkpt lat="45.76177" lon="3.54146">
        <ele>318.2</ele>
        <time>2024-05-01T11:50:13Z</time>
      </trkpt>
      <trkpt lat="45.76171" lon="3.5415">
        <ele>318.2</ele>
        <time>2024-05-01T11:50:14Z</time>
      </trkpt>
      <trkpt lat="45.76165" lon="3.54154">
        <ele>318.2</ele>
        <time>2024-05-01T11:50:15Z</time>
      </trkpt>
      <trkpt lat="45.7616" lon="3.54158">
        <ele>318.2</ele>
        <time>2024-05-01T11:50:16Z</time>
      </trkpt>
      <trkpt lat="45.76154" lon="3.54161">
        <ele>318.2</ele>
        <time>2024-05-01T11:50:17Z</time>
      </trkpt>
      <trkpt lat="45.76149" lon="3.54165">
        <ele>318.4</ele>
        <time>2024-05-01T11:50:18Z</time>
      </trkpt>
      <trkpt lat="45.76143" lon="3.54169">
        <ele>318.4</ele>
        <time>2024-05-01T11:50:19Z</time>
      </trkpt>
      <trkpt lat="45.76137" lon="3.54172">
        <ele>318.4</ele>
        <time>2024-05-01T11:50:20Z</time>
      </trkpt>
      <trkpt lat="45.76132" lon="3.54176">
        <ele>318.4</ele>
        <time>2024-05-01T11:50:21Z</time>
      </trkpt>
      <trkpt lat="45.76125" lon="3.5418">
        <ele>318.4</ele>
        <time>2024-05-01T11:50:22Z</time>
      </trkpt>
      <trkpt lat="45.76119" lon="3.54182">
        <ele>318.4</ele>
        <time>2024-05-01T11:50:23Z</time>
      </trkpt>
      <trkpt lat="45.76112" lon="3.54185">
        <ele>318.4</ele>
        <time>2024-05-01T11:50:24Z</time>
      </trkpt>
      <trkpt lat="45.76105" lon="3.54187">
        <ele>318.4</ele>
        <time>2024-05-01T11:50:25Z</time>
      </trkpt>
      <trkpt lat="45.76099" lon="3.54189">
        <ele>318.6</ele>
        <time>2024-05-01T11:50:26Z</time>
      </trkpt>
      <trkpt lat="45.76092" lon="3.54191">
        <ele>318.6</ele>
        <time>2024-05-01T11:50:27Z</time>
      </trkpt>
      <trkpt lat="45.76085" lon="3.54193">
        <ele>318.6</ele>
        <time>2024-05-01T11:50:28Z</time>
      </trkpt>
      <trkpt lat="45.76079" lon="3.54193">
        <ele>318.6</ele>
        <time>2024-05-01T11:50:29Z</time>
      </trkpt>
      <trkpt lat="45.76072" lon="3.54193">
        <ele>318.8</ele>
        <time>2024-05-01T11:50:30Z</time>
      </trkpt>
      <trkpt lat="45.76065" lon="3.54193">
        <ele>318.8</ele>
        <time>2024-05-01T11:50:31Z</time>
      </trkpt>
      <trkpt lat="45.76059" lon="3.54194">
        <ele>318.8</ele>
        <time>2024-05-01T11:50:32Z</time>
      </trkpt>
      <trkpt lat="45.76052" lon="3.54194">
        <ele>318.8</ele>
        <time>2024-05-01T11:50:33Z</time>
      </trkpt>
      <trkpt lat="45.76046" lon="3.54194">
        <ele>318.8</ele>
        <time>2024-05-01T11:50:34Z</time>
      </trkpt>
      <trkpt lat="45.7604" lon="3.54194">
        <ele>318.8</ele>
        <time>2024-05-01T11:50:35Z</time>
      </trkpt>
      <trkpt lat="45.76034" lon="3.54194">
        <ele>318.8</ele>
        <time>2024-05-01T11:50:36Z</time>
      </trkpt>
      <trkpt lat="45.76027" lon="3.54194">
        <ele>318.8</ele>
        <time>2024-05-01T11:50:37Z</time>
      </trkpt>
      <trkpt lat="45.76021" lon="3.54194">
        <ele>318.8</ele>
        <time>2024-05-01T11:50:38Z</time>
      </trkpt>
      <trkpt lat="45.76015" lon="3.54194">
        <ele>318.8</ele>
        <time>2024-05-01T11:50:39Z</time>
      </trkpt>
      <trkpt lat="45.76009" lon="3.54194">
        <ele>318.8</ele>
        <time>2024-05-01T11:50:40Z</time>
      </trkpt>
      <trkpt lat="45.76002" lon="3.54194">
        <ele>318.8</ele>
        <time>2024-05-01T11:50:41Z</time>
      </trkpt>
      <trkpt lat="45.75996" lon="3.54195">
        <ele>318.8</ele>
        <time>2024-05-01T11:50:42Z</time>
      </trkpt>
      <trkpt lat="45.7599" lon="3.54195">
        <ele>319</ele>
        <time>2024-05-01T11:50:43Z</time>
      </trkpt>
      <trkpt lat="45.75983" lon="3.54195">
        <ele>319</ele>
        <time>2024-05-01T11:50:44Z</time>
      </trkpt>
      <trkpt lat="45.75977" lon="3.54195">
        <ele>319</ele>
        <time>2024-05-01T11:50:45Z</time>
      </trkpt>
      <trkpt lat="45.75971" lon="3.54195">
        <ele>319</ele>
        <time>2024-05-01T11:50:46Z</time>
      </trkpt>
      <trkpt lat="45.75964" lon="3.54195">
        <ele>319</ele>
        <time>2024-05-01T11:50:47Z</time>
      </trkpt>
      <trkpt lat="45.75958" lon="3.54195">
        <ele>319</ele>
        <time>2024-05-01T11:50:48Z</time>
      </trkpt>
      <trkpt lat="45.75952" lon="3.54195">
        <ele>319</ele>
        <time>2024-05-01T11:50:49Z</time>
      </trkpt>
      <trkpt lat="45.75945" lon="3.54195">
        <ele>319.2</ele>
        <time>2024-05-01T11:50:50Z</time>
      </trkpt>
      <trkpt lat="45.75939" lon="3.54195">
        <ele>319.2</ele>
        <time>2024-05-01T11:50:51Z</time>
      </trkpt>
      <trkpt lat="45.75933" lon="3.54195">
        <ele>319.2</ele>
        <time>2024-05-01T11:50:52Z</time>
      </trkpt>
      <trkpt lat="45.75927" lon="3.54196">
        <ele>319.2</ele>
        <time>2024-05-01T11:50:53Z</time>
      </trkpt>
      <trkpt lat="45.75921" lon="3.54196">
        <ele>319.2</ele>
        <time>2024-05-01T11:50:54Z</time>
      </trkpt>
      <trkpt lat="45.75914" lon="3.54196">
        <ele>319.4</ele>
        <time>2024-05-01T11:50:55Z</time>
      </trkpt>
      <trkpt lat="45.75908" lon="3.54196">
        <ele>319.4</ele>
        <time>2024-05-01T11:50:56Z</time>
      </trkpt>
      <trkpt lat="45.75901" lon="3.54196">
        <ele>319.4</ele>
        <time>2024-05-01T11:50:57Z</time>
      </trkpt>
      <trkpt lat="45.75895" lon="3.54196">
        <ele>319.4</ele>
        <time>2024-05-01T11:50:58Z</time>
      </trkpt>
      <trkpt lat="45.75889" lon="3.54196">
        <ele>319.4</ele>
        <time>2024-05-01T11:50:59Z</time>
      </trkpt>
      <trkpt lat="45.75883" lon="3.54196">
        <ele>319.4</ele>
        <time>2024-05-01T11:51:00Z</time>
      </trkpt>
      <trkpt lat="45.75876" lon="3.54196">
        <ele>319.6</ele>
        <time>2024-05-01T11:51:01Z</time>
      </trkpt>
      <trkpt lat="45.7587" lon="3.54196">
        <ele>319.6</ele>
        <time>2024-05-01T11:51:02Z</time>
      </trkpt>
      <trkpt lat="45.75863" lon="3.54196">
        <ele>319.6</ele>
        <time>2024-05-01T11:51:03Z</time>
      </trkpt>
      <trkpt lat="45.75857" lon="3.54197">
        <ele>319.8</ele>
        <time>2024-05-01T11:51:04Z</time>
      </trkpt>
      <trkpt lat="45.75851" lon="3.54197">
        <ele>319.8</ele>
        <time>2024-05-01T11:51:05Z</time>
      </trkpt>
      <trkpt lat="45.75845" lon="3.54197">
        <ele>319.8</ele>
        <time>2024-05-01T11:51:06Z</time>
      </trkpt>
      <trkpt lat="45.75838" lon="3.54197">
        <ele>319.8</ele>
        <time>2024-05-01T11:51:07Z</time>
      </trkpt>
      <trkpt lat="45.75832" lon="3.54197">
        <ele>320</ele>
        <time>2024-05-01T11:51:08Z</time>
      </trkpt>
      <trkpt lat="45.75826" lon="3.54197">
        <ele>319.8</ele>
        <time>2024-05-01T11:51:09Z</time>
      </trkpt>
      <trkpt lat="45.7582" lon="3.54197">
        <ele>319.8</ele>
        <time>2024-05-01T11:51:10Z</time>
      </trkpt>
      <trkpt lat="45.75814" lon="3.54197">
        <ele>320</ele>
        <time>2024-05-01T11:51:11Z</time>
      </trkpt>
      <trkpt lat="45.75807" lon="3.54197">
        <ele>320</ele>
        <time>2024-05-01T11:51:12Z</time>
      </trkpt>
      <trkpt lat="45.75801" lon="3.54197">
        <ele>320</ele>
        <time>2024-05-01T11:51:13Z</time>
      </trkpt>
      <trkpt lat="45.75795" lon="3.54197">
        <ele>320</ele>
        <time>2024-05-01T11:51:14Z</time>
      </trkpt>
      <trkpt lat="45.75789" lon="3.54198">
        <ele>320</ele>
        <time>2024-05-01T11:51:15Z</time>
      </trkpt>
      <trkpt lat="45.75783" lon="3.54199">
        <ele>320.2</ele>
        <time>2024-05-01T11:51:16Z</time>
      </trkpt>
      <trkpt lat="45.75777" lon="3.542">
        <ele>320.2</ele>
        <time>2024-05-01T11:51:17Z</time>
      </trkpt>
      <trkpt lat="45.75771" lon="3.54201">
        <ele>320.2</ele>
        <time>2024-05-01T11:51:18Z</time>
      </trkpt>
      <trkpt lat="45.75765" lon="3.54202">
        <ele>320.2</ele>
        <time>2024-05-01T11:51:19Z</time>
      </trkpt>
      <trkpt lat="45.75759" lon="3.54203">
        <ele>320.2</ele>
        <time>2024-05-01T11:51:20Z</time>
      </trkpt>
      <trkpt lat="45.75752" lon="3.54204">
        <ele>320.2</ele>
        <time>2024-05-01T11:51:21Z</time>
      </trkpt>
      <trkpt lat="45.75746" lon="3.54205">
        <ele>320.2</ele>
        <time>2024-05-01T11:51:22Z</time>
      </trkpt>
      <trkpt lat="45.7574" lon="3.54206">
        <ele>320.4</ele>
        <time>2024-05-01T11:51:23Z</time>
      </trkpt>
      <trkpt lat="45.75734" lon="3.54207">
        <ele>320.4</ele>
        <time>2024-05-01T11:51:24Z</time>
      </trkpt>
      <trkpt lat="45.75729" lon="3.54208">
        <ele>320.4</ele>
        <time>2024-05-01T11:51:25Z</time>
      </trkpt>
      <trkpt lat="45.75723" lon="3.54209">
        <ele>320.4</ele>
        <time>2024-05-01T11:51:26Z</time>
      </trkpt>
      <trkpt lat="45.7572" lon="3.54209">
        <ele>320.4</ele>
        <time>2024-05-01T11:51:27Z</time>
      </trkpt>
      <trkpt lat="45.75717" lon="3.5421">
        <ele>320.4</ele>
        <time>2024-05-01T11:51:28Z</time>
      </trkpt>
      <trkpt lat="45.75715" lon="3.5421">
        <ele>320.6</ele>
        <time>2024-05-01T11:51:29Z</time>
      </trkpt>
      <trkpt lat="45.75714" lon="3.5421">
        <ele>320.6</ele>
        <time>2024-05-01T11:51:30Z</time>
      </trkpt>
      <trkpt lat="45.75713" lon="3.5421">
        <ele>320.6</ele>
        <time>2024-05-01T11:51:31Z</time>
      </trkpt>
      <trkpt lat="45.75712" lon="3.54211">
        <ele>320.6</ele>
        <time>2024-05-01T11:51:32Z</time>
      </trkpt>
      <trkpt lat="45.75711" lon="3.54211">
        <ele>320.8</ele>
        <time>2024-05-01T11:51:33Z</time>
      </trkpt>
      <trkpt lat="45.75711" lon="3.54211">
        <ele>320.8</ele>
        <time>2024-05-01T11:51:34Z</time>
      </trkpt>
      <trkpt lat="45.75711" lon="3.54211">
        <ele>320.8</ele>
        <time>2024-05-01T11:51:35Z</time>
      </trkpt>
      <trkpt lat="45.75709" lon="3.54211">
        <ele>321.4</ele>
        <time>2024-05-01T11:51:48Z</time>
      </trkpt>
      <trkpt lat="45.75707" lon="3.54211">
        <ele>321.4</ele>
        <time>2024-05-01T11:51:49Z</time>
      </trkpt>
      <trkpt lat="45.75706" lon="3.54212">
        <ele>321.6</ele>
        <time>2024-05-01T11:51:50Z</time>
      </trkpt>
      <trkpt lat="45.75703" lon="3.54212">
        <ele>321.6</ele>
        <time>2024-05-01T11:51:51Z</time>
      </trkpt>
      <trkpt lat="45.757" lon="3.54213">
        <ele>321.6</ele>
        <time>2024-05-01T11:51:52Z</time>
      </trkpt>
      <trkpt lat="45.75696" lon="3.54213">
        <ele>321.6</ele>
        <time>2024-05-01T11:51:53Z</time>
      </trkpt>
      <trkpt lat="45.75692" lon="3.54214">
        <ele>321.6</ele>
        <time>2024-05-01T11:51:54Z</time>
      </trkpt>
      <trkpt lat="45.75688" lon="3.54215">
        <ele>321.8</ele>
        <time>2024-05-01T11:51:55Z</time>
      </trkpt>
      <trkpt lat="45.75683" lon="3.54215">
        <ele>321.8</ele>
        <time>2024-05-01T11:51:56Z</time>
      </trkpt>
      <trkpt lat="45.75678" lon="3.54216">
        <ele>321.8</ele>
        <time>2024-05-01T11:51:57Z</time>
      </trkpt>
      <trkpt lat="45.75673" lon="3.54218">
        <ele>321.8</ele>
        <time>2024-05-01T11:51:58Z</time>
      </trkpt>
      <trkpt lat="45.75667" lon="3.5422">
        <ele>321.8</ele>
        <time>2024-05-01T11:51:59Z</time>
      </trkpt>
      <trkpt lat="45.75662" lon="3.54221">
        <ele>321.8</ele>
        <time>2024-05-01T11:52:00Z</time>
      </trkpt>
      <trkpt lat="45.75656" lon="3.54223">
        <ele>322</ele>
        <time>2024-05-01T11:52:01Z</time>
      </trkpt>
      <trkpt lat="45.75651" lon="3.54225">
        <ele>321.8</ele>
        <time>2024-05-01T11:52:02Z</time>
      </trkpt>
      <trkpt lat="45.75645" lon="3.54227">
        <ele>322</ele>
        <time>2024-05-01T11:52:03Z</time>
      </trkpt>
      <trkpt lat="45.7564" lon="3.54229">
        <ele>322</ele>
        <time>2024-05-01T11:52:04Z</time>
      </trkpt>
      <trkpt lat="45.75635" lon="3.54231">
        <ele>322.2</ele>
        <time>2024-05-01T11:52:05Z</time>
      </trkpt>
      <trkpt lat="45.75629" lon="3.54233">
        <ele>322.2</ele>
        <time>2024-05-01T11:52:06Z</time>
      </trkpt>
      <trkpt lat="45.75623" lon="3.54235">
        <ele>322.2</ele>
        <time>2024-05-01T11:52:07Z</time>
      </trkpt>
      <trkpt lat="45.75617" lon="3.54237">
        <ele>322.4</ele>
        <time>2024-05-01T11:52:08Z</time>
      </trkpt>
      <trkpt lat="45.75612" lon="3.5424">
        <ele>322.4</ele>
        <time>2024-05-01T11:52:09Z</time>
      </trkpt>
      <trkpt lat="45.75606" lon="3.54242">
        <ele>322.4</ele>
        <time>2024-05-01T11:52:10Z</time>
      </trkpt>
      <trkpt lat="45.756" lon="3.54244">
        <ele>322.4</ele>
        <time>2024-05-01T11:52:11Z</time>
      </trkpt>
      <trkpt lat="45.75595" lon="3.54247">
        <ele>322.6</ele>
        <time>2024-05-01T11:52:12Z</time>
      </trkpt>
      <trkpt lat="45.75589" lon="3.54249">
        <ele>322.6</ele>
        <time>2024-05-01T11:52:13Z</time>
      </trkpt>
      <trkpt lat="45.75583" lon="3.54252">
        <ele>322.6</ele>
        <time>2024-05-01T11:52:14Z</time>
      </trkpt>
      <trkpt lat="45.75577" lon="3.54254">
        <ele>322.6</ele>
        <time>2024-05-01T11:52:15Z</time>
      </trkpt>
      <trkpt lat="45.75571" lon="3.54257">
        <ele>322.8</ele>
        <time>2024-05-01T11:52:16Z</time>
      </trkpt>
      <trkpt lat="45.75565" lon="3.54259">
        <ele>322.8</ele>
        <time>2024-05-01T11:52:17Z</time>
      </trkpt>
      <trkpt lat="45.7556" lon="3.54262">
        <ele>322.8</ele>
        <time>2024-05-01T11:52:18Z</time>
      </trkpt>
      <trkpt lat="45.75554" lon="3.54264">
        <ele>322.8</ele>
        <time>2024-05-01T11:52:19Z</time>
      </trkpt>
      <trkpt lat="45.75541" lon="3.54269">
        <ele>323</ele>
        <time>2024-05-01T11:52:20Z</time>
      </trkpt>
      <trkpt lat="45.75541" lon="3.54269">
        <ele>323</ele>
        <time>2024-05-01T11:52:21Z</time>
      </trkpt>
      <trkpt lat="45.75535" lon="3.54272">
        <ele>323.2</ele>
        <time>2024-05-01T11:52:22Z</time>
      </trkpt>
      <trkpt lat="45.75529" lon="3.54275">
        <ele>323.2</ele>
        <time>2024-05-01T11:52:23Z</time>
      </trkpt>
      <trkpt lat="45.75523" lon="3.54277">
        <ele>323.2</ele>
        <time>2024-05-01T11:52:24Z</time>
      </trkpt>
      <trkpt lat="45.75517" lon="3.5428">
        <ele>323.2</ele>
        <time>2024-05-01T11:52:25Z</time>
      </trkpt>
      <trkpt lat="45.75511" lon="3.54282">
        <ele>323.4</ele>
        <time>2024-05-01T11:52:26Z</time>
      </trkpt>
      <trkpt lat="45.75504" lon="3.54285">
        <ele>323.4</ele>
        <time>2024-05-01T11:52:27Z</time>
      </trkpt>
      <trkpt lat="45.75498" lon="3.54288">
        <ele>323.4</ele>
        <time>2024-05-01T11:52:28Z</time>
      </trkpt>
      <trkpt lat="45.75486" lon="3.54293">
        <ele>323.4</ele>
        <time>2024-05-01T11:52:29Z</time>
      </trkpt>
      <trkpt lat="45.75486" lon="3.54293">
        <ele>323.4</ele>
        <time>2024-05-01T11:52:30Z</time>
      </trkpt>
      <trkpt lat="45.7548" lon="3.54295">
        <ele>323.4</ele>
        <time>2024-05-01T11:52:31Z</time>
      </trkpt>
      <trkpt lat="45.75473" lon="3.54298">
        <ele>323.4</ele>
        <time>2024-05-01T11:52:32Z</time>
      </trkpt>
      <trkpt lat="45.75467" lon="3.54301">
        <ele>323.4</ele>
        <time>2024-05-01T11:52:33Z</time>
      </trkpt>
      <trkpt lat="45.75462" lon="3.54303">
        <ele>323.4</ele>
        <time>2024-05-01T11:52:34Z</time>
      </trkpt>
      <trkpt lat="45.75456" lon="3.54306">
        <ele>323.4</ele>
        <time>2024-05-01T11:52:35Z</time>
      </trkpt>
      <trkpt lat="45.7545" lon="3.54308">
        <ele>323.4</ele>
        <time>2024-05-01T11:52:36Z</time>
      </trkpt>
      <trkpt lat="45.75444" lon="3.54311">
        <ele>323.4</ele>
        <time>2024-05-01T11:52:37Z</time>
      </trkpt>
      <trkpt lat="45.75438" lon="3.54313">
        <ele>323.4</ele>
        <time>2024-05-01T11:52:38Z</time>
      </trkpt>
      <trkpt lat="45.75432" lon="3.54316">
        <ele>323.4</ele>
        <time>2024-05-01T11:52:39Z</time>
      </trkpt>
      <trkpt lat="45.75426" lon="3.54318">
        <ele>323.4</ele>
        <time>2024-05-01T11:52:40Z</time>
      </trkpt>
      <trkpt lat="45.75419" lon="3.54321">
        <ele>323.4</ele>
        <time>2024-05-01T11:52:41Z</time>
      </trkpt>
      <trkpt lat="45.75413" lon="3.54324">
        <ele>323.4</ele>
        <time>2024-05-01T11:52:42Z</time>
      </trkpt>
      <trkpt lat="45.75406" lon="3.54326">
        <ele>323.6</ele>
        <time>2024-05-01T11:52:43Z</time>
      </trkpt>
      <trkpt lat="45.75399" lon="3.54329">
        <ele>323.6</ele>
        <time>2024-05-01T11:52:44Z</time>
      </trkpt>
      <trkpt lat="45.75393" lon="3.54331">
        <ele>323.6</ele>
        <time>2024-05-01T11:52:45Z</time>
      </trkpt>
      <trkpt lat="45.75386" lon="3.54334">
        <ele>323.6</ele>
        <time>2024-05-01T11:52:46Z</time>
      </trkpt>
      <trkpt lat="45.7538" lon="3.54336">
        <ele>323.6</ele>
        <time>2024-05-01T11:52:47Z</time>
      </trkpt>
      <trkpt lat="45.75374" lon="3.54338">
        <ele>323.6</ele>
        <time>2024-05-01T11:52:48Z</time>
      </trkpt>
      <trkpt lat="45.75367" lon="3.54341">
        <ele>323.6</ele>
        <time>2024-05-01T11:52:49Z</time>
      </trkpt>
      <trkpt lat="45.7536" lon="3.54343">
        <ele>323.6</ele>
        <time>2024-05-01T11:52:50Z</time>
      </trkpt>
      <trkpt lat="45.75354" lon="3.54346">
        <ele>323.8</ele>
        <time>2024-05-01T11:52:51Z</time>
      </trkpt>
      <trkpt lat="45.75347" lon="3.54348">
        <ele>323.8</ele>
        <time>2024-05-01T11:52:52Z</time>
      </trkpt>
      <trkpt lat="45.75341" lon="3.54351">
        <ele>323.8</ele>
        <time>2024-05-01T11:52:53Z</time>
      </trkpt>
      <trkpt lat="45.75334" lon="3.54354">
        <ele>323.8</ele>
        <time>2024-05-01T11:52:54Z</time>
      </trkpt>
      <trkpt lat="45.75327" lon="3.54356">
        <ele>323.8</ele>
        <time>2024-05-01T11:52:55Z</time>
      </trkpt>
      <trkpt lat="45.75321" lon="3.54359">
        <ele>323.8</ele>
        <time>2024-05-01T11:52:56Z</time>
      </trkpt>
      <trkpt lat="45.75314" lon="3.54361">
        <ele>323.8</ele>
        <time>2024-05-01T11:52:57Z</time>
      </trkpt>
      <trkpt lat="45.75307" lon="3.54364">
        <ele>323.8</ele>
        <time>2024-05-01T11:52:58Z</time>
      </trkpt>
      <trkpt lat="45.75301" lon="3.54367">
        <ele>323.8</ele>
        <time>2024-05-01T11:52:59Z</time>
      </trkpt>
      <trkpt lat="45.75294" lon="3.54369">
        <ele>323.8</ele>
        <time>2024-05-01T11:53:00Z</time>
      </trkpt>
      <trkpt lat="45.75287" lon="3.54372">
        <ele>323.8</ele>
        <time>2024-05-01T11:53:01Z</time>
      </trkpt>
      <trkpt lat="45.7528" lon="3.54375">
        <ele>323.8</ele>
        <time>2024-05-01T11:53:02Z</time>
      </trkpt>
      <trkpt lat="45.75274" lon="3.54378">
        <ele>323.6</ele>
        <time>2024-05-01T11:53:03Z</time>
      </trkpt>
      <trkpt lat="45.75267" lon="3.5438">
        <ele>323.6</ele>
        <time>2024-05-01T11:53:04Z</time>
      </trkpt>
      <trkpt lat="45.7526" lon="3.54383">
        <ele>323.8</ele>
        <time>2024-05-01T11:53:05Z</time>
      </trkpt>
      <trkpt lat="45.75253" lon="3.54386">
        <ele>323.6</ele>
        <time>2024-05-01T11:53:06Z</time>
      </trkpt>
      <trkpt lat="45.75246" lon="3.54388">
        <ele>323.4</ele>
        <time>2024-05-01T11:53:07Z</time>
      </trkpt>
      <trkpt lat="45.7524" lon="3.54391">
        <ele>323.4</ele>
        <time>2024-05-01T11:53:08Z</time>
      </trkpt>
      <trkpt lat="45.75233" lon="3.54394">
        <ele>323.4</ele>
        <time>2024-05-01T11:53:09Z</time>
      </trkpt>
      <trkpt lat="45.75226" lon="3.54397">
        <ele>323.6</ele>
        <time>2024-05-01T11:53:10Z</time>
      </trkpt>
      <trkpt lat="45.75219" lon="3.54399">
        <ele>323.6</ele>
        <time>2024-05-01T11:53:11Z</time>
      </trkpt>
      <trkpt lat="45.75213" lon="3.54402">
        <ele>323.8</ele>
        <time>2024-05-01T11:53:12Z</time>
      </trkpt>
      <trkpt lat="45.75206" lon="3.54405">
        <ele>323.8</ele>
        <time>2024-05-01T11:53:13Z</time>
      </trkpt>
      <trkpt lat="45.75199" lon="3.54407">
        <ele>323.8</ele>
        <time>2024-05-01T11:53:14Z</time>
      </trkpt>
      <trkpt lat="45.75193" lon="3.5441">
        <ele>323.8</ele>
        <time>2024-05-01T11:53:15Z</time>
      </trkpt>
      <trkpt lat="45.75186" lon="3.54412">
        <ele>323.8</ele>
        <time>2024-05-01T11:53:16Z</time>
      </trkpt>
      <trkpt lat="45.7518" lon="3.54415">
        <ele>323.8</ele>
        <time>2024-05-01T11:53:17Z</time>
      </trkpt>
      <trkpt lat="45.75174" lon="3.54417">
        <ele>323.8</ele>
        <time>2024-05-01T11:53:18Z</time>
      </trkpt>
      <trkpt lat="45.75168" lon="3.5442">
        <ele>323.8</ele>
        <time>2024-05-01T11:53:19Z</time>
      </trkpt>
      <trkpt lat="45.75162" lon="3.54422">
        <ele>323.8</ele>
        <time>2024-05-01T11:53:20Z</time>
      </trkpt>
      <trkpt lat="45.75156" lon="3.54425">
        <ele>323.8</ele>
        <time>2024-05-01T11:53:21Z</time>
      </trkpt>
      <trkpt lat="45.7515" lon="3.54427">
        <ele>323.8</ele>
        <time>2024-05-01T11:53:22Z</time>
      </trkpt>
      <trkpt lat="45.75144" lon="3.54429">
        <ele>323.8</ele>
        <time>2024-05-01T11:53:23Z</time>
      </trkpt>
      <trkpt lat="45.75138" lon="3.54432">
        <ele>323.8</ele>
        <time>2024-05-01T11:53:24Z</time>
      </trkpt>
      <trkpt lat="45.75132" lon="3.54434">
        <ele>323.8</ele>
        <time>2024-05-01T11:53:25Z</time>
      </trkpt>
      <trkpt lat="45.75126" lon="3.54436">
        <ele>324</ele>
        <time>2024-05-01T11:53:26Z</time>
      </trkpt>
      <trkpt lat="45.7512" lon="3.54439">
        <ele>324</ele>
        <time>2024-05-01T11:53:27Z</time>
      </trkpt>
      <trkpt lat="45.75113" lon="3.54441">
        <ele>323.8</ele>
        <time>2024-05-01T11:53:28Z</time>
      </trkpt>
      <trkpt lat="45.75108" lon="3.54444">
        <ele>324</ele>
        <time>2024-05-01T11:53:29Z</time>
      </trkpt>
      <trkpt lat="45.75101" lon="3.54445">
        <ele>324</ele>
        <time>2024-05-01T11:53:30Z</time>
      </trkpt>
      <trkpt lat="45.75095" lon="3.54448">
        <ele>324</ele>
        <time>2024-05-01T11:53:31Z</time>
      </trkpt>
      <trkpt lat="45.75089" lon="3.5445">
        <ele>323.8</ele>
        <time>2024-05-01T11:53:32Z</time>
      </trkpt>
      <trkpt lat="45.75082" lon="3.54453">
        <ele>323.8</ele>
        <time>2024-05-01T11:53:33Z</time>
      </trkpt>
      <trkpt lat="45.75076" lon="3.54455">
        <ele>323.8</ele>
        <time>2024-05-01T11:53:34Z</time>
      </trkpt>
      <trkpt lat="45.75071" lon="3.54458">
        <ele>323.8</ele>
        <time>2024-05-01T11:53:35Z</time>
      </trkpt>
      <trkpt lat="45.75065" lon="3.5446">
        <ele>323.8</ele>
        <time>2024-05-01T11:53:36Z</time>
      </trkpt>
      <trkpt lat="45.75059" lon="3.54463">
        <ele>323.8</ele>
        <time>2024-05-01T11:53:37Z</time>
      </trkpt>
      <trkpt lat="45.75052" lon="3.54465">
        <ele>323.8</ele>
        <time>2024-05-01T11:53:38Z</time>
      </trkpt>
      <trkpt lat="45.75046" lon="3.54468">
        <ele>323.8</ele>
        <time>2024-05-01T11:53:39Z</time>
      </trkpt>
      <trkpt lat="45.7504" lon="3.5447">
        <ele>323.8</ele>
        <time>2024-05-01T11:53:40Z</time>
      </trkpt>
      <trkpt lat="45.75034" lon="3.54472">
        <ele>324</ele>
        <time>2024-05-01T11:53:41Z</time>
      </trkpt>
      <trkpt lat="45.75029" lon="3.54475">
        <ele>324</ele>
        <time>2024-05-01T11:53:42Z</time>
      </trkpt>
      <trkpt lat="45.75023" lon="3.54477">
        <ele>324</ele>
        <time>2024-05-01T11:53:43Z</time>
      </trkpt>
      <trkpt lat="45.75017" lon="3.54479">
        <ele>324</ele>
        <time>2024-05-01T11:53:44Z</time>
      </trkpt>
      <trkpt lat="45.75011" lon="3.54481">
        <ele>324</ele>
        <time>2024-05-01T11:53:45Z</time>
      </trkpt>
      <trkpt lat="45.75005" lon="3.54484">
        <ele>324.2</ele>
        <time>2024-05-01T11:53:46Z</time>
      </trkpt>
      <trkpt lat="45.74999" lon="3.54486">
        <ele>324.2</ele>
        <time>2024-05-01T11:53:47Z</time>
      </trkpt>
      <trkpt lat="45.74994" lon="3.54489">
        <ele>324.2</ele>
        <time>2024-05-01T11:53:48Z</time>
      </trkpt>
      <trkpt lat="45.74988" lon="3.54491">
        <ele>324.2</ele>
        <time>2024-05-01T11:53:49Z</time>
      </trkpt>
      <trkpt lat="45.74982" lon="3.54494">
        <ele>324.2</ele>
        <time>2024-05-01T11:53:50Z</time>
      </trkpt>
      <trkpt lat="45.74976" lon="3.54496">
        <ele>324.2</ele>
        <time>2024-05-01T11:53:51Z</time>
      </trkpt>
      <trkpt lat="45.7497" lon="3.54498">
        <ele>324.4</ele>
        <time>2024-05-01T11:53:52Z</time>
      </trkpt>
      <trkpt lat="45.74964" lon="3.54501">
        <ele>324.4</ele>
        <time>2024-05-01T11:53:53Z</time>
      </trkpt>
      <trkpt lat="45.74958" lon="3.54503">
        <ele>324.4</ele>
        <time>2024-05-01T11:53:54Z</time>
      </trkpt>
      <trkpt lat="45.74952" lon="3.54506">
        <ele>324.4</ele>
        <time>2024-05-01T11:53:55Z</time>
      </trkpt>
      <trkpt lat="45.74947" lon="3.54508">
        <ele>324.4</ele>
        <time>2024-05-01T11:53:56Z</time>
      </trkpt>
      <trkpt lat="45.74941" lon="3.5451">
        <ele>324.4</ele>
        <time>2024-05-01T11:53:57Z</time>
      </trkpt>
      <trkpt lat="45.74935" lon="3.54513">
        <ele>324.6</ele>
        <time>2024-05-01T11:53:58Z</time>
      </trkpt>
      <trkpt lat="45.74929" lon="3.54515">
        <ele>324.6</ele>
        <time>2024-05-01T11:53:59Z</time>
      </trkpt>
      <trkpt lat="45.74923" lon="3.54518">
        <ele>324.6</ele>
        <time>2024-05-01T11:54:00Z</time>
      </trkpt>
      <trkpt lat="45.74917" lon="3.5452">
        <ele>324.6</ele>
        <time>2024-05-01T11:54:01Z</time>
      </trkpt>
      <trkpt lat="45.74911" lon="3.54523">
        <ele>324.8</ele>
        <time>2024-05-01T11:54:02Z</time>
      </trkpt>
      <trkpt lat="45.74905" lon="3.54525">
        <ele>324.8</ele>
        <time>2024-05-01T11:54:03Z</time>
      </trkpt>
      <trkpt lat="45.74899" lon="3.54527">
        <ele>324.8</ele>
        <time>2024-05-01T11:54:04Z</time>
      </trkpt>
      <trkpt lat="45.74893" lon="3.54529">
        <ele>324.8</ele>
        <time>2024-05-01T11:54:05Z</time>
      </trkpt>
      <trkpt lat="45.74888" lon="3.54531">
        <ele>324.8</ele>
        <time>2024-05-01T11:54:06Z</time>
      </trkpt>
      <trkpt lat="45.74882" lon="3.54533">
        <ele>324.8</ele>
        <time>2024-05-01T11:54:07Z</time>
      </trkpt>
      <trkpt lat="45.74876" lon="3.54535">
        <ele>324.8</ele>
        <time>2024-05-01T11:54:08Z</time>
      </trkpt>
      <trkpt lat="45.7487" lon="3.54537">
        <ele>325</ele>
        <time>2024-05-01T11:54:09Z</time>
      </trkpt>
      <trkpt lat="45.74864" lon="3.54539">
        <ele>325</ele>
        <time>2024-05-01T11:54:10Z</time>
      </trkpt>
      <trkpt lat="45.74858" lon="3.54542">
        <ele>325</ele>
        <time>2024-05-01T11:54:11Z</time>
      </trkpt>
      <trkpt lat="45.74852" lon="3.54544">
        <ele>325</ele>
        <time>2024-05-01T11:54:12Z</time>
      </trkpt>
      <trkpt lat="45.74846" lon="3.54547">
        <ele>325</ele>
        <time>2024-05-01T11:54:13Z</time>
      </trkpt>
      <trkpt lat="45.7484" lon="3.5455">
        <ele>325</ele>
        <time>2024-05-01T11:54:14Z</time>
      </trkpt>
      <trkpt lat="45.74834" lon="3.54552">
        <ele>325</ele>
        <time>2024-05-01T11:54:15Z</time>
      </trkpt>
      <trkpt lat="45.74828" lon="3.54555">
        <ele>325</ele>
        <time>2024-05-01T11:54:16Z</time>
      </trkpt>
      <trkpt lat="45.74822" lon="3.54557">
        <ele>325.2</ele>
        <time>2024-05-01T11:54:17Z</time>
      </trkpt>
      <trkpt lat="45.74816" lon="3.54561">
        <ele>325.2</ele>
        <time>2024-05-01T11:54:18Z</time>
      </trkpt>
      <trkpt lat="45.7481" lon="3.54563">
        <ele>325.2</ele>
        <time>2024-05-01T11:54:19Z</time>
      </trkpt>
      <trkpt lat="45.74804" lon="3.54566">
        <ele>325.2</ele>
        <time>2024-05-01T11:54:20Z</time>
      </trkpt>
      <trkpt lat="45.74797" lon="3.54568">
        <ele>325.2</ele>
        <time>2024-05-01T11:54:21Z</time>
      </trkpt>
      <trkpt lat="45.74791" lon="3.5457">
        <ele>325.2</ele>
        <time>2024-05-01T11:54:22Z</time>
      </trkpt>
      <trkpt lat="45.74785" lon="3.54572">
        <ele>325.2</ele>
        <time>2024-05-01T11:54:23Z</time>
      </trkpt>
      <trkpt lat="45.74779" lon="3.54574">
        <ele>325.2</ele>
        <time>2024-05-01T11:54:24Z</time>
      </trkpt>
      <trkpt lat="45.74773" lon="3.54576">
        <ele>325.2</ele>
        <time>2024-05-01T11:54:25Z</time>
      </trkpt>
      <trkpt lat="45.74767" lon="3.54578">
        <ele>325.2</ele>
        <time>2024-05-01T11:54:26Z</time>
      </trkpt>
      <trkpt lat="45.74761" lon="3.54581">
        <ele>325.4</ele>
        <time>2024-05-01T11:54:27Z</time>
      </trkpt>
      <trkpt lat="45.74755" lon="3.54583">
        <ele>325.4</ele>
        <time>2024-05-01T11:54:28Z</time>
      </trkpt>
      <trkpt lat="45.74749" lon="3.54584">
        <ele>325.2</ele>
        <time>2024-05-01T11:54:29Z</time>
      </trkpt>
      <trkpt lat="45.74743" lon="3.54586">
        <ele>325.2</ele>
        <time>2024-05-01T11:54:30Z</time>
      </trkpt>
      <trkpt lat="45.74737" lon="3.54588">
        <ele>325.2</ele>
        <time>2024-05-01T11:54:31Z</time>
      </trkpt>
      <trkpt lat="45.74731" lon="3.5459">
        <ele>325.2</ele>
        <time>2024-05-01T11:54:32Z</time>
      </trkpt>
      <trkpt lat="45.74724" lon="3.54592">
        <ele>325.2</ele>
        <time>2024-05-01T11:54:33Z</time>
      </trkpt>
      <trkpt lat="45.74718" lon="3.54594">
        <ele>325.2</ele>
        <time>2024-05-01T11:54:34Z</time>
      </trkpt>
      <trkpt lat="45.74712" lon="3.54595">
        <ele>325.2</ele>
        <time>2024-05-01T11:54:35Z</time>
      </trkpt>
      <trkpt lat="45.74706" lon="3.54596">
        <ele>325.4</ele>
        <time>2024-05-01T11:54:36Z</time>
      </trkpt>
      <trkpt lat="45.747" lon="3.54597">
        <ele>325.4</ele>
        <time>2024-05-01T11:54:37Z</time>
      </trkpt>
      <trkpt lat="45.74694" lon="3.54598">
        <ele>325.4</ele>
        <time>2024-05-01T11:54:38Z</time>
      </trkpt>
      <trkpt lat="45.74688" lon="3.54599">
        <ele>325.4</ele>
        <time>2024-05-01T11:54:39Z</time>
      </trkpt>
      <trkpt lat="45.74682" lon="3.546">
        <ele>325.4</ele>
        <time>2024-05-01T11:54:40Z</time>
      </trkpt>
      <trkpt lat="45.74676" lon="3.54601">
        <ele>325.4</ele>
        <time>2024-05-01T11:54:41Z</time>
      </trkpt>
      <trkpt lat="45.7467" lon="3.54602">
        <ele>325.6</ele>
        <time>2024-05-01T11:54:42Z</time>
      </trkpt>
      <trkpt lat="45.74665" lon="3.54602">
        <ele>325.6</ele>
        <time>2024-05-01T11:54:43Z</time>
      </trkpt>
      <trkpt lat="45.74659" lon="3.54603">
        <ele>325.6</ele>
        <time>2024-05-01T11:54:44Z</time>
      </trkpt>
      <trkpt lat="45.74653" lon="3.54604">
        <ele>325.6</ele>
        <time>2024-05-01T11:54:45Z</time>
      </trkpt>
      <trkpt lat="45.74648" lon="3.54605">
        <ele>325.6</ele>
        <time>2024-05-01T11:54:46Z</time>
      </trkpt>
      <trkpt lat="45.74642" lon="3.54606">
        <ele>325.8</ele>
        <time>2024-05-01T11:54:47Z</time>
      </trkpt>
      <trkpt lat="45.74637" lon="3.54607">
        <ele>325.8</ele>
        <time>2024-05-01T11:54:48Z</time>
      </trkpt>
      <trkpt lat="45.74631" lon="3.54608">
        <ele>325.8</ele>
        <time>2024-05-01T11:54:49Z</time>
      </trkpt>
      <trkpt lat="45.74625" lon="3.54609">
        <ele>325.8</ele>
        <time>2024-05-01T11:54:50Z</time>
      </trkpt>
      <trkpt lat="45.7462" lon="3.5461">
        <ele>325.8</ele>
        <time>2024-05-01T11:54:51Z</time>
      </trkpt>
      <trkpt lat="45.74614" lon="3.5461">
        <ele>326</ele>
        <time>2024-05-01T11:54:52Z</time>
      </trkpt>
      <trkpt lat="45.74609" lon="3.54611">
        <ele>326</ele>
        <time>2024-05-01T11:54:53Z</time>
      </trkpt>
      <trkpt lat="45.74603" lon="3.54612">
        <ele>326</ele>
        <time>2024-05-01T11:54:54Z</time>
      </trkpt>
      <trkpt lat="45.74597" lon="3.54613">
        <ele>326</ele>
        <time>2024-05-01T11:54:55Z</time>
      </trkpt>
      <trkpt lat="45.74592" lon="3.54614">
        <ele>326.2</ele>
        <time>2024-05-01T11:54:56Z</time>
      </trkpt>
      <trkpt lat="45.74586" lon="3.54615">
        <ele>326.2</ele>
        <time>2024-05-01T11:54:57Z</time>
      </trkpt>
      <trkpt lat="45.74581" lon="3.54616">
        <ele>326.2</ele>
        <time>2024-05-01T11:54:58Z</time>
      </trkpt>
      <trkpt lat="45.74575" lon="3.54617">
        <ele>326.2</ele>
        <time>2024-05-01T11:54:59Z</time>
      </trkpt>
      <trkpt lat="45.7457" lon="3.54617">
        <ele>326.2</ele>
        <time>2024-05-01T11:55:00Z</time>
      </trkpt>
      <trkpt lat="45.74564" lon="3.54618">
        <ele>326.4</ele>
        <time>2024-05-01T11:55:01Z</time>
      </trkpt>
      <trkpt lat="45.74558" lon="3.54617">
        <ele>326.4</ele>
        <time>2024-05-01T11:55:02Z</time>
      </trkpt>
      <trkpt lat="45.74553" lon="3.54616">
        <ele>326.4</ele>
        <time>2024-05-01T11:55:03Z</time>
      </trkpt>
      <trkpt lat="45.74548" lon="3.54615">
        <ele>326.4</ele>
        <time>2024-05-01T11:55:04Z</time>
      </trkpt>
      <trkpt lat="45.74543" lon="3.54614">
        <ele>326.6</ele>
        <time>2024-05-01T11:55:05Z</time>
      </trkpt>
      <trkpt lat="45.74537" lon="3.54613">
        <ele>326.6</ele>
        <time>2024-05-01T11:55:06Z</time>
      </trkpt>
      <trkpt lat="45.74532" lon="3.54612">
        <ele>326.8</ele>
        <time>2024-05-01T11:55:07Z</time>
      </trkpt>
      <trkpt lat="45.74527" lon="3.54611">
        <ele>326.8</ele>
        <time>2024-05-01T11:55:08Z</time>
      </trkpt>
      <trkpt lat="45.74521" lon="3.5461">
        <ele>326.8</ele>
        <time>2024-05-01T11:55:09Z</time>
      </trkpt>
      <trkpt lat="45.74516" lon="3.54609">
        <ele>327</ele>
        <time>2024-05-01T11:55:10Z</time>
      </trkpt>
      <trkpt lat="45.74511" lon="3.54606">
        <ele>327</ele>
        <time>2024-05-01T11:55:11Z</time>
      </trkpt>
      <trkpt lat="45.74507" lon="3.54604">
        <ele>327</ele>
        <time>2024-05-01T11:55:12Z</time>
      </trkpt>
      <trkpt lat="45.74502" lon="3.54597">
        <ele>327.2</ele>
        <time>2024-05-01T11:55:13Z</time>
      </trkpt>
      <trkpt lat="45.74499" lon="3.54591">
        <ele>327.2</ele>
        <time>2024-05-01T11:55:14Z</time>
      </trkpt>
      <trkpt lat="45.74494" lon="3.54584">
        <ele>327.2</ele>
        <time>2024-05-01T11:55:15Z</time>
      </trkpt>
      <trkpt lat="45.74489" lon="3.54581">
        <ele>327.2</ele>
        <time>2024-05-01T11:55:16Z</time>
      </trkpt>
      <trkpt lat="45.74484" lon="3.54576">
        <ele>327.4</ele>
        <time>2024-05-01T11:55:17Z</time>
      </trkpt>
      <trkpt lat="45.7448" lon="3.54569">
        <ele>327.4</ele>
        <time>2024-05-01T11:55:18Z</time>
      </trkpt>
      <trkpt lat="45.74472" lon="3.54556">
        <ele>327.4</ele>
        <time>2024-05-01T11:55:19Z</time>
      </trkpt>
      <trkpt lat="45.74472" lon="3.54556">
        <ele>327.4</ele>
        <time>2024-05-01T11:55:20Z</time>
      </trkpt>
      <trkpt lat="45.74468" lon="3.54549">
        <ele>327.6</ele>
        <time>2024-05-01T11:55:21Z</time>
      </trkpt>
      <trkpt lat="45.74459" lon="3.54537">
        <ele>327.6</ele>
        <time>2024-05-01T11:55:22Z</time>
      </trkpt>
      <trkpt lat="45.74459" lon="3.54537">
        <ele>327.6</ele>
        <time>2024-05-01T11:55:23Z</time>
      </trkpt>
      <trkpt lat="45.74448" lon="3.54531">
        <ele>327.6</ele>
        <time>2024-05-01T11:55:24Z</time>
      </trkpt>
      <trkpt lat="45.74448" lon="3.54531">
        <ele>327.8</ele>
        <time>2024-05-01T11:55:25Z</time>
      </trkpt>
      <trkpt lat="45.74436" lon="3.54531">
        <ele>327.8</ele>
        <time>2024-05-01T11:55:26Z</time>
      </trkpt>
      <trkpt lat="45.74436" lon="3.54531">
        <ele>327.8</ele>
        <time>2024-05-01T11:55:27Z</time>
      </trkpt>
      <trkpt lat="45.74425" lon="3.54536">
        <ele>328</ele>
        <time>2024-05-01T11:55:28Z</time>
      </trkpt>
      <trkpt lat="45.74425" lon="3.54536">
        <ele>328</ele>
        <time>2024-05-01T11:55:29Z</time>
      </trkpt>
      <trkpt lat="45.74413" lon="3.54543">
        <ele>328</ele>
        <time>2024-05-01T11:55:30Z</time>
      </trkpt>
      <trkpt lat="45.74413" lon="3.54543">
        <ele>328.2</ele>
        <time>2024-05-01T11:55:31Z</time>
      </trkpt>
      <trkpt lat="45.74408" lon="3.54547">
        <ele>328.2</ele>
        <time>2024-05-01T11:55:32Z</time>
      </trkpt>
      <trkpt lat="45.74403" lon="3.54552">
        <ele>328.2</ele>
        <time>2024-05-01T11:55:33Z</time>
      </trkpt>
      <trkpt lat="45.74398" lon="3.54557">
        <ele>328.2</ele>
        <time>2024-05-01T11:55:34Z</time>
      </trkpt>
      <trkpt lat="45.74393" lon="3.54562">
        <ele>328.2</ele>
        <time>2024-05-01T11:55:35Z</time>
      </trkpt>
      <trkpt lat="45.74388" lon="3.54567">
        <ele>328.4</ele>
        <time>2024-05-01T11:55:36Z</time>
      </trkpt>
      <trkpt lat="45.74383" lon="3.54572">
        <ele>328.4</ele>
        <time>2024-05-01T11:55:37Z</time>
      </trkpt>
      <trkpt lat="45.74378" lon="3.54577">
        <ele>328.4</ele>
        <time>2024-05-01T11:55:38Z</time>
      </trkpt>
      <trkpt lat="45.74373" lon="3.54581">
        <ele>328.6</ele>
        <time>2024-05-01T11:55:39Z</time>
      </trkpt>
      <trkpt lat="45.74368" lon="3.54586">
        <ele>328.6</ele>
        <time>2024-05-01T11:55:40Z</time>
      </trkpt>
      <trkpt lat="45.74364" lon="3.54591">
        <ele>328.8</ele>
        <time>2024-05-01T11:55:41Z</time>
      </trkpt>
      <trkpt lat="45.74359" lon="3.54595">
        <ele>328.8</ele>
        <time>2024-05-01T11:55:42Z</time>
      </trkpt>
      <trkpt lat="45.74354" lon="3.546">
        <ele>328.8</ele>
        <time>2024-05-01T11:55:43Z</time>
      </trkpt>
      <trkpt lat="45.7435" lon="3.54604">
        <ele>329</ele>
        <time>2024-05-01T11:55:44Z</time>
      </trkpt>
      <trkpt lat="45.74345" lon="3.54608">
        <ele>329</ele>
        <time>2024-05-01T11:55:45Z</time>
      </trkpt>
      <trkpt lat="45.74341" lon="3.54611">
        <ele>329</ele>
        <time>2024-05-01T11:55:46Z</time>
      </trkpt>
      <trkpt lat="45.74336" lon="3.54615">
        <ele>329.2</ele>
        <time>2024-05-01T11:55:47Z</time>
      </trkpt>
      <trkpt lat="45.74332" lon="3.54618">
        <ele>329.2</ele>
        <time>2024-05-01T11:55:48Z</time>
      </trkpt>
      <trkpt lat="45.74327" lon="3.54622">
        <ele>329.2</ele>
        <time>2024-05-01T11:55:49Z</time>
      </trkpt>
      <trkpt lat="45.74323" lon="3.54625">
        <ele>329.4</ele>
        <time>2024-05-01T11:55:50Z</time>
      </trkpt>
      <trkpt lat="45.74319" lon="3.54628">
        <ele>329.4</ele>
        <time>2024-05-01T11:55:51Z</time>
      </trkpt>
      <trkpt lat="45.74315" lon="3.54631">
        <ele>329.6</ele>
        <time>2024-05-01T11:55:52Z</time>
      </trkpt>
      <trkpt lat="45.74311" lon="3.54634">
        <ele>329.6</ele>
        <time>2024-05-01T11:55:53Z</time>
      </trkpt>
      <trkpt lat="45.74307" lon="3.54637">
        <ele>329.8</ele>
        <time>2024-05-01T11:55:54Z</time>
      </trkpt>
      <trkpt lat="45.74303" lon="3.5464">
        <ele>329.8</ele>
        <time>2024-05-01T11:55:55Z</time>
      </trkpt>
      <trkpt lat="45.74299" lon="3.54643">
        <ele>329.8</ele>
        <time>2024-05-01T11:55:56Z</time>
      </trkpt>
      <trkpt lat="45.74295" lon="3.54647">
        <ele>330</ele>
        <time>2024-05-01T11:55:57Z</time>
      </trkpt>
      <trkpt lat="45.74291" lon="3.5465">
        <ele>330</ele>
        <time>2024-05-01T11:55:58Z</time>
      </trkpt>
      <trkpt lat="45.74286" lon="3.54653">
        <ele>330</ele>
        <time>2024-05-01T11:55:59Z</time>
      </trkpt>
      <trkpt lat="45.74282" lon="3.54656">
        <ele>330.2</ele>
        <time>2024-05-01T11:56:00Z</time>
      </trkpt>
      <trkpt lat="45.74278" lon="3.5466">
        <ele>330.2</ele>
        <time>2024-05-01T11:56:01Z</time>
      </trkpt>
      <trkpt lat="45.74274" lon="3.54664">
        <ele>330.4</ele>
        <time>2024-05-01T11:56:02Z</time>
      </trkpt>
      <trkpt lat="45.74271" lon="3.54667">
        <ele>330.4</ele>
        <time>2024-05-01T11:56:03Z</time>
      </trkpt>
      <trkpt lat="45.74267" lon="3.54671">
        <ele>330.6</ele>
        <time>2024-05-01T11:56:04Z</time>
      </trkpt>
      <trkpt lat="45.74263" lon="3.54674">
        <ele>330.6</ele>
        <time>2024-05-01T11:56:05Z</time>
      </trkpt>
      <trkpt lat="45.74259" lon="3.54678">
        <ele>330.6</ele>
        <time>2024-05-01T11:56:06Z</time>
      </trkpt>
      <trkpt lat="45.74256" lon="3.54681">
        <ele>330.8</ele>
        <time>2024-05-01T11:56:07Z</time>
      </trkpt>
      <trkpt lat="45.74252" lon="3.54684">
        <ele>330.8</ele>
        <time>2024-05-01T11:56:08Z</time>
      </trkpt>
      <trkpt lat="45.74248" lon="3.54688">
        <ele>331</ele>
        <time>2024-05-01T11:56:09Z</time>
      </trkpt>
      <trkpt lat="45.74244" lon="3.54691">
        <ele>331</ele>
        <time>2024-05-01T11:56:10Z</time>
      </trkpt>
      <trkpt lat="45.74241" lon="3.54695">
        <ele>331.2</ele>
        <time>2024-05-01T11:56:11Z</time>
      </trkpt>
      <trkpt lat="45.74237" lon="3.54698">
        <ele>331.2</ele>
        <time>2024-05-01T11:56:12Z</time>
      </trkpt>
      <trkpt lat="45.74233" lon="3.54701">
        <ele>331.4</ele>
        <time>2024-05-01T11:56:13Z</time>
      </trkpt>
      <trkpt lat="45.74229" lon="3.54704">
        <ele>331.6</ele>
        <time>2024-05-01T11:56:14Z</time>
      </trkpt>
      <trkpt lat="45.74224" lon="3.54706">
        <ele>331.6</ele>
        <time>2024-05-01T11:56:15Z</time>
      </trkpt>
      <trkpt lat="45.74219" lon="3.54707">
        <ele>331.6</ele>
        <time>2024-05-01T11:56:16Z</time>
      </trkpt>
      <trkpt lat="45.74215" lon="3.54709">
        <ele>331.6</ele>
        <time>2024-05-01T11:56:17Z</time>
      </trkpt>
      <trkpt lat="45.7421" lon="3.5471">
        <ele>331.8</ele>
        <time>2024-05-01T11:56:18Z</time>
      </trkpt>
      <trkpt lat="45.74205" lon="3.54711">
        <ele>331.8</ele>
        <time>2024-05-01T11:56:19Z</time>
      </trkpt>
      <trkpt lat="45.742" lon="3.54713">
        <ele>332</ele>
        <time>2024-05-01T11:56:20Z</time>
      </trkpt>
      <trkpt lat="45.74195" lon="3.54714">
        <ele>332</ele>
        <time>2024-05-01T11:56:21Z</time>
      </trkpt>
      <trkpt lat="45.7419" lon="3.54717">
        <ele>332</ele>
        <time>2024-05-01T11:56:22Z</time>
      </trkpt>
      <trkpt lat="45.74185" lon="3.54719">
        <ele>332.2</ele>
        <time>2024-05-01T11:56:23Z</time>
      </trkpt>
      <trkpt lat="45.7418" lon="3.54722">
        <ele>332.2</ele>
        <time>2024-05-01T11:56:24Z</time>
      </trkpt>
      <trkpt lat="45.74175" lon="3.54725">
        <ele>332.2</ele>
        <time>2024-05-01T11:56:25Z</time>
      </trkpt>
      <trkpt lat="45.7417" lon="3.54728">
        <ele>332.2</ele>
        <time>2024-05-01T11:56:26Z</time>
      </trkpt>
      <trkpt lat="45.74165" lon="3.5473">
        <ele>332.2</ele>
        <time>2024-05-01T11:56:27Z</time>
      </trkpt>
      <trkpt lat="45.7416" lon="3.54733">
        <ele>332.2</ele>
        <time>2024-05-01T11:56:28Z</time>
      </trkpt>
      <trkpt lat="45.74155" lon="3.54736">
        <ele>332</ele>
        <time>2024-05-01T11:56:29Z</time>
      </trkpt>
      <trkpt lat="45.7415" lon="3.54738">
        <ele>332</ele>
        <time>2024-05-01T11:56:30Z</time>
      </trkpt>
      <trkpt lat="45.74145" lon="3.54741">
        <ele>332</ele>
        <time>2024-05-01T11:56:31Z</time>
      </trkpt>
      <trkpt lat="45.74139" lon="3.54744">
        <ele>332</ele>
        <time>2024-05-01T11:56:32Z</time>
      </trkpt>
      <trkpt lat="45.74134" lon="3.54747">
        <ele>331.8</ele>
        <time>2024-05-01T11:56:33Z</time>
      </trkpt>
      <trkpt lat="45.74129" lon="3.5475">
        <ele>331.8</ele>
        <time>2024-05-01T11:56:34Z</time>
      </trkpt>
      <trkpt lat="45.74124" lon="3.54752">
        <ele>331.8</ele>
        <time>2024-05-01T11:56:35Z</time>
      </trkpt>
      <trkpt lat="45.74118" lon="3.54755">
        <ele>331.8</ele>
        <time>2024-05-01T11:56:36Z</time>
      </trkpt>
      <trkpt lat="45.74113" lon="3.54758">
        <ele>331.8</ele>
        <time>2024-05-01T11:56:37Z</time>
      </trkpt>
      <trkpt lat="45.74108" lon="3.54761">
        <ele>332.4</ele>
        <time>2024-05-01T11:56:38Z</time>
      </trkpt>
      <trkpt lat="45.74103" lon="3.54763">
        <ele>331.8</ele>
        <time>2024-05-01T11:56:39Z</time>
      </trkpt>
      <trkpt lat="45.74097" lon="3.54765">
        <ele>331.2</ele>
        <time>2024-05-01T11:56:40Z</time>
      </trkpt>
      <trkpt lat="45.74092" lon="3.54767">
        <ele>331.4</ele>
        <time>2024-05-01T11:56:41Z</time>
      </trkpt>
      <trkpt lat="45.74087" lon="3.54768">
        <ele>331.4</ele>
        <time>2024-05-01T11:56:42Z</time>
      </trkpt>
      <trkpt lat="45.74082" lon="3.5477">
        <ele>331.2</ele>
        <time>2024-05-01T11:56:43Z</time>
      </trkpt>
      <trkpt lat="45.74078" lon="3.54772">
        <ele>331.2</ele>
        <time>2024-05-01T11:56:44Z</time>
      </trkpt>
      <trkpt lat="45.74073" lon="3.54773">
        <ele>331</ele>
        <time>2024-05-01T11:56:45Z</time>
      </trkpt>
      <trkpt lat="45.74068" lon="3.54775">
        <ele>330.8</ele>
        <time>2024-05-01T11:56:46Z</time>
      </trkpt>
      <trkpt lat="45.74064" lon="3.54776">
        <ele>330.8</ele>
        <time>2024-05-01T11:56:47Z</time>
      </trkpt>
      <trkpt lat="45.74059" lon="3.54778">
        <ele>330.6</ele>
        <time>2024-05-01T11:56:48Z</time>
      </trkpt>
      <trkpt lat="45.74054" lon="3.5478">
        <ele>330.6</ele>
        <time>2024-05-01T11:56:49Z</time>
      </trkpt>
      <trkpt lat="45.74049" lon="3.54781">
        <ele>330.6</ele>
        <time>2024-05-01T11:56:50Z</time>
      </trkpt>
      <trkpt lat="45.74044" lon="3.54783">
        <ele>330.4</ele>
        <time>2024-05-01T11:56:51Z</time>
      </trkpt>
      <trkpt lat="45.74039" lon="3.54785">
        <ele>330.2</ele>
        <time>2024-05-01T11:56:52Z</time>
      </trkpt>
      <trkpt lat="45.74034" lon="3.54787">
        <ele>330.2</ele>
        <time>2024-05-01T11:56:53Z</time>
      </trkpt>
      <trkpt lat="45.74029" lon="3.54788">
        <ele>330</ele>
        <time>2024-05-01T11:56:54Z</time>
      </trkpt>
      <trkpt lat="45.74024" lon="3.5479">
        <ele>329.8</ele>
        <time>2024-05-01T11:56:55Z</time>
      </trkpt>
      <trkpt lat="45.74019" lon="3.54793">
        <ele>329.6</ele>
        <time>2024-05-01T11:56:56Z</time>
      </trkpt>
      <trkpt lat="45.74015" lon="3.54795">
        <ele>329.4</ele>
        <time>2024-05-01T11:56:57Z</time>
      </trkpt>
      <trkpt lat="45.74011" lon="3.54798">
        <ele>329.2</ele>
        <time>2024-05-01T11:56:58Z</time>
      </trkpt>
      <trkpt lat="45.74007" lon="3.548">
        <ele>329</ele>
        <time>2024-05-01T11:56:59Z</time>
      </trkpt>
      <trkpt lat="45.74004" lon="3.54802">
        <ele>329</ele>
        <time>2024-05-01T11:57:00Z</time>
      </trkpt>
      <trkpt lat="45.74001" lon="3.54804">
        <ele>329</ele>
        <time>2024-05-01T11:57:01Z</time>
      </trkpt>
      <trkpt lat="45.73996" lon="3.54808">
        <ele>328.8</ele>
        <time>2024-05-01T11:57:02Z</time>
      </trkpt>
      <trkpt lat="45.73992" lon="3.54811">
        <ele>328.6</ele>
        <time>2024-05-01T11:57:03Z</time>
      </trkpt>
      <trkpt lat="45.73987" lon="3.54814">
        <ele>328.4</ele>
        <time>2024-05-01T11:57:04Z</time>
      </trkpt>
      <trkpt lat="45.73983" lon="3.54817">
        <ele>328.4</ele>
        <time>2024-05-01T11:57:05Z</time>
      </trkpt>
      <trkpt lat="45.73978" lon="3.54821">
        <ele>328.2</ele>
        <time>2024-05-01T11:57:06Z</time>
      </trkpt>
      <trkpt lat="45.73973" lon="3.54824">
        <ele>328</ele>
        <time>2024-05-01T11:57:07Z</time>
      </trkpt>
      <trkpt lat="45.73968" lon="3.54827">
        <ele>327.8</ele>
        <time>2024-05-01T11:57:08Z</time>
      </trkpt>
      <trkpt lat="45.73964" lon="3.54831">
        <ele>327.6</ele>
        <time>2024-05-01T11:57:09Z</time>
      </trkpt>
      <trkpt lat="45.73959" lon="3.54834">
        <ele>327.6</ele>
        <time>2024-05-01T11:57:10Z</time>
      </trkpt>
      <trkpt lat="45.73954" lon="3.54837">
        <ele>327.4</ele>
        <time>2024-05-01T11:57:11Z</time>
      </trkpt>
      <trkpt lat="45.7395" lon="3.54841">
        <ele>327.4</ele>
        <time>2024-05-01T11:57:12Z</time>
      </trkpt>
      <trkpt lat="45.73945" lon="3.54844">
        <ele>327.2</ele>
        <time>2024-05-01T11:57:13Z</time>
      </trkpt>
      <trkpt lat="45.7394" lon="3.54847">
        <ele>327</ele>
        <time>2024-05-01T11:57:14Z</time>
      </trkpt>
      <trkpt lat="45.73935" lon="3.54851">
        <ele>327</ele>
        <time>2024-05-01T11:57:15Z</time>
      </trkpt>
      <trkpt lat="45.7393" lon="3.54854">
        <ele>326.8</ele>
        <time>2024-05-01T11:57:16Z</time>
      </trkpt>
      <trkpt lat="45.73926" lon="3.54858">
        <ele>326.8</ele>
        <time>2024-05-01T11:57:17Z</time>
      </trkpt>
      <trkpt lat="45.7392" lon="3.54861">
        <ele>326.8</ele>
        <time>2024-05-01T11:57:18Z</time>
      </trkpt>
      <trkpt lat="45.73916" lon="3.54865">
        <ele>326.6</ele>
        <time>2024-05-01T11:57:19Z</time>
      </trkpt>
      <trkpt lat="45.73911" lon="3.54868">
        <ele>326.6</ele>
        <time>2024-05-01T11:57:20Z</time>
      </trkpt>
      <trkpt lat="45.73906" lon="3.54872">
        <ele>326.4</ele>
        <time>2024-05-01T11:57:21Z</time>
      </trkpt>
      <trkpt lat="45.73901" lon="3.54875">
        <ele>326.4</ele>
        <time>2024-05-01T11:57:22Z</time>
      </trkpt>
      <trkpt lat="45.73896" lon="3.54878">
        <ele>326.4</ele>
        <time>2024-05-01T11:57:23Z</time>
      </trkpt>
      <trkpt lat="45.73892" lon="3.54882">
        <ele>326.6</ele>
        <time>2024-05-01T11:57:24Z</time>
      </trkpt>
      <trkpt lat="45.73886" lon="3.54885">
        <ele>326.6</ele>
        <time>2024-05-01T11:57:25Z</time>
      </trkpt>
      <trkpt lat="45.73881" lon="3.54889">
        <ele>326.8</ele>
        <time>2024-05-01T11:57:26Z</time>
      </trkpt>
      <trkpt lat="45.73876" lon="3.54893">
        <ele>326.8</ele>
        <time>2024-05-01T11:57:27Z</time>
      </trkpt>
      <trkpt lat="45.73871" lon="3.54896">
        <ele>326.8</ele>
        <time>2024-05-01T11:57:28Z</time>
      </trkpt>
      <trkpt lat="45.73866" lon="3.54901">
        <ele>327</ele>
        <time>2024-05-01T11:57:29Z</time>
      </trkpt>
      <trkpt lat="45.73862" lon="3.54906">
        <ele>327</ele>
        <time>2024-05-01T11:57:30Z</time>
      </trkpt>
      <trkpt lat="45.73857" lon="3.5491">
        <ele>327</ele>
        <time>2024-05-01T11:57:31Z</time>
      </trkpt>
      <trkpt lat="45.73853" lon="3.54914">
        <ele>327</ele>
        <time>2024-05-01T11:57:32Z</time>
      </trkpt>
      <trkpt lat="45.73848" lon="3.54919">
        <ele>327</ele>
        <time>2024-05-01T11:57:33Z</time>
      </trkpt>
      <trkpt lat="45.73843" lon="3.54922">
        <ele>325.8</ele>
        <time>2024-05-01T11:57:34Z</time>
      </trkpt>
      <trkpt lat="45.73838" lon="3.54924">
        <ele>325.8</ele>
        <time>2024-05-01T11:57:35Z</time>
      </trkpt>
      <trkpt lat="45.73833" lon="3.54927">
        <ele>326.8</ele>
        <time>2024-05-01T11:57:36Z</time>
      </trkpt>
      <trkpt lat="45.73829" lon="3.54929">
        <ele>326.8</ele>
        <time>2024-05-01T11:57:37Z</time>
      </trkpt>
      <trkpt lat="45.73824" lon="3.54931">
        <ele>326.8</ele>
        <time>2024-05-01T11:57:38Z</time>
      </trkpt>
      <trkpt lat="45.73818" lon="3.54931">
        <ele>326.6</ele>
        <time>2024-05-01T11:57:39Z</time>
      </trkpt>
      <trkpt lat="45.73812" lon="3.5493">
        <ele>326</ele>
        <time>2024-05-01T11:57:40Z</time>
      </trkpt>
      <trkpt lat="45.73807" lon="3.54929">
        <ele>326.2</ele>
        <time>2024-05-01T11:57:41Z</time>
      </trkpt>
      <trkpt lat="45.73801" lon="3.54928">
        <ele>326.6</ele>
        <time>2024-05-01T11:57:42Z</time>
      </trkpt>
      <trkpt lat="45.73795" lon="3.54927">
        <ele>327.4</ele>
        <time>2024-05-01T11:57:43Z</time>
      </trkpt>
      <trkpt lat="45.73789" lon="3.54927">
        <ele>327</ele>
        <time>2024-05-01T11:57:44Z</time>
      </trkpt>
      <trkpt lat="45.73783" lon="3.54926">
        <ele>327.2</ele>
        <time>2024-05-01T11:57:45Z</time>
      </trkpt>
      <trkpt lat="45.73778" lon="3.54925">
        <ele>327.4</ele>
        <time>2024-05-01T11:57:46Z</time>
      </trkpt>
      <trkpt lat="45.73772" lon="3.54924">
        <ele>327.4</ele>
        <time>2024-05-01T11:57:47Z</time>
      </trkpt>
      <trkpt lat="45.73767" lon="3.54924">
        <ele>327.6</ele>
        <time>2024-05-01T11:57:48Z</time>
      </trkpt>
      <trkpt lat="45.73762" lon="3.54923">
        <ele>327.8</ele>
        <time>2024-05-01T11:57:49Z</time>
      </trkpt>
      <trkpt lat="45.73757" lon="3.54922">
        <ele>327.8</ele>
        <time>2024-05-01T11:57:50Z</time>
      </trkpt>
      <trkpt lat="45.73752" lon="3.54922">
        <ele>328</ele>
        <time>2024-05-01T11:57:51Z</time>
      </trkpt>
      <trkpt lat="45.73747" lon="3.54921">
        <ele>328</ele>
        <time>2024-05-01T11:57:52Z</time>
      </trkpt>
      <trkpt lat="45.73741" lon="3.54923">
        <ele>328</ele>
        <time>2024-05-01T11:57:53Z</time>
      </trkpt>
      <trkpt lat="45.73737" lon="3.54925">
        <ele>328</ele>
        <time>2024-05-01T11:57:54Z</time>
      </trkpt>
      <trkpt lat="45.73733" lon="3.54927">
        <ele>328</ele>
        <time>2024-05-01T11:57:55Z</time>
      </trkpt>
      <trkpt lat="45.73728" lon="3.54929">
        <ele>328.2</ele>
        <time>2024-05-01T11:57:56Z</time>
      </trkpt>
      <trkpt lat="45.73723" lon="3.54932">
        <ele>328.2</ele>
        <time>2024-05-01T11:57:57Z</time>
      </trkpt>
      <trkpt lat="45.73719" lon="3.54934">
        <ele>328.2</ele>
        <time>2024-05-01T11:57:58Z</time>
      </trkpt>
      <trkpt lat="45.73714" lon="3.54937">
        <ele>328.4</ele>
        <time>2024-05-01T11:57:59Z</time>
      </trkpt>
      <trkpt lat="45.73709" lon="3.54939">
        <ele>328.4</ele>
        <time>2024-05-01T11:58:00Z</time>
      </trkpt>
      <trkpt lat="45.73704" lon="3.54941">
        <ele>328.6</ele>
        <time>2024-05-01T11:58:01Z</time>
      </trkpt>
      <trkpt lat="45.737" lon="3.54944">
        <ele>328.6</ele>
        <time>2024-05-01T11:58:02Z</time>
      </trkpt>
      <trkpt lat="45.73695" lon="3.54946">
        <ele>328.6</ele>
        <time>2024-05-01T11:58:03Z</time>
      </trkpt>
      <trkpt lat="45.7369" lon="3.54948">
        <ele>328.8</ele>
        <time>2024-05-01T11:58:04Z</time>
      </trkpt>
      <trkpt lat="45.73686" lon="3.54951">
        <ele>328.8</ele>
        <time>2024-05-01T11:58:05Z</time>
      </trkpt>
      <trkpt lat="45.73681" lon="3.54953">
        <ele>328.8</ele>
        <time>2024-05-01T11:58:06Z</time>
      </trkpt>
      <trkpt lat="45.73677" lon="3.54955">
        <ele>329</ele>
        <time>2024-05-01T11:58:07Z</time>
      </trkpt>
      <trkpt lat="45.73673" lon="3.54957">
        <ele>329</ele>
        <time>2024-05-01T11:58:08Z</time>
      </trkpt>
      <trkpt lat="45.73668" lon="3.54958">
        <ele>329.2</ele>
        <time>2024-05-01T11:58:09Z</time>
      </trkpt>
      <trkpt lat="45.73663" lon="3.5496">
        <ele>329.2</ele>
        <time>2024-05-01T11:58:10Z</time>
      </trkpt>
      <trkpt lat="45.73658" lon="3.54961">
        <ele>329.4</ele>
        <time>2024-05-01T11:58:11Z</time>
      </trkpt>
      <trkpt lat="45.73653" lon="3.54962">
        <ele>329.4</ele>
        <time>2024-05-01T11:58:12Z</time>
      </trkpt>
      <trkpt lat="45.73649" lon="3.54964">
        <ele>329.6</ele>
        <time>2024-05-01T11:58:13Z</time>
      </trkpt>
      <trkpt lat="45.73643" lon="3.54964">
        <ele>329.8</ele>
        <time>2024-05-01T11:58:14Z</time>
      </trkpt>
      <trkpt lat="45.73639" lon="3.54964">
        <ele>329.8</ele>
        <time>2024-05-01T11:58:15Z</time>
      </trkpt>
      <trkpt lat="45.73633" lon="3.54964">
        <ele>330</ele>
        <time>2024-05-01T11:58:16Z</time>
      </trkpt>
      <trkpt lat="45.73629" lon="3.54964">
        <ele>330.2</ele>
        <time>2024-05-01T11:58:17Z</time>
      </trkpt>
      <trkpt lat="45.73624" lon="3.54964">
        <ele>330.4</ele>
        <time>2024-05-01T11:58:18Z</time>
      </trkpt>
      <trkpt lat="45.73618" lon="3.54964">
        <ele>330.4</ele>
        <time>2024-05-01T11:58:19Z</time>
      </trkpt>
      <trkpt lat="45.73613" lon="3.54965">
        <ele>330.6</ele>
        <time>2024-05-01T11:58:20Z</time>
      </trkpt>
      <trkpt lat="45.73608" lon="3.54965">
        <ele>330.6</ele>
        <time>2024-05-01T11:58:21Z</time>
      </trkpt>
      <trkpt lat="45.73603" lon="3.54965">
        <ele>330.8</ele>
        <time>2024-05-01T11:58:22Z</time>
      </trkpt>
      <trkpt lat="45.73597" lon="3.54965">
        <ele>330.8</ele>
        <time>2024-05-01T11:58:23Z</time>
      </trkpt>
      <trkpt lat="45.73592" lon="3.54965">
        <ele>331</ele>
        <time>2024-05-01T11:58:24Z</time>
      </trkpt>
      <trkpt lat="45.73587" lon="3.54965">
        <ele>331</ele>
        <time>2024-05-01T11:58:25Z</time>
      </trkpt>
      <trkpt lat="45.73582" lon="3.54965">
        <ele>331.2</ele>
        <time>2024-05-01T11:58:26Z</time>
      </trkpt>
      <trkpt lat="45.73577" lon="3.54965">
        <ele>331.2</ele>
        <time>2024-05-01T11:58:27Z</time>
      </trkpt>
      <trkpt lat="45.73572" lon="3.54966">
        <ele>331.4</ele>
        <time>2024-05-01T11:58:28Z</time>
      </trkpt>
      <trkpt lat="45.73568" lon="3.54965">
        <ele>331.6</ele>
        <time>2024-05-01T11:58:29Z</time>
      </trkpt>
      <trkpt lat="45.73563" lon="3.54963">
        <ele>331.8</ele>
        <time>2024-05-01T11:58:30Z</time>
      </trkpt>
      <trkpt lat="45.73559" lon="3.54962">
        <ele>332</ele>
        <time>2024-05-01T11:58:31Z</time>
      </trkpt>
      <trkpt lat="45.73555" lon="3.54961">
        <ele>332.2</ele>
        <time>2024-05-01T11:58:32Z</time>
      </trkpt>
      <trkpt lat="45.73551" lon="3.54959">
        <ele>332.4</ele>
        <time>2024-05-01T11:58:33Z</time>
      </trkpt>
      <trkpt lat="45.73547" lon="3.54954">
        <ele>332.6</ele>
        <time>2024-05-01T11:58:34Z</time>
      </trkpt>
      <trkpt lat="45.73544" lon="3.5495">
        <ele>333</ele>
        <time>2024-05-01T11:58:35Z</time>
      </trkpt>
      <trkpt lat="45.7354" lon="3.54946">
        <ele>333.2</ele>
        <time>2024-05-01T11:58:36Z</time>
      </trkpt>
      <trkpt lat="45.73536" lon="3.54942">
        <ele>333.4</ele>
        <time>2024-05-01T11:58:37Z</time>
      </trkpt>
      <trkpt lat="45.73533" lon="3.54939">
        <ele>333.6</ele>
        <time>2024-05-01T11:58:38Z</time>
      </trkpt>
      <trkpt lat="45.7353" lon="3.54935">
        <ele>333.8</ele>
        <time>2024-05-01T11:58:39Z</time>
      </trkpt>
      <trkpt lat="45.73527" lon="3.54932">
        <ele>334</ele>
        <time>2024-05-01T11:58:40Z</time>
      </trkpt>
      <trkpt lat="45.73524" lon="3.54929">
        <ele>334.4</ele>
        <time>2024-05-01T11:58:41Z</time>
      </trkpt>
      <trkpt lat="45.73522" lon="3.54926">
        <ele>334.4</ele>
        <time>2024-05-01T11:58:42Z</time>
      </trkpt>
      <trkpt lat="45.73519" lon="3.54923">
        <ele>334.4</ele>
        <time>2024-05-01T11:58:43Z</time>
      </trkpt>
      <trkpt lat="45.73516" lon="3.5492">
        <ele>334.6</ele>
        <time>2024-05-01T11:58:44Z</time>
      </trkpt>
      <trkpt lat="45.73513" lon="3.54917">
        <ele>334.8</ele>
        <time>2024-05-01T11:58:45Z</time>
      </trkpt>
      <trkpt lat="45.7351" lon="3.54914">
        <ele>334.8</ele>
        <time>2024-05-01T11:58:46Z</time>
      </trkpt>
      <trkpt lat="45.73507" lon="3.54911">
        <ele>335</ele>
        <time>2024-05-01T11:58:47Z</time>
      </trkpt>
      <trkpt lat="45.73505" lon="3.54908">
        <ele>335</ele>
        <time>2024-05-01T11:58:48Z</time>
      </trkpt>
      <trkpt lat="45.73502" lon="3.54905">
        <ele>335.2</ele>
        <time>2024-05-01T11:58:49Z</time>
      </trkpt>
      <trkpt lat="45.73499" lon="3.54902">
        <ele>335.4</ele>
        <time>2024-05-01T11:58:50Z</time>
      </trkpt>
      <trkpt lat="45.73497" lon="3.549">
        <ele>335.6</ele>
        <time>2024-05-01T11:58:51Z</time>
      </trkpt>
      <trkpt lat="45.73494" lon="3.54897">
        <ele>335.6</ele>
        <time>2024-05-01T11:58:52Z</time>
      </trkpt>
      <trkpt lat="45.73492" lon="3.54894">
        <ele>335.8</ele>
        <time>2024-05-01T11:58:53Z</time>
      </trkpt>
      <trkpt lat="45.7349" lon="3.54892">
        <ele>336</ele>
        <time>2024-05-01T11:58:54Z</time>
      </trkpt>
      <trkpt lat="45.73487" lon="3.5489">
        <ele>336</ele>
        <time>2024-05-01T11:58:55Z</time>
      </trkpt>
      <trkpt lat="45.73485" lon="3.54888">
        <ele>336.2</ele>
        <time>2024-05-01T11:58:56Z</time>
      </trkpt>
      <trkpt lat="45.73482" lon="3.54887">
        <ele>336.4</ele>
        <time>2024-05-01T11:58:57Z</time>
      </trkpt>
      <trkpt lat="45.73479" lon="3.54885">
        <ele>336.4</ele>
        <time>2024-05-01T11:58:58Z</time>
      </trkpt>
      <trkpt lat="45.73477" lon="3.54883">
        <ele>336.6</ele>
        <time>2024-05-01T11:58:59Z</time>
      </trkpt>
      <trkpt lat="45.73475" lon="3.54882">
        <ele>336.6</ele>
        <time>2024-05-01T11:59:00Z</time>
      </trkpt>
      <trkpt lat="45.73473" lon="3.5488">
        <ele>336.8</ele>
        <time>2024-05-01T11:59:01Z</time>
      </trkpt>
      <trkpt lat="45.7347" lon="3.54878">
        <ele>337</ele>
        <time>2024-05-01T11:59:02Z</time>
      </trkpt>
      <trkpt lat="45.73468" lon="3.54876">
        <ele>337.2</ele>
        <time>2024-05-01T11:59:03Z</time>
      </trkpt>
      <trkpt lat="45.73466" lon="3.54875">
        <ele>337.2</ele>
        <time>2024-05-01T11:59:04Z</time>
      </trkpt>
      <trkpt lat="45.73464" lon="3.54874">
        <ele>337.4</ele>
        <time>2024-05-01T11:59:05Z</time>
      </trkpt>
      <trkpt lat="45.73461" lon="3.54873">
        <ele>337.4</ele>
        <time>2024-05-01T11:59:06Z</time>
      </trkpt>
      <trkpt lat="45.73458" lon="3.54872">
        <ele>337.6</ele>
        <time>2024-05-01T11:59:07Z</time>
      </trkpt>
      <trkpt lat="45.73456" lon="3.54872">
        <ele>337.6</ele>
        <time>2024-05-01T11:59:08Z</time>
      </trkpt>
      <trkpt lat="45.73454" lon="3.54871">
        <ele>337.8</ele>
        <time>2024-05-01T11:59:09Z</time>
      </trkpt>
      <trkpt lat="45.73451" lon="3.5487">
        <ele>337.8</ele>
        <time>2024-05-01T11:59:10Z</time>
      </trkpt>
      <trkpt lat="45.73449" lon="3.54869">
        <ele>337.8</ele>
        <time>2024-05-01T11:59:11Z</time>
      </trkpt>
      <trkpt lat="45.73446" lon="3.54868">
        <ele>337.8</ele>
        <time>2024-05-01T11:59:12Z</time>
      </trkpt>
      <trkpt lat="45.73444" lon="3.54867">
        <ele>337.8</ele>
        <time>2024-05-01T11:59:13Z</time>
      </trkpt>
      <trkpt lat="45.73441" lon="3.54866">
        <ele>337.8</ele>
        <time>2024-05-01T11:59:14Z</time>
      </trkpt>
      <trkpt lat="45.73439" lon="3.54865">
        <ele>337.8</ele>
        <time>2024-05-01T11:59:15Z</time>
      </trkpt>
      <trkpt lat="45.73436" lon="3.54864">
        <ele>338</ele>
        <time>2024-05-01T11:59:16Z</time>
      </trkpt>
      <trkpt lat="45.73434" lon="3.54863">
        <ele>338</ele>
        <time>2024-05-01T11:59:17Z</time>
      </trkpt>
      <trkpt lat="45.73431" lon="3.54863">
        <ele>338.2</ele>
        <time>2024-05-01T11:59:18Z</time>
      </trkpt>
      <trkpt lat="45.73429" lon="3.54862">
        <ele>338.2</ele>
        <time>2024-05-01T11:59:19Z</time>
      </trkpt>
      <trkpt lat="45.73426" lon="3.54861">
        <ele>338.4</ele>
        <time>2024-05-01T11:59:20Z</time>
      </trkpt>
      <trkpt lat="45.73424" lon="3.5486">
        <ele>338.4</ele>
        <time>2024-05-01T11:59:21Z</time>
      </trkpt>
      <trkpt lat="45.7342" lon="3.5486">
        <ele>338.4</ele>
        <time>2024-05-01T11:59:22Z</time>
      </trkpt>
      <trkpt lat="45.73417" lon="3.5486">
        <ele>338.6</ele>
        <time>2024-05-01T11:59:23Z</time>
      </trkpt>
      <trkpt lat="45.73413" lon="3.5486">
        <ele>338.6</ele>
        <time>2024-05-01T11:59:24Z</time>
      </trkpt>
      <trkpt lat="45.7341" lon="3.5486">
        <ele>338.8</ele>
        <time>2024-05-01T11:59:25Z</time>
      </trkpt>
      <trkpt lat="45.73407" lon="3.54859">
        <ele>338.8</ele>
        <time>2024-05-01T11:59:26Z</time>
      </trkpt>
      <trkpt lat="45.73404" lon="3.54859">
        <ele>338.8</ele>
        <time>2024-05-01T11:59:27Z</time>
      </trkpt>
      <trkpt lat="45.73401" lon="3.54859">
        <ele>339</ele>
        <time>2024-05-01T11:59:28Z</time>
      </trkpt>
      <trkpt lat="45.73398" lon="3.54859">
        <ele>339.2</ele>
        <time>2024-05-01T11:59:29Z</time>
      </trkpt>
      <trkpt lat="45.73395" lon="3.54859">
        <ele>339.2</ele>
        <time>2024-05-01T11:59:30Z</time>
      </trkpt>
      <trkpt lat="45.73392" lon="3.54858">
        <ele>339.2</ele>
        <time>2024-05-01T11:59:31Z</time>
      </trkpt>
      <trkpt lat="45.73389" lon="3.54859">
        <ele>339.4</ele>
        <time>2024-05-01T11:59:32Z</time>
      </trkpt>
      <trkpt lat="45.73387" lon="3.54859">
        <ele>339.4</ele>
        <time>2024-05-01T11:59:33Z</time>
      </trkpt>
      <trkpt lat="45.73383" lon="3.5486">
        <ele>339.6</ele>
        <time>2024-05-01T11:59:34Z</time>
      </trkpt>
      <trkpt lat="45.7338" lon="3.54861">
        <ele>339.6</ele>
        <time>2024-05-01T11:59:35Z</time>
      </trkpt>
      <trkpt lat="45.73378" lon="3.54861">
        <ele>339.8</ele>
        <time>2024-05-01T11:59:36Z</time>
      </trkpt>
      <trkpt lat="45.73375" lon="3.54862">
        <ele>339.8</ele>
        <time>2024-05-01T11:59:37Z</time>
      </trkpt>
      <trkpt lat="45.73372" lon="3.54862">
        <ele>340</ele>
        <time>2024-05-01T11:59:38Z</time>
      </trkpt>
      <trkpt lat="45.73369" lon="3.54863">
        <ele>340.2</ele>
        <time>2024-05-01T11:59:39Z</time>
      </trkpt>
      <trkpt lat="45.73367" lon="3.54863">
        <ele>340.4</ele>
        <time>2024-05-01T11:59:40Z</time>
      </trkpt>
      <trkpt lat="45.73364" lon="3.54864">
        <ele>340.6</ele>
        <time>2024-05-01T11:59:41Z</time>
      </trkpt>
      <trkpt lat="45.73362" lon="3.54864">
        <ele>341</ele>
        <time>2024-05-01T11:59:42Z</time>
      </trkpt>
      <trkpt lat="45.73359" lon="3.54865">
        <ele>341.2</ele>
        <time>2024-05-01T11:59:43Z</time>
      </trkpt>
      <trkpt lat="45.73357" lon="3.54865">
        <ele>341.4</ele>
        <time>2024-05-01T11:59:44Z</time>
      </trkpt>
      <trkpt lat="45.73354" lon="3.54866">
        <ele>341.6</ele>
        <time>2024-05-01T11:59:45Z</time>
      </trkpt>
      <trkpt lat="45.73351" lon="3.54867">
        <ele>341.8</ele>
        <time>2024-05-01T11:59:46Z</time>
      </trkpt>
      <trkpt lat="45.73348" lon="3.54867">
        <ele>342</ele>
        <time>2024-05-01T11:59:47Z</time>
      </trkpt>
      <trkpt lat="45.73346" lon="3.54867">
        <ele>342.2</ele>
        <time>2024-05-01T11:59:48Z</time>
      </trkpt>
      <trkpt lat="45.73343" lon="3.54867">
        <ele>342.6</ele>
        <time>2024-05-01T11:59:49Z</time>
      </trkpt>
      <trkpt lat="45.7334" lon="3.54866">
        <ele>342.8</ele>
        <time>2024-05-01T11:59:50Z</time>
      </trkpt>
      <trkpt lat="45.73337" lon="3.54866">
        <ele>343</ele>
        <time>2024-05-01T11:59:51Z</time>
      </trkpt>
      <trkpt lat="45.73334" lon="3.54866">
        <ele>343</ele>
        <time>2024-05-01T11:59:52Z</time>
      </trkpt>
      <trkpt lat="45.73332" lon="3.54866">
        <ele>343.2</ele>
        <time>2024-05-01T11:59:53Z</time>
      </trkpt>
      <trkpt lat="45.73329" lon="3.54866">
        <ele>343.4</ele>
        <time>2024-05-01T11:59:54Z</time>
      </trkpt>
      <trkpt lat="45.73326" lon="3.54866">
        <ele>343.6</ele>
        <time>2024-05-01T11:59:55Z</time>
      </trkpt>
      <trkpt lat="45.73323" lon="3.54865">
        <ele>343.8</ele>
        <time>2024-05-01T11:59:56Z</time>
      </trkpt>
      <trkpt lat="45.73321" lon="3.54865">
        <ele>343.8</ele>
        <time>2024-05-01T11:59:57Z</time>
      </trkpt>
      <trkpt lat="45.73318" lon="3.54865">
        <ele>344</ele>
        <time>2024-05-01T11:59:58Z</time>
      </trkpt>
      <trkpt lat="45.73315" lon="3.54865">
        <ele>344.2</ele>
        <time>2024-05-01T11:59:59Z</time>
      </trkpt>
      <trkpt lat="45.73312" lon="3.54865">
        <ele>344.4</ele>
        <time>2024-05-01T12:00:00Z</time>
      </trkpt>
      <trkpt lat="45.73309" lon="3.54864">
        <ele>344.8</ele>
        <time>2024-05-01T12:00:01Z</time>
      </trkpt>
      <trkpt lat="45.73306" lon="3.54864">
        <ele>345</ele>
        <time>2024-05-01T12:00:02Z</time>
      </trkpt>
      <trkpt lat="45.73304" lon="3.54864">
        <ele>345.4</ele>
        <time>2024-05-01T12:00:03Z</time>
      </trkpt>
      <trkpt lat="45.73301" lon="3.54864">
        <ele>345.6</ele>
        <time>2024-05-01T12:00:04Z</time>
      </trkpt>
      <trkpt lat="45.73299" lon="3.54864">
        <ele>345.8</ele>
        <time>2024-05-01T12:00:05Z</time>
      </trkpt>
      <trkpt lat="45.73296" lon="3.54864">
        <ele>346</ele>
        <time>2024-05-01T12:00:06Z</time>
      </trkpt>
      <trkpt lat="45.73294" lon="3.54863">
        <ele>346</ele>
        <time>2024-05-01T12:00:07Z</time>
      </trkpt>
      <trkpt lat="45.73291" lon="3.54863">
        <ele>346.2</ele>
        <time>2024-05-01T12:00:08Z</time>
      </trkpt>
      <trkpt lat="45.73289" lon="3.54863">
        <ele>346.4</ele>
        <time>2024-05-01T12:00:09Z</time>
      </trkpt>
      <trkpt lat="45.73286" lon="3.54863">
        <ele>346.4</ele>
        <time>2024-05-01T12:00:10Z</time>
      </trkpt>
      <trkpt lat="45.73284" lon="3.54863">
        <ele>346.6</ele>
        <time>2024-05-01T12:00:11Z</time>
      </trkpt>
      <trkpt lat="45.73281" lon="3.54863">
        <ele>346.8</ele>
        <time>2024-05-01T12:00:12Z</time>
      </trkpt>
      <trkpt lat="45.73278" lon="3.54862">
        <ele>346.8</ele>
        <time>2024-05-01T12:00:13Z</time>
      </trkpt>
      <trkpt lat="45.73276" lon="3.54862">
        <ele>347</ele>
        <time>2024-05-01T12:00:14Z</time>
      </trkpt>
      <trkpt lat="45.73274" lon="3.54862">
        <ele>347</ele>
        <time>2024-05-01T12:00:15Z</time>
      </trkpt>
      <trkpt lat="45.73271" lon="3.54862">
        <ele>347.2</ele>
        <time>2024-05-01T12:00:16Z</time>
      </trkpt>
      <trkpt lat="45.73269" lon="3.54862">
        <ele>347.2</ele>
        <time>2024-05-01T12:00:17Z</time>
      </trkpt>
      <trkpt lat="45.73266" lon="3.54862">
        <ele>347.4</ele>
        <time>2024-05-01T12:00:18Z</time>
      </trkpt>
      <trkpt lat="45.73264" lon="3.54862">
        <ele>347.6</ele>
        <time>2024-05-01T12:00:19Z</time>
      </trkpt>
      <trkpt lat="45.73261" lon="3.54861">
        <ele>347.6</ele>
        <time>2024-05-01T12:00:20Z</time>
      </trkpt>
      <trkpt lat="45.73258" lon="3.54861">
        <ele>347.6</ele>
        <time>2024-05-01T12:00:21Z</time>
      </trkpt>
      <trkpt lat="45.73256" lon="3.54861">
        <ele>347.6</ele>
        <time>2024-05-01T12:00:22Z</time>
      </trkpt>
      <trkpt lat="45.73253" lon="3.54861">
        <ele>347.8</ele>
        <time>2024-05-01T12:00:23Z</time>
      </trkpt>
      <trkpt lat="45.7325" lon="3.54861">
        <ele>347.8</ele>
        <time>2024-05-01T12:00:24Z</time>
      </trkpt>
      <trkpt lat="45.73247" lon="3.54861">
        <ele>348</ele>
        <time>2024-05-01T12:00:25Z</time>
      </trkpt>
      <trkpt lat="45.73244" lon="3.54861">
        <ele>348</ele>
        <time>2024-05-01T12:00:26Z</time>
      </trkpt>
      <trkpt lat="45.73241" lon="3.54861">
        <ele>348.2</ele>
        <time>2024-05-01T12:00:27Z</time>
      </trkpt>
      <trkpt lat="45.73239" lon="3.54862">
        <ele>348.2</ele>
        <time>2024-05-01T12:00:28Z</time>
      </trkpt>
      <trkpt lat="45.73236" lon="3.54862">
        <ele>348.4</ele>
        <time>2024-05-01T12:00:29Z</time>
      </trkpt>
      <trkpt lat="45.73234" lon="3.54862">
        <ele>348.4</ele>
        <time>2024-05-01T12:00:30Z</time>
      </trkpt>
      <trkpt lat="45.73231" lon="3.54863">
        <ele>348.6</ele>
        <time>2024-05-01T12:00:31Z</time>
      </trkpt>
      <trkpt lat="45.73229" lon="3.54863">
        <ele>348.6</ele>
        <time>2024-05-01T12:00:32Z</time>
      </trkpt>
      <trkpt lat="45.73227" lon="3.54863">
        <ele>348.6</ele>
        <time>2024-05-01T12:00:33Z</time>
      </trkpt>
      <trkpt lat="45.73225" lon="3.54863">
        <ele>348.6</ele>
        <time>2024-05-01T12:00:34Z</time>
      </trkpt>
      <trkpt lat="45.73221" lon="3.54864">
        <ele>348.8</ele>
        <time>2024-05-01T12:00:35Z</time>
      </trkpt>
      <trkpt lat="45.73218" lon="3.54864">
        <ele>348.8</ele>
        <time>2024-05-01T12:00:36Z</time>
      </trkpt>
      <trkpt lat="45.73216" lon="3.54865">
        <ele>349</ele>
        <time>2024-05-01T12:00:37Z</time>
      </trkpt>
      <trkpt lat="45.73213" lon="3.54865">
        <ele>349</ele>
        <time>2024-05-01T12:00:38Z</time>
      </trkpt>
      <trkpt lat="45.7321" lon="3.54865">
        <ele>349</ele>
        <time>2024-05-01T12:00:39Z</time>
      </trkpt>
      <trkpt lat="45.73208" lon="3.54865">
        <ele>349.2</ele>
        <time>2024-05-01T12:00:40Z</time>
      </trkpt>
      <trkpt lat="45.73205" lon="3.54865">
        <ele>349.2</ele>
        <time>2024-05-01T12:00:41Z</time>
      </trkpt>
      <trkpt lat="45.73203" lon="3.54865">
        <ele>349.2</ele>
        <time>2024-05-01T12:00:42Z</time>
      </trkpt>
      <trkpt lat="45.732" lon="3.54865">
        <ele>349.2</ele>
        <time>2024-05-01T12:00:43Z</time>
      </trkpt>
      <trkpt lat="45.73198" lon="3.54865">
        <ele>349.4</ele>
        <time>2024-05-01T12:00:44Z</time>
      </trkpt>
      <trkpt lat="45.73195" lon="3.54865">
        <ele>349.4</ele>
        <time>2024-05-01T12:00:45Z</time>
      </trkpt>
      <trkpt lat="45.73191" lon="3.54864">
        <ele>349.4</ele>
        <time>2024-05-01T12:00:46Z</time>
      </trkpt>
      <trkpt lat="45.73188" lon="3.54863">
        <ele>349.4</ele>
        <time>2024-05-01T12:00:47Z</time>
      </trkpt>
      <trkpt lat="45.73186" lon="3.54861">
        <ele>349.6</ele>
        <time>2024-05-01T12:00:48Z</time>
      </trkpt>
      <trkpt lat="45.73183" lon="3.5486">
        <ele>349.6</ele>
        <time>2024-05-01T12:00:49Z</time>
      </trkpt>
      <trkpt lat="45.73181" lon="3.54859">
        <ele>349.8</ele>
        <time>2024-05-01T12:00:50Z</time>
      </trkpt>
      <trkpt lat="45.73179" lon="3.54858">
        <ele>349.8</ele>
        <time>2024-05-01T12:00:51Z</time>
      </trkpt>
      <trkpt lat="45.73176" lon="3.54856">
        <ele>350</ele>
        <time>2024-05-01T12:00:52Z</time>
      </trkpt>
      <trkpt lat="45.73174" lon="3.54855">
        <ele>350</ele>
        <time>2024-05-01T12:00:53Z</time>
      </trkpt>
      <trkpt lat="45.73171" lon="3.54853">
        <ele>350.2</ele>
        <time>2024-05-01T12:00:54Z</time>
      </trkpt>
      <trkpt lat="45.73168" lon="3.54852">
        <ele>350.2</ele>
        <time>2024-05-01T12:00:55Z</time>
      </trkpt>
      <trkpt lat="45.73166" lon="3.54849">
        <ele>350.4</ele>
        <time>2024-05-01T12:00:56Z</time>
      </trkpt>
      <trkpt lat="45.73164" lon="3.54846">
        <ele>350.4</ele>
        <time>2024-05-01T12:00:57Z</time>
      </trkpt>
      <trkpt lat="45.73161" lon="3.54844">
        <ele>350.8</ele>
        <time>2024-05-01T12:00:58Z</time>
      </trkpt>
      <trkpt lat="45.73159" lon="3.54841">
        <ele>350.8</ele>
        <time>2024-05-01T12:00:59Z</time>
      </trkpt>
      <trkpt lat="45.73156" lon="3.54838">
        <ele>351.2</ele>
        <time>2024-05-01T12:01:00Z</time>
      </trkpt>
      <trkpt lat="45.73154" lon="3.54836">
        <ele>351.4</ele>
        <time>2024-05-01T12:01:01Z</time>
      </trkpt>
      <trkpt lat="45.73152" lon="3.54834">
        <ele>351.6</ele>
        <time>2024-05-01T12:01:02Z</time>
      </trkpt>
      <trkpt lat="45.7315" lon="3.54832">
        <ele>352</ele>
        <time>2024-05-01T12:01:03Z</time>
      </trkpt>
      <trkpt lat="45.73148" lon="3.54829">
        <ele>352.2</ele>
        <time>2024-05-01T12:01:04Z</time>
      </trkpt>
      <trkpt lat="45.73146" lon="3.54827">
        <ele>352.4</ele>
        <time>2024-05-01T12:01:05Z</time>
      </trkpt>
      <trkpt lat="45.73144" lon="3.54825">
        <ele>352.6</ele>
        <time>2024-05-01T12:01:06Z</time>
      </trkpt>
      <trkpt lat="45.73142" lon="3.54822">
        <ele>352.6</ele>
        <time>2024-05-01T12:01:07Z</time>
      </trkpt>
      <trkpt lat="45.7314" lon="3.5482">
        <ele>352.8</ele>
        <time>2024-05-01T12:01:08Z</time>
      </trkpt>
      <trkpt lat="45.73139" lon="3.54818">
        <ele>353</ele>
        <time>2024-05-01T12:01:09Z</time>
      </trkpt>
      <trkpt lat="45.73136" lon="3.54816">
        <ele>353.2</ele>
        <time>2024-05-01T12:01:10Z</time>
      </trkpt>
      <trkpt lat="45.73134" lon="3.54813">
        <ele>353.6</ele>
        <time>2024-05-01T12:01:11Z</time>
      </trkpt>
      <trkpt lat="45.73132" lon="3.5481">
        <ele>353.8</ele>
        <time>2024-05-01T12:01:12Z</time>
      </trkpt>
      <trkpt lat="45.7313" lon="3.54807">
        <ele>354</ele>
        <time>2024-05-01T12:01:13Z</time>
      </trkpt>
      <trkpt lat="45.73128" lon="3.54804">
        <ele>354.2</ele>
        <time>2024-05-01T12:01:14Z</time>
      </trkpt>
      <trkpt lat="45.73127" lon="3.54801">
        <ele>354.2</ele>
        <time>2024-05-01T12:01:15Z</time>
      </trkpt>
      <trkpt lat="45.73125" lon="3.54798">
        <ele>354.4</ele>
        <time>2024-05-01T12:01:16Z</time>
      </trkpt>
      <trkpt lat="45.73123" lon="3.54795">
        <ele>354.8</ele>
        <time>2024-05-01T12:01:17Z</time>
      </trkpt>
      <trkpt lat="45.73121" lon="3.54792">
        <ele>355</ele>
        <time>2024-05-01T12:01:18Z</time>
      </trkpt>
      <trkpt lat="45.7312" lon="3.5479">
        <ele>355.2</ele>
        <time>2024-05-01T12:01:19Z</time>
      </trkpt>
      <trkpt lat="45.73118" lon="3.54787">
        <ele>355.4</ele>
        <time>2024-05-01T12:01:20Z</time>
      </trkpt>
      <trkpt lat="45.73116" lon="3.54783">
        <ele>355.8</ele>
        <time>2024-05-01T12:01:21Z</time>
      </trkpt>
      <trkpt lat="45.73116" lon="3.5478">
        <ele>356</ele>
        <time>2024-05-01T12:01:22Z</time>
      </trkpt>
      <trkpt lat="45.73115" lon="3.54778">
        <ele>356.4</ele>
        <time>2024-05-01T12:01:23Z</time>
      </trkpt>
      <trkpt lat="45.73114" lon="3.54775">
        <ele>356.6</ele>
        <time>2024-05-01T12:01:24Z</time>
      </trkpt>
      <trkpt lat="45.73113" lon="3.54771">
        <ele>357</ele>
        <time>2024-05-01T12:01:25Z</time>
      </trkpt>
      <trkpt lat="45.73112" lon="3.54767">
        <ele>357.2</ele>
        <time>2024-05-01T12:01:26Z</time>
      </trkpt>
      <trkpt lat="45.73111" lon="3.54764">
        <ele>357.4</ele>
        <time>2024-05-01T12:01:27Z</time>
      </trkpt>
      <trkpt lat="45.7311" lon="3.54761">
        <ele>357.6</ele>
        <time>2024-05-01T12:01:28Z</time>
      </trkpt>
      <trkpt lat="45.73109" lon="3.54758">
        <ele>358</ele>
        <time>2024-05-01T12:01:29Z</time>
      </trkpt>
      <trkpt lat="45.73108" lon="3.54753">
        <ele>358.2</ele>
        <time>2024-05-01T12:01:30Z</time>
      </trkpt>
      <trkpt lat="45.73108" lon="3.54749">
        <ele>358.6</ele>
        <time>2024-05-01T12:01:31Z</time>
      </trkpt>
      <trkpt lat="45.73108" lon="3.54745">
        <ele>358.8</ele>
        <time>2024-05-01T12:01:32Z</time>
      </trkpt>
      <trkpt lat="45.73108" lon="3.54741">
        <ele>359</ele>
        <time>2024-05-01T12:01:33Z</time>
      </trkpt>
      <trkpt lat="45.73108" lon="3.54738">
        <ele>359.4</ele>
        <time>2024-05-01T12:01:34Z</time>
      </trkpt>
      <trkpt lat="45.73108" lon="3.54734">
        <ele>359.6</ele>
        <time>2024-05-01T12:01:35Z</time>
      </trkpt>
      <trkpt lat="45.73108" lon="3.54731">
        <ele>360</ele>
        <time>2024-05-01T12:01:36Z</time>
      </trkpt>
      <trkpt lat="45.73108" lon="3.54727">
        <ele>360.2</ele>
        <time>2024-05-01T12:01:37Z</time>
      </trkpt>
      <trkpt lat="45.73109" lon="3.5472">
        <ele>360.4</ele>
        <time>2024-05-01T12:01:38Z</time>
      </trkpt>
      <trkpt lat="45.73111" lon="3.54717">
        <ele>360.6</ele>
        <time>2024-05-01T12:01:39Z</time>
      </trkpt>
      <trkpt lat="45.73112" lon="3.54714">
        <ele>360.8</ele>
        <time>2024-05-01T12:01:40Z</time>
      </trkpt>
      <trkpt lat="45.73113" lon="3.5471">
        <ele>361.2</ele>
        <time>2024-05-01T12:01:41Z</time>
      </trkpt>
      <trkpt lat="45.73115" lon="3.54706">
        <ele>361.4</ele>
        <time>2024-05-01T12:01:42Z</time>
      </trkpt>
      <trkpt lat="45.73116" lon="3.54703">
        <ele>361.8</ele>
        <time>2024-05-01T12:01:43Z</time>
      </trkpt>
      <trkpt lat="45.73118" lon="3.54699">
        <ele>362</ele>
        <time>2024-05-01T12:01:44Z</time>
      </trkpt>
      <trkpt lat="45.73119" lon="3.54696">
        <ele>362.2</ele>
        <time>2024-05-01T12:01:45Z</time>
      </trkpt>
      <trkpt lat="45.73121" lon="3.54693">
        <ele>362.4</ele>
        <time>2024-05-01T12:01:46Z</time>
      </trkpt>
      <trkpt lat="45.73123" lon="3.5469">
        <ele>362.8</ele>
        <time>2024-05-01T12:01:47Z</time>
      </trkpt>
      <trkpt lat="45.73125" lon="3.54687">
        <ele>363</ele>
        <time>2024-05-01T12:01:48Z</time>
      </trkpt>
      <trkpt lat="45.73127" lon="3.54684">
        <ele>363.4</ele>
        <time>2024-05-01T12:01:49Z</time>
      </trkpt>
      <trkpt lat="45.73129" lon="3.54681">
        <ele>363.6</ele>
        <time>2024-05-01T12:01:50Z</time>
      </trkpt>
      <trkpt lat="45.7313" lon="3.54678">
        <ele>364</ele>
        <time>2024-05-01T12:01:51Z</time>
      </trkpt>
      <trkpt lat="45.73132" lon="3.54675">
        <ele>364.2</ele>
        <time>2024-05-01T12:01:52Z</time>
      </trkpt>
      <trkpt lat="45.73134" lon="3.54672">
        <ele>364.4</ele>
        <time>2024-05-01T12:01:53Z</time>
      </trkpt>
      <trkpt lat="45.73136" lon="3.54669">
        <ele>364.6</ele>
        <time>2024-05-01T12:01:54Z</time>
      </trkpt>
      <trkpt lat="45.73138" lon="3.54666">
        <ele>364.8</ele>
        <time>2024-05-01T12:01:55Z</time>
      </trkpt>
      <trkpt lat="45.73139" lon="3.54663">
        <ele>365</ele>
        <time>2024-05-01T12:01:56Z</time>
      </trkpt>
      <trkpt lat="45.73141" lon="3.5466">
        <ele>365.4</ele>
        <time>2024-05-01T12:01:57Z</time>
      </trkpt>
      <trkpt lat="45.73143" lon="3.54657">
        <ele>365.6</ele>
        <time>2024-05-01T12:01:58Z</time>
      </trkpt>
      <trkpt lat="45.73145" lon="3.54653">
        <ele>365.8</ele>
        <time>2024-05-01T12:01:59Z</time>
      </trkpt>
      <trkpt lat="45.73147" lon="3.5465">
        <ele>366</ele>
        <time>2024-05-01T12:02:00Z</time>
      </trkpt>
      <trkpt lat="45.73149" lon="3.54647">
        <ele>366.2</ele>
        <time>2024-05-01T12:02:01Z</time>
      </trkpt>
      <trkpt lat="45.73151" lon="3.54644">
        <ele>366.6</ele>
        <time>2024-05-01T12:02:02Z</time>
      </trkpt>
      <trkpt lat="45.73153" lon="3.54641">
        <ele>366.8</ele>
        <time>2024-05-01T12:02:03Z</time>
      </trkpt>
      <trkpt lat="45.73155" lon="3.54638">
        <ele>367</ele>
        <time>2024-05-01T12:02:04Z</time>
      </trkpt>
      <trkpt lat="45.73156" lon="3.54635">
        <ele>367.2</ele>
        <time>2024-05-01T12:02:05Z</time>
      </trkpt>
      <trkpt lat="45.73158" lon="3.54632">
        <ele>367.4</ele>
        <time>2024-05-01T12:02:06Z</time>
      </trkpt>
      <trkpt lat="45.73159" lon="3.54629">
        <ele>367.8</ele>
        <time>2024-05-01T12:02:07Z</time>
      </trkpt>
      <trkpt lat="45.7316" lon="3.54626">
        <ele>368</ele>
        <time>2024-05-01T12:02:08Z</time>
      </trkpt>
      <trkpt lat="45.73161" lon="3.54622">
        <ele>368.4</ele>
        <time>2024-05-01T12:02:09Z</time>
      </trkpt>
      <trkpt lat="45.73162" lon="3.54619">
        <ele>368.6</ele>
        <time>2024-05-01T12:02:10Z</time>
      </trkpt>
      <trkpt lat="45.73164" lon="3.54615">
        <ele>369</ele>
        <time>2024-05-01T12:02:11Z</time>
      </trkpt>
      <trkpt lat="45.73165" lon="3.54611">
        <ele>369.2</ele>
        <time>2024-05-01T12:02:12Z</time>
      </trkpt>
      <trkpt lat="45.73166" lon="3.54607">
        <ele>369.6</ele>
        <time>2024-05-01T12:02:13Z</time>
      </trkpt>
      <trkpt lat="45.73167" lon="3.54603">
        <ele>369.8</ele>
        <time>2024-05-01T12:02:14Z</time>
      </trkpt>
      <trkpt lat="45.73169" lon="3.54599">
        <ele>370.2</ele>
        <time>2024-05-01T12:02:15Z</time>
      </trkpt>
      <trkpt lat="45.7317" lon="3.54594">
        <ele>370.4</ele>
        <time>2024-05-01T12:02:16Z</time>
      </trkpt>
      <trkpt lat="45.73171" lon="3.54591">
        <ele>370.8</ele>
        <time>2024-05-01T12:02:17Z</time>
      </trkpt>
      <trkpt lat="45.73172" lon="3.5458">
        <ele>371</ele>
        <time>2024-05-01T12:02:18Z</time>
      </trkpt>
      <trkpt lat="45.73171" lon="3.54576">
        <ele>371.2</ele>
        <time>2024-05-01T12:02:19Z</time>
      </trkpt>
      <trkpt lat="45.7317" lon="3.54572">
        <ele>371.6</ele>
        <time>2024-05-01T12:02:20Z</time>
      </trkpt>
      <trkpt lat="45.73169" lon="3.54568">
        <ele>371.8</ele>
        <time>2024-05-01T12:02:21Z</time>
      </trkpt>
      <trkpt lat="45.73168" lon="3.54563">
        <ele>372</ele>
        <time>2024-05-01T12:02:22Z</time>
      </trkpt>
      <trkpt lat="45.73167" lon="3.5456">
        <ele>372.4</ele>
        <time>2024-05-01T12:02:23Z</time>
      </trkpt>
      <trkpt lat="45.73165" lon="3.54553">
        <ele>372.6</ele>
        <time>2024-05-01T12:02:24Z</time>
      </trkpt>
      <trkpt lat="45.73163" lon="3.54549">
        <ele>372.8</ele>
        <time>2024-05-01T12:02:25Z</time>
      </trkpt>
      <trkpt lat="45.73161" lon="3.54546">
        <ele>373.2</ele>
        <time>2024-05-01T12:02:26Z</time>
      </trkpt>
      <trkpt lat="45.73159" lon="3.54543">
        <ele>373.4</ele>
        <time>2024-05-01T12:02:27Z</time>
      </trkpt>
      <trkpt lat="45.73156" lon="3.54539">
        <ele>373.8</ele>
        <time>2024-05-01T12:02:28Z</time>
      </trkpt>
      <trkpt lat="45.73154" lon="3.54536">
        <ele>374</ele>
        <time>2024-05-01T12:02:29Z</time>
      </trkpt>
      <trkpt lat="45.73153" lon="3.54533">
        <ele>374.2</ele>
        <time>2024-05-01T12:02:30Z</time>
      </trkpt>
      <trkpt lat="45.73151" lon="3.54529">
        <ele>374.4</ele>
        <time>2024-05-01T12:02:31Z</time>
      </trkpt>
      <trkpt lat="45.73149" lon="3.54526">
        <ele>374.6</ele>
        <time>2024-05-01T12:02:32Z</time>
      </trkpt>
      <trkpt lat="45.73147" lon="3.54523">
        <ele>375</ele>
        <time>2024-05-01T12:02:33Z</time>
      </trkpt>
      <trkpt lat="45.73145" lon="3.5452">
        <ele>375.2</ele>
        <time>2024-05-01T12:02:34Z</time>
      </trkpt>
      <trkpt lat="45.73143" lon="3.54517">
        <ele>375.4</ele>
        <time>2024-05-01T12:02:35Z</time>
      </trkpt>
      <trkpt lat="45.73141" lon="3.54514">
        <ele>375.6</ele>
        <time>2024-05-01T12:02:36Z</time>
      </trkpt>
      <trkpt lat="45.73137" lon="3.54507">
        <ele>376</ele>
        <time>2024-05-01T12:02:37Z</time>
      </trkpt>
      <trkpt lat="45.73137" lon="3.54507">
        <ele>376.2</ele>
        <time>2024-05-01T12:02:38Z</time>
      </trkpt>
      <trkpt lat="45.73135" lon="3.54504">
        <ele>376.4</ele>
        <time>2024-05-01T12:02:39Z</time>
      </trkpt>
      <trkpt lat="45.73133" lon="3.545">
        <ele>376.8</ele>
        <time>2024-05-01T12:02:40Z</time>
      </trkpt>
      <trkpt lat="45.73132" lon="3.54497">
        <ele>377</ele>
        <time>2024-05-01T12:02:41Z</time>
      </trkpt>
      <trkpt lat="45.73129" lon="3.54494">
        <ele>377.2</ele>
        <time>2024-05-01T12:02:42Z</time>
      </trkpt>
      <trkpt lat="45.73128" lon="3.54491">
        <ele>377.4</ele>
        <time>2024-05-01T12:02:43Z</time>
      </trkpt>
      <trkpt lat="45.73126" lon="3.54487">
        <ele>377.6</ele>
        <time>2024-05-01T12:02:44Z</time>
      </trkpt>
      <trkpt lat="45.73124" lon="3.54484">
        <ele>378</ele>
        <time>2024-05-01T12:02:45Z</time>
      </trkpt>
      <trkpt lat="45.73122" lon="3.54481">
        <ele>378.2</ele>
        <time>2024-05-01T12:02:46Z</time>
      </trkpt>
      <trkpt lat="45.7312" lon="3.54477">
        <ele>378.4</ele>
        <time>2024-05-01T12:02:47Z</time>
      </trkpt>
      <trkpt lat="45.73117" lon="3.54474">
        <ele>378.6</ele>
        <time>2024-05-01T12:02:48Z</time>
      </trkpt>
      <trkpt lat="45.73116" lon="3.54471">
        <ele>378.8</ele>
        <time>2024-05-01T12:02:49Z</time>
      </trkpt>
      <trkpt lat="45.73114" lon="3.54467">
        <ele>379</ele>
        <time>2024-05-01T12:02:50Z</time>
      </trkpt>
      <trkpt lat="45.73111" lon="3.54464">
        <ele>379.2</ele>
        <time>2024-05-01T12:02:51Z</time>
      </trkpt>
      <trkpt lat="45.73109" lon="3.54461">
        <ele>379.4</ele>
        <time>2024-05-01T12:02:52Z</time>
      </trkpt>
      <trkpt lat="45.73107" lon="3.54459">
        <ele>379.6</ele>
        <time>2024-05-01T12:02:53Z</time>
      </trkpt>
      <trkpt lat="45.73105" lon="3.54456">
        <ele>379.8</ele>
        <time>2024-05-01T12:02:54Z</time>
      </trkpt>
      <trkpt lat="45.73103" lon="3.54453">
        <ele>380</ele>
        <time>2024-05-01T12:02:55Z</time>
      </trkpt>
      <trkpt lat="45.73101" lon="3.54451">
        <ele>380.2</ele>
        <time>2024-05-01T12:02:56Z</time>
      </trkpt>
      <trkpt lat="45.73099" lon="3.54448">
        <ele>380.4</ele>
        <time>2024-05-01T12:02:57Z</time>
      </trkpt>
      <trkpt lat="45.73097" lon="3.54446">
        <ele>380.6</ele>
        <time>2024-05-01T12:02:58Z</time>
      </trkpt>
      <trkpt lat="45.73094" lon="3.54443">
        <ele>380.8</ele>
        <time>2024-05-01T12:02:59Z</time>
      </trkpt>
      <trkpt lat="45.73092" lon="3.54442">
        <ele>381</ele>
        <time>2024-05-01T12:03:00Z</time>
      </trkpt>
      <trkpt lat="45.7309" lon="3.5444">
        <ele>381</ele>
        <time>2024-05-01T12:03:01Z</time>
      </trkpt>
      <trkpt lat="45.73087" lon="3.54438">
        <ele>381.2</ele>
        <time>2024-05-01T12:03:02Z</time>
      </trkpt>
      <trkpt lat="45.73085" lon="3.54437">
        <ele>381.2</ele>
        <time>2024-05-01T12:03:03Z</time>
      </trkpt>
      <trkpt lat="45.73083" lon="3.54435">
        <ele>381.4</ele>
        <time>2024-05-01T12:03:04Z</time>
      </trkpt>
      <trkpt lat="45.73083" lon="3.54435">
        <ele>381.6</ele>
        <time>2024-05-01T12:03:05Z</time>
      </trkpt>
      <trkpt lat="45.73078" lon="3.54432">
        <ele>381.8</ele>
        <time>2024-05-01T12:03:06Z</time>
      </trkpt>
      <trkpt lat="45.73076" lon="3.5443">
        <ele>381.8</ele>
        <time>2024-05-01T12:03:07Z</time>
      </trkpt>
      <trkpt lat="45.73073" lon="3.54428">
        <ele>382</ele>
        <time>2024-05-01T12:03:08Z</time>
      </trkpt>
      <trkpt lat="45.73071" lon="3.54427">
        <ele>382.2</ele>
        <time>2024-05-01T12:03:09Z</time>
      </trkpt>
      <trkpt lat="45.73068" lon="3.54426">
        <ele>382.4</ele>
        <time>2024-05-01T12:03:10Z</time>
      </trkpt>
      <trkpt lat="45.73065" lon="3.54426">
        <ele>382.6</ele>
        <time>2024-05-01T12:03:11Z</time>
      </trkpt>
      <trkpt lat="45.73062" lon="3.54425">
        <ele>382.6</ele>
        <time>2024-05-01T12:03:12Z</time>
      </trkpt>
      <trkpt lat="45.73059" lon="3.54424">
        <ele>382.8</ele>
        <time>2024-05-01T12:03:13Z</time>
      </trkpt>
      <trkpt lat="45.73056" lon="3.54424">
        <ele>383</ele>
        <time>2024-05-01T12:03:14Z</time>
      </trkpt>
      <trkpt lat="45.73053" lon="3.54423">
        <ele>383.2</ele>
        <time>2024-05-01T12:03:15Z</time>
      </trkpt>
      <trkpt lat="45.7305" lon="3.54422">
        <ele>383.2</ele>
        <time>2024-05-01T12:03:16Z</time>
      </trkpt>
      <trkpt lat="45.73047" lon="3.54422">
        <ele>383.4</ele>
        <time>2024-05-01T12:03:17Z</time>
      </trkpt>
      <trkpt lat="45.73044" lon="3.54421">
        <ele>383.6</ele>
        <time>2024-05-01T12:03:18Z</time>
      </trkpt>
      <trkpt lat="45.73042" lon="3.54421">
        <ele>383.6</ele>
        <time>2024-05-01T12:03:19Z</time>
      </trkpt>
      <trkpt lat="45.73039" lon="3.5442">
        <ele>383.6</ele>
        <time>2024-05-01T12:03:20Z</time>
      </trkpt>
      <trkpt lat="45.73036" lon="3.54419">
        <ele>383.8</ele>
        <time>2024-05-01T12:03:21Z</time>
      </trkpt>
      <trkpt lat="45.73033" lon="3.54419">
        <ele>383.8</ele>
        <time>2024-05-01T12:03:22Z</time>
      </trkpt>
      <trkpt lat="45.7303" lon="3.54418">
        <ele>384</ele>
        <time>2024-05-01T12:03:23Z</time>
      </trkpt>
      <trkpt lat="45.73028" lon="3.54417">
        <ele>384</ele>
        <time>2024-05-01T12:03:24Z</time>
      </trkpt>
      <trkpt lat="45.73025" lon="3.54417">
        <ele>384.2</ele>
        <time>2024-05-01T12:03:25Z</time>
      </trkpt>
      <trkpt lat="45.73022" lon="3.54416">
        <ele>384.2</ele>
        <time>2024-05-01T12:03:26Z</time>
      </trkpt>
      <trkpt lat="45.73019" lon="3.54415">
        <ele>384.4</ele>
        <time>2024-05-01T12:03:27Z</time>
      </trkpt>
      <trkpt lat="45.73017" lon="3.54413">
        <ele>384.4</ele>
        <time>2024-05-01T12:03:28Z</time>
      </trkpt>
      <trkpt lat="45.73014" lon="3.54412">
        <ele>384.6</ele>
        <time>2024-05-01T12:03:29Z</time>
      </trkpt>
      <trkpt lat="45.73011" lon="3.5441">
        <ele>384.6</ele>
        <time>2024-05-01T12:03:30Z</time>
      </trkpt>
      <trkpt lat="45.73009" lon="3.54409">
        <ele>384.8</ele>
        <time>2024-05-01T12:03:31Z</time>
      </trkpt>
      <trkpt lat="45.73006" lon="3.54408">
        <ele>385</ele>
        <time>2024-05-01T12:03:32Z</time>
      </trkpt>
      <trkpt lat="45.73003" lon="3.54406">
        <ele>385.2</ele>
        <time>2024-05-01T12:03:33Z</time>
      </trkpt>
      <trkpt lat="45.73001" lon="3.54405">
        <ele>385.4</ele>
        <time>2024-05-01T12:03:34Z</time>
      </trkpt>
      <trkpt lat="45.72998" lon="3.54403">
        <ele>385.4</ele>
        <time>2024-05-01T12:03:35Z</time>
      </trkpt>
      <trkpt lat="45.72996" lon="3.54402">
        <ele>385.6</ele>
        <time>2024-05-01T12:03:36Z</time>
      </trkpt>
      <trkpt lat="45.72993" lon="3.54401">
        <ele>385.8</ele>
        <time>2024-05-01T12:03:37Z</time>
      </trkpt>
      <trkpt lat="45.7299" lon="3.54399">
        <ele>386</ele>
        <time>2024-05-01T12:03:38Z</time>
      </trkpt>
      <trkpt lat="45.72988" lon="3.54397">
        <ele>386.2</ele>
        <time>2024-05-01T12:03:39Z</time>
      </trkpt>
      <trkpt lat="45.72985" lon="3.54394">
        <ele>386.2</ele>
        <time>2024-05-01T12:03:40Z</time>
      </trkpt>
      <trkpt lat="45.72983" lon="3.54392">
        <ele>386.4</ele>
        <time>2024-05-01T12:03:41Z</time>
      </trkpt>
      <trkpt lat="45.72981" lon="3.5439">
        <ele>386.6</ele>
        <time>2024-05-01T12:03:42Z</time>
      </trkpt>
      <trkpt lat="45.72978" lon="3.54388">
        <ele>386.6</ele>
        <time>2024-05-01T12:03:43Z</time>
      </trkpt>
      <trkpt lat="45.72976" lon="3.54386">
        <ele>387</ele>
        <time>2024-05-01T12:03:44Z</time>
      </trkpt>
      <trkpt lat="45.72974" lon="3.54384">
        <ele>387.2</ele>
        <time>2024-05-01T12:03:45Z</time>
      </trkpt>
      <trkpt lat="45.72972" lon="3.54382">
        <ele>387.6</ele>
        <time>2024-05-01T12:03:46Z</time>
      </trkpt>
      <trkpt lat="45.7297" lon="3.5438">
        <ele>387.8</ele>
        <time>2024-05-01T12:03:47Z</time>
      </trkpt>
      <trkpt lat="45.72967" lon="3.54378">
        <ele>388</ele>
        <time>2024-05-01T12:03:48Z</time>
      </trkpt>
      <trkpt lat="45.72966" lon="3.54376">
        <ele>388</ele>
        <time>2024-05-01T12:03:49Z</time>
      </trkpt>
      <trkpt lat="45.72964" lon="3.54374">
        <ele>388.2</ele>
        <time>2024-05-01T12:03:50Z</time>
      </trkpt>
      <trkpt lat="45.72961" lon="3.54372">
        <ele>388.4</ele>
        <time>2024-05-01T12:03:51Z</time>
      </trkpt>
      <trkpt lat="45.72959" lon="3.54371">
        <ele>388.4</ele>
        <time>2024-05-01T12:03:52Z</time>
      </trkpt>
      <trkpt lat="45.72957" lon="3.54369">
        <ele>388.6</ele>
        <time>2024-05-01T12:03:53Z</time>
      </trkpt>
      <trkpt lat="45.72954" lon="3.54368">
        <ele>388.6</ele>
        <time>2024-05-01T12:03:54Z</time>
      </trkpt>
      <trkpt lat="45.72952" lon="3.54366">
        <ele>388.8</ele>
        <time>2024-05-01T12:03:55Z</time>
      </trkpt>
      <trkpt lat="45.72949" lon="3.54364">
        <ele>389</ele>
        <time>2024-05-01T12:03:56Z</time>
      </trkpt>
      <trkpt lat="45.72946" lon="3.54363">
        <ele>389.2</ele>
        <time>2024-05-01T12:03:57Z</time>
      </trkpt>
      <trkpt lat="45.72943" lon="3.54361">
        <ele>389.4</ele>
        <time>2024-05-01T12:03:58Z</time>
      </trkpt>
      <trkpt lat="45.72941" lon="3.5436">
        <ele>389.6</ele>
        <time>2024-05-01T12:03:59Z</time>
      </trkpt>
      <trkpt lat="45.72939" lon="3.54358">
        <ele>389.6</ele>
        <time>2024-05-01T12:04:00Z</time>
      </trkpt>
      <trkpt lat="45.72936" lon="3.54357">
        <ele>389.8</ele>
        <time>2024-05-01T12:04:01Z</time>
      </trkpt>
      <trkpt lat="45.72934" lon="3.54355">
        <ele>390</ele>
        <time>2024-05-01T12:04:02Z</time>
      </trkpt>
      <trkpt lat="45.72931" lon="3.54354">
        <ele>390.2</ele>
        <time>2024-05-01T12:04:03Z</time>
      </trkpt>
      <trkpt lat="45.72929" lon="3.54353">
        <ele>390.4</ele>
        <time>2024-05-01T12:04:04Z</time>
      </trkpt>
      <trkpt lat="45.72926" lon="3.54351">
        <ele>390.4</ele>
        <time>2024-05-01T12:04:05Z</time>
      </trkpt>
      <trkpt lat="45.72924" lon="3.5435">
        <ele>390.6</ele>
        <time>2024-05-01T12:04:06Z</time>
      </trkpt>
      <trkpt lat="45.72922" lon="3.54348">
        <ele>390.6</ele>
        <time>2024-05-01T12:04:07Z</time>
      </trkpt>
      <trkpt lat="45.72919" lon="3.54347">
        <ele>390.8</ele>
        <time>2024-05-01T12:04:08Z</time>
      </trkpt>
      <trkpt lat="45.72917" lon="3.54345">
        <ele>391</ele>
        <time>2024-05-01T12:04:09Z</time>
      </trkpt>
      <trkpt lat="45.72915" lon="3.54344">
        <ele>391</ele>
        <time>2024-05-01T12:04:10Z</time>
      </trkpt>
      <trkpt lat="45.72912" lon="3.54343">
        <ele>391.2</ele>
        <time>2024-05-01T12:04:11Z</time>
      </trkpt>
      <trkpt lat="45.72909" lon="3.54341">
        <ele>391.4</ele>
        <time>2024-05-01T12:04:12Z</time>
      </trkpt>
      <trkpt lat="45.72907" lon="3.5434">
        <ele>391.4</ele>
        <time>2024-05-01T12:04:13Z</time>
      </trkpt>
      <trkpt lat="45.72905" lon="3.54338">
        <ele>391.6</ele>
        <time>2024-05-01T12:04:14Z</time>
      </trkpt>
      <trkpt lat="45.72902" lon="3.54337">
        <ele>391.6</ele>
        <time>2024-05-01T12:04:15Z</time>
      </trkpt>
      <trkpt lat="45.729" lon="3.54335">
        <ele>391.8</ele>
        <time>2024-05-01T12:04:16Z</time>
      </trkpt>
      <trkpt lat="45.72897" lon="3.54334">
        <ele>391.8</ele>
        <time>2024-05-01T12:04:17Z</time>
      </trkpt>
      <trkpt lat="45.72895" lon="3.54332">
        <ele>392</ele>
        <time>2024-05-01T12:04:18Z</time>
      </trkpt>
      <trkpt lat="45.72892" lon="3.54331">
        <ele>392.2</ele>
        <time>2024-05-01T12:04:19Z</time>
      </trkpt>
      <trkpt lat="45.7289" lon="3.54329">
        <ele>392.4</ele>
        <time>2024-05-01T12:04:20Z</time>
      </trkpt>
      <trkpt lat="45.72887" lon="3.54328">
        <ele>392.6</ele>
        <time>2024-05-01T12:04:21Z</time>
      </trkpt>
      <trkpt lat="45.72885" lon="3.54327">
        <ele>392.8</ele>
        <time>2024-05-01T12:04:22Z</time>
      </trkpt>
      <trkpt lat="45.72883" lon="3.54325">
        <ele>393.2</ele>
        <time>2024-05-01T12:04:23Z</time>
      </trkpt>
      <trkpt lat="45.72881" lon="3.54324">
        <ele>393.2</ele>
        <time>2024-05-01T12:04:24Z</time>
      </trkpt>
      <trkpt lat="45.72878" lon="3.54322">
        <ele>393.4</ele>
        <time>2024-05-01T12:04:25Z</time>
      </trkpt>
      <trkpt lat="45.72876" lon="3.54321">
        <ele>393.6</ele>
        <time>2024-05-01T12:04:26Z</time>
      </trkpt>
      <trkpt lat="45.72873" lon="3.54319">
        <ele>393.8</ele>
        <time>2024-05-01T12:04:27Z</time>
      </trkpt>
      <trkpt lat="45.72871" lon="3.54318">
        <ele>394</ele>
        <time>2024-05-01T12:04:28Z</time>
      </trkpt>
      <trkpt lat="45.72868" lon="3.54316">
        <ele>394.2</ele>
        <time>2024-05-01T12:04:29Z</time>
      </trkpt>
      <trkpt lat="45.72866" lon="3.54315">
        <ele>394.4</ele>
        <time>2024-05-01T12:04:30Z</time>
      </trkpt>
      <trkpt lat="45.72864" lon="3.54314">
        <ele>394.6</ele>
        <time>2024-05-01T12:04:31Z</time>
      </trkpt>
      <trkpt lat="45.72861" lon="3.54312">
        <ele>394.8</ele>
        <time>2024-05-01T12:04:32Z</time>
      </trkpt>
      <trkpt lat="45.72859" lon="3.54311">
        <ele>395</ele>
        <time>2024-05-01T12:04:33Z</time>
      </trkpt>
      <trkpt lat="45.72856" lon="3.54309">
        <ele>395.2</ele>
        <time>2024-05-01T12:04:34Z</time>
      </trkpt>
      <trkpt lat="45.72854" lon="3.54308">
        <ele>395.4</ele>
        <time>2024-05-01T12:04:35Z</time>
      </trkpt>
      <trkpt lat="45.72851" lon="3.54306">
        <ele>395.4</ele>
        <time>2024-05-01T12:04:36Z</time>
      </trkpt>
      <trkpt lat="45.72849" lon="3.54305">
        <ele>395.8</ele>
        <time>2024-05-01T12:04:37Z</time>
      </trkpt>
      <trkpt lat="45.72847" lon="3.54303">
        <ele>396</ele>
        <time>2024-05-01T12:04:38Z</time>
      </trkpt>
      <trkpt lat="45.72845" lon="3.54301">
        <ele>396.2</ele>
        <time>2024-05-01T12:04:39Z</time>
      </trkpt>
      <trkpt lat="45.72843" lon="3.54299">
        <ele>396.4</ele>
        <time>2024-05-01T12:04:40Z</time>
      </trkpt>
      <trkpt lat="45.7284" lon="3.54297">
        <ele>396.6</ele>
        <time>2024-05-01T12:04:41Z</time>
      </trkpt>
      <trkpt lat="45.72838" lon="3.54295">
        <ele>396.8</ele>
        <time>2024-05-01T12:04:42Z</time>
      </trkpt>
      <trkpt lat="45.72836" lon="3.54292">
        <ele>397</ele>
        <time>2024-05-01T12:04:43Z</time>
      </trkpt>
      <trkpt lat="45.72833" lon="3.5429">
        <ele>397.2</ele>
        <time>2024-05-01T12:04:44Z</time>
      </trkpt>
      <trkpt lat="45.72831" lon="3.54288">
        <ele>397.4</ele>
        <time>2024-05-01T12:04:45Z</time>
      </trkpt>
      <trkpt lat="45.72829" lon="3.54286">
        <ele>397.8</ele>
        <time>2024-05-01T12:04:46Z</time>
      </trkpt>
      <trkpt lat="45.72826" lon="3.54284">
        <ele>398</ele>
        <time>2024-05-01T12:04:47Z</time>
      </trkpt>
      <trkpt lat="45.72824" lon="3.54282">
        <ele>398.2</ele>
        <time>2024-05-01T12:04:48Z</time>
      </trkpt>
      <trkpt lat="45.72822" lon="3.54279">
        <ele>398.4</ele>
        <time>2024-05-01T12:04:49Z</time>
      </trkpt>
      <trkpt lat="45.7282" lon="3.54277">
        <ele>398.6</ele>
        <time>2024-05-01T12:04:50Z</time>
      </trkpt>
      <trkpt lat="45.72818" lon="3.54275">
        <ele>398.8</ele>
        <time>2024-05-01T12:04:51Z</time>
      </trkpt>
      <trkpt lat="45.72815" lon="3.54273">
        <ele>399</ele>
        <time>2024-05-01T12:04:52Z</time>
      </trkpt>
      <trkpt lat="45.72813" lon="3.54271">
        <ele>399.2</ele>
        <time>2024-05-01T12:04:53Z</time>
      </trkpt>
      <trkpt lat="45.72811" lon="3.54269">
        <ele>399.4</ele>
        <time>2024-05-01T12:04:54Z</time>
      </trkpt>
      <trkpt lat="45.72808" lon="3.54267">
        <ele>399.6</ele>
        <time>2024-05-01T12:04:55Z</time>
      </trkpt>
      <trkpt lat="45.72806" lon="3.54266">
        <ele>399.8</ele>
        <time>2024-05-01T12:04:56Z</time>
      </trkpt>
      <trkpt lat="45.72804" lon="3.54264">
        <ele>400</ele>
        <time>2024-05-01T12:04:57Z</time>
      </trkpt>
      <trkpt lat="45.72801" lon="3.54263">
        <ele>400.2</ele>
        <time>2024-05-01T12:04:58Z</time>
      </trkpt>
      <trkpt lat="45.72799" lon="3.54261">
        <ele>400.4</ele>
        <time>2024-05-01T12:04:59Z</time>
      </trkpt>
      <trkpt lat="45.72796" lon="3.5426">
        <ele>400.6</ele>
        <time>2024-05-01T12:05:00Z</time>
      </trkpt>
      <trkpt lat="45.72794" lon="3.54259">
        <ele>400.8</ele>
        <time>2024-05-01T12:05:01Z</time>
      </trkpt>
      <trkpt lat="45.72792" lon="3.54257">
        <ele>401</ele>
        <time>2024-05-01T12:05:02Z</time>
      </trkpt>
      <trkpt lat="45.72789" lon="3.54256">
        <ele>401.2</ele>
        <time>2024-05-01T12:05:03Z</time>
      </trkpt>
      <trkpt lat="45.72787" lon="3.54255">
        <ele>401.6</ele>
        <time>2024-05-01T12:05:04Z</time>
      </trkpt>
      <trkpt lat="45.72784" lon="3.54255">
        <ele>401.8</ele>
        <time>2024-05-01T12:05:05Z</time>
      </trkpt>
      <trkpt lat="45.72782" lon="3.54254">
        <ele>402</ele>
        <time>2024-05-01T12:05:06Z</time>
      </trkpt>
      <trkpt lat="45.72779" lon="3.54254">
        <ele>402</ele>
        <time>2024-05-01T12:05:07Z</time>
      </trkpt>
      <trkpt lat="45.72777" lon="3.54253">
        <ele>402.2</ele>
        <time>2024-05-01T12:05:08Z</time>
      </trkpt>
      <trkpt lat="45.72774" lon="3.54252">
        <ele>402.4</ele>
        <time>2024-05-01T12:05:09Z</time>
      </trkpt>
      <trkpt lat="45.72771" lon="3.54252">
        <ele>402.6</ele>
        <time>2024-05-01T12:05:10Z</time>
      </trkpt>
      <trkpt lat="45.72769" lon="3.54251">
        <ele>402.6</ele>
        <time>2024-05-01T12:05:11Z</time>
      </trkpt>
      <trkpt lat="45.72766" lon="3.54251">
        <ele>402.8</ele>
        <time>2024-05-01T12:05:12Z</time>
      </trkpt>
      <trkpt lat="45.72763" lon="3.5425">
        <ele>402.8</ele>
        <time>2024-05-01T12:05:13Z</time>
      </trkpt>
      <trkpt lat="45.72761" lon="3.5425">
        <ele>403</ele>
        <time>2024-05-01T12:05:14Z</time>
      </trkpt>
      <trkpt lat="45.72758" lon="3.54249">
        <ele>403</ele>
        <time>2024-05-01T12:05:15Z</time>
      </trkpt>
      <trkpt lat="45.72755" lon="3.54249">
        <ele>403</ele>
        <time>2024-05-01T12:05:16Z</time>
      </trkpt>
      <trkpt lat="45.72753" lon="3.54248">
        <ele>403</ele>
        <time>2024-05-01T12:05:17Z</time>
      </trkpt>
      <trkpt lat="45.7275" lon="3.54248">
        <ele>403.2</ele>
        <time>2024-05-01T12:05:18Z</time>
      </trkpt>
      <trkpt lat="45.72748" lon="3.54247">
        <ele>403.2</ele>
        <time>2024-05-01T12:05:19Z</time>
      </trkpt>
      <trkpt lat="45.72746" lon="3.54247">
        <ele>403.2</ele>
        <time>2024-05-01T12:05:20Z</time>
      </trkpt>
      <trkpt lat="45.72743" lon="3.54246">
        <ele>403.4</ele>
        <time>2024-05-01T12:05:21Z</time>
      </trkpt>
      <trkpt lat="45.72741" lon="3.54246">
        <ele>403.4</ele>
        <time>2024-05-01T12:05:22Z</time>
      </trkpt>
      <trkpt lat="45.72738" lon="3.54245">
        <ele>403.4</ele>
        <time>2024-05-01T12:05:23Z</time>
      </trkpt>
      <trkpt lat="45.72735" lon="3.54245">
        <ele>403.4</ele>
        <time>2024-05-01T12:05:24Z</time>
      </trkpt>
      <trkpt lat="45.72732" lon="3.54244">
        <ele>403.4</ele>
        <time>2024-05-01T12:05:25Z</time>
      </trkpt>
      <trkpt lat="45.7273" lon="3.54244">
        <ele>403.4</ele>
        <time>2024-05-01T12:05:26Z</time>
      </trkpt>
      <trkpt lat="45.72727" lon="3.54243">
        <ele>403.4</ele>
        <time>2024-05-01T12:05:27Z</time>
      </trkpt>
      <trkpt lat="45.72724" lon="3.54243">
        <ele>403.4</ele>
        <time>2024-05-01T12:05:28Z</time>
      </trkpt>
      <trkpt lat="45.72721" lon="3.54242">
        <ele>403.6</ele>
        <time>2024-05-01T12:05:29Z</time>
      </trkpt>
      <trkpt lat="45.72718" lon="3.54241">
        <ele>403.4</ele>
        <time>2024-05-01T12:05:30Z</time>
      </trkpt>
      <trkpt lat="45.72715" lon="3.54241">
        <ele>403.6</ele>
        <time>2024-05-01T12:05:31Z</time>
      </trkpt>
      <trkpt lat="45.72713" lon="3.5424">
        <ele>403.6</ele>
        <time>2024-05-01T12:05:32Z</time>
      </trkpt>
      <trkpt lat="45.7271" lon="3.54241">
        <ele>403.8</ele>
        <time>2024-05-01T12:05:33Z</time>
      </trkpt>
      <trkpt lat="45.72707" lon="3.54241">
        <ele>403.6</ele>
        <time>2024-05-01T12:05:34Z</time>
      </trkpt>
      <trkpt lat="45.72705" lon="3.54241">
        <ele>403.6</ele>
        <time>2024-05-01T12:05:35Z</time>
      </trkpt>
      <trkpt lat="45.72702" lon="3.54241">
        <ele>403.6</ele>
        <time>2024-05-01T12:05:36Z</time>
      </trkpt>
      <trkpt lat="45.72699" lon="3.54241">
        <ele>403.6</ele>
        <time>2024-05-01T12:05:37Z</time>
      </trkpt>
      <trkpt lat="45.72696" lon="3.54242">
        <ele>403.8</ele>
        <time>2024-05-01T12:05:38Z</time>
      </trkpt>
      <trkpt lat="45.72694" lon="3.54242">
        <ele>403.6</ele>
        <time>2024-05-01T12:05:39Z</time>
      </trkpt>
      <trkpt lat="45.72691" lon="3.54242">
        <ele>403.8</ele>
        <time>2024-05-01T12:05:40Z</time>
      </trkpt>
      <trkpt lat="45.72688" lon="3.54242">
        <ele>403.6</ele>
        <time>2024-05-01T12:05:41Z</time>
      </trkpt>
      <trkpt lat="45.72685" lon="3.54242">
        <ele>403.6</ele>
        <time>2024-05-01T12:05:42Z</time>
      </trkpt>
      <trkpt lat="45.72683" lon="3.54243">
        <ele>403.6</ele>
        <time>2024-05-01T12:05:43Z</time>
      </trkpt>
      <trkpt lat="45.72681" lon="3.54245">
        <ele>403.6</ele>
        <time>2024-05-01T12:05:44Z</time>
      </trkpt>
      <trkpt lat="45.72678" lon="3.54246">
        <ele>403.6</ele>
        <time>2024-05-01T12:05:45Z</time>
      </trkpt>
      <trkpt lat="45.72676" lon="3.54248">
        <ele>403.6</ele>
        <time>2024-05-01T12:05:46Z</time>
      </trkpt>
      <trkpt lat="45.72674" lon="3.54249">
        <ele>403.6</ele>
        <time>2024-05-01T12:05:47Z</time>
      </trkpt>
      <trkpt lat="45.72671" lon="3.54251">
        <ele>403.6</ele>
        <time>2024-05-01T12:05:48Z</time>
      </trkpt>
      <trkpt lat="45.72669" lon="3.54253">
        <ele>404</ele>
        <time>2024-05-01T12:05:49Z</time>
      </trkpt>
      <trkpt lat="45.72666" lon="3.54255">
        <ele>404</ele>
        <time>2024-05-01T12:05:50Z</time>
      </trkpt>
      <trkpt lat="45.72663" lon="3.54257">
        <ele>403.6</ele>
        <time>2024-05-01T12:05:51Z</time>
      </trkpt>
      <trkpt lat="45.72661" lon="3.5426">
        <ele>403.6</ele>
        <time>2024-05-01T12:05:52Z</time>
      </trkpt>
      <trkpt lat="45.72659" lon="3.54263">
        <ele>403.8</ele>
        <time>2024-05-01T12:05:53Z</time>
      </trkpt>
      <trkpt lat="45.72657" lon="3.54267">
        <ele>404</ele>
        <time>2024-05-01T12:05:54Z</time>
      </trkpt>
      <trkpt lat="45.72655" lon="3.54271">
        <ele>404</ele>
        <time>2024-05-01T12:05:55Z</time>
      </trkpt>
      <trkpt lat="45.72653" lon="3.54274">
        <ele>404</ele>
        <time>2024-05-01T12:05:56Z</time>
      </trkpt>
      <trkpt lat="45.72651" lon="3.54277">
        <ele>404</ele>
        <time>2024-05-01T12:05:57Z</time>
      </trkpt>
      <trkpt lat="45.72649" lon="3.54281">
        <ele>404</ele>
        <time>2024-05-01T12:05:58Z</time>
      </trkpt>
      <trkpt lat="45.72648" lon="3.54284">
        <ele>404</ele>
        <time>2024-05-01T12:05:59Z</time>
      </trkpt>
      <trkpt lat="45.72646" lon="3.54287">
        <ele>404</ele>
        <time>2024-05-01T12:06:00Z</time>
      </trkpt>
      <trkpt lat="45.72645" lon="3.54289">
        <ele>404</ele>
        <time>2024-05-01T12:06:01Z</time>
      </trkpt>
      <trkpt lat="45.72643" lon="3.54292">
        <ele>404.2</ele>
        <time>2024-05-01T12:06:02Z</time>
      </trkpt>
      <trkpt lat="45.72641" lon="3.54296">
        <ele>404.2</ele>
        <time>2024-05-01T12:06:03Z</time>
      </trkpt>
      <trkpt lat="45.72639" lon="3.54299">
        <ele>404.4</ele>
        <time>2024-05-01T12:06:04Z</time>
      </trkpt>
      <trkpt lat="45.72637" lon="3.54302">
        <ele>404.4</ele>
        <time>2024-05-01T12:06:05Z</time>
      </trkpt>
      <trkpt lat="45.72635" lon="3.54306">
        <ele>404.6</ele>
        <time>2024-05-01T12:06:06Z</time>
      </trkpt>
      <trkpt lat="45.72634" lon="3.54309">
        <ele>404.6</ele>
        <time>2024-05-01T12:06:07Z</time>
      </trkpt>
      <trkpt lat="45.72632" lon="3.54313">
        <ele>404.8</ele>
        <time>2024-05-01T12:06:08Z</time>
      </trkpt>
      <trkpt lat="45.7263" lon="3.54316">
        <ele>404.8</ele>
        <time>2024-05-01T12:06:09Z</time>
      </trkpt>
      <trkpt lat="45.72627" lon="3.5432">
        <ele>404.8</ele>
        <time>2024-05-01T12:06:10Z</time>
      </trkpt>
      <trkpt lat="45.72624" lon="3.54321">
        <ele>404.8</ele>
        <time>2024-05-01T12:06:11Z</time>
      </trkpt>
      <trkpt lat="45.72621" lon="3.54321">
        <ele>405</ele>
        <time>2024-05-01T12:06:12Z</time>
      </trkpt>
      <trkpt lat="45.72618" lon="3.54322">
        <ele>405</ele>
        <time>2024-05-01T12:06:13Z</time>
      </trkpt>
      <trkpt lat="45.72615" lon="3.54322">
        <ele>405.2</ele>
        <time>2024-05-01T12:06:14Z</time>
      </trkpt>
      <trkpt lat="45.72612" lon="3.54323">
        <ele>405.4</ele>
        <time>2024-05-01T12:06:15Z</time>
      </trkpt>
      <trkpt lat="45.72609" lon="3.54324">
        <ele>405.6</ele>
        <time>2024-05-01T12:06:16Z</time>
      </trkpt>
      <trkpt lat="45.72606" lon="3.54324">
        <ele>405.6</ele>
        <time>2024-05-01T12:06:17Z</time>
      </trkpt>
      <trkpt lat="45.72603" lon="3.54323">
        <ele>405.8</ele>
        <time>2024-05-01T12:06:18Z</time>
      </trkpt>
      <trkpt lat="45.726" lon="3.54323">
        <ele>406</ele>
        <time>2024-05-01T12:06:19Z</time>
      </trkpt>
      <trkpt lat="45.72598" lon="3.54322">
        <ele>406.2</ele>
        <time>2024-05-01T12:06:20Z</time>
      </trkpt>
      <trkpt lat="45.72595" lon="3.54321">
        <ele>406.4</ele>
        <time>2024-05-01T12:06:21Z</time>
      </trkpt>
      <trkpt lat="45.72592" lon="3.5432">
        <ele>406.6</ele>
        <time>2024-05-01T12:06:22Z</time>
      </trkpt>
      <trkpt lat="45.7259" lon="3.5432">
        <ele>406.8</ele>
        <time>2024-05-01T12:06:23Z</time>
      </trkpt>
      <trkpt lat="45.72587" lon="3.54319">
        <ele>407</ele>
        <time>2024-05-01T12:06:24Z</time>
      </trkpt>
      <trkpt lat="45.72584" lon="3.54318">
        <ele>407.2</ele>
        <time>2024-05-01T12:06:25Z</time>
      </trkpt>
      <trkpt lat="45.72581" lon="3.54317">
        <ele>407.2</ele>
        <time>2024-05-01T12:06:26Z</time>
      </trkpt>
      <trkpt lat="45.72578" lon="3.54317">
        <ele>407.6</ele>
        <time>2024-05-01T12:06:27Z</time>
      </trkpt>
      <trkpt lat="45.72575" lon="3.54316">
        <ele>407.8</ele>
        <time>2024-05-01T12:06:28Z</time>
      </trkpt>
      <trkpt lat="45.72573" lon="3.54315">
        <ele>408</ele>
        <time>2024-05-01T12:06:29Z</time>
      </trkpt>
      <trkpt lat="45.7257" lon="3.54314">
        <ele>408.2</ele>
        <time>2024-05-01T12:06:30Z</time>
      </trkpt>
      <trkpt lat="45.72567" lon="3.54314">
        <ele>408.4</ele>
        <time>2024-05-01T12:06:31Z</time>
      </trkpt>
      <trkpt lat="45.72564" lon="3.54313">
        <ele>409</ele>
        <time>2024-05-01T12:06:32Z</time>
      </trkpt>
      <trkpt lat="45.72561" lon="3.54312">
        <ele>409.6</ele>
        <time>2024-05-01T12:06:33Z</time>
      </trkpt>
      <trkpt lat="45.72558" lon="3.54311">
        <ele>410.2</ele>
        <time>2024-05-01T12:06:34Z</time>
      </trkpt>
      <trkpt lat="45.72556" lon="3.54311">
        <ele>410.6</ele>
        <time>2024-05-01T12:06:35Z</time>
      </trkpt>
      <trkpt lat="45.72553" lon="3.5431">
        <ele>410.8</ele>
        <time>2024-05-01T12:06:36Z</time>
      </trkpt>
      <trkpt lat="45.72551" lon="3.54309">
        <ele>411.4</ele>
        <time>2024-05-01T12:06:37Z</time>
      </trkpt>
      <trkpt lat="45.72548" lon="3.54309">
        <ele>411.6</ele>
        <time>2024-05-01T12:06:38Z</time>
      </trkpt>
      <trkpt lat="45.72545" lon="3.54308">
        <ele>412</ele>
        <time>2024-05-01T12:06:39Z</time>
      </trkpt>
      <trkpt lat="45.72543" lon="3.54307">
        <ele>412.2</ele>
        <time>2024-05-01T12:06:40Z</time>
      </trkpt>
      <trkpt lat="45.7254" lon="3.54307">
        <ele>412.4</ele>
        <time>2024-05-01T12:06:41Z</time>
      </trkpt>
      <trkpt lat="45.72538" lon="3.54306">
        <ele>412.8</ele>
        <time>2024-05-01T12:06:42Z</time>
      </trkpt>
      <trkpt lat="45.72535" lon="3.54305">
        <ele>413</ele>
        <time>2024-05-01T12:06:43Z</time>
      </trkpt>
      <trkpt lat="45.72533" lon="3.54305">
        <ele>413.2</ele>
        <time>2024-05-01T12:06:44Z</time>
      </trkpt>
      <trkpt lat="45.7253" lon="3.54304">
        <ele>413.4</ele>
        <time>2024-05-01T12:06:45Z</time>
      </trkpt>
      <trkpt lat="45.72527" lon="3.54304">
        <ele>413.8</ele>
        <time>2024-05-01T12:06:46Z</time>
      </trkpt>
      <trkpt lat="45.72525" lon="3.54304">
        <ele>414</ele>
        <time>2024-05-01T12:06:47Z</time>
      </trkpt>
      <trkpt lat="45.72522" lon="3.54303">
        <ele>414.2</ele>
        <time>2024-05-01T12:06:48Z</time>
      </trkpt>
      <trkpt lat="45.7252" lon="3.54303">
        <ele>414.4</ele>
        <time>2024-05-01T12:06:49Z</time>
      </trkpt>
      <trkpt lat="45.72517" lon="3.54303">
        <ele>414.6</ele>
        <time>2024-05-01T12:06:50Z</time>
      </trkpt>
      <trkpt lat="45.72515" lon="3.54302">
        <ele>414.8</ele>
        <time>2024-05-01T12:06:51Z</time>
      </trkpt>
      <trkpt lat="45.72512" lon="3.54302">
        <ele>415</ele>
        <time>2024-05-01T12:06:52Z</time>
      </trkpt>
      <trkpt lat="45.7251" lon="3.54302">
        <ele>415.2</ele>
        <time>2024-05-01T12:06:53Z</time>
      </trkpt>
      <trkpt lat="45.72507" lon="3.54301">
        <ele>415.4</ele>
        <time>2024-05-01T12:06:54Z</time>
      </trkpt>
      <trkpt lat="45.72505" lon="3.54301">
        <ele>415.6</ele>
        <time>2024-05-01T12:06:55Z</time>
      </trkpt>
      <trkpt lat="45.72502" lon="3.54301">
        <ele>415.8</ele>
        <time>2024-05-01T12:06:56Z</time>
      </trkpt>
      <trkpt lat="45.725" lon="3.543">
        <ele>415.8</ele>
        <time>2024-05-01T12:06:57Z</time>
      </trkpt>
      <trkpt lat="45.725" lon="3.543">
        <ele>416</ele>
        <time>2024-05-01T12:06:58Z</time>
      </trkpt>
      <trkpt lat="45.72495" lon="3.543">
        <ele>416.2</ele>
        <time>2024-05-01T12:06:59Z</time>
      </trkpt>
      <trkpt lat="45.72492" lon="3.54299">
        <ele>416.4</ele>
        <time>2024-05-01T12:07:00Z</time>
      </trkpt>
      <trkpt lat="45.72489" lon="3.54299">
        <ele>416.6</ele>
        <time>2024-05-01T12:07:01Z</time>
      </trkpt>
      <trkpt lat="45.72486" lon="3.54299">
        <ele>416.8</ele>
        <time>2024-05-01T12:07:02Z</time>
      </trkpt>
      <trkpt lat="45.72483" lon="3.54298">
        <ele>417</ele>
        <time>2024-05-01T12:07:03Z</time>
      </trkpt>
      <trkpt lat="45.7248" lon="3.54298">
        <ele>417.2</ele>
        <time>2024-05-01T12:07:04Z</time>
      </trkpt>
      <trkpt lat="45.72477" lon="3.54298">
        <ele>417.6</ele>
        <time>2024-05-01T12:07:05Z</time>
      </trkpt>
      <trkpt lat="45.72474" lon="3.54297">
        <ele>417.8</ele>
        <time>2024-05-01T12:07:06Z</time>
      </trkpt>
      <trkpt lat="45.72471" lon="3.54297">
        <ele>418</ele>
        <time>2024-05-01T12:07:07Z</time>
      </trkpt>
      <trkpt lat="45.72468" lon="3.54296">
        <ele>418.2</ele>
        <time>2024-05-01T12:07:08Z</time>
      </trkpt>
      <trkpt lat="45.72465" lon="3.54297">
        <ele>418.4</ele>
        <time>2024-05-01T12:07:09Z</time>
      </trkpt>
      <trkpt lat="45.72462" lon="3.54297">
        <ele>418.8</ele>
        <time>2024-05-01T12:07:10Z</time>
      </trkpt>
      <trkpt lat="45.72459" lon="3.54298">
        <ele>419</ele>
        <time>2024-05-01T12:07:11Z</time>
      </trkpt>
      <trkpt lat="45.72456" lon="3.54299">
        <ele>419.2</ele>
        <time>2024-05-01T12:07:12Z</time>
      </trkpt>
      <trkpt lat="45.72454" lon="3.543">
        <ele>419.4</ele>
        <time>2024-05-01T12:07:13Z</time>
      </trkpt>
      <trkpt lat="45.72451" lon="3.543">
        <ele>419.6</ele>
        <time>2024-05-01T12:07:14Z</time>
      </trkpt>
      <trkpt lat="45.72448" lon="3.54301">
        <ele>419.8</ele>
        <time>2024-05-01T12:07:15Z</time>
      </trkpt>
      <trkpt lat="45.72445" lon="3.54302">
        <ele>420</ele>
        <time>2024-05-01T12:07:16Z</time>
      </trkpt>
      <trkpt lat="45.72442" lon="3.54302">
        <ele>420.2</ele>
        <time>2024-05-01T12:07:17Z</time>
      </trkpt>
      <trkpt lat="45.7244" lon="3.54303">
        <ele>420.4</ele>
        <time>2024-05-01T12:07:18Z</time>
      </trkpt>
      <trkpt lat="45.72437" lon="3.54304">
        <ele>420.6</ele>
        <time>2024-05-01T12:07:19Z</time>
      </trkpt>
      <trkpt lat="45.72435" lon="3.54304">
        <ele>421</ele>
        <time>2024-05-01T12:07:20Z</time>
      </trkpt>
      <trkpt lat="45.72432" lon="3.54305">
        <ele>421</ele>
        <time>2024-05-01T12:07:21Z</time>
      </trkpt>
      <trkpt lat="45.72429" lon="3.54306">
        <ele>421.2</ele>
        <time>2024-05-01T12:07:22Z</time>
      </trkpt>
      <trkpt lat="45.72427" lon="3.54307">
        <ele>421.6</ele>
        <time>2024-05-01T12:07:23Z</time>
      </trkpt>
      <trkpt lat="45.72424" lon="3.54307">
        <ele>421.6</ele>
        <time>2024-05-01T12:07:24Z</time>
      </trkpt>
      <trkpt lat="45.72422" lon="3.54308">
        <ele>421.8</ele>
        <time>2024-05-01T12:07:25Z</time>
      </trkpt>
      <trkpt lat="45.72419" lon="3.54308">
        <ele>422</ele>
        <time>2024-05-01T12:07:26Z</time>
      </trkpt>
      <trkpt lat="45.72417" lon="3.54309">
        <ele>422.2</ele>
        <time>2024-05-01T12:07:27Z</time>
      </trkpt>
      <trkpt lat="45.72414" lon="3.5431">
        <ele>422.4</ele>
        <time>2024-05-01T12:07:28Z</time>
      </trkpt>
      <trkpt lat="45.72411" lon="3.5431">
        <ele>422.6</ele>
        <time>2024-05-01T12:07:29Z</time>
      </trkpt>
      <trkpt lat="45.72409" lon="3.54311">
        <ele>422.6</ele>
        <time>2024-05-01T12:07:30Z</time>
      </trkpt>
      <trkpt lat="45.72406" lon="3.54312">
        <ele>422.8</ele>
        <time>2024-05-01T12:07:31Z</time>
      </trkpt>
      <trkpt lat="45.72403" lon="3.54312">
        <ele>423.2</ele>
        <time>2024-05-01T12:07:32Z</time>
      </trkpt>
      <trkpt lat="45.72401" lon="3.54313">
        <ele>423.4</ele>
        <time>2024-05-01T12:07:33Z</time>
      </trkpt>
      <trkpt lat="45.72398" lon="3.54314">
        <ele>423.6</ele>
        <time>2024-05-01T12:07:34Z</time>
      </trkpt>
      <trkpt lat="45.72395" lon="3.54314">
        <ele>423.8</ele>
        <time>2024-05-01T12:07:35Z</time>
      </trkpt>
      <trkpt lat="45.72392" lon="3.54315">
        <ele>424</ele>
        <time>2024-05-01T12:07:36Z</time>
      </trkpt>
      <trkpt lat="45.72389" lon="3.54316">
        <ele>424.2</ele>
        <time>2024-05-01T12:07:37Z</time>
      </trkpt>
      <trkpt lat="45.72386" lon="3.54317">
        <ele>424.4</ele>
        <time>2024-05-01T12:07:38Z</time>
      </trkpt>
      <trkpt lat="45.72384" lon="3.54317">
        <ele>424.6</ele>
        <time>2024-05-01T12:07:39Z</time>
      </trkpt>
      <trkpt lat="45.72381" lon="3.54318">
        <ele>424.8</ele>
        <time>2024-05-01T12:07:40Z</time>
      </trkpt>
      <trkpt lat="45.72379" lon="3.54319">
        <ele>424.8</ele>
        <time>2024-05-01T12:07:41Z</time>
      </trkpt>
      <trkpt lat="45.72376" lon="3.54319">
        <ele>425.2</ele>
        <time>2024-05-01T12:07:42Z</time>
      </trkpt>
      <trkpt lat="45.72374" lon="3.5432">
        <ele>425.4</ele>
        <time>2024-05-01T12:07:43Z</time>
      </trkpt>
      <trkpt lat="45.72371" lon="3.54319">
        <ele>425.6</ele>
        <time>2024-05-01T12:07:44Z</time>
      </trkpt>
      <trkpt lat="45.72369" lon="3.54318">
        <ele>425.8</ele>
        <time>2024-05-01T12:07:45Z</time>
      </trkpt>
      <trkpt lat="45.72366" lon="3.54318">
        <ele>425.8</ele>
        <time>2024-05-01T12:07:46Z</time>
      </trkpt>
      <trkpt lat="45.72363" lon="3.54317">
        <ele>426</ele>
        <time>2024-05-01T12:07:47Z</time>
      </trkpt>
      <trkpt lat="45.7236" lon="3.54316">
        <ele>426.2</ele>
        <time>2024-05-01T12:07:48Z</time>
      </trkpt>
      <trkpt lat="45.72357" lon="3.54316">
        <ele>426.4</ele>
        <time>2024-05-01T12:07:49Z</time>
      </trkpt>
      <trkpt lat="45.72354" lon="3.54315">
        <ele>426.6</ele>
        <time>2024-05-01T12:07:50Z</time>
      </trkpt>
      <trkpt lat="45.72351" lon="3.54314">
        <ele>426.8</ele>
        <time>2024-05-01T12:07:51Z</time>
      </trkpt>
      <trkpt lat="45.72348" lon="3.54314">
        <ele>427</ele>
        <time>2024-05-01T12:07:52Z</time>
      </trkpt>
      <trkpt lat="45.72346" lon="3.54313">
        <ele>427.2</ele>
        <time>2024-05-01T12:07:53Z</time>
      </trkpt>
      <trkpt lat="45.72343" lon="3.54312">
        <ele>427.4</ele>
        <time>2024-05-01T12:07:54Z</time>
      </trkpt>
      <trkpt lat="45.7234" lon="3.54312">
        <ele>427.4</ele>
        <time>2024-05-01T12:07:55Z</time>
      </trkpt>
      <trkpt lat="45.72338" lon="3.54311">
        <ele>427.6</ele>
        <time>2024-05-01T12:07:56Z</time>
      </trkpt>
      <trkpt lat="45.72335" lon="3.54311">
        <ele>427.8</ele>
        <time>2024-05-01T12:07:57Z</time>
      </trkpt>
      <trkpt lat="45.72332" lon="3.5431">
        <ele>428.2</ele>
        <time>2024-05-01T12:07:58Z</time>
      </trkpt>
      <trkpt lat="45.7233" lon="3.54309">
        <ele>428.4</ele>
        <time>2024-05-01T12:07:59Z</time>
      </trkpt>
      <trkpt lat="45.72327" lon="3.54309">
        <ele>428.8</ele>
        <time>2024-05-01T12:08:00Z</time>
      </trkpt>
      <trkpt lat="45.72324" lon="3.54308">
        <ele>429</ele>
        <time>2024-05-01T12:08:01Z</time>
      </trkpt>
      <trkpt lat="45.72322" lon="3.54307">
        <ele>429.2</ele>
        <time>2024-05-01T12:08:02Z</time>
      </trkpt>
      <trkpt lat="45.72319" lon="3.54307">
        <ele>429.6</ele>
        <time>2024-05-01T12:08:03Z</time>
      </trkpt>
      <trkpt lat="45.72317" lon="3.54306">
        <ele>429.8</ele>
        <time>2024-05-01T12:08:04Z</time>
      </trkpt>
      <trkpt lat="45.72314" lon="3.54306">
        <ele>430</ele>
        <time>2024-05-01T12:08:05Z</time>
      </trkpt>
      <trkpt lat="45.72312" lon="3.54305">
        <ele>430.2</ele>
        <time>2024-05-01T12:08:06Z</time>
      </trkpt>
      <trkpt lat="45.72308" lon="3.54305">
        <ele>430.4</ele>
        <time>2024-05-01T12:08:07Z</time>
      </trkpt>
      <trkpt lat="45.72306" lon="3.54306">
        <ele>430.8</ele>
        <time>2024-05-01T12:08:08Z</time>
      </trkpt>
      <trkpt lat="45.72303" lon="3.54306">
        <ele>431</ele>
        <time>2024-05-01T12:08:09Z</time>
      </trkpt>
      <trkpt lat="45.723" lon="3.54307">
        <ele>431.2</ele>
        <time>2024-05-01T12:08:10Z</time>
      </trkpt>
      <trkpt lat="45.72298" lon="3.54308">
        <ele>431.4</ele>
        <time>2024-05-01T12:08:11Z</time>
      </trkpt>
      <trkpt lat="45.72295" lon="3.54309">
        <ele>431.8</ele>
        <time>2024-05-01T12:08:12Z</time>
      </trkpt>
      <trkpt lat="45.72293" lon="3.5431">
        <ele>431.8</ele>
        <time>2024-05-01T12:08:13Z</time>
      </trkpt>
      <trkpt lat="45.72291" lon="3.54312">
        <ele>432</ele>
        <time>2024-05-01T12:08:14Z</time>
      </trkpt>
      <trkpt lat="45.72289" lon="3.54313">
        <ele>432.4</ele>
        <time>2024-05-01T12:08:15Z</time>
      </trkpt>
      <trkpt lat="45.72287" lon="3.54314">
        <ele>432.6</ele>
        <time>2024-05-01T12:08:16Z</time>
      </trkpt>
      <trkpt lat="45.72285" lon="3.54315">
        <ele>432.8</ele>
        <time>2024-05-01T12:08:17Z</time>
      </trkpt>
      <trkpt lat="45.72282" lon="3.54317">
        <ele>433.2</ele>
        <time>2024-05-01T12:08:18Z</time>
      </trkpt>
      <trkpt lat="45.7228" lon="3.54318">
        <ele>433.4</ele>
        <time>2024-05-01T12:08:19Z</time>
      </trkpt>
      <trkpt lat="45.72277" lon="3.5432">
        <ele>433.8</ele>
        <time>2024-05-01T12:08:20Z</time>
      </trkpt>
      <trkpt lat="45.72274" lon="3.54322">
        <ele>434</ele>
        <time>2024-05-01T12:08:21Z</time>
      </trkpt>
      <trkpt lat="45.72271" lon="3.54323">
        <ele>434.4</ele>
        <time>2024-05-01T12:08:22Z</time>
      </trkpt>
      <trkpt lat="45.72268" lon="3.54325">
        <ele>434.6</ele>
        <time>2024-05-01T12:08:23Z</time>
      </trkpt>
      <trkpt lat="45.72265" lon="3.54326">
        <ele>434.8</ele>
        <time>2024-05-01T12:08:24Z</time>
      </trkpt>
      <trkpt lat="45.72263" lon="3.54328">
        <ele>435.2</ele>
        <time>2024-05-01T12:08:25Z</time>
      </trkpt>
      <trkpt lat="45.7226" lon="3.5433">
        <ele>435.4</ele>
        <time>2024-05-01T12:08:26Z</time>
      </trkpt>
      <trkpt lat="45.72257" lon="3.54331">
        <ele>435.6</ele>
        <time>2024-05-01T12:08:27Z</time>
      </trkpt>
      <trkpt lat="45.72254" lon="3.54333">
        <ele>436</ele>
        <time>2024-05-01T12:08:28Z</time>
      </trkpt>
      <trkpt lat="45.72252" lon="3.54333">
        <ele>436.2</ele>
        <time>2024-05-01T12:08:29Z</time>
      </trkpt>
      <trkpt lat="45.72249" lon="3.54334">
        <ele>436.4</ele>
        <time>2024-05-01T12:08:30Z</time>
      </trkpt>
      <trkpt lat="45.72246" lon="3.54334">
        <ele>436.6</ele>
        <time>2024-05-01T12:08:31Z</time>
      </trkpt>
      <trkpt lat="45.72243" lon="3.54335">
        <ele>436.8</ele>
        <time>2024-05-01T12:08:32Z</time>
      </trkpt>
      <trkpt lat="45.7224" lon="3.54335">
        <ele>437</ele>
        <time>2024-05-01T12:08:33Z</time>
      </trkpt>
      <trkpt lat="45.72238" lon="3.54336">
        <ele>437.4</ele>
        <time>2024-05-01T12:08:34Z</time>
      </trkpt>
      <trkpt lat="45.72235" lon="3.54337">
        <ele>437.6</ele>
        <time>2024-05-01T12:08:35Z</time>
      </trkpt>
      <trkpt lat="45.72232" lon="3.54337">
        <ele>437.8</ele>
        <time>2024-05-01T12:08:36Z</time>
      </trkpt>
      <trkpt lat="45.72229" lon="3.54338">
        <ele>438.2</ele>
        <time>2024-05-01T12:08:37Z</time>
      </trkpt>
      <trkpt lat="45.72226" lon="3.54338">
        <ele>438.4</ele>
        <time>2024-05-01T12:08:38Z</time>
      </trkpt>
      <trkpt lat="45.72224" lon="3.54339">
        <ele>438.6</ele>
        <time>2024-05-01T12:08:39Z</time>
      </trkpt>
      <trkpt lat="45.72221" lon="3.54339">
        <ele>439</ele>
        <time>2024-05-01T12:08:40Z</time>
      </trkpt>
      <trkpt lat="45.72218" lon="3.5434">
        <ele>439.2</ele>
        <time>2024-05-01T12:08:41Z</time>
      </trkpt>
      <trkpt lat="45.72215" lon="3.5434">
        <ele>439.4</ele>
        <time>2024-05-01T12:08:42Z</time>
      </trkpt>
      <trkpt lat="45.72212" lon="3.54341">
        <ele>439.6</ele>
        <time>2024-05-01T12:08:43Z</time>
      </trkpt>
      <trkpt lat="45.7221" lon="3.54341">
        <ele>439.8</ele>
        <time>2024-05-01T12:08:44Z</time>
      </trkpt>
      <trkpt lat="45.72207" lon="3.54342">
        <ele>440</ele>
        <time>2024-05-01T12:08:45Z</time>
      </trkpt>
      <trkpt lat="45.72204" lon="3.54343">
        <ele>440.2</ele>
        <time>2024-05-01T12:08:46Z</time>
      </trkpt>
      <trkpt lat="45.72201" lon="3.54343">
        <ele>440.4</ele>
        <time>2024-05-01T12:08:47Z</time>
      </trkpt>
      <trkpt lat="45.72198" lon="3.54344">
        <ele>440.8</ele>
        <time>2024-05-01T12:08:48Z</time>
      </trkpt>
      <trkpt lat="45.72195" lon="3.54344">
        <ele>441</ele>
        <time>2024-05-01T12:08:49Z</time>
      </trkpt>
      <trkpt lat="45.72193" lon="3.54345">
        <ele>441.2</ele>
        <time>2024-05-01T12:08:50Z</time>
      </trkpt>
      <trkpt lat="45.7219" lon="3.54345">
        <ele>441.6</ele>
        <time>2024-05-01T12:08:51Z</time>
      </trkpt>
      <trkpt lat="45.72187" lon="3.54346">
        <ele>441.8</ele>
        <time>2024-05-01T12:08:52Z</time>
      </trkpt>
      <trkpt lat="45.72184" lon="3.54346">
        <ele>442</ele>
        <time>2024-05-01T12:08:53Z</time>
      </trkpt>
      <trkpt lat="45.72182" lon="3.54347">
        <ele>442.4</ele>
        <time>2024-05-01T12:08:54Z</time>
      </trkpt>
      <trkpt lat="45.72176" lon="3.54348">
        <ele>442.6</ele>
        <time>2024-05-01T12:08:55Z</time>
      </trkpt>
      <trkpt lat="45.72176" lon="3.54348">
        <ele>442.8</ele>
        <time>2024-05-01T12:08:56Z</time>
      </trkpt>
      <trkpt lat="45.72173" lon="3.54349">
        <ele>443</ele>
        <time>2024-05-01T12:08:57Z</time>
      </trkpt>
      <trkpt lat="45.7217" lon="3.54349">
        <ele>443.2</ele>
        <time>2024-05-01T12:08:58Z</time>
      </trkpt>
      <trkpt lat="45.72168" lon="3.5435">
        <ele>443.6</ele>
        <time>2024-05-01T12:08:59Z</time>
      </trkpt>
      <trkpt lat="45.72165" lon="3.5435">
        <ele>443.8</ele>
        <time>2024-05-01T12:09:00Z</time>
      </trkpt>
      <trkpt lat="45.72162" lon="3.54351">
        <ele>444</ele>
        <time>2024-05-01T12:09:01Z</time>
      </trkpt>
      <trkpt lat="45.7216" lon="3.54351">
        <ele>444.2</ele>
        <time>2024-05-01T12:09:02Z</time>
      </trkpt>
      <trkpt lat="45.72157" lon="3.54352">
        <ele>444.4</ele>
        <time>2024-05-01T12:09:03Z</time>
      </trkpt>
      <trkpt lat="45.72154" lon="3.54353">
        <ele>444.6</ele>
        <time>2024-05-01T12:09:04Z</time>
      </trkpt>
      <trkpt lat="45.72152" lon="3.54354">
        <ele>444.8</ele>
        <time>2024-05-01T12:09:05Z</time>
      </trkpt>
      <trkpt lat="45.72149" lon="3.54355">
        <ele>445</ele>
        <time>2024-05-01T12:09:06Z</time>
      </trkpt>
      <trkpt lat="45.72147" lon="3.54356">
        <ele>445.4</ele>
        <time>2024-05-01T12:09:07Z</time>
      </trkpt>
      <trkpt lat="45.72144" lon="3.54358">
        <ele>445.6</ele>
        <time>2024-05-01T12:09:08Z</time>
      </trkpt>
      <trkpt lat="45.72142" lon="3.54359">
        <ele>445.8</ele>
        <time>2024-05-01T12:09:09Z</time>
      </trkpt>
      <trkpt lat="45.72139" lon="3.5436">
        <ele>446</ele>
        <time>2024-05-01T12:09:10Z</time>
      </trkpt>
      <trkpt lat="45.72136" lon="3.54362">
        <ele>446.2</ele>
        <time>2024-05-01T12:09:11Z</time>
      </trkpt>
      <trkpt lat="45.72133" lon="3.54363">
        <ele>446.4</ele>
        <time>2024-05-01T12:09:12Z</time>
      </trkpt>
      <trkpt lat="45.72131" lon="3.54365">
        <ele>446.6</ele>
        <time>2024-05-01T12:09:13Z</time>
      </trkpt>
      <trkpt lat="45.72128" lon="3.54366">
        <ele>446.8</ele>
        <time>2024-05-01T12:09:14Z</time>
      </trkpt>
      <trkpt lat="45.72125" lon="3.54367">
        <ele>447</ele>
        <time>2024-05-01T12:09:15Z</time>
      </trkpt>
      <trkpt lat="45.72123" lon="3.54369">
        <ele>447.2</ele>
        <time>2024-05-01T12:09:16Z</time>
      </trkpt>
      <trkpt lat="45.72121" lon="3.5437">
        <ele>447.6</ele>
        <time>2024-05-01T12:09:17Z</time>
      </trkpt>
      <trkpt lat="45.72119" lon="3.54373">
        <ele>447.8</ele>
        <time>2024-05-01T12:09:18Z</time>
      </trkpt>
      <trkpt lat="45.72117" lon="3.54376">
        <ele>448</ele>
        <time>2024-05-01T12:09:19Z</time>
      </trkpt>
      <trkpt lat="45.72115" lon="3.54379">
        <ele>448.2</ele>
        <time>2024-05-01T12:09:20Z</time>
      </trkpt>
      <trkpt lat="45.72113" lon="3.54382">
        <ele>448.4</ele>
        <time>2024-05-01T12:09:21Z</time>
      </trkpt>
      <trkpt lat="45.72111" lon="3.54385">
        <ele>448.6</ele>
        <time>2024-05-01T12:09:22Z</time>
      </trkpt>
      <trkpt lat="45.72109" lon="3.54388">
        <ele>448.8</ele>
        <time>2024-05-01T12:09:23Z</time>
      </trkpt>
      <trkpt lat="45.72106" lon="3.54391">
        <ele>449</ele>
        <time>2024-05-01T12:09:24Z</time>
      </trkpt>
      <trkpt lat="45.72105" lon="3.54395">
        <ele>449.4</ele>
        <time>2024-05-01T12:09:25Z</time>
      </trkpt>
      <trkpt lat="45.72104" lon="3.54399">
        <ele>449.6</ele>
        <time>2024-05-01T12:09:26Z</time>
      </trkpt>
      <trkpt lat="45.72102" lon="3.54402">
        <ele>450</ele>
        <time>2024-05-01T12:09:27Z</time>
      </trkpt>
      <trkpt lat="45.72101" lon="3.54406">
        <ele>450.2</ele>
        <time>2024-05-01T12:09:28Z</time>
      </trkpt>
      <trkpt lat="45.721" lon="3.5441">
        <ele>450.4</ele>
        <time>2024-05-01T12:09:29Z</time>
      </trkpt>
      <trkpt lat="45.72099" lon="3.54413">
        <ele>450.6</ele>
        <time>2024-05-01T12:09:30Z</time>
      </trkpt>
      <trkpt lat="45.72097" lon="3.54417">
        <ele>450.8</ele>
        <time>2024-05-01T12:09:31Z</time>
      </trkpt>
      <trkpt lat="45.72096" lon="3.54421">
        <ele>451</ele>
        <time>2024-05-01T12:09:32Z</time>
      </trkpt>
      <trkpt lat="45.72095" lon="3.54424">
        <ele>451.2</ele>
        <time>2024-05-01T12:09:33Z</time>
      </trkpt>
      <trkpt lat="45.72093" lon="3.54428">
        <ele>451.6</ele>
        <time>2024-05-01T12:09:34Z</time>
      </trkpt>
      <trkpt lat="45.72092" lon="3.54432">
        <ele>451.8</ele>
        <time>2024-05-01T12:09:35Z</time>
      </trkpt>
      <trkpt lat="45.72091" lon="3.54435">
        <ele>452</ele>
        <time>2024-05-01T12:09:36Z</time>
      </trkpt>
      <trkpt lat="45.7209" lon="3.54439">
        <ele>452.2</ele>
        <time>2024-05-01T12:09:37Z</time>
      </trkpt>
      <trkpt lat="45.72088" lon="3.54443">
        <ele>452.4</ele>
        <time>2024-05-01T12:09:38Z</time>
      </trkpt>
      <trkpt lat="45.72087" lon="3.54446">
        <ele>452.6</ele>
        <time>2024-05-01T12:09:39Z</time>
      </trkpt>
      <trkpt lat="45.72086" lon="3.5445">
        <ele>452.8</ele>
        <time>2024-05-01T12:09:40Z</time>
      </trkpt>
      <trkpt lat="45.72085" lon="3.54453">
        <ele>453</ele>
        <time>2024-05-01T12:09:41Z</time>
      </trkpt>
      <trkpt lat="45.72085" lon="3.54457">
        <ele>453.4</ele>
        <time>2024-05-01T12:09:42Z</time>
      </trkpt>
      <trkpt lat="45.72084" lon="3.54461">
        <ele>453.6</ele>
        <time>2024-05-01T12:09:43Z</time>
      </trkpt>
      <trkpt lat="45.72083" lon="3.54465">
        <ele>453.8</ele>
        <time>2024-05-01T12:09:44Z</time>
      </trkpt>
      <trkpt lat="45.72082" lon="3.54468">
        <ele>454</ele>
        <time>2024-05-01T12:09:45Z</time>
      </trkpt>
      <trkpt lat="45.72081" lon="3.54472">
        <ele>454.2</ele>
        <time>2024-05-01T12:09:46Z</time>
      </trkpt>
      <trkpt lat="45.7208" lon="3.54476">
        <ele>454.4</ele>
        <time>2024-05-01T12:09:47Z</time>
      </trkpt>
      <trkpt lat="45.7208" lon="3.54479">
        <ele>454.6</ele>
        <time>2024-05-01T12:09:48Z</time>
      </trkpt>
      <trkpt lat="45.72079" lon="3.54483">
        <ele>454.8</ele>
        <time>2024-05-01T12:09:49Z</time>
      </trkpt>
      <trkpt lat="45.72078" lon="3.54487">
        <ele>455</ele>
        <time>2024-05-01T12:09:50Z</time>
      </trkpt>
      <trkpt lat="45.72077" lon="3.5449">
        <ele>455.2</ele>
        <time>2024-05-01T12:09:51Z</time>
      </trkpt>
      <trkpt lat="45.72076" lon="3.54494">
        <ele>455.4</ele>
        <time>2024-05-01T12:09:52Z</time>
      </trkpt>
      <trkpt lat="45.72075" lon="3.54498">
        <ele>455.6</ele>
        <time>2024-05-01T12:09:53Z</time>
      </trkpt>
      <trkpt lat="45.72075" lon="3.54501">
        <ele>455.8</ele>
        <time>2024-05-01T12:09:54Z</time>
      </trkpt>
      <trkpt lat="45.72074" lon="3.54505">
        <ele>456.2</ele>
        <time>2024-05-01T12:09:55Z</time>
      </trkpt>
      <trkpt lat="45.72073" lon="3.54509">
        <ele>456.4</ele>
        <time>2024-05-01T12:09:56Z</time>
      </trkpt>
      <trkpt lat="45.72072" lon="3.54513">
        <ele>456.6</ele>
        <time>2024-05-01T12:09:57Z</time>
      </trkpt>
      <trkpt lat="45.72072" lon="3.54516">
        <ele>456.8</ele>
        <time>2024-05-01T12:09:58Z</time>
      </trkpt>
      <trkpt lat="45.72072" lon="3.5452">
        <ele>457</ele>
        <time>2024-05-01T12:09:59Z</time>
      </trkpt>
      <trkpt lat="45.72071" lon="3.54524">
        <ele>457.2</ele>
        <time>2024-05-01T12:10:00Z</time>
      </trkpt>
      <trkpt lat="45.72071" lon="3.54528">
        <ele>457.4</ele>
        <time>2024-05-01T12:10:01Z</time>
      </trkpt>
      <trkpt lat="45.72071" lon="3.54532">
        <ele>457.8</ele>
        <time>2024-05-01T12:10:02Z</time>
      </trkpt>
      <trkpt lat="45.7207" lon="3.54536">
        <ele>458</ele>
        <time>2024-05-01T12:10:03Z</time>
      </trkpt>
      <trkpt lat="45.7207" lon="3.5454">
        <ele>458.2</ele>
        <time>2024-05-01T12:10:04Z</time>
      </trkpt>
      <trkpt lat="45.7207" lon="3.54544">
        <ele>458.4</ele>
        <time>2024-05-01T12:10:05Z</time>
      </trkpt>
      <trkpt lat="45.72069" lon="3.54552">
        <ele>458.6</ele>
        <time>2024-05-01T12:10:06Z</time>
      </trkpt>
      <trkpt lat="45.72069" lon="3.54552">
        <ele>458.8</ele>
        <time>2024-05-01T12:10:07Z</time>
      </trkpt>
      <trkpt lat="45.72069" lon="3.54557">
        <ele>459</ele>
        <time>2024-05-01T12:10:08Z</time>
      </trkpt>
      <trkpt lat="45.72069" lon="3.54562">
        <ele>459.2</ele>
        <time>2024-05-01T12:10:09Z</time>
      </trkpt>
      <trkpt lat="45.72068" lon="3.54566">
        <ele>459.4</ele>
        <time>2024-05-01T12:10:10Z</time>
      </trkpt>
      <trkpt lat="45.72068" lon="3.54571">
        <ele>459.6</ele>
        <time>2024-05-01T12:10:11Z</time>
      </trkpt>
      <trkpt lat="45.72068" lon="3.54576">
        <ele>459.8</ele>
        <time>2024-05-01T12:10:12Z</time>
      </trkpt>
      <trkpt lat="45.72067" lon="3.54581">
        <ele>460</ele>
        <time>2024-05-01T12:10:13Z</time>
      </trkpt>
      <trkpt lat="45.72067" lon="3.54585">
        <ele>460.2</ele>
        <time>2024-05-01T12:10:14Z</time>
      </trkpt>
      <trkpt lat="45.72067" lon="3.5459">
        <ele>460.4</ele>
        <time>2024-05-01T12:10:15Z</time>
      </trkpt>
      <trkpt lat="45.72066" lon="3.54595">
        <ele>460.6</ele>
        <time>2024-05-01T12:10:16Z</time>
      </trkpt>
      <trkpt lat="45.72066" lon="3.54599">
        <ele>460.8</ele>
        <time>2024-05-01T12:10:17Z</time>
      </trkpt>
      <trkpt lat="45.72066" lon="3.54604">
        <ele>461</ele>
        <time>2024-05-01T12:10:18Z</time>
      </trkpt>
      <trkpt lat="45.72065" lon="3.54609">
        <ele>461.2</ele>
        <time>2024-05-01T12:10:19Z</time>
      </trkpt>
      <trkpt lat="45.72064" lon="3.54613">
        <ele>461.4</ele>
        <time>2024-05-01T12:10:20Z</time>
      </trkpt>
      <trkpt lat="45.72063" lon="3.54618">
        <ele>461.6</ele>
        <time>2024-05-01T12:10:21Z</time>
      </trkpt>
      <trkpt lat="45.72062" lon="3.54623">
        <ele>461.6</ele>
        <time>2024-05-01T12:10:22Z</time>
      </trkpt>
      <trkpt lat="45.72061" lon="3.54628">
        <ele>461.8</ele>
        <time>2024-05-01T12:10:23Z</time>
      </trkpt>
      <trkpt lat="45.7206" lon="3.54633">
        <ele>462</ele>
        <time>2024-05-01T12:10:24Z</time>
      </trkpt>
      <trkpt lat="45.72059" lon="3.54639">
        <ele>462.2</ele>
        <time>2024-05-01T12:10:25Z</time>
      </trkpt>
      <trkpt lat="45.72058" lon="3.54644">
        <ele>462.2</ele>
        <time>2024-05-01T12:10:26Z</time>
      </trkpt>
      <trkpt lat="45.72057" lon="3.54651">
        <ele>462.4</ele>
        <time>2024-05-01T12:10:27Z</time>
      </trkpt>
      <trkpt lat="45.72055" lon="3.54657">
        <ele>462.6</ele>
        <time>2024-05-01T12:10:28Z</time>
      </trkpt>
      <trkpt lat="45.72054" lon="3.54664">
        <ele>462.6</ele>
        <time>2024-05-01T12:10:29Z</time>
      </trkpt>
      <trkpt lat="45.72053" lon="3.54671">
        <ele>462.8</ele>
        <time>2024-05-01T12:10:30Z</time>
      </trkpt>
      <trkpt lat="45.72051" lon="3.54678">
        <ele>462.8</ele>
        <time>2024-05-01T12:10:31Z</time>
      </trkpt>
      <trkpt lat="45.7205" lon="3.54686">
        <ele>463</ele>
        <time>2024-05-01T12:10:32Z</time>
      </trkpt>
      <trkpt lat="45.72048" lon="3.54694">
        <ele>463.2</ele>
        <time>2024-05-01T12:10:33Z</time>
      </trkpt>
      <trkpt lat="45.72047" lon="3.54702">
        <ele>463.2</ele>
        <time>2024-05-01T12:10:34Z</time>
      </trkpt>
      <trkpt lat="45.72045" lon="3.54711">
        <ele>463.4</ele>
        <time>2024-05-01T12:10:35Z</time>
      </trkpt>
      <trkpt lat="45.72044" lon="3.54719">
        <ele>463.4</ele>
        <time>2024-05-01T12:10:36Z</time>
      </trkpt>
      <trkpt lat="45.72043" lon="3.54728">
        <ele>463.6</ele>
        <time>2024-05-01T12:10:37Z</time>
      </trkpt>
      <trkpt lat="45.72042" lon="3.54736">
        <ele>463.6</ele>
        <time>2024-05-01T12:10:38Z</time>
      </trkpt>
      <trkpt lat="45.72041" lon="3.54744">
        <ele>463.6</ele>
        <time>2024-05-01T12:10:39Z</time>
      </trkpt>
      <trkpt lat="45.7204" lon="3.54753">
        <ele>463.8</ele>
        <time>2024-05-01T12:10:40Z</time>
      </trkpt>
      <trkpt lat="45.72039" lon="3.54761">
        <ele>464</ele>
        <time>2024-05-01T12:10:41Z</time>
      </trkpt>
      <trkpt lat="45.72038" lon="3.54769">
        <ele>464</ele>
        <time>2024-05-01T12:10:42Z</time>
      </trkpt>
      <trkpt lat="45.72037" lon="3.54776">
        <ele>464</ele>
        <time>2024-05-01T12:10:43Z</time>
      </trkpt>
      <trkpt lat="45.72037" lon="3.54783">
        <ele>464.2</ele>
        <time>2024-05-01T12:10:44Z</time>
      </trkpt>
      <trkpt lat="45.72036" lon="3.5479">
        <ele>464.2</ele>
        <time>2024-05-01T12:10:45Z</time>
      </trkpt>
      <trkpt lat="45.72032" lon="3.54795">
        <ele>464.4</ele>
        <time>2024-05-01T12:10:46Z</time>
      </trkpt>
      <trkpt lat="45.72028" lon="3.54799">
        <ele>464.4</ele>
        <time>2024-05-01T12:10:47Z</time>
      </trkpt>
      <trkpt lat="45.72024" lon="3.54804">
        <ele>464.4</ele>
        <time>2024-05-01T12:10:48Z</time>
      </trkpt>
      <trkpt lat="45.7202" lon="3.54808">
        <ele>464.4</ele>
        <time>2024-05-01T12:10:49Z</time>
      </trkpt>
      <trkpt lat="45.72016" lon="3.54813">
        <ele>464.6</ele>
        <time>2024-05-01T12:10:50Z</time>
      </trkpt>
      <trkpt lat="45.72011" lon="3.54817">
        <ele>464.6</ele>
        <time>2024-05-01T12:10:51Z</time>
      </trkpt>
      <trkpt lat="45.72007" lon="3.54822">
        <ele>464.6</ele>
        <time>2024-05-01T12:10:52Z</time>
      </trkpt>
      <trkpt lat="45.72003" lon="3.54827">
        <ele>464.8</ele>
        <time>2024-05-01T12:10:53Z</time>
      </trkpt>
      <trkpt lat="45.71998" lon="3.54832">
        <ele>464.8</ele>
        <time>2024-05-01T12:10:54Z</time>
      </trkpt>
      <trkpt lat="45.71994" lon="3.54836">
        <ele>464.8</ele>
        <time>2024-05-01T12:10:55Z</time>
      </trkpt>
      <trkpt lat="45.71989" lon="3.54841">
        <ele>464.8</ele>
        <time>2024-05-01T12:10:56Z</time>
      </trkpt>
      <trkpt lat="45.71984" lon="3.54846">
        <ele>465</ele>
        <time>2024-05-01T12:10:57Z</time>
      </trkpt>
      <trkpt lat="45.7198" lon="3.54851">
        <ele>465</ele>
        <time>2024-05-01T12:10:58Z</time>
      </trkpt>
      <trkpt lat="45.71975" lon="3.54856">
        <ele>465</ele>
        <time>2024-05-01T12:10:59Z</time>
      </trkpt>
      <trkpt lat="45.7197" lon="3.54861">
        <ele>465</ele>
        <time>2024-05-01T12:11:00Z</time>
      </trkpt>
      <trkpt lat="45.71965" lon="3.54866">
        <ele>465</ele>
        <time>2024-05-01T12:11:01Z</time>
      </trkpt>
      <trkpt lat="45.71954" lon="3.54875">
        <ele>465</ele>
        <time>2024-05-01T12:11:02Z</time>
      </trkpt>
      <trkpt lat="45.71954" lon="3.54875">
        <ele>465</ele>
        <time>2024-05-01T12:11:03Z</time>
      </trkpt>
      <trkpt lat="45.71947" lon="3.54877">
        <ele>465.2</ele>
        <time>2024-05-01T12:11:04Z</time>
      </trkpt>
      <trkpt lat="45.71941" lon="3.54875">
        <ele>465.2</ele>
        <time>2024-05-01T12:11:05Z</time>
      </trkpt>
      <trkpt lat="45.71928" lon="3.54867">
        <ele>465</ele>
        <time>2024-05-01T12:11:06Z</time>
      </trkpt>
      <trkpt lat="45.71928" lon="3.54867">
        <ele>465</ele>
        <time>2024-05-01T12:11:07Z</time>
      </trkpt>
      <trkpt lat="45.71923" lon="3.54861">
        <ele>465</ele>
        <time>2024-05-01T12:11:08Z</time>
      </trkpt>
      <trkpt lat="45.7192" lon="3.54852">
        <ele>465</ele>
        <time>2024-05-01T12:11:09Z</time>
      </trkpt>
      <trkpt lat="45.71919" lon="3.54843">
        <ele>465</ele>
        <time>2024-05-01T12:11:10Z</time>
      </trkpt>
      <trkpt lat="45.71918" lon="3.54834">
        <ele>465</ele>
        <time>2024-05-01T12:11:11Z</time>
      </trkpt>
      <trkpt lat="45.71916" lon="3.54826">
        <ele>465</ele>
        <time>2024-05-01T12:11:12Z</time>
      </trkpt>
      <trkpt lat="45.71915" lon="3.54817">
        <ele>465</ele>
        <time>2024-05-01T12:11:13Z</time>
      </trkpt>
      <trkpt lat="45.71914" lon="3.54808">
        <ele>465.6</ele>
        <time>2024-05-01T12:11:14Z</time>
      </trkpt>
      <trkpt lat="45.71912" lon="3.54798">
        <ele>465.2</ele>
        <time>2024-05-01T12:11:15Z</time>
      </trkpt>
      <trkpt lat="45.71909" lon="3.54788">
        <ele>465</ele>
        <time>2024-05-01T12:11:16Z</time>
      </trkpt>
      <trkpt lat="45.71905" lon="3.54779">
        <ele>464.6</ele>
        <time>2024-05-01T12:11:17Z</time>
      </trkpt>
      <trkpt lat="45.71901" lon="3.5477">
        <ele>464.2</ele>
        <time>2024-05-01T12:11:18Z</time>
      </trkpt>
      <trkpt lat="45.71896" lon="3.5476">
        <ele>464.6</ele>
        <time>2024-05-01T12:11:19Z</time>
      </trkpt>
      <trkpt lat="45.71893" lon="3.5475">
        <ele>464.6</ele>
        <time>2024-05-01T12:11:20Z</time>
      </trkpt>
      <trkpt lat="45.71891" lon="3.5474">
        <ele>464.6</ele>
        <time>2024-05-01T12:11:21Z</time>
      </trkpt>
      <trkpt lat="45.71888" lon="3.5473">
        <ele>464.4</ele>
        <time>2024-05-01T12:11:22Z</time>
      </trkpt>
      <trkpt lat="45.71883" lon="3.54722">
        <ele>464.4</ele>
        <time>2024-05-01T12:11:23Z</time>
      </trkpt>
      <trkpt lat="45.71877" lon="3.54715">
        <ele>464.2</ele>
        <time>2024-05-01T12:11:24Z</time>
      </trkpt>
      <trkpt lat="45.71872" lon="3.54707">
        <ele>464.2</ele>
        <time>2024-05-01T12:11:25Z</time>
      </trkpt>
      <trkpt lat="45.71866" lon="3.547">
        <ele>464</ele>
        <time>2024-05-01T12:11:26Z</time>
      </trkpt>
      <trkpt lat="45.71861" lon="3.54692">
        <ele>464</ele>
        <time>2024-05-01T12:11:27Z</time>
      </trkpt>
      <trkpt lat="45.71855" lon="3.54684">
        <ele>463.8</ele>
        <time>2024-05-01T12:11:28Z</time>
      </trkpt>
      <trkpt lat="45.71849" lon="3.54677">
        <ele>463.8</ele>
        <time>2024-05-01T12:11:29Z</time>
      </trkpt>
      <trkpt lat="45.71844" lon="3.54669">
        <ele>463.6</ele>
        <time>2024-05-01T12:11:30Z</time>
      </trkpt>
      <trkpt lat="45.71839" lon="3.5466">
        <ele>463.6</ele>
        <time>2024-05-01T12:11:31Z</time>
      </trkpt>
      <trkpt lat="45.71834" lon="3.54652">
        <ele>463.4</ele>
        <time>2024-05-01T12:11:32Z</time>
      </trkpt>
      <trkpt lat="45.71829" lon="3.54643">
        <ele>463.2</ele>
        <time>2024-05-01T12:11:33Z</time>
      </trkpt>
      <trkpt lat="45.71823" lon="3.54635">
        <ele>463.2</ele>
        <time>2024-05-01T12:11:34Z</time>
      </trkpt>
      <trkpt lat="45.71818" lon="3.54626">
        <ele>463</ele>
        <time>2024-05-01T12:11:35Z</time>
      </trkpt>
      <trkpt lat="45.71813" lon="3.54618">
        <ele>462.8</ele>
        <time>2024-05-01T12:11:36Z</time>
      </trkpt>
      <trkpt lat="45.71806" lon="3.54611">
        <ele>462.6</ele>
        <time>2024-05-01T12:11:37Z</time>
      </trkpt>
      <trkpt lat="45.71799" lon="3.54607">
        <ele>462.6</ele>
        <time>2024-05-01T12:11:38Z</time>
      </trkpt>
      <trkpt lat="45.71792" lon="3.54605">
        <ele>462.4</ele>
        <time>2024-05-01T12:11:39Z</time>
      </trkpt>
      <trkpt lat="45.71778" lon="3.54605">
        <ele>462.2</ele>
        <time>2024-05-01T12:11:40Z</time>
      </trkpt>
      <trkpt lat="45.71778" lon="3.54605">
        <ele>462</ele>
        <time>2024-05-01T12:11:41Z</time>
      </trkpt>
      <trkpt lat="45.71771" lon="3.54605">
        <ele>462</ele>
        <time>2024-05-01T12:11:42Z</time>
      </trkpt>
      <trkpt lat="45.71763" lon="3.54605">
        <ele>461.8</ele>
        <time>2024-05-01T12:11:43Z</time>
      </trkpt>
      <trkpt lat="45.71749" lon="3.54605">
        <ele>461.6</ele>
        <time>2024-05-01T12:11:44Z</time>
      </trkpt>
      <trkpt lat="45.71749" lon="3.54605">
        <ele>461.4</ele>
        <time>2024-05-01T12:11:45Z</time>
      </trkpt>
      <trkpt lat="45.71742" lon="3.54605">
        <ele>461.2</ele>
        <time>2024-05-01T12:11:46Z</time>
      </trkpt>
      <trkpt lat="45.71736" lon="3.54603">
        <ele>461</ele>
        <time>2024-05-01T12:11:47Z</time>
      </trkpt>
      <trkpt lat="45.71731" lon="3.546">
        <ele>460.8</ele>
        <time>2024-05-01T12:11:48Z</time>
      </trkpt>
      <trkpt lat="45.7172" lon="3.54594">
        <ele>460.8</ele>
        <time>2024-05-01T12:11:49Z</time>
      </trkpt>
      <trkpt lat="45.7172" lon="3.54594">
        <ele>460.6</ele>
        <time>2024-05-01T12:11:50Z</time>
      </trkpt>
      <trkpt lat="45.71716" lon="3.54587">
        <ele>460.4</ele>
        <time>2024-05-01T12:11:51Z</time>
      </trkpt>
      <trkpt lat="45.71712" lon="3.54579">
        <ele>460.2</ele>
        <time>2024-05-01T12:11:52Z</time>
      </trkpt>
      <trkpt lat="45.71705" lon="3.54564">
        <ele>460</ele>
        <time>2024-05-01T12:11:53Z</time>
      </trkpt>
      <trkpt lat="45.71705" lon="3.54564">
        <ele>459.8</ele>
        <time>2024-05-01T12:11:54Z</time>
      </trkpt>
      <trkpt lat="45.71702" lon="3.54555">
        <ele>459.6</ele>
        <time>2024-05-01T12:11:55Z</time>
      </trkpt>
      <trkpt lat="45.717" lon="3.54547">
        <ele>459.4</ele>
        <time>2024-05-01T12:11:56Z</time>
      </trkpt>
      <trkpt lat="45.71697" lon="3.54523">
        <ele>459.2</ele>
        <time>2024-05-01T12:11:57Z</time>
      </trkpt>
      <trkpt lat="45.71697" lon="3.54523">
        <ele>459</ele>
        <time>2024-05-01T12:11:58Z</time>
      </trkpt>
      <trkpt lat="45.71701" lon="3.54506">
        <ele>458.8</ele>
        <time>2024-05-01T12:11:59Z</time>
      </trkpt>
      <trkpt lat="45.71708" lon="3.54496">
        <ele>458.6</ele>
        <time>2024-05-01T12:12:00Z</time>
      </trkpt>
      <trkpt lat="45.71714" lon="3.54489">
        <ele>458.4</ele>
        <time>2024-05-01T12:12:01Z</time>
      </trkpt>
      <trkpt lat="45.7172" lon="3.54483">
        <ele>458.4</ele>
        <time>2024-05-01T12:12:02Z</time>
      </trkpt>
      <trkpt lat="45.71725" lon="3.54478">
        <ele>458.2</ele>
        <time>2024-05-01T12:12:03Z</time>
      </trkpt>
      <trkpt lat="45.7173" lon="3.54473">
        <ele>458.2</ele>
        <time>2024-05-01T12:12:04Z</time>
      </trkpt>
      <trkpt lat="45.71735" lon="3.54468">
        <ele>458.2</ele>
        <time>2024-05-01T12:12:05Z</time>
      </trkpt>
      <trkpt lat="45.71738" lon="3.54463">
        <ele>458</ele>
        <time>2024-05-01T12:12:06Z</time>
      </trkpt>
      <trkpt lat="45.71741" lon="3.54456">
        <ele>457.8</ele>
        <time>2024-05-01T12:12:07Z</time>
      </trkpt>
      <trkpt lat="45.71743" lon="3.5445">
        <ele>457.8</ele>
        <time>2024-05-01T12:12:08Z</time>
      </trkpt>
      <trkpt lat="45.71744" lon="3.54442">
        <ele>457.6</ele>
        <time>2024-05-01T12:12:09Z</time>
      </trkpt>
      <trkpt lat="45.71743" lon="3.54429">
        <ele>457.6</ele>
        <time>2024-05-01T12:12:10Z</time>
      </trkpt>
      <trkpt lat="45.7174" lon="3.54418">
        <ele>457.4</ele>
        <time>2024-05-01T12:12:11Z</time>
      </trkpt>
      <trkpt lat="45.71738" lon="3.54407">
        <ele>457.2</ele>
        <time>2024-05-01T12:12:12Z</time>
      </trkpt>
      <trkpt lat="45.71735" lon="3.54396">
        <ele>457.2</ele>
        <time>2024-05-01T12:12:13Z</time>
      </trkpt>
      <trkpt lat="45.71732" lon="3.54386">
        <ele>457.2</ele>
        <time>2024-05-01T12:12:14Z</time>
      </trkpt>
      <trkpt lat="45.71729" lon="3.54376">
        <ele>457</ele>
        <time>2024-05-01T12:12:15Z</time>
      </trkpt>
      <trkpt lat="45.71727" lon="3.54366">
        <ele>457</ele>
        <time>2024-05-01T12:12:16Z</time>
      </trkpt>
      <trkpt lat="45.71725" lon="3.54356">
        <ele>456.8</ele>
        <time>2024-05-01T12:12:17Z</time>
      </trkpt>
      <trkpt lat="45.71722" lon="3.54347">
        <ele>456.8</ele>
        <time>2024-05-01T12:12:18Z</time>
      </trkpt>
      <trkpt lat="45.7172" lon="3.54338">
        <ele>456.6</ele>
        <time>2024-05-01T12:12:19Z</time>
      </trkpt>
      <trkpt lat="45.71717" lon="3.54329">
        <ele>456.6</ele>
        <time>2024-05-01T12:12:20Z</time>
      </trkpt>
      <trkpt lat="45.71714" lon="3.54321">
        <ele>456.4</ele>
        <time>2024-05-01T12:12:21Z</time>
      </trkpt>
      <trkpt lat="45.7171" lon="3.54314">
        <ele>456.4</ele>
        <time>2024-05-01T12:12:22Z</time>
      </trkpt>
      <trkpt lat="45.71707" lon="3.54306">
        <ele>456.4</ele>
        <time>2024-05-01T12:12:23Z</time>
      </trkpt>
      <trkpt lat="45.71703" lon="3.54298">
        <ele>456.4</ele>
        <time>2024-05-01T12:12:24Z</time>
      </trkpt>
      <trkpt lat="45.717" lon="3.5429">
        <ele>456.2</ele>
        <time>2024-05-01T12:12:25Z</time>
      </trkpt>
      <trkpt lat="45.71696" lon="3.54282">
        <ele>456.2</ele>
        <time>2024-05-01T12:12:26Z</time>
      </trkpt>
      <trkpt lat="45.71693" lon="3.54274">
        <ele>456.2</ele>
        <time>2024-05-01T12:12:27Z</time>
      </trkpt>
      <trkpt lat="45.71689" lon="3.54267">
        <ele>456.2</ele>
        <time>2024-05-01T12:12:28Z</time>
      </trkpt>
      <trkpt lat="45.71686" lon="3.54259">
        <ele>456.2</ele>
        <time>2024-05-01T12:12:29Z</time>
      </trkpt>
      <trkpt lat="45.71683" lon="3.54252">
        <ele>456</ele>
        <time>2024-05-01T12:12:30Z</time>
      </trkpt>
      <trkpt lat="45.71678" lon="3.54246">
        <ele>456</ele>
        <time>2024-05-01T12:12:31Z</time>
      </trkpt>
      <trkpt lat="45.71673" lon="3.54242">
        <ele>455.8</ele>
        <time>2024-05-01T12:12:32Z</time>
      </trkpt>
      <trkpt lat="45.71668" lon="3.54237">
        <ele>455.8</ele>
        <time>2024-05-01T12:12:33Z</time>
      </trkpt>
      <trkpt lat="45.71662" lon="3.54233">
        <ele>455.6</ele>
        <time>2024-05-01T12:12:34Z</time>
      </trkpt>
      <trkpt lat="45.71657" lon="3.54228">
        <ele>455.6</ele>
        <time>2024-05-01T12:12:35Z</time>
      </trkpt>
      <trkpt lat="45.71652" lon="3.54223">
        <ele>455.4</ele>
        <time>2024-05-01T12:12:36Z</time>
      </trkpt>
      <trkpt lat="45.71647" lon="3.54219">
        <ele>455.2</ele>
        <time>2024-05-01T12:12:37Z</time>
      </trkpt>
      <trkpt lat="45.71642" lon="3.54213">
        <ele>455.2</ele>
        <time>2024-05-01T12:12:38Z</time>
      </trkpt>
      <trkpt lat="45.71638" lon="3.54206">
        <ele>455</ele>
        <time>2024-05-01T12:12:39Z</time>
      </trkpt>
      <trkpt lat="45.71634" lon="3.542">
        <ele>455</ele>
        <time>2024-05-01T12:12:40Z</time>
      </trkpt>
      <trkpt lat="45.7163" lon="3.54193">
        <ele>455</ele>
        <time>2024-05-01T12:12:41Z</time>
      </trkpt>
      <trkpt lat="45.71626" lon="3.54186">
        <ele>455</ele>
        <time>2024-05-01T12:12:42Z</time>
      </trkpt>
      <trkpt lat="45.71622" lon="3.5418">
        <ele>455</ele>
        <time>2024-05-01T12:12:43Z</time>
      </trkpt>
      <trkpt lat="45.71618" lon="3.54174">
        <ele>455</ele>
        <time>2024-05-01T12:12:44Z</time>
      </trkpt>
      <trkpt lat="45.71613" lon="3.5417">
        <ele>455</ele>
        <time>2024-05-01T12:12:45Z</time>
      </trkpt>
      <trkpt lat="45.71608" lon="3.54167">
        <ele>454.8</ele>
        <time>2024-05-01T12:12:46Z</time>
      </trkpt>
      <trkpt lat="45.71602" lon="3.54164">
        <ele>454.8</ele>
        <time>2024-05-01T12:12:47Z</time>
      </trkpt>
      <trkpt lat="45.71597" lon="3.54161">
        <ele>454.8</ele>
        <time>2024-05-01T12:12:48Z</time>
      </trkpt>
      <trkpt lat="45.71591" lon="3.54158">
        <ele>454.8</ele>
        <time>2024-05-01T12:12:49Z</time>
      </trkpt>
      <trkpt lat="45.71586" lon="3.54155">
        <ele>455.2</ele>
        <time>2024-05-01T12:12:50Z</time>
      </trkpt>
      <trkpt lat="45.71576" lon="3.5415">
        <ele>454.6</ele>
        <time>2024-05-01T12:12:51Z</time>
      </trkpt>
      <trkpt lat="45.71576" lon="3.5415">
        <ele>455.2</ele>
        <time>2024-05-01T12:12:52Z</time>
      </trkpt>
      <trkpt lat="45.7157" lon="3.54146">
        <ele>455.4</ele>
        <time>2024-05-01T12:12:53Z</time>
      </trkpt>
      <trkpt lat="45.71565" lon="3.54141">
        <ele>455.8</ele>
        <time>2024-05-01T12:12:54Z</time>
      </trkpt>
      <trkpt lat="45.7156" lon="3.54137">
        <ele>455.8</ele>
        <time>2024-05-01T12:12:55Z</time>
      </trkpt>
      <trkpt lat="45.71555" lon="3.54133">
        <ele>455.8</ele>
        <time>2024-05-01T12:12:56Z</time>
      </trkpt>
      <trkpt lat="45.71549" lon="3.54129">
        <ele>455.8</ele>
        <time>2024-05-01T12:12:57Z</time>
      </trkpt>
      <trkpt lat="45.71544" lon="3.54125">
        <ele>455.8</ele>
        <time>2024-05-01T12:12:58Z</time>
      </trkpt>
      <trkpt lat="45.71539" lon="3.54121">
        <ele>456.2</ele>
        <time>2024-05-01T12:12:59Z</time>
      </trkpt>
      <trkpt lat="45.71536" lon="3.54116">
        <ele>456.2</ele>
        <time>2024-05-01T12:13:00Z</time>
      </trkpt>
      <trkpt lat="45.71532" lon="3.54109">
        <ele>456.2</ele>
        <time>2024-05-01T12:13:01Z</time>
      </trkpt>
      <trkpt lat="45.71529" lon="3.54102">
        <ele>456.4</ele>
        <time>2024-05-01T12:13:02Z</time>
      </trkpt>
      <trkpt lat="45.71527" lon="3.54094">
        <ele>455.8</ele>
        <time>2024-05-01T12:13:03Z</time>
      </trkpt>
      <trkpt lat="45.71525" lon="3.54086">
        <ele>455.8</ele>
        <time>2024-05-01T12:13:04Z</time>
      </trkpt>
      <trkpt lat="45.71524" lon="3.54079">
        <ele>455.8</ele>
        <time>2024-05-01T12:13:05Z</time>
      </trkpt>
      <trkpt lat="45.71523" lon="3.54071">
        <ele>455.8</ele>
        <time>2024-05-01T12:13:06Z</time>
      </trkpt>
      <trkpt lat="45.71522" lon="3.54063">
        <ele>455.8</ele>
        <time>2024-05-01T12:13:07Z</time>
      </trkpt>
      <trkpt lat="45.71522" lon="3.54055">
        <ele>455.8</ele>
        <time>2024-05-01T12:13:08Z</time>
      </trkpt>
      <trkpt lat="45.71522" lon="3.54046">
        <ele>456</ele>
        <time>2024-05-01T12:13:09Z</time>
      </trkpt>
      <trkpt lat="45.71521" lon="3.54038">
        <ele>456</ele>
        <time>2024-05-01T12:13:10Z</time>
      </trkpt>
      <trkpt lat="45.71521" lon="3.5403">
        <ele>456</ele>
        <time>2024-05-01T12:13:11Z</time>
      </trkpt>
      <trkpt lat="45.71521" lon="3.54023">
        <ele>456</ele>
        <time>2024-05-01T12:13:12Z</time>
      </trkpt>
      <trkpt lat="45.71521" lon="3.54015">
        <ele>456.2</ele>
        <time>2024-05-01T12:13:13Z</time>
      </trkpt>
      <trkpt lat="45.71521" lon="3.54007">
        <ele>456.2</ele>
        <time>2024-05-01T12:13:14Z</time>
      </trkpt>
      <trkpt lat="45.71521" lon="3.53999">
        <ele>456.2</ele>
        <time>2024-05-01T12:13:15Z</time>
      </trkpt>
      <trkpt lat="45.71522" lon="3.53991">
        <ele>456.4</ele>
        <time>2024-05-01T12:13:16Z</time>
      </trkpt>
      <trkpt lat="45.71522" lon="3.53983">
        <ele>456.4</ele>
        <time>2024-05-01T12:13:17Z</time>
      </trkpt>
      <trkpt lat="45.71522" lon="3.53975">
        <ele>456.4</ele>
        <time>2024-05-01T12:13:18Z</time>
      </trkpt>
      <trkpt lat="45.71524" lon="3.53966">
        <ele>456.6</ele>
        <time>2024-05-01T12:13:19Z</time>
      </trkpt>
      <trkpt lat="45.71527" lon="3.53959">
        <ele>456.6</ele>
        <time>2024-05-01T12:13:20Z</time>
      </trkpt>
      <trkpt lat="45.71531" lon="3.53953">
        <ele>456.6</ele>
        <time>2024-05-01T12:13:21Z</time>
      </trkpt>
      <trkpt lat="45.71534" lon="3.53946">
        <ele>456.6</ele>
        <time>2024-05-01T12:13:22Z</time>
      </trkpt>
      <trkpt lat="45.71538" lon="3.53939">
        <ele>456.6</ele>
        <time>2024-05-01T12:13:23Z</time>
      </trkpt>
      <trkpt lat="45.71542" lon="3.53932">
        <ele>456.8</ele>
        <time>2024-05-01T12:13:24Z</time>
      </trkpt>
      <trkpt lat="45.71547" lon="3.53926">
        <ele>456.8</ele>
        <time>2024-05-01T12:13:25Z</time>
      </trkpt>
      <trkpt lat="45.71552" lon="3.5392">
        <ele>456.8</ele>
        <time>2024-05-01T12:13:26Z</time>
      </trkpt>
      <trkpt lat="45.71557" lon="3.53914">
        <ele>456.8</ele>
        <time>2024-05-01T12:13:27Z</time>
      </trkpt>
      <trkpt lat="45.71562" lon="3.53907">
        <ele>456.8</ele>
        <time>2024-05-01T12:13:28Z</time>
      </trkpt>
      <trkpt lat="45.71568" lon="3.53901">
        <ele>456.6</ele>
        <time>2024-05-01T12:13:29Z</time>
      </trkpt>
      <trkpt lat="45.71573" lon="3.53895">
        <ele>456.6</ele>
        <time>2024-05-01T12:13:30Z</time>
      </trkpt>
      <trkpt lat="45.71579" lon="3.53888">
        <ele>456.4</ele>
        <time>2024-05-01T12:13:31Z</time>
      </trkpt>
      <trkpt lat="45.71585" lon="3.53881">
        <ele>456.4</ele>
        <time>2024-05-01T12:13:32Z</time>
      </trkpt>
      <trkpt lat="45.7159" lon="3.53874">
        <ele>456.4</ele>
        <time>2024-05-01T12:13:33Z</time>
      </trkpt>
      <trkpt lat="45.71596" lon="3.53868">
        <ele>456.6</ele>
        <time>2024-05-01T12:13:34Z</time>
      </trkpt>
      <trkpt lat="45.71602" lon="3.53861">
        <ele>456.2</ele>
        <time>2024-05-01T12:13:35Z</time>
      </trkpt>
      <trkpt lat="45.71608" lon="3.53854">
        <ele>456</ele>
        <time>2024-05-01T12:13:36Z</time>
      </trkpt>
      <trkpt lat="45.71614" lon="3.53847">
        <ele>456.2</ele>
        <time>2024-05-01T12:13:37Z</time>
      </trkpt>
      <trkpt lat="45.7162" lon="3.5384">
        <ele>456</ele>
        <time>2024-05-01T12:13:38Z</time>
      </trkpt>
      <trkpt lat="45.71626" lon="3.53832">
        <ele>456</ele>
        <time>2024-05-01T12:13:39Z</time>
      </trkpt>
      <trkpt lat="45.71632" lon="3.53825">
        <ele>455.8</ele>
        <time>2024-05-01T12:13:40Z</time>
      </trkpt>
      <trkpt lat="45.71638" lon="3.53818">
        <ele>455.8</ele>
        <time>2024-05-01T12:13:41Z</time>
      </trkpt>
      <trkpt lat="45.71643" lon="3.53811">
        <ele>455.6</ele>
        <time>2024-05-01T12:13:42Z</time>
      </trkpt>
      <trkpt lat="45.71648" lon="3.53803">
        <ele>455.6</ele>
        <time>2024-05-01T12:13:43Z</time>
      </trkpt>
      <trkpt lat="45.7165" lon="3.53794">
        <ele>455.4</ele>
        <time>2024-05-01T12:13:44Z</time>
      </trkpt>
      <trkpt lat="45.71652" lon="3.53785">
        <ele>455.4</ele>
        <time>2024-05-01T12:13:45Z</time>
      </trkpt>
      <trkpt lat="45.71653" lon="3.53777">
        <ele>455.2</ele>
        <time>2024-05-01T12:13:46Z</time>
      </trkpt>
      <trkpt lat="45.71654" lon="3.53768">
        <ele>455.2</ele>
        <time>2024-05-01T12:13:47Z</time>
      </trkpt>
      <trkpt lat="45.71654" lon="3.53758">
        <ele>455</ele>
        <time>2024-05-01T12:13:48Z</time>
      </trkpt>
      <trkpt lat="45.71655" lon="3.53749">
        <ele>454.8</ele>
        <time>2024-05-01T12:13:49Z</time>
      </trkpt>
      <trkpt lat="45.71656" lon="3.53739">
        <ele>454.8</ele>
        <time>2024-05-01T12:13:50Z</time>
      </trkpt>
      <trkpt lat="45.71656" lon="3.53729">
        <ele>454.6</ele>
        <time>2024-05-01T12:13:51Z</time>
      </trkpt>
      <trkpt lat="45.71657" lon="3.5372">
        <ele>454.6</ele>
        <time>2024-05-01T12:13:52Z</time>
      </trkpt>
      <trkpt lat="45.71657" lon="3.5371">
        <ele>454.4</ele>
        <time>2024-05-01T12:13:53Z</time>
      </trkpt>
      <trkpt lat="45.71658" lon="3.537">
        <ele>454.2</ele>
        <time>2024-05-01T12:13:54Z</time>
      </trkpt>
      <trkpt lat="45.71659" lon="3.53689">
        <ele>454</ele>
        <time>2024-05-01T12:13:55Z</time>
      </trkpt>
      <trkpt lat="45.71659" lon="3.53679">
        <ele>453.8</ele>
        <time>2024-05-01T12:13:56Z</time>
      </trkpt>
      <trkpt lat="45.7166" lon="3.53668">
        <ele>453.8</ele>
        <time>2024-05-01T12:13:57Z</time>
      </trkpt>
      <trkpt lat="45.71659" lon="3.53658">
        <ele>453.6</ele>
        <time>2024-05-01T12:13:58Z</time>
      </trkpt>
      <trkpt lat="45.71658" lon="3.53648">
        <ele>453.4</ele>
        <time>2024-05-01T12:13:59Z</time>
      </trkpt>
      <trkpt lat="45.71657" lon="3.53637">
        <ele>453.4</ele>
        <time>2024-05-01T12:14:00Z</time>
      </trkpt>
      <trkpt lat="45.71656" lon="3.53627">
        <ele>453.2</ele>
        <time>2024-05-01T12:14:01Z</time>
      </trkpt>
      <trkpt lat="45.71654" lon="3.53616">
        <ele>453</ele>
        <time>2024-05-01T12:14:02Z</time>
      </trkpt>
      <trkpt lat="45.71651" lon="3.53607">
        <ele>452.8</ele>
        <time>2024-05-01T12:14:03Z</time>
      </trkpt>
      <trkpt lat="45.71648" lon="3.53596">
        <ele>452.6</ele>
        <time>2024-05-01T12:14:04Z</time>
      </trkpt>
      <trkpt lat="45.71643" lon="3.53586">
        <ele>452.4</ele>
        <time>2024-05-01T12:14:05Z</time>
      </trkpt>
      <trkpt lat="45.71637" lon="3.53579">
        <ele>452.4</ele>
        <time>2024-05-01T12:14:06Z</time>
      </trkpt>
      <trkpt lat="45.7163" lon="3.53571">
        <ele>452.2</ele>
        <time>2024-05-01T12:14:07Z</time>
      </trkpt>
      <trkpt lat="45.71624" lon="3.53563">
        <ele>452</ele>
        <time>2024-05-01T12:14:08Z</time>
      </trkpt>
      <trkpt lat="45.71618" lon="3.53555">
        <ele>451.6</ele>
        <time>2024-05-01T12:14:09Z</time>
      </trkpt>
      <trkpt lat="45.71613" lon="3.53548">
        <ele>451.4</ele>
        <time>2024-05-01T12:14:10Z</time>
      </trkpt>
      <trkpt lat="45.71607" lon="3.53541">
        <ele>451.4</ele>
        <time>2024-05-01T12:14:11Z</time>
      </trkpt>
      <trkpt lat="45.71602" lon="3.53535">
        <ele>451.2</ele>
        <time>2024-05-01T12:14:12Z</time>
      </trkpt>
      <trkpt lat="45.71595" lon="3.5353">
        <ele>451</ele>
        <time>2024-05-01T12:14:13Z</time>
      </trkpt>
      <trkpt lat="45.71589" lon="3.53525">
        <ele>450.8</ele>
        <time>2024-05-01T12:14:14Z</time>
      </trkpt>
      <trkpt lat="45.71583" lon="3.53522">
        <ele>450.6</ele>
        <time>2024-05-01T12:14:15Z</time>
      </trkpt>
      <trkpt lat="45.71577" lon="3.53523">
        <ele>450.2</ele>
        <time>2024-05-01T12:14:16Z</time>
      </trkpt>
      <trkpt lat="45.71571" lon="3.53523">
        <ele>450</ele>
        <time>2024-05-01T12:14:17Z</time>
      </trkpt>
      <trkpt lat="45.71564" lon="3.53524">
        <ele>450</ele>
        <time>2024-05-01T12:14:18Z</time>
      </trkpt>
      <trkpt lat="45.71558" lon="3.53525">
        <ele>449.8</ele>
        <time>2024-05-01T12:14:19Z</time>
      </trkpt>
      <trkpt lat="45.71552" lon="3.53525">
        <ele>449.4</ele>
        <time>2024-05-01T12:14:20Z</time>
      </trkpt>
      <trkpt lat="45.71546" lon="3.53528">
        <ele>449.2</ele>
        <time>2024-05-01T12:14:21Z</time>
      </trkpt>
      <trkpt lat="45.71542" lon="3.53531">
        <ele>449</ele>
        <time>2024-05-01T12:14:22Z</time>
      </trkpt>
      <trkpt lat="45.71538" lon="3.53534">
        <ele>448.8</ele>
        <time>2024-05-01T12:14:23Z</time>
      </trkpt>
      <trkpt lat="45.71535" lon="3.53537">
        <ele>448.6</ele>
        <time>2024-05-01T12:14:24Z</time>
      </trkpt>
      <trkpt lat="45.71533" lon="3.53538">
        <ele>448.4</ele>
        <time>2024-05-01T12:14:25Z</time>
      </trkpt>
      <trkpt lat="45.71532" lon="3.53539">
        <ele>448.2</ele>
        <time>2024-05-01T12:14:26Z</time>
      </trkpt>
      <trkpt lat="45.71531" lon="3.5354">
        <ele>448</ele>
        <time>2024-05-01T12:14:27Z</time>
      </trkpt>
      <trkpt lat="45.71525" lon="3.53536">
        <ele>447.8</ele>
        <time>2024-05-01T12:14:28Z</time>
      </trkpt>
      <trkpt lat="45.71525" lon="3.53534">
        <ele>447.6</ele>
        <time>2024-05-01T12:14:29Z</time>
      </trkpt>
      <trkpt lat="45.71525" lon="3.5353">
        <ele>447.2</ele>
        <time>2024-05-01T12:14:30Z</time>
      </trkpt>
      <trkpt lat="45.71525" lon="3.53524">
        <ele>447</ele>
        <time>2024-05-01T12:14:31Z</time>
      </trkpt>
      <trkpt lat="45.71525" lon="3.53518">
        <ele>446.8</ele>
        <time>2024-05-01T12:14:32Z</time>
      </trkpt>
      <trkpt lat="45.71523" lon="3.53509">
        <ele>446.6</ele>
        <time>2024-05-01T12:14:33Z</time>
      </trkpt>
      <trkpt lat="45.71521" lon="3.53501">
        <ele>446.6</ele>
        <time>2024-05-01T12:14:34Z</time>
      </trkpt>
      <trkpt lat="45.7152" lon="3.53493">
        <ele>446.4</ele>
        <time>2024-05-01T12:14:35Z</time>
      </trkpt>
      <trkpt lat="45.71518" lon="3.53485">
        <ele>446.2</ele>
        <time>2024-05-01T12:14:36Z</time>
      </trkpt>
      <trkpt lat="45.71516" lon="3.53477">
        <ele>446</ele>
        <time>2024-05-01T12:14:37Z</time>
      </trkpt>
      <trkpt lat="45.71514" lon="3.53468">
        <ele>445.8</ele>
        <time>2024-05-01T12:14:38Z</time>
      </trkpt>
      <trkpt lat="45.71512" lon="3.5346">
        <ele>445.6</ele>
        <time>2024-05-01T12:14:39Z</time>
      </trkpt>
      <trkpt lat="45.7151" lon="3.53452">
        <ele>445.6</ele>
        <time>2024-05-01T12:14:40Z</time>
      </trkpt>
      <trkpt lat="45.71508" lon="3.53444">
        <ele>445.4</ele>
        <time>2024-05-01T12:14:41Z</time>
      </trkpt>
      <trkpt lat="45.71506" lon="3.53436">
        <ele>445.2</ele>
        <time>2024-05-01T12:14:42Z</time>
      </trkpt>
      <trkpt lat="45.71504" lon="3.53428">
        <ele>445</ele>
        <time>2024-05-01T12:14:43Z</time>
      </trkpt>
      <trkpt lat="45.71502" lon="3.5342">
        <ele>444.8</ele>
        <time>2024-05-01T12:14:44Z</time>
      </trkpt>
      <trkpt lat="45.715" lon="3.53412">
        <ele>444.8</ele>
        <time>2024-05-01T12:14:45Z</time>
      </trkpt>
      <trkpt lat="45.71498" lon="3.53406">
        <ele>444.6</ele>
        <time>2024-05-01T12:14:46Z</time>
      </trkpt>
      <trkpt lat="45.71497" lon="3.53399">
        <ele>444.6</ele>
        <time>2024-05-01T12:14:47Z</time>
      </trkpt>
      <trkpt lat="45.71496" lon="3.53394">
        <ele>444.4</ele>
        <time>2024-05-01T12:14:48Z</time>
      </trkpt>
      <trkpt lat="45.71495" lon="3.5339">
        <ele>444.2</ele>
        <time>2024-05-01T12:14:49Z</time>
      </trkpt>
      <trkpt lat="45.71494" lon="3.53386">
        <ele>444.2</ele>
        <time>2024-05-01T12:14:50Z</time>
      </trkpt>
      <trkpt lat="45.71493" lon="3.53382">
        <ele>444</ele>
        <time>2024-05-01T12:14:51Z</time>
      </trkpt>
      <trkpt lat="45.71492" lon="3.53378">
        <ele>443.8</ele>
        <time>2024-05-01T12:14:52Z</time>
      </trkpt>
      <trkpt lat="45.71492" lon="3.53375">
        <ele>443.6</ele>
        <time>2024-05-01T12:14:53Z</time>
      </trkpt>
      <trkpt lat="45.71491" lon="3.53371">
        <ele>443.4</ele>
        <time>2024-05-01T12:14:54Z</time>
      </trkpt>
      <trkpt lat="45.7149" lon="3.53366">
        <ele>443.2</ele>
        <time>2024-05-01T12:14:55Z</time>
      </trkpt>
      <trkpt lat="45.71489" lon="3.53362">
        <ele>443.2</ele>
        <time>2024-05-01T12:14:56Z</time>
      </trkpt>
      <trkpt lat="45.71488" lon="3.53359">
        <ele>443</ele>
        <time>2024-05-01T12:14:57Z</time>
      </trkpt>
      <trkpt lat="45.71488" lon="3.53355">
        <ele>442.8</ele>
        <time>2024-05-01T12:14:58Z</time>
      </trkpt>
      <trkpt lat="45.71488" lon="3.53352">
        <ele>442.6</ele>
        <time>2024-05-01T12:14:59Z</time>
      </trkpt>
      <trkpt lat="45.71488" lon="3.53348">
        <ele>442.4</ele>
        <time>2024-05-01T12:15:00Z</time>
      </trkpt>
      <trkpt lat="45.71488" lon="3.53344">
        <ele>442.4</ele>
        <time>2024-05-01T12:15:01Z</time>
      </trkpt>
      <trkpt lat="45.71488" lon="3.5334">
        <ele>442.2</ele>
        <time>2024-05-01T12:15:02Z</time>
      </trkpt>
      <trkpt lat="45.71488" lon="3.53337">
        <ele>442</ele>
        <time>2024-05-01T12:15:03Z</time>
      </trkpt>
      <trkpt lat="45.71489" lon="3.53331">
        <ele>442</ele>
        <time>2024-05-01T12:15:04Z</time>
      </trkpt>
      <trkpt lat="45.7149" lon="3.53327">
        <ele>442</ele>
        <time>2024-05-01T12:15:05Z</time>
      </trkpt>
      <trkpt lat="45.71492" lon="3.53324">
        <ele>442</ele>
        <time>2024-05-01T12:15:06Z</time>
      </trkpt>
      <trkpt lat="45.71493" lon="3.53321">
        <ele>442</ele>
        <time>2024-05-01T12:15:07Z</time>
      </trkpt>
      <trkpt lat="45.71494" lon="3.53318">
        <ele>442</ele>
        <time>2024-05-01T12:15:08Z</time>
      </trkpt>
      <trkpt lat="45.71494" lon="3.53316">
        <ele>441.8</ele>
        <time>2024-05-01T12:15:09Z</time>
      </trkpt>
      <trkpt lat="45.71495" lon="3.53313">
        <ele>442</ele>
        <time>2024-05-01T12:15:10Z</time>
      </trkpt>
      <trkpt lat="45.71496" lon="3.5331">
        <ele>442</ele>
        <time>2024-05-01T12:15:11Z</time>
      </trkpt>
      <trkpt lat="45.71498" lon="3.53307">
        <ele>441.8</ele>
        <time>2024-05-01T12:15:12Z</time>
      </trkpt>
      <trkpt lat="45.71499" lon="3.53302">
        <ele>442</ele>
        <time>2024-05-01T12:15:13Z</time>
      </trkpt>
      <trkpt lat="45.71499" lon="3.53298">
        <ele>441.8</ele>
        <time>2024-05-01T12:15:14Z</time>
      </trkpt>
      <trkpt lat="45.71499" lon="3.53293">
        <ele>441.6</ele>
        <time>2024-05-01T12:15:15Z</time>
      </trkpt>
      <trkpt lat="45.71499" lon="3.53289">
        <ele>441.4</ele>
        <time>2024-05-01T12:15:16Z</time>
      </trkpt>
      <trkpt lat="45.71499" lon="3.53285">
        <ele>441.2</ele>
        <time>2024-05-01T12:15:17Z</time>
      </trkpt>
      <trkpt lat="45.715" lon="3.53278">
        <ele>441</ele>
        <time>2024-05-01T12:15:18Z</time>
      </trkpt>
      <trkpt lat="45.71502" lon="3.53273">
        <ele>440.8</ele>
        <time>2024-05-01T12:15:19Z</time>
      </trkpt>
      <trkpt lat="45.71505" lon="3.53267">
        <ele>440.6</ele>
        <time>2024-05-01T12:15:20Z</time>
      </trkpt>
      <trkpt lat="45.71507" lon="3.53261">
        <ele>440.6</ele>
        <time>2024-05-01T12:15:21Z</time>
      </trkpt>
      <trkpt lat="45.71509" lon="3.53254">
        <ele>440.6</ele>
        <time>2024-05-01T12:15:22Z</time>
      </trkpt>
      <trkpt lat="45.71511" lon="3.53249">
        <ele>440.6</ele>
        <time>2024-05-01T12:15:23Z</time>
      </trkpt>
      <trkpt lat="45.71515" lon="3.53243">
        <ele>440.6</ele>
        <time>2024-05-01T12:15:24Z</time>
      </trkpt>
      <trkpt lat="45.71518" lon="3.53239">
        <ele>440.6</ele>
        <time>2024-05-01T12:15:25Z</time>
      </trkpt>
      <trkpt lat="45.71521" lon="3.53236">
        <ele>440.6</ele>
        <time>2024-05-01T12:15:26Z</time>
      </trkpt>
      <trkpt lat="45.71523" lon="3.53232">
        <ele>440.4</ele>
        <time>2024-05-01T12:15:27Z</time>
      </trkpt>
      <trkpt lat="45.71527" lon="3.53228">
        <ele>440.4</ele>
        <time>2024-05-01T12:15:28Z</time>
      </trkpt>
      <trkpt lat="45.7153" lon="3.53224">
        <ele>440.4</ele>
        <time>2024-05-01T12:15:29Z</time>
      </trkpt>
      <trkpt lat="45.71533" lon="3.5322">
        <ele>440.2</ele>
        <time>2024-05-01T12:15:30Z</time>
      </trkpt>
      <trkpt lat="45.71537" lon="3.53217">
        <ele>440.2</ele>
        <time>2024-05-01T12:15:31Z</time>
      </trkpt>
      <trkpt lat="45.71539" lon="3.53215">
        <ele>440</ele>
        <time>2024-05-01T12:15:32Z</time>
      </trkpt>
      <trkpt lat="45.71542" lon="3.53214">
        <ele>440</ele>
        <time>2024-05-01T12:15:33Z</time>
      </trkpt>
      <trkpt lat="45.71544" lon="3.53212">
        <ele>439.8</ele>
        <time>2024-05-01T12:15:34Z</time>
      </trkpt>
      <trkpt lat="45.71546" lon="3.53211">
        <ele>439.6</ele>
        <time>2024-05-01T12:15:35Z</time>
      </trkpt>
      <trkpt lat="45.71546" lon="3.53211">
        <ele>439.6</ele>
        <time>2024-05-01T12:15:36Z</time>
      </trkpt>
      <trkpt lat="45.71553" lon="3.53214">
        <ele>438.2</ele>
        <time>2024-05-01T12:15:48Z</time>
      </trkpt>
      <trkpt lat="45.71554" lon="3.53216">
        <ele>438</ele>
        <time>2024-05-01T12:15:49Z</time>
      </trkpt>
      <trkpt lat="45.71555" lon="3.53219">
        <ele>438</ele>
        <time>2024-05-01T12:15:50Z</time>
      </trkpt>
      <trkpt lat="45.71557" lon="3.53221">
        <ele>437.8</ele>
        <time>2024-05-01T12:15:51Z</time>
      </trkpt>
      <trkpt lat="45.71558" lon="3.53225">
        <ele>437.8</ele>
        <time>2024-05-01T12:15:52Z</time>
      </trkpt>
      <trkpt lat="45.7156" lon="3.53228">
        <ele>437.8</ele>
        <time>2024-05-01T12:15:53Z</time>
      </trkpt>
      <trkpt lat="45.71562" lon="3.53232">
        <ele>437.8</ele>
        <time>2024-05-01T12:15:54Z</time>
      </trkpt>
      <trkpt lat="45.71564" lon="3.53237">
        <ele>438</ele>
        <time>2024-05-01T12:15:55Z</time>
      </trkpt>
      <trkpt lat="45.71566" lon="3.53241">
        <ele>438.2</ele>
        <time>2024-05-01T12:15:56Z</time>
      </trkpt>
      <trkpt lat="45.7157" lon="3.53245">
        <ele>438.2</ele>
        <time>2024-05-01T12:15:57Z</time>
      </trkpt>
      <trkpt lat="45.71575" lon="3.53246">
        <ele>438.2</ele>
        <time>2024-05-01T12:15:58Z</time>
      </trkpt>
      <trkpt lat="45.71578" lon="3.53247">
        <ele>438.2</ele>
        <time>2024-05-01T12:15:59Z</time>
      </trkpt>
      <trkpt lat="45.71582" lon="3.53247">
        <ele>438.2</ele>
        <time>2024-05-01T12:16:00Z</time>
      </trkpt>
      <trkpt lat="45.71586" lon="3.53248">
        <ele>438</ele>
        <time>2024-05-01T12:16:01Z</time>
      </trkpt>
      <trkpt lat="45.71589" lon="3.53249">
        <ele>437.8</ele>
        <time>2024-05-01T12:16:02Z</time>
      </trkpt>
      <trkpt lat="45.71592" lon="3.53251">
        <ele>437.6</ele>
        <time>2024-05-01T12:16:03Z</time>
      </trkpt>
      <trkpt lat="45.71593" lon="3.53256">
        <ele>437.6</ele>
        <time>2024-05-01T12:16:04Z</time>
      </trkpt>
      <trkpt lat="45.71594" lon="3.5326">
        <ele>437.4</ele>
        <time>2024-05-01T12:16:05Z</time>
      </trkpt>
      <trkpt lat="45.71595" lon="3.53265">
        <ele>437.2</ele>
        <time>2024-05-01T12:16:06Z</time>
      </trkpt>
      <trkpt lat="45.71596" lon="3.5327">
        <ele>437</ele>
        <time>2024-05-01T12:16:07Z</time>
      </trkpt>
      <trkpt lat="45.71597" lon="3.53275">
        <ele>436.8</ele>
        <time>2024-05-01T12:16:08Z</time>
      </trkpt>
      <trkpt lat="45.71597" lon="3.53278">
        <ele>436.6</ele>
        <time>2024-05-01T12:16:09Z</time>
      </trkpt>
      <trkpt lat="45.71596" lon="3.53285">
        <ele>436.4</ele>
        <time>2024-05-01T12:16:10Z</time>
      </trkpt>
      <trkpt lat="45.71595" lon="3.53288">
        <ele>436.4</ele>
        <time>2024-05-01T12:16:11Z</time>
      </trkpt>
      <trkpt lat="45.71594" lon="3.5329">
        <ele>436.4</ele>
        <time>2024-05-01T12:16:12Z</time>
      </trkpt>
      <trkpt lat="45.71593" lon="3.53292">
        <ele>436.2</ele>
        <time>2024-05-01T12:16:13Z</time>
      </trkpt>
      <trkpt lat="45.71592" lon="3.53296">
        <ele>436.2</ele>
        <time>2024-05-01T12:16:14Z</time>
      </trkpt>
      <trkpt lat="45.71591" lon="3.533">
        <ele>436</ele>
        <time>2024-05-01T12:16:15Z</time>
      </trkpt>
      <trkpt lat="45.7159" lon="3.53304">
        <ele>436</ele>
        <time>2024-05-01T12:16:16Z</time>
      </trkpt>
      <trkpt lat="45.71589" lon="3.5331">
        <ele>435.8</ele>
        <time>2024-05-01T12:16:17Z</time>
      </trkpt>
      <trkpt lat="45.71587" lon="3.53316">
        <ele>435.8</ele>
        <time>2024-05-01T12:16:18Z</time>
      </trkpt>
      <trkpt lat="45.71586" lon="3.53323">
        <ele>435.6</ele>
        <time>2024-05-01T12:16:19Z</time>
      </trkpt>
      <trkpt lat="45.71584" lon="3.53329">
        <ele>435.4</ele>
        <time>2024-05-01T12:16:20Z</time>
      </trkpt>
      <trkpt lat="45.71583" lon="3.53334">
        <ele>435.4</ele>
        <time>2024-05-01T12:16:21Z</time>
      </trkpt>
      <trkpt lat="45.71582" lon="3.53339">
        <ele>435.4</ele>
        <time>2024-05-01T12:16:22Z</time>
      </trkpt>
      <trkpt lat="45.71578" lon="3.53345">
        <ele>435.4</ele>
        <time>2024-05-01T12:16:23Z</time>
      </trkpt>
      <trkpt lat="45.71575" lon="3.53347">
        <ele>435.4</ele>
        <time>2024-05-01T12:16:24Z</time>
      </trkpt>
      <trkpt lat="45.71572" lon="3.5335">
        <ele>435.4</ele>
        <time>2024-05-01T12:16:25Z</time>
      </trkpt>
      <trkpt lat="45.71568" lon="3.53352">
        <ele>435.4</ele>
        <time>2024-05-01T12:16:26Z</time>
      </trkpt>
      <trkpt lat="45.71565" lon="3.53355">
        <ele>435.4</ele>
        <time>2024-05-01T12:16:27Z</time>
      </trkpt>
      <trkpt lat="45.71561" lon="3.53357">
        <ele>435.2</ele>
        <time>2024-05-01T12:16:28Z</time>
      </trkpt>
      <trkpt lat="45.71557" lon="3.5336">
        <ele>435.2</ele>
        <time>2024-05-01T12:16:29Z</time>
      </trkpt>
      <trkpt lat="45.71554" lon="3.53363">
        <ele>435.2</ele>
        <time>2024-05-01T12:16:30Z</time>
      </trkpt>
      <trkpt lat="45.7155" lon="3.53365">
        <ele>435</ele>
        <time>2024-05-01T12:16:31Z</time>
      </trkpt>
      <trkpt lat="45.71546" lon="3.53368">
        <ele>435</ele>
        <time>2024-05-01T12:16:32Z</time>
      </trkpt>
      <trkpt lat="45.71543" lon="3.5337">
        <ele>435</ele>
        <time>2024-05-01T12:16:33Z</time>
      </trkpt>
      <trkpt lat="45.71539" lon="3.53373">
        <ele>434.8</ele>
        <time>2024-05-01T12:16:34Z</time>
      </trkpt>
      <trkpt lat="45.71536" lon="3.53375">
        <ele>434.8</ele>
        <time>2024-05-01T12:16:35Z</time>
      </trkpt>
      <trkpt lat="45.71533" lon="3.53377">
        <ele>434.8</ele>
        <time>2024-05-01T12:16:36Z</time>
      </trkpt>
      <trkpt lat="45.71528" lon="3.5338">
        <ele>434.8</ele>
        <time>2024-05-01T12:16:37Z</time>
      </trkpt>
      <trkpt lat="45.71524" lon="3.53381">
        <ele>434.6</ele>
        <time>2024-05-01T12:16:38Z</time>
      </trkpt>
      <trkpt lat="45.7152" lon="3.53383">
        <ele>434.6</ele>
        <time>2024-05-01T12:16:39Z</time>
      </trkpt>
      <trkpt lat="45.71516" lon="3.53384">
        <ele>434.4</ele>
        <time>2024-05-01T12:16:40Z</time>
      </trkpt>
      <trkpt lat="45.71512" lon="3.53385">
        <ele>434.4</ele>
        <time>2024-05-01T12:16:41Z</time>
      </trkpt>
      <trkpt lat="45.71509" lon="3.53386">
        <ele>434.4</ele>
        <time>2024-05-01T12:16:42Z</time>
      </trkpt>
      <trkpt lat="45.71506" lon="3.53387">
        <ele>434.4</ele>
        <time>2024-05-01T12:16:43Z</time>
      </trkpt>
      <trkpt lat="45.71504" lon="3.53388">
        <ele>434.2</ele>
        <time>2024-05-01T12:16:44Z</time>
      </trkpt>
      <trkpt lat="45.71502" lon="3.53388">
        <ele>434</ele>
        <time>2024-05-01T12:16:45Z</time>
      </trkpt>
      <trkpt lat="45.71501" lon="3.53389">
        <ele>433.8</ele>
        <time>2024-05-01T12:16:46Z</time>
      </trkpt>
      <trkpt lat="45.71495" lon="3.53391">
        <ele>433.6</ele>
        <time>2024-05-01T12:16:47Z</time>
      </trkpt>
      <trkpt lat="45.71496" lon="3.53394">
        <ele>433.6</ele>
        <time>2024-05-01T12:16:48Z</time>
      </trkpt>
      <trkpt lat="45.71497" lon="3.53399">
        <ele>433.4</ele>
        <time>2024-05-01T12:16:49Z</time>
      </trkpt>
      <trkpt lat="45.71498" lon="3.53406">
        <ele>433.2</ele>
        <time>2024-05-01T12:16:50Z</time>
      </trkpt>
      <trkpt lat="45.715" lon="3.53412">
        <ele>433</ele>
        <time>2024-05-01T12:16:51Z</time>
      </trkpt>
      <trkpt lat="45.71502" lon="3.53419">
        <ele>433</ele>
        <time>2024-05-01T12:16:52Z</time>
      </trkpt>
      <trkpt lat="45.71504" lon="3.53427">
        <ele>432.8</ele>
        <time>2024-05-01T12:16:53Z</time>
      </trkpt>
      <trkpt lat="45.71505" lon="3.53434">
        <ele>432.6</ele>
        <time>2024-05-01T12:16:54Z</time>
      </trkpt>
      <trkpt lat="45.71507" lon="3.53441">
        <ele>432.6</ele>
        <time>2024-05-01T12:16:55Z</time>
      </trkpt>
      <trkpt lat="45.71509" lon="3.53449">
        <ele>432.4</ele>
        <time>2024-05-01T12:16:56Z</time>
      </trkpt>
      <trkpt lat="45.71511" lon="3.53456">
        <ele>432.4</ele>
        <time>2024-05-01T12:16:57Z</time>
      </trkpt>
      <trkpt lat="45.71512" lon="3.53463">
        <ele>432.2</ele>
        <time>2024-05-01T12:16:58Z</time>
      </trkpt>
      <trkpt lat="45.71514" lon="3.5347">
        <ele>432.2</ele>
        <time>2024-05-01T12:16:59Z</time>
      </trkpt>
      <trkpt lat="45.71516" lon="3.53477">
        <ele>432</ele>
        <time>2024-05-01T12:17:00Z</time>
      </trkpt>
      <trkpt lat="45.71517" lon="3.53484">
        <ele>432</ele>
        <time>2024-05-01T12:17:01Z</time>
      </trkpt>
      <trkpt lat="45.71519" lon="3.53491">
        <ele>431.8</ele>
        <time>2024-05-01T12:17:02Z</time>
      </trkpt>
      <trkpt lat="45.71521" lon="3.53498">
        <ele>431.8</ele>
        <time>2024-05-01T12:17:03Z</time>
      </trkpt>
      <trkpt lat="45.71522" lon="3.53505">
        <ele>431.8</ele>
        <time>2024-05-01T12:17:04Z</time>
      </trkpt>
      <trkpt lat="45.71524" lon="3.53511">
        <ele>431.8</ele>
        <time>2024-05-01T12:17:05Z</time>
      </trkpt>
      <trkpt lat="45.71525" lon="3.53518">
        <ele>431.8</ele>
        <time>2024-05-01T12:17:06Z</time>
      </trkpt>
      <trkpt lat="45.71525" lon="3.53524">
        <ele>431.8</ele>
        <time>2024-05-01T12:17:07Z</time>
      </trkpt>
      <trkpt lat="45.71525" lon="3.5353">
        <ele>431.8</ele>
        <time>2024-05-01T12:17:08Z</time>
      </trkpt>
      <trkpt lat="45.71525" lon="3.53534">
        <ele>431.8</ele>
        <time>2024-05-01T12:17:09Z</time>
      </trkpt>
      <trkpt lat="45.71532" lon="3.5354">
        <ele>431.8</ele>
        <time>2024-05-01T12:17:10Z</time>
      </trkpt>
      <trkpt lat="45.71533" lon="3.53538">
        <ele>431.8</ele>
        <time>2024-05-01T12:17:11Z</time>
      </trkpt>
      <trkpt lat="45.71535" lon="3.53537">
        <ele>431.8</ele>
        <time>2024-05-01T12:17:12Z</time>
      </trkpt>
      <trkpt lat="45.71538" lon="3.53534">
        <ele>432</ele>
        <time>2024-05-01T12:17:13Z</time>
      </trkpt>
      <trkpt lat="45.71541" lon="3.53532">
        <ele>432</ele>
        <time>2024-05-01T12:17:14Z</time>
      </trkpt>
      <trkpt lat="45.71545" lon="3.53529">
        <ele>432</ele>
        <time>2024-05-01T12:17:15Z</time>
      </trkpt>
      <trkpt lat="45.7155" lon="3.53526">
        <ele>432</ele>
        <time>2024-05-01T12:17:16Z</time>
      </trkpt>
      <trkpt lat="45.71553" lon="3.53525">
        <ele>432</ele>
        <time>2024-05-01T12:17:17Z</time>
      </trkpt>
      <trkpt lat="45.71557" lon="3.53525">
        <ele>431</ele>
        <time>2024-05-01T12:17:18Z</time>
      </trkpt>
      <trkpt lat="45.71561" lon="3.53524">
        <ele>431.8</ele>
        <time>2024-05-01T12:17:19Z</time>
      </trkpt>
      <trkpt lat="45.71566" lon="3.53524">
        <ele>432.2</ele>
        <time>2024-05-01T12:17:20Z</time>
      </trkpt>
      <trkpt lat="45.7157" lon="3.53523">
        <ele>432.2</ele>
        <time>2024-05-01T12:17:21Z</time>
      </trkpt>
      <trkpt lat="45.71574" lon="3.53523">
        <ele>432.2</ele>
        <time>2024-05-01T12:17:22Z</time>
      </trkpt>
      <trkpt lat="45.71578" lon="3.53522">
        <ele>432.2</ele>
        <time>2024-05-01T12:17:23Z</time>
      </trkpt>
      <trkpt lat="45.71582" lon="3.53522">
        <ele>432.2</ele>
        <time>2024-05-01T12:17:24Z</time>
      </trkpt>
      <trkpt lat="45.71587" lon="3.53524">
        <ele>432.4</ele>
        <time>2024-05-01T12:17:25Z</time>
      </trkpt>
      <trkpt lat="45.71591" lon="3.53526">
        <ele>432.6</ele>
        <time>2024-05-01T12:17:26Z</time>
      </trkpt>
      <trkpt lat="45.71595" lon="3.53529">
        <ele>432.6</ele>
        <time>2024-05-01T12:17:27Z</time>
      </trkpt>
      <trkpt lat="45.71599" lon="3.53532">
        <ele>432.2</ele>
        <time>2024-05-01T12:17:28Z</time>
      </trkpt>
      <trkpt lat="45.71602" lon="3.53535">
        <ele>432.2</ele>
        <time>2024-05-01T12:17:29Z</time>
      </trkpt>
      <trkpt lat="45.71606" lon="3.53539">
        <ele>432.4</ele>
        <time>2024-05-01T12:17:30Z</time>
      </trkpt>
      <trkpt lat="45.71609" lon="3.53543">
        <ele>432.4</ele>
        <time>2024-05-01T12:17:31Z</time>
      </trkpt>
      <trkpt lat="45.71612" lon="3.53547">
        <ele>432.6</ele>
        <time>2024-05-01T12:17:32Z</time>
      </trkpt>
      <trkpt lat="45.71615" lon="3.53551">
        <ele>432.6</ele>
        <time>2024-05-01T12:17:33Z</time>
      </trkpt>
      <trkpt lat="45.71618" lon="3.53555">
        <ele>432.8</ele>
        <time>2024-05-01T12:17:34Z</time>
      </trkpt>
      <trkpt lat="45.71621" lon="3.53559">
        <ele>433</ele>
        <time>2024-05-01T12:17:35Z</time>
      </trkpt>
      <trkpt lat="45.71624" lon="3.53562">
        <ele>433</ele>
        <time>2024-05-01T12:17:36Z</time>
      </trkpt>
      <trkpt lat="45.71627" lon="3.53566">
        <ele>433.2</ele>
        <time>2024-05-01T12:17:37Z</time>
      </trkpt>
      <trkpt lat="45.7163" lon="3.53571">
        <ele>433.4</ele>
        <time>2024-05-01T12:17:38Z</time>
      </trkpt>
      <trkpt lat="45.71633" lon="3.53575">
        <ele>433.4</ele>
        <time>2024-05-01T12:17:39Z</time>
      </trkpt>
      <trkpt lat="45.71636" lon="3.53578">
        <ele>433.6</ele>
        <time>2024-05-01T12:17:40Z</time>
      </trkpt>
      <trkpt lat="45.7164" lon="3.53582">
        <ele>433.8</ele>
        <time>2024-05-01T12:17:41Z</time>
      </trkpt>
      <trkpt lat="45.71642" lon="3.53586">
        <ele>433.8</ele>
        <time>2024-05-01T12:17:42Z</time>
      </trkpt>
      <trkpt lat="45.71645" lon="3.5359">
        <ele>434</ele>
        <time>2024-05-01T12:17:43Z</time>
      </trkpt>
      <trkpt lat="45.71648" lon="3.53595">
        <ele>434.2</ele>
        <time>2024-05-01T12:17:44Z</time>
      </trkpt>
      <trkpt lat="45.71649" lon="3.536">
        <ele>434.2</ele>
        <time>2024-05-01T12:17:45Z</time>
      </trkpt>
      <trkpt lat="45.71651" lon="3.53606">
        <ele>434.4</ele>
        <time>2024-05-01T12:17:46Z</time>
      </trkpt>
      <trkpt lat="45.71652" lon="3.53611">
        <ele>434.4</ele>
        <time>2024-05-01T12:17:47Z</time>
      </trkpt>
      <trkpt lat="45.71653" lon="3.53616">
        <ele>434.6</ele>
        <time>2024-05-01T12:17:48Z</time>
      </trkpt>
      <trkpt lat="45.71655" lon="3.53621">
        <ele>434.6</ele>
        <time>2024-05-01T12:17:49Z</time>
      </trkpt>
      <trkpt lat="45.71656" lon="3.53626">
        <ele>434.8</ele>
        <time>2024-05-01T12:17:50Z</time>
      </trkpt>
      <trkpt lat="45.71656" lon="3.53631">
        <ele>434.8</ele>
        <time>2024-05-01T12:17:51Z</time>
      </trkpt>
      <trkpt lat="45.71657" lon="3.53636">
        <ele>435</ele>
        <time>2024-05-01T12:17:52Z</time>
      </trkpt>
      <trkpt lat="45.71658" lon="3.53642">
        <ele>435.2</ele>
        <time>2024-05-01T12:17:53Z</time>
      </trkpt>
      <trkpt lat="45.71658" lon="3.53647">
        <ele>435.2</ele>
        <time>2024-05-01T12:17:54Z</time>
      </trkpt>
      <trkpt lat="45.71659" lon="3.53653">
        <ele>435.4</ele>
        <time>2024-05-01T12:17:55Z</time>
      </trkpt>
      <trkpt lat="45.7166" lon="3.53658">
        <ele>435.6</ele>
        <time>2024-05-01T12:17:56Z</time>
      </trkpt>
      <trkpt lat="45.7166" lon="3.53664">
        <ele>435.6</ele>
        <time>2024-05-01T12:17:57Z</time>
      </trkpt>
      <trkpt lat="45.7166" lon="3.5367">
        <ele>435.8</ele>
        <time>2024-05-01T12:17:58Z</time>
      </trkpt>
      <trkpt lat="45.71659" lon="3.53675">
        <ele>435.8</ele>
        <time>2024-05-01T12:17:59Z</time>
      </trkpt>
      <trkpt lat="45.71659" lon="3.5368">
        <ele>436</ele>
        <time>2024-05-01T12:18:00Z</time>
      </trkpt>
      <trkpt lat="45.71659" lon="3.53686">
        <ele>436.2</ele>
        <time>2024-05-01T12:18:01Z</time>
      </trkpt>
      <trkpt lat="45.71658" lon="3.53691">
        <ele>436.4</ele>
        <time>2024-05-01T12:18:02Z</time>
      </trkpt>
      <trkpt lat="45.71658" lon="3.53696">
        <ele>436.6</ele>
        <time>2024-05-01T12:18:03Z</time>
      </trkpt>
      <trkpt lat="45.71658" lon="3.53701">
        <ele>436.8</ele>
        <time>2024-05-01T12:18:04Z</time>
      </trkpt>
      <trkpt lat="45.71658" lon="3.53706">
        <ele>436.8</ele>
        <time>2024-05-01T12:18:05Z</time>
      </trkpt>
      <trkpt lat="45.71657" lon="3.5371">
        <ele>437</ele>
        <time>2024-05-01T12:18:06Z</time>
      </trkpt>
      <trkpt lat="45.71657" lon="3.53715">
        <ele>437.2</ele>
        <time>2024-05-01T12:18:07Z</time>
      </trkpt>
      <trkpt lat="45.71657" lon="3.5372">
        <ele>437.4</ele>
        <time>2024-05-01T12:18:08Z</time>
      </trkpt>
      <trkpt lat="45.71656" lon="3.53725">
        <ele>437.4</ele>
        <time>2024-05-01T12:18:09Z</time>
      </trkpt>
      <trkpt lat="45.71656" lon="3.5373">
        <ele>437.6</ele>
        <time>2024-05-01T12:18:10Z</time>
      </trkpt>
      <trkpt lat="45.71656" lon="3.53734">
        <ele>437.8</ele>
        <time>2024-05-01T12:18:11Z</time>
      </trkpt>
      <trkpt lat="45.71656" lon="3.53739">
        <ele>437.8</ele>
        <time>2024-05-01T12:18:12Z</time>
      </trkpt>
      <trkpt lat="45.71655" lon="3.53743">
        <ele>438</ele>
        <time>2024-05-01T12:18:13Z</time>
      </trkpt>
      <trkpt lat="45.71655" lon="3.53748">
        <ele>438.2</ele>
        <time>2024-05-01T12:18:14Z</time>
      </trkpt>
      <trkpt lat="45.71655" lon="3.53753">
        <ele>438.4</ele>
        <time>2024-05-01T12:18:15Z</time>
      </trkpt>
      <trkpt lat="45.71654" lon="3.53758">
        <ele>438.6</ele>
        <time>2024-05-01T12:18:16Z</time>
      </trkpt>
      <trkpt lat="45.71654" lon="3.53763">
        <ele>438.8</ele>
        <time>2024-05-01T12:18:17Z</time>
      </trkpt>
      <trkpt lat="45.71654" lon="3.53767">
        <ele>439</ele>
        <time>2024-05-01T12:18:18Z</time>
      </trkpt>
      <trkpt lat="45.71654" lon="3.53772">
        <ele>439.2</ele>
        <time>2024-05-01T12:18:19Z</time>
      </trkpt>
      <trkpt lat="45.71653" lon="3.53777">
        <ele>439.2</ele>
        <time>2024-05-01T12:18:20Z</time>
      </trkpt>
      <trkpt lat="45.71652" lon="3.53781">
        <ele>439.4</ele>
        <time>2024-05-01T12:18:21Z</time>
      </trkpt>
      <trkpt lat="45.71652" lon="3.53786">
        <ele>439.6</ele>
        <time>2024-05-01T12:18:22Z</time>
      </trkpt>
      <trkpt lat="45.71651" lon="3.53791">
        <ele>439.8</ele>
        <time>2024-05-01T12:18:23Z</time>
      </trkpt>
      <trkpt lat="45.7165" lon="3.53795">
        <ele>440</ele>
        <time>2024-05-01T12:18:24Z</time>
      </trkpt>
      <trkpt lat="45.71649" lon="3.538">
        <ele>440</ele>
        <time>2024-05-01T12:18:25Z</time>
      </trkpt>
      <trkpt lat="45.71647" lon="3.53804">
        <ele>440.2</ele>
        <time>2024-05-01T12:18:26Z</time>
      </trkpt>
      <trkpt lat="45.71645" lon="3.53808">
        <ele>440.4</ele>
        <time>2024-05-01T12:18:27Z</time>
      </trkpt>
      <trkpt lat="45.71643" lon="3.53811">
        <ele>440.6</ele>
        <time>2024-05-01T12:18:28Z</time>
      </trkpt>
      <trkpt lat="45.7164" lon="3.53815">
        <ele>440.8</ele>
        <time>2024-05-01T12:18:29Z</time>
      </trkpt>
      <trkpt lat="45.71638" lon="3.53818">
        <ele>441</ele>
        <time>2024-05-01T12:18:30Z</time>
      </trkpt>
      <trkpt lat="45.71635" lon="3.53821">
        <ele>441</ele>
        <time>2024-05-01T12:18:31Z</time>
      </trkpt>
      <trkpt lat="45.71633" lon="3.53825">
        <ele>441.4</ele>
        <time>2024-05-01T12:18:32Z</time>
      </trkpt>
      <trkpt lat="45.7163" lon="3.53828">
        <ele>441.4</ele>
        <time>2024-05-01T12:18:33Z</time>
      </trkpt>
      <trkpt lat="45.71627" lon="3.53831">
        <ele>441.6</ele>
        <time>2024-05-01T12:18:34Z</time>
      </trkpt>
      <trkpt lat="45.71625" lon="3.53834">
        <ele>441.8</ele>
        <time>2024-05-01T12:18:35Z</time>
      </trkpt>
      <trkpt lat="45.71622" lon="3.53837">
        <ele>442</ele>
        <time>2024-05-01T12:18:36Z</time>
      </trkpt>
      <trkpt lat="45.71619" lon="3.5384">
        <ele>442.2</ele>
        <time>2024-05-01T12:18:37Z</time>
      </trkpt>
      <trkpt lat="45.71617" lon="3.53844">
        <ele>442.2</ele>
        <time>2024-05-01T12:18:38Z</time>
      </trkpt>
      <trkpt lat="45.71614" lon="3.53847">
        <ele>442.4</ele>
        <time>2024-05-01T12:18:39Z</time>
      </trkpt>
      <trkpt lat="45.71611" lon="3.5385">
        <ele>442.6</ele>
        <time>2024-05-01T12:18:40Z</time>
      </trkpt>
      <trkpt lat="45.71609" lon="3.53853">
        <ele>442.8</ele>
        <time>2024-05-01T12:18:41Z</time>
      </trkpt>
      <trkpt lat="45.71606" lon="3.53856">
        <ele>443</ele>
        <time>2024-05-01T12:18:42Z</time>
      </trkpt>
      <trkpt lat="45.71604" lon="3.53859">
        <ele>443.2</ele>
        <time>2024-05-01T12:18:43Z</time>
      </trkpt>
      <trkpt lat="45.71601" lon="3.53862">
        <ele>443.2</ele>
        <time>2024-05-01T12:18:44Z</time>
      </trkpt>
      <trkpt lat="45.71599" lon="3.53865">
        <ele>443.4</ele>
        <time>2024-05-01T12:18:45Z</time>
      </trkpt>
      <trkpt lat="45.71596" lon="3.53868">
        <ele>443.6</ele>
        <time>2024-05-01T12:18:46Z</time>
      </trkpt>
      <trkpt lat="45.71594" lon="3.53871">
        <ele>443.8</ele>
        <time>2024-05-01T12:18:47Z</time>
      </trkpt>
      <trkpt lat="45.71591" lon="3.53874">
        <ele>444</ele>
        <time>2024-05-01T12:18:48Z</time>
      </trkpt>
      <trkpt lat="45.71588" lon="3.53877">
        <ele>444.2</ele>
        <time>2024-05-01T12:18:49Z</time>
      </trkpt>
      <trkpt lat="45.71586" lon="3.5388">
        <ele>444.2</ele>
        <time>2024-05-01T12:18:50Z</time>
      </trkpt>
      <trkpt lat="45.71583" lon="3.53883">
        <ele>444.4</ele>
        <time>2024-05-01T12:18:51Z</time>
      </trkpt>
      <trkpt lat="45.7158" lon="3.53886">
        <ele>444.6</ele>
        <time>2024-05-01T12:18:52Z</time>
      </trkpt>
      <trkpt lat="45.71577" lon="3.5389">
        <ele>444.8</ele>
        <time>2024-05-01T12:18:53Z</time>
      </trkpt>
      <trkpt lat="45.71575" lon="3.53893">
        <ele>445</ele>
        <time>2024-05-01T12:18:54Z</time>
      </trkpt>
      <trkpt lat="45.71572" lon="3.53896">
        <ele>445.2</ele>
        <time>2024-05-01T12:18:55Z</time>
      </trkpt>
      <trkpt lat="45.7157" lon="3.53899">
        <ele>445.2</ele>
        <time>2024-05-01T12:18:56Z</time>
      </trkpt>
      <trkpt lat="45.71567" lon="3.53902">
        <ele>445.4</ele>
        <time>2024-05-01T12:18:57Z</time>
      </trkpt>
      <trkpt lat="45.71565" lon="3.53905">
        <ele>445.6</ele>
        <time>2024-05-01T12:18:58Z</time>
      </trkpt>
      <trkpt lat="45.71562" lon="3.53908">
        <ele>445.8</ele>
        <time>2024-05-01T12:18:59Z</time>
      </trkpt>
      <trkpt lat="45.7156" lon="3.53911">
        <ele>446</ele>
        <time>2024-05-01T12:19:00Z</time>
      </trkpt>
      <trkpt lat="45.71557" lon="3.53913">
        <ele>446.2</ele>
        <time>2024-05-01T12:19:01Z</time>
      </trkpt>
      <trkpt lat="45.71555" lon="3.53916">
        <ele>446.4</ele>
        <time>2024-05-01T12:19:02Z</time>
      </trkpt>
      <trkpt lat="45.71552" lon="3.53919">
        <ele>446.6</ele>
        <time>2024-05-01T12:19:03Z</time>
      </trkpt>
      <trkpt lat="45.7155" lon="3.53922">
        <ele>446.8</ele>
        <time>2024-05-01T12:19:04Z</time>
      </trkpt>
      <trkpt lat="45.71547" lon="3.53925">
        <ele>447</ele>
        <time>2024-05-01T12:19:05Z</time>
      </trkpt>
      <trkpt lat="45.71545" lon="3.53928">
        <ele>447</ele>
        <time>2024-05-01T12:19:06Z</time>
      </trkpt>
      <trkpt lat="45.71542" lon="3.53932">
        <ele>447.2</ele>
        <time>2024-05-01T12:19:07Z</time>
      </trkpt>
      <trkpt lat="45.7154" lon="3.53936">
        <ele>447.4</ele>
        <time>2024-05-01T12:19:08Z</time>
      </trkpt>
      <trkpt lat="45.71538" lon="3.5394">
        <ele>447.6</ele>
        <time>2024-05-01T12:19:09Z</time>
      </trkpt>
      <trkpt lat="45.71536" lon="3.53944">
        <ele>447.8</ele>
        <time>2024-05-01T12:19:10Z</time>
      </trkpt>
      <trkpt lat="45.71533" lon="3.53948">
        <ele>447.8</ele>
        <time>2024-05-01T12:19:11Z</time>
      </trkpt>
      <trkpt lat="45.71531" lon="3.53952">
        <ele>448</ele>
        <time>2024-05-01T12:19:12Z</time>
      </trkpt>
      <trkpt lat="45.71529" lon="3.53956">
        <ele>448.2</ele>
        <time>2024-05-01T12:19:13Z</time>
      </trkpt>
      <trkpt lat="45.71527" lon="3.5396">
        <ele>448.4</ele>
        <time>2024-05-01T12:19:14Z</time>
      </trkpt>
      <trkpt lat="45.71525" lon="3.53964">
        <ele>448.6</ele>
        <time>2024-05-01T12:19:15Z</time>
      </trkpt>
      <trkpt lat="45.71523" lon="3.53971">
        <ele>448.6</ele>
        <time>2024-05-01T12:19:16Z</time>
      </trkpt>
      <trkpt lat="45.71522" lon="3.53976">
        <ele>448.8</ele>
        <time>2024-05-01T12:19:17Z</time>
      </trkpt>
      <trkpt lat="45.71522" lon="3.53982">
        <ele>448.8</ele>
        <time>2024-05-01T12:19:18Z</time>
      </trkpt>
      <trkpt lat="45.71522" lon="3.53987">
        <ele>449</ele>
        <time>2024-05-01T12:19:19Z</time>
      </trkpt>
      <trkpt lat="45.71522" lon="3.53993">
        <ele>449</ele>
        <time>2024-05-01T12:19:20Z</time>
      </trkpt>
      <trkpt lat="45.71521" lon="3.53999">
        <ele>449.2</ele>
        <time>2024-05-01T12:19:21Z</time>
      </trkpt>
      <trkpt lat="45.71521" lon="3.54011">
        <ele>449.4</ele>
        <time>2024-05-01T12:19:22Z</time>
      </trkpt>
      <trkpt lat="45.71521" lon="3.54011">
        <ele>449.4</ele>
        <time>2024-05-01T12:19:23Z</time>
      </trkpt>
      <trkpt lat="45.71521" lon="3.54016">
        <ele>449.4</ele>
        <time>2024-05-01T12:19:24Z</time>
      </trkpt>
      <trkpt lat="45.71521" lon="3.54022">
        <ele>449.6</ele>
        <time>2024-05-01T12:19:25Z</time>
      </trkpt>
      <trkpt lat="45.71521" lon="3.54028">
        <ele>449.8</ele>
        <time>2024-05-01T12:19:26Z</time>
      </trkpt>
      <trkpt lat="45.71521" lon="3.54034">
        <ele>449.8</ele>
        <time>2024-05-01T12:19:27Z</time>
      </trkpt>
      <trkpt lat="45.71522" lon="3.54041">
        <ele>450</ele>
        <time>2024-05-01T12:19:28Z</time>
      </trkpt>
      <trkpt lat="45.71522" lon="3.54048">
        <ele>450</ele>
        <time>2024-05-01T12:19:29Z</time>
      </trkpt>
      <trkpt lat="45.71522" lon="3.54054">
        <ele>450.2</ele>
        <time>2024-05-01T12:19:30Z</time>
      </trkpt>
      <trkpt lat="45.71522" lon="3.54061">
        <ele>450.2</ele>
        <time>2024-05-01T12:19:31Z</time>
      </trkpt>
      <trkpt lat="45.71523" lon="3.54068">
        <ele>450.4</ele>
        <time>2024-05-01T12:19:32Z</time>
      </trkpt>
      <trkpt lat="45.71523" lon="3.54075">
        <ele>450.4</ele>
        <time>2024-05-01T12:19:33Z</time>
      </trkpt>
      <trkpt lat="45.71524" lon="3.54081">
        <ele>450.6</ele>
        <time>2024-05-01T12:19:34Z</time>
      </trkpt>
      <trkpt lat="45.71525" lon="3.54088">
        <ele>450.6</ele>
        <time>2024-05-01T12:19:35Z</time>
      </trkpt>
      <trkpt lat="45.71527" lon="3.54095">
        <ele>450.8</ele>
        <time>2024-05-01T12:19:36Z</time>
      </trkpt>
      <trkpt lat="45.71529" lon="3.54102">
        <ele>451</ele>
        <time>2024-05-01T12:19:37Z</time>
      </trkpt>
      <trkpt lat="45.71532" lon="3.54108">
        <ele>451</ele>
        <time>2024-05-01T12:19:38Z</time>
      </trkpt>
      <trkpt lat="45.71535" lon="3.54114">
        <ele>451.2</ele>
        <time>2024-05-01T12:19:39Z</time>
      </trkpt>
      <trkpt lat="45.71538" lon="3.5412">
        <ele>451.2</ele>
        <time>2024-05-01T12:19:40Z</time>
      </trkpt>
      <trkpt lat="45.71542" lon="3.54124">
        <ele>451.2</ele>
        <time>2024-05-01T12:19:41Z</time>
      </trkpt>
      <trkpt lat="45.71547" lon="3.54128">
        <ele>451.4</ele>
        <time>2024-05-01T12:19:42Z</time>
      </trkpt>
      <trkpt lat="45.71552" lon="3.54132">
        <ele>451.4</ele>
        <time>2024-05-01T12:19:43Z</time>
      </trkpt>
      <trkpt lat="45.71557" lon="3.54135">
        <ele>451.4</ele>
        <time>2024-05-01T12:19:44Z</time>
      </trkpt>
      <trkpt lat="45.71561" lon="3.54139">
        <ele>451.4</ele>
        <time>2024-05-01T12:19:45Z</time>
      </trkpt>
      <trkpt lat="45.71566" lon="3.54143">
        <ele>451.4</ele>
        <time>2024-05-01T12:19:46Z</time>
      </trkpt>
      <trkpt lat="45.71572" lon="3.54147">
        <ele>451.4</ele>
        <time>2024-05-01T12:19:47Z</time>
      </trkpt>
      <trkpt lat="45.71577" lon="3.54151">
        <ele>451.4</ele>
        <time>2024-05-01T12:19:48Z</time>
      </trkpt>
      <trkpt lat="45.71583" lon="3.54154">
        <ele>451.6</ele>
        <time>2024-05-01T12:19:49Z</time>
      </trkpt>
      <trkpt lat="45.71589" lon="3.54157">
        <ele>451.6</ele>
        <time>2024-05-01T12:19:50Z</time>
      </trkpt>
      <trkpt lat="45.71595" lon="3.5416">
        <ele>451.6</ele>
        <time>2024-05-01T12:19:51Z</time>
      </trkpt>
      <trkpt lat="45.716" lon="3.54163">
        <ele>451.6</ele>
        <time>2024-05-01T12:19:52Z</time>
      </trkpt>
      <trkpt lat="45.71606" lon="3.54166">
        <ele>451.6</ele>
        <time>2024-05-01T12:19:53Z</time>
      </trkpt>
      <trkpt lat="45.71612" lon="3.54169">
        <ele>451.6</ele>
        <time>2024-05-01T12:19:54Z</time>
      </trkpt>
      <trkpt lat="45.71618" lon="3.54173">
        <ele>451.8</ele>
        <time>2024-05-01T12:19:55Z</time>
      </trkpt>
      <trkpt lat="45.71622" lon="3.5418">
        <ele>451.8</ele>
        <time>2024-05-01T12:19:56Z</time>
      </trkpt>
      <trkpt lat="45.71626" lon="3.54186">
        <ele>451.8</ele>
        <time>2024-05-01T12:19:57Z</time>
      </trkpt>
      <trkpt lat="45.7163" lon="3.54192">
        <ele>451.8</ele>
        <time>2024-05-01T12:19:58Z</time>
      </trkpt>
      <trkpt lat="45.71634" lon="3.54199">
        <ele>451.8</ele>
        <time>2024-05-01T12:19:59Z</time>
      </trkpt>
      <trkpt lat="45.71638" lon="3.54205">
        <ele>451.8</ele>
        <time>2024-05-01T12:20:00Z</time>
      </trkpt>
      <trkpt lat="45.71642" lon="3.54211">
        <ele>451.8</ele>
        <time>2024-05-01T12:20:01Z</time>
      </trkpt>
      <trkpt lat="45.71646" lon="3.54218">
        <ele>451.8</ele>
        <time>2024-05-01T12:20:02Z</time>
      </trkpt>
      <trkpt lat="45.71651" lon="3.54222">
        <ele>451.8</ele>
        <time>2024-05-01T12:20:03Z</time>
      </trkpt>
      <trkpt lat="45.71656" lon="3.54226">
        <ele>451.8</ele>
        <time>2024-05-01T12:20:04Z</time>
      </trkpt>
      <trkpt lat="45.7166" lon="3.5423">
        <ele>451.8</ele>
        <time>2024-05-01T12:20:05Z</time>
      </trkpt>
      <trkpt lat="45.71665" lon="3.54235">
        <ele>451.8</ele>
        <time>2024-05-01T12:20:06Z</time>
      </trkpt>
      <trkpt lat="45.7167" lon="3.54239">
        <ele>451.8</ele>
        <time>2024-05-01T12:20:07Z</time>
      </trkpt>
      <trkpt lat="45.71676" lon="3.54244">
        <ele>451.8</ele>
        <time>2024-05-01T12:20:08Z</time>
      </trkpt>
      <trkpt lat="45.71681" lon="3.54249">
        <ele>451.8</ele>
        <time>2024-05-01T12:20:09Z</time>
      </trkpt>
      <trkpt lat="45.71685" lon="3.54256">
        <ele>451.8</ele>
        <time>2024-05-01T12:20:10Z</time>
      </trkpt>
      <trkpt lat="45.71688" lon="3.54264">
        <ele>451.8</ele>
        <time>2024-05-01T12:20:11Z</time>
      </trkpt>
      <trkpt lat="45.71692" lon="3.54272">
        <ele>451.8</ele>
        <time>2024-05-01T12:20:12Z</time>
      </trkpt>
      <trkpt lat="45.71695" lon="3.54279">
        <ele>451.8</ele>
        <time>2024-05-01T12:20:13Z</time>
      </trkpt>
      <trkpt lat="45.71698" lon="3.54287">
        <ele>451.8</ele>
        <time>2024-05-01T12:20:14Z</time>
      </trkpt>
      <trkpt lat="45.71702" lon="3.54294">
        <ele>451.8</ele>
        <time>2024-05-01T12:20:15Z</time>
      </trkpt>
      <trkpt lat="45.71705" lon="3.54302">
        <ele>451.6</ele>
        <time>2024-05-01T12:20:16Z</time>
      </trkpt>
      <trkpt lat="45.71708" lon="3.54309">
        <ele>451.6</ele>
        <time>2024-05-01T12:20:17Z</time>
      </trkpt>
      <trkpt lat="45.71715" lon="3.54324">
        <ele>451.6</ele>
        <time>2024-05-01T12:20:18Z</time>
      </trkpt>
      <trkpt lat="45.71715" lon="3.54324">
        <ele>451.6</ele>
        <time>2024-05-01T12:20:19Z</time>
      </trkpt>
      <trkpt lat="45.71718" lon="3.54332">
        <ele>451.6</ele>
        <time>2024-05-01T12:20:20Z</time>
      </trkpt>
      <trkpt lat="45.7172" lon="3.5434">
        <ele>451.6</ele>
        <time>2024-05-01T12:20:21Z</time>
      </trkpt>
      <trkpt lat="45.71723" lon="3.54349">
        <ele>451.6</ele>
        <time>2024-05-01T12:20:22Z</time>
      </trkpt>
      <trkpt lat="45.71727" lon="3.54367">
        <ele>451.6</ele>
        <time>2024-05-01T12:20:23Z</time>
      </trkpt>
      <trkpt lat="45.71727" lon="3.54367">
        <ele>451.6</ele>
        <time>2024-05-01T12:20:24Z</time>
      </trkpt>
      <trkpt lat="45.7173" lon="3.54376">
        <ele>451.6</ele>
        <time>2024-05-01T12:20:25Z</time>
      </trkpt>
      <trkpt lat="45.71732" lon="3.54385">
        <ele>451.6</ele>
        <time>2024-05-01T12:20:26Z</time>
      </trkpt>
      <trkpt lat="45.71736" lon="3.54402">
        <ele>451.6</ele>
        <time>2024-05-01T12:20:27Z</time>
      </trkpt>
      <trkpt lat="45.71736" lon="3.54402">
        <ele>451.6</ele>
        <time>2024-05-01T12:20:28Z</time>
      </trkpt>
      <trkpt lat="45.71738" lon="3.54411">
        <ele>451.6</ele>
        <time>2024-05-01T12:20:29Z</time>
      </trkpt>
      <trkpt lat="45.71741" lon="3.54419">
        <ele>451.6</ele>
        <time>2024-05-01T12:20:30Z</time>
      </trkpt>
      <trkpt lat="45.71744" lon="3.54436">
        <ele>451.6</ele>
        <time>2024-05-01T12:20:31Z</time>
      </trkpt>
      <trkpt lat="45.71744" lon="3.54436">
        <ele>451.6</ele>
        <time>2024-05-01T12:20:32Z</time>
      </trkpt>
      <trkpt lat="45.71744" lon="3.54445">
        <ele>451.6</ele>
        <time>2024-05-01T12:20:33Z</time>
      </trkpt>
      <trkpt lat="45.71742" lon="3.54454">
        <ele>451.6</ele>
        <time>2024-05-01T12:20:34Z</time>
      </trkpt>
      <trkpt lat="45.71734" lon="3.54469">
        <ele>451.6</ele>
        <time>2024-05-01T12:20:35Z</time>
      </trkpt>
      <trkpt lat="45.71734" lon="3.54469">
        <ele>451.6</ele>
        <time>2024-05-01T12:20:36Z</time>
      </trkpt>
      <trkpt lat="45.71729" lon="3.54474">
        <ele>451.6</ele>
        <time>2024-05-01T12:20:37Z</time>
      </trkpt>
      <trkpt lat="45.71724" lon="3.54479">
        <ele>451.6</ele>
        <time>2024-05-01T12:20:38Z</time>
      </trkpt>
      <trkpt lat="45.71719" lon="3.54484">
        <ele>451.6</ele>
        <time>2024-05-01T12:20:39Z</time>
      </trkpt>
      <trkpt lat="45.71709" lon="3.54494">
        <ele>451.6</ele>
        <time>2024-05-01T12:20:40Z</time>
      </trkpt>
      <trkpt lat="45.71709" lon="3.54494">
        <ele>451.6</ele>
        <time>2024-05-01T12:20:41Z</time>
      </trkpt>
      <trkpt lat="45.71704" lon="3.54499">
        <ele>451.4</ele>
        <time>2024-05-01T12:20:42Z</time>
      </trkpt>
      <trkpt lat="45.71701" lon="3.54506">
        <ele>451.6</ele>
        <time>2024-05-01T12:20:43Z</time>
      </trkpt>
      <trkpt lat="45.71697" lon="3.54522">
        <ele>451.8</ele>
        <time>2024-05-01T12:20:44Z</time>
      </trkpt>
      <trkpt lat="45.71697" lon="3.54522">
        <ele>451.6</ele>
        <time>2024-05-01T12:20:45Z</time>
      </trkpt>
      <trkpt lat="45.71697" lon="3.5453">
        <ele>451.8</ele>
        <time>2024-05-01T12:20:46Z</time>
      </trkpt>
      <trkpt lat="45.71697" lon="3.54539">
        <ele>451.8</ele>
        <time>2024-05-01T12:20:47Z</time>
      </trkpt>
      <trkpt lat="45.71699" lon="3.54545">
        <ele>452</ele>
        <time>2024-05-01T12:20:48Z</time>
      </trkpt>
      <trkpt lat="45.71701" lon="3.54552">
        <ele>452</ele>
        <time>2024-05-01T12:20:49Z</time>
      </trkpt>
      <trkpt lat="45.71703" lon="3.54557">
        <ele>451.8</ele>
        <time>2024-05-01T12:20:50Z</time>
      </trkpt>
      <trkpt lat="45.71705" lon="3.54563">
        <ele>451.8</ele>
        <time>2024-05-01T12:20:51Z</time>
      </trkpt>
      <trkpt lat="45.71707" lon="3.54569">
        <ele>452</ele>
        <time>2024-05-01T12:20:52Z</time>
      </trkpt>
      <trkpt lat="45.71709" lon="3.54575">
        <ele>452</ele>
        <time>2024-05-01T12:20:53Z</time>
      </trkpt>
      <trkpt lat="45.71712" lon="3.5458">
        <ele>452.2</ele>
        <time>2024-05-01T12:20:54Z</time>
      </trkpt>
      <trkpt lat="45.71716" lon="3.54586">
        <ele>452.2</ele>
        <time>2024-05-01T12:20:55Z</time>
      </trkpt>
      <trkpt lat="45.71718" lon="3.54591">
        <ele>452.4</ele>
        <time>2024-05-01T12:20:56Z</time>
      </trkpt>
      <trkpt lat="45.71722" lon="3.54595">
        <ele>452.4</ele>
        <time>2024-05-01T12:20:57Z</time>
      </trkpt>
      <trkpt lat="45.71727" lon="3.54598">
        <ele>452.4</ele>
        <time>2024-05-01T12:20:58Z</time>
      </trkpt>
      <trkpt lat="45.71732" lon="3.54601">
        <ele>452.4</ele>
        <time>2024-05-01T12:20:59Z</time>
      </trkpt>
      <trkpt lat="45.71737" lon="3.54604">
        <ele>452.6</ele>
        <time>2024-05-01T12:21:00Z</time>
      </trkpt>
      <trkpt lat="45.71743" lon="3.54605">
        <ele>452.6</ele>
        <time>2024-05-01T12:21:01Z</time>
      </trkpt>
      <trkpt lat="45.71754" lon="3.54605">
        <ele>452.6</ele>
        <time>2024-05-01T12:21:02Z</time>
      </trkpt>
      <trkpt lat="45.71754" lon="3.54605">
        <ele>452.8</ele>
        <time>2024-05-01T12:21:03Z</time>
      </trkpt>
      <trkpt lat="45.71759" lon="3.54605">
        <ele>452.8</ele>
        <time>2024-05-01T12:21:04Z</time>
      </trkpt>
      <trkpt lat="45.71765" lon="3.54605">
        <ele>453</ele>
        <time>2024-05-01T12:21:05Z</time>
      </trkpt>
      <trkpt lat="45.7177" lon="3.54605">
        <ele>453</ele>
        <time>2024-05-01T12:21:06Z</time>
      </trkpt>
      <trkpt lat="45.71776" lon="3.54605">
        <ele>453</ele>
        <time>2024-05-01T12:21:07Z</time>
      </trkpt>
      <trkpt lat="45.71786" lon="3.54605">
        <ele>453</ele>
        <time>2024-05-01T12:21:08Z</time>
      </trkpt>
      <trkpt lat="45.71786" lon="3.54605">
        <ele>453.2</ele>
        <time>2024-05-01T12:21:09Z</time>
      </trkpt>
      <trkpt lat="45.71791" lon="3.54605">
        <ele>453.2</ele>
        <time>2024-05-01T12:21:10Z</time>
      </trkpt>
      <trkpt lat="45.71796" lon="3.54605">
        <ele>453.4</ele>
        <time>2024-05-01T12:21:11Z</time>
      </trkpt>
      <trkpt lat="45.71802" lon="3.54608">
        <ele>453.4</ele>
        <time>2024-05-01T12:21:12Z</time>
      </trkpt>
      <trkpt lat="45.71807" lon="3.54612">
        <ele>453.6</ele>
        <time>2024-05-01T12:21:13Z</time>
      </trkpt>
      <trkpt lat="45.71812" lon="3.54617">
        <ele>453.6</ele>
        <time>2024-05-01T12:21:14Z</time>
      </trkpt>
      <trkpt lat="45.71816" lon="3.54623">
        <ele>453.6</ele>
        <time>2024-05-01T12:21:15Z</time>
      </trkpt>
      <trkpt lat="45.71819" lon="3.54629">
        <ele>453.8</ele>
        <time>2024-05-01T12:21:16Z</time>
      </trkpt>
      <trkpt lat="45.71823" lon="3.54634">
        <ele>453.8</ele>
        <time>2024-05-01T12:21:17Z</time>
      </trkpt>
      <trkpt lat="45.71826" lon="3.5464">
        <ele>453.8</ele>
        <time>2024-05-01T12:21:18Z</time>
      </trkpt>
      <trkpt lat="45.7183" lon="3.54645">
        <ele>454</ele>
        <time>2024-05-01T12:21:19Z</time>
      </trkpt>
      <trkpt lat="45.71833" lon="3.5465">
        <ele>454</ele>
        <time>2024-05-01T12:21:20Z</time>
      </trkpt>
      <trkpt lat="45.71836" lon="3.54655">
        <ele>454</ele>
        <time>2024-05-01T12:21:21Z</time>
      </trkpt>
      <trkpt lat="45.71839" lon="3.54661">
        <ele>454.2</ele>
        <time>2024-05-01T12:21:22Z</time>
      </trkpt>
      <trkpt lat="45.71842" lon="3.54665">
        <ele>454.2</ele>
        <time>2024-05-01T12:21:23Z</time>
      </trkpt>
      <trkpt lat="45.71845" lon="3.54671">
        <ele>454.4</ele>
        <time>2024-05-01T12:21:24Z</time>
      </trkpt>
      <trkpt lat="45.71849" lon="3.54676">
        <ele>454.4</ele>
        <time>2024-05-01T12:21:25Z</time>
      </trkpt>
      <trkpt lat="45.71852" lon="3.5468">
        <ele>454.4</ele>
        <time>2024-05-01T12:21:26Z</time>
      </trkpt>
      <trkpt lat="45.71855" lon="3.54685">
        <ele>454.6</ele>
        <time>2024-05-01T12:21:27Z</time>
      </trkpt>
      <trkpt lat="45.71859" lon="3.54689">
        <ele>454.6</ele>
        <time>2024-05-01T12:21:28Z</time>
      </trkpt>
      <trkpt lat="45.71862" lon="3.54694">
        <ele>454.8</ele>
        <time>2024-05-01T12:21:29Z</time>
      </trkpt>
      <trkpt lat="45.71865" lon="3.54698">
        <ele>454.8</ele>
        <time>2024-05-01T12:21:30Z</time>
      </trkpt>
      <trkpt lat="45.71869" lon="3.54703">
        <ele>455</ele>
        <time>2024-05-01T12:21:31Z</time>
      </trkpt>
      <trkpt lat="45.71872" lon="3.54708">
        <ele>455</ele>
        <time>2024-05-01T12:21:32Z</time>
      </trkpt>
      <trkpt lat="45.71875" lon="3.54712">
        <ele>455.2</ele>
        <time>2024-05-01T12:21:33Z</time>
      </trkpt>
      <trkpt lat="45.71879" lon="3.54717">
        <ele>455.2</ele>
        <time>2024-05-01T12:21:34Z</time>
      </trkpt>
      <trkpt lat="45.71882" lon="3.54721">
        <ele>455.4</ele>
        <time>2024-05-01T12:21:35Z</time>
      </trkpt>
      <trkpt lat="45.71885" lon="3.54725">
        <ele>455.4</ele>
        <time>2024-05-01T12:21:36Z</time>
      </trkpt>
      <trkpt lat="45.71888" lon="3.5473">
        <ele>455.4</ele>
        <time>2024-05-01T12:21:37Z</time>
      </trkpt>
      <trkpt lat="45.7189" lon="3.54736">
        <ele>455.6</ele>
        <time>2024-05-01T12:21:38Z</time>
      </trkpt>
      <trkpt lat="45.71891" lon="3.54742">
        <ele>455.6</ele>
        <time>2024-05-01T12:21:39Z</time>
      </trkpt>
      <trkpt lat="45.71893" lon="3.54748">
        <ele>455.8</ele>
        <time>2024-05-01T12:21:40Z</time>
      </trkpt>
      <trkpt lat="45.71894" lon="3.54754">
        <ele>455.8</ele>
        <time>2024-05-01T12:21:41Z</time>
      </trkpt>
      <trkpt lat="45.71896" lon="3.5476">
        <ele>456</ele>
        <time>2024-05-01T12:21:42Z</time>
      </trkpt>
      <trkpt lat="45.71898" lon="3.54765">
        <ele>456.2</ele>
        <time>2024-05-01T12:21:43Z</time>
      </trkpt>
      <trkpt lat="45.71901" lon="3.5477">
        <ele>456.4</ele>
        <time>2024-05-01T12:21:44Z</time>
      </trkpt>
      <trkpt lat="45.71903" lon="3.54775">
        <ele>456.4</ele>
        <time>2024-05-01T12:21:45Z</time>
      </trkpt>
      <trkpt lat="45.71905" lon="3.5478">
        <ele>456.6</ele>
        <time>2024-05-01T12:21:46Z</time>
      </trkpt>
      <trkpt lat="45.71908" lon="3.54785">
        <ele>456.8</ele>
        <time>2024-05-01T12:21:47Z</time>
      </trkpt>
      <trkpt lat="45.7191" lon="3.5479">
        <ele>456.8</ele>
        <time>2024-05-01T12:21:48Z</time>
      </trkpt>
      <trkpt lat="45.71912" lon="3.54796">
        <ele>457</ele>
        <time>2024-05-01T12:21:49Z</time>
      </trkpt>
      <trkpt lat="45.71913" lon="3.54802">
        <ele>457</ele>
        <time>2024-05-01T12:21:50Z</time>
      </trkpt>
      <trkpt lat="45.71914" lon="3.54808">
        <ele>457.2</ele>
        <time>2024-05-01T12:21:51Z</time>
      </trkpt>
      <trkpt lat="45.71915" lon="3.54814">
        <ele>457.2</ele>
        <time>2024-05-01T12:21:52Z</time>
      </trkpt>
      <trkpt lat="45.71915" lon="3.5482">
        <ele>457.4</ele>
        <time>2024-05-01T12:21:53Z</time>
      </trkpt>
      <trkpt lat="45.71916" lon="3.54826">
        <ele>457.6</ele>
        <time>2024-05-01T12:21:54Z</time>
      </trkpt>
      <trkpt lat="45.71917" lon="3.54832">
        <ele>457.6</ele>
        <time>2024-05-01T12:21:55Z</time>
      </trkpt>
      <trkpt lat="45.71918" lon="3.54837">
        <ele>457.8</ele>
        <time>2024-05-01T12:21:56Z</time>
      </trkpt>
      <trkpt lat="45.71919" lon="3.54843">
        <ele>457.8</ele>
        <time>2024-05-01T12:21:57Z</time>
      </trkpt>
      <trkpt lat="45.7192" lon="3.54849">
        <ele>458</ele>
        <time>2024-05-01T12:21:58Z</time>
      </trkpt>
      <trkpt lat="45.71921" lon="3.54856">
        <ele>458</ele>
        <time>2024-05-01T12:21:59Z</time>
      </trkpt>
      <trkpt lat="45.71924" lon="3.54863">
        <ele>458.2</ele>
        <time>2024-05-01T12:22:00Z</time>
      </trkpt>
      <trkpt lat="45.71929" lon="3.54867">
        <ele>458.2</ele>
        <time>2024-05-01T12:22:01Z</time>
      </trkpt>
      <trkpt lat="45.71933" lon="3.54872">
        <ele>458.4</ele>
        <time>2024-05-01T12:22:02Z</time>
      </trkpt>
      <trkpt lat="45.71937" lon="3.54874">
        <ele>458.6</ele>
        <time>2024-05-01T12:22:03Z</time>
      </trkpt>
      <trkpt lat="45.71942" lon="3.54875">
        <ele>458.6</ele>
        <time>2024-05-01T12:22:04Z</time>
      </trkpt>
      <trkpt lat="45.71946" lon="3.54877">
        <ele>458.8</ele>
        <time>2024-05-01T12:22:05Z</time>
      </trkpt>
      <trkpt lat="45.7195" lon="3.54877">
        <ele>459</ele>
        <time>2024-05-01T12:22:06Z</time>
      </trkpt>
      <trkpt lat="45.71954" lon="3.54875">
        <ele>459.2</ele>
        <time>2024-05-01T12:22:07Z</time>
      </trkpt>
      <trkpt lat="45.71959" lon="3.54872">
        <ele>459.2</ele>
        <time>2024-05-01T12:22:08Z</time>
      </trkpt>
      <trkpt lat="45.71963" lon="3.54869">
        <ele>459.4</ele>
        <time>2024-05-01T12:22:09Z</time>
      </trkpt>
      <trkpt lat="45.71966" lon="3.54865">
        <ele>459.6</ele>
        <time>2024-05-01T12:22:10Z</time>
      </trkpt>
      <trkpt lat="45.7197" lon="3.54861">
        <ele>459.8</ele>
        <time>2024-05-01T12:22:11Z</time>
      </trkpt>
      <trkpt lat="45.71974" lon="3.54857">
        <ele>460</ele>
        <time>2024-05-01T12:22:12Z</time>
      </trkpt>
      <trkpt lat="45.71978" lon="3.54853">
        <ele>460.2</ele>
        <time>2024-05-01T12:22:13Z</time>
      </trkpt>
      <trkpt lat="45.71981" lon="3.54849">
        <ele>460.2</ele>
        <time>2024-05-01T12:22:14Z</time>
      </trkpt>
      <trkpt lat="45.71985" lon="3.54845">
        <ele>460.4</ele>
        <time>2024-05-01T12:22:15Z</time>
      </trkpt>
      <trkpt lat="45.71989" lon="3.54842">
        <ele>460.6</ele>
        <time>2024-05-01T12:22:16Z</time>
      </trkpt>
      <trkpt lat="45.71992" lon="3.54838">
        <ele>460.8</ele>
        <time>2024-05-01T12:22:17Z</time>
      </trkpt>
      <trkpt lat="45.71996" lon="3.54834">
        <ele>461</ele>
        <time>2024-05-01T12:22:18Z</time>
      </trkpt>
      <trkpt lat="45.71999" lon="3.54831">
        <ele>461</ele>
        <time>2024-05-01T12:22:19Z</time>
      </trkpt>
      <trkpt lat="45.72002" lon="3.54827">
        <ele>461.2</ele>
        <time>2024-05-01T12:22:20Z</time>
      </trkpt>
      <trkpt lat="45.72006" lon="3.54823">
        <ele>461.4</ele>
        <time>2024-05-01T12:22:21Z</time>
      </trkpt>
      <trkpt lat="45.72009" lon="3.5482">
        <ele>461.6</ele>
        <time>2024-05-01T12:22:22Z</time>
      </trkpt>
      <trkpt lat="45.72013" lon="3.54816">
        <ele>461.6</ele>
        <time>2024-05-01T12:22:23Z</time>
      </trkpt>
      <trkpt lat="45.72017" lon="3.54812">
        <ele>461.8</ele>
        <time>2024-05-01T12:22:24Z</time>
      </trkpt>
      <trkpt lat="45.7202" lon="3.54808">
        <ele>462</ele>
        <time>2024-05-01T12:22:25Z</time>
      </trkpt>
      <trkpt lat="45.72024" lon="3.54804">
        <ele>462.2</ele>
        <time>2024-05-01T12:22:26Z</time>
      </trkpt>
      <trkpt lat="45.72027" lon="3.54801">
        <ele>462.4</ele>
        <time>2024-05-01T12:22:27Z</time>
      </trkpt>
      <trkpt lat="45.72031" lon="3.54797">
        <ele>462.4</ele>
        <time>2024-05-01T12:22:28Z</time>
      </trkpt>
      <trkpt lat="45.72034" lon="3.54793">
        <ele>462.6</ele>
        <time>2024-05-01T12:22:29Z</time>
      </trkpt>
      <trkpt lat="45.72036" lon="3.54787">
        <ele>462.6</ele>
        <time>2024-05-01T12:22:30Z</time>
      </trkpt>
      <trkpt lat="45.72037" lon="3.54781">
        <ele>462.8</ele>
        <time>2024-05-01T12:22:31Z</time>
      </trkpt>
      <trkpt lat="45.72038" lon="3.54775">
        <ele>463</ele>
        <time>2024-05-01T12:22:32Z</time>
      </trkpt>
      <trkpt lat="45.72038" lon="3.54768">
        <ele>463</ele>
        <time>2024-05-01T12:22:33Z</time>
      </trkpt>
      <trkpt lat="45.72039" lon="3.54761">
        <ele>463.2</ele>
        <time>2024-05-01T12:22:34Z</time>
      </trkpt>
      <trkpt lat="45.7204" lon="3.54755">
        <ele>463.2</ele>
        <time>2024-05-01T12:22:35Z</time>
      </trkpt>
      <trkpt lat="45.72041" lon="3.54749">
        <ele>463.4</ele>
        <time>2024-05-01T12:22:36Z</time>
      </trkpt>
      <trkpt lat="45.72042" lon="3.54742">
        <ele>463.4</ele>
        <time>2024-05-01T12:22:37Z</time>
      </trkpt>
      <trkpt lat="45.72042" lon="3.54736">
        <ele>463.6</ele>
        <time>2024-05-01T12:22:38Z</time>
      </trkpt>
      <trkpt lat="45.72043" lon="3.5473">
        <ele>463.8</ele>
        <time>2024-05-01T12:22:39Z</time>
      </trkpt>
      <trkpt lat="45.72044" lon="3.54723">
        <ele>464</ele>
        <time>2024-05-01T12:22:40Z</time>
      </trkpt>
      <trkpt lat="45.72045" lon="3.54717">
        <ele>464</ele>
        <time>2024-05-01T12:22:41Z</time>
      </trkpt>
      <trkpt lat="45.72045" lon="3.54711">
        <ele>464.2</ele>
        <time>2024-05-01T12:22:42Z</time>
      </trkpt>
      <trkpt lat="45.72046" lon="3.54704">
        <ele>464.4</ele>
        <time>2024-05-01T12:22:43Z</time>
      </trkpt>
      <trkpt lat="45.72047" lon="3.54698">
        <ele>464.6</ele>
        <time>2024-05-01T12:22:44Z</time>
      </trkpt>
      <trkpt lat="45.72049" lon="3.54692">
        <ele>464.8</ele>
        <time>2024-05-01T12:22:45Z</time>
      </trkpt>
      <trkpt lat="45.7205" lon="3.54686">
        <ele>465</ele>
        <time>2024-05-01T12:22:46Z</time>
      </trkpt>
      <trkpt lat="45.72051" lon="3.5468">
        <ele>465</ele>
        <time>2024-05-01T12:22:47Z</time>
      </trkpt>
      <trkpt lat="45.72052" lon="3.54674">
        <ele>465.2</ele>
        <time>2024-05-01T12:22:48Z</time>
      </trkpt>
      <trkpt lat="45.72053" lon="3.54668">
        <ele>465.4</ele>
        <time>2024-05-01T12:22:49Z</time>
      </trkpt>
      <trkpt lat="45.72054" lon="3.54662">
        <ele>465.6</ele>
        <time>2024-05-01T12:22:50Z</time>
      </trkpt>
      <trkpt lat="45.72056" lon="3.54656">
        <ele>465.8</ele>
        <time>2024-05-01T12:22:51Z</time>
      </trkpt>
      <trkpt lat="45.72057" lon="3.5465">
        <ele>466</ele>
        <time>2024-05-01T12:22:52Z</time>
      </trkpt>
      <trkpt lat="45.72058" lon="3.54645">
        <ele>466</ele>
        <time>2024-05-01T12:22:53Z</time>
      </trkpt>
      <trkpt lat="45.72059" lon="3.54639">
        <ele>466.2</ele>
        <time>2024-05-01T12:22:54Z</time>
      </trkpt>
      <trkpt lat="45.7206" lon="3.54633">
        <ele>466.4</ele>
        <time>2024-05-01T12:22:55Z</time>
      </trkpt>
      <trkpt lat="45.72061" lon="3.54626">
        <ele>466.4</ele>
        <time>2024-05-01T12:22:56Z</time>
      </trkpt>
      <trkpt lat="45.72063" lon="3.54621">
        <ele>466.6</ele>
        <time>2024-05-01T12:22:57Z</time>
      </trkpt>
      <trkpt lat="45.72064" lon="3.54615">
        <ele>466.8</ele>
        <time>2024-05-01T12:22:58Z</time>
      </trkpt>
      <trkpt lat="45.72065" lon="3.54609">
        <ele>466.8</ele>
        <time>2024-05-01T12:22:59Z</time>
      </trkpt>
      <trkpt lat="45.72066" lon="3.54603">
        <ele>467</ele>
        <time>2024-05-01T12:23:00Z</time>
      </trkpt>
      <trkpt lat="45.72066" lon="3.54597">
        <ele>467.2</ele>
        <time>2024-05-01T12:23:01Z</time>
      </trkpt>
      <trkpt lat="45.72067" lon="3.5459">
        <ele>467.2</ele>
        <time>2024-05-01T12:23:02Z</time>
      </trkpt>
      <trkpt lat="45.72067" lon="3.54583">
        <ele>467.4</ele>
        <time>2024-05-01T12:23:03Z</time>
      </trkpt>
      <trkpt lat="45.72068" lon="3.54576">
        <ele>467.6</ele>
        <time>2024-05-01T12:23:04Z</time>
      </trkpt>
      <trkpt lat="45.72068" lon="3.54569">
        <ele>467.6</ele>
        <time>2024-05-01T12:23:05Z</time>
      </trkpt>
      <trkpt lat="45.72069" lon="3.54562">
        <ele>467.8</ele>
        <time>2024-05-01T12:23:06Z</time>
      </trkpt>
      <trkpt lat="45.72069" lon="3.54555">
        <ele>467.8</ele>
        <time>2024-05-01T12:23:07Z</time>
      </trkpt>
      <trkpt lat="45.7207" lon="3.54548">
        <ele>468</ele>
        <time>2024-05-01T12:23:08Z</time>
      </trkpt>
      <trkpt lat="45.7207" lon="3.5454">
        <ele>468</ele>
        <time>2024-05-01T12:23:09Z</time>
      </trkpt>
      <trkpt lat="45.72071" lon="3.54533">
        <ele>468.2</ele>
        <time>2024-05-01T12:23:10Z</time>
      </trkpt>
      <trkpt lat="45.72071" lon="3.54524">
        <ele>468.2</ele>
        <time>2024-05-01T12:23:11Z</time>
      </trkpt>
      <trkpt lat="45.72072" lon="3.54516">
        <ele>468.2</ele>
        <time>2024-05-01T12:23:12Z</time>
      </trkpt>
      <trkpt lat="45.72073" lon="3.54508">
        <ele>468.2</ele>
        <time>2024-05-01T12:23:13Z</time>
      </trkpt>
      <trkpt lat="45.72075" lon="3.54499">
        <ele>468.2</ele>
        <time>2024-05-01T12:23:14Z</time>
      </trkpt>
      <trkpt lat="45.72077" lon="3.54489">
        <ele>468.2</ele>
        <time>2024-05-01T12:23:15Z</time>
      </trkpt>
      <trkpt lat="45.7208" lon="3.5448">
        <ele>468.2</ele>
        <time>2024-05-01T12:23:16Z</time>
      </trkpt>
      <trkpt lat="45.72082" lon="3.5447">
        <ele>468.2</ele>
        <time>2024-05-01T12:23:17Z</time>
      </trkpt>
      <trkpt lat="45.72084" lon="3.5446">
        <ele>468.2</ele>
        <time>2024-05-01T12:23:18Z</time>
      </trkpt>
      <trkpt lat="45.72086" lon="3.54449">
        <ele>468.2</ele>
        <time>2024-05-01T12:23:19Z</time>
      </trkpt>
      <trkpt lat="45.7209" lon="3.54439">
        <ele>468.2</ele>
        <time>2024-05-01T12:23:20Z</time>
      </trkpt>
      <trkpt lat="45.72093" lon="3.54428">
        <ele>468</ele>
        <time>2024-05-01T12:23:21Z</time>
      </trkpt>
      <trkpt lat="45.72097" lon="3.54417">
        <ele>468</ele>
        <time>2024-05-01T12:23:22Z</time>
      </trkpt>
      <trkpt lat="45.72101" lon="3.54406">
        <ele>468</ele>
        <time>2024-05-01T12:23:23Z</time>
      </trkpt>
      <trkpt lat="45.72105" lon="3.54395">
        <ele>468</ele>
        <time>2024-05-01T12:23:24Z</time>
      </trkpt>
      <trkpt lat="45.7211" lon="3.54386">
        <ele>467.8</ele>
        <time>2024-05-01T12:23:25Z</time>
      </trkpt>
      <trkpt lat="45.72116" lon="3.54377">
        <ele>468.8</ele>
        <time>2024-05-01T12:23:26Z</time>
      </trkpt>
      <trkpt lat="45.72122" lon="3.54369">
        <ele>468.4</ele>
        <time>2024-05-01T12:23:27Z</time>
      </trkpt>
      <trkpt lat="45.7213" lon="3.54365">
        <ele>467.8</ele>
        <time>2024-05-01T12:23:28Z</time>
      </trkpt>
      <trkpt lat="45.72139" lon="3.5436">
        <ele>467</ele>
        <time>2024-05-01T12:23:29Z</time>
      </trkpt>
      <trkpt lat="45.72147" lon="3.54356">
        <ele>467.4</ele>
        <time>2024-05-01T12:23:30Z</time>
      </trkpt>
      <trkpt lat="45.72156" lon="3.54352">
        <ele>467.2</ele>
        <time>2024-05-01T12:23:31Z</time>
      </trkpt>
      <trkpt lat="45.72166" lon="3.5435">
        <ele>467</ele>
        <time>2024-05-01T12:23:32Z</time>
      </trkpt>
      <trkpt lat="45.72175" lon="3.54348">
        <ele>466.8</ele>
        <time>2024-05-01T12:23:33Z</time>
      </trkpt>
      <trkpt lat="45.72185" lon="3.54346">
        <ele>466.8</ele>
        <time>2024-05-01T12:23:34Z</time>
      </trkpt>
      <trkpt lat="45.72194" lon="3.54345">
        <ele>466.6</ele>
        <time>2024-05-01T12:23:35Z</time>
      </trkpt>
      <trkpt lat="45.72204" lon="3.54343">
        <ele>466.4</ele>
        <time>2024-05-01T12:23:36Z</time>
      </trkpt>
      <trkpt lat="45.72213" lon="3.54341">
        <ele>466.4</ele>
        <time>2024-05-01T12:23:37Z</time>
      </trkpt>
      <trkpt lat="45.72223" lon="3.54339">
        <ele>466.2</ele>
        <time>2024-05-01T12:23:38Z</time>
      </trkpt>
      <trkpt lat="45.72232" lon="3.54337">
        <ele>466</ele>
        <time>2024-05-01T12:23:39Z</time>
      </trkpt>
      <trkpt lat="45.72241" lon="3.54335">
        <ele>465.8</ele>
        <time>2024-05-01T12:23:40Z</time>
      </trkpt>
      <trkpt lat="45.72249" lon="3.54334">
        <ele>465.6</ele>
        <time>2024-05-01T12:23:41Z</time>
      </trkpt>
      <trkpt lat="45.72258" lon="3.54331">
        <ele>465.6</ele>
        <time>2024-05-01T12:23:42Z</time>
      </trkpt>
      <trkpt lat="45.72265" lon="3.54326">
        <ele>465.4</ele>
        <time>2024-05-01T12:23:43Z</time>
      </trkpt>
      <trkpt lat="45.72273" lon="3.54322">
        <ele>465.2</ele>
        <time>2024-05-01T12:23:44Z</time>
      </trkpt>
      <trkpt lat="45.72281" lon="3.54317">
        <ele>465</ele>
        <time>2024-05-01T12:23:45Z</time>
      </trkpt>
      <trkpt lat="45.72289" lon="3.54313">
        <ele>464.8</ele>
        <time>2024-05-01T12:23:46Z</time>
      </trkpt>
      <trkpt lat="45.72297" lon="3.54308">
        <ele>464.6</ele>
        <time>2024-05-01T12:23:47Z</time>
      </trkpt>
      <trkpt lat="45.72305" lon="3.54306">
        <ele>464.4</ele>
        <time>2024-05-01T12:23:48Z</time>
      </trkpt>
      <trkpt lat="45.72313" lon="3.54305">
        <ele>464.2</ele>
        <time>2024-05-01T12:23:49Z</time>
      </trkpt>
      <trkpt lat="45.72321" lon="3.54307">
        <ele>464</ele>
        <time>2024-05-01T12:23:50Z</time>
      </trkpt>
      <trkpt lat="45.72329" lon="3.54309">
        <ele>463.6</ele>
        <time>2024-05-01T12:23:51Z</time>
      </trkpt>
      <trkpt lat="45.72337" lon="3.54311">
        <ele>463.4</ele>
        <time>2024-05-01T12:23:52Z</time>
      </trkpt>
      <trkpt lat="45.72346" lon="3.54313">
        <ele>463.2</ele>
        <time>2024-05-01T12:23:53Z</time>
      </trkpt>
      <trkpt lat="45.72354" lon="3.54315">
        <ele>463</ele>
        <time>2024-05-01T12:23:54Z</time>
      </trkpt>
      <trkpt lat="45.72361" lon="3.54317">
        <ele>462.8</ele>
        <time>2024-05-01T12:23:55Z</time>
      </trkpt>
      <trkpt lat="45.72369" lon="3.54318">
        <ele>462.4</ele>
        <time>2024-05-01T12:23:56Z</time>
      </trkpt>
      <trkpt lat="45.72376" lon="3.54319">
        <ele>462.2</ele>
        <time>2024-05-01T12:23:57Z</time>
      </trkpt>
      <trkpt lat="45.72384" lon="3.54317">
        <ele>461.8</ele>
        <time>2024-05-01T12:23:58Z</time>
      </trkpt>
      <trkpt lat="45.72393" lon="3.54315">
        <ele>461.6</ele>
        <time>2024-05-01T12:23:59Z</time>
      </trkpt>
      <trkpt lat="45.72402" lon="3.54313">
        <ele>461.4</ele>
        <time>2024-05-01T12:24:00Z</time>
      </trkpt>
      <trkpt lat="45.72411" lon="3.5431">
        <ele>461</ele>
        <time>2024-05-01T12:24:01Z</time>
      </trkpt>
      <trkpt lat="45.7242" lon="3.54308">
        <ele>460.8</ele>
        <time>2024-05-01T12:24:02Z</time>
      </trkpt>
      <trkpt lat="45.7243" lon="3.54306">
        <ele>460.4</ele>
        <time>2024-05-01T12:24:03Z</time>
      </trkpt>
      <trkpt lat="45.7244" lon="3.54303">
        <ele>460.2</ele>
        <time>2024-05-01T12:24:04Z</time>
      </trkpt>
      <trkpt lat="45.72449" lon="3.54301">
        <ele>460</ele>
        <time>2024-05-01T12:24:05Z</time>
      </trkpt>
      <trkpt lat="45.72459" lon="3.54298">
        <ele>459.6</ele>
        <time>2024-05-01T12:24:06Z</time>
      </trkpt>
      <trkpt lat="45.7247" lon="3.54297">
        <ele>459.4</ele>
        <time>2024-05-01T12:24:07Z</time>
      </trkpt>
      <trkpt lat="45.7248" lon="3.54298">
        <ele>459</ele>
        <time>2024-05-01T12:24:08Z</time>
      </trkpt>
      <trkpt lat="45.7249" lon="3.54299">
        <ele>458.8</ele>
        <time>2024-05-01T12:24:09Z</time>
      </trkpt>
      <trkpt lat="45.72501" lon="3.54301">
        <ele>458.4</ele>
        <time>2024-05-01T12:24:10Z</time>
      </trkpt>
      <trkpt lat="45.72511" lon="3.54302">
        <ele>458</ele>
        <time>2024-05-01T12:24:11Z</time>
      </trkpt>
      <trkpt lat="45.72521" lon="3.54303">
        <ele>457.8</ele>
        <time>2024-05-01T12:24:12Z</time>
      </trkpt>
      <trkpt lat="45.72531" lon="3.54304">
        <ele>457.4</ele>
        <time>2024-05-01T12:24:13Z</time>
      </trkpt>
      <trkpt lat="45.7254" lon="3.54307">
        <ele>457</ele>
        <time>2024-05-01T12:24:14Z</time>
      </trkpt>
      <trkpt lat="45.72549" lon="3.54309">
        <ele>456.8</ele>
        <time>2024-05-01T12:24:15Z</time>
      </trkpt>
      <trkpt lat="45.72558" lon="3.54311">
        <ele>456.4</ele>
        <time>2024-05-01T12:24:16Z</time>
      </trkpt>
      <trkpt lat="45.72567" lon="3.54314">
        <ele>456</ele>
        <time>2024-05-01T12:24:17Z</time>
      </trkpt>
      <trkpt lat="45.72576" lon="3.54316">
        <ele>455.6</ele>
        <time>2024-05-01T12:24:18Z</time>
      </trkpt>
      <trkpt lat="45.72585" lon="3.54319">
        <ele>455.2</ele>
        <time>2024-05-01T12:24:19Z</time>
      </trkpt>
      <trkpt lat="45.72594" lon="3.54321">
        <ele>454.8</ele>
        <time>2024-05-01T12:24:20Z</time>
      </trkpt>
      <trkpt lat="45.72603" lon="3.54323">
        <ele>454.4</ele>
        <time>2024-05-01T12:24:21Z</time>
      </trkpt>
      <trkpt lat="45.72612" lon="3.54323">
        <ele>454</ele>
        <time>2024-05-01T12:24:22Z</time>
      </trkpt>
      <trkpt lat="45.7262" lon="3.54321">
        <ele>453.6</ele>
        <time>2024-05-01T12:24:23Z</time>
      </trkpt>
      <trkpt lat="45.72628" lon="3.5432">
        <ele>453.4</ele>
        <time>2024-05-01T12:24:24Z</time>
      </trkpt>
      <trkpt lat="45.72632" lon="3.54312">
        <ele>453</ele>
        <time>2024-05-01T12:24:25Z</time>
      </trkpt>
      <trkpt lat="45.72637" lon="3.54304">
        <ele>452.6</ele>
        <time>2024-05-01T12:24:26Z</time>
      </trkpt>
      <trkpt lat="45.72641" lon="3.54296">
        <ele>452.2</ele>
        <time>2024-05-01T12:24:27Z</time>
      </trkpt>
      <trkpt lat="45.72645" lon="3.54289">
        <ele>451.8</ele>
        <time>2024-05-01T12:24:28Z</time>
      </trkpt>
      <trkpt lat="45.72649" lon="3.54281">
        <ele>451.4</ele>
        <time>2024-05-01T12:24:29Z</time>
      </trkpt>
      <trkpt lat="45.72654" lon="3.54273">
        <ele>451</ele>
        <time>2024-05-01T12:24:30Z</time>
      </trkpt>
      <trkpt lat="45.72658" lon="3.54264">
        <ele>450.6</ele>
        <time>2024-05-01T12:24:31Z</time>
      </trkpt>
      <trkpt lat="45.72664" lon="3.54256">
        <ele>450.2</ele>
        <time>2024-05-01T12:24:32Z</time>
      </trkpt>
      <trkpt lat="45.7267" lon="3.54252">
        <ele>449.8</ele>
        <time>2024-05-01T12:24:33Z</time>
      </trkpt>
      <trkpt lat="45.72677" lon="3.54247">
        <ele>449.4</ele>
        <time>2024-05-01T12:24:34Z</time>
      </trkpt>
      <trkpt lat="45.72685" lon="3.54242">
        <ele>449</ele>
        <time>2024-05-01T12:24:35Z</time>
      </trkpt>
      <trkpt lat="45.72693" lon="3.54242">
        <ele>448.4</ele>
        <time>2024-05-01T12:24:36Z</time>
      </trkpt>
      <trkpt lat="45.72702" lon="3.54241">
        <ele>448</ele>
        <time>2024-05-01T12:24:37Z</time>
      </trkpt>
      <trkpt lat="45.72711" lon="3.54241">
        <ele>447.8</ele>
        <time>2024-05-01T12:24:38Z</time>
      </trkpt>
      <trkpt lat="45.7272" lon="3.54242">
        <ele>447.4</ele>
        <time>2024-05-01T12:24:39Z</time>
      </trkpt>
      <trkpt lat="45.72729" lon="3.54244">
        <ele>447</ele>
        <time>2024-05-01T12:24:40Z</time>
      </trkpt>
      <trkpt lat="45.72739" lon="3.54245">
        <ele>446.4</ele>
        <time>2024-05-01T12:24:41Z</time>
      </trkpt>
      <trkpt lat="45.72748" lon="3.54247">
        <ele>446</ele>
        <time>2024-05-01T12:24:42Z</time>
      </trkpt>
      <trkpt lat="45.72758" lon="3.54249">
        <ele>445.6</ele>
        <time>2024-05-01T12:24:43Z</time>
      </trkpt>
      <trkpt lat="45.72768" lon="3.54251">
        <ele>445.2</ele>
        <time>2024-05-01T12:24:44Z</time>
      </trkpt>
      <trkpt lat="45.72779" lon="3.54253">
        <ele>444.6</ele>
        <time>2024-05-01T12:24:45Z</time>
      </trkpt>
      <trkpt lat="45.7279" lon="3.54256">
        <ele>444.2</ele>
        <time>2024-05-01T12:24:46Z</time>
      </trkpt>
      <trkpt lat="45.72799" lon="3.54262">
        <ele>443.6</ele>
        <time>2024-05-01T12:24:47Z</time>
      </trkpt>
      <trkpt lat="45.72809" lon="3.54268">
        <ele>443.2</ele>
        <time>2024-05-01T12:24:48Z</time>
      </trkpt>
      <trkpt lat="45.72818" lon="3.54276">
        <ele>442.8</ele>
        <time>2024-05-01T12:24:49Z</time>
      </trkpt>
      <trkpt lat="45.72827" lon="3.54284">
        <ele>442.2</ele>
        <time>2024-05-01T12:24:50Z</time>
      </trkpt>
      <trkpt lat="45.72836" lon="3.54292">
        <ele>441.8</ele>
        <time>2024-05-01T12:24:51Z</time>
      </trkpt>
      <trkpt lat="45.72845" lon="3.54301">
        <ele>441.2</ele>
        <time>2024-05-01T12:24:52Z</time>
      </trkpt>
      <trkpt lat="45.72854" lon="3.54308">
        <ele>440.8</ele>
        <time>2024-05-01T12:24:53Z</time>
      </trkpt>
      <trkpt lat="45.72864" lon="3.54314">
        <ele>440.4</ele>
        <time>2024-05-01T12:24:54Z</time>
      </trkpt>
      <trkpt lat="45.72873" lon="3.54319">
        <ele>439.8</ele>
        <time>2024-05-01T12:24:55Z</time>
      </trkpt>
      <trkpt lat="45.72882" lon="3.54325">
        <ele>439.4</ele>
        <time>2024-05-01T12:24:56Z</time>
      </trkpt>
      <trkpt lat="45.7289" lon="3.5433">
        <ele>438.8</ele>
        <time>2024-05-01T12:24:57Z</time>
      </trkpt>
      <trkpt lat="45.72899" lon="3.54335">
        <ele>438.4</ele>
        <time>2024-05-01T12:24:58Z</time>
      </trkpt>
      <trkpt lat="45.72908" lon="3.5434">
        <ele>437.8</ele>
        <time>2024-05-01T12:24:59Z</time>
      </trkpt>
      <trkpt lat="45.72918" lon="3.54346">
        <ele>437.4</ele>
        <time>2024-05-01T12:25:00Z</time>
      </trkpt>
      <trkpt lat="45.72927" lon="3.54351">
        <ele>436.8</ele>
        <time>2024-05-01T12:25:01Z</time>
      </trkpt>
      <trkpt lat="45.72937" lon="3.54357">
        <ele>436.2</ele>
        <time>2024-05-01T12:25:02Z</time>
      </trkpt>
      <trkpt lat="45.72946" lon="3.54363">
        <ele>435.8</ele>
        <time>2024-05-01T12:25:03Z</time>
      </trkpt>
      <trkpt lat="45.72956" lon="3.54369">
        <ele>435.2</ele>
        <time>2024-05-01T12:25:04Z</time>
      </trkpt>
      <trkpt lat="45.72965" lon="3.54376">
        <ele>434.8</ele>
        <time>2024-05-01T12:25:05Z</time>
      </trkpt>
      <trkpt lat="45.72974" lon="3.54384">
        <ele>434.2</ele>
        <time>2024-05-01T12:25:06Z</time>
      </trkpt>
      <trkpt lat="45.72984" lon="3.54393">
        <ele>433.6</ele>
        <time>2024-05-01T12:25:07Z</time>
      </trkpt>
      <trkpt lat="45.72993" lon="3.54401">
        <ele>433.2</ele>
        <time>2024-05-01T12:25:08Z</time>
      </trkpt>
      <trkpt lat="45.73003" lon="3.54406">
        <ele>432.6</ele>
        <time>2024-05-01T12:25:09Z</time>
      </trkpt>
      <trkpt lat="45.73012" lon="3.54411">
        <ele>432</ele>
        <time>2024-05-01T12:25:10Z</time>
      </trkpt>
      <trkpt lat="45.73022" lon="3.54416">
        <ele>431.6</ele>
        <time>2024-05-01T12:25:11Z</time>
      </trkpt>
      <trkpt lat="45.73031" lon="3.54418">
        <ele>431</ele>
        <time>2024-05-01T12:25:12Z</time>
      </trkpt>
      <trkpt lat="45.73041" lon="3.5442">
        <ele>430.6</ele>
        <time>2024-05-01T12:25:13Z</time>
      </trkpt>
      <trkpt lat="45.73051" lon="3.54423">
        <ele>430</ele>
        <time>2024-05-01T12:25:14Z</time>
      </trkpt>
      <trkpt lat="45.73061" lon="3.54425">
        <ele>429.4</ele>
        <time>2024-05-01T12:25:15Z</time>
      </trkpt>
      <trkpt lat="45.7307" lon="3.54427">
        <ele>429</ele>
        <time>2024-05-01T12:25:16Z</time>
      </trkpt>
      <trkpt lat="45.73079" lon="3.54433">
        <ele>428.4</ele>
        <time>2024-05-01T12:25:17Z</time>
      </trkpt>
      <trkpt lat="45.73089" lon="3.54439">
        <ele>427.8</ele>
        <time>2024-05-01T12:25:18Z</time>
      </trkpt>
      <trkpt lat="45.73097" lon="3.54446">
        <ele>427.4</ele>
        <time>2024-05-01T12:25:19Z</time>
      </trkpt>
      <trkpt lat="45.73104" lon="3.54455">
        <ele>426.8</ele>
        <time>2024-05-01T12:25:20Z</time>
      </trkpt>
      <trkpt lat="45.73111" lon="3.54464">
        <ele>426.2</ele>
        <time>2024-05-01T12:25:21Z</time>
      </trkpt>
      <trkpt lat="45.73117" lon="3.54473">
        <ele>425.8</ele>
        <time>2024-05-01T12:25:22Z</time>
      </trkpt>
      <trkpt lat="45.73123" lon="3.54483">
        <ele>425.2</ele>
        <time>2024-05-01T12:25:23Z</time>
      </trkpt>
      <trkpt lat="45.73129" lon="3.54492">
        <ele>424.6</ele>
        <time>2024-05-01T12:25:24Z</time>
      </trkpt>
      <trkpt lat="45.73134" lon="3.54502">
        <ele>424</ele>
        <time>2024-05-01T12:25:25Z</time>
      </trkpt>
      <trkpt lat="45.7314" lon="3.54512">
        <ele>423.4</ele>
        <time>2024-05-01T12:25:26Z</time>
      </trkpt>
      <trkpt lat="45.73146" lon="3.54521">
        <ele>422.8</ele>
        <time>2024-05-01T12:25:27Z</time>
      </trkpt>
      <trkpt lat="45.73151" lon="3.54531">
        <ele>422.4</ele>
        <time>2024-05-01T12:25:28Z</time>
      </trkpt>
      <trkpt lat="45.73157" lon="3.5454">
        <ele>421.8</ele>
        <time>2024-05-01T12:25:29Z</time>
      </trkpt>
      <trkpt lat="45.73162" lon="3.54549">
        <ele>421.4</ele>
        <time>2024-05-01T12:25:30Z</time>
      </trkpt>
      <trkpt lat="45.73167" lon="3.54559">
        <ele>420.8</ele>
        <time>2024-05-01T12:25:31Z</time>
      </trkpt>
      <trkpt lat="45.73169" lon="3.5457">
        <ele>420.2</ele>
        <time>2024-05-01T12:25:32Z</time>
      </trkpt>
      <trkpt lat="45.73172" lon="3.54581">
        <ele>419.6</ele>
        <time>2024-05-01T12:25:33Z</time>
      </trkpt>
      <trkpt lat="45.7317" lon="3.54595">
        <ele>419</ele>
        <time>2024-05-01T12:25:34Z</time>
      </trkpt>
      <trkpt lat="45.73163" lon="3.54618">
        <ele>418.4</ele>
        <time>2024-05-01T12:25:35Z</time>
      </trkpt>
      <trkpt lat="45.73163" lon="3.54618">
        <ele>417.8</ele>
        <time>2024-05-01T12:25:36Z</time>
      </trkpt>
      <trkpt lat="45.73159" lon="3.54629">
        <ele>417.2</ele>
        <time>2024-05-01T12:25:37Z</time>
      </trkpt>
      <trkpt lat="45.73153" lon="3.54641">
        <ele>416.6</ele>
        <time>2024-05-01T12:25:38Z</time>
      </trkpt>
      <trkpt lat="45.73141" lon="3.54661">
        <ele>416</ele>
        <time>2024-05-01T12:25:39Z</time>
      </trkpt>
      <trkpt lat="45.73134" lon="3.54671">
        <ele>415.4</ele>
        <time>2024-05-01T12:25:40Z</time>
      </trkpt>
      <trkpt lat="45.73134" lon="3.54671">
        <ele>414.8</ele>
        <time>2024-05-01T12:25:41Z</time>
      </trkpt>
      <trkpt lat="45.73128" lon="3.54681">
        <ele>414</ele>
        <time>2024-05-01T12:25:42Z</time>
      </trkpt>
      <trkpt lat="45.73122" lon="3.54691">
        <ele>413.4</ele>
        <time>2024-05-01T12:25:43Z</time>
      </trkpt>
      <trkpt lat="45.73113" lon="3.54712">
        <ele>412.8</ele>
        <time>2024-05-01T12:25:44Z</time>
      </trkpt>
      <trkpt lat="45.73113" lon="3.54712">
        <ele>412.2</ele>
        <time>2024-05-01T12:25:45Z</time>
      </trkpt>
      <trkpt lat="45.73109" lon="3.54722">
        <ele>411.8</ele>
        <time>2024-05-01T12:25:46Z</time>
      </trkpt>
      <trkpt lat="45.73108" lon="3.54732">
        <ele>411.2</ele>
        <time>2024-05-01T12:25:47Z</time>
      </trkpt>
      <trkpt lat="45.73108" lon="3.54755">
        <ele>410.6</ele>
        <time>2024-05-01T12:25:48Z</time>
      </trkpt>
      <trkpt lat="45.73108" lon="3.54755">
        <ele>410</ele>
        <time>2024-05-01T12:25:49Z</time>
      </trkpt>
      <trkpt lat="45.73111" lon="3.54765">
        <ele>409.4</ele>
        <time>2024-05-01T12:25:50Z</time>
      </trkpt>
      <trkpt lat="45.73114" lon="3.54776">
        <ele>409</ele>
        <time>2024-05-01T12:25:51Z</time>
      </trkpt>
      <trkpt lat="45.73123" lon="3.54796">
        <ele>408.4</ele>
        <time>2024-05-01T12:25:52Z</time>
      </trkpt>
      <trkpt lat="45.73123" lon="3.54796">
        <ele>407.8</ele>
        <time>2024-05-01T12:25:53Z</time>
      </trkpt>
      <trkpt lat="45.73128" lon="3.54804">
        <ele>407.2</ele>
        <time>2024-05-01T12:25:54Z</time>
      </trkpt>
      <trkpt lat="45.73134" lon="3.54813">
        <ele>406.6</ele>
        <time>2024-05-01T12:25:55Z</time>
      </trkpt>
      <trkpt lat="45.7314" lon="3.5482">
        <ele>406</ele>
        <time>2024-05-01T12:25:56Z</time>
      </trkpt>
      <trkpt lat="45.73146" lon="3.54826">
        <ele>405.6</ele>
        <time>2024-05-01T12:25:57Z</time>
      </trkpt>
      <trkpt lat="45.73152" lon="3.54834">
        <ele>405</ele>
        <time>2024-05-01T12:25:58Z</time>
      </trkpt>
      <trkpt lat="45.73158" lon="3.54841">
        <ele>404.4</ele>
        <time>2024-05-01T12:25:59Z</time>
      </trkpt>
      <trkpt lat="45.73164" lon="3.54846">
        <ele>403.8</ele>
        <time>2024-05-01T12:26:00Z</time>
      </trkpt>
      <trkpt lat="45.73169" lon="3.54852">
        <ele>403.2</ele>
        <time>2024-05-01T12:26:01Z</time>
      </trkpt>
      <trkpt lat="45.73175" lon="3.54855">
        <ele>402.6</ele>
        <time>2024-05-01T12:26:02Z</time>
      </trkpt>
      <trkpt lat="45.73182" lon="3.54859">
        <ele>402</ele>
        <time>2024-05-01T12:26:03Z</time>
      </trkpt>
      <trkpt lat="45.7319" lon="3.54864">
        <ele>401.4</ele>
        <time>2024-05-01T12:26:04Z</time>
      </trkpt>
      <trkpt lat="45.73202" lon="3.54865">
        <ele>400.8</ele>
        <time>2024-05-01T12:26:05Z</time>
      </trkpt>
      <trkpt lat="45.73213" lon="3.54865">
        <ele>400.2</ele>
        <time>2024-05-01T12:26:06Z</time>
      </trkpt>
      <trkpt lat="45.73225" lon="3.54863">
        <ele>399.6</ele>
        <time>2024-05-01T12:26:07Z</time>
      </trkpt>
      <trkpt lat="45.73236" lon="3.54862">
        <ele>399</ele>
        <time>2024-05-01T12:26:08Z</time>
      </trkpt>
      <trkpt lat="45.73248" lon="3.54861">
        <ele>398.2</ele>
        <time>2024-05-01T12:26:09Z</time>
      </trkpt>
      <trkpt lat="45.73259" lon="3.54861">
        <ele>397.6</ele>
        <time>2024-05-01T12:26:10Z</time>
      </trkpt>
      <trkpt lat="45.7327" lon="3.54862">
        <ele>397</ele>
        <time>2024-05-01T12:26:11Z</time>
      </trkpt>
      <trkpt lat="45.7328" lon="3.54863">
        <ele>396.4</ele>
        <time>2024-05-01T12:26:12Z</time>
      </trkpt>
      <trkpt lat="45.73291" lon="3.54863">
        <ele>395.8</ele>
        <time>2024-05-01T12:26:13Z</time>
      </trkpt>
      <trkpt lat="45.73301" lon="3.54864">
        <ele>395.2</ele>
        <time>2024-05-01T12:26:14Z</time>
      </trkpt>
      <trkpt lat="45.73312" lon="3.54865">
        <ele>394.8</ele>
        <time>2024-05-01T12:26:15Z</time>
      </trkpt>
      <trkpt lat="45.73323" lon="3.54865">
        <ele>394.2</ele>
        <time>2024-05-01T12:26:16Z</time>
      </trkpt>
      <trkpt lat="45.73333" lon="3.54866">
        <ele>393.6</ele>
        <time>2024-05-01T12:26:17Z</time>
      </trkpt>
      <trkpt lat="45.73343" lon="3.54867">
        <ele>393.2</ele>
        <time>2024-05-01T12:26:18Z</time>
      </trkpt>
      <trkpt lat="45.73354" lon="3.54866">
        <ele>392.6</ele>
        <time>2024-05-01T12:26:19Z</time>
      </trkpt>
      <trkpt lat="45.73365" lon="3.54864">
        <ele>392</ele>
        <time>2024-05-01T12:26:20Z</time>
      </trkpt>
      <trkpt lat="45.73376" lon="3.54862">
        <ele>391.6</ele>
        <time>2024-05-01T12:26:21Z</time>
      </trkpt>
      <trkpt lat="45.73386" lon="3.54859">
        <ele>391</ele>
        <time>2024-05-01T12:26:22Z</time>
      </trkpt>
      <trkpt lat="45.73397" lon="3.54859">
        <ele>390.4</ele>
        <time>2024-05-01T12:26:23Z</time>
      </trkpt>
      <trkpt lat="45.73408" lon="3.54859">
        <ele>389.8</ele>
        <time>2024-05-01T12:26:24Z</time>
      </trkpt>
      <trkpt lat="45.73418" lon="3.5486">
        <ele>389.2</ele>
        <time>2024-05-01T12:26:25Z</time>
      </trkpt>
      <trkpt lat="45.73428" lon="3.54861">
        <ele>388.6</ele>
        <time>2024-05-01T12:26:26Z</time>
      </trkpt>
      <trkpt lat="45.73438" lon="3.54865">
        <ele>388</ele>
        <time>2024-05-01T12:26:27Z</time>
      </trkpt>
      <trkpt lat="45.73449" lon="3.54869">
        <ele>387.2</ele>
        <time>2024-05-01T12:26:28Z</time>
      </trkpt>
      <trkpt lat="45.7346" lon="3.54873">
        <ele>386.6</ele>
        <time>2024-05-01T12:26:29Z</time>
      </trkpt>
      <trkpt lat="45.73471" lon="3.54879">
        <ele>386</ele>
        <time>2024-05-01T12:26:30Z</time>
      </trkpt>
      <trkpt lat="45.73481" lon="3.54886">
        <ele>385.4</ele>
        <time>2024-05-01T12:26:31Z</time>
      </trkpt>
      <trkpt lat="45.73492" lon="3.54894">
        <ele>384.8</ele>
        <time>2024-05-01T12:26:32Z</time>
      </trkpt>
      <trkpt lat="45.73501" lon="3.54904">
        <ele>384.2</ele>
        <time>2024-05-01T12:26:33Z</time>
      </trkpt>
      <trkpt lat="45.73509" lon="3.54913">
        <ele>383.6</ele>
        <time>2024-05-01T12:26:34Z</time>
      </trkpt>
      <trkpt lat="45.73517" lon="3.54921">
        <ele>382.8</ele>
        <time>2024-05-01T12:26:35Z</time>
      </trkpt>
      <trkpt lat="45.73525" lon="3.5493">
        <ele>382.2</ele>
        <time>2024-05-01T12:26:36Z</time>
      </trkpt>
      <trkpt lat="45.73533" lon="3.54939">
        <ele>381.6</ele>
        <time>2024-05-01T12:26:37Z</time>
      </trkpt>
      <trkpt lat="45.73541" lon="3.54947">
        <ele>381.2</ele>
        <time>2024-05-01T12:26:38Z</time>
      </trkpt>
      <trkpt lat="45.73549" lon="3.54955">
        <ele>380.6</ele>
        <time>2024-05-01T12:26:39Z</time>
      </trkpt>
      <trkpt lat="45.73557" lon="3.54961">
        <ele>380</ele>
        <time>2024-05-01T12:26:40Z</time>
      </trkpt>
      <trkpt lat="45.73566" lon="3.54964">
        <ele>379.6</ele>
        <time>2024-05-01T12:26:41Z</time>
      </trkpt>
      <trkpt lat="45.73576" lon="3.54966">
        <ele>379</ele>
        <time>2024-05-01T12:26:42Z</time>
      </trkpt>
      <trkpt lat="45.73586" lon="3.54965">
        <ele>378.4</ele>
        <time>2024-05-01T12:26:43Z</time>
      </trkpt>
      <trkpt lat="45.73595" lon="3.54965">
        <ele>377.8</ele>
        <time>2024-05-01T12:26:44Z</time>
      </trkpt>
      <trkpt lat="45.73604" lon="3.54965">
        <ele>377.2</ele>
        <time>2024-05-01T12:26:45Z</time>
      </trkpt>
      <trkpt lat="45.73613" lon="3.54965">
        <ele>376.8</ele>
        <time>2024-05-01T12:26:46Z</time>
      </trkpt>
      <trkpt lat="45.73622" lon="3.54964">
        <ele>376.4</ele>
        <time>2024-05-01T12:26:47Z</time>
      </trkpt>
      <trkpt lat="45.73631" lon="3.54964">
        <ele>375.8</ele>
        <time>2024-05-01T12:26:48Z</time>
      </trkpt>
      <trkpt lat="45.73639" lon="3.54964">
        <ele>375.4</ele>
        <time>2024-05-01T12:26:49Z</time>
      </trkpt>
      <trkpt lat="45.73648" lon="3.54964">
        <ele>374.8</ele>
        <time>2024-05-01T12:26:50Z</time>
      </trkpt>
      <trkpt lat="45.73656" lon="3.54962">
        <ele>374.4</ele>
        <time>2024-05-01T12:26:51Z</time>
      </trkpt>
      <trkpt lat="45.73664" lon="3.5496">
        <ele>374</ele>
        <time>2024-05-01T12:26:52Z</time>
      </trkpt>
      <trkpt lat="45.73672" lon="3.54957">
        <ele>373.6</ele>
        <time>2024-05-01T12:26:53Z</time>
      </trkpt>
      <trkpt lat="45.7368" lon="3.54954">
        <ele>373</ele>
        <time>2024-05-01T12:26:54Z</time>
      </trkpt>
      <trkpt lat="45.73687" lon="3.5495">
        <ele>372.6</ele>
        <time>2024-05-01T12:26:55Z</time>
      </trkpt>
      <trkpt lat="45.73695" lon="3.54946">
        <ele>372.2</ele>
        <time>2024-05-01T12:26:56Z</time>
      </trkpt>
      <trkpt lat="45.73702" lon="3.54942">
        <ele>371.8</ele>
        <time>2024-05-01T12:26:57Z</time>
      </trkpt>
      <trkpt lat="45.7371" lon="3.54938">
        <ele>371.4</ele>
        <time>2024-05-01T12:26:58Z</time>
      </trkpt>
      <trkpt lat="45.73718" lon="3.54934">
        <ele>370.8</ele>
        <time>2024-05-01T12:26:59Z</time>
      </trkpt>
      <trkpt lat="45.73726" lon="3.5493">
        <ele>370.4</ele>
        <time>2024-05-01T12:27:00Z</time>
      </trkpt>
      <trkpt lat="45.73734" lon="3.54926">
        <ele>370</ele>
        <time>2024-05-01T12:27:01Z</time>
      </trkpt>
      <trkpt lat="45.73742" lon="3.54922">
        <ele>369.4</ele>
        <time>2024-05-01T12:27:02Z</time>
      </trkpt>
      <trkpt lat="45.73751" lon="3.54921">
        <ele>369</ele>
        <time>2024-05-01T12:27:03Z</time>
      </trkpt>
      <trkpt lat="45.7376" lon="3.54923">
        <ele>368.6</ele>
        <time>2024-05-01T12:27:04Z</time>
      </trkpt>
      <trkpt lat="45.73769" lon="3.54924">
        <ele>368.2</ele>
        <time>2024-05-01T12:27:05Z</time>
      </trkpt>
      <trkpt lat="45.73778" lon="3.54925">
        <ele>367.6</ele>
        <time>2024-05-01T12:27:06Z</time>
      </trkpt>
      <trkpt lat="45.73787" lon="3.54926">
        <ele>367.2</ele>
        <time>2024-05-01T12:27:07Z</time>
      </trkpt>
      <trkpt lat="45.73795" lon="3.54927">
        <ele>366.8</ele>
        <time>2024-05-01T12:27:08Z</time>
      </trkpt>
      <trkpt lat="45.73804" lon="3.54929">
        <ele>366.2</ele>
        <time>2024-05-01T12:27:09Z</time>
      </trkpt>
      <trkpt lat="45.73812" lon="3.5493">
        <ele>365.8</ele>
        <time>2024-05-01T12:27:10Z</time>
      </trkpt>
      <trkpt lat="45.7382" lon="3.54931">
        <ele>365.4</ele>
        <time>2024-05-01T12:27:11Z</time>
      </trkpt>
      <trkpt lat="45.73827" lon="3.54929">
        <ele>365</ele>
        <time>2024-05-01T12:27:12Z</time>
      </trkpt>
      <trkpt lat="45.73835" lon="3.54926">
        <ele>364.6</ele>
        <time>2024-05-01T12:27:13Z</time>
      </trkpt>
      <trkpt lat="45.73842" lon="3.54922">
        <ele>364.2</ele>
        <time>2024-05-01T12:27:14Z</time>
      </trkpt>
      <trkpt lat="45.73856" lon="3.54911">
        <ele>364</ele>
        <time>2024-05-01T12:27:15Z</time>
      </trkpt>
      <trkpt lat="45.73856" lon="3.54911">
        <ele>363.6</ele>
        <time>2024-05-01T12:27:16Z</time>
      </trkpt>
      <trkpt lat="45.73863" lon="3.54905">
        <ele>363.4</ele>
        <time>2024-05-01T12:27:17Z</time>
      </trkpt>
      <trkpt lat="45.73869" lon="3.54898">
        <ele>363</ele>
        <time>2024-05-01T12:27:18Z</time>
      </trkpt>
      <trkpt lat="45.73876" lon="3.54893">
        <ele>362.6</ele>
        <time>2024-05-01T12:27:19Z</time>
      </trkpt>
      <trkpt lat="45.73883" lon="3.54888">
        <ele>362.4</ele>
        <time>2024-05-01T12:27:20Z</time>
      </trkpt>
      <trkpt lat="45.7389" lon="3.54883">
        <ele>362</ele>
        <time>2024-05-01T12:27:21Z</time>
      </trkpt>
      <trkpt lat="45.73897" lon="3.54878">
        <ele>361.8</ele>
        <time>2024-05-01T12:27:22Z</time>
      </trkpt>
      <trkpt lat="45.73904" lon="3.54873">
        <ele>361.4</ele>
        <time>2024-05-01T12:27:23Z</time>
      </trkpt>
      <trkpt lat="45.73911" lon="3.54868">
        <ele>361.2</ele>
        <time>2024-05-01T12:27:24Z</time>
      </trkpt>
      <trkpt lat="45.73918" lon="3.54863">
        <ele>360.8</ele>
        <time>2024-05-01T12:27:25Z</time>
      </trkpt>
      <trkpt lat="45.73925" lon="3.54858">
        <ele>360.6</ele>
        <time>2024-05-01T12:27:26Z</time>
      </trkpt>
      <trkpt lat="45.73931" lon="3.54854">
        <ele>360.2</ele>
        <time>2024-05-01T12:27:27Z</time>
      </trkpt>
      <trkpt lat="45.73938" lon="3.54849">
        <ele>360</ele>
        <time>2024-05-01T12:27:28Z</time>
      </trkpt>
      <trkpt lat="45.73944" lon="3.54844">
        <ele>359.6</ele>
        <time>2024-05-01T12:27:29Z</time>
      </trkpt>
      <trkpt lat="45.73951" lon="3.5484">
        <ele>359.4</ele>
        <time>2024-05-01T12:27:30Z</time>
      </trkpt>
      <trkpt lat="45.73957" lon="3.54835">
        <ele>359</ele>
        <time>2024-05-01T12:27:31Z</time>
      </trkpt>
      <trkpt lat="45.73963" lon="3.54831">
        <ele>358.8</ele>
        <time>2024-05-01T12:27:32Z</time>
      </trkpt>
      <trkpt lat="45.7397" lon="3.54826">
        <ele>358.4</ele>
        <time>2024-05-01T12:27:33Z</time>
      </trkpt>
      <trkpt lat="45.73977" lon="3.54821">
        <ele>358.2</ele>
        <time>2024-05-01T12:27:34Z</time>
      </trkpt>
      <trkpt lat="45.73983" lon="3.54817">
        <ele>357.8</ele>
        <time>2024-05-01T12:27:35Z</time>
      </trkpt>
      <trkpt lat="45.7399" lon="3.54812">
        <ele>357.6</ele>
        <time>2024-05-01T12:27:36Z</time>
      </trkpt>
      <trkpt lat="45.73997" lon="3.54807">
        <ele>357.2</ele>
        <time>2024-05-01T12:27:37Z</time>
      </trkpt>
      <trkpt lat="45.74004" lon="3.54802">
        <ele>356.8</ele>
        <time>2024-05-01T12:27:38Z</time>
      </trkpt>
      <trkpt lat="45.74011" lon="3.54798">
        <ele>356.6</ele>
        <time>2024-05-01T12:27:39Z</time>
      </trkpt>
      <trkpt lat="45.74019" lon="3.54793">
        <ele>356.2</ele>
        <time>2024-05-01T12:27:40Z</time>
      </trkpt>
      <trkpt lat="45.74026" lon="3.54789">
        <ele>355.8</ele>
        <time>2024-05-01T12:27:41Z</time>
      </trkpt>
      <trkpt lat="45.74034" lon="3.54787">
        <ele>355.6</ele>
        <time>2024-05-01T12:27:42Z</time>
      </trkpt>
      <trkpt lat="45.74041" lon="3.54784">
        <ele>355.4</ele>
        <time>2024-05-01T12:27:43Z</time>
      </trkpt>
      <trkpt lat="45.74049" lon="3.54782">
        <ele>355</ele>
        <time>2024-05-01T12:27:44Z</time>
      </trkpt>
      <trkpt lat="45.74056" lon="3.54779">
        <ele>354.8</ele>
        <time>2024-05-01T12:27:45Z</time>
      </trkpt>
      <trkpt lat="45.74064" lon="3.54776">
        <ele>354.4</ele>
        <time>2024-05-01T12:27:46Z</time>
      </trkpt>
      <trkpt lat="45.74071" lon="3.54774">
        <ele>354.2</ele>
        <time>2024-05-01T12:27:47Z</time>
      </trkpt>
      <trkpt lat="45.74079" lon="3.54771">
        <ele>354</ele>
        <time>2024-05-01T12:27:48Z</time>
      </trkpt>
      <trkpt lat="45.74086" lon="3.54769">
        <ele>353.6</ele>
        <time>2024-05-01T12:27:49Z</time>
      </trkpt>
      <trkpt lat="45.74093" lon="3.54766">
        <ele>353.4</ele>
        <time>2024-05-01T12:27:50Z</time>
      </trkpt>
      <trkpt lat="45.74101" lon="3.54764">
        <ele>353.2</ele>
        <time>2024-05-01T12:27:51Z</time>
      </trkpt>
      <trkpt lat="45.74108" lon="3.54761">
        <ele>353</ele>
        <time>2024-05-01T12:27:52Z</time>
      </trkpt>
      <trkpt lat="45.74116" lon="3.54757">
        <ele>352.6</ele>
        <time>2024-05-01T12:27:53Z</time>
      </trkpt>
      <trkpt lat="45.74123" lon="3.54753">
        <ele>352.4</ele>
        <time>2024-05-01T12:27:54Z</time>
      </trkpt>
      <trkpt lat="45.7413" lon="3.54749">
        <ele>352.2</ele>
        <time>2024-05-01T12:27:55Z</time>
      </trkpt>
      <trkpt lat="45.74136" lon="3.54746">
        <ele>351.8</ele>
        <time>2024-05-01T12:27:56Z</time>
      </trkpt>
      <trkpt lat="45.74143" lon="3.54742">
        <ele>351.6</ele>
        <time>2024-05-01T12:27:57Z</time>
      </trkpt>
      <trkpt lat="45.7415" lon="3.54738">
        <ele>351.2</ele>
        <time>2024-05-01T12:27:58Z</time>
      </trkpt>
      <trkpt lat="45.74156" lon="3.54735">
        <ele>351</ele>
        <time>2024-05-01T12:27:59Z</time>
      </trkpt>
      <trkpt lat="45.74163" lon="3.54731">
        <ele>350.8</ele>
        <time>2024-05-01T12:28:00Z</time>
      </trkpt>
      <trkpt lat="45.74169" lon="3.54728">
        <ele>350.4</ele>
        <time>2024-05-01T12:28:01Z</time>
      </trkpt>
      <trkpt lat="45.74176" lon="3.54725">
        <ele>350.2</ele>
        <time>2024-05-01T12:28:02Z</time>
      </trkpt>
      <trkpt lat="45.74182" lon="3.54721">
        <ele>349.8</ele>
        <time>2024-05-01T12:28:03Z</time>
      </trkpt>
      <trkpt lat="45.74189" lon="3.54718">
        <ele>349.6</ele>
        <time>2024-05-01T12:28:04Z</time>
      </trkpt>
      <trkpt lat="45.74196" lon="3.54714">
        <ele>349.2</ele>
        <time>2024-05-01T12:28:05Z</time>
      </trkpt>
      <trkpt lat="45.74203" lon="3.54712">
        <ele>349</ele>
        <time>2024-05-01T12:28:06Z</time>
      </trkpt>
      <trkpt lat="45.7421" lon="3.5471">
        <ele>349</ele>
        <time>2024-05-01T12:28:07Z</time>
      </trkpt>
      <trkpt lat="45.74217" lon="3.54708">
        <ele>348.8</ele>
        <time>2024-05-01T12:28:08Z</time>
      </trkpt>
      <trkpt lat="45.74224" lon="3.54706">
        <ele>348.6</ele>
        <time>2024-05-01T12:28:09Z</time>
      </trkpt>
      <trkpt lat="45.74231" lon="3.54703">
        <ele>348.4</ele>
        <time>2024-05-01T12:28:10Z</time>
      </trkpt>
      <trkpt lat="45.74238" lon="3.54697">
        <ele>348.2</ele>
        <time>2024-05-01T12:28:11Z</time>
      </trkpt>
      <trkpt lat="45.74245" lon="3.54691">
        <ele>348</ele>
        <time>2024-05-01T12:28:12Z</time>
      </trkpt>
      <trkpt lat="45.74252" lon="3.54684">
        <ele>347.8</ele>
        <time>2024-05-01T12:28:13Z</time>
      </trkpt>
      <trkpt lat="45.74259" lon="3.54678">
        <ele>347.4</ele>
        <time>2024-05-01T12:28:14Z</time>
      </trkpt>
      <trkpt lat="45.74266" lon="3.54672">
        <ele>347.2</ele>
        <time>2024-05-01T12:28:15Z</time>
      </trkpt>
      <trkpt lat="45.74273" lon="3.54665">
        <ele>347</ele>
        <time>2024-05-01T12:28:16Z</time>
      </trkpt>
      <trkpt lat="45.74279" lon="3.54659">
        <ele>346.8</ele>
        <time>2024-05-01T12:28:17Z</time>
      </trkpt>
      <trkpt lat="45.74286" lon="3.54653">
        <ele>346.6</ele>
        <time>2024-05-01T12:28:18Z</time>
      </trkpt>
      <trkpt lat="45.74293" lon="3.54648">
        <ele>346.2</ele>
        <time>2024-05-01T12:28:19Z</time>
      </trkpt>
      <trkpt lat="45.74299" lon="3.54643">
        <ele>346</ele>
        <time>2024-05-01T12:28:20Z</time>
      </trkpt>
      <trkpt lat="45.74306" lon="3.54638">
        <ele>345.8</ele>
        <time>2024-05-01T12:28:21Z</time>
      </trkpt>
      <trkpt lat="45.74313" lon="3.54632">
        <ele>345.4</ele>
        <time>2024-05-01T12:28:22Z</time>
      </trkpt>
      <trkpt lat="45.7432" lon="3.54627">
        <ele>345.2</ele>
        <time>2024-05-01T12:28:23Z</time>
      </trkpt>
      <trkpt lat="45.74327" lon="3.54621">
        <ele>345</ele>
        <time>2024-05-01T12:28:24Z</time>
      </trkpt>
      <trkpt lat="45.74335" lon="3.54616">
        <ele>344.6</ele>
        <time>2024-05-01T12:28:25Z</time>
      </trkpt>
      <trkpt lat="45.74342" lon="3.54611">
        <ele>344.4</ele>
        <time>2024-05-01T12:28:26Z</time>
      </trkpt>
      <trkpt lat="45.74349" lon="3.54605">
        <ele>344.2</ele>
        <time>2024-05-01T12:28:27Z</time>
      </trkpt>
      <trkpt lat="45.74355" lon="3.54599">
        <ele>343.8</ele>
        <time>2024-05-01T12:28:28Z</time>
      </trkpt>
      <trkpt lat="45.74369" lon="3.54586">
        <ele>343.6</ele>
        <time>2024-05-01T12:28:29Z</time>
      </trkpt>
      <trkpt lat="45.74369" lon="3.54586">
        <ele>343.4</ele>
        <time>2024-05-01T12:28:30Z</time>
      </trkpt>
      <trkpt lat="45.74375" lon="3.5458">
        <ele>343.2</ele>
        <time>2024-05-01T12:28:31Z</time>
      </trkpt>
      <trkpt lat="45.74382" lon="3.54573">
        <ele>343</ele>
        <time>2024-05-01T12:28:32Z</time>
      </trkpt>
      <trkpt lat="45.74394" lon="3.54561">
        <ele>342.8</ele>
        <time>2024-05-01T12:28:33Z</time>
      </trkpt>
      <trkpt lat="45.74394" lon="3.54561">
        <ele>342.6</ele>
        <time>2024-05-01T12:28:34Z</time>
      </trkpt>
      <trkpt lat="45.744" lon="3.54555">
        <ele>342.4</ele>
        <time>2024-05-01T12:28:35Z</time>
      </trkpt>
      <trkpt lat="45.74406" lon="3.5455">
        <ele>342.2</ele>
        <time>2024-05-01T12:28:36Z</time>
      </trkpt>
      <trkpt lat="45.74418" lon="3.5454">
        <ele>342.2</ele>
        <time>2024-05-01T12:28:37Z</time>
      </trkpt>
      <trkpt lat="45.74424" lon="3.54537">
        <ele>342</ele>
        <time>2024-05-01T12:28:38Z</time>
      </trkpt>
      <trkpt lat="45.74424" lon="3.54537">
        <ele>341.8</ele>
        <time>2024-05-01T12:28:39Z</time>
      </trkpt>
      <trkpt lat="45.74431" lon="3.54534">
        <ele>341.6</ele>
        <time>2024-05-01T12:28:40Z</time>
      </trkpt>
      <trkpt lat="45.74437" lon="3.54531">
        <ele>341.4</ele>
        <time>2024-05-01T12:28:41Z</time>
      </trkpt>
      <trkpt lat="45.7445" lon="3.54532">
        <ele>341.2</ele>
        <time>2024-05-01T12:28:42Z</time>
      </trkpt>
      <trkpt lat="45.7445" lon="3.54532">
        <ele>341.2</ele>
        <time>2024-05-01T12:28:43Z</time>
      </trkpt>
      <trkpt lat="45.74461" lon="3.54538">
        <ele>341</ele>
        <time>2024-05-01T12:28:44Z</time>
      </trkpt>
      <trkpt lat="45.74462" lon="3.54538">
        <ele>340.8</ele>
        <time>2024-05-01T12:28:45Z</time>
      </trkpt>
      <trkpt lat="45.74467" lon="3.54555">
        <ele>340.6</ele>
        <time>2024-05-01T12:28:46Z</time>
      </trkpt>
      <trkpt lat="45.74467" lon="3.54555">
        <ele>340.4</ele>
        <time>2024-05-01T12:28:47Z</time>
      </trkpt>
      <trkpt lat="45.74469" lon="3.54563">
        <ele>340.2</ele>
        <time>2024-05-01T12:28:48Z</time>
      </trkpt>
      <trkpt lat="45.74471" lon="3.54569">
        <ele>340</ele>
        <time>2024-05-01T12:28:49Z</time>
      </trkpt>
      <trkpt lat="45.74469" lon="3.54576">
        <ele>339.8</ele>
        <time>2024-05-01T12:28:50Z</time>
      </trkpt>
      <trkpt lat="45.74467" lon="3.54583">
        <ele>339.6</ele>
        <time>2024-05-01T12:28:51Z</time>
      </trkpt>
      <trkpt lat="45.74464" lon="3.5459">
        <ele>339.4</ele>
        <time>2024-05-01T12:28:52Z</time>
      </trkpt>
      <trkpt lat="45.74462" lon="3.54597">
        <ele>339.2</ele>
        <time>2024-05-01T12:28:53Z</time>
      </trkpt>
      <trkpt lat="45.74462" lon="3.54606">
        <ele>339.2</ele>
        <time>2024-05-01T12:28:54Z</time>
      </trkpt>
      <trkpt lat="45.74462" lon="3.54614">
        <ele>339</ele>
        <time>2024-05-01T12:28:55Z</time>
      </trkpt>
      <trkpt lat="45.74462" lon="3.54622">
        <ele>338.8</ele>
        <time>2024-05-01T12:28:56Z</time>
      </trkpt>
      <trkpt lat="45.74464" lon="3.5463">
        <ele>338.6</ele>
        <time>2024-05-01T12:28:57Z</time>
      </trkpt>
      <trkpt lat="45.74468" lon="3.54636">
        <ele>338.4</ele>
        <time>2024-05-01T12:28:58Z</time>
      </trkpt>
      <trkpt lat="45.74472" lon="3.54641">
        <ele>338.4</ele>
        <time>2024-05-01T12:28:59Z</time>
      </trkpt>
      <trkpt lat="45.74478" lon="3.54646">
        <ele>338.4</ele>
        <time>2024-05-01T12:29:00Z</time>
      </trkpt>
      <trkpt lat="45.74483" lon="3.54645">
        <ele>338.2</ele>
        <time>2024-05-01T12:29:01Z</time>
      </trkpt>
      <trkpt lat="45.74489" lon="3.54642">
        <ele>338.2</ele>
        <time>2024-05-01T12:29:02Z</time>
      </trkpt>
      <trkpt lat="45.74494" lon="3.54639">
        <ele>338</ele>
        <time>2024-05-01T12:29:03Z</time>
      </trkpt>
      <trkpt lat="45.745" lon="3.54636">
        <ele>338</ele>
        <time>2024-05-01T12:29:04Z</time>
      </trkpt>
      <trkpt lat="45.74505" lon="3.5463">
        <ele>337.8</ele>
        <time>2024-05-01T12:29:05Z</time>
      </trkpt>
      <trkpt lat="45.74512" lon="3.54627">
        <ele>337.6</ele>
        <time>2024-05-01T12:29:06Z</time>
      </trkpt>
      <trkpt lat="45.74518" lon="3.54623">
        <ele>337.6</ele>
        <time>2024-05-01T12:29:07Z</time>
      </trkpt>
      <trkpt lat="45.74525" lon="3.54622">
        <ele>337.4</ele>
        <time>2024-05-01T12:29:08Z</time>
      </trkpt>
      <trkpt lat="45.74532" lon="3.54621">
        <ele>337.4</ele>
        <time>2024-05-01T12:29:09Z</time>
      </trkpt>
      <trkpt lat="45.74538" lon="3.54621">
        <ele>337.2</ele>
        <time>2024-05-01T12:29:10Z</time>
      </trkpt>
      <trkpt lat="45.74545" lon="3.5462">
        <ele>337</ele>
        <time>2024-05-01T12:29:11Z</time>
      </trkpt>
      <trkpt lat="45.74552" lon="3.54619">
        <ele>337</ele>
        <time>2024-05-01T12:29:12Z</time>
      </trkpt>
      <trkpt lat="45.74559" lon="3.54619">
        <ele>336.8</ele>
        <time>2024-05-01T12:29:13Z</time>
      </trkpt>
      <trkpt lat="45.74566" lon="3.54618">
        <ele>336.8</ele>
        <time>2024-05-01T12:29:14Z</time>
      </trkpt>
      <trkpt lat="45.74573" lon="3.54617">
        <ele>336.6</ele>
        <time>2024-05-01T12:29:15Z</time>
      </trkpt>
      <trkpt lat="45.7458" lon="3.54616">
        <ele>336.4</ele>
        <time>2024-05-01T12:29:16Z</time>
      </trkpt>
      <trkpt lat="45.74587" lon="3.54615">
        <ele>336.4</ele>
        <time>2024-05-01T12:29:17Z</time>
      </trkpt>
      <trkpt lat="45.74594" lon="3.54614">
        <ele>336.2</ele>
        <time>2024-05-01T12:29:18Z</time>
      </trkpt>
      <trkpt lat="45.74601" lon="3.54612">
        <ele>336</ele>
        <time>2024-05-01T12:29:19Z</time>
      </trkpt>
      <trkpt lat="45.74609" lon="3.54611">
        <ele>336</ele>
        <time>2024-05-01T12:29:20Z</time>
      </trkpt>
      <trkpt lat="45.74616" lon="3.5461">
        <ele>335.8</ele>
        <time>2024-05-01T12:29:21Z</time>
      </trkpt>
      <trkpt lat="45.74623" lon="3.54609">
        <ele>335.8</ele>
        <time>2024-05-01T12:29:22Z</time>
      </trkpt>
      <trkpt lat="45.7463" lon="3.54608">
        <ele>335.6</ele>
        <time>2024-05-01T12:29:23Z</time>
      </trkpt>
      <trkpt lat="45.74638" lon="3.54607">
        <ele>335.4</ele>
        <time>2024-05-01T12:29:24Z</time>
      </trkpt>
      <trkpt lat="45.74645" lon="3.54605">
        <ele>335.4</ele>
        <time>2024-05-01T12:29:25Z</time>
      </trkpt>
      <trkpt lat="45.74653" lon="3.54604">
        <ele>335.2</ele>
        <time>2024-05-01T12:29:26Z</time>
      </trkpt>
      <trkpt lat="45.7466" lon="3.54603">
        <ele>335</ele>
        <time>2024-05-01T12:29:27Z</time>
      </trkpt>
      <trkpt lat="45.74668" lon="3.54602">
        <ele>334.8</ele>
        <time>2024-05-01T12:29:28Z</time>
      </trkpt>
      <trkpt lat="45.74675" lon="3.54601">
        <ele>334.8</ele>
        <time>2024-05-01T12:29:29Z</time>
      </trkpt>
      <trkpt lat="45.74683" lon="3.546">
        <ele>334.6</ele>
        <time>2024-05-01T12:29:30Z</time>
      </trkpt>
      <trkpt lat="45.7469" lon="3.54599">
        <ele>334.6</ele>
        <time>2024-05-01T12:29:31Z</time>
      </trkpt>
      <trkpt lat="45.74697" lon="3.54597">
        <ele>334.4</ele>
        <time>2024-05-01T12:29:32Z</time>
      </trkpt>
      <trkpt lat="45.74705" lon="3.54596">
        <ele>334.2</ele>
        <time>2024-05-01T12:29:33Z</time>
      </trkpt>
      <trkpt lat="45.74712" lon="3.54595">
        <ele>334.2</ele>
        <time>2024-05-01T12:29:34Z</time>
      </trkpt>
      <trkpt lat="45.74719" lon="3.54594">
        <ele>334</ele>
        <time>2024-05-01T12:29:35Z</time>
      </trkpt>
      <trkpt lat="45.74726" lon="3.54591">
        <ele>334</ele>
        <time>2024-05-01T12:29:36Z</time>
      </trkpt>
      <trkpt lat="45.74733" lon="3.54589">
        <ele>333.8</ele>
        <time>2024-05-01T12:29:37Z</time>
      </trkpt>
      <trkpt lat="45.74739" lon="3.54587">
        <ele>333.6</ele>
        <time>2024-05-01T12:29:38Z</time>
      </trkpt>
      <trkpt lat="45.74746" lon="3.54585">
        <ele>333.6</ele>
        <time>2024-05-01T12:29:39Z</time>
      </trkpt>
      <trkpt lat="45.74753" lon="3.54583">
        <ele>333.4</ele>
        <time>2024-05-01T12:29:40Z</time>
      </trkpt>
      <trkpt lat="45.74759" lon="3.54581">
        <ele>333.2</ele>
        <time>2024-05-01T12:29:41Z</time>
      </trkpt>
      <trkpt lat="45.74766" lon="3.54579">
        <ele>333.2</ele>
        <time>2024-05-01T12:29:42Z</time>
      </trkpt>
      <trkpt lat="45.74772" lon="3.54577">
        <ele>333</ele>
        <time>2024-05-01T12:29:43Z</time>
      </trkpt>
      <trkpt lat="45.74779" lon="3.54574">
        <ele>333</ele>
        <time>2024-05-01T12:29:44Z</time>
      </trkpt>
      <trkpt lat="45.74786" lon="3.54572">
        <ele>332.8</ele>
        <time>2024-05-01T12:29:45Z</time>
      </trkpt>
      <trkpt lat="45.74792" lon="3.5457">
        <ele>332.6</ele>
        <time>2024-05-01T12:29:46Z</time>
      </trkpt>
      <trkpt lat="45.74799" lon="3.54567">
        <ele>332.6</ele>
        <time>2024-05-01T12:29:47Z</time>
      </trkpt>
      <trkpt lat="45.74805" lon="3.54565">
        <ele>332.4</ele>
        <time>2024-05-01T12:29:48Z</time>
      </trkpt>
      <trkpt lat="45.74812" lon="3.54563">
        <ele>332.4</ele>
        <time>2024-05-01T12:29:49Z</time>
      </trkpt>
      <trkpt lat="45.74818" lon="3.5456">
        <ele>332.2</ele>
        <time>2024-05-01T12:29:50Z</time>
      </trkpt>
      <trkpt lat="45.74824" lon="3.54556">
        <ele>332</ele>
        <time>2024-05-01T12:29:51Z</time>
      </trkpt>
      <trkpt lat="45.74831" lon="3.54554">
        <ele>332</ele>
        <time>2024-05-01T12:29:52Z</time>
      </trkpt>
      <trkpt lat="45.74837" lon="3.54551">
        <ele>331.8</ele>
        <time>2024-05-01T12:29:53Z</time>
      </trkpt>
      <trkpt lat="45.74843" lon="3.54548">
        <ele>331.6</ele>
        <time>2024-05-01T12:29:54Z</time>
      </trkpt>
      <trkpt lat="45.7485" lon="3.54545">
        <ele>331.6</ele>
        <time>2024-05-01T12:29:55Z</time>
      </trkpt>
      <trkpt lat="45.74857" lon="3.54542">
        <ele>331.4</ele>
        <time>2024-05-01T12:29:56Z</time>
      </trkpt>
      <trkpt lat="45.74863" lon="3.5454">
        <ele>331.2</ele>
        <time>2024-05-01T12:29:57Z</time>
      </trkpt>
      <trkpt lat="45.7487" lon="3.54537">
        <ele>331.2</ele>
        <time>2024-05-01T12:29:58Z</time>
      </trkpt>
      <trkpt lat="45.74877" lon="3.54534">
        <ele>331</ele>
        <time>2024-05-01T12:29:59Z</time>
      </trkpt>
      <trkpt lat="45.74884" lon="3.54532">
        <ele>331</ele>
        <time>2024-05-01T12:30:00Z</time>
      </trkpt>
      <trkpt lat="45.74891" lon="3.5453">
        <ele>330.8</ele>
        <time>2024-05-01T12:30:01Z</time>
      </trkpt>
      <trkpt lat="45.74898" lon="3.54527">
        <ele>330.8</ele>
        <time>2024-05-01T12:30:02Z</time>
      </trkpt>
      <trkpt lat="45.74905" lon="3.54525">
        <ele>330.6</ele>
        <time>2024-05-01T12:30:03Z</time>
      </trkpt>
      <trkpt lat="45.74912" lon="3.54522">
        <ele>330.6</ele>
        <time>2024-05-01T12:30:04Z</time>
      </trkpt>
      <trkpt lat="45.7492" lon="3.54519">
        <ele>330.4</ele>
        <time>2024-05-01T12:30:05Z</time>
      </trkpt>
      <trkpt lat="45.74926" lon="3.54516">
        <ele>330.4</ele>
        <time>2024-05-01T12:30:06Z</time>
      </trkpt>
      <trkpt lat="45.74933" lon="3.54513">
        <ele>330.2</ele>
        <time>2024-05-01T12:30:07Z</time>
      </trkpt>
      <trkpt lat="45.74941" lon="3.54511">
        <ele>330</ele>
        <time>2024-05-01T12:30:08Z</time>
      </trkpt>
      <trkpt lat="45.74947" lon="3.54508">
        <ele>330</ele>
        <time>2024-05-01T12:30:09Z</time>
      </trkpt>
      <trkpt lat="45.74954" lon="3.54505">
        <ele>329.8</ele>
        <time>2024-05-01T12:30:10Z</time>
      </trkpt>
      <trkpt lat="45.74961" lon="3.54502">
        <ele>329.8</ele>
        <time>2024-05-01T12:30:11Z</time>
      </trkpt>
      <trkpt lat="45.74968" lon="3.54499">
        <ele>329.8</ele>
        <time>2024-05-01T12:30:12Z</time>
      </trkpt>
      <trkpt lat="45.74975" lon="3.54496">
        <ele>329.8</ele>
        <time>2024-05-01T12:30:13Z</time>
      </trkpt>
      <trkpt lat="45.74982" lon="3.54494">
        <ele>329.6</ele>
        <time>2024-05-01T12:30:14Z</time>
      </trkpt>
      <trkpt lat="45.74989" lon="3.54491">
        <ele>329.6</ele>
        <time>2024-05-01T12:30:15Z</time>
      </trkpt>
      <trkpt lat="45.74996" lon="3.54488">
        <ele>329.4</ele>
        <time>2024-05-01T12:30:16Z</time>
      </trkpt>
      <trkpt lat="45.75003" lon="3.54485">
        <ele>329.2</ele>
        <time>2024-05-01T12:30:17Z</time>
      </trkpt>
      <trkpt lat="45.7501" lon="3.54482">
        <ele>329.2</ele>
        <time>2024-05-01T12:30:18Z</time>
      </trkpt>
      <trkpt lat="45.75017" lon="3.54479">
        <ele>329</ele>
        <time>2024-05-01T12:30:19Z</time>
      </trkpt>
      <trkpt lat="45.75023" lon="3.54477">
        <ele>328.8</ele>
        <time>2024-05-01T12:30:20Z</time>
      </trkpt>
      <trkpt lat="45.7503" lon="3.54474">
        <ele>328.6</ele>
        <time>2024-05-01T12:30:21Z</time>
      </trkpt>
      <trkpt lat="45.75036" lon="3.54472">
        <ele>328.6</ele>
        <time>2024-05-01T12:30:22Z</time>
      </trkpt>
      <trkpt lat="45.75043" lon="3.54469">
        <ele>328.4</ele>
        <time>2024-05-01T12:30:23Z</time>
      </trkpt>
      <trkpt lat="45.75049" lon="3.54467">
        <ele>328.2</ele>
        <time>2024-05-01T12:30:24Z</time>
      </trkpt>
      <trkpt lat="45.75055" lon="3.54464">
        <ele>328</ele>
        <time>2024-05-01T12:30:25Z</time>
      </trkpt>
      <trkpt lat="45.75061" lon="3.54462">
        <ele>328</ele>
        <time>2024-05-01T12:30:26Z</time>
      </trkpt>
      <trkpt lat="45.75068" lon="3.54459">
        <ele>327.8</ele>
        <time>2024-05-01T12:30:27Z</time>
      </trkpt>
      <trkpt lat="45.75075" lon="3.54456">
        <ele>327.6</ele>
        <time>2024-05-01T12:30:28Z</time>
      </trkpt>
      <trkpt lat="45.75082" lon="3.54453">
        <ele>327.6</ele>
        <time>2024-05-01T12:30:29Z</time>
      </trkpt>
      <trkpt lat="45.75088" lon="3.54451">
        <ele>327.4</ele>
        <time>2024-05-01T12:30:30Z</time>
      </trkpt>
      <trkpt lat="45.75095" lon="3.54448">
        <ele>327.4</ele>
        <time>2024-05-01T12:30:31Z</time>
      </trkpt>
      <trkpt lat="45.75101" lon="3.54445">
        <ele>327.2</ele>
        <time>2024-05-01T12:30:32Z</time>
      </trkpt>
      <trkpt lat="45.75109" lon="3.54443">
        <ele>327.2</ele>
        <time>2024-05-01T12:30:33Z</time>
      </trkpt>
      <trkpt lat="45.75115" lon="3.54441">
        <ele>327.2</ele>
        <time>2024-05-01T12:30:34Z</time>
      </trkpt>
      <trkpt lat="45.75121" lon="3.54438">
        <ele>327.2</ele>
        <time>2024-05-01T12:30:35Z</time>
      </trkpt>
      <trkpt lat="45.75128" lon="3.54436">
        <ele>327</ele>
        <time>2024-05-01T12:30:36Z</time>
      </trkpt>
      <trkpt lat="45.75134" lon="3.54433">
        <ele>327</ele>
        <time>2024-05-01T12:30:37Z</time>
      </trkpt>
      <trkpt lat="45.75141" lon="3.5443">
        <ele>327</ele>
        <time>2024-05-01T12:30:38Z</time>
      </trkpt>
      <trkpt lat="45.75148" lon="3.54428">
        <ele>326.8</ele>
        <time>2024-05-01T12:30:39Z</time>
      </trkpt>
      <trkpt lat="45.75155" lon="3.54425">
        <ele>326.8</ele>
        <time>2024-05-01T12:30:40Z</time>
      </trkpt>
      <trkpt lat="45.75162" lon="3.54422">
        <ele>326.6</ele>
        <time>2024-05-01T12:30:41Z</time>
      </trkpt>
      <trkpt lat="45.75169" lon="3.54419">
        <ele>326.6</ele>
        <time>2024-05-01T12:30:42Z</time>
      </trkpt>
      <trkpt lat="45.75176" lon="3.54416">
        <ele>326.4</ele>
        <time>2024-05-01T12:30:43Z</time>
      </trkpt>
      <trkpt lat="45.75183" lon="3.54414">
        <ele>326.2</ele>
        <time>2024-05-01T12:30:44Z</time>
      </trkpt>
      <trkpt lat="45.7519" lon="3.54411">
        <ele>326.2</ele>
        <time>2024-05-01T12:30:45Z</time>
      </trkpt>
      <trkpt lat="45.75197" lon="3.54408">
        <ele>326.2</ele>
        <time>2024-05-01T12:30:46Z</time>
      </trkpt>
      <trkpt lat="45.75204" lon="3.54405">
        <ele>326</ele>
        <time>2024-05-01T12:30:47Z</time>
      </trkpt>
      <trkpt lat="45.75211" lon="3.54402">
        <ele>326</ele>
        <time>2024-05-01T12:30:48Z</time>
      </trkpt>
      <trkpt lat="45.75218" lon="3.544">
        <ele>325.8</ele>
        <time>2024-05-01T12:30:49Z</time>
      </trkpt>
      <trkpt lat="45.75224" lon="3.54397">
        <ele>325.8</ele>
        <time>2024-05-01T12:30:50Z</time>
      </trkpt>
      <trkpt lat="45.75231" lon="3.54395">
        <ele>325.6</ele>
        <time>2024-05-01T12:30:51Z</time>
      </trkpt>
      <trkpt lat="45.75237" lon="3.54392">
        <ele>325.6</ele>
        <time>2024-05-01T12:30:52Z</time>
      </trkpt>
      <trkpt lat="45.75244" lon="3.54389">
        <ele>325.6</ele>
        <time>2024-05-01T12:30:53Z</time>
      </trkpt>
      <trkpt lat="45.75251" lon="3.54387">
        <ele>325.4</ele>
        <time>2024-05-01T12:30:54Z</time>
      </trkpt>
      <trkpt lat="45.75257" lon="3.54384">
        <ele>325.4</ele>
        <time>2024-05-01T12:30:55Z</time>
      </trkpt>
      <trkpt lat="45.75263" lon="3.54382">
        <ele>325.4</ele>
        <time>2024-05-01T12:30:56Z</time>
      </trkpt>
      <trkpt lat="45.7527" lon="3.54379">
        <ele>325.4</ele>
        <time>2024-05-01T12:30:57Z</time>
      </trkpt>
      <trkpt lat="45.75276" lon="3.54376">
        <ele>325.2</ele>
        <time>2024-05-01T12:30:58Z</time>
      </trkpt>
      <trkpt lat="45.75283" lon="3.54374">
        <ele>325.2</ele>
        <time>2024-05-01T12:30:59Z</time>
      </trkpt>
      <trkpt lat="45.75289" lon="3.54372">
        <ele>325.2</ele>
        <time>2024-05-01T12:31:00Z</time>
      </trkpt>
      <trkpt lat="45.75295" lon="3.54369">
        <ele>325.2</ele>
        <time>2024-05-01T12:31:01Z</time>
      </trkpt>
      <trkpt lat="45.753" lon="3.54367">
        <ele>325</ele>
        <time>2024-05-01T12:31:02Z</time>
      </trkpt>
      <trkpt lat="45.75306" lon="3.54365">
        <ele>325</ele>
        <time>2024-05-01T12:31:03Z</time>
      </trkpt>
      <trkpt lat="45.75312" lon="3.54362">
        <ele>325</ele>
        <time>2024-05-01T12:31:04Z</time>
      </trkpt>
      <trkpt lat="45.75318" lon="3.5436">
        <ele>325</ele>
        <time>2024-05-01T12:31:05Z</time>
      </trkpt>
      <trkpt lat="45.75324" lon="3.54358">
        <ele>325</ele>
        <time>2024-05-01T12:31:06Z</time>
      </trkpt>
      <trkpt lat="45.7533" lon="3.54355">
        <ele>324.8</ele>
        <time>2024-05-01T12:31:07Z</time>
      </trkpt>
      <trkpt lat="45.75336" lon="3.54353">
        <ele>324.8</ele>
        <time>2024-05-01T12:31:08Z</time>
      </trkpt>
      <trkpt lat="45.75342" lon="3.5435">
        <ele>324.8</ele>
        <time>2024-05-01T12:31:09Z</time>
      </trkpt>
      <trkpt lat="45.75347" lon="3.54348">
        <ele>324.8</ele>
        <time>2024-05-01T12:31:10Z</time>
      </trkpt>
      <trkpt lat="45.75353" lon="3.54346">
        <ele>324.6</ele>
        <time>2024-05-01T12:31:11Z</time>
      </trkpt>
      <trkpt lat="45.75359" lon="3.54344">
        <ele>324.6</ele>
        <time>2024-05-01T12:31:12Z</time>
      </trkpt>
      <trkpt lat="45.75365" lon="3.54341">
        <ele>324.4</ele>
        <time>2024-05-01T12:31:13Z</time>
      </trkpt>
      <trkpt lat="45.75371" lon="3.54339">
        <ele>324.4</ele>
        <time>2024-05-01T12:31:14Z</time>
      </trkpt>
      <trkpt lat="45.75377" lon="3.54337">
        <ele>324.4</ele>
        <time>2024-05-01T12:31:15Z</time>
      </trkpt>
      <trkpt lat="45.75382" lon="3.54335">
        <ele>324.2</ele>
        <time>2024-05-01T12:31:16Z</time>
      </trkpt>
      <trkpt lat="45.75388" lon="3.54333">
        <ele>324.2</ele>
        <time>2024-05-01T12:31:17Z</time>
      </trkpt>
      <trkpt lat="45.75393" lon="3.54331">
        <ele>324.2</ele>
        <time>2024-05-01T12:31:18Z</time>
      </trkpt>
      <trkpt lat="45.75399" lon="3.54329">
        <ele>324</ele>
        <time>2024-05-01T12:31:19Z</time>
      </trkpt>
      <trkpt lat="45.75405" lon="3.54327">
        <ele>324</ele>
        <time>2024-05-01T12:31:20Z</time>
      </trkpt>
      <trkpt lat="45.7541" lon="3.54325">
        <ele>324</ele>
        <time>2024-05-01T12:31:21Z</time>
      </trkpt>
      <trkpt lat="45.75416" lon="3.54323">
        <ele>323.8</ele>
        <time>2024-05-01T12:31:22Z</time>
      </trkpt>
      <trkpt lat="45.75421" lon="3.5432">
        <ele>323.8</ele>
        <time>2024-05-01T12:31:23Z</time>
      </trkpt>
      <trkpt lat="45.75427" lon="3.54318">
        <ele>323.8</ele>
        <time>2024-05-01T12:31:24Z</time>
      </trkpt>
      <trkpt lat="45.75432" lon="3.54316">
        <ele>323.8</ele>
        <time>2024-05-01T12:31:25Z</time>
      </trkpt>
      <trkpt lat="45.75438" lon="3.54313">
        <ele>323.8</ele>
        <time>2024-05-01T12:31:26Z</time>
      </trkpt>
      <trkpt lat="45.75444" lon="3.54311">
        <ele>323.8</ele>
        <time>2024-05-01T12:31:27Z</time>
      </trkpt>
      <trkpt lat="45.7545" lon="3.54308">
        <ele>323.8</ele>
        <time>2024-05-01T12:31:28Z</time>
      </trkpt>
      <trkpt lat="45.75455" lon="3.54306">
        <ele>323.8</ele>
        <time>2024-05-01T12:31:29Z</time>
      </trkpt>
      <trkpt lat="45.75461" lon="3.54303">
        <ele>323.8</ele>
        <time>2024-05-01T12:31:30Z</time>
      </trkpt>
      <trkpt lat="45.75466" lon="3.54301">
        <ele>323.8</ele>
        <time>2024-05-01T12:31:31Z</time>
      </trkpt>
      <trkpt lat="45.75472" lon="3.54299">
        <ele>323.8</ele>
        <time>2024-05-01T12:31:32Z</time>
      </trkpt>
      <trkpt lat="45.75477" lon="3.54296">
        <ele>323.8</ele>
        <time>2024-05-01T12:31:33Z</time>
      </trkpt>
      <trkpt lat="45.75483" lon="3.54294">
        <ele>324</ele>
        <time>2024-05-01T12:31:34Z</time>
      </trkpt>
      <trkpt lat="45.75488" lon="3.54292">
        <ele>324</ele>
        <time>2024-05-01T12:31:35Z</time>
      </trkpt>
      <trkpt lat="45.75494" lon="3.54289">
        <ele>324</ele>
        <time>2024-05-01T12:31:36Z</time>
      </trkpt>
      <trkpt lat="45.75499" lon="3.54287">
        <ele>324</ele>
        <time>2024-05-01T12:31:37Z</time>
      </trkpt>
      <trkpt lat="45.75504" lon="3.54285">
        <ele>324</ele>
        <time>2024-05-01T12:31:38Z</time>
      </trkpt>
      <trkpt lat="45.7551" lon="3.54283">
        <ele>324</ele>
        <time>2024-05-01T12:31:39Z</time>
      </trkpt>
      <trkpt lat="45.75515" lon="3.5428">
        <ele>324</ele>
        <time>2024-05-01T12:31:40Z</time>
      </trkpt>
      <trkpt lat="45.75521" lon="3.54278">
        <ele>324</ele>
        <time>2024-05-01T12:31:41Z</time>
      </trkpt>
      <trkpt lat="45.75526" lon="3.54276">
        <ele>324</ele>
        <time>2024-05-01T12:31:42Z</time>
      </trkpt>
      <trkpt lat="45.75531" lon="3.54273">
        <ele>323.8</ele>
        <time>2024-05-01T12:31:43Z</time>
      </trkpt>
      <trkpt lat="45.75537" lon="3.54271">
        <ele>323.8</ele>
        <time>2024-05-01T12:31:44Z</time>
      </trkpt>
      <trkpt lat="45.75543" lon="3.54269">
        <ele>323.8</ele>
        <time>2024-05-01T12:31:45Z</time>
      </trkpt>
      <trkpt lat="45.75548" lon="3.54266">
        <ele>323.8</ele>
        <time>2024-05-01T12:31:46Z</time>
      </trkpt>
      <trkpt lat="45.75554" lon="3.54264">
        <ele>323.8</ele>
        <time>2024-05-01T12:31:47Z</time>
      </trkpt>
      <trkpt lat="45.7556" lon="3.54262">
        <ele>323.8</ele>
        <time>2024-05-01T12:31:48Z</time>
      </trkpt>
      <trkpt lat="45.75565" lon="3.54259">
        <ele>323.8</ele>
        <time>2024-05-01T12:31:49Z</time>
      </trkpt>
      <trkpt lat="45.75571" lon="3.54257">
        <ele>323.8</ele>
        <time>2024-05-01T12:31:50Z</time>
      </trkpt>
      <trkpt lat="45.75577" lon="3.54254">
        <ele>323.8</ele>
        <time>2024-05-01T12:31:51Z</time>
      </trkpt>
      <trkpt lat="45.75583" lon="3.54252">
        <ele>323.8</ele>
        <time>2024-05-01T12:31:52Z</time>
      </trkpt>
      <trkpt lat="45.75589" lon="3.54249">
        <ele>323.8</ele>
        <time>2024-05-01T12:31:53Z</time>
      </trkpt>
      <trkpt lat="45.75595" lon="3.54247">
        <ele>323.6</ele>
        <time>2024-05-01T12:31:54Z</time>
      </trkpt>
      <trkpt lat="45.75601" lon="3.54244">
        <ele>323.6</ele>
        <time>2024-05-01T12:31:55Z</time>
      </trkpt>
      <trkpt lat="45.75607" lon="3.54242">
        <ele>323.6</ele>
        <time>2024-05-01T12:31:56Z</time>
      </trkpt>
      <trkpt lat="45.75613" lon="3.54239">
        <ele>323.6</ele>
        <time>2024-05-01T12:31:57Z</time>
      </trkpt>
      <trkpt lat="45.75619" lon="3.54237">
        <ele>323.4</ele>
        <time>2024-05-01T12:31:58Z</time>
      </trkpt>
      <trkpt lat="45.75625" lon="3.54234">
        <ele>323.4</ele>
        <time>2024-05-01T12:31:59Z</time>
      </trkpt>
      <trkpt lat="45.75631" lon="3.54232">
        <ele>323.2</ele>
        <time>2024-05-01T12:32:00Z</time>
      </trkpt>
      <trkpt lat="45.75637" lon="3.5423">
        <ele>323.2</ele>
        <time>2024-05-01T12:32:01Z</time>
      </trkpt>
      <trkpt lat="45.75643" lon="3.54228">
        <ele>323.2</ele>
        <time>2024-05-01T12:32:02Z</time>
      </trkpt>
      <trkpt lat="45.7565" lon="3.54225">
        <ele>323.2</ele>
        <time>2024-05-01T12:32:03Z</time>
      </trkpt>
      <trkpt lat="45.75656" lon="3.54223">
        <ele>323</ele>
        <time>2024-05-01T12:32:04Z</time>
      </trkpt>
      <trkpt lat="45.75662" lon="3.54221">
        <ele>323</ele>
        <time>2024-05-01T12:32:05Z</time>
      </trkpt>
      <trkpt lat="45.75669" lon="3.54219">
        <ele>322.8</ele>
        <time>2024-05-01T12:32:06Z</time>
      </trkpt>
      <trkpt lat="45.75675" lon="3.54217">
        <ele>322.8</ele>
        <time>2024-05-01T12:32:07Z</time>
      </trkpt>
      <trkpt lat="45.75682" lon="3.54215">
        <ele>322.8</ele>
        <time>2024-05-01T12:32:08Z</time>
      </trkpt>
      <trkpt lat="45.75689" lon="3.54215">
        <ele>322.6</ele>
        <time>2024-05-01T12:32:09Z</time>
      </trkpt>
      <trkpt lat="45.75695" lon="3.54213">
        <ele>322.6</ele>
        <time>2024-05-01T12:32:10Z</time>
      </trkpt>
      <trkpt lat="45.75702" lon="3.54212">
        <ele>322.6</ele>
        <time>2024-05-01T12:32:11Z</time>
      </trkpt>
      <trkpt lat="45.75708" lon="3.54211">
        <ele>322.4</ele>
        <time>2024-05-01T12:32:12Z</time>
      </trkpt>
      <trkpt lat="45.75715" lon="3.5421">
        <ele>322.4</ele>
        <time>2024-05-01T12:32:13Z</time>
      </trkpt>
      <trkpt lat="45.75721" lon="3.54209">
        <ele>322.4</ele>
        <time>2024-05-01T12:32:14Z</time>
      </trkpt>
      <trkpt lat="45.75728" lon="3.54208">
        <ele>322.2</ele>
        <time>2024-05-01T12:32:15Z</time>
      </trkpt>
      <trkpt lat="45.75735" lon="3.54207">
        <ele>322.2</ele>
        <time>2024-05-01T12:32:16Z</time>
      </trkpt>
      <trkpt lat="45.75741" lon="3.54206">
        <ele>322.2</ele>
        <time>2024-05-01T12:32:17Z</time>
      </trkpt>
      <trkpt lat="45.75747" lon="3.54205">
        <ele>322.2</ele>
        <time>2024-05-01T12:32:18Z</time>
      </trkpt>
      <trkpt lat="45.75754" lon="3.54204">
        <ele>322</ele>
        <time>2024-05-01T12:32:19Z</time>
      </trkpt>
      <trkpt lat="45.7576" lon="3.54203">
        <ele>322</ele>
        <time>2024-05-01T12:32:20Z</time>
      </trkpt>
      <trkpt lat="45.75767" lon="3.54202">
        <ele>322</ele>
        <time>2024-05-01T12:32:21Z</time>
      </trkpt>
      <trkpt lat="45.75773" lon="3.54201">
        <ele>321.8</ele>
        <time>2024-05-01T12:32:22Z</time>
      </trkpt>
      <trkpt lat="45.7578" lon="3.542">
        <ele>321.8</ele>
        <time>2024-05-01T12:32:23Z</time>
      </trkpt>
      <trkpt lat="45.75786" lon="3.54199">
        <ele>321.6</ele>
        <time>2024-05-01T12:32:24Z</time>
      </trkpt>
      <trkpt lat="45.75793" lon="3.54197">
        <ele>321.6</ele>
        <time>2024-05-01T12:32:25Z</time>
      </trkpt>
      <trkpt lat="45.758" lon="3.54197">
        <ele>321.4</ele>
        <time>2024-05-01T12:32:26Z</time>
      </trkpt>
      <trkpt lat="45.75806" lon="3.54197">
        <ele>321.4</ele>
        <time>2024-05-01T12:32:27Z</time>
      </trkpt>
      <trkpt lat="45.75813" lon="3.54197">
        <ele>321.2</ele>
        <time>2024-05-01T12:32:28Z</time>
      </trkpt>
      <trkpt lat="45.7582" lon="3.54197">
        <ele>321.2</ele>
        <time>2024-05-01T12:32:29Z</time>
      </trkpt>
      <trkpt lat="45.75827" lon="3.54197">
        <ele>321.2</ele>
        <time>2024-05-01T12:32:30Z</time>
      </trkpt>
      <trkpt lat="45.75833" lon="3.54197">
        <ele>321</ele>
        <time>2024-05-01T12:32:31Z</time>
      </trkpt>
      <trkpt lat="45.7584" lon="3.54197">
        <ele>321</ele>
        <time>2024-05-01T12:32:32Z</time>
      </trkpt>
      <trkpt lat="45.75847" lon="3.54197">
        <ele>321</ele>
        <time>2024-05-01T12:32:33Z</time>
      </trkpt>
      <trkpt lat="45.75853" lon="3.54197">
        <ele>321</ele>
        <time>2024-05-01T12:32:34Z</time>
      </trkpt>
      <trkpt lat="45.7586" lon="3.54197">
        <ele>320.8</ele>
        <time>2024-05-01T12:32:35Z</time>
      </trkpt>
      <trkpt lat="45.75867" lon="3.54196">
        <ele>320.8</ele>
        <time>2024-05-01T12:32:36Z</time>
      </trkpt>
      <trkpt lat="45.75874" lon="3.54196">
        <ele>320.8</ele>
        <time>2024-05-01T12:32:37Z</time>
      </trkpt>
      <trkpt lat="45.7588" lon="3.54196">
        <ele>320.6</ele>
        <time>2024-05-01T12:32:38Z</time>
      </trkpt>
      <trkpt lat="45.75887" lon="3.54196">
        <ele>320.6</ele>
        <time>2024-05-01T12:32:39Z</time>
      </trkpt>
      <trkpt lat="45.75894" lon="3.54196">
        <ele>320.6</ele>
        <time>2024-05-01T12:32:40Z</time>
      </trkpt>
      <trkpt lat="45.759" lon="3.54196">
        <ele>320.4</ele>
        <time>2024-05-01T12:32:41Z</time>
      </trkpt>
      <trkpt lat="45.75907" lon="3.54196">
        <ele>320.4</ele>
        <time>2024-05-01T12:32:42Z</time>
      </trkpt>
      <trkpt lat="45.75913" lon="3.54196">
        <ele>320.4</ele>
        <time>2024-05-01T12:32:43Z</time>
      </trkpt>
      <trkpt lat="45.75919" lon="3.54196">
        <ele>320.2</ele>
        <time>2024-05-01T12:32:44Z</time>
      </trkpt>
      <trkpt lat="45.75925" lon="3.54196">
        <ele>320.2</ele>
        <time>2024-05-01T12:32:45Z</time>
      </trkpt>
      <trkpt lat="45.75931" lon="3.54195">
        <ele>320</ele>
        <time>2024-05-01T12:32:46Z</time>
      </trkpt>
      <trkpt lat="45.75937" lon="3.54195">
        <ele>320</ele>
        <time>2024-05-01T12:32:47Z</time>
      </trkpt>
      <trkpt lat="45.75943" lon="3.54195">
        <ele>319.8</ele>
        <time>2024-05-01T12:32:48Z</time>
      </trkpt>
      <trkpt lat="45.75949" lon="3.54195">
        <ele>319.8</ele>
        <time>2024-05-01T12:32:49Z</time>
      </trkpt>
      <trkpt lat="45.75955" lon="3.54195">
        <ele>319.8</ele>
        <time>2024-05-01T12:32:50Z</time>
      </trkpt>
      <trkpt lat="45.75962" lon="3.54195">
        <ele>319.6</ele>
        <time>2024-05-01T12:32:51Z</time>
      </trkpt>
      <trkpt lat="45.75968" lon="3.54195">
        <ele>319.6</ele>
        <time>2024-05-01T12:32:52Z</time>
      </trkpt>
      <trkpt lat="45.75975" lon="3.54195">
        <ele>319.6</ele>
        <time>2024-05-01T12:32:53Z</time>
      </trkpt>
      <trkpt lat="45.75982" lon="3.54195">
        <ele>319.6</ele>
        <time>2024-05-01T12:32:54Z</time>
      </trkpt>
      <trkpt lat="45.75988" lon="3.54195">
        <ele>319.4</ele>
        <time>2024-05-01T12:32:55Z</time>
      </trkpt>
      <trkpt lat="45.75994" lon="3.54195">
        <ele>319.4</ele>
        <time>2024-05-01T12:32:56Z</time>
      </trkpt>
      <trkpt lat="45.76001" lon="3.54194">
        <ele>319.2</ele>
        <time>2024-05-01T12:32:57Z</time>
      </trkpt>
      <trkpt lat="45.76007" lon="3.54194">
        <ele>319.2</ele>
        <time>2024-05-01T12:32:58Z</time>
      </trkpt>
      <trkpt lat="45.76013" lon="3.54194">
        <ele>319.2</ele>
        <time>2024-05-01T12:32:59Z</time>
      </trkpt>
      <trkpt lat="45.76019" lon="3.54194">
        <ele>319.2</ele>
        <time>2024-05-01T12:33:00Z</time>
      </trkpt>
      <trkpt lat="45.76025" lon="3.54194">
        <ele>319.2</ele>
        <time>2024-05-01T12:33:01Z</time>
      </trkpt>
      <trkpt lat="45.76031" lon="3.54194">
        <ele>319.2</ele>
        <time>2024-05-01T12:33:02Z</time>
      </trkpt>
      <trkpt lat="45.76036" lon="3.54194">
        <ele>319.2</ele>
        <time>2024-05-01T12:33:03Z</time>
      </trkpt>
      <trkpt lat="45.76041" lon="3.54194">
        <ele>319.2</ele>
        <time>2024-05-01T12:33:04Z</time>
      </trkpt>
      <trkpt lat="45.76047" lon="3.54194">
        <ele>319.2</ele>
        <time>2024-05-01T12:33:05Z</time>
      </trkpt>
      <trkpt lat="45.76052" lon="3.54194">
        <ele>319.2</ele>
        <time>2024-05-01T12:33:06Z</time>
      </trkpt>
      <trkpt lat="45.76058" lon="3.54194">
        <ele>319.2</ele>
        <time>2024-05-01T12:33:07Z</time>
      </trkpt>
      <trkpt lat="45.76064" lon="3.54194">
        <ele>319</ele>
        <time>2024-05-01T12:33:08Z</time>
      </trkpt>
      <trkpt lat="45.7607" lon="3.54193">
        <ele>319</ele>
        <time>2024-05-01T12:33:09Z</time>
      </trkpt>
      <trkpt lat="45.76076" lon="3.54193">
        <ele>319</ele>
        <time>2024-05-01T12:33:10Z</time>
      </trkpt>
      <trkpt lat="45.76083" lon="3.54193">
        <ele>318.8</ele>
        <time>2024-05-01T12:33:11Z</time>
      </trkpt>
      <trkpt lat="45.76089" lon="3.54192">
        <ele>318.8</ele>
        <time>2024-05-01T12:33:12Z</time>
      </trkpt>
      <trkpt lat="45.76095" lon="3.5419">
        <ele>318.8</ele>
        <time>2024-05-01T12:33:13Z</time>
      </trkpt>
      <trkpt lat="45.76101" lon="3.54188">
        <ele>318.6</ele>
        <time>2024-05-01T12:33:14Z</time>
      </trkpt>
      <trkpt lat="45.76107" lon="3.54186">
        <ele>318.6</ele>
        <time>2024-05-01T12:33:15Z</time>
      </trkpt>
      <trkpt lat="45.76113" lon="3.54184">
        <ele>318.6</ele>
        <time>2024-05-01T12:33:16Z</time>
      </trkpt>
      <trkpt lat="45.76119" lon="3.54182">
        <ele>318.4</ele>
        <time>2024-05-01T12:33:17Z</time>
      </trkpt>
      <trkpt lat="45.76126" lon="3.5418">
        <ele>318.4</ele>
        <time>2024-05-01T12:33:18Z</time>
      </trkpt>
      <trkpt lat="45.76131" lon="3.54176">
        <ele>318.4</ele>
        <time>2024-05-01T12:33:19Z</time>
      </trkpt>
      <trkpt lat="45.76137" lon="3.54173">
        <ele>318.2</ele>
        <time>2024-05-01T12:33:20Z</time>
      </trkpt>
      <trkpt lat="45.76142" lon="3.54169">
        <ele>318.2</ele>
        <time>2024-05-01T12:33:21Z</time>
      </trkpt>
      <trkpt lat="45.76148" lon="3.54165">
        <ele>318</ele>
        <time>2024-05-01T12:33:22Z</time>
      </trkpt>
      <trkpt lat="45.76154" lon="3.54162">
        <ele>318</ele>
        <time>2024-05-01T12:33:23Z</time>
      </trkpt>
      <trkpt lat="45.76159" lon="3.54158">
        <ele>318</ele>
        <time>2024-05-01T12:33:24Z</time>
      </trkpt>
      <trkpt lat="45.76165" lon="3.54155">
        <ele>317.8</ele>
        <time>2024-05-01T12:33:25Z</time>
      </trkpt>
      <trkpt lat="45.7617" lon="3.54151">
        <ele>317.8</ele>
        <time>2024-05-01T12:33:26Z</time>
      </trkpt>
      <trkpt lat="45.76176" lon="3.54147">
        <ele>317.8</ele>
        <time>2024-05-01T12:33:27Z</time>
      </trkpt>
      <trkpt lat="45.76181" lon="3.54144">
        <ele>317.8</ele>
        <time>2024-05-01T12:33:28Z</time>
      </trkpt>
      <trkpt lat="45.76187" lon="3.5414">
        <ele>317.8</ele>
        <time>2024-05-01T12:33:29Z</time>
      </trkpt>
      <trkpt lat="45.76192" lon="3.54137">
        <ele>317.8</ele>
        <time>2024-05-01T12:33:30Z</time>
      </trkpt>
      <trkpt lat="45.76197" lon="3.54133">
        <ele>317.8</ele>
        <time>2024-05-01T12:33:31Z</time>
      </trkpt>
      <trkpt lat="45.76203" lon="3.5413">
        <ele>317.8</ele>
        <time>2024-05-01T12:33:32Z</time>
      </trkpt>
      <trkpt lat="45.76208" lon="3.54126">
        <ele>317.8</ele>
        <time>2024-05-01T12:33:33Z</time>
      </trkpt>
      <trkpt lat="45.76213" lon="3.54123">
        <ele>317.8</ele>
        <time>2024-05-01T12:33:34Z</time>
      </trkpt>
      <trkpt lat="45.76218" lon="3.54119">
        <ele>317.8</ele>
        <time>2024-05-01T12:33:35Z</time>
      </trkpt>
      <trkpt lat="45.76224" lon="3.54116">
        <ele>317.8</ele>
        <time>2024-05-01T12:33:36Z</time>
      </trkpt>
      <trkpt lat="45.7623" lon="3.54112">
        <ele>318</ele>
        <time>2024-05-01T12:33:37Z</time>
      </trkpt>
      <trkpt lat="45.76235" lon="3.54108">
        <ele>318</ele>
        <time>2024-05-01T12:33:38Z</time>
      </trkpt>
      <trkpt lat="45.76241" lon="3.54105">
        <ele>317.4</ele>
        <time>2024-05-01T12:33:39Z</time>
      </trkpt>
      <trkpt lat="45.76247" lon="3.54101">
        <ele>317.8</ele>
        <time>2024-05-01T12:33:40Z</time>
      </trkpt>
      <trkpt lat="45.76252" lon="3.54097">
        <ele>318</ele>
        <time>2024-05-01T12:33:41Z</time>
      </trkpt>
      <trkpt lat="45.76258" lon="3.54094">
        <ele>318</ele>
        <time>2024-05-01T12:33:42Z</time>
      </trkpt>
      <trkpt lat="45.76263" lon="3.54091">
        <ele>318</ele>
        <time>2024-05-01T12:33:43Z</time>
      </trkpt>
      <trkpt lat="45.76269" lon="3.54087">
        <ele>318.2</ele>
        <time>2024-05-01T12:33:44Z</time>
      </trkpt>
      <trkpt lat="45.76275" lon="3.54084">
        <ele>318.4</ele>
        <time>2024-05-01T12:33:45Z</time>
      </trkpt>
      <trkpt lat="45.7628" lon="3.54082">
        <ele>318.6</ele>
        <time>2024-05-01T12:33:46Z</time>
      </trkpt>
      <trkpt lat="45.76285" lon="3.54079">
        <ele>318.2</ele>
        <time>2024-05-01T12:33:47Z</time>
      </trkpt>
      <trkpt lat="45.76291" lon="3.54077">
        <ele>318.2</ele>
        <time>2024-05-01T12:33:48Z</time>
      </trkpt>
      <trkpt lat="45.76297" lon="3.54074">
        <ele>318.2</ele>
        <time>2024-05-01T12:33:49Z</time>
      </trkpt>
      <trkpt lat="45.76302" lon="3.54072">
        <ele>318.2</ele>
        <time>2024-05-01T12:33:50Z</time>
      </trkpt>
      <trkpt lat="45.76307" lon="3.54068">
        <ele>318.2</ele>
        <time>2024-05-01T12:33:51Z</time>
      </trkpt>
      <trkpt lat="45.76312" lon="3.54064">
        <ele>318.4</ele>
        <time>2024-05-01T12:33:52Z</time>
      </trkpt>
      <trkpt lat="45.76317" lon="3.5406">
        <ele>318.4</ele>
        <time>2024-05-01T12:33:53Z</time>
      </trkpt>
      <trkpt lat="45.76322" lon="3.54056">
        <ele>318.4</ele>
        <time>2024-05-01T12:33:54Z</time>
      </trkpt>
      <trkpt lat="45.76328" lon="3.54052">
        <ele>318.4</ele>
        <time>2024-05-01T12:33:55Z</time>
      </trkpt>
      <trkpt lat="45.76336" lon="3.54052">
        <ele>318.4</ele>
        <time>2024-05-01T12:33:56Z</time>
      </trkpt>
      <trkpt lat="45.7634" lon="3.5405">
        <ele>318.4</ele>
        <time>2024-05-01T12:33:57Z</time>
      </trkpt>
      <trkpt lat="45.76344" lon="3.54047">
        <ele>318.6</ele>
        <time>2024-05-01T12:33:58Z</time>
      </trkpt>
      <trkpt lat="45.76349" lon="3.54041">
        <ele>318.6</ele>
        <time>2024-05-01T12:33:59Z</time>
      </trkpt>
      <trkpt lat="45.76354" lon="3.54036">
        <ele>318.6</ele>
        <time>2024-05-01T12:34:00Z</time>
      </trkpt>
      <trkpt lat="45.7636" lon="3.54031">
        <ele>318.6</ele>
        <time>2024-05-01T12:34:01Z</time>
      </trkpt>
      <trkpt lat="45.76365" lon="3.54027">
        <ele>318.6</ele>
        <time>2024-05-01T12:34:02Z</time>
      </trkpt>
      <trkpt lat="45.7637" lon="3.54022">
        <ele>318.6</ele>
        <time>2024-05-01T12:34:03Z</time>
      </trkpt>
      <trkpt lat="45.76375" lon="3.54018">
        <ele>318.6</ele>
        <time>2024-05-01T12:34:04Z</time>
      </trkpt>
      <trkpt lat="45.7638" lon="3.54013">
        <ele>318.6</ele>
        <time>2024-05-01T12:34:05Z</time>
      </trkpt>
      <trkpt lat="45.76386" lon="3.54008">
        <ele>318.6</ele>
        <time>2024-05-01T12:34:06Z</time>
      </trkpt>
      <trkpt lat="45.76392" lon="3.54003">
        <ele>318.6</ele>
        <time>2024-05-01T12:34:07Z</time>
      </trkpt>
      <trkpt lat="45.76397" lon="3.53998">
        <ele>318.6</ele>
        <time>2024-05-01T12:34:08Z</time>
      </trkpt>
      <trkpt lat="45.76404" lon="3.53994">
        <ele>318.6</ele>
        <time>2024-05-01T12:34:09Z</time>
      </trkpt>
      <trkpt lat="45.76411" lon="3.53992">
        <ele>318.6</ele>
        <time>2024-05-01T12:34:10Z</time>
      </trkpt>
      <trkpt lat="45.76417" lon="3.53989">
        <ele>318.6</ele>
        <time>2024-05-01T12:34:11Z</time>
      </trkpt>
      <trkpt lat="45.76424" lon="3.53986">
        <ele>318.6</ele>
        <time>2024-05-01T12:34:12Z</time>
      </trkpt>
      <trkpt lat="45.76431" lon="3.53983">
        <ele>318.6</ele>
        <time>2024-05-01T12:34:13Z</time>
      </trkpt>
      <trkpt lat="45.76438" lon="3.53981">
        <ele>319</ele>
        <time>2024-05-01T12:34:14Z</time>
      </trkpt>
      <trkpt lat="45.76445" lon="3.53978">
        <ele>318.6</ele>
        <time>2024-05-01T12:34:15Z</time>
      </trkpt>
      <trkpt lat="45.76452" lon="3.53975">
        <ele>318.6</ele>
        <time>2024-05-01T12:34:16Z</time>
      </trkpt>
      <trkpt lat="45.76459" lon="3.53972">
        <ele>318.4</ele>
        <time>2024-05-01T12:34:17Z</time>
      </trkpt>
      <trkpt lat="45.76466" lon="3.53969">
        <ele>318.2</ele>
        <time>2024-05-01T12:34:18Z</time>
      </trkpt>
      <trkpt lat="45.76473" lon="3.53967">
        <ele>318.4</ele>
        <time>2024-05-01T12:34:19Z</time>
      </trkpt>
      <trkpt lat="45.7648" lon="3.53964">
        <ele>318.4</ele>
        <time>2024-05-01T12:34:20Z</time>
      </trkpt>
      <trkpt lat="45.76487" lon="3.53961">
        <ele>318.4</ele>
        <time>2024-05-01T12:34:21Z</time>
      </trkpt>
      <trkpt lat="45.76494" lon="3.53958">
        <ele>318.2</ele>
        <time>2024-05-01T12:34:22Z</time>
      </trkpt>
      <trkpt lat="45.76501" lon="3.53955">
        <ele>318.2</ele>
        <time>2024-05-01T12:34:23Z</time>
      </trkpt>
      <trkpt lat="45.76508" lon="3.53952">
        <ele>318.2</ele>
        <time>2024-05-01T12:34:24Z</time>
      </trkpt>
      <trkpt lat="45.76515" lon="3.5395">
        <ele>318.2</ele>
        <time>2024-05-01T12:34:25Z</time>
      </trkpt>
      <trkpt lat="45.76522" lon="3.53947">
        <ele>318.2</ele>
        <time>2024-05-01T12:34:26Z</time>
      </trkpt>
      <trkpt lat="45.76529" lon="3.53944">
        <ele>318</ele>
        <time>2024-05-01T12:34:27Z</time>
      </trkpt>
      <trkpt lat="45.76536" lon="3.53941">
        <ele>318</ele>
        <time>2024-05-01T12:34:28Z</time>
      </trkpt>
      <trkpt lat="45.76543" lon="3.53939">
        <ele>318</ele>
        <time>2024-05-01T12:34:29Z</time>
      </trkpt>
      <trkpt lat="45.7655" lon="3.53936">
        <ele>318</ele>
        <time>2024-05-01T12:34:30Z</time>
      </trkpt>
      <trkpt lat="45.76557" lon="3.53933">
        <ele>318</ele>
        <time>2024-05-01T12:34:31Z</time>
      </trkpt>
      <trkpt lat="45.76564" lon="3.5393">
        <ele>318</ele>
        <time>2024-05-01T12:34:32Z</time>
      </trkpt>
      <trkpt lat="45.76572" lon="3.53927">
        <ele>318</ele>
        <time>2024-05-01T12:34:33Z</time>
      </trkpt>
      <trkpt lat="45.76579" lon="3.53924">
        <ele>318</ele>
        <time>2024-05-01T12:34:34Z</time>
      </trkpt>
      <trkpt lat="45.76586" lon="3.53922">
        <ele>318</ele>
        <time>2024-05-01T12:34:35Z</time>
      </trkpt>
      <trkpt lat="45.76593" lon="3.53919">
        <ele>317.8</ele>
        <time>2024-05-01T12:34:36Z</time>
      </trkpt>
      <trkpt lat="45.766" lon="3.53916">
        <ele>317.8</ele>
        <time>2024-05-01T12:34:37Z</time>
      </trkpt>
      <trkpt lat="45.76607" lon="3.53913">
        <ele>317.8</ele>
        <time>2024-05-01T12:34:38Z</time>
      </trkpt>
      <trkpt lat="45.76614" lon="3.5391">
        <ele>317.6</ele>
        <time>2024-05-01T12:34:39Z</time>
      </trkpt>
      <trkpt lat="45.76621" lon="3.53907">
        <ele>317.6</ele>
        <time>2024-05-01T12:34:40Z</time>
      </trkpt>
      <trkpt lat="45.76628" lon="3.53904">
        <ele>317.4</ele>
        <time>2024-05-01T12:34:41Z</time>
      </trkpt>
      <trkpt lat="45.76636" lon="3.53902">
        <ele>317.4</ele>
        <time>2024-05-01T12:34:42Z</time>
      </trkpt>
      <trkpt lat="45.76642" lon="3.53899">
        <ele>317.4</ele>
        <time>2024-05-01T12:34:43Z</time>
      </trkpt>
      <trkpt lat="45.76649" lon="3.53896">
        <ele>317.4</ele>
        <time>2024-05-01T12:34:44Z</time>
      </trkpt>
      <trkpt lat="45.76656" lon="3.53893">
        <ele>317.4</ele>
        <time>2024-05-01T12:34:45Z</time>
      </trkpt>
      <trkpt lat="45.76664" lon="3.5389">
        <ele>317.4</ele>
        <time>2024-05-01T12:34:46Z</time>
      </trkpt>
      <trkpt lat="45.76671" lon="3.53887">
        <ele>317.2</ele>
        <time>2024-05-01T12:34:47Z</time>
      </trkpt>
      <trkpt lat="45.76678" lon="3.53885">
        <ele>317.2</ele>
        <time>2024-05-01T12:34:48Z</time>
      </trkpt>
      <trkpt lat="45.76685" lon="3.53882">
        <ele>317.2</ele>
        <time>2024-05-01T12:34:49Z</time>
      </trkpt>
      <trkpt lat="45.76692" lon="3.53879">
        <ele>317.2</ele>
        <time>2024-05-01T12:34:50Z</time>
      </trkpt>
      <trkpt lat="45.76699" lon="3.53876">
        <ele>317.2</ele>
        <time>2024-05-01T12:34:51Z</time>
      </trkpt>
      <trkpt lat="45.76706" lon="3.53873">
        <ele>317.2</ele>
        <time>2024-05-01T12:34:52Z</time>
      </trkpt>
      <trkpt lat="45.76713" lon="3.53871">
        <ele>317.2</ele>
        <time>2024-05-01T12:34:53Z</time>
      </trkpt>
      <trkpt lat="45.7672" lon="3.53868">
        <ele>317.2</ele>
        <time>2024-05-01T12:34:54Z</time>
      </trkpt>
      <trkpt lat="45.76727" lon="3.53865">
        <ele>317</ele>
        <time>2024-05-01T12:34:55Z</time>
      </trkpt>
      <trkpt lat="45.76734" lon="3.53862">
        <ele>317</ele>
        <time>2024-05-01T12:34:56Z</time>
      </trkpt>
      <trkpt lat="45.76741" lon="3.53859">
        <ele>317</ele>
        <time>2024-05-01T12:34:57Z</time>
      </trkpt>
      <trkpt lat="45.76748" lon="3.53857">
        <ele>317</ele>
        <time>2024-05-01T12:34:58Z</time>
      </trkpt>
      <trkpt lat="45.76755" lon="3.53854">
        <ele>317</ele>
        <time>2024-05-01T12:34:59Z</time>
      </trkpt>
      <trkpt lat="45.76762" lon="3.53851">
        <ele>317</ele>
        <time>2024-05-01T12:35:00Z</time>
      </trkpt>
      <trkpt lat="45.76769" lon="3.53849">
        <ele>317</ele>
        <time>2024-05-01T12:35:01Z</time>
      </trkpt>
      <trkpt lat="45.76775" lon="3.53846">
        <ele>317</ele>
        <time>2024-05-01T12:35:02Z</time>
      </trkpt>
      <trkpt lat="45.76782" lon="3.53843">
        <ele>317</ele>
        <time>2024-05-01T12:35:03Z</time>
      </trkpt>
      <trkpt lat="45.76789" lon="3.53841">
        <ele>316.8</ele>
        <time>2024-05-01T12:35:04Z</time>
      </trkpt>
      <trkpt lat="45.76795" lon="3.53838">
        <ele>316.8</ele>
        <time>2024-05-01T12:35:05Z</time>
      </trkpt>
      <trkpt lat="45.76802" lon="3.53836">
        <ele>316.8</ele>
        <time>2024-05-01T12:35:06Z</time>
      </trkpt>
      <trkpt lat="45.76808" lon="3.53833">
        <ele>316.8</ele>
        <time>2024-05-01T12:35:07Z</time>
      </trkpt>
      <trkpt lat="45.76815" lon="3.53831">
        <ele>316.8</ele>
        <time>2024-05-01T12:35:08Z</time>
      </trkpt>
      <trkpt lat="45.76821" lon="3.53828">
        <ele>316.8</ele>
        <time>2024-05-01T12:35:09Z</time>
      </trkpt>
      <trkpt lat="45.76828" lon="3.53825">
        <ele>316.8</ele>
        <time>2024-05-01T12:35:10Z</time>
      </trkpt>
      <trkpt lat="45.76835" lon="3.53823">
        <ele>316.8</ele>
        <time>2024-05-01T12:35:11Z</time>
      </trkpt>
      <trkpt lat="45.76841" lon="3.5382">
        <ele>316.8</ele>
        <time>2024-05-01T12:35:12Z</time>
      </trkpt>
      <trkpt lat="45.76847" lon="3.53818">
        <ele>316.6</ele>
        <time>2024-05-01T12:35:13Z</time>
      </trkpt>
      <trkpt lat="45.76854" lon="3.53815">
        <ele>316.6</ele>
        <time>2024-05-01T12:35:14Z</time>
      </trkpt>
      <trkpt lat="45.7686" lon="3.53813">
        <ele>316.6</ele>
        <time>2024-05-01T12:35:15Z</time>
      </trkpt>
      <trkpt lat="45.76866" lon="3.5381">
        <ele>316.6</ele>
        <time>2024-05-01T12:35:16Z</time>
      </trkpt>
      <trkpt lat="45.76873" lon="3.53808">
        <ele>316.6</ele>
        <time>2024-05-01T12:35:17Z</time>
      </trkpt>
      <trkpt lat="45.76879" lon="3.53805">
        <ele>316.6</ele>
        <time>2024-05-01T12:35:18Z</time>
      </trkpt>
      <trkpt lat="45.76886" lon="3.53803">
        <ele>316.4</ele>
        <time>2024-05-01T12:35:19Z</time>
      </trkpt>
      <trkpt lat="45.76892" lon="3.538">
        <ele>316.4</ele>
        <time>2024-05-01T12:35:20Z</time>
      </trkpt>
      <trkpt lat="45.76899" lon="3.53798">
        <ele>316.4</ele>
        <time>2024-05-01T12:35:21Z</time>
      </trkpt>
      <trkpt lat="45.76905" lon="3.53795">
        <ele>316.4</ele>
        <time>2024-05-01T12:35:22Z</time>
      </trkpt>
      <trkpt lat="45.76912" lon="3.53793">
        <ele>316.4</ele>
        <time>2024-05-01T12:35:23Z</time>
      </trkpt>
      <trkpt lat="45.76919" lon="3.53791">
        <ele>316.4</ele>
        <time>2024-05-01T12:35:24Z</time>
      </trkpt>
      <trkpt lat="45.76926" lon="3.53788">
        <ele>316.4</ele>
        <time>2024-05-01T12:35:25Z</time>
      </trkpt>
      <trkpt lat="45.76932" lon="3.53786">
        <ele>316.4</ele>
        <time>2024-05-01T12:35:26Z</time>
      </trkpt>
      <trkpt lat="45.76938" lon="3.53784">
        <ele>316.4</ele>
        <time>2024-05-01T12:35:27Z</time>
      </trkpt>
      <trkpt lat="45.76945" lon="3.53781">
        <ele>316.4</ele>
        <time>2024-05-01T12:35:28Z</time>
      </trkpt>
      <trkpt lat="45.76951" lon="3.53778">
        <ele>316.4</ele>
        <time>2024-05-01T12:35:29Z</time>
      </trkpt>
      <trkpt lat="45.76958" lon="3.53775">
        <ele>316.4</ele>
        <time>2024-05-01T12:35:30Z</time>
      </trkpt>
      <trkpt lat="45.76964" lon="3.53772">
        <ele>316.4</ele>
        <time>2024-05-01T12:35:31Z</time>
      </trkpt>
      <trkpt lat="45.7697" lon="3.53769">
        <ele>316.4</ele>
        <time>2024-05-01T12:35:32Z</time>
      </trkpt>
      <trkpt lat="45.76977" lon="3.53767">
        <ele>316.2</ele>
        <time>2024-05-01T12:35:33Z</time>
      </trkpt>
      <trkpt lat="45.76984" lon="3.53764">
        <ele>316.2</ele>
        <time>2024-05-01T12:35:34Z</time>
      </trkpt>
      <trkpt lat="45.7699" lon="3.53762">
        <ele>316.2</ele>
        <time>2024-05-01T12:35:35Z</time>
      </trkpt>
      <trkpt lat="45.76997" lon="3.53759">
        <ele>316.2</ele>
        <time>2024-05-01T12:35:36Z</time>
      </trkpt>
      <trkpt lat="45.77003" lon="3.53757">
        <ele>316.2</ele>
        <time>2024-05-01T12:35:37Z</time>
      </trkpt>
      <trkpt lat="45.77009" lon="3.53754">
        <ele>316.2</ele>
        <time>2024-05-01T12:35:38Z</time>
      </trkpt>
      <trkpt lat="45.77016" lon="3.53752">
        <ele>316</ele>
        <time>2024-05-01T12:35:39Z</time>
      </trkpt>
      <trkpt lat="45.77022" lon="3.53749">
        <ele>316</ele>
        <time>2024-05-01T12:35:40Z</time>
      </trkpt>
      <trkpt lat="45.77029" lon="3.53747">
        <ele>316</ele>
        <time>2024-05-01T12:35:41Z</time>
      </trkpt>
      <trkpt lat="45.77035" lon="3.53745">
        <ele>316</ele>
        <time>2024-05-01T12:35:42Z</time>
      </trkpt>
      <trkpt lat="45.77041" lon="3.53742">
        <ele>316</ele>
        <time>2024-05-01T12:35:43Z</time>
      </trkpt>
      <trkpt lat="45.77048" lon="3.5374">
        <ele>315.8</ele>
        <time>2024-05-01T12:35:44Z</time>
      </trkpt>
      <trkpt lat="45.77054" lon="3.53737">
        <ele>315.8</ele>
        <time>2024-05-01T12:35:45Z</time>
      </trkpt>
      <trkpt lat="45.77061" lon="3.53735">
        <ele>315.8</ele>
        <time>2024-05-01T12:35:46Z</time>
      </trkpt>
      <trkpt lat="45.77067" lon="3.53732">
        <ele>315.8</ele>
        <time>2024-05-01T12:35:47Z</time>
      </trkpt>
      <trkpt lat="45.77074" lon="3.53729">
        <ele>315.6</ele>
        <time>2024-05-01T12:35:48Z</time>
      </trkpt>
      <trkpt lat="45.7708" lon="3.53727">
        <ele>315.6</ele>
        <time>2024-05-01T12:35:49Z</time>
      </trkpt>
      <trkpt lat="45.77087" lon="3.53724">
        <ele>315.6</ele>
        <time>2024-05-01T12:35:50Z</time>
      </trkpt>
      <trkpt lat="45.77093" lon="3.53721">
        <ele>315.6</ele>
        <time>2024-05-01T12:35:51Z</time>
      </trkpt>
      <trkpt lat="45.771" lon="3.53719">
        <ele>315.4</ele>
        <time>2024-05-01T12:35:52Z</time>
      </trkpt>
      <trkpt lat="45.77106" lon="3.53716">
        <ele>315.4</ele>
        <time>2024-05-01T12:35:53Z</time>
      </trkpt>
      <trkpt lat="45.77113" lon="3.53714">
        <ele>315.4</ele>
        <time>2024-05-01T12:35:54Z</time>
      </trkpt>
      <trkpt lat="45.77119" lon="3.53711">
        <ele>315.4</ele>
        <time>2024-05-01T12:35:55Z</time>
      </trkpt>
      <trkpt lat="45.77125" lon="3.53708">
        <ele>315.2</ele>
        <time>2024-05-01T12:35:56Z</time>
      </trkpt>
      <trkpt lat="45.77132" lon="3.53706">
        <ele>315.2</ele>
        <time>2024-05-01T12:35:57Z</time>
      </trkpt>
      <trkpt lat="45.77145" lon="3.537">
        <ele>315.2</ele>
        <time>2024-05-01T12:35:58Z</time>
      </trkpt>
      <trkpt lat="45.77145" lon="3.537">
        <ele>315.2</ele>
        <time>2024-05-01T12:35:59Z</time>
      </trkpt>
      <trkpt lat="45.77152" lon="3.53698">
        <ele>315.2</ele>
        <time>2024-05-01T12:36:00Z</time>
      </trkpt>
      <trkpt lat="45.77158" lon="3.53695">
        <ele>315.2</ele>
        <time>2024-05-01T12:36:01Z</time>
      </trkpt>
      <trkpt lat="45.77165" lon="3.53692">
        <ele>315.2</ele>
        <time>2024-05-01T12:36:02Z</time>
      </trkpt>
      <trkpt lat="45.77172" lon="3.5369">
        <ele>315</ele>
        <time>2024-05-01T12:36:03Z</time>
      </trkpt>
      <trkpt lat="45.77178" lon="3.53687">
        <ele>315</ele>
        <time>2024-05-01T12:36:04Z</time>
      </trkpt>
      <trkpt lat="45.77185" lon="3.53684">
        <ele>315</ele>
        <time>2024-05-01T12:36:05Z</time>
      </trkpt>
      <trkpt lat="45.77192" lon="3.53682">
        <ele>315</ele>
        <time>2024-05-01T12:36:06Z</time>
      </trkpt>
      <trkpt lat="45.77198" lon="3.53679">
        <ele>315</ele>
        <time>2024-05-01T12:36:07Z</time>
      </trkpt>
      <trkpt lat="45.77205" lon="3.53676">
        <ele>315</ele>
        <time>2024-05-01T12:36:08Z</time>
      </trkpt>
      <trkpt lat="45.77211" lon="3.53674">
        <ele>315</ele>
        <time>2024-05-01T12:36:09Z</time>
      </trkpt>
      <trkpt lat="45.77225" lon="3.53668">
        <ele>315</ele>
        <time>2024-05-01T12:36:10Z</time>
      </trkpt>
      <trkpt lat="45.77231" lon="3.53666">
        <ele>315</ele>
        <time>2024-05-01T12:36:11Z</time>
      </trkpt>
      <trkpt lat="45.77238" lon="3.53663">
        <ele>315</ele>
        <time>2024-05-01T12:36:12Z</time>
      </trkpt>
      <trkpt lat="45.77245" lon="3.5366">
        <ele>315</ele>
        <time>2024-05-01T12:36:13Z</time>
      </trkpt>
      <trkpt lat="45.77251" lon="3.53658">
        <ele>315</ele>
        <time>2024-05-01T12:36:14Z</time>
      </trkpt>
      <trkpt lat="45.77258" lon="3.53655">
        <ele>314.8</ele>
        <time>2024-05-01T12:36:15Z</time>
      </trkpt>
      <trkpt lat="45.77264" lon="3.53652">
        <ele>314.8</ele>
        <time>2024-05-01T12:36:16Z</time>
      </trkpt>
      <trkpt lat="45.77271" lon="3.5365">
        <ele>314.8</ele>
        <time>2024-05-01T12:36:17Z</time>
      </trkpt>
      <trkpt lat="45.77278" lon="3.53647">
        <ele>314.8</ele>
        <time>2024-05-01T12:36:18Z</time>
      </trkpt>
      <trkpt lat="45.77284" lon="3.53644">
        <ele>314.8</ele>
        <time>2024-05-01T12:36:19Z</time>
      </trkpt>
      <trkpt lat="45.77291" lon="3.53642">
        <ele>314.8</ele>
        <time>2024-05-01T12:36:20Z</time>
      </trkpt>
      <trkpt lat="45.77298" lon="3.53639">
        <ele>314.8</ele>
        <time>2024-05-01T12:36:21Z</time>
      </trkpt>
      <trkpt lat="45.77304" lon="3.53636">
        <ele>314.6</ele>
        <time>2024-05-01T12:36:22Z</time>
      </trkpt>
      <trkpt lat="45.77311" lon="3.53634">
        <ele>314.6</ele>
        <time>2024-05-01T12:36:23Z</time>
      </trkpt>
      <trkpt lat="45.77318" lon="3.53631">
        <ele>314.6</ele>
        <time>2024-05-01T12:36:24Z</time>
      </trkpt>
      <trkpt lat="45.77324" lon="3.53628">
        <ele>314.6</ele>
        <time>2024-05-01T12:36:25Z</time>
      </trkpt>
      <trkpt lat="45.77331" lon="3.53626">
        <ele>314.6</ele>
        <time>2024-05-01T12:36:26Z</time>
      </trkpt>
      <trkpt lat="45.77338" lon="3.53623">
        <ele>314.6</ele>
        <time>2024-05-01T12:36:27Z</time>
      </trkpt>
      <trkpt lat="45.77344" lon="3.5362">
        <ele>314.6</ele>
        <time>2024-05-01T12:36:28Z</time>
      </trkpt>
      <trkpt lat="45.77351" lon="3.53618">
        <ele>314.6</ele>
        <time>2024-05-01T12:36:29Z</time>
      </trkpt>
      <trkpt lat="45.77357" lon="3.53615">
        <ele>314.6</ele>
        <time>2024-05-01T12:36:30Z</time>
      </trkpt>
      <trkpt lat="45.77364" lon="3.53612">
        <ele>314.6</ele>
        <time>2024-05-01T12:36:31Z</time>
      </trkpt>
      <trkpt lat="45.77371" lon="3.53609">
        <ele>314.6</ele>
        <time>2024-05-01T12:36:32Z</time>
      </trkpt>
      <trkpt lat="45.77377" lon="3.53607">
        <ele>314.4</ele>
        <time>2024-05-01T12:36:33Z</time>
      </trkpt>
      <trkpt lat="45.77384" lon="3.53604">
        <ele>314.4</ele>
        <time>2024-05-01T12:36:34Z</time>
      </trkpt>
      <trkpt lat="45.77391" lon="3.53601">
        <ele>314.4</ele>
        <time>2024-05-01T12:36:35Z</time>
      </trkpt>
      <trkpt lat="45.77397" lon="3.53599">
        <ele>314.4</ele>
        <time>2024-05-01T12:36:36Z</time>
      </trkpt>
      <trkpt lat="45.77404" lon="3.53596">
        <ele>314.4</ele>
        <time>2024-05-01T12:36:37Z</time>
      </trkpt>
      <trkpt lat="45.77411" lon="3.53593">
        <ele>314.4</ele>
        <time>2024-05-01T12:36:38Z</time>
      </trkpt>
      <trkpt lat="45.77418" lon="3.53591">
        <ele>314.4</ele>
        <time>2024-05-01T12:36:39Z</time>
      </trkpt>
      <trkpt lat="45.77424" lon="3.53588">
        <ele>314.4</ele>
        <time>2024-05-01T12:36:40Z</time>
      </trkpt>
      <trkpt lat="45.77431" lon="3.53585">
        <ele>314.4</ele>
        <time>2024-05-01T12:36:41Z</time>
      </trkpt>
      <trkpt lat="45.77438" lon="3.53582">
        <ele>314.4</ele>
        <time>2024-05-01T12:36:42Z</time>
      </trkpt>
      <trkpt lat="45.77445" lon="3.5358">
        <ele>314.4</ele>
        <time>2024-05-01T12:36:43Z</time>
      </trkpt>
      <trkpt lat="45.77452" lon="3.53577">
        <ele>314.4</ele>
        <time>2024-05-01T12:36:44Z</time>
      </trkpt>
      <trkpt lat="45.77458" lon="3.53574">
        <ele>314.4</ele>
        <time>2024-05-01T12:36:45Z</time>
      </trkpt>
      <trkpt lat="45.77465" lon="3.53571">
        <ele>314.4</ele>
        <time>2024-05-01T12:36:46Z</time>
      </trkpt>
      <trkpt lat="45.77472" lon="3.53569">
        <ele>314.4</ele>
        <time>2024-05-01T12:36:47Z</time>
      </trkpt>
      <trkpt lat="45.77479" lon="3.53566">
        <ele>314.4</ele>
        <time>2024-05-01T12:36:48Z</time>
      </trkpt>
      <trkpt lat="45.77486" lon="3.53563">
        <ele>314.4</ele>
        <time>2024-05-01T12:36:49Z</time>
      </trkpt>
      <trkpt lat="45.77493" lon="3.5356">
        <ele>314.4</ele>
        <time>2024-05-01T12:36:50Z</time>
      </trkpt>
      <trkpt lat="45.775" lon="3.53558">
        <ele>314.4</ele>
        <time>2024-05-01T12:36:51Z</time>
      </trkpt>
      <trkpt lat="45.77507" lon="3.53555">
        <ele>314.4</ele>
        <time>2024-05-01T12:36:52Z</time>
      </trkpt>
      <trkpt lat="45.77513" lon="3.53552">
        <ele>314.4</ele>
        <time>2024-05-01T12:36:53Z</time>
      </trkpt>
      <trkpt lat="45.7752" lon="3.53549">
        <ele>314.4</ele>
        <time>2024-05-01T12:36:54Z</time>
      </trkpt>
      <trkpt lat="45.77527" lon="3.53547">
        <ele>314.4</ele>
        <time>2024-05-01T12:36:55Z</time>
      </trkpt>
      <trkpt lat="45.77534" lon="3.53544">
        <ele>314.4</ele>
        <time>2024-05-01T12:36:56Z</time>
      </trkpt>
      <trkpt lat="45.77541" lon="3.53541">
        <ele>314.2</ele>
        <time>2024-05-01T12:36:57Z</time>
      </trkpt>
      <trkpt lat="45.77547" lon="3.53539">
        <ele>314.2</ele>
        <time>2024-05-01T12:36:58Z</time>
      </trkpt>
      <trkpt lat="45.77554" lon="3.53536">
        <ele>314.2</ele>
        <time>2024-05-01T12:36:59Z</time>
      </trkpt>
      <trkpt lat="45.77561" lon="3.53533">
        <ele>314.2</ele>
        <time>2024-05-01T12:37:00Z</time>
      </trkpt>
      <trkpt lat="45.77567" lon="3.53531">
        <ele>314.2</ele>
        <time>2024-05-01T12:37:01Z</time>
      </trkpt>
      <trkpt lat="45.77574" lon="3.53528">
        <ele>314.2</ele>
        <time>2024-05-01T12:37:02Z</time>
      </trkpt>
      <trkpt lat="45.77581" lon="3.53525">
        <ele>314.2</ele>
        <time>2024-05-01T12:37:03Z</time>
      </trkpt>
      <trkpt lat="45.77587" lon="3.53523">
        <ele>314</ele>
        <time>2024-05-01T12:37:04Z</time>
      </trkpt>
      <trkpt lat="45.77594" lon="3.5352">
        <ele>314</ele>
        <time>2024-05-01T12:37:05Z</time>
      </trkpt>
      <trkpt lat="45.77601" lon="3.53517">
        <ele>314</ele>
        <time>2024-05-01T12:37:06Z</time>
      </trkpt>
      <trkpt lat="45.77607" lon="3.53515">
        <ele>314</ele>
        <time>2024-05-01T12:37:07Z</time>
      </trkpt>
      <trkpt lat="45.77614" lon="3.53512">
        <ele>314</ele>
        <time>2024-05-01T12:37:08Z</time>
      </trkpt>
      <trkpt lat="45.7762" lon="3.53509">
        <ele>314</ele>
        <time>2024-05-01T12:37:09Z</time>
      </trkpt>
      <trkpt lat="45.77627" lon="3.53507">
        <ele>314</ele>
        <time>2024-05-01T12:37:10Z</time>
      </trkpt>
      <trkpt lat="45.77633" lon="3.53504">
        <ele>314</ele>
        <time>2024-05-01T12:37:11Z</time>
      </trkpt>
      <trkpt lat="45.7764" lon="3.53502">
        <ele>314.2</ele>
        <time>2024-05-01T12:37:12Z</time>
      </trkpt>
      <trkpt lat="45.77647" lon="3.53499">
        <ele>314</ele>
        <time>2024-05-01T12:37:13Z</time>
      </trkpt>
      <trkpt lat="45.77653" lon="3.53496">
        <ele>314.2</ele>
        <time>2024-05-01T12:37:14Z</time>
      </trkpt>
      <trkpt lat="45.7766" lon="3.53494">
        <ele>314.2</ele>
        <time>2024-05-01T12:37:15Z</time>
      </trkpt>
      <trkpt lat="45.77667" lon="3.53491">
        <ele>314</ele>
        <time>2024-05-01T12:37:16Z</time>
      </trkpt>
      <trkpt lat="45.77673" lon="3.53488">
        <ele>314</ele>
        <time>2024-05-01T12:37:17Z</time>
      </trkpt>
      <trkpt lat="45.7768" lon="3.53486">
        <ele>314.2</ele>
        <time>2024-05-01T12:37:18Z</time>
      </trkpt>
      <trkpt lat="45.77687" lon="3.53483">
        <ele>314</ele>
        <time>2024-05-01T12:37:19Z</time>
      </trkpt>
      <trkpt lat="45.77694" lon="3.5348">
        <ele>314</ele>
        <time>2024-05-01T12:37:20Z</time>
      </trkpt>
      <trkpt lat="45.77701" lon="3.53477">
        <ele>314</ele>
        <time>2024-05-01T12:37:21Z</time>
      </trkpt>
      <trkpt lat="45.77708" lon="3.53475">
        <ele>314</ele>
        <time>2024-05-01T12:37:22Z</time>
      </trkpt>
      <trkpt lat="45.77714" lon="3.53472">
        <ele>314</ele>
        <time>2024-05-01T12:37:23Z</time>
      </trkpt>
      <trkpt lat="45.77721" lon="3.53469">
        <ele>314</ele>
        <time>2024-05-01T12:37:24Z</time>
      </trkpt>
      <trkpt lat="45.77728" lon="3.53466">
        <ele>314</ele>
        <time>2024-05-01T12:37:25Z</time>
      </trkpt>
      <trkpt lat="45.77735" lon="3.53464">
        <ele>314</ele>
        <time>2024-05-01T12:37:26Z</time>
      </trkpt>
      <trkpt lat="45.77741" lon="3.53461">
        <ele>313.8</ele>
        <time>2024-05-01T12:37:27Z</time>
      </trkpt>
      <trkpt lat="45.77748" lon="3.53458">
        <ele>313.8</ele>
        <time>2024-05-01T12:37:28Z</time>
      </trkpt>
      <trkpt lat="45.77755" lon="3.53456">
        <ele>313.8</ele>
        <time>2024-05-01T12:37:29Z</time>
      </trkpt>
      <trkpt lat="45.77761" lon="3.53453">
        <ele>313.8</ele>
        <time>2024-05-01T12:37:30Z</time>
      </trkpt>
      <trkpt lat="45.77768" lon="3.5345">
        <ele>313.8</ele>
        <time>2024-05-01T12:37:31Z</time>
      </trkpt>
      <trkpt lat="45.77774" lon="3.53448">
        <ele>313.8</ele>
        <time>2024-05-01T12:37:32Z</time>
      </trkpt>
      <trkpt lat="45.77781" lon="3.53445">
        <ele>313.8</ele>
        <time>2024-05-01T12:37:33Z</time>
      </trkpt>
      <trkpt lat="45.77787" lon="3.53443">
        <ele>313.8</ele>
        <time>2024-05-01T12:37:34Z</time>
      </trkpt>
      <trkpt lat="45.77794" lon="3.5344">
        <ele>313.8</ele>
        <time>2024-05-01T12:37:35Z</time>
      </trkpt>
      <trkpt lat="45.778" lon="3.53438">
        <ele>313.8</ele>
        <time>2024-05-01T12:37:36Z</time>
      </trkpt>
      <trkpt lat="45.77806" lon="3.53435">
        <ele>313.6</ele>
        <time>2024-05-01T12:37:37Z</time>
      </trkpt>
      <trkpt lat="45.77813" lon="3.53433">
        <ele>313.8</ele>
        <time>2024-05-01T12:37:38Z</time>
      </trkpt>
      <trkpt lat="45.77819" lon="3.5343">
        <ele>313.8</ele>
        <time>2024-05-01T12:37:39Z</time>
      </trkpt>
      <trkpt lat="45.77819" lon="3.5343">
        <ele>313.8</ele>
        <time>2024-05-01T12:37:40Z</time>
      </trkpt>
      <trkpt lat="45.77825" lon="3.53427">
        <ele>313.8</ele>
        <time>2024-05-01T12:37:41Z</time>
      </trkpt>
      <trkpt lat="45.77832" lon="3.53425">
        <ele>313.6</ele>
        <time>2024-05-01T12:37:42Z</time>
      </trkpt>
      <trkpt lat="45.77838" lon="3.53422">
        <ele>313.6</ele>
        <time>2024-05-01T12:37:43Z</time>
      </trkpt>
      <trkpt lat="45.77844" lon="3.5342">
        <ele>313.6</ele>
        <time>2024-05-01T12:37:44Z</time>
      </trkpt>
      <trkpt lat="45.77851" lon="3.53417">
        <ele>313.6</ele>
        <time>2024-05-01T12:37:45Z</time>
      </trkpt>
      <trkpt lat="45.77857" lon="3.53415">
        <ele>313.6</ele>
        <time>2024-05-01T12:37:46Z</time>
      </trkpt>
      <trkpt lat="45.77864" lon="3.53412">
        <ele>313.6</ele>
        <time>2024-05-01T12:37:47Z</time>
      </trkpt>
      <trkpt lat="45.7787" lon="3.5341">
        <ele>313.6</ele>
        <time>2024-05-01T12:37:48Z</time>
      </trkpt>
      <trkpt lat="45.77876" lon="3.53407">
        <ele>313.6</ele>
        <time>2024-05-01T12:37:49Z</time>
      </trkpt>
      <trkpt lat="45.77882" lon="3.53405">
        <ele>313.4</ele>
        <time>2024-05-01T12:37:50Z</time>
      </trkpt>
      <trkpt lat="45.77889" lon="3.53402">
        <ele>313.4</ele>
        <time>2024-05-01T12:37:51Z</time>
      </trkpt>
      <trkpt lat="45.77895" lon="3.534">
        <ele>313.4</ele>
        <time>2024-05-01T12:37:52Z</time>
      </trkpt>
      <trkpt lat="45.77901" lon="3.53397">
        <ele>313.2</ele>
        <time>2024-05-01T12:37:53Z</time>
      </trkpt>
      <trkpt lat="45.77908" lon="3.53394">
        <ele>313.2</ele>
        <time>2024-05-01T12:37:54Z</time>
      </trkpt>
      <trkpt lat="45.77914" lon="3.53392">
        <ele>313.2</ele>
        <time>2024-05-01T12:37:55Z</time>
      </trkpt>
      <trkpt lat="45.7792" lon="3.53389">
        <ele>313.2</ele>
        <time>2024-05-01T12:37:56Z</time>
      </trkpt>
      <trkpt lat="45.77927" lon="3.53387">
        <ele>313</ele>
        <time>2024-05-01T12:37:57Z</time>
      </trkpt>
      <trkpt lat="45.77933" lon="3.53384">
        <ele>313</ele>
        <time>2024-05-01T12:37:58Z</time>
      </trkpt>
      <trkpt lat="45.77939" lon="3.53382">
        <ele>313</ele>
        <time>2024-05-01T12:37:59Z</time>
      </trkpt>
      <trkpt lat="45.77946" lon="3.53379">
        <ele>313</ele>
        <time>2024-05-01T12:38:00Z</time>
      </trkpt>
      <trkpt lat="45.77952" lon="3.53377">
        <ele>313</ele>
        <time>2024-05-01T12:38:01Z</time>
      </trkpt>
      <trkpt lat="45.77958" lon="3.53374">
        <ele>313</ele>
        <time>2024-05-01T12:38:02Z</time>
      </trkpt>
      <trkpt lat="45.77964" lon="3.53372">
        <ele>313</ele>
        <time>2024-05-01T12:38:03Z</time>
      </trkpt>
      <trkpt lat="45.7797" lon="3.53369">
        <ele>312.8</ele>
        <time>2024-05-01T12:38:04Z</time>
      </trkpt>
      <trkpt lat="45.77976" lon="3.53367">
        <ele>312.8</ele>
        <time>2024-05-01T12:38:05Z</time>
      </trkpt>
      <trkpt lat="45.77983" lon="3.53365">
        <ele>312.8</ele>
        <time>2024-05-01T12:38:06Z</time>
      </trkpt>
      <trkpt lat="45.77989" lon="3.53362">
        <ele>313</ele>
        <time>2024-05-01T12:38:07Z</time>
      </trkpt>
      <trkpt lat="45.77995" lon="3.5336">
        <ele>313</ele>
        <time>2024-05-01T12:38:08Z</time>
      </trkpt>
      <trkpt lat="45.78001" lon="3.53357">
        <ele>313</ele>
        <time>2024-05-01T12:38:09Z</time>
      </trkpt>
      <trkpt lat="45.78007" lon="3.53355">
        <ele>313</ele>
        <time>2024-05-01T12:38:10Z</time>
      </trkpt>
      <trkpt lat="45.78013" lon="3.53352">
        <ele>313.2</ele>
        <time>2024-05-01T12:38:11Z</time>
      </trkpt>
      <trkpt lat="45.78019" lon="3.5335">
        <ele>312.8</ele>
        <time>2024-05-01T12:38:12Z</time>
      </trkpt>
      <trkpt lat="45.78026" lon="3.53347">
        <ele>312.8</ele>
        <time>2024-05-01T12:38:13Z</time>
      </trkpt>
      <trkpt lat="45.78032" lon="3.53345">
        <ele>313.2</ele>
        <time>2024-05-01T12:38:14Z</time>
      </trkpt>
      <trkpt lat="45.78039" lon="3.53342">
        <ele>313.6</ele>
        <time>2024-05-01T12:38:15Z</time>
      </trkpt>
      <trkpt lat="45.78045" lon="3.5334">
        <ele>313.8</ele>
        <time>2024-05-01T12:38:16Z</time>
      </trkpt>
      <trkpt lat="45.78051" lon="3.53337">
        <ele>313.8</ele>
        <time>2024-05-01T12:38:17Z</time>
      </trkpt>
      <trkpt lat="45.78064" lon="3.53332">
        <ele>313.8</ele>
        <time>2024-05-01T12:38:18Z</time>
      </trkpt>
      <trkpt lat="45.78071" lon="3.53329">
        <ele>313.4</ele>
        <time>2024-05-01T12:38:19Z</time>
      </trkpt>
      <trkpt lat="45.78071" lon="3.53329">
        <ele>313.4</ele>
        <time>2024-05-01T12:38:20Z</time>
      </trkpt>
      <trkpt lat="45.78077" lon="3.53327">
        <ele>313.4</ele>
        <time>2024-05-01T12:38:21Z</time>
      </trkpt>
      <trkpt lat="45.78083" lon="3.53324">
        <ele>313.4</ele>
        <time>2024-05-01T12:38:22Z</time>
      </trkpt>
      <trkpt lat="45.7809" lon="3.53322">
        <ele>313.4</ele>
        <time>2024-05-01T12:38:23Z</time>
      </trkpt>
      <trkpt lat="45.78096" lon="3.53319">
        <ele>313.4</ele>
        <time>2024-05-01T12:38:24Z</time>
      </trkpt>
      <trkpt lat="45.78103" lon="3.53317">
        <ele>313.4</ele>
        <time>2024-05-01T12:38:25Z</time>
      </trkpt>
      <trkpt lat="45.78109" lon="3.53314">
        <ele>313.4</ele>
        <time>2024-05-01T12:38:26Z</time>
      </trkpt>
      <trkpt lat="45.78115" lon="3.53312">
        <ele>313.4</ele>
        <time>2024-05-01T12:38:27Z</time>
      </trkpt>
      <trkpt lat="45.78122" lon="3.53309">
        <ele>313.4</ele>
        <time>2024-05-01T12:38:28Z</time>
      </trkpt>
      <trkpt lat="45.78128" lon="3.53307">
        <ele>313.4</ele>
        <time>2024-05-01T12:38:29Z</time>
      </trkpt>
      <trkpt lat="45.78134" lon="3.53304">
        <ele>313.4</ele>
        <time>2024-05-01T12:38:30Z</time>
      </trkpt>
      <trkpt lat="45.7814" lon="3.53302">
        <ele>313.4</ele>
        <time>2024-05-01T12:38:31Z</time>
      </trkpt>
      <trkpt lat="45.78147" lon="3.53299">
        <ele>313.4</ele>
        <time>2024-05-01T12:38:32Z</time>
      </trkpt>
      <trkpt lat="45.78153" lon="3.53297">
        <ele>313.4</ele>
        <time>2024-05-01T12:38:33Z</time>
      </trkpt>
      <trkpt lat="45.78159" lon="3.53294">
        <ele>313.4</ele>
        <time>2024-05-01T12:38:34Z</time>
      </trkpt>
      <trkpt lat="45.78165" lon="3.53292">
        <ele>313.4</ele>
        <time>2024-05-01T12:38:35Z</time>
      </trkpt>
      <trkpt lat="45.78172" lon="3.53289">
        <ele>313.4</ele>
        <time>2024-05-01T12:38:36Z</time>
      </trkpt>
      <trkpt lat="45.78178" lon="3.53287">
        <ele>313.4</ele>
        <time>2024-05-01T12:38:37Z</time>
      </trkpt>
      <trkpt lat="45.78184" lon="3.53284">
        <ele>313.4</ele>
        <time>2024-05-01T12:38:38Z</time>
      </trkpt>
      <trkpt lat="45.78191" lon="3.53282">
        <ele>313.4</ele>
        <time>2024-05-01T12:38:39Z</time>
      </trkpt>
      <trkpt lat="45.78197" lon="3.53279">
        <ele>313.4</ele>
        <time>2024-05-01T12:38:40Z</time>
      </trkpt>
      <trkpt lat="45.78203" lon="3.53277">
        <ele>313.4</ele>
        <time>2024-05-01T12:38:41Z</time>
      </trkpt>
      <trkpt lat="45.78209" lon="3.53274">
        <ele>313.4</ele>
        <time>2024-05-01T12:38:42Z</time>
      </trkpt>
      <trkpt lat="45.78216" lon="3.53272">
        <ele>313.4</ele>
        <time>2024-05-01T12:38:43Z</time>
      </trkpt>
      <trkpt lat="45.78222" lon="3.53269">
        <ele>313.6</ele>
        <time>2024-05-01T12:38:44Z</time>
      </trkpt>
      <trkpt lat="45.78228" lon="3.53267">
        <ele>313.6</ele>
        <time>2024-05-01T12:38:45Z</time>
      </trkpt>
      <trkpt lat="45.78234" lon="3.53264">
        <ele>313.6</ele>
        <time>2024-05-01T12:38:46Z</time>
      </trkpt>
      <trkpt lat="45.7824" lon="3.53261">
        <ele>313.6</ele>
        <time>2024-05-01T12:38:47Z</time>
      </trkpt>
      <trkpt lat="45.78246" lon="3.53259">
        <ele>313.6</ele>
        <time>2024-05-01T12:38:48Z</time>
      </trkpt>
      <trkpt lat="45.78252" lon="3.53256">
        <ele>313.6</ele>
        <time>2024-05-01T12:38:49Z</time>
      </trkpt>
      <trkpt lat="45.78258" lon="3.53253">
        <ele>313.6</ele>
        <time>2024-05-01T12:38:50Z</time>
      </trkpt>
      <trkpt lat="45.78264" lon="3.5325">
        <ele>313.8</ele>
        <time>2024-05-01T12:38:51Z</time>
      </trkpt>
      <trkpt lat="45.78271" lon="3.53247">
        <ele>313.8</ele>
        <time>2024-05-01T12:38:52Z</time>
      </trkpt>
      <trkpt lat="45.78277" lon="3.53244">
        <ele>313.8</ele>
        <time>2024-05-01T12:38:53Z</time>
      </trkpt>
      <trkpt lat="45.78283" lon="3.53241">
        <ele>313.8</ele>
        <time>2024-05-01T12:38:54Z</time>
      </trkpt>
      <trkpt lat="45.78289" lon="3.53238">
        <ele>313.8</ele>
        <time>2024-05-01T12:38:55Z</time>
      </trkpt>
      <trkpt lat="45.78294" lon="3.53236">
        <ele>313.8</ele>
        <time>2024-05-01T12:38:56Z</time>
      </trkpt>
      <trkpt lat="45.783" lon="3.53233">
        <ele>313.8</ele>
        <time>2024-05-01T12:38:57Z</time>
      </trkpt>
      <trkpt lat="45.78306" lon="3.5323">
        <ele>313.8</ele>
        <time>2024-05-01T12:38:58Z</time>
      </trkpt>
      <trkpt lat="45.78312" lon="3.53227">
        <ele>313.8</ele>
        <time>2024-05-01T12:38:59Z</time>
      </trkpt>
      <trkpt lat="45.78318" lon="3.53224">
        <ele>313.8</ele>
        <time>2024-05-01T12:39:00Z</time>
      </trkpt>
      <trkpt lat="45.78324" lon="3.53222">
        <ele>314</ele>
        <time>2024-05-01T12:39:01Z</time>
      </trkpt>
      <trkpt lat="45.7833" lon="3.53218">
        <ele>314</ele>
        <time>2024-05-01T12:39:02Z</time>
      </trkpt>
      <trkpt lat="45.78336" lon="3.53215">
        <ele>314</ele>
        <time>2024-05-01T12:39:03Z</time>
      </trkpt>
      <trkpt lat="45.78341" lon="3.53211">
        <ele>314</ele>
        <time>2024-05-01T12:39:04Z</time>
      </trkpt>
      <trkpt lat="45.78347" lon="3.53208">
        <ele>314</ele>
        <time>2024-05-01T12:39:05Z</time>
      </trkpt>
      <trkpt lat="45.78353" lon="3.53204">
        <ele>314.2</ele>
        <time>2024-05-01T12:39:06Z</time>
      </trkpt>
      <trkpt lat="45.78359" lon="3.53201">
        <ele>314.2</ele>
        <time>2024-05-01T12:39:07Z</time>
      </trkpt>
      <trkpt lat="45.78365" lon="3.53197">
        <ele>314.2</ele>
        <time>2024-05-01T12:39:08Z</time>
      </trkpt>
      <trkpt lat="45.78371" lon="3.53194">
        <ele>314.2</ele>
        <time>2024-05-01T12:39:09Z</time>
      </trkpt>
      <trkpt lat="45.78377" lon="3.5319">
        <ele>314.4</ele>
        <time>2024-05-01T12:39:10Z</time>
      </trkpt>
      <trkpt lat="45.78383" lon="3.53186">
        <ele>314.4</ele>
        <time>2024-05-01T12:39:11Z</time>
      </trkpt>
      <trkpt lat="45.78389" lon="3.53183">
        <ele>314.4</ele>
        <time>2024-05-01T12:39:12Z</time>
      </trkpt>
      <trkpt lat="45.78396" lon="3.53179">
        <ele>314.4</ele>
        <time>2024-05-01T12:39:13Z</time>
      </trkpt>
      <trkpt lat="45.78402" lon="3.53176">
        <ele>314.6</ele>
        <time>2024-05-01T12:39:14Z</time>
      </trkpt>
      <trkpt lat="45.78408" lon="3.53172">
        <ele>314.6</ele>
        <time>2024-05-01T12:39:15Z</time>
      </trkpt>
      <trkpt lat="45.78414" lon="3.53168">
        <ele>314.6</ele>
        <time>2024-05-01T12:39:16Z</time>
      </trkpt>
      <trkpt lat="45.7842" lon="3.53165">
        <ele>314.6</ele>
        <time>2024-05-01T12:39:17Z</time>
      </trkpt>
      <trkpt lat="45.78426" lon="3.53161">
        <ele>314.6</ele>
        <time>2024-05-01T12:39:18Z</time>
      </trkpt>
      <trkpt lat="45.78433" lon="3.53157">
        <ele>314.6</ele>
        <time>2024-05-01T12:39:19Z</time>
      </trkpt>
      <trkpt lat="45.78439" lon="3.53154">
        <ele>314.6</ele>
        <time>2024-05-01T12:39:20Z</time>
      </trkpt>
      <trkpt lat="45.78445" lon="3.53149">
        <ele>314.6</ele>
        <time>2024-05-01T12:39:21Z</time>
      </trkpt>
      <trkpt lat="45.78451" lon="3.53145">
        <ele>314.6</ele>
        <time>2024-05-01T12:39:22Z</time>
      </trkpt>
      <trkpt lat="45.78457" lon="3.5314">
        <ele>314.6</ele>
        <time>2024-05-01T12:39:23Z</time>
      </trkpt>
      <trkpt lat="45.78463" lon="3.53136">
        <ele>314.8</ele>
        <time>2024-05-01T12:39:24Z</time>
      </trkpt>
      <trkpt lat="45.78468" lon="3.53132">
        <ele>314.8</ele>
        <time>2024-05-01T12:39:25Z</time>
      </trkpt>
      <trkpt lat="45.78475" lon="3.53127">
        <ele>314.8</ele>
        <time>2024-05-01T12:39:26Z</time>
      </trkpt>
      <trkpt lat="45.78481" lon="3.53122">
        <ele>314.8</ele>
        <time>2024-05-01T12:39:27Z</time>
      </trkpt>
      <trkpt lat="45.78486" lon="3.53118">
        <ele>314.8</ele>
        <time>2024-05-01T12:39:28Z</time>
      </trkpt>
      <trkpt lat="45.78492" lon="3.53113">
        <ele>314.8</ele>
        <time>2024-05-01T12:39:29Z</time>
      </trkpt>
      <trkpt lat="45.78498" lon="3.53109">
        <ele>314.8</ele>
        <time>2024-05-01T12:39:30Z</time>
      </trkpt>
      <trkpt lat="45.78505" lon="3.53104">
        <ele>314.8</ele>
        <time>2024-05-01T12:39:31Z</time>
      </trkpt>
      <trkpt lat="45.7851" lon="3.531">
        <ele>314.8</ele>
        <time>2024-05-01T12:39:32Z</time>
      </trkpt>
      <trkpt lat="45.78516" lon="3.53095">
        <ele>315</ele>
        <time>2024-05-01T12:39:33Z</time>
      </trkpt>
      <trkpt lat="45.78523" lon="3.53091">
        <ele>315</ele>
        <time>2024-05-01T12:39:34Z</time>
      </trkpt>
      <trkpt lat="45.78529" lon="3.53086">
        <ele>315</ele>
        <time>2024-05-01T12:39:35Z</time>
      </trkpt>
      <trkpt lat="45.78535" lon="3.53081">
        <ele>315</ele>
        <time>2024-05-01T12:39:36Z</time>
      </trkpt>
      <trkpt lat="45.78541" lon="3.53077">
        <ele>315</ele>
        <time>2024-05-01T12:39:37Z</time>
      </trkpt>
      <trkpt lat="45.78547" lon="3.53072">
        <ele>315</ele>
        <time>2024-05-01T12:39:38Z</time>
      </trkpt>
      <trkpt lat="45.78553" lon="3.53068">
        <ele>315</ele>
        <time>2024-05-01T12:39:39Z</time>
      </trkpt>
      <trkpt lat="45.78559" lon="3.53063">
        <ele>315</ele>
        <time>2024-05-01T12:39:40Z</time>
      </trkpt>
      <trkpt lat="45.78565" lon="3.53058">
        <ele>315</ele>
        <time>2024-05-01T12:39:41Z</time>
      </trkpt>
      <trkpt lat="45.78571" lon="3.53054">
        <ele>315</ele>
        <time>2024-05-01T12:39:42Z</time>
      </trkpt>
      <trkpt lat="45.78577" lon="3.53049">
        <ele>315.2</ele>
        <time>2024-05-01T12:39:43Z</time>
      </trkpt>
      <trkpt lat="45.78583" lon="3.53045">
        <ele>315.2</ele>
        <time>2024-05-01T12:39:44Z</time>
      </trkpt>
      <trkpt lat="45.7859" lon="3.5304">
        <ele>315</ele>
        <time>2024-05-01T12:39:45Z</time>
      </trkpt>
      <trkpt lat="45.78596" lon="3.53035">
        <ele>315</ele>
        <time>2024-05-01T12:39:46Z</time>
      </trkpt>
      <trkpt lat="45.78602" lon="3.53031">
        <ele>315</ele>
        <time>2024-05-01T12:39:47Z</time>
      </trkpt>
      <trkpt lat="45.78608" lon="3.53026">
        <ele>315</ele>
        <time>2024-05-01T12:39:48Z</time>
      </trkpt>
      <trkpt lat="45.78614" lon="3.53021">
        <ele>315</ele>
        <time>2024-05-01T12:39:49Z</time>
      </trkpt>
      <trkpt lat="45.78621" lon="3.53017">
        <ele>315</ele>
        <time>2024-05-01T12:39:50Z</time>
      </trkpt>
      <trkpt lat="45.78627" lon="3.53012">
        <ele>315</ele>
        <time>2024-05-01T12:39:51Z</time>
      </trkpt>
      <trkpt lat="45.78633" lon="3.53007">
        <ele>315</ele>
        <time>2024-05-01T12:39:52Z</time>
      </trkpt>
      <trkpt lat="45.78639" lon="3.53002">
        <ele>315</ele>
        <time>2024-05-01T12:39:53Z</time>
      </trkpt>
      <trkpt lat="45.78646" lon="3.52998">
        <ele>315</ele>
        <time>2024-05-01T12:39:54Z</time>
      </trkpt>
      <trkpt lat="45.78652" lon="3.52993">
        <ele>315</ele>
        <time>2024-05-01T12:39:55Z</time>
      </trkpt>
      <trkpt lat="45.78658" lon="3.52988">
        <ele>315</ele>
        <time>2024-05-01T12:39:56Z</time>
      </trkpt>
      <trkpt lat="45.78665" lon="3.52983">
        <ele>315</ele>
        <time>2024-05-01T12:39:57Z</time>
      </trkpt>
      <trkpt lat="45.78671" lon="3.52979">
        <ele>315.2</ele>
        <time>2024-05-01T12:39:58Z</time>
      </trkpt>
      <trkpt lat="45.78677" lon="3.52974">
        <ele>315.2</ele>
        <time>2024-05-01T12:39:59Z</time>
      </trkpt>
      <trkpt lat="45.78683" lon="3.52969">
        <ele>315.2</ele>
        <time>2024-05-01T12:40:00Z</time>
      </trkpt>
      <trkpt lat="45.7869" lon="3.52964">
        <ele>315</ele>
        <time>2024-05-01T12:40:01Z</time>
      </trkpt>
      <trkpt lat="45.78696" lon="3.5296">
        <ele>314.8</ele>
        <time>2024-05-01T12:40:02Z</time>
      </trkpt>
      <trkpt lat="45.78702" lon="3.52955">
        <ele>314.8</ele>
        <time>2024-05-01T12:40:03Z</time>
      </trkpt>
      <trkpt lat="45.78708" lon="3.5295">
        <ele>315</ele>
        <time>2024-05-01T12:40:04Z</time>
      </trkpt>
      <trkpt lat="45.78715" lon="3.52946">
        <ele>315</ele>
        <time>2024-05-01T12:40:05Z</time>
      </trkpt>
      <trkpt lat="45.78721" lon="3.52941">
        <ele>315</ele>
        <time>2024-05-01T12:40:06Z</time>
      </trkpt>
      <trkpt lat="45.78727" lon="3.52936">
        <ele>315</ele>
        <time>2024-05-01T12:40:07Z</time>
      </trkpt>
      <trkpt lat="45.78733" lon="3.52931">
        <ele>315</ele>
        <time>2024-05-01T12:40:08Z</time>
      </trkpt>
      <trkpt lat="45.7874" lon="3.52927">
        <ele>315</ele>
        <time>2024-05-01T12:40:09Z</time>
      </trkpt>
      <trkpt lat="45.78746" lon="3.52922">
        <ele>314.8</ele>
        <time>2024-05-01T12:40:10Z</time>
      </trkpt>
      <trkpt lat="45.78753" lon="3.52917">
        <ele>314.8</ele>
        <time>2024-05-01T12:40:11Z</time>
      </trkpt>
      <trkpt lat="45.78759" lon="3.52912">
        <ele>314.8</ele>
        <time>2024-05-01T12:40:12Z</time>
      </trkpt>
      <trkpt lat="45.78765" lon="3.52907">
        <ele>314.8</ele>
        <time>2024-05-01T12:40:13Z</time>
      </trkpt>
      <trkpt lat="45.78772" lon="3.52903">
        <ele>314.8</ele>
        <time>2024-05-01T12:40:14Z</time>
      </trkpt>
      <trkpt lat="45.78778" lon="3.52898">
        <ele>314.8</ele>
        <time>2024-05-01T12:40:15Z</time>
      </trkpt>
      <trkpt lat="45.78784" lon="3.52893">
        <ele>314.8</ele>
        <time>2024-05-01T12:40:16Z</time>
      </trkpt>
      <trkpt lat="45.78791" lon="3.52888">
        <ele>314.8</ele>
        <time>2024-05-01T12:40:17Z</time>
      </trkpt>
      <trkpt lat="45.78797" lon="3.52884">
        <ele>314.8</ele>
        <time>2024-05-01T12:40:18Z</time>
      </trkpt>
      <trkpt lat="45.78803" lon="3.52879">
        <ele>314.8</ele>
        <time>2024-05-01T12:40:19Z</time>
      </trkpt>
      <trkpt lat="45.7881" lon="3.52874">
        <ele>314.8</ele>
        <time>2024-05-01T12:40:20Z</time>
      </trkpt>
      <trkpt lat="45.78816" lon="3.52869">
        <ele>314.8</ele>
        <time>2024-05-01T12:40:21Z</time>
      </trkpt>
      <trkpt lat="45.78822" lon="3.52865">
        <ele>314.6</ele>
        <time>2024-05-01T12:40:22Z</time>
      </trkpt>
      <trkpt lat="45.78829" lon="3.5286">
        <ele>314.6</ele>
        <time>2024-05-01T12:40:23Z</time>
      </trkpt>
      <trkpt lat="45.78835" lon="3.52855">
        <ele>314.6</ele>
        <time>2024-05-01T12:40:24Z</time>
      </trkpt>
      <trkpt lat="45.78841" lon="3.5285">
        <ele>314.6</ele>
        <time>2024-05-01T12:40:25Z</time>
      </trkpt>
      <trkpt lat="45.78848" lon="3.52846">
        <ele>314.6</ele>
        <time>2024-05-01T12:40:26Z</time>
      </trkpt>
      <trkpt lat="45.78854" lon="3.52841">
        <ele>314.6</ele>
        <time>2024-05-01T12:40:27Z</time>
      </trkpt>
      <trkpt lat="45.7886" lon="3.52836">
        <ele>314.4</ele>
        <time>2024-05-01T12:40:28Z</time>
      </trkpt>
      <trkpt lat="45.78866" lon="3.52832">
        <ele>314.4</ele>
        <time>2024-05-01T12:40:29Z</time>
      </trkpt>
      <trkpt lat="45.78873" lon="3.52827">
        <ele>314.4</ele>
        <time>2024-05-01T12:40:30Z</time>
      </trkpt>
      <trkpt lat="45.78879" lon="3.52822">
        <ele>314.4</ele>
        <time>2024-05-01T12:40:31Z</time>
      </trkpt>
      <trkpt lat="45.78886" lon="3.52817">
        <ele>314.4</ele>
        <time>2024-05-01T12:40:32Z</time>
      </trkpt>
      <trkpt lat="45.78892" lon="3.52812">
        <ele>314.2</ele>
        <time>2024-05-01T12:40:33Z</time>
      </trkpt>
      <trkpt lat="45.78898" lon="3.52808">
        <ele>314.2</ele>
        <time>2024-05-01T12:40:34Z</time>
      </trkpt>
      <trkpt lat="45.78905" lon="3.52803">
        <ele>314.2</ele>
        <time>2024-05-01T12:40:35Z</time>
      </trkpt>
      <trkpt lat="45.78911" lon="3.52798">
        <ele>314.2</ele>
        <time>2024-05-01T12:40:36Z</time>
      </trkpt>
      <trkpt lat="45.78917" lon="3.52793">
        <ele>314.2</ele>
        <time>2024-05-01T12:40:37Z</time>
      </trkpt>
      <trkpt lat="45.78924" lon="3.52789">
        <ele>314.2</ele>
        <time>2024-05-01T12:40:38Z</time>
      </trkpt>
      <trkpt lat="45.7893" lon="3.52784">
        <ele>314.2</ele>
        <time>2024-05-01T12:40:39Z</time>
      </trkpt>
      <trkpt lat="45.78936" lon="3.52779">
        <ele>314.2</ele>
        <time>2024-05-01T12:40:40Z</time>
      </trkpt>
      <trkpt lat="45.78943" lon="3.52774">
        <ele>314.2</ele>
        <time>2024-05-01T12:40:41Z</time>
      </trkpt>
      <trkpt lat="45.78949" lon="3.5277">
        <ele>314.2</ele>
        <time>2024-05-01T12:40:42Z</time>
      </trkpt>
      <trkpt lat="45.78955" lon="3.52765">
        <ele>314</ele>
        <time>2024-05-01T12:40:43Z</time>
      </trkpt>
      <trkpt lat="45.78961" lon="3.5276">
        <ele>314</ele>
        <time>2024-05-01T12:40:44Z</time>
      </trkpt>
      <trkpt lat="45.78967" lon="3.52755">
        <ele>314</ele>
        <time>2024-05-01T12:40:45Z</time>
      </trkpt>
      <trkpt lat="45.78974" lon="3.52751">
        <ele>314</ele>
        <time>2024-05-01T12:40:46Z</time>
      </trkpt>
      <trkpt lat="45.7898" lon="3.52746">
        <ele>313.8</ele>
        <time>2024-05-01T12:40:47Z</time>
      </trkpt>
      <trkpt lat="45.78986" lon="3.52741">
        <ele>313.8</ele>
        <time>2024-05-01T12:40:48Z</time>
      </trkpt>
      <trkpt lat="45.78992" lon="3.52736">
        <ele>313.8</ele>
        <time>2024-05-01T12:40:49Z</time>
      </trkpt>
      <trkpt lat="45.78998" lon="3.52731">
        <ele>313.8</ele>
        <time>2024-05-01T12:40:50Z</time>
      </trkpt>
      <trkpt lat="45.79005" lon="3.52726">
        <ele>313.8</ele>
        <time>2024-05-01T12:40:51Z</time>
      </trkpt>
      <trkpt lat="45.79011" lon="3.52722">
        <ele>313.8</ele>
        <time>2024-05-01T12:40:52Z</time>
      </trkpt>
      <trkpt lat="45.79017" lon="3.52717">
        <ele>313.8</ele>
        <time>2024-05-01T12:40:53Z</time>
      </trkpt>
      <trkpt lat="45.79023" lon="3.52712">
        <ele>313.6</ele>
        <time>2024-05-01T12:40:54Z</time>
      </trkpt>
      <trkpt lat="45.7903" lon="3.52707">
        <ele>313.6</ele>
        <time>2024-05-01T12:40:55Z</time>
      </trkpt>
      <trkpt lat="45.79036" lon="3.52702">
        <ele>313.6</ele>
        <time>2024-05-01T12:40:56Z</time>
      </trkpt>
      <trkpt lat="45.79042" lon="3.52697">
        <ele>313.6</ele>
        <time>2024-05-01T12:40:57Z</time>
      </trkpt>
      <trkpt lat="45.79048" lon="3.52693">
        <ele>313.6</ele>
        <time>2024-05-01T12:40:58Z</time>
      </trkpt>
      <trkpt lat="45.79054" lon="3.52688">
        <ele>313.6</ele>
        <time>2024-05-01T12:40:59Z</time>
      </trkpt>
      <trkpt lat="45.7906" lon="3.52683">
        <ele>313.6</ele>
        <time>2024-05-01T12:41:00Z</time>
      </trkpt>
      <trkpt lat="45.79066" lon="3.52679">
        <ele>313.6</ele>
        <time>2024-05-01T12:41:01Z</time>
      </trkpt>
      <trkpt lat="45.79072" lon="3.52674">
        <ele>313.6</ele>
        <time>2024-05-01T12:41:02Z</time>
      </trkpt>
      <trkpt lat="45.79078" lon="3.5267">
        <ele>313.4</ele>
        <time>2024-05-01T12:41:03Z</time>
      </trkpt>
      <trkpt lat="45.79084" lon="3.52665">
        <ele>313.4</ele>
        <time>2024-05-01T12:41:04Z</time>
      </trkpt>
      <trkpt lat="45.7909" lon="3.52661">
        <ele>313.4</ele>
        <time>2024-05-01T12:41:05Z</time>
      </trkpt>
      <trkpt lat="45.79096" lon="3.52657">
        <ele>313.4</ele>
        <time>2024-05-01T12:41:06Z</time>
      </trkpt>
      <trkpt lat="45.79102" lon="3.52652">
        <ele>313.4</ele>
        <time>2024-05-01T12:41:07Z</time>
      </trkpt>
      <trkpt lat="45.79108" lon="3.52648">
        <ele>313.4</ele>
        <time>2024-05-01T12:41:08Z</time>
      </trkpt>
      <trkpt lat="45.79113" lon="3.52643">
        <ele>313.4</ele>
        <time>2024-05-01T12:41:09Z</time>
      </trkpt>
      <trkpt lat="45.79119" lon="3.52639">
        <ele>313.2</ele>
        <time>2024-05-01T12:41:10Z</time>
      </trkpt>
      <trkpt lat="45.79125" lon="3.52635">
        <ele>313.2</ele>
        <time>2024-05-01T12:41:11Z</time>
      </trkpt>
      <trkpt lat="45.79131" lon="3.5263">
        <ele>313.2</ele>
        <time>2024-05-01T12:41:12Z</time>
      </trkpt>
      <trkpt lat="45.79136" lon="3.52626">
        <ele>313</ele>
        <time>2024-05-01T12:41:13Z</time>
      </trkpt>
      <trkpt lat="45.79142" lon="3.52622">
        <ele>313</ele>
        <time>2024-05-01T12:41:14Z</time>
      </trkpt>
      <trkpt lat="45.79147" lon="3.52618">
        <ele>313</ele>
        <time>2024-05-01T12:41:15Z</time>
      </trkpt>
      <trkpt lat="45.79153" lon="3.52614">
        <ele>313</ele>
        <time>2024-05-01T12:41:16Z</time>
      </trkpt>
      <trkpt lat="45.79159" lon="3.52609">
        <ele>312.8</ele>
        <time>2024-05-01T12:41:17Z</time>
      </trkpt>
      <trkpt lat="45.7917" lon="3.52601">
        <ele>312.8</ele>
        <time>2024-05-01T12:41:18Z</time>
      </trkpt>
      <trkpt lat="45.79175" lon="3.52597">
        <ele>312.8</ele>
        <time>2024-05-01T12:41:19Z</time>
      </trkpt>
      <trkpt lat="45.79181" lon="3.52593">
        <ele>312.8</ele>
        <time>2024-05-01T12:41:20Z</time>
      </trkpt>
      <trkpt lat="45.79186" lon="3.52588">
        <ele>312.8</ele>
        <time>2024-05-01T12:41:21Z</time>
      </trkpt>
      <trkpt lat="45.79192" lon="3.52584">
        <ele>312.8</ele>
        <time>2024-05-01T12:41:22Z</time>
      </trkpt>
      <trkpt lat="45.79198" lon="3.5258">
        <ele>312.8</ele>
        <time>2024-05-01T12:41:23Z</time>
      </trkpt>
      <trkpt lat="45.79203" lon="3.52576">
        <ele>312.8</ele>
        <time>2024-05-01T12:41:24Z</time>
      </trkpt>
      <trkpt lat="45.79209" lon="3.52571">
        <ele>312.8</ele>
        <time>2024-05-01T12:41:25Z</time>
      </trkpt>
      <trkpt lat="45.79214" lon="3.52567">
        <ele>312.8</ele>
        <time>2024-05-01T12:41:26Z</time>
      </trkpt>
      <trkpt lat="45.7922" lon="3.52563">
        <ele>312.8</ele>
        <time>2024-05-01T12:41:27Z</time>
      </trkpt>
      <trkpt lat="45.79225" lon="3.52559">
        <ele>312.8</ele>
        <time>2024-05-01T12:41:28Z</time>
      </trkpt>
      <trkpt lat="45.79231" lon="3.52555">
        <ele>312.8</ele>
        <time>2024-05-01T12:41:29Z</time>
      </trkpt>
      <trkpt lat="45.79236" lon="3.52551">
        <ele>312.8</ele>
        <time>2024-05-01T12:41:30Z</time>
      </trkpt>
      <trkpt lat="45.79242" lon="3.52547">
        <ele>312.8</ele>
        <time>2024-05-01T12:41:31Z</time>
      </trkpt>
      <trkpt lat="45.79247" lon="3.52543">
        <ele>312.8</ele>
        <time>2024-05-01T12:41:32Z</time>
      </trkpt>
      <trkpt lat="45.79252" lon="3.52539">
        <ele>312.8</ele>
        <time>2024-05-01T12:41:33Z</time>
      </trkpt>
      <trkpt lat="45.79258" lon="3.52535">
        <ele>312.8</ele>
        <time>2024-05-01T12:41:34Z</time>
      </trkpt>
      <trkpt lat="45.79263" lon="3.5253">
        <ele>312.8</ele>
        <time>2024-05-01T12:41:35Z</time>
      </trkpt>
      <trkpt lat="45.79269" lon="3.52526">
        <ele>312.6</ele>
        <time>2024-05-01T12:41:36Z</time>
      </trkpt>
      <trkpt lat="45.79274" lon="3.52522">
        <ele>312.6</ele>
        <time>2024-05-01T12:41:37Z</time>
      </trkpt>
      <trkpt lat="45.7928" lon="3.52518">
        <ele>312.6</ele>
        <time>2024-05-01T12:41:38Z</time>
      </trkpt>
      <trkpt lat="45.79285" lon="3.52514">
        <ele>312.6</ele>
        <time>2024-05-01T12:41:39Z</time>
      </trkpt>
      <trkpt lat="45.79291" lon="3.5251">
        <ele>312.6</ele>
        <time>2024-05-01T12:41:40Z</time>
      </trkpt>
      <trkpt lat="45.79296" lon="3.52506">
        <ele>312.6</ele>
        <time>2024-05-01T12:41:41Z</time>
      </trkpt>
      <trkpt lat="45.79302" lon="3.52501">
        <ele>312.6</ele>
        <time>2024-05-01T12:41:42Z</time>
      </trkpt>
      <trkpt lat="45.79307" lon="3.52497">
        <ele>312.6</ele>
        <time>2024-05-01T12:41:43Z</time>
      </trkpt>
      <trkpt lat="45.79313" lon="3.52493">
        <ele>312.6</ele>
        <time>2024-05-01T12:41:44Z</time>
      </trkpt>
      <trkpt lat="45.79319" lon="3.52489">
        <ele>312.6</ele>
        <time>2024-05-01T12:41:45Z</time>
      </trkpt>
      <trkpt lat="45.79325" lon="3.52484">
        <ele>312.4</ele>
        <time>2024-05-01T12:41:46Z</time>
      </trkpt>
      <trkpt lat="45.79331" lon="3.5248">
        <ele>312.6</ele>
        <time>2024-05-01T12:41:47Z</time>
      </trkpt>
      <trkpt lat="45.79336" lon="3.52475">
        <ele>312.4</ele>
        <time>2024-05-01T12:41:48Z</time>
      </trkpt>
      <trkpt lat="45.79343" lon="3.52471">
        <ele>312.4</ele>
        <time>2024-05-01T12:41:49Z</time>
      </trkpt>
      <trkpt lat="45.79349" lon="3.52466">
        <ele>312.4</ele>
        <time>2024-05-01T12:41:50Z</time>
      </trkpt>
      <trkpt lat="45.79355" lon="3.52462">
        <ele>312.4</ele>
        <time>2024-05-01T12:41:51Z</time>
      </trkpt>
      <trkpt lat="45.79361" lon="3.52457">
        <ele>312.4</ele>
        <time>2024-05-01T12:41:52Z</time>
      </trkpt>
      <trkpt lat="45.79367" lon="3.52452">
        <ele>312.4</ele>
        <time>2024-05-01T12:41:53Z</time>
      </trkpt>
      <trkpt lat="45.79373" lon="3.52448">
        <ele>312.4</ele>
        <time>2024-05-01T12:41:54Z</time>
      </trkpt>
      <trkpt lat="45.79379" lon="3.52443">
        <ele>312.4</ele>
        <time>2024-05-01T12:41:55Z</time>
      </trkpt>
      <trkpt lat="45.79385" lon="3.52439">
        <ele>312.4</ele>
        <time>2024-05-01T12:41:56Z</time>
      </trkpt>
      <trkpt lat="45.7939" lon="3.52435">
        <ele>312.4</ele>
        <time>2024-05-01T12:41:57Z</time>
      </trkpt>
      <trkpt lat="45.79396" lon="3.5243">
        <ele>312.4</ele>
        <time>2024-05-01T12:41:58Z</time>
      </trkpt>
      <trkpt lat="45.79402" lon="3.52426">
        <ele>312.4</ele>
        <time>2024-05-01T12:41:59Z</time>
      </trkpt>
      <trkpt lat="45.79408" lon="3.52421">
        <ele>312.2</ele>
        <time>2024-05-01T12:42:00Z</time>
      </trkpt>
      <trkpt lat="45.79414" lon="3.52417">
        <ele>312.2</ele>
        <time>2024-05-01T12:42:01Z</time>
      </trkpt>
      <trkpt lat="45.7942" lon="3.52412">
        <ele>312.2</ele>
        <time>2024-05-01T12:42:02Z</time>
      </trkpt>
      <trkpt lat="45.79426" lon="3.52408">
        <ele>312.2</ele>
        <time>2024-05-01T12:42:03Z</time>
      </trkpt>
      <trkpt lat="45.79432" lon="3.52403">
        <ele>312.2</ele>
        <time>2024-05-01T12:42:04Z</time>
      </trkpt>
      <trkpt lat="45.79438" lon="3.52398">
        <ele>312.2</ele>
        <time>2024-05-01T12:42:05Z</time>
      </trkpt>
      <trkpt lat="45.79444" lon="3.52394">
        <ele>312.2</ele>
        <time>2024-05-01T12:42:06Z</time>
      </trkpt>
      <trkpt lat="45.7945" lon="3.52388">
        <ele>312.2</ele>
        <time>2024-05-01T12:42:07Z</time>
      </trkpt>
      <trkpt lat="45.79456" lon="3.52384">
        <ele>312.2</ele>
        <time>2024-05-01T12:42:08Z</time>
      </trkpt>
      <trkpt lat="45.79462" lon="3.52379">
        <ele>312</ele>
        <time>2024-05-01T12:42:09Z</time>
      </trkpt>
      <trkpt lat="45.79469" lon="3.52375">
        <ele>312</ele>
        <time>2024-05-01T12:42:10Z</time>
      </trkpt>
      <trkpt lat="45.79475" lon="3.5237">
        <ele>312</ele>
        <time>2024-05-01T12:42:11Z</time>
      </trkpt>
      <trkpt lat="45.79481" lon="3.52365">
        <ele>312</ele>
        <time>2024-05-01T12:42:12Z</time>
      </trkpt>
      <trkpt lat="45.79487" lon="3.5236">
        <ele>312</ele>
        <time>2024-05-01T12:42:13Z</time>
      </trkpt>
      <trkpt lat="45.79493" lon="3.52356">
        <ele>312</ele>
        <time>2024-05-01T12:42:14Z</time>
      </trkpt>
      <trkpt lat="45.79499" lon="3.52351">
        <ele>312</ele>
        <time>2024-05-01T12:42:15Z</time>
      </trkpt>
      <trkpt lat="45.79505" lon="3.52347">
        <ele>311.8</ele>
        <time>2024-05-01T12:42:16Z</time>
      </trkpt>
      <trkpt lat="45.79512" lon="3.52342">
        <ele>311.8</ele>
        <time>2024-05-01T12:42:17Z</time>
      </trkpt>
      <trkpt lat="45.79518" lon="3.52337">
        <ele>311.8</ele>
        <time>2024-05-01T12:42:18Z</time>
      </trkpt>
      <trkpt lat="45.79524" lon="3.52333">
        <ele>311.8</ele>
        <time>2024-05-01T12:42:19Z</time>
      </trkpt>
      <trkpt lat="45.7953" lon="3.52328">
        <ele>311.8</ele>
        <time>2024-05-01T12:42:20Z</time>
      </trkpt>
      <trkpt lat="45.79536" lon="3.52324">
        <ele>311.8</ele>
        <time>2024-05-01T12:42:21Z</time>
      </trkpt>
      <trkpt lat="45.79542" lon="3.52319">
        <ele>311.8</ele>
        <time>2024-05-01T12:42:22Z</time>
      </trkpt>
      <trkpt lat="45.79548" lon="3.52314">
        <ele>311.8</ele>
        <time>2024-05-01T12:42:23Z</time>
      </trkpt>
      <trkpt lat="45.79554" lon="3.5231">
        <ele>311.8</ele>
        <time>2024-05-01T12:42:24Z</time>
      </trkpt>
      <trkpt lat="45.79561" lon="3.52305">
        <ele>311.8</ele>
        <time>2024-05-01T12:42:25Z</time>
      </trkpt>
      <trkpt lat="45.79567" lon="3.523">
        <ele>311.8</ele>
        <time>2024-05-01T12:42:26Z</time>
      </trkpt>
      <trkpt lat="45.79573" lon="3.52296">
        <ele>311.8</ele>
        <time>2024-05-01T12:42:27Z</time>
      </trkpt>
      <trkpt lat="45.79579" lon="3.52291">
        <ele>311.8</ele>
        <time>2024-05-01T12:42:28Z</time>
      </trkpt>
      <trkpt lat="45.79585" lon="3.52286">
        <ele>311.8</ele>
        <time>2024-05-01T12:42:29Z</time>
      </trkpt>
      <trkpt lat="45.79592" lon="3.52281">
        <ele>311.8</ele>
        <time>2024-05-01T12:42:30Z</time>
      </trkpt>
      <trkpt lat="45.79598" lon="3.52277">
        <ele>311.8</ele>
        <time>2024-05-01T12:42:31Z</time>
      </trkpt>
      <trkpt lat="45.79604" lon="3.52272">
        <ele>311.6</ele>
        <time>2024-05-01T12:42:32Z</time>
      </trkpt>
      <trkpt lat="45.7961" lon="3.52267">
        <ele>311.6</ele>
        <time>2024-05-01T12:42:33Z</time>
      </trkpt>
      <trkpt lat="45.79616" lon="3.52263">
        <ele>311.6</ele>
        <time>2024-05-01T12:42:34Z</time>
      </trkpt>
      <trkpt lat="45.79622" lon="3.52258">
        <ele>311.6</ele>
        <time>2024-05-01T12:42:35Z</time>
      </trkpt>
      <trkpt lat="45.79629" lon="3.52253">
        <ele>311.6</ele>
        <time>2024-05-01T12:42:36Z</time>
      </trkpt>
      <trkpt lat="45.79635" lon="3.52249">
        <ele>311.6</ele>
        <time>2024-05-01T12:42:37Z</time>
      </trkpt>
      <trkpt lat="45.79641" lon="3.52244">
        <ele>311.6</ele>
        <time>2024-05-01T12:42:38Z</time>
      </trkpt>
      <trkpt lat="45.79648" lon="3.52239">
        <ele>311.6</ele>
        <time>2024-05-01T12:42:39Z</time>
      </trkpt>
      <trkpt lat="45.79654" lon="3.52234">
        <ele>311.6</ele>
        <time>2024-05-01T12:42:40Z</time>
      </trkpt>
      <trkpt lat="45.7966" lon="3.5223">
        <ele>311.6</ele>
        <time>2024-05-01T12:42:41Z</time>
      </trkpt>
      <trkpt lat="45.79667" lon="3.52225">
        <ele>311.6</ele>
        <time>2024-05-01T12:42:42Z</time>
      </trkpt>
      <trkpt lat="45.79673" lon="3.5222">
        <ele>311.4</ele>
        <time>2024-05-01T12:42:43Z</time>
      </trkpt>
      <trkpt lat="45.79679" lon="3.52215">
        <ele>311.4</ele>
        <time>2024-05-01T12:42:44Z</time>
      </trkpt>
      <trkpt lat="45.79686" lon="3.5221">
        <ele>311.4</ele>
        <time>2024-05-01T12:42:45Z</time>
      </trkpt>
      <trkpt lat="45.79692" lon="3.52206">
        <ele>311.4</ele>
        <time>2024-05-01T12:42:46Z</time>
      </trkpt>
      <trkpt lat="45.79698" lon="3.52201">
        <ele>311.4</ele>
        <time>2024-05-01T12:42:47Z</time>
      </trkpt>
      <trkpt lat="45.79704" lon="3.52196">
        <ele>311.4</ele>
        <time>2024-05-01T12:42:48Z</time>
      </trkpt>
      <trkpt lat="45.7971" lon="3.52192">
        <ele>311.4</ele>
        <time>2024-05-01T12:42:49Z</time>
      </trkpt>
      <trkpt lat="45.79716" lon="3.52187">
        <ele>311.4</ele>
        <time>2024-05-01T12:42:50Z</time>
      </trkpt>
      <trkpt lat="45.79722" lon="3.52183">
        <ele>311.4</ele>
        <time>2024-05-01T12:42:51Z</time>
      </trkpt>
      <trkpt lat="45.79728" lon="3.52178">
        <ele>311.4</ele>
        <time>2024-05-01T12:42:52Z</time>
      </trkpt>
      <trkpt lat="45.79734" lon="3.52174">
        <ele>311.4</ele>
        <time>2024-05-01T12:42:53Z</time>
      </trkpt>
      <trkpt lat="45.7974" lon="3.52169">
        <ele>311.4</ele>
        <time>2024-05-01T12:42:54Z</time>
      </trkpt>
      <trkpt lat="45.79746" lon="3.52165">
        <ele>311.4</ele>
        <time>2024-05-01T12:42:55Z</time>
      </trkpt>
      <trkpt lat="45.79752" lon="3.5216">
        <ele>311.4</ele>
        <time>2024-05-01T12:42:56Z</time>
      </trkpt>
      <trkpt lat="45.79758" lon="3.52156">
        <ele>311.4</ele>
        <time>2024-05-01T12:42:57Z</time>
      </trkpt>
      <trkpt lat="45.79764" lon="3.52151">
        <ele>311.4</ele>
        <time>2024-05-01T12:42:58Z</time>
      </trkpt>
      <trkpt lat="45.7977" lon="3.52147">
        <ele>311.4</ele>
        <time>2024-05-01T12:42:59Z</time>
      </trkpt>
      <trkpt lat="45.79776" lon="3.52142">
        <ele>311.4</ele>
        <time>2024-05-01T12:43:00Z</time>
      </trkpt>
      <trkpt lat="45.79782" lon="3.52138">
        <ele>311.4</ele>
        <time>2024-05-01T12:43:01Z</time>
      </trkpt>
      <trkpt lat="45.79788" lon="3.52133">
        <ele>311.4</ele>
        <time>2024-05-01T12:43:02Z</time>
      </trkpt>
      <trkpt lat="45.79794" lon="3.52129">
        <ele>311.4</ele>
        <time>2024-05-01T12:43:03Z</time>
      </trkpt>
      <trkpt lat="45.798" lon="3.52124">
        <ele>311.4</ele>
        <time>2024-05-01T12:43:04Z</time>
      </trkpt>
      <trkpt lat="45.79806" lon="3.5212">
        <ele>311.4</ele>
        <time>2024-05-01T12:43:05Z</time>
      </trkpt>
      <trkpt lat="45.79812" lon="3.52115">
        <ele>311.2</ele>
        <time>2024-05-01T12:43:06Z</time>
      </trkpt>
      <trkpt lat="45.79818" lon="3.5211">
        <ele>311.2</ele>
        <time>2024-05-01T12:43:07Z</time>
      </trkpt>
      <trkpt lat="45.79824" lon="3.52106">
        <ele>311.2</ele>
        <time>2024-05-01T12:43:08Z</time>
      </trkpt>
      <trkpt lat="45.7983" lon="3.52101">
        <ele>311.2</ele>
        <time>2024-05-01T12:43:09Z</time>
      </trkpt>
      <trkpt lat="45.79836" lon="3.52096">
        <ele>311.2</ele>
        <time>2024-05-01T12:43:10Z</time>
      </trkpt>
      <trkpt lat="45.79843" lon="3.52092">
        <ele>311.2</ele>
        <time>2024-05-01T12:43:11Z</time>
      </trkpt>
      <trkpt lat="45.79849" lon="3.52087">
        <ele>311.2</ele>
        <time>2024-05-01T12:43:12Z</time>
      </trkpt>
      <trkpt lat="45.79855" lon="3.52083">
        <ele>311</ele>
        <time>2024-05-01T12:43:13Z</time>
      </trkpt>
      <trkpt lat="45.79862" lon="3.52078">
        <ele>311</ele>
        <time>2024-05-01T12:43:14Z</time>
      </trkpt>
      <trkpt lat="45.79868" lon="3.52073">
        <ele>311</ele>
        <time>2024-05-01T12:43:15Z</time>
      </trkpt>
      <trkpt lat="45.79875" lon="3.52069">
        <ele>311</ele>
        <time>2024-05-01T12:43:16Z</time>
      </trkpt>
      <trkpt lat="45.79881" lon="3.52064">
        <ele>310.8</ele>
        <time>2024-05-01T12:43:17Z</time>
      </trkpt>
      <trkpt lat="45.79888" lon="3.52059">
        <ele>310.8</ele>
        <time>2024-05-01T12:43:18Z</time>
      </trkpt>
      <trkpt lat="45.79894" lon="3.52054">
        <ele>310.8</ele>
        <time>2024-05-01T12:43:19Z</time>
      </trkpt>
      <trkpt lat="45.79901" lon="3.52049">
        <ele>310.6</ele>
        <time>2024-05-01T12:43:20Z</time>
      </trkpt>
      <trkpt lat="45.79907" lon="3.52044">
        <ele>310.6</ele>
        <time>2024-05-01T12:43:21Z</time>
      </trkpt>
      <trkpt lat="45.79914" lon="3.52039">
        <ele>310.6</ele>
        <time>2024-05-01T12:43:22Z</time>
      </trkpt>
      <trkpt lat="45.7992" lon="3.52034">
        <ele>310.4</ele>
        <time>2024-05-01T12:43:23Z</time>
      </trkpt>
      <trkpt lat="45.79927" lon="3.52029">
        <ele>310.4</ele>
        <time>2024-05-01T12:43:24Z</time>
      </trkpt>
      <trkpt lat="45.79933" lon="3.52024">
        <ele>310.4</ele>
        <time>2024-05-01T12:43:25Z</time>
      </trkpt>
      <trkpt lat="45.7994" lon="3.52019">
        <ele>310.2</ele>
        <time>2024-05-01T12:43:26Z</time>
      </trkpt>
      <trkpt lat="45.79946" lon="3.52014">
        <ele>310.2</ele>
        <time>2024-05-01T12:43:27Z</time>
      </trkpt>
      <trkpt lat="45.79952" lon="3.52009">
        <ele>310.2</ele>
        <time>2024-05-01T12:43:28Z</time>
      </trkpt>
      <trkpt lat="45.79959" lon="3.52004">
        <ele>310</ele>
        <time>2024-05-01T12:43:29Z</time>
      </trkpt>
      <trkpt lat="45.79966" lon="3.51999">
        <ele>310</ele>
        <time>2024-05-01T12:43:30Z</time>
      </trkpt>
      <trkpt lat="45.79972" lon="3.51994">
        <ele>309.8</ele>
        <time>2024-05-01T12:43:31Z</time>
      </trkpt>
      <trkpt lat="45.79978" lon="3.51989">
        <ele>309.8</ele>
        <time>2024-05-01T12:43:32Z</time>
      </trkpt>
      <trkpt lat="45.79985" lon="3.51984">
        <ele>309.8</ele>
        <time>2024-05-01T12:43:33Z</time>
      </trkpt>
      <trkpt lat="45.79991" lon="3.51979">
        <ele>309.6</ele>
        <time>2024-05-01T12:43:34Z</time>
      </trkpt>
      <trkpt lat="45.79998" lon="3.51974">
        <ele>309.6</ele>
        <time>2024-05-01T12:43:35Z</time>
      </trkpt>
      <trkpt lat="45.80004" lon="3.51969">
        <ele>309.4</ele>
        <time>2024-05-01T12:43:36Z</time>
      </trkpt>
      <trkpt lat="45.8001" lon="3.51964">
        <ele>309.4</ele>
        <time>2024-05-01T12:43:37Z</time>
      </trkpt>
      <trkpt lat="45.80017" lon="3.51959">
        <ele>309.2</ele>
        <time>2024-05-01T12:43:38Z</time>
      </trkpt>
      <trkpt lat="45.80023" lon="3.51954">
        <ele>309.2</ele>
        <time>2024-05-01T12:43:39Z</time>
      </trkpt>
      <trkpt lat="45.8003" lon="3.51949">
        <ele>309.2</ele>
        <time>2024-05-01T12:43:40Z</time>
      </trkpt>
      <trkpt lat="45.80036" lon="3.51944">
        <ele>309</ele>
        <time>2024-05-01T12:43:41Z</time>
      </trkpt>
      <trkpt lat="45.80042" lon="3.51939">
        <ele>309</ele>
        <time>2024-05-01T12:43:42Z</time>
      </trkpt>
      <trkpt lat="45.80048" lon="3.51934">
        <ele>309</ele>
        <time>2024-05-01T12:43:43Z</time>
      </trkpt>
      <trkpt lat="45.80054" lon="3.51928">
        <ele>308.8</ele>
        <time>2024-05-01T12:43:44Z</time>
      </trkpt>
      <trkpt lat="45.8006" lon="3.51923">
        <ele>308.8</ele>
        <time>2024-05-01T12:43:45Z</time>
      </trkpt>
      <trkpt lat="45.80066" lon="3.51917">
        <ele>308.8</ele>
        <time>2024-05-01T12:43:46Z</time>
      </trkpt>
      <trkpt lat="45.80072" lon="3.51912">
        <ele>308.6</ele>
        <time>2024-05-01T12:43:47Z</time>
      </trkpt>
      <trkpt lat="45.80078" lon="3.51906">
        <ele>308.6</ele>
        <time>2024-05-01T12:43:48Z</time>
      </trkpt>
      <trkpt lat="45.80084" lon="3.51901">
        <ele>308.4</ele>
        <time>2024-05-01T12:43:49Z</time>
      </trkpt>
      <trkpt lat="45.8009" lon="3.51896">
        <ele>308.4</ele>
        <time>2024-05-01T12:43:50Z</time>
      </trkpt>
      <trkpt lat="45.80096" lon="3.5189">
        <ele>308.2</ele>
        <time>2024-05-01T12:43:51Z</time>
      </trkpt>
      <trkpt lat="45.80102" lon="3.51885">
        <ele>308.2</ele>
        <time>2024-05-01T12:43:52Z</time>
      </trkpt>
      <trkpt lat="45.80108" lon="3.5188">
        <ele>308</ele>
        <time>2024-05-01T12:43:53Z</time>
      </trkpt>
      <trkpt lat="45.80113" lon="3.51874">
        <ele>308</ele>
        <time>2024-05-01T12:43:54Z</time>
      </trkpt>
      <trkpt lat="45.80119" lon="3.51869">
        <ele>307.8</ele>
        <time>2024-05-01T12:43:55Z</time>
      </trkpt>
      <trkpt lat="45.80125" lon="3.51864">
        <ele>307.8</ele>
        <time>2024-05-01T12:43:56Z</time>
      </trkpt>
      <trkpt lat="45.8013" lon="3.51859">
        <ele>307.6</ele>
        <time>2024-05-01T12:43:57Z</time>
      </trkpt>
      <trkpt lat="45.80136" lon="3.51854">
        <ele>307.6</ele>
        <time>2024-05-01T12:43:58Z</time>
      </trkpt>
      <trkpt lat="45.80142" lon="3.51849">
        <ele>307.6</ele>
        <time>2024-05-01T12:43:59Z</time>
      </trkpt>
      <trkpt lat="45.80147" lon="3.51843">
        <ele>307.6</ele>
        <time>2024-05-01T12:44:00Z</time>
      </trkpt>
      <trkpt lat="45.80153" lon="3.51838">
        <ele>307.4</ele>
        <time>2024-05-01T12:44:01Z</time>
      </trkpt>
      <trkpt lat="45.80159" lon="3.51833">
        <ele>307.4</ele>
        <time>2024-05-01T12:44:02Z</time>
      </trkpt>
      <trkpt lat="45.80164" lon="3.51828">
        <ele>307.2</ele>
        <time>2024-05-01T12:44:03Z</time>
      </trkpt>
      <trkpt lat="45.8017" lon="3.51823">
        <ele>307.2</ele>
        <time>2024-05-01T12:44:04Z</time>
      </trkpt>
      <trkpt lat="45.80176" lon="3.51818">
        <ele>307</ele>
        <time>2024-05-01T12:44:05Z</time>
      </trkpt>
      <trkpt lat="45.80181" lon="3.51813">
        <ele>307</ele>
        <time>2024-05-01T12:44:06Z</time>
      </trkpt>
      <trkpt lat="45.80187" lon="3.51807">
        <ele>307</ele>
        <time>2024-05-01T12:44:07Z</time>
      </trkpt>
      <trkpt lat="45.80192" lon="3.51802">
        <ele>306.8</ele>
        <time>2024-05-01T12:44:08Z</time>
      </trkpt>
      <trkpt lat="45.80198" lon="3.51797">
        <ele>306.6</ele>
        <time>2024-05-01T12:44:09Z</time>
      </trkpt>
      <trkpt lat="45.80203" lon="3.51792">
        <ele>306.6</ele>
        <time>2024-05-01T12:44:10Z</time>
      </trkpt>
      <trkpt lat="45.80209" lon="3.51787">
        <ele>306.6</ele>
        <time>2024-05-01T12:44:11Z</time>
      </trkpt>
      <trkpt lat="45.80214" lon="3.51782">
        <ele>306.4</ele>
        <time>2024-05-01T12:44:12Z</time>
      </trkpt>
      <trkpt lat="45.80219" lon="3.51778">
        <ele>306.4</ele>
        <time>2024-05-01T12:44:13Z</time>
      </trkpt>
      <trkpt lat="45.80225" lon="3.51773">
        <ele>306.2</ele>
        <time>2024-05-01T12:44:14Z</time>
      </trkpt>
      <trkpt lat="45.8023" lon="3.51768">
        <ele>306.2</ele>
        <time>2024-05-01T12:44:15Z</time>
      </trkpt>
      <trkpt lat="45.80235" lon="3.51763">
        <ele>306</ele>
        <time>2024-05-01T12:44:16Z</time>
      </trkpt>
      <trkpt lat="45.80241" lon="3.51758">
        <ele>305.8</ele>
        <time>2024-05-01T12:44:17Z</time>
      </trkpt>
      <trkpt lat="45.80246" lon="3.51753">
        <ele>305.8</ele>
        <time>2024-05-01T12:44:18Z</time>
      </trkpt>
      <trkpt lat="45.80251" lon="3.51748">
        <ele>305.6</ele>
        <time>2024-05-01T12:44:19Z</time>
      </trkpt>
      <trkpt lat="45.80257" lon="3.51744">
        <ele>305.6</ele>
        <time>2024-05-01T12:44:20Z</time>
      </trkpt>
      <trkpt lat="45.80262" lon="3.51739">
        <ele>305.4</ele>
        <time>2024-05-01T12:44:21Z</time>
      </trkpt>
      <trkpt lat="45.80267" lon="3.51734">
        <ele>305.4</ele>
        <time>2024-05-01T12:44:22Z</time>
      </trkpt>
      <trkpt lat="45.80267" lon="3.51734">
        <ele>305.2</ele>
        <time>2024-05-01T12:44:23Z</time>
      </trkpt>
      <trkpt lat="45.80272" lon="3.51729">
        <ele>305</ele>
        <time>2024-05-01T12:44:24Z</time>
      </trkpt>
      <trkpt lat="45.80277" lon="3.51725">
        <ele>305</ele>
        <time>2024-05-01T12:44:25Z</time>
      </trkpt>
      <trkpt lat="45.80282" lon="3.5172">
        <ele>304.8</ele>
        <time>2024-05-01T12:44:26Z</time>
      </trkpt>
      <trkpt lat="45.80287" lon="3.51715">
        <ele>304.8</ele>
        <time>2024-05-01T12:44:27Z</time>
      </trkpt>
      <trkpt lat="45.80292" lon="3.51711">
        <ele>304.6</ele>
        <time>2024-05-01T12:44:28Z</time>
      </trkpt>
      <trkpt lat="45.80298" lon="3.51707">
        <ele>304.6</ele>
        <time>2024-05-01T12:44:29Z</time>
      </trkpt>
      <trkpt lat="45.80303" lon="3.51703">
        <ele>304.6</ele>
        <time>2024-05-01T12:44:30Z</time>
      </trkpt>
      <trkpt lat="45.80308" lon="3.51699">
        <ele>304.4</ele>
        <time>2024-05-01T12:44:31Z</time>
      </trkpt>
      <trkpt lat="45.80313" lon="3.51695">
        <ele>304.4</ele>
        <time>2024-05-01T12:44:32Z</time>
      </trkpt>
      <trkpt lat="45.80318" lon="3.51692">
        <ele>304.4</ele>
        <time>2024-05-01T12:44:33Z</time>
      </trkpt>
      <trkpt lat="45.80323" lon="3.51688">
        <ele>304.2</ele>
        <time>2024-05-01T12:44:34Z</time>
      </trkpt>
      <trkpt lat="45.80328" lon="3.51684">
        <ele>304.2</ele>
        <time>2024-05-01T12:44:35Z</time>
      </trkpt>
      <trkpt lat="45.80333" lon="3.51681">
        <ele>304</ele>
        <time>2024-05-01T12:44:36Z</time>
      </trkpt>
      <trkpt lat="45.80338" lon="3.51677">
        <ele>304</ele>
        <time>2024-05-01T12:44:37Z</time>
      </trkpt>
      <trkpt lat="45.80343" lon="3.51674">
        <ele>303.8</ele>
        <time>2024-05-01T12:44:38Z</time>
      </trkpt>
      <trkpt lat="45.80348" lon="3.5167">
        <ele>303.8</ele>
        <time>2024-05-01T12:44:39Z</time>
      </trkpt>
      <trkpt lat="45.80352" lon="3.51667">
        <ele>303.8</ele>
        <time>2024-05-01T12:44:40Z</time>
      </trkpt>
      <trkpt lat="45.80357" lon="3.51663">
        <ele>303.8</ele>
        <time>2024-05-01T12:44:41Z</time>
      </trkpt>
      <trkpt lat="45.80362" lon="3.5166">
        <ele>303.8</ele>
        <time>2024-05-01T12:44:42Z</time>
      </trkpt>
      <trkpt lat="45.80367" lon="3.51656">
        <ele>303.8</ele>
        <time>2024-05-01T12:44:43Z</time>
      </trkpt>
      <trkpt lat="45.80371" lon="3.51653">
        <ele>303.8</ele>
        <time>2024-05-01T12:44:44Z</time>
      </trkpt>
      <trkpt lat="45.80376" lon="3.51649">
        <ele>303.8</ele>
        <time>2024-05-01T12:44:45Z</time>
      </trkpt>
      <trkpt lat="45.80381" lon="3.51646">
        <ele>304</ele>
        <time>2024-05-01T12:44:46Z</time>
      </trkpt>
      <trkpt lat="45.80386" lon="3.51642">
        <ele>304</ele>
        <time>2024-05-01T12:44:47Z</time>
      </trkpt>
      <trkpt lat="45.8039" lon="3.51639">
        <ele>304</ele>
        <time>2024-05-01T12:44:48Z</time>
      </trkpt>
      <trkpt lat="45.80395" lon="3.51635">
        <ele>304</ele>
        <time>2024-05-01T12:44:49Z</time>
      </trkpt>
      <trkpt lat="45.804" lon="3.51632">
        <ele>304</ele>
        <time>2024-05-01T12:44:50Z</time>
      </trkpt>
      <trkpt lat="45.80406" lon="3.51628">
        <ele>304</ele>
        <time>2024-05-01T12:44:51Z</time>
      </trkpt>
      <trkpt lat="45.80411" lon="3.51627">
        <ele>304</ele>
        <time>2024-05-01T12:44:52Z</time>
      </trkpt>
      <trkpt lat="45.80416" lon="3.51625">
        <ele>304</ele>
        <time>2024-05-01T12:44:53Z</time>
      </trkpt>
      <trkpt lat="45.80422" lon="3.51623">
        <ele>303.4</ele>
        <time>2024-05-01T12:44:54Z</time>
      </trkpt>
      <trkpt lat="45.80427" lon="3.51621">
        <ele>303.6</ele>
        <time>2024-05-01T12:44:55Z</time>
      </trkpt>
      <trkpt lat="45.80433" lon="3.5162">
        <ele>303.8</ele>
        <time>2024-05-01T12:44:56Z</time>
      </trkpt>
      <trkpt lat="45.80438" lon="3.51618">
        <ele>304</ele>
        <time>2024-05-01T12:44:57Z</time>
      </trkpt>
      <trkpt lat="45.80444" lon="3.51616">
        <ele>304.2</ele>
        <time>2024-05-01T12:44:58Z</time>
      </trkpt>
      <trkpt lat="45.80449" lon="3.51615">
        <ele>304.4</ele>
        <time>2024-05-01T12:44:59Z</time>
      </trkpt>
      <trkpt lat="45.80455" lon="3.51613">
        <ele>304.4</ele>
        <time>2024-05-01T12:45:00Z</time>
      </trkpt>
      <trkpt lat="45.8046" lon="3.51611">
        <ele>304.4</ele>
        <time>2024-05-01T12:45:01Z</time>
      </trkpt>
      <trkpt lat="45.80466" lon="3.51609">
        <ele>304.6</ele>
        <time>2024-05-01T12:45:02Z</time>
      </trkpt>
      <trkpt lat="45.80471" lon="3.51607">
        <ele>304.2</ele>
        <time>2024-05-01T12:45:03Z</time>
      </trkpt>
      <trkpt lat="45.80477" lon="3.51606">
        <ele>304.2</ele>
        <time>2024-05-01T12:45:04Z</time>
      </trkpt>
      <trkpt lat="45.80482" lon="3.51604">
        <ele>304.2</ele>
        <time>2024-05-01T12:45:05Z</time>
      </trkpt>
      <trkpt lat="45.80488" lon="3.51602">
        <ele>304.2</ele>
        <time>2024-05-01T12:45:06Z</time>
      </trkpt>
      <trkpt lat="45.80494" lon="3.51601">
        <ele>304.2</ele>
        <time>2024-05-01T12:45:07Z</time>
      </trkpt>
      <trkpt lat="45.805" lon="3.51599">
        <ele>304.2</ele>
        <time>2024-05-01T12:45:08Z</time>
      </trkpt>
      <trkpt lat="45.80505" lon="3.51598">
        <ele>304.2</ele>
        <time>2024-05-01T12:45:09Z</time>
      </trkpt>
      <trkpt lat="45.80511" lon="3.51597">
        <ele>304.2</ele>
        <time>2024-05-01T12:45:10Z</time>
      </trkpt>
      <trkpt lat="45.80517" lon="3.51595">
        <ele>304.2</ele>
        <time>2024-05-01T12:45:11Z</time>
      </trkpt>
      <trkpt lat="45.80522" lon="3.51594">
        <ele>304.2</ele>
        <time>2024-05-01T12:45:12Z</time>
      </trkpt>
      <trkpt lat="45.80528" lon="3.51593">
        <ele>304.2</ele>
        <time>2024-05-01T12:45:13Z</time>
      </trkpt>
      <trkpt lat="45.80534" lon="3.51591">
        <ele>304.2</ele>
        <time>2024-05-01T12:45:14Z</time>
      </trkpt>
      <trkpt lat="45.8054" lon="3.51589">
        <ele>304.2</ele>
        <time>2024-05-01T12:45:15Z</time>
      </trkpt>
      <trkpt lat="45.80546" lon="3.51588">
        <ele>304.2</ele>
        <time>2024-05-01T12:45:16Z</time>
      </trkpt>
      <trkpt lat="45.80551" lon="3.51586">
        <ele>304.2</ele>
        <time>2024-05-01T12:45:17Z</time>
      </trkpt>
      <trkpt lat="45.80557" lon="3.51585">
        <ele>304.2</ele>
        <time>2024-05-01T12:45:18Z</time>
      </trkpt>
      <trkpt lat="45.80563" lon="3.51584">
        <ele>304.2</ele>
        <time>2024-05-01T12:45:19Z</time>
      </trkpt>
      <trkpt lat="45.80569" lon="3.51582">
        <ele>304.6</ele>
        <time>2024-05-01T12:45:20Z</time>
      </trkpt>
      <trkpt lat="45.80575" lon="3.51581">
        <ele>304.6</ele>
        <time>2024-05-01T12:45:21Z</time>
      </trkpt>
      <trkpt lat="45.80582" lon="3.5158">
        <ele>304.6</ele>
        <time>2024-05-01T12:45:22Z</time>
      </trkpt>
      <trkpt lat="45.80588" lon="3.51578">
        <ele>304.4</ele>
        <time>2024-05-01T12:45:23Z</time>
      </trkpt>
      <trkpt lat="45.80594" lon="3.51577">
        <ele>304.4</ele>
        <time>2024-05-01T12:45:24Z</time>
      </trkpt>
      <trkpt lat="45.80601" lon="3.51575">
        <ele>304.4</ele>
        <time>2024-05-01T12:45:25Z</time>
      </trkpt>
      <trkpt lat="45.80607" lon="3.51574">
        <ele>304.4</ele>
        <time>2024-05-01T12:45:26Z</time>
      </trkpt>
      <trkpt lat="45.80613" lon="3.51573">
        <ele>304.6</ele>
        <time>2024-05-01T12:45:27Z</time>
      </trkpt>
      <trkpt lat="45.8062" lon="3.51571">
        <ele>304.6</ele>
        <time>2024-05-01T12:45:28Z</time>
      </trkpt>
      <trkpt lat="45.80626" lon="3.5157">
        <ele>304.8</ele>
        <time>2024-05-01T12:45:29Z</time>
      </trkpt>
      <trkpt lat="45.80632" lon="3.51568">
        <ele>304.6</ele>
        <time>2024-05-01T12:45:30Z</time>
      </trkpt>
      <trkpt lat="45.80639" lon="3.51567">
        <ele>304.4</ele>
        <time>2024-05-01T12:45:31Z</time>
      </trkpt>
      <trkpt lat="45.80645" lon="3.51566">
        <ele>304.2</ele>
        <time>2024-05-01T12:45:32Z</time>
      </trkpt>
      <trkpt lat="45.80652" lon="3.51564">
        <ele>304.2</ele>
        <time>2024-05-01T12:45:33Z</time>
      </trkpt>
      <trkpt lat="45.80658" lon="3.51563">
        <ele>304</ele>
        <time>2024-05-01T12:45:34Z</time>
      </trkpt>
      <trkpt lat="45.80664" lon="3.51561">
        <ele>304</ele>
        <time>2024-05-01T12:45:35Z</time>
      </trkpt>
      <trkpt lat="45.80671" lon="3.5156">
        <ele>304</ele>
        <time>2024-05-01T12:45:36Z</time>
      </trkpt>
      <trkpt lat="45.80677" lon="3.51559">
        <ele>304.2</ele>
        <time>2024-05-01T12:45:37Z</time>
      </trkpt>
      <trkpt lat="45.80684" lon="3.51557">
        <ele>304.2</ele>
        <time>2024-05-01T12:45:38Z</time>
      </trkpt>
      <trkpt lat="45.8069" lon="3.51556">
        <ele>304.2</ele>
        <time>2024-05-01T12:45:39Z</time>
      </trkpt>
      <trkpt lat="45.80697" lon="3.51554">
        <ele>304.2</ele>
        <time>2024-05-01T12:45:40Z</time>
      </trkpt>
      <trkpt lat="45.80703" lon="3.51553">
        <ele>304</ele>
        <time>2024-05-01T12:45:41Z</time>
      </trkpt>
      <trkpt lat="45.8071" lon="3.51551">
        <ele>304.2</ele>
        <time>2024-05-01T12:45:42Z</time>
      </trkpt>
      <trkpt lat="45.80716" lon="3.5155">
        <ele>304</ele>
        <time>2024-05-01T12:45:43Z</time>
      </trkpt>
      <trkpt lat="45.80723" lon="3.51549">
        <ele>304.2</ele>
        <time>2024-05-01T12:45:44Z</time>
      </trkpt>
      <trkpt lat="45.80729" lon="3.51547">
        <ele>304</ele>
        <time>2024-05-01T12:45:45Z</time>
      </trkpt>
      <trkpt lat="45.80736" lon="3.51546">
        <ele>304.2</ele>
        <time>2024-05-01T12:45:46Z</time>
      </trkpt>
      <trkpt lat="45.80742" lon="3.51544">
        <ele>304.2</ele>
        <time>2024-05-01T12:45:47Z</time>
      </trkpt>
      <trkpt lat="45.80749" lon="3.51543">
        <ele>304.4</ele>
        <time>2024-05-01T12:45:48Z</time>
      </trkpt>
      <trkpt lat="45.80755" lon="3.51542">
        <ele>304.4</ele>
        <time>2024-05-01T12:45:49Z</time>
      </trkpt>
      <trkpt lat="45.80762" lon="3.5154">
        <ele>304.4</ele>
        <time>2024-05-01T12:45:50Z</time>
      </trkpt>
      <trkpt lat="45.80768" lon="3.51539">
        <ele>304.4</ele>
        <time>2024-05-01T12:45:51Z</time>
      </trkpt>
      <trkpt lat="45.80775" lon="3.51537">
        <ele>304.6</ele>
        <time>2024-05-01T12:45:52Z</time>
      </trkpt>
      <trkpt lat="45.80782" lon="3.51536">
        <ele>304.6</ele>
        <time>2024-05-01T12:45:53Z</time>
      </trkpt>
      <trkpt lat="45.80789" lon="3.51534">
        <ele>304.4</ele>
        <time>2024-05-01T12:45:54Z</time>
      </trkpt>
      <trkpt lat="45.80795" lon="3.51533">
        <ele>304.2</ele>
        <time>2024-05-01T12:45:55Z</time>
      </trkpt>
      <trkpt lat="45.80801" lon="3.51531">
        <ele>304</ele>
        <time>2024-05-01T12:45:56Z</time>
      </trkpt>
      <trkpt lat="45.80808" lon="3.51529">
        <ele>304.2</ele>
        <time>2024-05-01T12:45:57Z</time>
      </trkpt>
      <trkpt lat="45.80814" lon="3.51528">
        <ele>304.2</ele>
        <time>2024-05-01T12:45:58Z</time>
      </trkpt>
      <trkpt lat="45.8082" lon="3.51526">
        <ele>304.2</ele>
        <time>2024-05-01T12:45:59Z</time>
      </trkpt>
      <trkpt lat="45.80826" lon="3.51524">
        <ele>304.2</ele>
        <time>2024-05-01T12:46:00Z</time>
      </trkpt>
      <trkpt lat="45.80833" lon="3.51522">
        <ele>304.4</ele>
        <time>2024-05-01T12:46:01Z</time>
      </trkpt>
      <trkpt lat="45.80839" lon="3.51521">
        <ele>304.6</ele>
        <time>2024-05-01T12:46:02Z</time>
      </trkpt>
      <trkpt lat="45.80845" lon="3.51519">
        <ele>304.6</ele>
        <time>2024-05-01T12:46:03Z</time>
      </trkpt>
      <trkpt lat="45.80852" lon="3.51517">
        <ele>304.6</ele>
        <time>2024-05-01T12:46:04Z</time>
      </trkpt>
      <trkpt lat="45.80858" lon="3.51514">
        <ele>304.4</ele>
        <time>2024-05-01T12:46:05Z</time>
      </trkpt>
      <trkpt lat="45.80864" lon="3.51511">
        <ele>304.6</ele>
        <time>2024-05-01T12:46:06Z</time>
      </trkpt>
      <trkpt lat="45.80871" lon="3.51509">
        <ele>304.6</ele>
        <time>2024-05-01T12:46:07Z</time>
      </trkpt>
      <trkpt lat="45.80877" lon="3.51506">
        <ele>304.4</ele>
        <time>2024-05-01T12:46:08Z</time>
      </trkpt>
      <trkpt lat="45.80882" lon="3.51504">
        <ele>304.4</ele>
        <time>2024-05-01T12:46:09Z</time>
      </trkpt>
      <trkpt lat="45.80888" lon="3.51501">
        <ele>304.6</ele>
        <time>2024-05-01T12:46:10Z</time>
      </trkpt>
      <trkpt lat="45.80894" lon="3.51499">
        <ele>304.4</ele>
        <time>2024-05-01T12:46:11Z</time>
      </trkpt>
      <trkpt lat="45.809" lon="3.51496">
        <ele>304.4</ele>
        <time>2024-05-01T12:46:12Z</time>
      </trkpt>
      <trkpt lat="45.80906" lon="3.51493">
        <ele>304.4</ele>
        <time>2024-05-01T12:46:13Z</time>
      </trkpt>
      <trkpt lat="45.80913" lon="3.5149">
        <ele>304.4</ele>
        <time>2024-05-01T12:46:14Z</time>
      </trkpt>
      <trkpt lat="45.80919" lon="3.51486">
        <ele>304.6</ele>
        <time>2024-05-01T12:46:15Z</time>
      </trkpt>
      <trkpt lat="45.80925" lon="3.51482">
        <ele>304.6</ele>
        <time>2024-05-01T12:46:16Z</time>
      </trkpt>
      <trkpt lat="45.8093" lon="3.51478">
        <ele>304.6</ele>
        <time>2024-05-01T12:46:17Z</time>
      </trkpt>
      <trkpt lat="45.80936" lon="3.51474">
        <ele>304.6</ele>
        <time>2024-05-01T12:46:18Z</time>
      </trkpt>
      <trkpt lat="45.80942" lon="3.5147">
        <ele>304.8</ele>
        <time>2024-05-01T12:46:19Z</time>
      </trkpt>
      <trkpt lat="45.80948" lon="3.51466">
        <ele>304.8</ele>
        <time>2024-05-01T12:46:20Z</time>
      </trkpt>
      <trkpt lat="45.80953" lon="3.51462">
        <ele>304.8</ele>
        <time>2024-05-01T12:46:21Z</time>
      </trkpt>
      <trkpt lat="45.80959" lon="3.51459">
        <ele>304.8</ele>
        <time>2024-05-01T12:46:22Z</time>
      </trkpt>
      <trkpt lat="45.80965" lon="3.51455">
        <ele>304.8</ele>
        <time>2024-05-01T12:46:23Z</time>
      </trkpt>
      <trkpt lat="45.8097" lon="3.51451">
        <ele>304.8</ele>
        <time>2024-05-01T12:46:24Z</time>
      </trkpt>
      <trkpt lat="45.80976" lon="3.51447">
        <ele>305</ele>
        <time>2024-05-01T12:46:25Z</time>
      </trkpt>
      <trkpt lat="45.80982" lon="3.51443">
        <ele>305</ele>
        <time>2024-05-01T12:46:26Z</time>
      </trkpt>
      <trkpt lat="45.80987" lon="3.51439">
        <ele>305</ele>
        <time>2024-05-01T12:46:27Z</time>
      </trkpt>
      <trkpt lat="45.80993" lon="3.51435">
        <ele>305</ele>
        <time>2024-05-01T12:46:28Z</time>
      </trkpt>
      <trkpt lat="45.80998" lon="3.5143">
        <ele>305</ele>
        <time>2024-05-01T12:46:29Z</time>
      </trkpt>
      <trkpt lat="45.81004" lon="3.51426">
        <ele>305</ele>
        <time>2024-05-01T12:46:30Z</time>
      </trkpt>
      <trkpt lat="45.81009" lon="3.51422">
        <ele>305</ele>
        <time>2024-05-01T12:46:31Z</time>
      </trkpt>
      <trkpt lat="45.81014" lon="3.51417">
        <ele>305</ele>
        <time>2024-05-01T12:46:32Z</time>
      </trkpt>
      <trkpt lat="45.81019" lon="3.51413">
        <ele>305</ele>
        <time>2024-05-01T12:46:33Z</time>
      </trkpt>
      <trkpt lat="45.81025" lon="3.51408">
        <ele>305</ele>
        <time>2024-05-01T12:46:34Z</time>
      </trkpt>
      <trkpt lat="45.8103" lon="3.51403">
        <ele>305</ele>
        <time>2024-05-01T12:46:35Z</time>
      </trkpt>
      <trkpt lat="45.81035" lon="3.51399">
        <ele>305</ele>
        <time>2024-05-01T12:46:36Z</time>
      </trkpt>
      <trkpt lat="45.81041" lon="3.51394">
        <ele>305</ele>
        <time>2024-05-01T12:46:37Z</time>
      </trkpt>
      <trkpt lat="45.81046" lon="3.5139">
        <ele>305</ele>
        <time>2024-05-01T12:46:38Z</time>
      </trkpt>
      <trkpt lat="45.81051" lon="3.51385">
        <ele>305.2</ele>
        <time>2024-05-01T12:46:39Z</time>
      </trkpt>
      <trkpt lat="45.81057" lon="3.51381">
        <ele>305.2</ele>
        <time>2024-05-01T12:46:40Z</time>
      </trkpt>
      <trkpt lat="45.81062" lon="3.51376">
        <ele>305.2</ele>
        <time>2024-05-01T12:46:41Z</time>
      </trkpt>
      <trkpt lat="45.81067" lon="3.51372">
        <ele>305</ele>
        <time>2024-05-01T12:46:42Z</time>
      </trkpt>
      <trkpt lat="45.81073" lon="3.51367">
        <ele>305</ele>
        <time>2024-05-01T12:46:43Z</time>
      </trkpt>
      <trkpt lat="45.81078" lon="3.51363">
        <ele>305</ele>
        <time>2024-05-01T12:46:44Z</time>
      </trkpt>
      <trkpt lat="45.81083" lon="3.51358">
        <ele>305</ele>
        <time>2024-05-01T12:46:45Z</time>
      </trkpt>
      <trkpt lat="45.81089" lon="3.51353">
        <ele>305</ele>
        <time>2024-05-01T12:46:46Z</time>
      </trkpt>
      <trkpt lat="45.81095" lon="3.51349">
        <ele>305</ele>
        <time>2024-05-01T12:46:47Z</time>
      </trkpt>
      <trkpt lat="45.811" lon="3.51344">
        <ele>305</ele>
        <time>2024-05-01T12:46:48Z</time>
      </trkpt>
      <trkpt lat="45.81106" lon="3.51339">
        <ele>305</ele>
        <time>2024-05-01T12:46:49Z</time>
      </trkpt>
      <trkpt lat="45.81111" lon="3.51334">
        <ele>305</ele>
        <time>2024-05-01T12:46:50Z</time>
      </trkpt>
      <trkpt lat="45.81117" lon="3.5133">
        <ele>305</ele>
        <time>2024-05-01T12:46:51Z</time>
      </trkpt>
      <trkpt lat="45.81122" lon="3.51325">
        <ele>304.8</ele>
        <time>2024-05-01T12:46:52Z</time>
      </trkpt>
      <trkpt lat="45.81128" lon="3.5132">
        <ele>304.8</ele>
        <time>2024-05-01T12:46:53Z</time>
      </trkpt>
      <trkpt lat="45.81134" lon="3.51315">
        <ele>304.6</ele>
        <time>2024-05-01T12:46:54Z</time>
      </trkpt>
      <trkpt lat="45.81139" lon="3.5131">
        <ele>304.6</ele>
        <time>2024-05-01T12:46:55Z</time>
      </trkpt>
      <trkpt lat="45.81145" lon="3.51306">
        <ele>304.6</ele>
        <time>2024-05-01T12:46:56Z</time>
      </trkpt>
      <trkpt lat="45.8115" lon="3.51301">
        <ele>304.6</ele>
        <time>2024-05-01T12:46:57Z</time>
      </trkpt>
      <trkpt lat="45.81156" lon="3.51296">
        <ele>304.4</ele>
        <time>2024-05-01T12:46:58Z</time>
      </trkpt>
      <trkpt lat="45.81162" lon="3.51291">
        <ele>304.4</ele>
        <time>2024-05-01T12:46:59Z</time>
      </trkpt>
      <trkpt lat="45.81168" lon="3.51286">
        <ele>304.4</ele>
        <time>2024-05-01T12:47:00Z</time>
      </trkpt>
      <trkpt lat="45.81173" lon="3.51282">
        <ele>304.4</ele>
        <time>2024-05-01T12:47:01Z</time>
      </trkpt>
      <trkpt lat="45.81179" lon="3.51277">
        <ele>304.4</ele>
        <time>2024-05-01T12:47:02Z</time>
      </trkpt>
      <trkpt lat="45.81185" lon="3.51272">
        <ele>304.4</ele>
        <time>2024-05-01T12:47:03Z</time>
      </trkpt>
      <trkpt lat="45.8119" lon="3.51267">
        <ele>304.4</ele>
        <time>2024-05-01T12:47:04Z</time>
      </trkpt>
      <trkpt lat="45.81196" lon="3.51262">
        <ele>304.4</ele>
        <time>2024-05-01T12:47:05Z</time>
      </trkpt>
      <trkpt lat="45.81202" lon="3.51257">
        <ele>304.4</ele>
        <time>2024-05-01T12:47:06Z</time>
      </trkpt>
      <trkpt lat="45.81208" lon="3.51252">
        <ele>304.4</ele>
        <time>2024-05-01T12:47:07Z</time>
      </trkpt>
      <trkpt lat="45.81214" lon="3.51247">
        <ele>304.4</ele>
        <time>2024-05-01T12:47:08Z</time>
      </trkpt>
      <trkpt lat="45.81219" lon="3.51242">
        <ele>304.4</ele>
        <time>2024-05-01T12:47:09Z</time>
      </trkpt>
      <trkpt lat="45.81225" lon="3.51237">
        <ele>304.4</ele>
        <time>2024-05-01T12:47:10Z</time>
      </trkpt>
      <trkpt lat="45.81231" lon="3.51233">
        <ele>304.4</ele>
        <time>2024-05-01T12:47:11Z</time>
      </trkpt>
      <trkpt lat="45.81237" lon="3.51228">
        <ele>304.2</ele>
        <time>2024-05-01T12:47:12Z</time>
      </trkpt>
      <trkpt lat="45.81242" lon="3.51223">
        <ele>304.2</ele>
        <time>2024-05-01T12:47:13Z</time>
      </trkpt>
      <trkpt lat="45.81248" lon="3.51218">
        <ele>304.2</ele>
        <time>2024-05-01T12:47:14Z</time>
      </trkpt>
      <trkpt lat="45.81254" lon="3.51213">
        <ele>304.2</ele>
        <time>2024-05-01T12:47:15Z</time>
      </trkpt>
      <trkpt lat="45.8126" lon="3.51208">
        <ele>304.2</ele>
        <time>2024-05-01T12:47:16Z</time>
      </trkpt>
      <trkpt lat="45.81265" lon="3.51204">
        <ele>304.2</ele>
        <time>2024-05-01T12:47:17Z</time>
      </trkpt>
      <trkpt lat="45.81271" lon="3.51199">
        <ele>304.2</ele>
        <time>2024-05-01T12:47:18Z</time>
      </trkpt>
      <trkpt lat="45.81277" lon="3.51194">
        <ele>304.2</ele>
        <time>2024-05-01T12:47:19Z</time>
      </trkpt>
      <trkpt lat="45.81282" lon="3.51189">
        <ele>304.2</ele>
        <time>2024-05-01T12:47:20Z</time>
      </trkpt>
      <trkpt lat="45.81288" lon="3.51184">
        <ele>304</ele>
        <time>2024-05-01T12:47:21Z</time>
      </trkpt>
      <trkpt lat="45.81294" lon="3.5118">
        <ele>304</ele>
        <time>2024-05-01T12:47:22Z</time>
      </trkpt>
      <trkpt lat="45.813" lon="3.51175">
        <ele>304</ele>
        <time>2024-05-01T12:47:23Z</time>
      </trkpt>
      <trkpt lat="45.81305" lon="3.5117">
        <ele>303.8</ele>
        <time>2024-05-01T12:47:24Z</time>
      </trkpt>
      <trkpt lat="45.81311" lon="3.51165">
        <ele>303.8</ele>
        <time>2024-05-01T12:47:25Z</time>
      </trkpt>
      <trkpt lat="45.81317" lon="3.5116">
        <ele>303.8</ele>
        <time>2024-05-01T12:47:26Z</time>
      </trkpt>
      <trkpt lat="45.81323" lon="3.51155">
        <ele>303.8</ele>
        <time>2024-05-01T12:47:27Z</time>
      </trkpt>
      <trkpt lat="45.81328" lon="3.5115">
        <ele>303.8</ele>
        <time>2024-05-01T12:47:28Z</time>
      </trkpt>
      <trkpt lat="45.81334" lon="3.51145">
        <ele>303.8</ele>
        <time>2024-05-01T12:47:29Z</time>
      </trkpt>
      <trkpt lat="45.8134" lon="3.51141">
        <ele>303.6</ele>
        <time>2024-05-01T12:47:30Z</time>
      </trkpt>
      <trkpt lat="45.81346" lon="3.51136">
        <ele>303.6</ele>
        <time>2024-05-01T12:47:31Z</time>
      </trkpt>
      <trkpt lat="45.81352" lon="3.51131">
        <ele>303.6</ele>
        <time>2024-05-01T12:47:32Z</time>
      </trkpt>
      <trkpt lat="45.81357" lon="3.51126">
        <ele>303.6</ele>
        <time>2024-05-01T12:47:33Z</time>
      </trkpt>
      <trkpt lat="45.81363" lon="3.51121">
        <ele>303.6</ele>
        <time>2024-05-01T12:47:34Z</time>
      </trkpt>
      <trkpt lat="45.81369" lon="3.51116">
        <ele>303.6</ele>
        <time>2024-05-01T12:47:35Z</time>
      </trkpt>
      <trkpt lat="45.81374" lon="3.51112">
        <ele>303.6</ele>
        <time>2024-05-01T12:47:36Z</time>
      </trkpt>
      <trkpt lat="45.8138" lon="3.51107">
        <ele>303.6</ele>
        <time>2024-05-01T12:47:37Z</time>
      </trkpt>
      <trkpt lat="45.81386" lon="3.51102">
        <ele>303.6</ele>
        <time>2024-05-01T12:47:38Z</time>
      </trkpt>
      <trkpt lat="45.81392" lon="3.51097">
        <ele>303.4</ele>
        <time>2024-05-01T12:47:39Z</time>
      </trkpt>
      <trkpt lat="45.81398" lon="3.51092">
        <ele>303.4</ele>
        <time>2024-05-01T12:47:40Z</time>
      </trkpt>
      <trkpt lat="45.81403" lon="3.51087">
        <ele>303.4</ele>
        <time>2024-05-01T12:47:41Z</time>
      </trkpt>
      <trkpt lat="45.81409" lon="3.51082">
        <ele>303.4</ele>
        <time>2024-05-01T12:47:42Z</time>
      </trkpt>
      <trkpt lat="45.81415" lon="3.51078">
        <ele>303.4</ele>
        <time>2024-05-01T12:47:43Z</time>
      </trkpt>
      <trkpt lat="45.81421" lon="3.51073">
        <ele>303.4</ele>
        <time>2024-05-01T12:47:44Z</time>
      </trkpt>
      <trkpt lat="45.81426" lon="3.51068">
        <ele>303.4</ele>
        <time>2024-05-01T12:47:45Z</time>
      </trkpt>
      <trkpt lat="45.81432" lon="3.51063">
        <ele>303.4</ele>
        <time>2024-05-01T12:47:46Z</time>
      </trkpt>
      <trkpt lat="45.81438" lon="3.51058">
        <ele>303.4</ele>
        <time>2024-05-01T12:47:47Z</time>
      </trkpt>
      <trkpt lat="45.81443" lon="3.51054">
        <ele>303.4</ele>
        <time>2024-05-01T12:47:48Z</time>
      </trkpt>
      <trkpt lat="45.81449" lon="3.51049">
        <ele>303.4</ele>
        <time>2024-05-01T12:47:49Z</time>
      </trkpt>
      <trkpt lat="45.81455" lon="3.51044">
        <ele>303.4</ele>
        <time>2024-05-01T12:47:50Z</time>
      </trkpt>
      <trkpt lat="45.8146" lon="3.51039">
        <ele>303.4</ele>
        <time>2024-05-01T12:47:51Z</time>
      </trkpt>
      <trkpt lat="45.81466" lon="3.51034">
        <ele>303.4</ele>
        <time>2024-05-01T12:47:52Z</time>
      </trkpt>
      <trkpt lat="45.81472" lon="3.5103">
        <ele>303.4</ele>
        <time>2024-05-01T12:47:53Z</time>
      </trkpt>
      <trkpt lat="45.81477" lon="3.51025">
        <ele>303.2</ele>
        <time>2024-05-01T12:47:54Z</time>
      </trkpt>
      <trkpt lat="45.81483" lon="3.5102">
        <ele>303.2</ele>
        <time>2024-05-01T12:47:55Z</time>
      </trkpt>
      <trkpt lat="45.81489" lon="3.51015">
        <ele>303.2</ele>
        <time>2024-05-01T12:47:56Z</time>
      </trkpt>
      <trkpt lat="45.81494" lon="3.51011">
        <ele>303.2</ele>
        <time>2024-05-01T12:47:57Z</time>
      </trkpt>
      <trkpt lat="45.815" lon="3.51006">
        <ele>303.2</ele>
        <time>2024-05-01T12:47:58Z</time>
      </trkpt>
      <trkpt lat="45.81511" lon="3.50996">
        <ele>303.2</ele>
        <time>2024-05-01T12:47:59Z</time>
      </trkpt>
      <trkpt lat="45.81511" lon="3.50996">
        <ele>303.2</ele>
        <time>2024-05-01T12:48:00Z</time>
      </trkpt>
      <trkpt lat="45.81517" lon="3.50992">
        <ele>303.2</ele>
        <time>2024-05-01T12:48:01Z</time>
      </trkpt>
      <trkpt lat="45.81522" lon="3.50987">
        <ele>303.2</ele>
        <time>2024-05-01T12:48:02Z</time>
      </trkpt>
      <trkpt lat="45.81528" lon="3.50982">
        <ele>303.2</ele>
        <time>2024-05-01T12:48:03Z</time>
      </trkpt>
      <trkpt lat="45.81534" lon="3.50977">
        <ele>303.2</ele>
        <time>2024-05-01T12:48:04Z</time>
      </trkpt>
      <trkpt lat="45.81539" lon="3.50973">
        <ele>303</ele>
        <time>2024-05-01T12:48:05Z</time>
      </trkpt>
      <trkpt lat="45.81545" lon="3.50968">
        <ele>303</ele>
        <time>2024-05-01T12:48:06Z</time>
      </trkpt>
      <trkpt lat="45.81551" lon="3.50963">
        <ele>303</ele>
        <time>2024-05-01T12:48:07Z</time>
      </trkpt>
      <trkpt lat="45.81556" lon="3.50958">
        <ele>303</ele>
        <time>2024-05-01T12:48:08Z</time>
      </trkpt>
      <trkpt lat="45.81562" lon="3.50954">
        <ele>303</ele>
        <time>2024-05-01T12:48:09Z</time>
      </trkpt>
      <trkpt lat="45.81568" lon="3.50949">
        <ele>303</ele>
        <time>2024-05-01T12:48:10Z</time>
      </trkpt>
      <trkpt lat="45.81574" lon="3.50944">
        <ele>302.8</ele>
        <time>2024-05-01T12:48:11Z</time>
      </trkpt>
      <trkpt lat="45.81579" lon="3.50939">
        <ele>302.8</ele>
        <time>2024-05-01T12:48:12Z</time>
      </trkpt>
      <trkpt lat="45.81585" lon="3.50934">
        <ele>302.8</ele>
        <time>2024-05-01T12:48:13Z</time>
      </trkpt>
      <trkpt lat="45.81591" lon="3.50929">
        <ele>302.6</ele>
        <time>2024-05-01T12:48:14Z</time>
      </trkpt>
      <trkpt lat="45.81597" lon="3.50924">
        <ele>302.6</ele>
        <time>2024-05-01T12:48:15Z</time>
      </trkpt>
      <trkpt lat="45.81602" lon="3.5092">
        <ele>302.6</ele>
        <time>2024-05-01T12:48:16Z</time>
      </trkpt>
      <trkpt lat="45.81608" lon="3.50915">
        <ele>302.6</ele>
        <time>2024-05-01T12:48:17Z</time>
      </trkpt>
      <trkpt lat="45.81614" lon="3.5091">
        <ele>302.6</ele>
        <time>2024-05-01T12:48:18Z</time>
      </trkpt>
      <trkpt lat="45.81619" lon="3.50905">
        <ele>302.4</ele>
        <time>2024-05-01T12:48:19Z</time>
      </trkpt>
      <trkpt lat="45.81625" lon="3.50901">
        <ele>302.4</ele>
        <time>2024-05-01T12:48:20Z</time>
      </trkpt>
      <trkpt lat="45.8163" lon="3.50896">
        <ele>302.4</ele>
        <time>2024-05-01T12:48:21Z</time>
      </trkpt>
      <trkpt lat="45.81636" lon="3.50891">
        <ele>302.4</ele>
        <time>2024-05-01T12:48:22Z</time>
      </trkpt>
      <trkpt lat="45.81641" lon="3.50887">
        <ele>302.4</ele>
        <time>2024-05-01T12:48:23Z</time>
      </trkpt>
      <trkpt lat="45.81647" lon="3.50882">
        <ele>302.4</ele>
        <time>2024-05-01T12:48:24Z</time>
      </trkpt>
      <trkpt lat="45.81653" lon="3.50877">
        <ele>302.4</ele>
        <time>2024-05-01T12:48:25Z</time>
      </trkpt>
      <trkpt lat="45.81658" lon="3.50873">
        <ele>302.4</ele>
        <time>2024-05-01T12:48:26Z</time>
      </trkpt>
      <trkpt lat="45.81664" lon="3.50868">
        <ele>302.4</ele>
        <time>2024-05-01T12:48:27Z</time>
      </trkpt>
      <trkpt lat="45.81669" lon="3.50863">
        <ele>302.4</ele>
        <time>2024-05-01T12:48:28Z</time>
      </trkpt>
      <trkpt lat="45.81674" lon="3.50859">
        <ele>302.4</ele>
        <time>2024-05-01T12:48:29Z</time>
      </trkpt>
      <trkpt lat="45.8168" lon="3.50854">
        <ele>302.4</ele>
        <time>2024-05-01T12:48:30Z</time>
      </trkpt>
      <trkpt lat="45.81685" lon="3.50849">
        <ele>302.4</ele>
        <time>2024-05-01T12:48:31Z</time>
      </trkpt>
      <trkpt lat="45.8169" lon="3.50845">
        <ele>302.4</ele>
        <time>2024-05-01T12:48:32Z</time>
      </trkpt>
      <trkpt lat="45.81696" lon="3.5084">
        <ele>302.2</ele>
        <time>2024-05-01T12:48:33Z</time>
      </trkpt>
      <trkpt lat="45.81701" lon="3.50835">
        <ele>302.2</ele>
        <time>2024-05-01T12:48:34Z</time>
      </trkpt>
      <trkpt lat="45.81706" lon="3.50831">
        <ele>302.2</ele>
        <time>2024-05-01T12:48:35Z</time>
      </trkpt>
      <trkpt lat="45.81711" lon="3.50826">
        <ele>302.2</ele>
        <time>2024-05-01T12:48:36Z</time>
      </trkpt>
      <trkpt lat="45.81717" lon="3.50821">
        <ele>302</ele>
        <time>2024-05-01T12:48:37Z</time>
      </trkpt>
      <trkpt lat="45.81722" lon="3.50817">
        <ele>302</ele>
        <time>2024-05-01T12:48:38Z</time>
      </trkpt>
      <trkpt lat="45.81727" lon="3.50812">
        <ele>302</ele>
        <time>2024-05-01T12:48:39Z</time>
      </trkpt>
      <trkpt lat="45.81733" lon="3.50808">
        <ele>301.8</ele>
        <time>2024-05-01T12:48:40Z</time>
      </trkpt>
      <trkpt lat="45.81738" lon="3.50803">
        <ele>301.8</ele>
        <time>2024-05-01T12:48:41Z</time>
      </trkpt>
      <trkpt lat="45.81743" lon="3.50798">
        <ele>301.6</ele>
        <time>2024-05-01T12:48:42Z</time>
      </trkpt>
      <trkpt lat="45.81749" lon="3.50794">
        <ele>301.6</ele>
        <time>2024-05-01T12:48:43Z</time>
      </trkpt>
      <trkpt lat="45.81754" lon="3.50789">
        <ele>301.4</ele>
        <time>2024-05-01T12:48:44Z</time>
      </trkpt>
      <trkpt lat="45.81759" lon="3.50785">
        <ele>301.2</ele>
        <time>2024-05-01T12:48:45Z</time>
      </trkpt>
      <trkpt lat="45.81764" lon="3.5078">
        <ele>301.2</ele>
        <time>2024-05-01T12:48:46Z</time>
      </trkpt>
      <trkpt lat="45.8177" lon="3.50775">
        <ele>301</ele>
        <time>2024-05-01T12:48:47Z</time>
      </trkpt>
      <trkpt lat="45.81776" lon="3.50771">
        <ele>301</ele>
        <time>2024-05-01T12:48:48Z</time>
      </trkpt>
      <trkpt lat="45.81781" lon="3.50766">
        <ele>300.8</ele>
        <time>2024-05-01T12:48:49Z</time>
      </trkpt>
      <trkpt lat="45.81787" lon="3.50762">
        <ele>300.6</ele>
        <time>2024-05-01T12:48:50Z</time>
      </trkpt>
      <trkpt lat="45.81792" lon="3.50757">
        <ele>300.6</ele>
        <time>2024-05-01T12:48:51Z</time>
      </trkpt>
      <trkpt lat="45.81798" lon="3.50752">
        <ele>300.4</ele>
        <time>2024-05-01T12:48:52Z</time>
      </trkpt>
      <trkpt lat="45.81803" lon="3.50748">
        <ele>300.4</ele>
        <time>2024-05-01T12:48:53Z</time>
      </trkpt>
      <trkpt lat="45.81809" lon="3.50743">
        <ele>300.2</ele>
        <time>2024-05-01T12:48:54Z</time>
      </trkpt>
      <trkpt lat="45.81814" lon="3.50739">
        <ele>300.2</ele>
        <time>2024-05-01T12:48:55Z</time>
      </trkpt>
      <trkpt lat="45.8182" lon="3.50734">
        <ele>300.2</ele>
        <time>2024-05-01T12:48:56Z</time>
      </trkpt>
      <trkpt lat="45.81825" lon="3.5073">
        <ele>300</ele>
        <time>2024-05-01T12:48:57Z</time>
      </trkpt>
      <trkpt lat="45.81831" lon="3.50725">
        <ele>300</ele>
        <time>2024-05-01T12:48:58Z</time>
      </trkpt>
      <trkpt lat="45.81836" lon="3.50721">
        <ele>300</ele>
        <time>2024-05-01T12:48:59Z</time>
      </trkpt>
      <trkpt lat="45.81842" lon="3.50716">
        <ele>300</ele>
        <time>2024-05-01T12:49:00Z</time>
      </trkpt>
      <trkpt lat="45.81847" lon="3.50712">
        <ele>300</ele>
        <time>2024-05-01T12:49:01Z</time>
      </trkpt>
      <trkpt lat="45.81853" lon="3.50707">
        <ele>300</ele>
        <time>2024-05-01T12:49:02Z</time>
      </trkpt>
      <trkpt lat="45.81858" lon="3.50703">
        <ele>300</ele>
        <time>2024-05-01T12:49:03Z</time>
      </trkpt>
      <trkpt lat="45.81864" lon="3.50698">
        <ele>300</ele>
        <time>2024-05-01T12:49:04Z</time>
      </trkpt>
      <trkpt lat="45.81869" lon="3.50693">
        <ele>300</ele>
        <time>2024-05-01T12:49:05Z</time>
      </trkpt>
      <trkpt lat="45.81875" lon="3.50689">
        <ele>299.8</ele>
        <time>2024-05-01T12:49:06Z</time>
      </trkpt>
      <trkpt lat="45.81881" lon="3.50684">
        <ele>299.8</ele>
        <time>2024-05-01T12:49:07Z</time>
      </trkpt>
      <trkpt lat="45.81886" lon="3.5068">
        <ele>299.8</ele>
        <time>2024-05-01T12:49:08Z</time>
      </trkpt>
      <trkpt lat="45.81892" lon="3.50675">
        <ele>299.8</ele>
        <time>2024-05-01T12:49:09Z</time>
      </trkpt>
      <trkpt lat="45.81897" lon="3.5067">
        <ele>299.8</ele>
        <time>2024-05-01T12:49:10Z</time>
      </trkpt>
      <trkpt lat="45.81903" lon="3.50666">
        <ele>299.6</ele>
        <time>2024-05-01T12:49:11Z</time>
      </trkpt>
      <trkpt lat="45.81909" lon="3.50661">
        <ele>299.6</ele>
        <time>2024-05-01T12:49:12Z</time>
      </trkpt>
      <trkpt lat="45.81914" lon="3.50656">
        <ele>299.6</ele>
        <time>2024-05-01T12:49:13Z</time>
      </trkpt>
      <trkpt lat="45.8192" lon="3.50652">
        <ele>299.4</ele>
        <time>2024-05-01T12:49:14Z</time>
      </trkpt>
      <trkpt lat="45.81926" lon="3.50647">
        <ele>299.4</ele>
        <time>2024-05-01T12:49:15Z</time>
      </trkpt>
      <trkpt lat="45.81931" lon="3.50642">
        <ele>299.4</ele>
        <time>2024-05-01T12:49:16Z</time>
      </trkpt>
      <trkpt lat="45.81937" lon="3.50638">
        <ele>299.4</ele>
        <time>2024-05-01T12:49:17Z</time>
      </trkpt>
      <trkpt lat="45.81943" lon="3.50633">
        <ele>299.2</ele>
        <time>2024-05-01T12:49:18Z</time>
      </trkpt>
      <trkpt lat="45.81948" lon="3.50628">
        <ele>299.2</ele>
        <time>2024-05-01T12:49:19Z</time>
      </trkpt>
      <trkpt lat="45.81954" lon="3.50624">
        <ele>299</ele>
        <time>2024-05-01T12:49:20Z</time>
      </trkpt>
      <trkpt lat="45.8196" lon="3.50619">
        <ele>299</ele>
        <time>2024-05-01T12:49:21Z</time>
      </trkpt>
      <trkpt lat="45.81965" lon="3.50614">
        <ele>299</ele>
        <time>2024-05-01T12:49:22Z</time>
      </trkpt>
      <trkpt lat="45.81971" lon="3.5061">
        <ele>299</ele>
        <time>2024-05-01T12:49:23Z</time>
      </trkpt>
      <trkpt lat="45.81977" lon="3.50605">
        <ele>299</ele>
        <time>2024-05-01T12:49:24Z</time>
      </trkpt>
      <trkpt lat="45.81983" lon="3.506">
        <ele>299</ele>
        <time>2024-05-01T12:49:25Z</time>
      </trkpt>
      <trkpt lat="45.81988" lon="3.50595">
        <ele>299</ele>
        <time>2024-05-01T12:49:26Z</time>
      </trkpt>
      <trkpt lat="45.81994" lon="3.5059">
        <ele>299</ele>
        <time>2024-05-01T12:49:27Z</time>
      </trkpt>
      <trkpt lat="45.82" lon="3.50585">
        <ele>299</ele>
        <time>2024-05-01T12:49:28Z</time>
      </trkpt>
      <trkpt lat="45.82006" lon="3.5058">
        <ele>299</ele>
        <time>2024-05-01T12:49:29Z</time>
      </trkpt>
      <trkpt lat="45.82012" lon="3.50575">
        <ele>299.2</ele>
        <time>2024-05-01T12:49:30Z</time>
      </trkpt>
      <trkpt lat="45.82017" lon="3.5057">
        <ele>299.2</ele>
        <time>2024-05-01T12:49:31Z</time>
      </trkpt>
      <trkpt lat="45.82023" lon="3.50565">
        <ele>298.8</ele>
        <time>2024-05-01T12:49:32Z</time>
      </trkpt>
      <trkpt lat="45.82029" lon="3.5056">
        <ele>299.2</ele>
        <time>2024-05-01T12:49:33Z</time>
      </trkpt>
      <trkpt lat="45.82035" lon="3.50554">
        <ele>299.4</ele>
        <time>2024-05-01T12:49:34Z</time>
      </trkpt>
      <trkpt lat="45.82041" lon="3.50549">
        <ele>299.6</ele>
        <time>2024-05-01T12:49:35Z</time>
      </trkpt>
      <trkpt lat="45.82047" lon="3.50544">
        <ele>299.8</ele>
        <time>2024-05-01T12:49:36Z</time>
      </trkpt>
      <trkpt lat="45.82053" lon="3.50539">
        <ele>300</ele>
        <time>2024-05-01T12:49:37Z</time>
      </trkpt>
      <trkpt lat="45.82059" lon="3.50533">
        <ele>299.6</ele>
        <time>2024-05-01T12:49:38Z</time>
      </trkpt>
      <trkpt lat="45.82066" lon="3.50528">
        <ele>299.6</ele>
        <time>2024-05-01T12:49:39Z</time>
      </trkpt>
      <trkpt lat="45.82072" lon="3.50523">
        <ele>299.6</ele>
        <time>2024-05-01T12:49:40Z</time>
      </trkpt>
      <trkpt lat="45.82078" lon="3.50517">
        <ele>299.6</ele>
        <time>2024-05-01T12:49:41Z</time>
      </trkpt>
      <trkpt lat="45.82084" lon="3.50512">
        <ele>299.6</ele>
        <time>2024-05-01T12:49:42Z</time>
      </trkpt>
      <trkpt lat="45.8209" lon="3.50507">
        <ele>299.6</ele>
        <time>2024-05-01T12:49:43Z</time>
      </trkpt>
      <trkpt lat="45.82096" lon="3.50501">
        <ele>299.6</ele>
        <time>2024-05-01T12:49:44Z</time>
      </trkpt>
      <trkpt lat="45.82102" lon="3.50496">
        <ele>299.6</ele>
        <time>2024-05-01T12:49:45Z</time>
      </trkpt>
      <trkpt lat="45.82108" lon="3.5049">
        <ele>299.6</ele>
        <time>2024-05-01T12:49:46Z</time>
      </trkpt>
      <trkpt lat="45.82115" lon="3.50485">
        <ele>299.6</ele>
        <time>2024-05-01T12:49:47Z</time>
      </trkpt>
      <trkpt lat="45.8212" lon="3.5048">
        <ele>299.6</ele>
        <time>2024-05-01T12:49:48Z</time>
      </trkpt>
      <trkpt lat="45.82126" lon="3.50475">
        <ele>299.6</ele>
        <time>2024-05-01T12:49:49Z</time>
      </trkpt>
      <trkpt lat="45.82133" lon="3.50469">
        <ele>299.6</ele>
        <time>2024-05-01T12:49:50Z</time>
      </trkpt>
      <trkpt lat="45.82139" lon="3.50464">
        <ele>299.6</ele>
        <time>2024-05-01T12:49:51Z</time>
      </trkpt>
      <trkpt lat="45.82145" lon="3.50458">
        <ele>299.6</ele>
        <time>2024-05-01T12:49:52Z</time>
      </trkpt>
      <trkpt lat="45.82152" lon="3.50453">
        <ele>299.6</ele>
        <time>2024-05-01T12:49:53Z</time>
      </trkpt>
      <trkpt lat="45.82158" lon="3.50447">
        <ele>299.6</ele>
        <time>2024-05-01T12:49:54Z</time>
      </trkpt>
      <trkpt lat="45.82164" lon="3.50442">
        <ele>299.6</ele>
        <time>2024-05-01T12:49:55Z</time>
      </trkpt>
      <trkpt lat="45.8217" lon="3.50436">
        <ele>299.6</ele>
        <time>2024-05-01T12:49:56Z</time>
      </trkpt>
      <trkpt lat="45.82176" lon="3.50431">
        <ele>299.8</ele>
        <time>2024-05-01T12:49:57Z</time>
      </trkpt>
      <trkpt lat="45.82182" lon="3.50426">
        <ele>299.8</ele>
        <time>2024-05-01T12:49:58Z</time>
      </trkpt>
      <trkpt lat="45.82189" lon="3.50421">
        <ele>299.8</ele>
        <time>2024-05-01T12:49:59Z</time>
      </trkpt>
      <trkpt lat="45.82195" lon="3.50416">
        <ele>299.8</ele>
        <time>2024-05-01T12:50:00Z</time>
      </trkpt>
      <trkpt lat="45.82201" lon="3.50411">
        <ele>299.8</ele>
        <time>2024-05-01T12:50:01Z</time>
      </trkpt>
      <trkpt lat="45.82207" lon="3.50406">
        <ele>299.8</ele>
        <time>2024-05-01T12:50:02Z</time>
      </trkpt>
      <trkpt lat="45.82214" lon="3.50401">
        <ele>299.8</ele>
        <time>2024-05-01T12:50:03Z</time>
      </trkpt>
      <trkpt lat="45.8222" lon="3.50396">
        <ele>299.8</ele>
        <time>2024-05-01T12:50:04Z</time>
      </trkpt>
      <trkpt lat="45.82226" lon="3.50391">
        <ele>300</ele>
        <time>2024-05-01T12:50:05Z</time>
      </trkpt>
      <trkpt lat="45.82232" lon="3.50387">
        <ele>300</ele>
        <time>2024-05-01T12:50:06Z</time>
      </trkpt>
      <trkpt lat="45.82239" lon="3.50382">
        <ele>300</ele>
        <time>2024-05-01T12:50:07Z</time>
      </trkpt>
      <trkpt lat="45.82245" lon="3.50377">
        <ele>300</ele>
        <time>2024-05-01T12:50:08Z</time>
      </trkpt>
      <trkpt lat="45.82251" lon="3.50372">
        <ele>300</ele>
        <time>2024-05-01T12:50:09Z</time>
      </trkpt>
      <trkpt lat="45.82257" lon="3.50367">
        <ele>300</ele>
        <time>2024-05-01T12:50:10Z</time>
      </trkpt>
      <trkpt lat="45.82264" lon="3.50362">
        <ele>300</ele>
        <time>2024-05-01T12:50:11Z</time>
      </trkpt>
      <trkpt lat="45.8227" lon="3.50357">
        <ele>300</ele>
        <time>2024-05-01T12:50:12Z</time>
      </trkpt>
      <trkpt lat="45.82277" lon="3.50352">
        <ele>300</ele>
        <time>2024-05-01T12:50:13Z</time>
      </trkpt>
      <trkpt lat="45.82283" lon="3.50347">
        <ele>300</ele>
        <time>2024-05-01T12:50:14Z</time>
      </trkpt>
      <trkpt lat="45.82289" lon="3.50344">
        <ele>300</ele>
        <time>2024-05-01T12:50:15Z</time>
      </trkpt>
      <trkpt lat="45.82296" lon="3.5034">
        <ele>300.2</ele>
        <time>2024-05-01T12:50:16Z</time>
      </trkpt>
      <trkpt lat="45.82302" lon="3.50336">
        <ele>300.2</ele>
        <time>2024-05-01T12:50:17Z</time>
      </trkpt>
      <trkpt lat="45.82308" lon="3.50333">
        <ele>300.2</ele>
        <time>2024-05-01T12:50:18Z</time>
      </trkpt>
      <trkpt lat="45.82315" lon="3.50329">
        <ele>300.2</ele>
        <time>2024-05-01T12:50:19Z</time>
      </trkpt>
      <trkpt lat="45.8232" lon="3.50326">
        <ele>300.4</ele>
        <time>2024-05-01T12:50:20Z</time>
      </trkpt>
      <trkpt lat="45.82326" lon="3.50322">
        <ele>300.4</ele>
        <time>2024-05-01T12:50:21Z</time>
      </trkpt>
      <trkpt lat="45.82332" lon="3.50319">
        <ele>300.6</ele>
        <time>2024-05-01T12:50:22Z</time>
      </trkpt>
      <trkpt lat="45.82338" lon="3.50315">
        <ele>300.6</ele>
        <time>2024-05-01T12:50:23Z</time>
      </trkpt>
      <trkpt lat="45.82344" lon="3.50312">
        <ele>300.6</ele>
        <time>2024-05-01T12:50:24Z</time>
      </trkpt>
      <trkpt lat="45.8235" lon="3.50309">
        <ele>300.6</ele>
        <time>2024-05-01T12:50:25Z</time>
      </trkpt>
      <trkpt lat="45.82355" lon="3.50306">
        <ele>300.8</ele>
        <time>2024-05-01T12:50:26Z</time>
      </trkpt>
      <trkpt lat="45.8236" lon="3.50303">
        <ele>300.8</ele>
        <time>2024-05-01T12:50:27Z</time>
      </trkpt>
      <trkpt lat="45.82366" lon="3.503">
        <ele>300.8</ele>
        <time>2024-05-01T12:50:28Z</time>
      </trkpt>
      <trkpt lat="45.82371" lon="3.50297">
        <ele>300.8</ele>
        <time>2024-05-01T12:50:29Z</time>
      </trkpt>
      <trkpt lat="45.82377" lon="3.50293">
        <ele>301</ele>
        <time>2024-05-01T12:50:30Z</time>
      </trkpt>
      <trkpt lat="45.82382" lon="3.5029">
        <ele>301</ele>
        <time>2024-05-01T12:50:31Z</time>
      </trkpt>
      <trkpt lat="45.82388" lon="3.50287">
        <ele>301</ele>
        <time>2024-05-01T12:50:32Z</time>
      </trkpt>
      <trkpt lat="45.82393" lon="3.50284">
        <ele>301</ele>
        <time>2024-05-01T12:50:33Z</time>
      </trkpt>
      <trkpt lat="45.82399" lon="3.50281">
        <ele>301</ele>
        <time>2024-05-01T12:50:34Z</time>
      </trkpt>
      <trkpt lat="45.82404" lon="3.50278">
        <ele>301.2</ele>
        <time>2024-05-01T12:50:35Z</time>
      </trkpt>
      <trkpt lat="45.8241" lon="3.50274">
        <ele>301.2</ele>
        <time>2024-05-01T12:50:36Z</time>
      </trkpt>
      <trkpt lat="45.82416" lon="3.50271">
        <ele>301.2</ele>
        <time>2024-05-01T12:50:37Z</time>
      </trkpt>
      <trkpt lat="45.82422" lon="3.50268">
        <ele>301.2</ele>
        <time>2024-05-01T12:50:38Z</time>
      </trkpt>
      <trkpt lat="45.82428" lon="3.50264">
        <ele>301.2</ele>
        <time>2024-05-01T12:50:39Z</time>
      </trkpt>
      <trkpt lat="45.82434" lon="3.50262">
        <ele>301.2</ele>
        <time>2024-05-01T12:50:40Z</time>
      </trkpt>
      <trkpt lat="45.8244" lon="3.5026">
        <ele>301.2</ele>
        <time>2024-05-01T12:50:41Z</time>
      </trkpt>
      <trkpt lat="45.82446" lon="3.50258">
        <ele>301.2</ele>
        <time>2024-05-01T12:50:42Z</time>
      </trkpt>
      <trkpt lat="45.82452" lon="3.50256">
        <ele>301.2</ele>
        <time>2024-05-01T12:50:43Z</time>
      </trkpt>
      <trkpt lat="45.82458" lon="3.50253">
        <ele>301.2</ele>
        <time>2024-05-01T12:50:44Z</time>
      </trkpt>
      <trkpt lat="45.82464" lon="3.50251">
        <ele>301.2</ele>
        <time>2024-05-01T12:50:45Z</time>
      </trkpt>
      <trkpt lat="45.8247" lon="3.50249">
        <ele>301.2</ele>
        <time>2024-05-01T12:50:46Z</time>
      </trkpt>
      <trkpt lat="45.82476" lon="3.50247">
        <ele>301.2</ele>
        <time>2024-05-01T12:50:47Z</time>
      </trkpt>
      <trkpt lat="45.82482" lon="3.50245">
        <ele>301.2</ele>
        <time>2024-05-01T12:50:48Z</time>
      </trkpt>
      <trkpt lat="45.82488" lon="3.50243">
        <ele>301.4</ele>
        <time>2024-05-01T12:50:49Z</time>
      </trkpt>
      <trkpt lat="45.82495" lon="3.50241">
        <ele>301.4</ele>
        <time>2024-05-01T12:50:50Z</time>
      </trkpt>
      <trkpt lat="45.82501" lon="3.50239">
        <ele>301.4</ele>
        <time>2024-05-01T12:50:51Z</time>
      </trkpt>
      <trkpt lat="45.82507" lon="3.50237">
        <ele>301.4</ele>
        <time>2024-05-01T12:50:52Z</time>
      </trkpt>
      <trkpt lat="45.82513" lon="3.50235">
        <ele>301.6</ele>
        <time>2024-05-01T12:50:53Z</time>
      </trkpt>
      <trkpt lat="45.82519" lon="3.50233">
        <ele>301.6</ele>
        <time>2024-05-01T12:50:54Z</time>
      </trkpt>
      <trkpt lat="45.82525" lon="3.50232">
        <ele>301.6</ele>
        <time>2024-05-01T12:50:55Z</time>
      </trkpt>
      <trkpt lat="45.82532" lon="3.5023">
        <ele>301.8</ele>
        <time>2024-05-01T12:50:56Z</time>
      </trkpt>
      <trkpt lat="45.82538" lon="3.50229">
        <ele>301.8</ele>
        <time>2024-05-01T12:50:57Z</time>
      </trkpt>
      <trkpt lat="45.82544" lon="3.50228">
        <ele>301.8</ele>
        <time>2024-05-01T12:50:58Z</time>
      </trkpt>
      <trkpt lat="45.8255" lon="3.50227">
        <ele>302</ele>
        <time>2024-05-01T12:50:59Z</time>
      </trkpt>
      <trkpt lat="45.82556" lon="3.50226">
        <ele>302</ele>
        <time>2024-05-01T12:51:00Z</time>
      </trkpt>
      <trkpt lat="45.82562" lon="3.50226">
        <ele>302</ele>
        <time>2024-05-01T12:51:01Z</time>
      </trkpt>
      <trkpt lat="45.82568" lon="3.50225">
        <ele>302.2</ele>
        <time>2024-05-01T12:51:02Z</time>
      </trkpt>
      <trkpt lat="45.82575" lon="3.50224">
        <ele>302.2</ele>
        <time>2024-05-01T12:51:03Z</time>
      </trkpt>
      <trkpt lat="45.82581" lon="3.50223">
        <ele>302.2</ele>
        <time>2024-05-01T12:51:04Z</time>
      </trkpt>
      <trkpt lat="45.82587" lon="3.50222">
        <ele>302.2</ele>
        <time>2024-05-01T12:51:05Z</time>
      </trkpt>
      <trkpt lat="45.82593" lon="3.50221">
        <ele>302.2</ele>
        <time>2024-05-01T12:51:06Z</time>
      </trkpt>
      <trkpt lat="45.826" lon="3.5022">
        <ele>302.4</ele>
        <time>2024-05-01T12:51:07Z</time>
      </trkpt>
      <trkpt lat="45.82605" lon="3.5022">
        <ele>302.4</ele>
        <time>2024-05-01T12:51:08Z</time>
      </trkpt>
      <trkpt lat="45.82612" lon="3.50219">
        <ele>302.4</ele>
        <time>2024-05-01T12:51:09Z</time>
      </trkpt>
      <trkpt lat="45.82618" lon="3.50218">
        <ele>302.6</ele>
        <time>2024-05-01T12:51:10Z</time>
      </trkpt>
      <trkpt lat="45.82623" lon="3.50217">
        <ele>302.6</ele>
        <time>2024-05-01T12:51:11Z</time>
      </trkpt>
      <trkpt lat="45.8263" lon="3.50216">
        <ele>302.6</ele>
        <time>2024-05-01T12:51:12Z</time>
      </trkpt>
      <trkpt lat="45.82636" lon="3.50216">
        <ele>302.6</ele>
        <time>2024-05-01T12:51:13Z</time>
      </trkpt>
      <trkpt lat="45.82642" lon="3.50215">
        <ele>302.8</ele>
        <time>2024-05-01T12:51:14Z</time>
      </trkpt>
      <trkpt lat="45.82648" lon="3.50216">
        <ele>302.8</ele>
        <time>2024-05-01T12:51:15Z</time>
      </trkpt>
      <trkpt lat="45.82654" lon="3.50216">
        <ele>302.8</ele>
        <time>2024-05-01T12:51:16Z</time>
      </trkpt>
      <trkpt lat="45.82661" lon="3.50217">
        <ele>303</ele>
        <time>2024-05-01T12:51:17Z</time>
      </trkpt>
      <trkpt lat="45.82667" lon="3.50217">
        <ele>303</ele>
        <time>2024-05-01T12:51:18Z</time>
      </trkpt>
      <trkpt lat="45.82673" lon="3.50218">
        <ele>303</ele>
        <time>2024-05-01T12:51:19Z</time>
      </trkpt>
      <trkpt lat="45.82679" lon="3.50218">
        <ele>303.2</ele>
        <time>2024-05-01T12:51:20Z</time>
      </trkpt>
      <trkpt lat="45.82686" lon="3.50219">
        <ele>303.2</ele>
        <time>2024-05-01T12:51:21Z</time>
      </trkpt>
      <trkpt lat="45.82692" lon="3.5022">
        <ele>303.2</ele>
        <time>2024-05-01T12:51:22Z</time>
      </trkpt>
      <trkpt lat="45.82699" lon="3.5022">
        <ele>303.2</ele>
        <time>2024-05-01T12:51:23Z</time>
      </trkpt>
      <trkpt lat="45.82705" lon="3.50221">
        <ele>303.2</ele>
        <time>2024-05-01T12:51:24Z</time>
      </trkpt>
      <trkpt lat="45.82712" lon="3.50221">
        <ele>303.4</ele>
        <time>2024-05-01T12:51:25Z</time>
      </trkpt>
      <trkpt lat="45.82719" lon="3.50222">
        <ele>303.4</ele>
        <time>2024-05-01T12:51:26Z</time>
      </trkpt>
      <trkpt lat="45.82725" lon="3.50223">
        <ele>303.4</ele>
        <time>2024-05-01T12:51:27Z</time>
      </trkpt>
      <trkpt lat="45.82732" lon="3.50223">
        <ele>303.4</ele>
        <time>2024-05-01T12:51:28Z</time>
      </trkpt>
      <trkpt lat="45.82739" lon="3.50224">
        <ele>303.4</ele>
        <time>2024-05-01T12:51:29Z</time>
      </trkpt>
      <trkpt lat="45.82746" lon="3.50225">
        <ele>303.4</ele>
        <time>2024-05-01T12:51:30Z</time>
      </trkpt>
      <trkpt lat="45.82753" lon="3.50225">
        <ele>303.4</ele>
        <time>2024-05-01T12:51:31Z</time>
      </trkpt>
      <trkpt lat="45.8276" lon="3.50227">
        <ele>303.6</ele>
        <time>2024-05-01T12:51:32Z</time>
      </trkpt>
      <trkpt lat="45.82767" lon="3.50229">
        <ele>303.6</ele>
        <time>2024-05-01T12:51:33Z</time>
      </trkpt>
      <trkpt lat="45.82774" lon="3.50232">
        <ele>303.6</ele>
        <time>2024-05-01T12:51:34Z</time>
      </trkpt>
      <trkpt lat="45.82781" lon="3.50234">
        <ele>303.6</ele>
        <time>2024-05-01T12:51:35Z</time>
      </trkpt>
      <trkpt lat="45.82788" lon="3.50236">
        <ele>303.6</ele>
        <time>2024-05-01T12:51:36Z</time>
      </trkpt>
      <trkpt lat="45.82795" lon="3.50239">
        <ele>303.6</ele>
        <time>2024-05-01T12:51:37Z</time>
      </trkpt>
      <trkpt lat="45.82803" lon="3.50241">
        <ele>303.6</ele>
        <time>2024-05-01T12:51:38Z</time>
      </trkpt>
      <trkpt lat="45.82811" lon="3.50244">
        <ele>303.6</ele>
        <time>2024-05-01T12:51:39Z</time>
      </trkpt>
      <trkpt lat="45.82818" lon="3.50246">
        <ele>303.6</ele>
        <time>2024-05-01T12:51:40Z</time>
      </trkpt>
      <trkpt lat="45.82826" lon="3.50249">
        <ele>303.4</ele>
        <time>2024-05-01T12:51:41Z</time>
      </trkpt>
      <trkpt lat="45.82833" lon="3.50252">
        <ele>303.4</ele>
        <time>2024-05-01T12:51:42Z</time>
      </trkpt>
      <trkpt lat="45.82841" lon="3.50254">
        <ele>303.4</ele>
        <time>2024-05-01T12:51:43Z</time>
      </trkpt>
      <trkpt lat="45.82849" lon="3.50257">
        <ele>303.6</ele>
        <time>2024-05-01T12:51:44Z</time>
      </trkpt>
      <trkpt lat="45.82857" lon="3.50259">
        <ele>303</ele>
        <time>2024-05-01T12:51:45Z</time>
      </trkpt>
      <trkpt lat="45.82865" lon="3.50262">
        <ele>303</ele>
        <time>2024-05-01T12:51:46Z</time>
      </trkpt>
      <trkpt lat="45.82873" lon="3.50265">
        <ele>303</ele>
        <time>2024-05-01T12:51:47Z</time>
      </trkpt>
      <trkpt lat="45.82881" lon="3.50267">
        <ele>302.8</ele>
        <time>2024-05-01T12:51:48Z</time>
      </trkpt>
      <trkpt lat="45.82889" lon="3.5027">
        <ele>302.6</ele>
        <time>2024-05-01T12:51:49Z</time>
      </trkpt>
      <trkpt lat="45.82897" lon="3.50273">
        <ele>302.6</ele>
        <time>2024-05-01T12:51:50Z</time>
      </trkpt>
      <trkpt lat="45.82905" lon="3.50276">
        <ele>302.4</ele>
        <time>2024-05-01T12:51:51Z</time>
      </trkpt>
      <trkpt lat="45.82913" lon="3.50278">
        <ele>302.4</ele>
        <time>2024-05-01T12:51:52Z</time>
      </trkpt>
      <trkpt lat="45.82921" lon="3.50281">
        <ele>302.2</ele>
        <time>2024-05-01T12:51:53Z</time>
      </trkpt>
      <trkpt lat="45.82929" lon="3.50284">
        <ele>302.2</ele>
        <time>2024-05-01T12:51:54Z</time>
      </trkpt>
      <trkpt lat="45.82937" lon="3.50288">
        <ele>302</ele>
        <time>2024-05-01T12:51:55Z</time>
      </trkpt>
      <trkpt lat="45.82944" lon="3.50291">
        <ele>302</ele>
        <time>2024-05-01T12:51:56Z</time>
      </trkpt>
      <trkpt lat="45.82951" lon="3.50294">
        <ele>302</ele>
        <time>2024-05-01T12:51:57Z</time>
      </trkpt>
      <trkpt lat="45.82959" lon="3.50297">
        <ele>302</ele>
        <time>2024-05-01T12:51:58Z</time>
      </trkpt>
      <trkpt lat="45.82966" lon="3.503">
        <ele>302</ele>
        <time>2024-05-01T12:51:59Z</time>
      </trkpt>
      <trkpt lat="45.82973" lon="3.50303">
        <ele>301.8</ele>
        <time>2024-05-01T12:52:00Z</time>
      </trkpt>
      <trkpt lat="45.8298" lon="3.50306">
        <ele>301.8</ele>
        <time>2024-05-01T12:52:01Z</time>
      </trkpt>
      <trkpt lat="45.82987" lon="3.50309">
        <ele>301.8</ele>
        <time>2024-05-01T12:52:02Z</time>
      </trkpt>
      <trkpt lat="45.82994" lon="3.50312">
        <ele>301.6</ele>
        <time>2024-05-01T12:52:03Z</time>
      </trkpt>
      <trkpt lat="45.83001" lon="3.50315">
        <ele>301.6</ele>
        <time>2024-05-01T12:52:04Z</time>
      </trkpt>
      <trkpt lat="45.83008" lon="3.50318">
        <ele>301.6</ele>
        <time>2024-05-01T12:52:05Z</time>
      </trkpt>
      <trkpt lat="45.83015" lon="3.50321">
        <ele>301.6</ele>
        <time>2024-05-01T12:52:06Z</time>
      </trkpt>
      <trkpt lat="45.83022" lon="3.50324">
        <ele>301.4</ele>
        <time>2024-05-01T12:52:07Z</time>
      </trkpt>
      <trkpt lat="45.83029" lon="3.50327">
        <ele>301.4</ele>
        <time>2024-05-01T12:52:08Z</time>
      </trkpt>
      <trkpt lat="45.83036" lon="3.5033">
        <ele>301.4</ele>
        <time>2024-05-01T12:52:09Z</time>
      </trkpt>
      <trkpt lat="45.83043" lon="3.50334">
        <ele>301.4</ele>
        <time>2024-05-01T12:52:10Z</time>
      </trkpt>
      <trkpt lat="45.8305" lon="3.50337">
        <ele>301.2</ele>
        <time>2024-05-01T12:52:11Z</time>
      </trkpt>
      <trkpt lat="45.83057" lon="3.50341">
        <ele>301.2</ele>
        <time>2024-05-01T12:52:12Z</time>
      </trkpt>
      <trkpt lat="45.83064" lon="3.50344">
        <ele>301.2</ele>
        <time>2024-05-01T12:52:13Z</time>
      </trkpt>
      <trkpt lat="45.83071" lon="3.50348">
        <ele>301.2</ele>
        <time>2024-05-01T12:52:14Z</time>
      </trkpt>
      <trkpt lat="45.83077" lon="3.50351">
        <ele>301</ele>
        <time>2024-05-01T12:52:15Z</time>
      </trkpt>
      <trkpt lat="45.83084" lon="3.50355">
        <ele>300.8</ele>
        <time>2024-05-01T12:52:16Z</time>
      </trkpt>
      <trkpt lat="45.83091" lon="3.50358">
        <ele>300.8</ele>
        <time>2024-05-01T12:52:17Z</time>
      </trkpt>
      <trkpt lat="45.83098" lon="3.50361">
        <ele>300.8</ele>
        <time>2024-05-01T12:52:18Z</time>
      </trkpt>
      <trkpt lat="45.83105" lon="3.50365">
        <ele>300.6</ele>
        <time>2024-05-01T12:52:19Z</time>
      </trkpt>
      <trkpt lat="45.83112" lon="3.50368">
        <ele>300.6</ele>
        <time>2024-05-01T12:52:20Z</time>
      </trkpt>
      <trkpt lat="45.83118" lon="3.50372">
        <ele>300.6</ele>
        <time>2024-05-01T12:52:21Z</time>
      </trkpt>
      <trkpt lat="45.83125" lon="3.50375">
        <ele>300.6</ele>
        <time>2024-05-01T12:52:22Z</time>
      </trkpt>
      <trkpt lat="45.83132" lon="3.50378">
        <ele>300.4</ele>
        <time>2024-05-01T12:52:23Z</time>
      </trkpt>
      <trkpt lat="45.83139" lon="3.50382">
        <ele>300.4</ele>
        <time>2024-05-01T12:52:24Z</time>
      </trkpt>
      <trkpt lat="45.83145" lon="3.50385">
        <ele>300.2</ele>
        <time>2024-05-01T12:52:25Z</time>
      </trkpt>
      <trkpt lat="45.83151" lon="3.50388">
        <ele>300.2</ele>
        <time>2024-05-01T12:52:26Z</time>
      </trkpt>
      <trkpt lat="45.83157" lon="3.50391">
        <ele>300</ele>
        <time>2024-05-01T12:52:27Z</time>
      </trkpt>
      <trkpt lat="45.83163" lon="3.50394">
        <ele>300</ele>
        <time>2024-05-01T12:52:28Z</time>
      </trkpt>
      <trkpt lat="45.83169" lon="3.50397">
        <ele>300</ele>
        <time>2024-05-01T12:52:29Z</time>
      </trkpt>
      <trkpt lat="45.83176" lon="3.504">
        <ele>299.8</ele>
        <time>2024-05-01T12:52:30Z</time>
      </trkpt>
      <trkpt lat="45.83182" lon="3.50403">
        <ele>299.8</ele>
        <time>2024-05-01T12:52:31Z</time>
      </trkpt>
      <trkpt lat="45.83189" lon="3.50407">
        <ele>299.8</ele>
        <time>2024-05-01T12:52:32Z</time>
      </trkpt>
      <trkpt lat="45.83196" lon="3.50411">
        <ele>299.6</ele>
        <time>2024-05-01T12:52:33Z</time>
      </trkpt>
      <trkpt lat="45.83203" lon="3.50414">
        <ele>299.6</ele>
        <time>2024-05-01T12:52:34Z</time>
      </trkpt>
      <trkpt lat="45.8321" lon="3.50417">
        <ele>299.4</ele>
        <time>2024-05-01T12:52:35Z</time>
      </trkpt>
      <trkpt lat="45.83217" lon="3.50421">
        <ele>299.4</ele>
        <time>2024-05-01T12:52:36Z</time>
      </trkpt>
      <trkpt lat="45.83223" lon="3.50424">
        <ele>299.2</ele>
        <time>2024-05-01T12:52:37Z</time>
      </trkpt>
      <trkpt lat="45.8323" lon="3.50427">
        <ele>299.2</ele>
        <time>2024-05-01T12:52:38Z</time>
      </trkpt>
      <trkpt lat="45.83236" lon="3.5043">
        <ele>299</ele>
        <time>2024-05-01T12:52:39Z</time>
      </trkpt>
      <trkpt lat="45.83242" lon="3.50433">
        <ele>298.8</ele>
        <time>2024-05-01T12:52:40Z</time>
      </trkpt>
      <trkpt lat="45.83249" lon="3.50437">
        <ele>298.8</ele>
        <time>2024-05-01T12:52:41Z</time>
      </trkpt>
      <trkpt lat="45.83255" lon="3.50441">
        <ele>298.6</ele>
        <time>2024-05-01T12:52:42Z</time>
      </trkpt>
      <trkpt lat="45.83261" lon="3.50445">
        <ele>298.6</ele>
        <time>2024-05-01T12:52:43Z</time>
      </trkpt>
      <trkpt lat="45.83267" lon="3.50448">
        <ele>298.4</ele>
        <time>2024-05-01T12:52:44Z</time>
      </trkpt>
      <trkpt lat="45.83273" lon="3.50452">
        <ele>298.4</ele>
        <time>2024-05-01T12:52:45Z</time>
      </trkpt>
      <trkpt lat="45.8328" lon="3.50456">
        <ele>298.4</ele>
        <time>2024-05-01T12:52:46Z</time>
      </trkpt>
      <trkpt lat="45.83286" lon="3.5046">
        <ele>298.4</ele>
        <time>2024-05-01T12:52:47Z</time>
      </trkpt>
      <trkpt lat="45.83293" lon="3.50464">
        <ele>298.4</ele>
        <time>2024-05-01T12:52:48Z</time>
      </trkpt>
      <trkpt lat="45.833" lon="3.50468">
        <ele>298.4</ele>
        <time>2024-05-01T12:52:49Z</time>
      </trkpt>
      <trkpt lat="45.83307" lon="3.50472">
        <ele>298.4</ele>
        <time>2024-05-01T12:52:50Z</time>
      </trkpt>
      <trkpt lat="45.83313" lon="3.50476">
        <ele>298.2</ele>
        <time>2024-05-01T12:52:51Z</time>
      </trkpt>
      <trkpt lat="45.83319" lon="3.5048">
        <ele>298.2</ele>
        <time>2024-05-01T12:52:52Z</time>
      </trkpt>
      <trkpt lat="45.83325" lon="3.50484">
        <ele>298.2</ele>
        <time>2024-05-01T12:52:53Z</time>
      </trkpt>
      <trkpt lat="45.83332" lon="3.50488">
        <ele>298.2</ele>
        <time>2024-05-01T12:52:54Z</time>
      </trkpt>
      <trkpt lat="45.83338" lon="3.50491">
        <ele>298.2</ele>
        <time>2024-05-01T12:52:55Z</time>
      </trkpt>
      <trkpt lat="45.83344" lon="3.50494">
        <ele>298.2</ele>
        <time>2024-05-01T12:52:56Z</time>
      </trkpt>
      <trkpt lat="45.8335" lon="3.50498">
        <ele>298.2</ele>
        <time>2024-05-01T12:52:57Z</time>
      </trkpt>
      <trkpt lat="45.83357" lon="3.50501">
        <ele>298.2</ele>
        <time>2024-05-01T12:52:58Z</time>
      </trkpt>
      <trkpt lat="45.83363" lon="3.50505">
        <ele>298.2</ele>
        <time>2024-05-01T12:52:59Z</time>
      </trkpt>
      <trkpt lat="45.83369" lon="3.50509">
        <ele>298.2</ele>
        <time>2024-05-01T12:53:00Z</time>
      </trkpt>
      <trkpt lat="45.83376" lon="3.50512">
        <ele>298.2</ele>
        <time>2024-05-01T12:53:01Z</time>
      </trkpt>
      <trkpt lat="45.83382" lon="3.50516">
        <ele>298.2</ele>
        <time>2024-05-01T12:53:02Z</time>
      </trkpt>
      <trkpt lat="45.83388" lon="3.5052">
        <ele>298</ele>
        <time>2024-05-01T12:53:03Z</time>
      </trkpt>
      <trkpt lat="45.83394" lon="3.50524">
        <ele>298</ele>
        <time>2024-05-01T12:53:04Z</time>
      </trkpt>
      <trkpt lat="45.834" lon="3.50527">
        <ele>298</ele>
        <time>2024-05-01T12:53:05Z</time>
      </trkpt>
      <trkpt lat="45.83406" lon="3.50531">
        <ele>298</ele>
        <time>2024-05-01T12:53:06Z</time>
      </trkpt>
      <trkpt lat="45.83412" lon="3.50535">
        <ele>298</ele>
        <time>2024-05-01T12:53:07Z</time>
      </trkpt>
      <trkpt lat="45.83419" lon="3.50539">
        <ele>298</ele>
        <time>2024-05-01T12:53:08Z</time>
      </trkpt>
      <trkpt lat="45.83425" lon="3.50543">
        <ele>298</ele>
        <time>2024-05-01T12:53:09Z</time>
      </trkpt>
      <trkpt lat="45.83431" lon="3.50547">
        <ele>298</ele>
        <time>2024-05-01T12:53:10Z</time>
      </trkpt>
      <trkpt lat="45.83437" lon="3.50551">
        <ele>297.8</ele>
        <time>2024-05-01T12:53:11Z</time>
      </trkpt>
      <trkpt lat="45.83443" lon="3.50554">
        <ele>297.8</ele>
        <time>2024-05-01T12:53:12Z</time>
      </trkpt>
      <trkpt lat="45.83449" lon="3.50558">
        <ele>297.8</ele>
        <time>2024-05-01T12:53:13Z</time>
      </trkpt>
      <trkpt lat="45.83455" lon="3.50562">
        <ele>297.8</ele>
        <time>2024-05-01T12:53:14Z</time>
      </trkpt>
      <trkpt lat="45.83461" lon="3.50566">
        <ele>297.8</ele>
        <time>2024-05-01T12:53:15Z</time>
      </trkpt>
      <trkpt lat="45.83468" lon="3.5057">
        <ele>297.6</ele>
        <time>2024-05-01T12:53:16Z</time>
      </trkpt>
      <trkpt lat="45.83474" lon="3.50574">
        <ele>297.6</ele>
        <time>2024-05-01T12:53:17Z</time>
      </trkpt>
      <trkpt lat="45.83481" lon="3.50577">
        <ele>297.6</ele>
        <time>2024-05-01T12:53:18Z</time>
      </trkpt>
      <trkpt lat="45.83488" lon="3.5058">
        <ele>297.6</ele>
        <time>2024-05-01T12:53:19Z</time>
      </trkpt>
      <trkpt lat="45.83494" lon="3.50583">
        <ele>297.6</ele>
        <time>2024-05-01T12:53:20Z</time>
      </trkpt>
      <trkpt lat="45.83501" lon="3.50586">
        <ele>297.6</ele>
        <time>2024-05-01T12:53:21Z</time>
      </trkpt>
      <trkpt lat="45.83508" lon="3.50589">
        <ele>297.6</ele>
        <time>2024-05-01T12:53:22Z</time>
      </trkpt>
      <trkpt lat="45.83515" lon="3.50592">
        <ele>297.4</ele>
        <time>2024-05-01T12:53:23Z</time>
      </trkpt>
      <trkpt lat="45.83521" lon="3.50594">
        <ele>297.4</ele>
        <time>2024-05-01T12:53:24Z</time>
      </trkpt>
      <trkpt lat="45.83528" lon="3.50597">
        <ele>297.4</ele>
        <time>2024-05-01T12:53:25Z</time>
      </trkpt>
      <trkpt lat="45.83535" lon="3.506">
        <ele>297.4</ele>
        <time>2024-05-01T12:53:26Z</time>
      </trkpt>
      <trkpt lat="45.83542" lon="3.50603">
        <ele>297.4</ele>
        <time>2024-05-01T12:53:27Z</time>
      </trkpt>
      <trkpt lat="45.83549" lon="3.50606">
        <ele>297.4</ele>
        <time>2024-05-01T12:53:28Z</time>
      </trkpt>
      <trkpt lat="45.83555" lon="3.50609">
        <ele>297.4</ele>
        <time>2024-05-01T12:53:29Z</time>
      </trkpt>
      <trkpt lat="45.83562" lon="3.50611">
        <ele>297.4</ele>
        <time>2024-05-01T12:53:30Z</time>
      </trkpt>
      <trkpt lat="45.83569" lon="3.50613">
        <ele>297.4</ele>
        <time>2024-05-01T12:53:31Z</time>
      </trkpt>
      <trkpt lat="45.83576" lon="3.50615">
        <ele>297.4</ele>
        <time>2024-05-01T12:53:32Z</time>
      </trkpt>
      <trkpt lat="45.83583" lon="3.50617">
        <ele>297.4</ele>
        <time>2024-05-01T12:53:33Z</time>
      </trkpt>
      <trkpt lat="45.83589" lon="3.50619">
        <ele>297.4</ele>
        <time>2024-05-01T12:53:34Z</time>
      </trkpt>
      <trkpt lat="45.83596" lon="3.50621">
        <ele>297.4</ele>
        <time>2024-05-01T12:53:35Z</time>
      </trkpt>
      <trkpt lat="45.83602" lon="3.50623">
        <ele>297.4</ele>
        <time>2024-05-01T12:53:36Z</time>
      </trkpt>
      <trkpt lat="45.83609" lon="3.50625">
        <ele>297.4</ele>
        <time>2024-05-01T12:53:37Z</time>
      </trkpt>
      <trkpt lat="45.83615" lon="3.50627">
        <ele>297.4</ele>
        <time>2024-05-01T12:53:38Z</time>
      </trkpt>
      <trkpt lat="45.83622" lon="3.50629">
        <ele>297.4</ele>
        <time>2024-05-01T12:53:39Z</time>
      </trkpt>
      <trkpt lat="45.83629" lon="3.50631">
        <ele>297.4</ele>
        <time>2024-05-01T12:53:40Z</time>
      </trkpt>
      <trkpt lat="45.83635" lon="3.50632">
        <ele>297.2</ele>
        <time>2024-05-01T12:53:41Z</time>
      </trkpt>
      <trkpt lat="45.83642" lon="3.50634">
        <ele>297.2</ele>
        <time>2024-05-01T12:53:42Z</time>
      </trkpt>
      <trkpt lat="45.83649" lon="3.50635">
        <ele>297.2</ele>
        <time>2024-05-01T12:53:43Z</time>
      </trkpt>
      <trkpt lat="45.83655" lon="3.50636">
        <ele>297.4</ele>
        <time>2024-05-01T12:53:44Z</time>
      </trkpt>
      <trkpt lat="45.83662" lon="3.50638">
        <ele>297.2</ele>
        <time>2024-05-01T12:53:45Z</time>
      </trkpt>
      <trkpt lat="45.83667" lon="3.50639">
        <ele>297.6</ele>
        <time>2024-05-01T12:53:46Z</time>
      </trkpt>
      <trkpt lat="45.83674" lon="3.5064">
        <ele>297.6</ele>
        <time>2024-05-01T12:53:47Z</time>
      </trkpt>
      <trkpt lat="45.8368" lon="3.50641">
        <ele>297.6</ele>
        <time>2024-05-01T12:53:48Z</time>
      </trkpt>
      <trkpt lat="45.83686" lon="3.50643">
        <ele>297.6</ele>
        <time>2024-05-01T12:53:49Z</time>
      </trkpt>
      <trkpt lat="45.83693" lon="3.50644">
        <ele>297.6</ele>
        <time>2024-05-01T12:53:50Z</time>
      </trkpt>
      <trkpt lat="45.83699" lon="3.50645">
        <ele>297.8</ele>
        <time>2024-05-01T12:53:51Z</time>
      </trkpt>
      <trkpt lat="45.83706" lon="3.50645">
        <ele>297.8</ele>
        <time>2024-05-01T12:53:52Z</time>
      </trkpt>
      <trkpt lat="45.83713" lon="3.50646">
        <ele>298</ele>
        <time>2024-05-01T12:53:53Z</time>
      </trkpt>
      <trkpt lat="45.8372" lon="3.50646">
        <ele>298</ele>
        <time>2024-05-01T12:53:54Z</time>
      </trkpt>
      <trkpt lat="45.83726" lon="3.50647">
        <ele>298</ele>
        <time>2024-05-01T12:53:55Z</time>
      </trkpt>
      <trkpt lat="45.83733" lon="3.50647">
        <ele>298</ele>
        <time>2024-05-01T12:53:56Z</time>
      </trkpt>
      <trkpt lat="45.8374" lon="3.50648">
        <ele>298.2</ele>
        <time>2024-05-01T12:53:57Z</time>
      </trkpt>
      <trkpt lat="45.83747" lon="3.50648">
        <ele>298.2</ele>
        <time>2024-05-01T12:53:58Z</time>
      </trkpt>
      <trkpt lat="45.83754" lon="3.50649">
        <ele>298.2</ele>
        <time>2024-05-01T12:53:59Z</time>
      </trkpt>
      <trkpt lat="45.83761" lon="3.50649">
        <ele>298.2</ele>
        <time>2024-05-01T12:54:00Z</time>
      </trkpt>
      <trkpt lat="45.83767" lon="3.5065">
        <ele>298.2</ele>
        <time>2024-05-01T12:54:01Z</time>
      </trkpt>
      <trkpt lat="45.83774" lon="3.5065">
        <ele>298.2</ele>
        <time>2024-05-01T12:54:02Z</time>
      </trkpt>
      <trkpt lat="45.83781" lon="3.50651">
        <ele>298.2</ele>
        <time>2024-05-01T12:54:03Z</time>
      </trkpt>
      <trkpt lat="45.83788" lon="3.5065">
        <ele>298.2</ele>
        <time>2024-05-01T12:54:04Z</time>
      </trkpt>
      <trkpt lat="45.83795" lon="3.5065">
        <ele>298.2</ele>
        <time>2024-05-01T12:54:05Z</time>
      </trkpt>
      <trkpt lat="45.83801" lon="3.5065">
        <ele>298.2</ele>
        <time>2024-05-01T12:54:06Z</time>
      </trkpt>
      <trkpt lat="45.83808" lon="3.5065">
        <ele>298.2</ele>
        <time>2024-05-01T12:54:07Z</time>
      </trkpt>
      <trkpt lat="45.83815" lon="3.50649">
        <ele>298.2</ele>
        <time>2024-05-01T12:54:08Z</time>
      </trkpt>
      <trkpt lat="45.83821" lon="3.50649">
        <ele>298.2</ele>
        <time>2024-05-01T12:54:09Z</time>
      </trkpt>
      <trkpt lat="45.83828" lon="3.50649">
        <ele>298.2</ele>
        <time>2024-05-01T12:54:10Z</time>
      </trkpt>
      <trkpt lat="45.83834" lon="3.50649">
        <ele>298.2</ele>
        <time>2024-05-01T12:54:11Z</time>
      </trkpt>
      <trkpt lat="45.83841" lon="3.50649">
        <ele>298.2</ele>
        <time>2024-05-01T12:54:12Z</time>
      </trkpt>
      <trkpt lat="45.83848" lon="3.50648">
        <ele>298.2</ele>
        <time>2024-05-01T12:54:13Z</time>
      </trkpt>
      <trkpt lat="45.83854" lon="3.50647">
        <ele>298.2</ele>
        <time>2024-05-01T12:54:14Z</time>
      </trkpt>
      <trkpt lat="45.83861" lon="3.50646">
        <ele>298.2</ele>
        <time>2024-05-01T12:54:15Z</time>
      </trkpt>
      <trkpt lat="45.83867" lon="3.50644">
        <ele>298.2</ele>
        <time>2024-05-01T12:54:16Z</time>
      </trkpt>
      <trkpt lat="45.83873" lon="3.50643">
        <ele>298.2</ele>
        <time>2024-05-01T12:54:17Z</time>
      </trkpt>
      <trkpt lat="45.83879" lon="3.50642">
        <ele>298.2</ele>
        <time>2024-05-01T12:54:18Z</time>
      </trkpt>
      <trkpt lat="45.83885" lon="3.50641">
        <ele>298.2</ele>
        <time>2024-05-01T12:54:19Z</time>
      </trkpt>
      <trkpt lat="45.83891" lon="3.5064">
        <ele>298.4</ele>
        <time>2024-05-01T12:54:20Z</time>
      </trkpt>
      <trkpt lat="45.83897" lon="3.50638">
        <ele>298.4</ele>
        <time>2024-05-01T12:54:21Z</time>
      </trkpt>
      <trkpt lat="45.83904" lon="3.50637">
        <ele>298.4</ele>
        <time>2024-05-01T12:54:22Z</time>
      </trkpt>
      <trkpt lat="45.8391" lon="3.50636">
        <ele>298.4</ele>
        <time>2024-05-01T12:54:23Z</time>
      </trkpt>
      <trkpt lat="45.83917" lon="3.50635">
        <ele>298.4</ele>
        <time>2024-05-01T12:54:24Z</time>
      </trkpt>
      <trkpt lat="45.83924" lon="3.50634">
        <ele>298.4</ele>
        <time>2024-05-01T12:54:25Z</time>
      </trkpt>
      <trkpt lat="45.83931" lon="3.50634">
        <ele>298.2</ele>
        <time>2024-05-01T12:54:26Z</time>
      </trkpt>
      <trkpt lat="45.83937" lon="3.50635">
        <ele>298.2</ele>
        <time>2024-05-01T12:54:27Z</time>
      </trkpt>
      <trkpt lat="45.83943" lon="3.50636">
        <ele>298.2</ele>
        <time>2024-05-01T12:54:28Z</time>
      </trkpt>
      <trkpt lat="45.8395" lon="3.50637">
        <ele>298.2</ele>
        <time>2024-05-01T12:54:29Z</time>
      </trkpt>
      <trkpt lat="45.83956" lon="3.50638">
        <ele>298.2</ele>
        <time>2024-05-01T12:54:30Z</time>
      </trkpt>
      <trkpt lat="45.83963" lon="3.50639">
        <ele>298.2</ele>
        <time>2024-05-01T12:54:31Z</time>
      </trkpt>
      <trkpt lat="45.83969" lon="3.50639">
        <ele>298.2</ele>
        <time>2024-05-01T12:54:32Z</time>
      </trkpt>
      <trkpt lat="45.83976" lon="3.5064">
        <ele>298.2</ele>
        <time>2024-05-01T12:54:33Z</time>
      </trkpt>
      <trkpt lat="45.83982" lon="3.50641">
        <ele>298.2</ele>
        <time>2024-05-01T12:54:34Z</time>
      </trkpt>
      <trkpt lat="45.83988" lon="3.50641">
        <ele>298.2</ele>
        <time>2024-05-01T12:54:35Z</time>
      </trkpt>
      <trkpt lat="45.83995" lon="3.50642">
        <ele>298.2</ele>
        <time>2024-05-01T12:54:36Z</time>
      </trkpt>
      <trkpt lat="45.84001" lon="3.5064">
        <ele>298.2</ele>
        <time>2024-05-01T12:54:37Z</time>
      </trkpt>
      <trkpt lat="45.84006" lon="3.50638">
        <ele>298.2</ele>
        <time>2024-05-01T12:54:38Z</time>
      </trkpt>
      <trkpt lat="45.84009" lon="3.50637">
        <ele>298.2</ele>
        <time>2024-05-01T12:54:39Z</time>
      </trkpt>
      <trkpt lat="45.84012" lon="3.50636">
        <ele>298</ele>
        <time>2024-05-01T12:54:40Z</time>
      </trkpt>
      <trkpt lat="45.84018" lon="3.50641">
        <ele>298</ele>
        <time>2024-05-01T12:54:41Z</time>
      </trkpt>
      <trkpt lat="45.8402" lon="3.50645">
        <ele>298</ele>
        <time>2024-05-01T12:54:42Z</time>
      </trkpt>
      <trkpt lat="45.84024" lon="3.5065">
        <ele>298</ele>
        <time>2024-05-01T12:54:43Z</time>
      </trkpt>
      <trkpt lat="45.8403" lon="3.50653">
        <ele>298</ele>
        <time>2024-05-01T12:54:44Z</time>
      </trkpt>
      <trkpt lat="45.84035" lon="3.50656">
        <ele>298</ele>
        <time>2024-05-01T12:54:45Z</time>
      </trkpt>
      <trkpt lat="45.84041" lon="3.50656">
        <ele>298</ele>
        <time>2024-05-01T12:54:46Z</time>
      </trkpt>
      <trkpt lat="45.84047" lon="3.50655">
        <ele>298</ele>
        <time>2024-05-01T12:54:47Z</time>
      </trkpt>
      <trkpt lat="45.84052" lon="3.50651">
        <ele>298</ele>
        <time>2024-05-01T12:54:48Z</time>
      </trkpt>
      <trkpt lat="45.84057" lon="3.50645">
        <ele>298</ele>
        <time>2024-05-01T12:54:49Z</time>
      </trkpt>
      <trkpt lat="45.8406" lon="3.50639">
        <ele>298</ele>
        <time>2024-05-01T12:54:50Z</time>
      </trkpt>
      <trkpt lat="45.84064" lon="3.50631">
        <ele>297.8</ele>
        <time>2024-05-01T12:54:51Z</time>
      </trkpt>
      <trkpt lat="45.84072" lon="3.50627">
        <ele>297.8</ele>
        <time>2024-05-01T12:54:52Z</time>
      </trkpt>
      <trkpt lat="45.84079" lon="3.50626">
        <ele>297.8</ele>
        <time>2024-05-01T12:54:53Z</time>
      </trkpt>
      <trkpt lat="45.84086" lon="3.50623">
        <ele>297.6</ele>
        <time>2024-05-01T12:54:54Z</time>
      </trkpt>
      <trkpt lat="45.84092" lon="3.50621">
        <ele>297.6</ele>
        <time>2024-05-01T12:54:55Z</time>
      </trkpt>
      <trkpt lat="45.84099" lon="3.50618">
        <ele>297.4</ele>
        <time>2024-05-01T12:54:56Z</time>
      </trkpt>
      <trkpt lat="45.84105" lon="3.50615">
        <ele>297.4</ele>
        <time>2024-05-01T12:54:57Z</time>
      </trkpt>
      <trkpt lat="45.84112" lon="3.50613">
        <ele>297.4</ele>
        <time>2024-05-01T12:54:58Z</time>
      </trkpt>
      <trkpt lat="45.84119" lon="3.5061">
        <ele>297.4</ele>
        <time>2024-05-01T12:54:59Z</time>
      </trkpt>
      <trkpt lat="45.84126" lon="3.50607">
        <ele>297.4</ele>
        <time>2024-05-01T12:55:00Z</time>
      </trkpt>
      <trkpt lat="45.84132" lon="3.50605">
        <ele>297.4</ele>
        <time>2024-05-01T12:55:01Z</time>
      </trkpt>
      <trkpt lat="45.8414" lon="3.50603">
        <ele>297.4</ele>
        <time>2024-05-01T12:55:02Z</time>
      </trkpt>
      <trkpt lat="45.84147" lon="3.50601">
        <ele>297.4</ele>
        <time>2024-05-01T12:55:03Z</time>
      </trkpt>
      <trkpt lat="45.84154" lon="3.506">
        <ele>297.4</ele>
        <time>2024-05-01T12:55:04Z</time>
      </trkpt>
      <trkpt lat="45.84161" lon="3.50599">
        <ele>297.4</ele>
        <time>2024-05-01T12:55:05Z</time>
      </trkpt>
      <trkpt lat="45.84168" lon="3.50598">
        <ele>297.2</ele>
        <time>2024-05-01T12:55:06Z</time>
      </trkpt>
      <trkpt lat="45.84174" lon="3.50597">
        <ele>297.2</ele>
        <time>2024-05-01T12:55:07Z</time>
      </trkpt>
      <trkpt lat="45.84181" lon="3.50596">
        <ele>297.2</ele>
        <time>2024-05-01T12:55:08Z</time>
      </trkpt>
      <trkpt lat="45.84188" lon="3.50595">
        <ele>297.2</ele>
        <time>2024-05-01T12:55:09Z</time>
      </trkpt>
      <trkpt lat="45.84194" lon="3.50594">
        <ele>297.2</ele>
        <time>2024-05-01T12:55:10Z</time>
      </trkpt>
      <trkpt lat="45.84201" lon="3.50593">
        <ele>297.2</ele>
        <time>2024-05-01T12:55:11Z</time>
      </trkpt>
      <trkpt lat="45.84207" lon="3.50592">
        <ele>297.2</ele>
        <time>2024-05-01T12:55:12Z</time>
      </trkpt>
      <trkpt lat="45.84214" lon="3.50591">
        <ele>297</ele>
        <time>2024-05-01T12:55:13Z</time>
      </trkpt>
      <trkpt lat="45.8422" lon="3.5059">
        <ele>297</ele>
        <time>2024-05-01T12:55:14Z</time>
      </trkpt>
      <trkpt lat="45.84227" lon="3.50589">
        <ele>297</ele>
        <time>2024-05-01T12:55:15Z</time>
      </trkpt>
      <trkpt lat="45.84233" lon="3.50588">
        <ele>297</ele>
        <time>2024-05-01T12:55:16Z</time>
      </trkpt>
      <trkpt lat="45.84239" lon="3.50587">
        <ele>297</ele>
        <time>2024-05-01T12:55:17Z</time>
      </trkpt>
      <trkpt lat="45.84245" lon="3.50586">
        <ele>297</ele>
        <time>2024-05-01T12:55:18Z</time>
      </trkpt>
      <trkpt lat="45.84251" lon="3.50585">
        <ele>297</ele>
        <time>2024-05-01T12:55:19Z</time>
      </trkpt>
      <trkpt lat="45.84257" lon="3.50584">
        <ele>297</ele>
        <time>2024-05-01T12:55:20Z</time>
      </trkpt>
      <trkpt lat="45.84264" lon="3.50583">
        <ele>297</ele>
        <time>2024-05-01T12:55:21Z</time>
      </trkpt>
      <trkpt lat="45.8427" lon="3.50582">
        <ele>297</ele>
        <time>2024-05-01T12:55:22Z</time>
      </trkpt>
      <trkpt lat="45.84276" lon="3.50581">
        <ele>297</ele>
        <time>2024-05-01T12:55:23Z</time>
      </trkpt>
      <trkpt lat="45.84282" lon="3.5058">
        <ele>297</ele>
        <time>2024-05-01T12:55:24Z</time>
      </trkpt>
      <trkpt lat="45.84288" lon="3.50579">
        <ele>297</ele>
        <time>2024-05-01T12:55:25Z</time>
      </trkpt>
      <trkpt lat="45.84294" lon="3.50578">
        <ele>297</ele>
        <time>2024-05-01T12:55:26Z</time>
      </trkpt>
      <trkpt lat="45.843" lon="3.50577">
        <ele>297</ele>
        <time>2024-05-01T12:55:27Z</time>
      </trkpt>
      <trkpt lat="45.84306" lon="3.50576">
        <ele>296.8</ele>
        <time>2024-05-01T12:55:28Z</time>
      </trkpt>
      <trkpt lat="45.84312" lon="3.50575">
        <ele>296.8</ele>
        <time>2024-05-01T12:55:29Z</time>
      </trkpt>
      <trkpt lat="45.84318" lon="3.50574">
        <ele>296.8</ele>
        <time>2024-05-01T12:55:30Z</time>
      </trkpt>
      <trkpt lat="45.84324" lon="3.50573">
        <ele>296.8</ele>
        <time>2024-05-01T12:55:31Z</time>
      </trkpt>
      <trkpt lat="45.8433" lon="3.50572">
        <ele>297</ele>
        <time>2024-05-01T12:55:32Z</time>
      </trkpt>
      <trkpt lat="45.84336" lon="3.50571">
        <ele>297</ele>
        <time>2024-05-01T12:55:33Z</time>
      </trkpt>
      <trkpt lat="45.84343" lon="3.5057">
        <ele>297</ele>
        <time>2024-05-01T12:55:34Z</time>
      </trkpt>
      <trkpt lat="45.84349" lon="3.50569">
        <ele>296.8</ele>
        <time>2024-05-01T12:55:35Z</time>
      </trkpt>
      <trkpt lat="45.84355" lon="3.50568">
        <ele>296.8</ele>
        <time>2024-05-01T12:55:36Z</time>
      </trkpt>
      <trkpt lat="45.84361" lon="3.50567">
        <ele>296.8</ele>
        <time>2024-05-01T12:55:37Z</time>
      </trkpt>
      <trkpt lat="45.84367" lon="3.50566">
        <ele>296.8</ele>
        <time>2024-05-01T12:55:38Z</time>
      </trkpt>
      <trkpt lat="45.84372" lon="3.50566">
        <ele>296.8</ele>
        <time>2024-05-01T12:55:39Z</time>
      </trkpt>
      <trkpt lat="45.84378" lon="3.50565">
        <ele>297</ele>
        <time>2024-05-01T12:55:40Z</time>
      </trkpt>
      <trkpt lat="45.84384" lon="3.50564">
        <ele>296.8</ele>
        <time>2024-05-01T12:55:41Z</time>
      </trkpt>
      <trkpt lat="45.8439" lon="3.50563">
        <ele>296.8</ele>
        <time>2024-05-01T12:55:42Z</time>
      </trkpt>
      <trkpt lat="45.84396" lon="3.50562">
        <ele>296.8</ele>
        <time>2024-05-01T12:55:43Z</time>
      </trkpt>
      <trkpt lat="45.84402" lon="3.50561">
        <ele>296.8</ele>
        <time>2024-05-01T12:55:44Z</time>
      </trkpt>
      <trkpt lat="45.84407" lon="3.5056">
        <ele>297</ele>
        <time>2024-05-01T12:55:45Z</time>
      </trkpt>
      <trkpt lat="45.84413" lon="3.50559">
        <ele>296.8</ele>
        <time>2024-05-01T12:55:46Z</time>
      </trkpt>
      <trkpt lat="45.84419" lon="3.50558">
        <ele>296.8</ele>
        <time>2024-05-01T12:55:47Z</time>
      </trkpt>
      <trkpt lat="45.84425" lon="3.50557">
        <ele>297</ele>
        <time>2024-05-01T12:55:48Z</time>
      </trkpt>
      <trkpt lat="45.8443" lon="3.50556">
        <ele>296.8</ele>
        <time>2024-05-01T12:55:49Z</time>
      </trkpt>
      <trkpt lat="45.84436" lon="3.50555">
        <ele>297</ele>
        <time>2024-05-01T12:55:50Z</time>
      </trkpt>
      <trkpt lat="45.84441" lon="3.50555">
        <ele>297</ele>
        <time>2024-05-01T12:55:51Z</time>
      </trkpt>
      <trkpt lat="45.84447" lon="3.50554">
        <ele>297</ele>
        <time>2024-05-01T12:55:52Z</time>
      </trkpt>
      <trkpt lat="45.84453" lon="3.50553">
        <ele>297</ele>
        <time>2024-05-01T12:55:53Z</time>
      </trkpt>
      <trkpt lat="45.84458" lon="3.50552">
        <ele>297</ele>
        <time>2024-05-01T12:55:54Z</time>
      </trkpt>
      <trkpt lat="45.84464" lon="3.50551">
        <ele>297.2</ele>
        <time>2024-05-01T12:55:55Z</time>
      </trkpt>
      <trkpt lat="45.8447" lon="3.5055">
        <ele>297.2</ele>
        <time>2024-05-01T12:55:56Z</time>
      </trkpt>
      <trkpt lat="45.84475" lon="3.50549">
        <ele>297.2</ele>
        <time>2024-05-01T12:55:57Z</time>
      </trkpt>
      <trkpt lat="45.84481" lon="3.50548">
        <ele>297.2</ele>
        <time>2024-05-01T12:55:58Z</time>
      </trkpt>
      <trkpt lat="45.84487" lon="3.50547">
        <ele>297.2</ele>
        <time>2024-05-01T12:55:59Z</time>
      </trkpt>
      <trkpt lat="45.84492" lon="3.50546">
        <ele>297.2</ele>
        <time>2024-05-01T12:56:00Z</time>
      </trkpt>
      <trkpt lat="45.84498" lon="3.50546">
        <ele>297.2</ele>
        <time>2024-05-01T12:56:01Z</time>
      </trkpt>
      <trkpt lat="45.84504" lon="3.50545">
        <ele>297.2</ele>
        <time>2024-05-01T12:56:02Z</time>
      </trkpt>
      <trkpt lat="45.8451" lon="3.50544">
        <ele>297.2</ele>
        <time>2024-05-01T12:56:03Z</time>
      </trkpt>
      <trkpt lat="45.84516" lon="3.50543">
        <ele>297.2</ele>
        <time>2024-05-01T12:56:04Z</time>
      </trkpt>
      <trkpt lat="45.84521" lon="3.50542">
        <ele>297.2</ele>
        <time>2024-05-01T12:56:05Z</time>
      </trkpt>
      <trkpt lat="45.84527" lon="3.50541">
        <ele>297.2</ele>
        <time>2024-05-01T12:56:06Z</time>
      </trkpt>
      <trkpt lat="45.84533" lon="3.5054">
        <ele>297.2</ele>
        <time>2024-05-01T12:56:07Z</time>
      </trkpt>
      <trkpt lat="45.8454" lon="3.50539">
        <ele>297.2</ele>
        <time>2024-05-01T12:56:08Z</time>
      </trkpt>
      <trkpt lat="45.84546" lon="3.50539">
        <ele>297.2</ele>
        <time>2024-05-01T12:56:09Z</time>
      </trkpt>
      <trkpt lat="45.84552" lon="3.50539">
        <ele>297.2</ele>
        <time>2024-05-01T12:56:10Z</time>
      </trkpt>
      <trkpt lat="45.84558" lon="3.50539">
        <ele>297.2</ele>
        <time>2024-05-01T12:56:11Z</time>
      </trkpt>
      <trkpt lat="45.84564" lon="3.50539">
        <ele>297.2</ele>
        <time>2024-05-01T12:56:12Z</time>
      </trkpt>
      <trkpt lat="45.8457" lon="3.50539">
        <ele>297.2</ele>
        <time>2024-05-01T12:56:13Z</time>
      </trkpt>
      <trkpt lat="45.84576" lon="3.50539">
        <ele>297.2</ele>
        <time>2024-05-01T12:56:14Z</time>
      </trkpt>
      <trkpt lat="45.84582" lon="3.50539">
        <ele>297.2</ele>
        <time>2024-05-01T12:56:15Z</time>
      </trkpt>
      <trkpt lat="45.84588" lon="3.50539">
        <ele>297</ele>
        <time>2024-05-01T12:56:16Z</time>
      </trkpt>
      <trkpt lat="45.84594" lon="3.50539">
        <ele>296.8</ele>
        <time>2024-05-01T12:56:17Z</time>
      </trkpt>
      <trkpt lat="45.84601" lon="3.50539">
        <ele>297</ele>
        <time>2024-05-01T12:56:18Z</time>
      </trkpt>
      <trkpt lat="45.84607" lon="3.50539">
        <ele>297</ele>
        <time>2024-05-01T12:56:19Z</time>
      </trkpt>
      <trkpt lat="45.84614" lon="3.50539">
        <ele>297</ele>
        <time>2024-05-01T12:56:20Z</time>
      </trkpt>
      <trkpt lat="45.8462" lon="3.50539">
        <ele>296.8</ele>
        <time>2024-05-01T12:56:21Z</time>
      </trkpt>
      <trkpt lat="45.84627" lon="3.50539">
        <ele>296.8</ele>
        <time>2024-05-01T12:56:22Z</time>
      </trkpt>
      <trkpt lat="45.84634" lon="3.5054">
        <ele>296.8</ele>
        <time>2024-05-01T12:56:23Z</time>
      </trkpt>
      <trkpt lat="45.8464" lon="3.50541">
        <ele>296.8</ele>
        <time>2024-05-01T12:56:24Z</time>
      </trkpt>
      <trkpt lat="45.84646" lon="3.50543">
        <ele>296.8</ele>
        <time>2024-05-01T12:56:25Z</time>
      </trkpt>
      <trkpt lat="45.84653" lon="3.50545">
        <ele>296.8</ele>
        <time>2024-05-01T12:56:26Z</time>
      </trkpt>
      <trkpt lat="45.84659" lon="3.50546">
        <ele>296.8</ele>
        <time>2024-05-01T12:56:27Z</time>
      </trkpt>
      <trkpt lat="45.84671" lon="3.5055">
        <ele>296.8</ele>
        <time>2024-05-01T12:56:28Z</time>
      </trkpt>
      <trkpt lat="45.84671" lon="3.5055">
        <ele>296.8</ele>
        <time>2024-05-01T12:56:29Z</time>
      </trkpt>
      <trkpt lat="45.84678" lon="3.50551">
        <ele>296.6</ele>
        <time>2024-05-01T12:56:30Z</time>
      </trkpt>
      <trkpt lat="45.84684" lon="3.50553">
        <ele>296.6</ele>
        <time>2024-05-01T12:56:31Z</time>
      </trkpt>
      <trkpt lat="45.8469" lon="3.50555">
        <ele>296.6</ele>
        <time>2024-05-01T12:56:32Z</time>
      </trkpt>
      <trkpt lat="45.84697" lon="3.50557">
        <ele>296.6</ele>
        <time>2024-05-01T12:56:33Z</time>
      </trkpt>
      <trkpt lat="45.84709" lon="3.50562">
        <ele>296.4</ele>
        <time>2024-05-01T12:56:34Z</time>
      </trkpt>
      <trkpt lat="45.84715" lon="3.50565">
        <ele>296.4</ele>
        <time>2024-05-01T12:56:35Z</time>
      </trkpt>
      <trkpt lat="45.84715" lon="3.50565">
        <ele>296.4</ele>
        <time>2024-05-01T12:56:36Z</time>
      </trkpt>
      <trkpt lat="45.84721" lon="3.50568">
        <ele>296.4</ele>
        <time>2024-05-01T12:56:37Z</time>
      </trkpt>
      <trkpt lat="45.84727" lon="3.5057">
        <ele>296.2</ele>
        <time>2024-05-01T12:56:38Z</time>
      </trkpt>
      <trkpt lat="45.84739" lon="3.50576">
        <ele>296.2</ele>
        <time>2024-05-01T12:56:39Z</time>
      </trkpt>
      <trkpt lat="45.84739" lon="3.50576">
        <ele>296.2</ele>
        <time>2024-05-01T12:56:40Z</time>
      </trkpt>
      <trkpt lat="45.84745" lon="3.50578">
        <ele>296.2</ele>
        <time>2024-05-01T12:56:41Z</time>
      </trkpt>
      <trkpt lat="45.84751" lon="3.50581">
        <ele>296.2</ele>
        <time>2024-05-01T12:56:42Z</time>
      </trkpt>
      <trkpt lat="45.84757" lon="3.50584">
        <ele>296</ele>
        <time>2024-05-01T12:56:43Z</time>
      </trkpt>
      <trkpt lat="45.84763" lon="3.50587">
        <ele>296</ele>
        <time>2024-05-01T12:56:44Z</time>
      </trkpt>
      <trkpt lat="45.84769" lon="3.50591">
        <ele>296</ele>
        <time>2024-05-01T12:56:45Z</time>
      </trkpt>
      <trkpt lat="45.84775" lon="3.50594">
        <ele>296</ele>
        <time>2024-05-01T12:56:46Z</time>
      </trkpt>
      <trkpt lat="45.84781" lon="3.50598">
        <ele>295.8</ele>
        <time>2024-05-01T12:56:47Z</time>
      </trkpt>
      <trkpt lat="45.84787" lon="3.50602">
        <ele>295.8</ele>
        <time>2024-05-01T12:56:48Z</time>
      </trkpt>
      <trkpt lat="45.84793" lon="3.50605">
        <ele>295.8</ele>
        <time>2024-05-01T12:56:49Z</time>
      </trkpt>
      <trkpt lat="45.84799" lon="3.50609">
        <ele>295.8</ele>
        <time>2024-05-01T12:56:50Z</time>
      </trkpt>
      <trkpt lat="45.84805" lon="3.50613">
        <ele>295.8</ele>
        <time>2024-05-01T12:56:51Z</time>
      </trkpt>
      <trkpt lat="45.84811" lon="3.50617">
        <ele>295.6</ele>
        <time>2024-05-01T12:56:52Z</time>
      </trkpt>
      <trkpt lat="45.84817" lon="3.50622">
        <ele>295.6</ele>
        <time>2024-05-01T12:56:53Z</time>
      </trkpt>
      <trkpt lat="45.84823" lon="3.50627">
        <ele>295.6</ele>
        <time>2024-05-01T12:56:54Z</time>
      </trkpt>
      <trkpt lat="45.8483" lon="3.50632">
        <ele>295.6</ele>
        <time>2024-05-01T12:56:55Z</time>
      </trkpt>
      <trkpt lat="45.84836" lon="3.50636">
        <ele>295.6</ele>
        <time>2024-05-01T12:56:56Z</time>
      </trkpt>
      <trkpt lat="45.84842" lon="3.50642">
        <ele>295.6</ele>
        <time>2024-05-01T12:56:57Z</time>
      </trkpt>
      <trkpt lat="45.84849" lon="3.50646">
        <ele>295.6</ele>
        <time>2024-05-01T12:56:58Z</time>
      </trkpt>
      <trkpt lat="45.84855" lon="3.50651">
        <ele>295.6</ele>
        <time>2024-05-01T12:56:59Z</time>
      </trkpt>
      <trkpt lat="45.84861" lon="3.50656">
        <ele>295.6</ele>
        <time>2024-05-01T12:57:00Z</time>
      </trkpt>
      <trkpt lat="45.84867" lon="3.50661">
        <ele>295.4</ele>
        <time>2024-05-01T12:57:01Z</time>
      </trkpt>
      <trkpt lat="45.84873" lon="3.50666">
        <ele>295.4</ele>
        <time>2024-05-01T12:57:02Z</time>
      </trkpt>
      <trkpt lat="45.84879" lon="3.5067">
        <ele>295.4</ele>
        <time>2024-05-01T12:57:03Z</time>
      </trkpt>
      <trkpt lat="45.84886" lon="3.50675">
        <ele>295.4</ele>
        <time>2024-05-01T12:57:04Z</time>
      </trkpt>
      <trkpt lat="45.84892" lon="3.5068">
        <ele>295.4</ele>
        <time>2024-05-01T12:57:05Z</time>
      </trkpt>
      <trkpt lat="45.84898" lon="3.50685">
        <ele>295.2</ele>
        <time>2024-05-01T12:57:06Z</time>
      </trkpt>
      <trkpt lat="45.84904" lon="3.5069">
        <ele>295.2</ele>
        <time>2024-05-01T12:57:07Z</time>
      </trkpt>
      <trkpt lat="45.8491" lon="3.50694">
        <ele>295.2</ele>
        <time>2024-05-01T12:57:08Z</time>
      </trkpt>
      <trkpt lat="45.84916" lon="3.50699">
        <ele>295.2</ele>
        <time>2024-05-01T12:57:09Z</time>
      </trkpt>
      <trkpt lat="45.84922" lon="3.50703">
        <ele>295.2</ele>
        <time>2024-05-01T12:57:10Z</time>
      </trkpt>
      <trkpt lat="45.84927" lon="3.50708">
        <ele>295.2</ele>
        <time>2024-05-01T12:57:11Z</time>
      </trkpt>
      <trkpt lat="45.84933" lon="3.50712">
        <ele>295.2</ele>
        <time>2024-05-01T12:57:12Z</time>
      </trkpt>
      <trkpt lat="45.84939" lon="3.50717">
        <ele>295.2</ele>
        <time>2024-05-01T12:57:13Z</time>
      </trkpt>
      <trkpt lat="45.84945" lon="3.50721">
        <ele>295</ele>
        <time>2024-05-01T12:57:14Z</time>
      </trkpt>
      <trkpt lat="45.8495" lon="3.50726">
        <ele>295</ele>
        <time>2024-05-01T12:57:15Z</time>
      </trkpt>
      <trkpt lat="45.84956" lon="3.5073">
        <ele>295</ele>
        <time>2024-05-01T12:57:16Z</time>
      </trkpt>
      <trkpt lat="45.84962" lon="3.50735">
        <ele>294.8</ele>
        <time>2024-05-01T12:57:17Z</time>
      </trkpt>
      <trkpt lat="45.84967" lon="3.50739">
        <ele>294.8</ele>
        <time>2024-05-01T12:57:18Z</time>
      </trkpt>
      <trkpt lat="45.84973" lon="3.50743">
        <ele>294.8</ele>
        <time>2024-05-01T12:57:19Z</time>
      </trkpt>
      <trkpt lat="45.84978" lon="3.50748">
        <ele>294.8</ele>
        <time>2024-05-01T12:57:20Z</time>
      </trkpt>
      <trkpt lat="45.84984" lon="3.50752">
        <ele>294.8</ele>
        <time>2024-05-01T12:57:21Z</time>
      </trkpt>
      <trkpt lat="45.84989" lon="3.50756">
        <ele>294.8</ele>
        <time>2024-05-01T12:57:22Z</time>
      </trkpt>
      <trkpt lat="45.84994" lon="3.5076">
        <ele>294.8</ele>
        <time>2024-05-01T12:57:23Z</time>
      </trkpt>
      <trkpt lat="45.84999" lon="3.50764">
        <ele>294.8</ele>
        <time>2024-05-01T12:57:24Z</time>
      </trkpt>
      <trkpt lat="45.85004" lon="3.50768">
        <ele>294.8</ele>
        <time>2024-05-01T12:57:25Z</time>
      </trkpt>
      <trkpt lat="45.8501" lon="3.50772">
        <ele>294.8</ele>
        <time>2024-05-01T12:57:26Z</time>
      </trkpt>
      <trkpt lat="45.85015" lon="3.50776">
        <ele>295</ele>
        <time>2024-05-01T12:57:27Z</time>
      </trkpt>
      <trkpt lat="45.8502" lon="3.5078">
        <ele>295</ele>
        <time>2024-05-01T12:57:28Z</time>
      </trkpt>
      <trkpt lat="45.85025" lon="3.50784">
        <ele>295</ele>
        <time>2024-05-01T12:57:29Z</time>
      </trkpt>
      <trkpt lat="45.8503" lon="3.50788">
        <ele>294.8</ele>
        <time>2024-05-01T12:57:30Z</time>
      </trkpt>
      <trkpt lat="45.85035" lon="3.50792">
        <ele>294.8</ele>
        <time>2024-05-01T12:57:31Z</time>
      </trkpt>
      <trkpt lat="45.8504" lon="3.50796">
        <ele>295</ele>
        <time>2024-05-01T12:57:32Z</time>
      </trkpt>
      <trkpt lat="45.85044" lon="3.50799">
        <ele>295.2</ele>
        <time>2024-05-01T12:57:33Z</time>
      </trkpt>
      <trkpt lat="45.85048" lon="3.50802">
        <ele>295.2</ele>
        <time>2024-05-01T12:57:34Z</time>
      </trkpt>
      <trkpt lat="45.85052" lon="3.50805">
        <ele>295.2</ele>
        <time>2024-05-01T12:57:35Z</time>
      </trkpt>
      <trkpt lat="45.85056" lon="3.50808">
        <ele>295.2</ele>
        <time>2024-05-01T12:57:36Z</time>
      </trkpt>
      <trkpt lat="45.8506" lon="3.50812">
        <ele>295.2</ele>
        <time>2024-05-01T12:57:37Z</time>
      </trkpt>
      <trkpt lat="45.85064" lon="3.50815">
        <ele>295.4</ele>
        <time>2024-05-01T12:57:38Z</time>
      </trkpt>
      <trkpt lat="45.85068" lon="3.50818">
        <ele>295.4</ele>
        <time>2024-05-01T12:57:39Z</time>
      </trkpt>
      <trkpt lat="45.85072" lon="3.50821">
        <ele>295.4</ele>
        <time>2024-05-01T12:57:40Z</time>
      </trkpt>
      <trkpt lat="45.85077" lon="3.50825">
        <ele>295.6</ele>
        <time>2024-05-01T12:57:41Z</time>
      </trkpt>
      <trkpt lat="45.85081" lon="3.50828">
        <ele>295.6</ele>
        <time>2024-05-01T12:57:42Z</time>
      </trkpt>
      <trkpt lat="45.85085" lon="3.50831">
        <ele>295.6</ele>
        <time>2024-05-01T12:57:43Z</time>
      </trkpt>
      <trkpt lat="45.85089" lon="3.50834">
        <ele>295.8</ele>
        <time>2024-05-01T12:57:44Z</time>
      </trkpt>
      <trkpt lat="45.85093" lon="3.50837">
        <ele>295.8</ele>
        <time>2024-05-01T12:57:45Z</time>
      </trkpt>
      <trkpt lat="45.85097" lon="3.50841">
        <ele>295.8</ele>
        <time>2024-05-01T12:57:46Z</time>
      </trkpt>
      <trkpt lat="45.85101" lon="3.50844">
        <ele>296</ele>
        <time>2024-05-01T12:57:47Z</time>
      </trkpt>
      <trkpt lat="45.85106" lon="3.50847">
        <ele>296</ele>
        <time>2024-05-01T12:57:48Z</time>
      </trkpt>
      <trkpt lat="45.8511" lon="3.50851">
        <ele>296.2</ele>
        <time>2024-05-01T12:57:49Z</time>
      </trkpt>
      <trkpt lat="45.85114" lon="3.50854">
        <ele>296.2</ele>
        <time>2024-05-01T12:57:50Z</time>
      </trkpt>
      <trkpt lat="45.85118" lon="3.50857">
        <ele>296.4</ele>
        <time>2024-05-01T12:57:51Z</time>
      </trkpt>
      <trkpt lat="45.85123" lon="3.5086">
        <ele>296.6</ele>
        <time>2024-05-01T12:57:52Z</time>
      </trkpt>
      <trkpt lat="45.85127" lon="3.50862">
        <ele>296.6</ele>
        <time>2024-05-01T12:57:53Z</time>
      </trkpt>
      <trkpt lat="45.85131" lon="3.50864">
        <ele>296.8</ele>
        <time>2024-05-01T12:57:54Z</time>
      </trkpt>
      <trkpt lat="45.85135" lon="3.50866">
        <ele>296.8</ele>
        <time>2024-05-01T12:57:55Z</time>
      </trkpt>
      <trkpt lat="45.85139" lon="3.50868">
        <ele>297</ele>
        <time>2024-05-01T12:57:56Z</time>
      </trkpt>
      <trkpt lat="45.85143" lon="3.50871">
        <ele>297.2</ele>
        <time>2024-05-01T12:57:57Z</time>
      </trkpt>
      <trkpt lat="45.85147" lon="3.50873">
        <ele>297.2</ele>
        <time>2024-05-01T12:57:58Z</time>
      </trkpt>
      <trkpt lat="45.85152" lon="3.50875">
        <ele>297.2</ele>
        <time>2024-05-01T12:57:59Z</time>
      </trkpt>
      <trkpt lat="45.85156" lon="3.50878">
        <ele>297.4</ele>
        <time>2024-05-01T12:58:00Z</time>
      </trkpt>
      <trkpt lat="45.85161" lon="3.5088">
        <ele>297.4</ele>
        <time>2024-05-01T12:58:01Z</time>
      </trkpt>
      <trkpt lat="45.85165" lon="3.50882">
        <ele>297.6</ele>
        <time>2024-05-01T12:58:02Z</time>
      </trkpt>
      <trkpt lat="45.85169" lon="3.50883">
        <ele>297.6</ele>
        <time>2024-05-01T12:58:03Z</time>
      </trkpt>
      <trkpt lat="45.85174" lon="3.50885">
        <ele>297.6</ele>
        <time>2024-05-01T12:58:04Z</time>
      </trkpt>
      <trkpt lat="45.85178" lon="3.50887">
        <ele>297.8</ele>
        <time>2024-05-01T12:58:05Z</time>
      </trkpt>
      <trkpt lat="45.85183" lon="3.50889">
        <ele>297.8</ele>
        <time>2024-05-01T12:58:06Z</time>
      </trkpt>
      <trkpt lat="45.85187" lon="3.5089">
        <ele>298</ele>
        <time>2024-05-01T12:58:07Z</time>
      </trkpt>
      <trkpt lat="45.85192" lon="3.50892">
        <ele>298</ele>
        <time>2024-05-01T12:58:08Z</time>
      </trkpt>
      <trkpt lat="45.85196" lon="3.50894">
        <ele>298</ele>
        <time>2024-05-01T12:58:09Z</time>
      </trkpt>
      <trkpt lat="45.852" lon="3.50896">
        <ele>298.2</ele>
        <time>2024-05-01T12:58:10Z</time>
      </trkpt>
      <trkpt lat="45.85205" lon="3.50898">
        <ele>298</ele>
        <time>2024-05-01T12:58:11Z</time>
      </trkpt>
      <trkpt lat="45.8521" lon="3.509">
        <ele>298.2</ele>
        <time>2024-05-01T12:58:12Z</time>
      </trkpt>
      <trkpt lat="45.85214" lon="3.50901">
        <ele>298.2</ele>
        <time>2024-05-01T12:58:13Z</time>
      </trkpt>
      <trkpt lat="45.85219" lon="3.50903">
        <ele>298.2</ele>
        <time>2024-05-01T12:58:14Z</time>
      </trkpt>
      <trkpt lat="45.85224" lon="3.50905">
        <ele>298.2</ele>
        <time>2024-05-01T12:58:15Z</time>
      </trkpt>
      <trkpt lat="45.85228" lon="3.50907">
        <ele>298.4</ele>
        <time>2024-05-01T12:58:16Z</time>
      </trkpt>
      <trkpt lat="45.85233" lon="3.50909">
        <ele>298.4</ele>
        <time>2024-05-01T12:58:17Z</time>
      </trkpt>
      <trkpt lat="45.85237" lon="3.5091">
        <ele>298.6</ele>
        <time>2024-05-01T12:58:18Z</time>
      </trkpt>
      <trkpt lat="45.85243" lon="3.50912">
        <ele>298.6</ele>
        <time>2024-05-01T12:58:19Z</time>
      </trkpt>
      <trkpt lat="45.85248" lon="3.50913">
        <ele>298.8</ele>
        <time>2024-05-01T12:58:20Z</time>
      </trkpt>
      <trkpt lat="45.85253" lon="3.50914">
        <ele>298.8</ele>
        <time>2024-05-01T12:58:21Z</time>
      </trkpt>
      <trkpt lat="45.85257" lon="3.50915">
        <ele>298.8</ele>
        <time>2024-05-01T12:58:22Z</time>
      </trkpt>
      <trkpt lat="45.85263" lon="3.50916">
        <ele>298.8</ele>
        <time>2024-05-01T12:58:23Z</time>
      </trkpt>
      <trkpt lat="45.85268" lon="3.50918">
        <ele>299</ele>
        <time>2024-05-01T12:58:24Z</time>
      </trkpt>
      <trkpt lat="45.85273" lon="3.50919">
        <ele>299</ele>
        <time>2024-05-01T12:58:25Z</time>
      </trkpt>
      <trkpt lat="45.85278" lon="3.5092">
        <ele>299</ele>
        <time>2024-05-01T12:58:26Z</time>
      </trkpt>
      <trkpt lat="45.85282" lon="3.50921">
        <ele>299.2</ele>
        <time>2024-05-01T12:58:27Z</time>
      </trkpt>
      <trkpt lat="45.85288" lon="3.50921">
        <ele>299.2</ele>
        <time>2024-05-01T12:58:28Z</time>
      </trkpt>
      <trkpt lat="45.85293" lon="3.5092">
        <ele>299.2</ele>
        <time>2024-05-01T12:58:29Z</time>
      </trkpt>
      <trkpt lat="45.85299" lon="3.5092">
        <ele>299.2</ele>
        <time>2024-05-01T12:58:30Z</time>
      </trkpt>
      <trkpt lat="45.85304" lon="3.5092">
        <ele>299.4</ele>
        <time>2024-05-01T12:58:31Z</time>
      </trkpt>
      <trkpt lat="45.85309" lon="3.50919">
        <ele>299.4</ele>
        <time>2024-05-01T12:58:32Z</time>
      </trkpt>
      <trkpt lat="45.85315" lon="3.50919">
        <ele>299.4</ele>
        <time>2024-05-01T12:58:33Z</time>
      </trkpt>
      <trkpt lat="45.8532" lon="3.50919">
        <ele>299.4</ele>
        <time>2024-05-01T12:58:34Z</time>
      </trkpt>
      <trkpt lat="45.85326" lon="3.50918">
        <ele>299.6</ele>
        <time>2024-05-01T12:58:35Z</time>
      </trkpt>
      <trkpt lat="45.85331" lon="3.50918">
        <ele>299.6</ele>
        <time>2024-05-01T12:58:36Z</time>
      </trkpt>
      <trkpt lat="45.85337" lon="3.50918">
        <ele>299.6</ele>
        <time>2024-05-01T12:58:37Z</time>
      </trkpt>
      <trkpt lat="45.85342" lon="3.50917">
        <ele>299.6</ele>
        <time>2024-05-01T12:58:38Z</time>
      </trkpt>
      <trkpt lat="45.85348" lon="3.50917">
        <ele>299.6</ele>
        <time>2024-05-01T12:58:39Z</time>
      </trkpt>
      <trkpt lat="45.85354" lon="3.50917">
        <ele>299.6</ele>
        <time>2024-05-01T12:58:40Z</time>
      </trkpt>
      <trkpt lat="45.85359" lon="3.50916">
        <ele>299.8</ele>
        <time>2024-05-01T12:58:41Z</time>
      </trkpt>
      <trkpt lat="45.85365" lon="3.50914">
        <ele>299.8</ele>
        <time>2024-05-01T12:58:42Z</time>
      </trkpt>
      <trkpt lat="45.8537" lon="3.50913">
        <ele>299.8</ele>
        <time>2024-05-01T12:58:43Z</time>
      </trkpt>
      <trkpt lat="45.85376" lon="3.50911">
        <ele>299.8</ele>
        <time>2024-05-01T12:58:44Z</time>
      </trkpt>
      <trkpt lat="45.85382" lon="3.5091">
        <ele>300</ele>
        <time>2024-05-01T12:58:45Z</time>
      </trkpt>
      <trkpt lat="45.85388" lon="3.50908">
        <ele>300</ele>
        <time>2024-05-01T12:58:46Z</time>
      </trkpt>
      <trkpt lat="45.85394" lon="3.50906">
        <ele>300</ele>
        <time>2024-05-01T12:58:47Z</time>
      </trkpt>
      <trkpt lat="45.85399" lon="3.50905">
        <ele>300</ele>
        <time>2024-05-01T12:58:48Z</time>
      </trkpt>
      <trkpt lat="45.85405" lon="3.50903">
        <ele>300.2</ele>
        <time>2024-05-01T12:58:49Z</time>
      </trkpt>
      <trkpt lat="45.85411" lon="3.50902">
        <ele>300.2</ele>
        <time>2024-05-01T12:58:50Z</time>
      </trkpt>
      <trkpt lat="45.85416" lon="3.509">
        <ele>300.2</ele>
        <time>2024-05-01T12:58:51Z</time>
      </trkpt>
      <trkpt lat="45.85422" lon="3.50898">
        <ele>300.2</ele>
        <time>2024-05-01T12:58:52Z</time>
      </trkpt>
      <trkpt lat="45.85428" lon="3.50897">
        <ele>300.2</ele>
        <time>2024-05-01T12:58:53Z</time>
      </trkpt>
      <trkpt lat="45.85433" lon="3.50895">
        <ele>300.2</ele>
        <time>2024-05-01T12:58:54Z</time>
      </trkpt>
      <trkpt lat="45.85438" lon="3.50893">
        <ele>300.2</ele>
        <time>2024-05-01T12:58:55Z</time>
      </trkpt>
      <trkpt lat="45.85444" lon="3.5089">
        <ele>300.4</ele>
        <time>2024-05-01T12:58:56Z</time>
      </trkpt>
      <trkpt lat="45.85449" lon="3.50887">
        <ele>300.4</ele>
        <time>2024-05-01T12:58:57Z</time>
      </trkpt>
      <trkpt lat="45.85454" lon="3.50884">
        <ele>300.4</ele>
        <time>2024-05-01T12:58:58Z</time>
      </trkpt>
      <trkpt lat="45.8546" lon="3.5088">
        <ele>300.4</ele>
        <time>2024-05-01T12:58:59Z</time>
      </trkpt>
      <trkpt lat="45.85465" lon="3.50877">
        <ele>300.4</ele>
        <time>2024-05-01T12:59:00Z</time>
      </trkpt>
      <trkpt lat="45.8547" lon="3.50874">
        <ele>300.6</ele>
        <time>2024-05-01T12:59:01Z</time>
      </trkpt>
      <trkpt lat="45.85476" lon="3.50871">
        <ele>300.6</ele>
        <time>2024-05-01T12:59:02Z</time>
      </trkpt>
      <trkpt lat="45.85481" lon="3.50868">
        <ele>300.6</ele>
        <time>2024-05-01T12:59:03Z</time>
      </trkpt>
      <trkpt lat="45.85486" lon="3.50865">
        <ele>300.8</ele>
        <time>2024-05-01T12:59:04Z</time>
      </trkpt>
      <trkpt lat="45.85492" lon="3.50862">
        <ele>301</ele>
        <time>2024-05-01T12:59:05Z</time>
      </trkpt>
      <trkpt lat="45.85497" lon="3.50859">
        <ele>301</ele>
        <time>2024-05-01T12:59:06Z</time>
      </trkpt>
      <trkpt lat="45.85503" lon="3.50856">
        <ele>301.2</ele>
        <time>2024-05-01T12:59:07Z</time>
      </trkpt>
      <trkpt lat="45.85508" lon="3.50853">
        <ele>301.4</ele>
        <time>2024-05-01T12:59:08Z</time>
      </trkpt>
      <trkpt lat="45.85513" lon="3.5085">
        <ele>301.4</ele>
        <time>2024-05-01T12:59:09Z</time>
      </trkpt>
      <trkpt lat="45.85519" lon="3.50847">
        <ele>301.6</ele>
        <time>2024-05-01T12:59:10Z</time>
      </trkpt>
      <trkpt lat="45.85524" lon="3.50844">
        <ele>301.6</ele>
        <time>2024-05-01T12:59:11Z</time>
      </trkpt>
      <trkpt lat="45.8553" lon="3.5084">
        <ele>302</ele>
        <time>2024-05-01T12:59:12Z</time>
      </trkpt>
      <trkpt lat="45.85537" lon="3.50837">
        <ele>302.2</ele>
        <time>2024-05-01T12:59:13Z</time>
      </trkpt>
      <trkpt lat="45.85543" lon="3.50833">
        <ele>302.2</ele>
        <time>2024-05-01T12:59:14Z</time>
      </trkpt>
      <trkpt lat="45.85548" lon="3.5083">
        <ele>302.4</ele>
        <time>2024-05-01T12:59:15Z</time>
      </trkpt>
      <trkpt lat="45.85553" lon="3.50827">
        <ele>302.4</ele>
        <time>2024-05-01T12:59:16Z</time>
      </trkpt>
      <trkpt lat="45.85558" lon="3.50824">
        <ele>302.4</ele>
        <time>2024-05-01T12:59:17Z</time>
      </trkpt>
      <trkpt lat="45.85563" lon="3.50822">
        <ele>302.4</ele>
        <time>2024-05-01T12:59:18Z</time>
      </trkpt>
      <trkpt lat="45.85568" lon="3.50819">
        <ele>302.4</ele>
        <time>2024-05-01T12:59:19Z</time>
      </trkpt>
      <trkpt lat="45.85572" lon="3.50816">
        <ele>302.4</ele>
        <time>2024-05-01T12:59:20Z</time>
      </trkpt>
      <trkpt lat="45.85578" lon="3.50818">
        <ele>302.4</ele>
        <time>2024-05-01T12:59:21Z</time>
      </trkpt>
      <trkpt lat="45.85583" lon="3.5082">
        <ele>302.4</ele>
        <time>2024-05-01T12:59:22Z</time>
      </trkpt>
      <trkpt lat="45.85588" lon="3.50822">
        <ele>302.6</ele>
        <time>2024-05-01T12:59:23Z</time>
      </trkpt>
      <trkpt lat="45.85593" lon="3.50824">
        <ele>302.6</ele>
        <time>2024-05-01T12:59:24Z</time>
      </trkpt>
      <trkpt lat="45.85598" lon="3.50828">
        <ele>302.6</ele>
        <time>2024-05-01T12:59:25Z</time>
      </trkpt>
      <trkpt lat="45.85603" lon="3.50831">
        <ele>302.6</ele>
        <time>2024-05-01T12:59:26Z</time>
      </trkpt>
      <trkpt lat="45.85609" lon="3.50831">
        <ele>302.8</ele>
        <time>2024-05-01T12:59:27Z</time>
      </trkpt>
      <trkpt lat="45.85615" lon="3.50831">
        <ele>302.8</ele>
        <time>2024-05-01T12:59:28Z</time>
      </trkpt>
      <trkpt lat="45.8562" lon="3.50831">
        <ele>302.8</ele>
        <time>2024-05-01T12:59:29Z</time>
      </trkpt>
      <trkpt lat="45.85624" lon="3.50827">
        <ele>302.8</ele>
        <time>2024-05-01T12:59:30Z</time>
      </trkpt>
      <trkpt lat="45.85629" lon="3.50823">
        <ele>303</ele>
        <time>2024-05-01T12:59:31Z</time>
      </trkpt>
      <trkpt lat="45.85633" lon="3.50818">
        <ele>303</ele>
        <time>2024-05-01T12:59:32Z</time>
      </trkpt>
      <trkpt lat="45.85636" lon="3.50814">
        <ele>303</ele>
        <time>2024-05-01T12:59:33Z</time>
      </trkpt>
      <trkpt lat="45.85637" lon="3.50806">
        <ele>303</ele>
        <time>2024-05-01T12:59:34Z</time>
      </trkpt>
      <trkpt lat="45.85638" lon="3.50798">
        <ele>303.2</ele>
        <time>2024-05-01T12:59:35Z</time>
      </trkpt>
      <trkpt lat="45.85645" lon="3.50786">
        <ele>303.2</ele>
        <time>2024-05-01T12:59:36Z</time>
      </trkpt>
      <trkpt lat="45.8565" lon="3.50783">
        <ele>303.4</ele>
        <time>2024-05-01T12:59:37Z</time>
      </trkpt>
      <trkpt lat="45.85656" lon="3.50779">
        <ele>303.6</ele>
        <time>2024-05-01T12:59:38Z</time>
      </trkpt>
      <trkpt lat="45.85662" lon="3.50775">
        <ele>303.6</ele>
        <time>2024-05-01T12:59:39Z</time>
      </trkpt>
      <trkpt lat="45.85668" lon="3.50771">
        <ele>303.8</ele>
        <time>2024-05-01T12:59:40Z</time>
      </trkpt>
      <trkpt lat="45.85674" lon="3.50767">
        <ele>303.8</ele>
        <time>2024-05-01T12:59:41Z</time>
      </trkpt>
      <trkpt lat="45.8568" lon="3.50763">
        <ele>303.8</ele>
        <time>2024-05-01T12:59:42Z</time>
      </trkpt>
      <trkpt lat="45.85686" lon="3.50758">
        <ele>304</ele>
        <time>2024-05-01T12:59:43Z</time>
      </trkpt>
      <trkpt lat="45.85692" lon="3.50754">
        <ele>304</ele>
        <time>2024-05-01T12:59:44Z</time>
      </trkpt>
      <trkpt lat="45.85698" lon="3.5075">
        <ele>304.2</ele>
        <time>2024-05-01T12:59:45Z</time>
      </trkpt>
      <trkpt lat="45.85704" lon="3.50746">
        <ele>304.2</ele>
        <time>2024-05-01T12:59:46Z</time>
      </trkpt>
      <trkpt lat="45.8571" lon="3.50742">
        <ele>304.2</ele>
        <time>2024-05-01T12:59:47Z</time>
      </trkpt>
      <trkpt lat="45.85717" lon="3.50737">
        <ele>304.2</ele>
        <time>2024-05-01T12:59:48Z</time>
      </trkpt>
      <trkpt lat="45.85723" lon="3.50733">
        <ele>304.4</ele>
        <time>2024-05-01T12:59:49Z</time>
      </trkpt>
      <trkpt lat="45.85729" lon="3.50729">
        <ele>304.4</ele>
        <time>2024-05-01T12:59:50Z</time>
      </trkpt>
      <trkpt lat="45.85735" lon="3.50725">
        <ele>304.4</ele>
        <time>2024-05-01T12:59:51Z</time>
      </trkpt>
      <trkpt lat="45.85741" lon="3.50721">
        <ele>304.4</ele>
        <time>2024-05-01T12:59:52Z</time>
      </trkpt>
      <trkpt lat="45.85747" lon="3.50717">
        <ele>304.4</ele>
        <time>2024-05-01T12:59:53Z</time>
      </trkpt>
      <trkpt lat="45.85753" lon="3.50713">
        <ele>304.4</ele>
        <time>2024-05-01T12:59:54Z</time>
      </trkpt>
      <trkpt lat="45.85759" lon="3.50709">
        <ele>304.4</ele>
        <time>2024-05-01T12:59:55Z</time>
      </trkpt>
      <trkpt lat="45.85765" lon="3.50704">
        <ele>304.6</ele>
        <time>2024-05-01T12:59:56Z</time>
      </trkpt>
      <trkpt lat="45.85771" lon="3.507">
        <ele>304.6</ele>
        <time>2024-05-01T12:59:57Z</time>
      </trkpt>
      <trkpt lat="45.85776" lon="3.50696">
        <ele>304.6</ele>
        <time>2024-05-01T12:59:58Z</time>
      </trkpt>
      <trkpt lat="45.85782" lon="3.50692">
        <ele>304.6</ele>
        <time>2024-05-01T12:59:59Z</time>
      </trkpt>
      <trkpt lat="45.85788" lon="3.50688">
        <ele>304.6</ele>
        <time>2024-05-01T13:00:00Z</time>
      </trkpt>
      <trkpt lat="45.85794" lon="3.50684">
        <ele>304.6</ele>
        <time>2024-05-01T13:00:01Z</time>
      </trkpt>
      <trkpt lat="45.858" lon="3.5068">
        <ele>304.8</ele>
        <time>2024-05-01T13:00:02Z</time>
      </trkpt>
      <trkpt lat="45.85806" lon="3.50676">
        <ele>304.8</ele>
        <time>2024-05-01T13:00:03Z</time>
      </trkpt>
      <trkpt lat="45.85812" lon="3.50672">
        <ele>304.8</ele>
        <time>2024-05-01T13:00:04Z</time>
      </trkpt>
      <trkpt lat="45.85818" lon="3.50668">
        <ele>304.8</ele>
        <time>2024-05-01T13:00:05Z</time>
      </trkpt>
      <trkpt lat="45.85824" lon="3.50664">
        <ele>305</ele>
        <time>2024-05-01T13:00:06Z</time>
      </trkpt>
      <trkpt lat="45.8583" lon="3.5066">
        <ele>305</ele>
        <time>2024-05-01T13:00:07Z</time>
      </trkpt>
      <trkpt lat="45.85836" lon="3.50656">
        <ele>305</ele>
        <time>2024-05-01T13:00:08Z</time>
      </trkpt>
      <trkpt lat="45.85842" lon="3.50652">
        <ele>305</ele>
        <time>2024-05-01T13:00:09Z</time>
      </trkpt>
      <trkpt lat="45.85848" lon="3.50648">
        <ele>305.2</ele>
        <time>2024-05-01T13:00:10Z</time>
      </trkpt>
      <trkpt lat="45.85854" lon="3.50643">
        <ele>305.2</ele>
        <time>2024-05-01T13:00:11Z</time>
      </trkpt>
      <trkpt lat="45.8586" lon="3.50639">
        <ele>305.2</ele>
        <time>2024-05-01T13:00:12Z</time>
      </trkpt>
      <trkpt lat="45.85865" lon="3.50635">
        <ele>305.4</ele>
        <time>2024-05-01T13:00:13Z</time>
      </trkpt>
      <trkpt lat="45.85871" lon="3.50631">
        <ele>305.4</ele>
        <time>2024-05-01T13:00:14Z</time>
      </trkpt>
      <trkpt lat="45.85877" lon="3.50627">
        <ele>305.4</ele>
        <time>2024-05-01T13:00:15Z</time>
      </trkpt>
      <trkpt lat="45.85883" lon="3.50623">
        <ele>305.4</ele>
        <time>2024-05-01T13:00:16Z</time>
      </trkpt>
      <trkpt lat="45.85889" lon="3.50619">
        <ele>305.4</ele>
        <time>2024-05-01T13:00:17Z</time>
      </trkpt>
      <trkpt lat="45.85895" lon="3.50615">
        <ele>305.4</ele>
        <time>2024-05-01T13:00:18Z</time>
      </trkpt>
      <trkpt lat="45.859" lon="3.50611">
        <ele>305.4</ele>
        <time>2024-05-01T13:00:19Z</time>
      </trkpt>
      <trkpt lat="45.85906" lon="3.50608">
        <ele>305.4</ele>
        <time>2024-05-01T13:00:20Z</time>
      </trkpt>
      <trkpt lat="45.85911" lon="3.50604">
        <ele>305.4</ele>
        <time>2024-05-01T13:00:21Z</time>
      </trkpt>
      <trkpt lat="45.85916" lon="3.50599">
        <ele>305.4</ele>
        <time>2024-05-01T13:00:22Z</time>
      </trkpt>
      <trkpt lat="45.85921" lon="3.50593">
        <ele>305.4</ele>
        <time>2024-05-01T13:00:23Z</time>
      </trkpt>
      <trkpt lat="45.85926" lon="3.50587">
        <ele>305.4</ele>
        <time>2024-05-01T13:00:24Z</time>
      </trkpt>
      <trkpt lat="45.85931" lon="3.50581">
        <ele>305.2</ele>
        <time>2024-05-01T13:00:25Z</time>
      </trkpt>
      <trkpt lat="45.85937" lon="3.50575">
        <ele>305.2</ele>
        <time>2024-05-01T13:00:26Z</time>
      </trkpt>
      <trkpt lat="45.85944" lon="3.50575">
        <ele>305.2</ele>
        <time>2024-05-01T13:00:27Z</time>
      </trkpt>
      <trkpt lat="45.8595" lon="3.50574">
        <ele>305.2</ele>
        <time>2024-05-01T13:00:28Z</time>
      </trkpt>
      <trkpt lat="45.85957" lon="3.50574">
        <ele>305.2</ele>
        <time>2024-05-01T13:00:29Z</time>
      </trkpt>
      <trkpt lat="45.85964" lon="3.50574">
        <ele>304.8</ele>
        <time>2024-05-01T13:00:30Z</time>
      </trkpt>
      <trkpt lat="45.8597" lon="3.50575">
        <ele>304.8</ele>
        <time>2024-05-01T13:00:31Z</time>
      </trkpt>
      <trkpt lat="45.85977" lon="3.50574">
        <ele>304.8</ele>
        <time>2024-05-01T13:00:32Z</time>
      </trkpt>
      <trkpt lat="45.85982" lon="3.50569">
        <ele>304.8</ele>
        <time>2024-05-01T13:00:33Z</time>
      </trkpt>
      <trkpt lat="45.85987" lon="3.50562">
        <ele>305</ele>
        <time>2024-05-01T13:00:34Z</time>
      </trkpt>
      <trkpt lat="45.85989" lon="3.50554">
        <ele>305.2</ele>
        <time>2024-05-01T13:00:35Z</time>
      </trkpt>
      <trkpt lat="45.85994" lon="3.50544">
        <ele>305.2</ele>
        <time>2024-05-01T13:00:36Z</time>
      </trkpt>
      <trkpt lat="45.86" lon="3.5054">
        <ele>305.2</ele>
        <time>2024-05-01T13:00:37Z</time>
      </trkpt>
      <trkpt lat="45.86005" lon="3.50536">
        <ele>305.2</ele>
        <time>2024-05-01T13:00:38Z</time>
      </trkpt>
      <trkpt lat="45.86011" lon="3.50531">
        <ele>305.2</ele>
        <time>2024-05-01T13:00:39Z</time>
      </trkpt>
      <trkpt lat="45.86017" lon="3.50527">
        <ele>305.4</ele>
        <time>2024-05-01T13:00:40Z</time>
      </trkpt>
      <trkpt lat="45.86023" lon="3.50523">
        <ele>305.4</ele>
        <time>2024-05-01T13:00:41Z</time>
      </trkpt>
      <trkpt lat="45.86028" lon="3.50519">
        <ele>305.4</ele>
        <time>2024-05-01T13:00:42Z</time>
      </trkpt>
      <trkpt lat="45.86034" lon="3.50515">
        <ele>305.4</ele>
        <time>2024-05-01T13:00:43Z</time>
      </trkpt>
      <trkpt lat="45.86039" lon="3.50511">
        <ele>305.4</ele>
        <time>2024-05-01T13:00:44Z</time>
      </trkpt>
      <trkpt lat="45.86045" lon="3.50507">
        <ele>305.4</ele>
        <time>2024-05-01T13:00:45Z</time>
      </trkpt>
      <trkpt lat="45.8605" lon="3.50503">
        <ele>305.4</ele>
        <time>2024-05-01T13:00:46Z</time>
      </trkpt>
      <trkpt lat="45.86056" lon="3.50499">
        <ele>305.4</ele>
        <time>2024-05-01T13:00:47Z</time>
      </trkpt>
      <trkpt lat="45.86062" lon="3.50495">
        <ele>305.4</ele>
        <time>2024-05-01T13:00:48Z</time>
      </trkpt>
      <trkpt lat="45.86067" lon="3.50491">
        <ele>305.4</ele>
        <time>2024-05-01T13:00:49Z</time>
      </trkpt>
      <trkpt lat="45.86072" lon="3.50487">
        <ele>305.4</ele>
        <time>2024-05-01T13:00:50Z</time>
      </trkpt>
      <trkpt lat="45.86078" lon="3.50484">
        <ele>305.4</ele>
        <time>2024-05-01T13:00:51Z</time>
      </trkpt>
      <trkpt lat="45.86083" lon="3.5048">
        <ele>305.4</ele>
        <time>2024-05-01T13:00:52Z</time>
      </trkpt>
      <trkpt lat="45.86089" lon="3.50476">
        <ele>305.6</ele>
        <time>2024-05-01T13:00:53Z</time>
      </trkpt>
      <trkpt lat="45.86094" lon="3.50472">
        <ele>305.6</ele>
        <time>2024-05-01T13:00:54Z</time>
      </trkpt>
      <trkpt lat="45.861" lon="3.50468">
        <ele>305.6</ele>
        <time>2024-05-01T13:00:55Z</time>
      </trkpt>
      <trkpt lat="45.86105" lon="3.50464">
        <ele>305.6</ele>
        <time>2024-05-01T13:00:56Z</time>
      </trkpt>
      <trkpt lat="45.86111" lon="3.50463">
        <ele>305.6</ele>
        <time>2024-05-01T13:00:57Z</time>
      </trkpt>
      <trkpt lat="45.86117" lon="3.50462">
        <ele>305.6</ele>
        <time>2024-05-01T13:00:58Z</time>
      </trkpt>
      <trkpt lat="45.86123" lon="3.5046">
        <ele>305.6</ele>
        <time>2024-05-01T13:00:59Z</time>
      </trkpt>
      <trkpt lat="45.86129" lon="3.5046">
        <ele>305.6</ele>
        <time>2024-05-01T13:01:00Z</time>
      </trkpt>
      <trkpt lat="45.86134" lon="3.5046">
        <ele>305.8</ele>
        <time>2024-05-01T13:01:01Z</time>
      </trkpt>
      <trkpt lat="45.8614" lon="3.5046">
        <ele>305.8</ele>
        <time>2024-05-01T13:01:02Z</time>
      </trkpt>
      <trkpt lat="45.86145" lon="3.5046">
        <ele>305.8</ele>
        <time>2024-05-01T13:01:03Z</time>
      </trkpt>
      <trkpt lat="45.86151" lon="3.5046">
        <ele>305.8</ele>
        <time>2024-05-01T13:01:04Z</time>
      </trkpt>
      <trkpt lat="45.86156" lon="3.5046">
        <ele>305.8</ele>
        <time>2024-05-01T13:01:05Z</time>
      </trkpt>
      <trkpt lat="45.86162" lon="3.50461">
        <ele>305.8</ele>
        <time>2024-05-01T13:01:06Z</time>
      </trkpt>
      <trkpt lat="45.86168" lon="3.50461">
        <ele>305.8</ele>
        <time>2024-05-01T13:01:07Z</time>
      </trkpt>
      <trkpt lat="45.86174" lon="3.50461">
        <ele>305.8</ele>
        <time>2024-05-01T13:01:08Z</time>
      </trkpt>
      <trkpt lat="45.86187" lon="3.50462">
        <ele>306</ele>
        <time>2024-05-01T13:01:09Z</time>
      </trkpt>
      <trkpt lat="45.86187" lon="3.50462">
        <ele>306</ele>
        <time>2024-05-01T13:01:10Z</time>
      </trkpt>
      <trkpt lat="45.86194" lon="3.50463">
        <ele>305.8</ele>
        <time>2024-05-01T13:01:11Z</time>
      </trkpt>
      <trkpt lat="45.86199" lon="3.50463">
        <ele>305.8</ele>
        <time>2024-05-01T13:01:12Z</time>
      </trkpt>
      <trkpt lat="45.86204" lon="3.50464">
        <ele>306</ele>
        <time>2024-05-01T13:01:13Z</time>
      </trkpt>
      <trkpt lat="45.8621" lon="3.50465">
        <ele>306</ele>
        <time>2024-05-01T13:01:14Z</time>
      </trkpt>
      <trkpt lat="45.86215" lon="3.50465">
        <ele>306</ele>
        <time>2024-05-01T13:01:15Z</time>
      </trkpt>
      <trkpt lat="45.86221" lon="3.50466">
        <ele>306</ele>
        <time>2024-05-01T13:01:16Z</time>
      </trkpt>
      <trkpt lat="45.86226" lon="3.50466">
        <ele>306</ele>
        <time>2024-05-01T13:01:17Z</time>
      </trkpt>
      <trkpt lat="45.86232" lon="3.50467">
        <ele>306</ele>
        <time>2024-05-01T13:01:18Z</time>
      </trkpt>
      <trkpt lat="45.86238" lon="3.50468">
        <ele>306</ele>
        <time>2024-05-01T13:01:19Z</time>
      </trkpt>
      <trkpt lat="45.86244" lon="3.50468">
        <ele>306</ele>
        <time>2024-05-01T13:01:20Z</time>
      </trkpt>
      <trkpt lat="45.86249" lon="3.50469">
        <ele>306</ele>
        <time>2024-05-01T13:01:21Z</time>
      </trkpt>
      <trkpt lat="45.86256" lon="3.5047">
        <ele>306.2</ele>
        <time>2024-05-01T13:01:22Z</time>
      </trkpt>
      <trkpt lat="45.86261" lon="3.5047">
        <ele>306.2</ele>
        <time>2024-05-01T13:01:23Z</time>
      </trkpt>
      <trkpt lat="45.86267" lon="3.50471">
        <ele>306.2</ele>
        <time>2024-05-01T13:01:24Z</time>
      </trkpt>
      <trkpt lat="45.86273" lon="3.50472">
        <ele>306.2</ele>
        <time>2024-05-01T13:01:25Z</time>
      </trkpt>
      <trkpt lat="45.86279" lon="3.50472">
        <ele>306.2</ele>
        <time>2024-05-01T13:01:26Z</time>
      </trkpt>
      <trkpt lat="45.86284" lon="3.50473">
        <ele>306.2</ele>
        <time>2024-05-01T13:01:27Z</time>
      </trkpt>
      <trkpt lat="45.8629" lon="3.50474">
        <ele>306</ele>
        <time>2024-05-01T13:01:28Z</time>
      </trkpt>
      <trkpt lat="45.86296" lon="3.50474">
        <ele>306.2</ele>
        <time>2024-05-01T13:01:29Z</time>
      </trkpt>
      <trkpt lat="45.86301" lon="3.50475">
        <ele>306.2</ele>
        <time>2024-05-01T13:01:30Z</time>
      </trkpt>
      <trkpt lat="45.86307" lon="3.50476">
        <ele>306.2</ele>
        <time>2024-05-01T13:01:31Z</time>
      </trkpt>
      <trkpt lat="45.86313" lon="3.50476">
        <ele>306.2</ele>
        <time>2024-05-01T13:01:32Z</time>
      </trkpt>
      <trkpt lat="45.86318" lon="3.50477">
        <ele>306.2</ele>
        <time>2024-05-01T13:01:33Z</time>
      </trkpt>
      <trkpt lat="45.86324" lon="3.50478">
        <ele>306.2</ele>
        <time>2024-05-01T13:01:34Z</time>
      </trkpt>
      <trkpt lat="45.8633" lon="3.50478">
        <ele>306.2</ele>
        <time>2024-05-01T13:01:35Z</time>
      </trkpt>
      <trkpt lat="45.86336" lon="3.50479">
        <ele>306.2</ele>
        <time>2024-05-01T13:01:36Z</time>
      </trkpt>
      <trkpt lat="45.86342" lon="3.5048">
        <ele>306.2</ele>
        <time>2024-05-01T13:01:37Z</time>
      </trkpt>
      <trkpt lat="45.86347" lon="3.5048">
        <ele>306.2</ele>
        <time>2024-05-01T13:01:38Z</time>
      </trkpt>
      <trkpt lat="45.86353" lon="3.50481">
        <ele>306.2</ele>
        <time>2024-05-01T13:01:39Z</time>
      </trkpt>
      <trkpt lat="45.8636" lon="3.50482">
        <ele>306.2</ele>
        <time>2024-05-01T13:01:40Z</time>
      </trkpt>
      <trkpt lat="45.86366" lon="3.50482">
        <ele>306.2</ele>
        <time>2024-05-01T13:01:41Z</time>
      </trkpt>
      <trkpt lat="45.86379" lon="3.50486">
        <ele>306.2</ele>
        <time>2024-05-01T13:01:42Z</time>
      </trkpt>
      <trkpt lat="45.86385" lon="3.50489">
        <ele>306.4</ele>
        <time>2024-05-01T13:01:43Z</time>
      </trkpt>
      <trkpt lat="45.86385" lon="3.50489">
        <ele>306</ele>
        <time>2024-05-01T13:01:44Z</time>
      </trkpt>
      <trkpt lat="45.86391" lon="3.50492">
        <ele>306</ele>
        <time>2024-05-01T13:01:45Z</time>
      </trkpt>
      <trkpt lat="45.86397" lon="3.50495">
        <ele>306</ele>
        <time>2024-05-01T13:01:46Z</time>
      </trkpt>
      <trkpt lat="45.86402" lon="3.50498">
        <ele>306</ele>
        <time>2024-05-01T13:01:47Z</time>
      </trkpt>
      <trkpt lat="45.86408" lon="3.50501">
        <ele>305.8</ele>
        <time>2024-05-01T13:01:48Z</time>
      </trkpt>
      <trkpt lat="45.86413" lon="3.50506">
        <ele>305.8</ele>
        <time>2024-05-01T13:01:49Z</time>
      </trkpt>
      <trkpt lat="45.86418" lon="3.50512">
        <ele>305.8</ele>
        <time>2024-05-01T13:01:50Z</time>
      </trkpt>
      <trkpt lat="45.86422" lon="3.50517">
        <ele>305.8</ele>
        <time>2024-05-01T13:01:51Z</time>
      </trkpt>
      <trkpt lat="45.86424" lon="3.50526">
        <ele>305.8</ele>
        <time>2024-05-01T13:01:52Z</time>
      </trkpt>
      <trkpt lat="45.86425" lon="3.50534">
        <ele>305.8</ele>
        <time>2024-05-01T13:01:53Z</time>
      </trkpt>
      <trkpt lat="45.86426" lon="3.50542">
        <ele>305.8</ele>
        <time>2024-05-01T13:01:54Z</time>
      </trkpt>
      <trkpt lat="45.86427" lon="3.50548">
        <ele>305.8</ele>
        <time>2024-05-01T13:01:55Z</time>
      </trkpt>
      <trkpt lat="45.86425" lon="3.50556">
        <ele>305.8</ele>
        <time>2024-05-01T13:01:56Z</time>
      </trkpt>
      <trkpt lat="45.86423" lon="3.50564">
        <ele>305.6</ele>
        <time>2024-05-01T13:01:57Z</time>
      </trkpt>
      <trkpt lat="45.86423" lon="3.50577">
        <ele>305.6</ele>
        <time>2024-05-01T13:01:58Z</time>
      </trkpt>
      <trkpt lat="45.86425" lon="3.50585">
        <ele>305.6</ele>
        <time>2024-05-01T13:01:59Z</time>
      </trkpt>
      <trkpt lat="45.86427" lon="3.50592">
        <ele>305.6</ele>
        <time>2024-05-01T13:02:00Z</time>
      </trkpt>
      <trkpt lat="45.86429" lon="3.506">
        <ele>305.6</ele>
        <time>2024-05-01T13:02:01Z</time>
      </trkpt>
      <trkpt lat="45.86436" lon="3.50605">
        <ele>305.6</ele>
        <time>2024-05-01T13:02:02Z</time>
      </trkpt>
      <trkpt lat="45.86442" lon="3.50607">
        <ele>305.6</ele>
        <time>2024-05-01T13:02:03Z</time>
      </trkpt>
      <trkpt lat="45.86447" lon="3.5061">
        <ele>305.8</ele>
        <time>2024-05-01T13:02:04Z</time>
      </trkpt>
      <trkpt lat="45.86454" lon="3.5061">
        <ele>305.8</ele>
        <time>2024-05-01T13:02:05Z</time>
      </trkpt>
      <trkpt lat="45.86459" lon="3.50607">
        <ele>305.8</ele>
        <time>2024-05-01T13:02:06Z</time>
      </trkpt>
      <trkpt lat="45.86465" lon="3.50603">
        <ele>305.8</ele>
        <time>2024-05-01T13:02:07Z</time>
      </trkpt>
      <trkpt lat="45.8647" lon="3.50596">
        <ele>305.8</ele>
        <time>2024-05-01T13:02:08Z</time>
      </trkpt>
      <trkpt lat="45.86472" lon="3.50589">
        <ele>306</ele>
        <time>2024-05-01T13:02:09Z</time>
      </trkpt>
      <trkpt lat="45.86474" lon="3.50581">
        <ele>306.2</ele>
        <time>2024-05-01T13:02:10Z</time>
      </trkpt>
      <trkpt lat="45.86474" lon="3.50573">
        <ele>306</ele>
        <time>2024-05-01T13:02:11Z</time>
      </trkpt>
      <trkpt lat="45.86474" lon="3.50564">
        <ele>306.2</ele>
        <time>2024-05-01T13:02:12Z</time>
      </trkpt>
      <trkpt lat="45.86475" lon="3.50555">
        <ele>306.2</ele>
        <time>2024-05-01T13:02:13Z</time>
      </trkpt>
      <trkpt lat="45.86475" lon="3.50545">
        <ele>306</ele>
        <time>2024-05-01T13:02:14Z</time>
      </trkpt>
      <trkpt lat="45.86476" lon="3.50535">
        <ele>306</ele>
        <time>2024-05-01T13:02:15Z</time>
      </trkpt>
      <trkpt lat="45.86476" lon="3.50525">
        <ele>306</ele>
        <time>2024-05-01T13:02:16Z</time>
      </trkpt>
      <trkpt lat="45.86477" lon="3.50515">
        <ele>306.2</ele>
        <time>2024-05-01T13:02:17Z</time>
      </trkpt>
      <trkpt lat="45.86478" lon="3.50505">
        <ele>306</ele>
        <time>2024-05-01T13:02:18Z</time>
      </trkpt>
      <trkpt lat="45.86478" lon="3.50495">
        <ele>306</ele>
        <time>2024-05-01T13:02:19Z</time>
      </trkpt>
      <trkpt lat="45.86479" lon="3.50486">
        <ele>306</ele>
        <time>2024-05-01T13:02:20Z</time>
      </trkpt>
      <trkpt lat="45.8648" lon="3.50476">
        <ele>306</ele>
        <time>2024-05-01T13:02:21Z</time>
      </trkpt>
      <trkpt lat="45.8648" lon="3.50466">
        <ele>306.2</ele>
        <time>2024-05-01T13:02:22Z</time>
      </trkpt>
      <trkpt lat="45.86481" lon="3.50457">
        <ele>306.2</ele>
        <time>2024-05-01T13:02:23Z</time>
      </trkpt>
      <trkpt lat="45.86481" lon="3.50447">
        <ele>306</ele>
        <time>2024-05-01T13:02:24Z</time>
      </trkpt>
      <trkpt lat="45.86482" lon="3.50438">
        <ele>306</ele>
        <time>2024-05-01T13:02:25Z</time>
      </trkpt>
      <trkpt lat="45.86483" lon="3.50428">
        <ele>306</ele>
        <time>2024-05-01T13:02:26Z</time>
      </trkpt>
      <trkpt lat="45.86483" lon="3.50418">
        <ele>306</ele>
        <time>2024-05-01T13:02:27Z</time>
      </trkpt>
      <trkpt lat="45.86484" lon="3.50409">
        <ele>306.2</ele>
        <time>2024-05-01T13:02:28Z</time>
      </trkpt>
      <trkpt lat="45.86484" lon="3.504">
        <ele>306.2</ele>
        <time>2024-05-01T13:02:29Z</time>
      </trkpt>
      <trkpt lat="45.86485" lon="3.50391">
        <ele>306.2</ele>
        <time>2024-05-01T13:02:30Z</time>
      </trkpt>
      <trkpt lat="45.86485" lon="3.50381">
        <ele>306.2</ele>
        <time>2024-05-01T13:02:31Z</time>
      </trkpt>
      <trkpt lat="45.86486" lon="3.50372">
        <ele>306</ele>
        <time>2024-05-01T13:02:32Z</time>
      </trkpt>
      <trkpt lat="45.86486" lon="3.50363">
        <ele>306.2</ele>
        <time>2024-05-01T13:02:33Z</time>
      </trkpt>
      <trkpt lat="45.86487" lon="3.50354">
        <ele>306.2</ele>
        <time>2024-05-01T13:02:34Z</time>
      </trkpt>
      <trkpt lat="45.86487" lon="3.50345">
        <ele>306.2</ele>
        <time>2024-05-01T13:02:35Z</time>
      </trkpt>
      <trkpt lat="45.86488" lon="3.50336">
        <ele>306.2</ele>
        <time>2024-05-01T13:02:36Z</time>
      </trkpt>
      <trkpt lat="45.86488" lon="3.50327">
        <ele>306.2</ele>
        <time>2024-05-01T13:02:37Z</time>
      </trkpt>
      <trkpt lat="45.86489" lon="3.50318">
        <ele>306.4</ele>
        <time>2024-05-01T13:02:38Z</time>
      </trkpt>
      <trkpt lat="45.86489" lon="3.5031">
        <ele>306.4</ele>
        <time>2024-05-01T13:02:39Z</time>
      </trkpt>
      <trkpt lat="45.8649" lon="3.50301">
        <ele>306.4</ele>
        <time>2024-05-01T13:02:40Z</time>
      </trkpt>
      <trkpt lat="45.8649" lon="3.50292">
        <ele>306.4</ele>
        <time>2024-05-01T13:02:41Z</time>
      </trkpt>
      <trkpt lat="45.86491" lon="3.50284">
        <ele>306.4</ele>
        <time>2024-05-01T13:02:42Z</time>
      </trkpt>
      <trkpt lat="45.86491" lon="3.50275">
        <ele>306.4</ele>
        <time>2024-05-01T13:02:43Z</time>
      </trkpt>
      <trkpt lat="45.86492" lon="3.50266">
        <ele>306.4</ele>
        <time>2024-05-01T13:02:44Z</time>
      </trkpt>
      <trkpt lat="45.86492" lon="3.50258">
        <ele>306.4</ele>
        <time>2024-05-01T13:02:45Z</time>
      </trkpt>
      <trkpt lat="45.86493" lon="3.50249">
        <ele>306.6</ele>
        <time>2024-05-01T13:02:46Z</time>
      </trkpt>
      <trkpt lat="45.86494" lon="3.5024">
        <ele>306.6</ele>
        <time>2024-05-01T13:02:47Z</time>
      </trkpt>
      <trkpt lat="45.86494" lon="3.50232">
        <ele>306.6</ele>
        <time>2024-05-01T13:02:48Z</time>
      </trkpt>
      <trkpt lat="45.86493" lon="3.50223">
        <ele>306.6</ele>
        <time>2024-05-01T13:02:49Z</time>
      </trkpt>
      <trkpt lat="45.86493" lon="3.50214">
        <ele>306.6</ele>
        <time>2024-05-01T13:02:50Z</time>
      </trkpt>
      <trkpt lat="45.86492" lon="3.50205">
        <ele>306.6</ele>
        <time>2024-05-01T13:02:51Z</time>
      </trkpt>
      <trkpt lat="45.86492" lon="3.50196">
        <ele>306.6</ele>
        <time>2024-05-01T13:02:52Z</time>
      </trkpt>
      <trkpt lat="45.86492" lon="3.50187">
        <ele>306.8</ele>
        <time>2024-05-01T13:02:53Z</time>
      </trkpt>
      <trkpt lat="45.86491" lon="3.50178">
        <ele>306.8</ele>
        <time>2024-05-01T13:02:54Z</time>
      </trkpt>
      <trkpt lat="45.86491" lon="3.50169">
        <ele>306.8</ele>
        <time>2024-05-01T13:02:55Z</time>
      </trkpt>
      <trkpt lat="45.8649" lon="3.50159">
        <ele>306.8</ele>
        <time>2024-05-01T13:02:56Z</time>
      </trkpt>
      <trkpt lat="45.8649" lon="3.50149">
        <ele>306.8</ele>
        <time>2024-05-01T13:02:57Z</time>
      </trkpt>
      <trkpt lat="45.8649" lon="3.5014">
        <ele>306.8</ele>
        <time>2024-05-01T13:02:58Z</time>
      </trkpt>
      <trkpt lat="45.86489" lon="3.5013">
        <ele>306.8</ele>
        <time>2024-05-01T13:02:59Z</time>
      </trkpt>
      <trkpt lat="45.86489" lon="3.5012">
        <ele>306.8</ele>
        <time>2024-05-01T13:03:00Z</time>
      </trkpt>
      <trkpt lat="45.86488" lon="3.50111">
        <ele>306.8</ele>
        <time>2024-05-01T13:03:01Z</time>
      </trkpt>
      <trkpt lat="45.86488" lon="3.50101">
        <ele>306.8</ele>
        <time>2024-05-01T13:03:02Z</time>
      </trkpt>
      <trkpt lat="45.86488" lon="3.50091">
        <ele>306.8</ele>
        <time>2024-05-01T13:03:03Z</time>
      </trkpt>
      <trkpt lat="45.86487" lon="3.50081">
        <ele>306.6</ele>
        <time>2024-05-01T13:03:04Z</time>
      </trkpt>
      <trkpt lat="45.86486" lon="3.50072">
        <ele>306.6</ele>
        <time>2024-05-01T13:03:05Z</time>
      </trkpt>
      <trkpt lat="45.86486" lon="3.50062">
        <ele>306.8</ele>
        <time>2024-05-01T13:03:06Z</time>
      </trkpt>
      <trkpt lat="45.86485" lon="3.50052">
        <ele>306.6</ele>
        <time>2024-05-01T13:03:07Z</time>
      </trkpt>
      <trkpt lat="45.86484" lon="3.50043">
        <ele>306.6</ele>
        <time>2024-05-01T13:03:08Z</time>
      </trkpt>
      <trkpt lat="45.86484" lon="3.50033">
        <ele>306.4</ele>
        <time>2024-05-01T13:03:09Z</time>
      </trkpt>
      <trkpt lat="45.86483" lon="3.50024">
        <ele>306.4</ele>
        <time>2024-05-01T13:03:10Z</time>
      </trkpt>
      <trkpt lat="45.86482" lon="3.50014">
        <ele>306.4</ele>
        <time>2024-05-01T13:03:11Z</time>
      </trkpt>
      <trkpt lat="45.86481" lon="3.50005">
        <ele>306.4</ele>
        <time>2024-05-01T13:03:12Z</time>
      </trkpt>
      <trkpt lat="45.86481" lon="3.49994">
        <ele>306.6</ele>
        <time>2024-05-01T13:03:13Z</time>
      </trkpt>
      <trkpt lat="45.86481" lon="3.49984">
        <ele>306.4</ele>
        <time>2024-05-01T13:03:14Z</time>
      </trkpt>
      <trkpt lat="45.86481" lon="3.49975">
        <ele>306.4</ele>
        <time>2024-05-01T13:03:15Z</time>
      </trkpt>
      <trkpt lat="45.86482" lon="3.49965">
        <ele>306.4</ele>
        <time>2024-05-01T13:03:16Z</time>
      </trkpt>
      <trkpt lat="45.86482" lon="3.49955">
        <ele>306.4</ele>
        <time>2024-05-01T13:03:17Z</time>
      </trkpt>
      <trkpt lat="45.86482" lon="3.49945">
        <ele>306.4</ele>
        <time>2024-05-01T13:03:18Z</time>
      </trkpt>
      <trkpt lat="45.86482" lon="3.49936">
        <ele>306.4</ele>
        <time>2024-05-01T13:03:19Z</time>
      </trkpt>
      <trkpt lat="45.86482" lon="3.49926">
        <ele>306.4</ele>
        <time>2024-05-01T13:03:20Z</time>
      </trkpt>
      <trkpt lat="45.86483" lon="3.49916">
        <ele>306.4</ele>
        <time>2024-05-01T13:03:21Z</time>
      </trkpt>
      <trkpt lat="45.86483" lon="3.49906">
        <ele>306.4</ele>
        <time>2024-05-01T13:03:22Z</time>
      </trkpt>
      <trkpt lat="45.86484" lon="3.49897">
        <ele>306.4</ele>
        <time>2024-05-01T13:03:23Z</time>
      </trkpt>
      <trkpt lat="45.86485" lon="3.49887">
        <ele>306.4</ele>
        <time>2024-05-01T13:03:24Z</time>
      </trkpt>
      <trkpt lat="45.86486" lon="3.49878">
        <ele>306.4</ele>
        <time>2024-05-01T13:03:25Z</time>
      </trkpt>
      <trkpt lat="45.86487" lon="3.49868">
        <ele>306.4</ele>
        <time>2024-05-01T13:03:26Z</time>
      </trkpt>
      <trkpt lat="45.86488" lon="3.49859">
        <ele>306.6</ele>
        <time>2024-05-01T13:03:27Z</time>
      </trkpt>
      <trkpt lat="45.86489" lon="3.4985">
        <ele>306.8</ele>
        <time>2024-05-01T13:03:28Z</time>
      </trkpt>
      <trkpt lat="45.8649" lon="3.49842">
        <ele>306.6</ele>
        <time>2024-05-01T13:03:29Z</time>
      </trkpt>
      <trkpt lat="45.86491" lon="3.49833">
        <ele>306.8</ele>
        <time>2024-05-01T13:03:30Z</time>
      </trkpt>
      <trkpt lat="45.86493" lon="3.49823">
        <ele>306.8</ele>
        <time>2024-05-01T13:03:31Z</time>
      </trkpt>
      <trkpt lat="45.86494" lon="3.49814">
        <ele>307</ele>
        <time>2024-05-01T13:03:32Z</time>
      </trkpt>
      <trkpt lat="45.86496" lon="3.49805">
        <ele>307</ele>
        <time>2024-05-01T13:03:33Z</time>
      </trkpt>
      <trkpt lat="45.86498" lon="3.49796">
        <ele>307.2</ele>
        <time>2024-05-01T13:03:34Z</time>
      </trkpt>
      <trkpt lat="45.86499" lon="3.49788">
        <ele>307.2</ele>
        <time>2024-05-01T13:03:35Z</time>
      </trkpt>
      <trkpt lat="45.86501" lon="3.49779">
        <ele>307.2</ele>
        <time>2024-05-01T13:03:36Z</time>
      </trkpt>
      <trkpt lat="45.86502" lon="3.4977">
        <ele>307.2</ele>
        <time>2024-05-01T13:03:37Z</time>
      </trkpt>
      <trkpt lat="45.86504" lon="3.49762">
        <ele>307.4</ele>
        <time>2024-05-01T13:03:38Z</time>
      </trkpt>
      <trkpt lat="45.86505" lon="3.49753">
        <ele>307.4</ele>
        <time>2024-05-01T13:03:39Z</time>
      </trkpt>
      <trkpt lat="45.86507" lon="3.49745">
        <ele>307.6</ele>
        <time>2024-05-01T13:03:40Z</time>
      </trkpt>
      <trkpt lat="45.86509" lon="3.49736">
        <ele>307.6</ele>
        <time>2024-05-01T13:03:41Z</time>
      </trkpt>
      <trkpt lat="45.8651" lon="3.49728">
        <ele>307.8</ele>
        <time>2024-05-01T13:03:42Z</time>
      </trkpt>
      <trkpt lat="45.86512" lon="3.4972">
        <ele>307.8</ele>
        <time>2024-05-01T13:03:43Z</time>
      </trkpt>
      <trkpt lat="45.86513" lon="3.49712">
        <ele>307.8</ele>
        <time>2024-05-01T13:03:44Z</time>
      </trkpt>
      <trkpt lat="45.86514" lon="3.49705">
        <ele>307.8</ele>
        <time>2024-05-01T13:03:45Z</time>
      </trkpt>
      <trkpt lat="45.86516" lon="3.49697">
        <ele>307.8</ele>
        <time>2024-05-01T13:03:46Z</time>
      </trkpt>
      <trkpt lat="45.86517" lon="3.49688">
        <ele>307.8</ele>
        <time>2024-05-01T13:03:47Z</time>
      </trkpt>
      <trkpt lat="45.86519" lon="3.4968">
        <ele>307.8</ele>
        <time>2024-05-01T13:03:48Z</time>
      </trkpt>
      <trkpt lat="45.8652" lon="3.49672">
        <ele>307.8</ele>
        <time>2024-05-01T13:03:49Z</time>
      </trkpt>
      <trkpt lat="45.86522" lon="3.49664">
        <ele>307.8</ele>
        <time>2024-05-01T13:03:50Z</time>
      </trkpt>
      <trkpt lat="45.86525" lon="3.49657">
        <ele>308</ele>
        <time>2024-05-01T13:03:51Z</time>
      </trkpt>
      <trkpt lat="45.86527" lon="3.49651">
        <ele>308</ele>
        <time>2024-05-01T13:03:52Z</time>
      </trkpt>
      <trkpt lat="45.8653" lon="3.49644">
        <ele>308</ele>
        <time>2024-05-01T13:03:53Z</time>
      </trkpt>
      <trkpt lat="45.86532" lon="3.49637">
        <ele>308</ele>
        <time>2024-05-01T13:03:54Z</time>
      </trkpt>
      <trkpt lat="45.86535" lon="3.49629">
        <ele>308.2</ele>
        <time>2024-05-01T13:03:55Z</time>
      </trkpt>
      <trkpt lat="45.86538" lon="3.49622">
        <ele>308.2</ele>
        <time>2024-05-01T13:03:56Z</time>
      </trkpt>
      <trkpt lat="45.8654" lon="3.49615">
        <ele>308.2</ele>
        <time>2024-05-01T13:03:57Z</time>
      </trkpt>
      <trkpt lat="45.86543" lon="3.49607">
        <ele>308.2</ele>
        <time>2024-05-01T13:03:58Z</time>
      </trkpt>
      <trkpt lat="45.86547" lon="3.496">
        <ele>308.2</ele>
        <time>2024-05-01T13:03:59Z</time>
      </trkpt>
      <trkpt lat="45.86552" lon="3.49597">
        <ele>308.4</ele>
        <time>2024-05-01T13:04:00Z</time>
      </trkpt>
      <trkpt lat="45.86557" lon="3.49593">
        <ele>308.4</ele>
        <time>2024-05-01T13:04:01Z</time>
      </trkpt>
      <trkpt lat="45.86562" lon="3.4959">
        <ele>308.4</ele>
        <time>2024-05-01T13:04:02Z</time>
      </trkpt>
      <trkpt lat="45.86567" lon="3.49586">
        <ele>308.4</ele>
        <time>2024-05-01T13:04:03Z</time>
      </trkpt>
      <trkpt lat="45.86572" lon="3.49583">
        <ele>308.4</ele>
        <time>2024-05-01T13:04:04Z</time>
      </trkpt>
      <trkpt lat="45.86577" lon="3.49579">
        <ele>308.6</ele>
        <time>2024-05-01T13:04:05Z</time>
      </trkpt>
      <trkpt lat="45.86584" lon="3.49577">
        <ele>308.6</ele>
        <time>2024-05-01T13:04:06Z</time>
      </trkpt>
      <trkpt lat="45.86589" lon="3.49576">
        <ele>308.6</ele>
        <time>2024-05-01T13:04:07Z</time>
      </trkpt>
      <trkpt lat="45.86595" lon="3.49575">
        <ele>308.8</ele>
        <time>2024-05-01T13:04:08Z</time>
      </trkpt>
      <trkpt lat="45.866" lon="3.49574">
        <ele>308.8</ele>
        <time>2024-05-01T13:04:09Z</time>
      </trkpt>
      <trkpt lat="45.86606" lon="3.49572">
        <ele>308.8</ele>
        <time>2024-05-01T13:04:10Z</time>
      </trkpt>
      <trkpt lat="45.86611" lon="3.4957">
        <ele>308.8</ele>
        <time>2024-05-01T13:04:11Z</time>
      </trkpt>
      <trkpt lat="45.86617" lon="3.49566">
        <ele>308.8</ele>
        <time>2024-05-01T13:04:12Z</time>
      </trkpt>
      <trkpt lat="45.86622" lon="3.49562">
        <ele>308.8</ele>
        <time>2024-05-01T13:04:13Z</time>
      </trkpt>
      <trkpt lat="45.86626" lon="3.49557">
        <ele>309</ele>
        <time>2024-05-01T13:04:14Z</time>
      </trkpt>
      <trkpt lat="45.8663" lon="3.4955">
        <ele>309</ele>
        <time>2024-05-01T13:04:15Z</time>
      </trkpt>
      <trkpt lat="45.86633" lon="3.49542">
        <ele>309</ele>
        <time>2024-05-01T13:04:16Z</time>
      </trkpt>
      <trkpt lat="45.86636" lon="3.49534">
        <ele>309</ele>
        <time>2024-05-01T13:04:17Z</time>
      </trkpt>
      <trkpt lat="45.86639" lon="3.49525">
        <ele>309</ele>
        <time>2024-05-01T13:04:18Z</time>
      </trkpt>
      <trkpt lat="45.86643" lon="3.49516">
        <ele>308.8</ele>
        <time>2024-05-01T13:04:19Z</time>
      </trkpt>
      <trkpt lat="45.86646" lon="3.49507">
        <ele>308.8</ele>
        <time>2024-05-01T13:04:20Z</time>
      </trkpt>
      <trkpt lat="45.86649" lon="3.49498">
        <ele>308.8</ele>
        <time>2024-05-01T13:04:21Z</time>
      </trkpt>
      <trkpt lat="45.86651" lon="3.49488">
        <ele>308.6</ele>
        <time>2024-05-01T13:04:22Z</time>
      </trkpt>
      <trkpt lat="45.86652" lon="3.49477">
        <ele>308.6</ele>
        <time>2024-05-01T13:04:23Z</time>
      </trkpt>
      <trkpt lat="45.86653" lon="3.49465">
        <ele>308.8</ele>
        <time>2024-05-01T13:04:24Z</time>
      </trkpt>
      <trkpt lat="45.86655" lon="3.49454">
        <ele>308.4</ele>
        <time>2024-05-01T13:04:25Z</time>
      </trkpt>
      <trkpt lat="45.86657" lon="3.49442">
        <ele>308.4</ele>
        <time>2024-05-01T13:04:26Z</time>
      </trkpt>
      <trkpt lat="45.86659" lon="3.49431">
        <ele>308.2</ele>
        <time>2024-05-01T13:04:27Z</time>
      </trkpt>
      <trkpt lat="45.86662" lon="3.49419">
        <ele>308.2</ele>
        <time>2024-05-01T13:04:28Z</time>
      </trkpt>
      <trkpt lat="45.86664" lon="3.49407">
        <ele>308</ele>
        <time>2024-05-01T13:04:29Z</time>
      </trkpt>
      <trkpt lat="45.86666" lon="3.49394">
        <ele>308</ele>
        <time>2024-05-01T13:04:30Z</time>
      </trkpt>
      <trkpt lat="45.86669" lon="3.49382">
        <ele>307.8</ele>
        <time>2024-05-01T13:04:31Z</time>
      </trkpt>
      <trkpt lat="45.86671" lon="3.4937">
        <ele>307.6</ele>
        <time>2024-05-01T13:04:32Z</time>
      </trkpt>
      <trkpt lat="45.86673" lon="3.49358">
        <ele>307.6</ele>
        <time>2024-05-01T13:04:33Z</time>
      </trkpt>
      <trkpt lat="45.86675" lon="3.49347">
        <ele>307.6</ele>
        <time>2024-05-01T13:04:34Z</time>
      </trkpt>
      <trkpt lat="45.86679" lon="3.49334">
        <ele>307.6</ele>
        <time>2024-05-01T13:04:35Z</time>
      </trkpt>
      <trkpt lat="45.86683" lon="3.49324">
        <ele>307.6</ele>
        <time>2024-05-01T13:04:36Z</time>
      </trkpt>
      <trkpt lat="45.86687" lon="3.49314">
        <ele>307.4</ele>
        <time>2024-05-01T13:04:37Z</time>
      </trkpt>
      <trkpt lat="45.86691" lon="3.49305">
        <ele>307.4</ele>
        <time>2024-05-01T13:04:38Z</time>
      </trkpt>
      <trkpt lat="45.86696" lon="3.49295">
        <ele>307.4</ele>
        <time>2024-05-01T13:04:39Z</time>
      </trkpt>
      <trkpt lat="45.867" lon="3.49285">
        <ele>307.4</ele>
        <time>2024-05-01T13:04:40Z</time>
      </trkpt>
      <trkpt lat="45.86704" lon="3.49276">
        <ele>307.4</ele>
        <time>2024-05-01T13:04:41Z</time>
      </trkpt>
      <trkpt lat="45.86708" lon="3.49267">
        <ele>307.4</ele>
        <time>2024-05-01T13:04:42Z</time>
      </trkpt>
      <trkpt lat="45.86712" lon="3.49257">
        <ele>307.4</ele>
        <time>2024-05-01T13:04:43Z</time>
      </trkpt>
      <trkpt lat="45.86716" lon="3.49248">
        <ele>307.4</ele>
        <time>2024-05-01T13:04:44Z</time>
      </trkpt>
      <trkpt lat="45.8672" lon="3.49239">
        <ele>307.4</ele>
        <time>2024-05-01T13:04:45Z</time>
      </trkpt>
      <trkpt lat="45.86725" lon="3.49231">
        <ele>307.2</ele>
        <time>2024-05-01T13:04:46Z</time>
      </trkpt>
      <trkpt lat="45.8673" lon="3.49224">
        <ele>307.2</ele>
        <time>2024-05-01T13:04:47Z</time>
      </trkpt>
      <trkpt lat="45.86735" lon="3.49216">
        <ele>307.2</ele>
        <time>2024-05-01T13:04:48Z</time>
      </trkpt>
      <trkpt lat="45.86741" lon="3.49209">
        <ele>307.2</ele>
        <time>2024-05-01T13:04:49Z</time>
      </trkpt>
      <trkpt lat="45.86746" lon="3.49202">
        <ele>307.2</ele>
        <time>2024-05-01T13:04:50Z</time>
      </trkpt>
      <trkpt lat="45.86751" lon="3.49194">
        <ele>307.2</ele>
        <time>2024-05-01T13:04:51Z</time>
      </trkpt>
      <trkpt lat="45.86757" lon="3.49186">
        <ele>307.2</ele>
        <time>2024-05-01T13:04:52Z</time>
      </trkpt>
      <trkpt lat="45.86763" lon="3.49178">
        <ele>307</ele>
        <time>2024-05-01T13:04:53Z</time>
      </trkpt>
      <trkpt lat="45.86769" lon="3.4917">
        <ele>307</ele>
        <time>2024-05-01T13:04:54Z</time>
      </trkpt>
      <trkpt lat="45.86774" lon="3.49161">
        <ele>306.8</ele>
        <time>2024-05-01T13:04:55Z</time>
      </trkpt>
      <trkpt lat="45.8678" lon="3.49153">
        <ele>306.6</ele>
        <time>2024-05-01T13:04:56Z</time>
      </trkpt>
      <trkpt lat="45.86786" lon="3.49145">
        <ele>306.6</ele>
        <time>2024-05-01T13:04:57Z</time>
      </trkpt>
      <trkpt lat="45.86792" lon="3.49138">
        <ele>306.4</ele>
        <time>2024-05-01T13:04:58Z</time>
      </trkpt>
      <trkpt lat="45.86798" lon="3.4913">
        <ele>306.2</ele>
        <time>2024-05-01T13:04:59Z</time>
      </trkpt>
      <trkpt lat="45.86804" lon="3.49122">
        <ele>306</ele>
        <time>2024-05-01T13:05:00Z</time>
      </trkpt>
      <trkpt lat="45.8681" lon="3.49114">
        <ele>305.8</ele>
        <time>2024-05-01T13:05:01Z</time>
      </trkpt>
      <trkpt lat="45.86816" lon="3.49105">
        <ele>305.6</ele>
        <time>2024-05-01T13:05:02Z</time>
      </trkpt>
      <trkpt lat="45.86823" lon="3.49097">
        <ele>305.6</ele>
        <time>2024-05-01T13:05:03Z</time>
      </trkpt>
      <trkpt lat="45.86829" lon="3.49088">
        <ele>305.4</ele>
        <time>2024-05-01T13:05:04Z</time>
      </trkpt>
      <trkpt lat="45.86836" lon="3.4908">
        <ele>305.2</ele>
        <time>2024-05-01T13:05:05Z</time>
      </trkpt>
      <trkpt lat="45.86842" lon="3.49071">
        <ele>305</ele>
        <time>2024-05-01T13:05:06Z</time>
      </trkpt>
      <trkpt lat="45.86849" lon="3.49063">
        <ele>304.8</ele>
        <time>2024-05-01T13:05:07Z</time>
      </trkpt>
      <trkpt lat="45.86856" lon="3.49054">
        <ele>304.6</ele>
        <time>2024-05-01T13:05:08Z</time>
      </trkpt>
      <trkpt lat="45.86863" lon="3.49046">
        <ele>304.4</ele>
        <time>2024-05-01T13:05:09Z</time>
      </trkpt>
      <trkpt lat="45.86871" lon="3.49039">
        <ele>304.4</ele>
        <time>2024-05-01T13:05:10Z</time>
      </trkpt>
      <trkpt lat="45.86879" lon="3.49033">
        <ele>304.2</ele>
        <time>2024-05-01T13:05:11Z</time>
      </trkpt>
      <trkpt lat="45.86887" lon="3.49027">
        <ele>304</ele>
        <time>2024-05-01T13:05:12Z</time>
      </trkpt>
      <trkpt lat="45.86895" lon="3.49021">
        <ele>304</ele>
        <time>2024-05-01T13:05:13Z</time>
      </trkpt>
      <trkpt lat="45.86903" lon="3.49015">
        <ele>303.8</ele>
        <time>2024-05-01T13:05:14Z</time>
      </trkpt>
      <trkpt lat="45.86911" lon="3.4901">
        <ele>303.6</ele>
        <time>2024-05-01T13:05:15Z</time>
      </trkpt>
      <trkpt lat="45.86918" lon="3.49004">
        <ele>303.6</ele>
        <time>2024-05-01T13:05:16Z</time>
      </trkpt>
      <trkpt lat="45.86926" lon="3.48999">
        <ele>303.4</ele>
        <time>2024-05-01T13:05:17Z</time>
      </trkpt>
      <trkpt lat="45.86934" lon="3.48993">
        <ele>303.4</ele>
        <time>2024-05-01T13:05:18Z</time>
      </trkpt>
      <trkpt lat="45.86941" lon="3.48988">
        <ele>303.2</ele>
        <time>2024-05-01T13:05:19Z</time>
      </trkpt>
      <trkpt lat="45.86948" lon="3.48983">
        <ele>303.2</ele>
        <time>2024-05-01T13:05:20Z</time>
      </trkpt>
      <trkpt lat="45.86955" lon="3.48978">
        <ele>303.2</ele>
        <time>2024-05-01T13:05:21Z</time>
      </trkpt>
      <trkpt lat="45.86962" lon="3.48973">
        <ele>303.2</ele>
        <time>2024-05-01T13:05:22Z</time>
      </trkpt>
      <trkpt lat="45.86969" lon="3.48968">
        <ele>303</ele>
        <time>2024-05-01T13:05:23Z</time>
      </trkpt>
      <trkpt lat="45.86975" lon="3.48963">
        <ele>303</ele>
        <time>2024-05-01T13:05:24Z</time>
      </trkpt>
      <trkpt lat="45.86981" lon="3.48959">
        <ele>303</ele>
        <time>2024-05-01T13:05:25Z</time>
      </trkpt>
      <trkpt lat="45.86987" lon="3.48955">
        <ele>302.8</ele>
        <time>2024-05-01T13:05:26Z</time>
      </trkpt>
      <trkpt lat="45.86993" lon="3.48951">
        <ele>302.8</ele>
        <time>2024-05-01T13:05:27Z</time>
      </trkpt>
      <trkpt lat="45.86999" lon="3.48947">
        <ele>302.8</ele>
        <time>2024-05-01T13:05:28Z</time>
      </trkpt>
      <trkpt lat="45.87005" lon="3.48943">
        <ele>302.6</ele>
        <time>2024-05-01T13:05:29Z</time>
      </trkpt>
      <trkpt lat="45.87011" lon="3.48939">
        <ele>302.6</ele>
        <time>2024-05-01T13:05:30Z</time>
      </trkpt>
      <trkpt lat="45.87016" lon="3.48935">
        <ele>302.6</ele>
        <time>2024-05-01T13:05:31Z</time>
      </trkpt>
      <trkpt lat="45.87022" lon="3.4893">
        <ele>302.4</ele>
        <time>2024-05-01T13:05:32Z</time>
      </trkpt>
      <trkpt lat="45.87027" lon="3.48925">
        <ele>302.4</ele>
        <time>2024-05-01T13:05:33Z</time>
      </trkpt>
      <trkpt lat="45.87032" lon="3.4892">
        <ele>302.2</ele>
        <time>2024-05-01T13:05:34Z</time>
      </trkpt>
      <trkpt lat="45.87037" lon="3.48915">
        <ele>302.2</ele>
        <time>2024-05-01T13:05:35Z</time>
      </trkpt>
      <trkpt lat="45.87043" lon="3.4891">
        <ele>302.2</ele>
        <time>2024-05-01T13:05:36Z</time>
      </trkpt>
      <trkpt lat="45.87048" lon="3.48904">
        <ele>302.2</ele>
        <time>2024-05-01T13:05:37Z</time>
      </trkpt>
      <trkpt lat="45.87053" lon="3.48899">
        <ele>302.2</ele>
        <time>2024-05-01T13:05:38Z</time>
      </trkpt>
      <trkpt lat="45.87059" lon="3.48894">
        <ele>302.2</ele>
        <time>2024-05-01T13:05:39Z</time>
      </trkpt>
      <trkpt lat="45.87064" lon="3.48889">
        <ele>302</ele>
        <time>2024-05-01T13:05:40Z</time>
      </trkpt>
      <trkpt lat="45.87069" lon="3.48884">
        <ele>302</ele>
        <time>2024-05-01T13:05:41Z</time>
      </trkpt>
      <trkpt lat="45.87074" lon="3.48876">
        <ele>302</ele>
        <time>2024-05-01T13:05:42Z</time>
      </trkpt>
      <trkpt lat="45.87078" lon="3.48869">
        <ele>302</ele>
        <time>2024-05-01T13:05:43Z</time>
      </trkpt>
      <trkpt lat="45.87082" lon="3.48862">
        <ele>302</ele>
        <time>2024-05-01T13:05:44Z</time>
      </trkpt>
      <trkpt lat="45.87087" lon="3.48855">
        <ele>301.8</ele>
        <time>2024-05-01T13:05:45Z</time>
      </trkpt>
      <trkpt lat="45.87091" lon="3.48848">
        <ele>301.8</ele>
        <time>2024-05-01T13:05:46Z</time>
      </trkpt>
      <trkpt lat="45.87096" lon="3.4884">
        <ele>301.6</ele>
        <time>2024-05-01T13:05:47Z</time>
      </trkpt>
      <trkpt lat="45.871" lon="3.48833">
        <ele>301.6</ele>
        <time>2024-05-01T13:05:48Z</time>
      </trkpt>
      <trkpt lat="45.87104" lon="3.48825">
        <ele>301.4</ele>
        <time>2024-05-01T13:05:49Z</time>
      </trkpt>
      <trkpt lat="45.87109" lon="3.48818">
        <ele>301.2</ele>
        <time>2024-05-01T13:05:50Z</time>
      </trkpt>
      <trkpt lat="45.87114" lon="3.4881">
        <ele>301.2</ele>
        <time>2024-05-01T13:05:51Z</time>
      </trkpt>
      <trkpt lat="45.87118" lon="3.48803">
        <ele>301</ele>
        <time>2024-05-01T13:05:52Z</time>
      </trkpt>
      <trkpt lat="45.87123" lon="3.48795">
        <ele>301</ele>
        <time>2024-05-01T13:05:53Z</time>
      </trkpt>
      <trkpt lat="45.87128" lon="3.48787">
        <ele>300.8</ele>
        <time>2024-05-01T13:05:54Z</time>
      </trkpt>
      <trkpt lat="45.87133" lon="3.48779">
        <ele>300.8</ele>
        <time>2024-05-01T13:05:55Z</time>
      </trkpt>
      <trkpt lat="45.87138" lon="3.48771">
        <ele>300.8</ele>
        <time>2024-05-01T13:05:56Z</time>
      </trkpt>
      <trkpt lat="45.87143" lon="3.48764">
        <ele>300.8</ele>
        <time>2024-05-01T13:05:57Z</time>
      </trkpt>
      <trkpt lat="45.87149" lon="3.48757">
        <ele>300.6</ele>
        <time>2024-05-01T13:05:58Z</time>
      </trkpt>
      <trkpt lat="45.87155" lon="3.48751">
        <ele>300.6</ele>
        <time>2024-05-01T13:05:59Z</time>
      </trkpt>
      <trkpt lat="45.87161" lon="3.48744">
        <ele>300.6</ele>
        <time>2024-05-01T13:06:00Z</time>
      </trkpt>
      <trkpt lat="45.87167" lon="3.48738">
        <ele>300.4</ele>
        <time>2024-05-01T13:06:01Z</time>
      </trkpt>
      <trkpt lat="45.87174" lon="3.48733">
        <ele>300.4</ele>
        <time>2024-05-01T13:06:02Z</time>
      </trkpt>
      <trkpt lat="45.87181" lon="3.48728">
        <ele>300.2</ele>
        <time>2024-05-01T13:06:03Z</time>
      </trkpt>
      <trkpt lat="45.87188" lon="3.48724">
        <ele>300</ele>
        <time>2024-05-01T13:06:04Z</time>
      </trkpt>
      <trkpt lat="45.87194" lon="3.48719">
        <ele>300</ele>
        <time>2024-05-01T13:06:05Z</time>
      </trkpt>
      <trkpt lat="45.87201" lon="3.48714">
        <ele>299.8</ele>
        <time>2024-05-01T13:06:06Z</time>
      </trkpt>
      <trkpt lat="45.87208" lon="3.4871">
        <ele>299.8</ele>
        <time>2024-05-01T13:06:07Z</time>
      </trkpt>
      <trkpt lat="45.87214" lon="3.48706">
        <ele>299.8</ele>
        <time>2024-05-01T13:06:08Z</time>
      </trkpt>
      <trkpt lat="45.87221" lon="3.48702">
        <ele>299.6</ele>
        <time>2024-05-01T13:06:09Z</time>
      </trkpt>
      <trkpt lat="45.87228" lon="3.48699">
        <ele>299.6</ele>
        <time>2024-05-01T13:06:10Z</time>
      </trkpt>
      <trkpt lat="45.87234" lon="3.48695">
        <ele>299.6</ele>
        <time>2024-05-01T13:06:11Z</time>
      </trkpt>
      <trkpt lat="45.8724" lon="3.48692">
        <ele>299.6</ele>
        <time>2024-05-01T13:06:12Z</time>
      </trkpt>
      <trkpt lat="45.87246" lon="3.48688">
        <ele>299.6</ele>
        <time>2024-05-01T13:06:13Z</time>
      </trkpt>
      <trkpt lat="45.87252" lon="3.48685">
        <ele>299.6</ele>
        <time>2024-05-01T13:06:14Z</time>
      </trkpt>
      <trkpt lat="45.87258" lon="3.48681">
        <ele>299.4</ele>
        <time>2024-05-01T13:06:15Z</time>
      </trkpt>
      <trkpt lat="45.87264" lon="3.48678">
        <ele>299.4</ele>
        <time>2024-05-01T13:06:16Z</time>
      </trkpt>
      <trkpt lat="45.8727" lon="3.48675">
        <ele>299.4</ele>
        <time>2024-05-01T13:06:17Z</time>
      </trkpt>
      <trkpt lat="45.87276" lon="3.48671">
        <ele>299.4</ele>
        <time>2024-05-01T13:06:18Z</time>
      </trkpt>
      <trkpt lat="45.87282" lon="3.48668">
        <ele>299.4</ele>
        <time>2024-05-01T13:06:19Z</time>
      </trkpt>
      <trkpt lat="45.87288" lon="3.48665">
        <ele>299.4</ele>
        <time>2024-05-01T13:06:20Z</time>
      </trkpt>
      <trkpt lat="45.87294" lon="3.48661">
        <ele>299.4</ele>
        <time>2024-05-01T13:06:21Z</time>
      </trkpt>
      <trkpt lat="45.87299" lon="3.48658">
        <ele>299.4</ele>
        <time>2024-05-01T13:06:22Z</time>
      </trkpt>
      <trkpt lat="45.87305" lon="3.48655">
        <ele>299.4</ele>
        <time>2024-05-01T13:06:23Z</time>
      </trkpt>
      <trkpt lat="45.87311" lon="3.48651">
        <ele>299.4</ele>
        <time>2024-05-01T13:06:24Z</time>
      </trkpt>
      <trkpt lat="45.87317" lon="3.48648">
        <ele>299.4</ele>
        <time>2024-05-01T13:06:25Z</time>
      </trkpt>
      <trkpt lat="45.87323" lon="3.48645">
        <ele>299.4</ele>
        <time>2024-05-01T13:06:26Z</time>
      </trkpt>
      <trkpt lat="45.87329" lon="3.48641">
        <ele>299.4</ele>
        <time>2024-05-01T13:06:27Z</time>
      </trkpt>
      <trkpt lat="45.87335" lon="3.48638">
        <ele>299.4</ele>
        <time>2024-05-01T13:06:28Z</time>
      </trkpt>
      <trkpt lat="45.87341" lon="3.48635">
        <ele>299.4</ele>
        <time>2024-05-01T13:06:29Z</time>
      </trkpt>
      <trkpt lat="45.87347" lon="3.48631">
        <ele>299.4</ele>
        <time>2024-05-01T13:06:30Z</time>
      </trkpt>
      <trkpt lat="45.87353" lon="3.48628">
        <ele>299.4</ele>
        <time>2024-05-01T13:06:31Z</time>
      </trkpt>
      <trkpt lat="45.8736" lon="3.48626">
        <ele>299.4</ele>
        <time>2024-05-01T13:06:32Z</time>
      </trkpt>
      <trkpt lat="45.87367" lon="3.48624">
        <ele>299.4</ele>
        <time>2024-05-01T13:06:33Z</time>
      </trkpt>
      <trkpt lat="45.87374" lon="3.48622">
        <ele>299.4</ele>
        <time>2024-05-01T13:06:34Z</time>
      </trkpt>
      <trkpt lat="45.87381" lon="3.48621">
        <ele>299.2</ele>
        <time>2024-05-01T13:06:35Z</time>
      </trkpt>
      <trkpt lat="45.87388" lon="3.48619">
        <ele>299.2</ele>
        <time>2024-05-01T13:06:36Z</time>
      </trkpt>
      <trkpt lat="45.87395" lon="3.48617">
        <ele>299.2</ele>
        <time>2024-05-01T13:06:37Z</time>
      </trkpt>
      <trkpt lat="45.87402" lon="3.48615">
        <ele>299</ele>
        <time>2024-05-01T13:06:38Z</time>
      </trkpt>
      <trkpt lat="45.87409" lon="3.48614">
        <ele>299</ele>
        <time>2024-05-01T13:06:39Z</time>
      </trkpt>
      <trkpt lat="45.87416" lon="3.48612">
        <ele>299</ele>
        <time>2024-05-01T13:06:40Z</time>
      </trkpt>
      <trkpt lat="45.87423" lon="3.4861">
        <ele>298.8</ele>
        <time>2024-05-01T13:06:41Z</time>
      </trkpt>
      <trkpt lat="45.8743" lon="3.48608">
        <ele>298.8</ele>
        <time>2024-05-01T13:06:42Z</time>
      </trkpt>
      <trkpt lat="45.87438" lon="3.48607">
        <ele>298.6</ele>
        <time>2024-05-01T13:06:43Z</time>
      </trkpt>
      <trkpt lat="45.87444" lon="3.48605">
        <ele>298.6</ele>
        <time>2024-05-01T13:06:44Z</time>
      </trkpt>
      <trkpt lat="45.87451" lon="3.48603">
        <ele>298.6</ele>
        <time>2024-05-01T13:06:45Z</time>
      </trkpt>
      <trkpt lat="45.87458" lon="3.48602">
        <ele>298.6</ele>
        <time>2024-05-01T13:06:46Z</time>
      </trkpt>
      <trkpt lat="45.87465" lon="3.48599">
        <ele>298.6</ele>
        <time>2024-05-01T13:06:47Z</time>
      </trkpt>
      <trkpt lat="45.87472" lon="3.48595">
        <ele>298.6</ele>
        <time>2024-05-01T13:06:48Z</time>
      </trkpt>
      <trkpt lat="45.87478" lon="3.48592">
        <ele>298.6</ele>
        <time>2024-05-01T13:06:49Z</time>
      </trkpt>
      <trkpt lat="45.87485" lon="3.48589">
        <ele>298.4</ele>
        <time>2024-05-01T13:06:50Z</time>
      </trkpt>
      <trkpt lat="45.87491" lon="3.48586">
        <ele>298.4</ele>
        <time>2024-05-01T13:06:51Z</time>
      </trkpt>
      <trkpt lat="45.87498" lon="3.48583">
        <ele>298.4</ele>
        <time>2024-05-01T13:06:52Z</time>
      </trkpt>
      <trkpt lat="45.87505" lon="3.4858">
        <ele>298.4</ele>
        <time>2024-05-01T13:06:53Z</time>
      </trkpt>
      <trkpt lat="45.87512" lon="3.48576">
        <ele>298.4</ele>
        <time>2024-05-01T13:06:54Z</time>
      </trkpt>
      <trkpt lat="45.87518" lon="3.48573">
        <ele>298.4</ele>
        <time>2024-05-01T13:06:55Z</time>
      </trkpt>
      <trkpt lat="45.87525" lon="3.4857">
        <ele>298.2</ele>
        <time>2024-05-01T13:06:56Z</time>
      </trkpt>
      <trkpt lat="45.87531" lon="3.48567">
        <ele>298.2</ele>
        <time>2024-05-01T13:06:57Z</time>
      </trkpt>
      <trkpt lat="45.87538" lon="3.48564">
        <ele>298.2</ele>
        <time>2024-05-01T13:06:58Z</time>
      </trkpt>
      <trkpt lat="45.87544" lon="3.48561">
        <ele>298.2</ele>
        <time>2024-05-01T13:06:59Z</time>
      </trkpt>
      <trkpt lat="45.87551" lon="3.48558">
        <ele>298.2</ele>
        <time>2024-05-01T13:07:00Z</time>
      </trkpt>
      <trkpt lat="45.87557" lon="3.48555">
        <ele>298.2</ele>
        <time>2024-05-01T13:07:01Z</time>
      </trkpt>
      <trkpt lat="45.87564" lon="3.48552">
        <ele>298</ele>
        <time>2024-05-01T13:07:02Z</time>
      </trkpt>
      <trkpt lat="45.8757" lon="3.48549">
        <ele>298</ele>
        <time>2024-05-01T13:07:03Z</time>
      </trkpt>
      <trkpt lat="45.87577" lon="3.48545">
        <ele>298</ele>
        <time>2024-05-01T13:07:04Z</time>
      </trkpt>
      <trkpt lat="45.87583" lon="3.48542">
        <ele>298</ele>
        <time>2024-05-01T13:07:05Z</time>
      </trkpt>
      <trkpt lat="45.8759" lon="3.48539">
        <ele>297.8</ele>
        <time>2024-05-01T13:07:06Z</time>
      </trkpt>
      <trkpt lat="45.87597" lon="3.48536">
        <ele>297.8</ele>
        <time>2024-05-01T13:07:07Z</time>
      </trkpt>
      <trkpt lat="45.87604" lon="3.48534">
        <ele>297.8</ele>
        <time>2024-05-01T13:07:08Z</time>
      </trkpt>
      <trkpt lat="45.8761" lon="3.48532">
        <ele>297.6</ele>
        <time>2024-05-01T13:07:09Z</time>
      </trkpt>
      <trkpt lat="45.87617" lon="3.4853">
        <ele>297.6</ele>
        <time>2024-05-01T13:07:10Z</time>
      </trkpt>
      <trkpt lat="45.87624" lon="3.48529">
        <ele>297.6</ele>
        <time>2024-05-01T13:07:11Z</time>
      </trkpt>
      <trkpt lat="45.87631" lon="3.48527">
        <ele>297.6</ele>
        <time>2024-05-01T13:07:12Z</time>
      </trkpt>
      <trkpt lat="45.87638" lon="3.48525">
        <ele>297.4</ele>
        <time>2024-05-01T13:07:13Z</time>
      </trkpt>
      <trkpt lat="45.87645" lon="3.48523">
        <ele>297.4</ele>
        <time>2024-05-01T13:07:14Z</time>
      </trkpt>
      <trkpt lat="45.87652" lon="3.48521">
        <ele>297.4</ele>
        <time>2024-05-01T13:07:15Z</time>
      </trkpt>
      <trkpt lat="45.87659" lon="3.48519">
        <ele>297.4</ele>
        <time>2024-05-01T13:07:16Z</time>
      </trkpt>
      <trkpt lat="45.87666" lon="3.48517">
        <ele>297.2</ele>
        <time>2024-05-01T13:07:17Z</time>
      </trkpt>
      <trkpt lat="45.87673" lon="3.48515">
        <ele>297.2</ele>
        <time>2024-05-01T13:07:18Z</time>
      </trkpt>
      <trkpt lat="45.87679" lon="3.48513">
        <ele>297.2</ele>
        <time>2024-05-01T13:07:19Z</time>
      </trkpt>
      <trkpt lat="45.87686" lon="3.48511">
        <ele>297.2</ele>
        <time>2024-05-01T13:07:20Z</time>
      </trkpt>
      <trkpt lat="45.87693" lon="3.48509">
        <ele>297</ele>
        <time>2024-05-01T13:07:21Z</time>
      </trkpt>
      <trkpt lat="45.877" lon="3.48507">
        <ele>297</ele>
        <time>2024-05-01T13:07:22Z</time>
      </trkpt>
      <trkpt lat="45.87707" lon="3.48505">
        <ele>297</ele>
        <time>2024-05-01T13:07:23Z</time>
      </trkpt>
      <trkpt lat="45.87714" lon="3.48503">
        <ele>297</ele>
        <time>2024-05-01T13:07:24Z</time>
      </trkpt>
      <trkpt lat="45.87721" lon="3.48501">
        <ele>297</ele>
        <time>2024-05-01T13:07:25Z</time>
      </trkpt>
      <trkpt lat="45.87728" lon="3.48499">
        <ele>296.8</ele>
        <time>2024-05-01T13:07:26Z</time>
      </trkpt>
      <trkpt lat="45.87734" lon="3.48497">
        <ele>296.8</ele>
        <time>2024-05-01T13:07:27Z</time>
      </trkpt>
      <trkpt lat="45.87741" lon="3.48495">
        <ele>296.8</ele>
        <time>2024-05-01T13:07:28Z</time>
      </trkpt>
      <trkpt lat="45.87748" lon="3.48493">
        <ele>296.8</ele>
        <time>2024-05-01T13:07:29Z</time>
      </trkpt>
      <trkpt lat="45.87755" lon="3.48491">
        <ele>296.8</ele>
        <time>2024-05-01T13:07:30Z</time>
      </trkpt>
      <trkpt lat="45.87761" lon="3.48489">
        <ele>296.6</ele>
        <time>2024-05-01T13:07:31Z</time>
      </trkpt>
      <trkpt lat="45.87768" lon="3.48487">
        <ele>296.6</ele>
        <time>2024-05-01T13:07:32Z</time>
      </trkpt>
      <trkpt lat="45.87775" lon="3.48485">
        <ele>296.6</ele>
        <time>2024-05-01T13:07:33Z</time>
      </trkpt>
      <trkpt lat="45.87782" lon="3.48483">
        <ele>296.6</ele>
        <time>2024-05-01T13:07:34Z</time>
      </trkpt>
      <trkpt lat="45.87789" lon="3.48481">
        <ele>296.6</ele>
        <time>2024-05-01T13:07:35Z</time>
      </trkpt>
      <trkpt lat="45.87796" lon="3.4848">
        <ele>296.6</ele>
        <time>2024-05-01T13:07:36Z</time>
      </trkpt>
      <trkpt lat="45.87804" lon="3.48479">
        <ele>296.4</ele>
        <time>2024-05-01T13:07:37Z</time>
      </trkpt>
      <trkpt lat="45.87811" lon="3.48477">
        <ele>296.4</ele>
        <time>2024-05-01T13:07:38Z</time>
      </trkpt>
      <trkpt lat="45.87818" lon="3.48476">
        <ele>296.2</ele>
        <time>2024-05-01T13:07:39Z</time>
      </trkpt>
      <trkpt lat="45.87825" lon="3.48475">
        <ele>296.2</ele>
        <time>2024-05-01T13:07:40Z</time>
      </trkpt>
      <trkpt lat="45.87833" lon="3.48475">
        <ele>296.2</ele>
        <time>2024-05-01T13:07:41Z</time>
      </trkpt>
      <trkpt lat="45.8784" lon="3.48475">
        <ele>296</ele>
        <time>2024-05-01T13:07:42Z</time>
      </trkpt>
      <trkpt lat="45.87847" lon="3.48475">
        <ele>296</ele>
        <time>2024-05-01T13:07:43Z</time>
      </trkpt>
      <trkpt lat="45.87854" lon="3.48475">
        <ele>296</ele>
        <time>2024-05-01T13:07:44Z</time>
      </trkpt>
      <trkpt lat="45.87861" lon="3.48476">
        <ele>296</ele>
        <time>2024-05-01T13:07:45Z</time>
      </trkpt>
      <trkpt lat="45.87868" lon="3.48476">
        <ele>296</ele>
        <time>2024-05-01T13:07:46Z</time>
      </trkpt>
      <trkpt lat="45.87876" lon="3.48476">
        <ele>295.8</ele>
        <time>2024-05-01T13:07:47Z</time>
      </trkpt>
      <trkpt lat="45.87883" lon="3.48476">
        <ele>295.8</ele>
        <time>2024-05-01T13:07:48Z</time>
      </trkpt>
      <trkpt lat="45.8789" lon="3.48476">
        <ele>295.8</ele>
        <time>2024-05-01T13:07:49Z</time>
      </trkpt>
      <trkpt lat="45.87897" lon="3.48476">
        <ele>296</ele>
        <time>2024-05-01T13:07:50Z</time>
      </trkpt>
      <trkpt lat="45.87904" lon="3.48477">
        <ele>295.8</ele>
        <time>2024-05-01T13:07:51Z</time>
      </trkpt>
      <trkpt lat="45.8791" lon="3.48477">
        <ele>295.8</ele>
        <time>2024-05-01T13:07:52Z</time>
      </trkpt>
      <trkpt lat="45.87917" lon="3.48477">
        <ele>295.8</ele>
        <time>2024-05-01T13:07:53Z</time>
      </trkpt>
      <trkpt lat="45.87924" lon="3.48478">
        <ele>295.8</ele>
        <time>2024-05-01T13:07:54Z</time>
      </trkpt>
      <trkpt lat="45.87931" lon="3.48479">
        <ele>295.8</ele>
        <time>2024-05-01T13:07:55Z</time>
      </trkpt>
      <trkpt lat="45.87937" lon="3.4848">
        <ele>295.8</ele>
        <time>2024-05-01T13:07:56Z</time>
      </trkpt>
      <trkpt lat="45.87944" lon="3.48481">
        <ele>295.6</ele>
        <time>2024-05-01T13:07:57Z</time>
      </trkpt>
      <trkpt lat="45.8795" lon="3.48482">
        <ele>295.6</ele>
        <time>2024-05-01T13:07:58Z</time>
      </trkpt>
      <trkpt lat="45.87956" lon="3.48483">
        <ele>295.8</ele>
        <time>2024-05-01T13:07:59Z</time>
      </trkpt>
      <trkpt lat="45.87963" lon="3.48484">
        <ele>295.8</ele>
        <time>2024-05-01T13:08:00Z</time>
      </trkpt>
      <trkpt lat="45.87969" lon="3.48486">
        <ele>295.8</ele>
        <time>2024-05-01T13:08:01Z</time>
      </trkpt>
      <trkpt lat="45.87975" lon="3.48487">
        <ele>295.8</ele>
        <time>2024-05-01T13:08:02Z</time>
      </trkpt>
      <trkpt lat="45.87982" lon="3.48488">
        <ele>295.8</ele>
        <time>2024-05-01T13:08:03Z</time>
      </trkpt>
      <trkpt lat="45.87988" lon="3.48489">
        <ele>295.8</ele>
        <time>2024-05-01T13:08:04Z</time>
      </trkpt>
      <trkpt lat="45.87994" lon="3.4849">
        <ele>295.8</ele>
        <time>2024-05-01T13:08:05Z</time>
      </trkpt>
      <trkpt lat="45.88001" lon="3.48492">
        <ele>295.8</ele>
        <time>2024-05-01T13:08:06Z</time>
      </trkpt>
      <trkpt lat="45.88007" lon="3.48493">
        <ele>295.8</ele>
        <time>2024-05-01T13:08:07Z</time>
      </trkpt>
      <trkpt lat="45.88013" lon="3.48495">
        <ele>295.8</ele>
        <time>2024-05-01T13:08:08Z</time>
      </trkpt>
      <trkpt lat="45.88019" lon="3.48497">
        <ele>295.8</ele>
        <time>2024-05-01T13:08:09Z</time>
      </trkpt>
      <trkpt lat="45.88025" lon="3.48498">
        <ele>295.8</ele>
        <time>2024-05-01T13:08:10Z</time>
      </trkpt>
      <trkpt lat="45.88032" lon="3.485">
        <ele>295.8</ele>
        <time>2024-05-01T13:08:11Z</time>
      </trkpt>
      <trkpt lat="45.88038" lon="3.48502">
        <ele>295.8</ele>
        <time>2024-05-01T13:08:12Z</time>
      </trkpt>
      <trkpt lat="45.88045" lon="3.48504">
        <ele>295.6</ele>
        <time>2024-05-01T13:08:13Z</time>
      </trkpt>
      <trkpt lat="45.88051" lon="3.48506">
        <ele>295.8</ele>
        <time>2024-05-01T13:08:14Z</time>
      </trkpt>
      <trkpt lat="45.88058" lon="3.48507">
        <ele>295.6</ele>
        <time>2024-05-01T13:08:15Z</time>
      </trkpt>
      <trkpt lat="45.88064" lon="3.48509">
        <ele>295.6</ele>
        <time>2024-05-01T13:08:16Z</time>
      </trkpt>
      <trkpt lat="45.88071" lon="3.48511">
        <ele>295.8</ele>
        <time>2024-05-01T13:08:17Z</time>
      </trkpt>
      <trkpt lat="45.88078" lon="3.48513">
        <ele>295.6</ele>
        <time>2024-05-01T13:08:18Z</time>
      </trkpt>
      <trkpt lat="45.88084" lon="3.48515">
        <ele>295.6</ele>
        <time>2024-05-01T13:08:19Z</time>
      </trkpt>
      <trkpt lat="45.88091" lon="3.48516">
        <ele>295.8</ele>
        <time>2024-05-01T13:08:20Z</time>
      </trkpt>
      <trkpt lat="45.88098" lon="3.48518">
        <ele>295.8</ele>
        <time>2024-05-01T13:08:21Z</time>
      </trkpt>
      <trkpt lat="45.88104" lon="3.4852">
        <ele>295.8</ele>
        <time>2024-05-01T13:08:22Z</time>
      </trkpt>
      <trkpt lat="45.88111" lon="3.48522">
        <ele>295.8</ele>
        <time>2024-05-01T13:08:23Z</time>
      </trkpt>
      <trkpt lat="45.88117" lon="3.48524">
        <ele>295.8</ele>
        <time>2024-05-01T13:08:24Z</time>
      </trkpt>
      <trkpt lat="45.88124" lon="3.48525">
        <ele>295.8</ele>
        <time>2024-05-01T13:08:25Z</time>
      </trkpt>
      <trkpt lat="45.8813" lon="3.48527">
        <ele>295.8</ele>
        <time>2024-05-01T13:08:26Z</time>
      </trkpt>
      <trkpt lat="45.88137" lon="3.48529">
        <ele>295.8</ele>
        <time>2024-05-01T13:08:27Z</time>
      </trkpt>
      <trkpt lat="45.88143" lon="3.48531">
        <ele>295.8</ele>
        <time>2024-05-01T13:08:28Z</time>
      </trkpt>
      <trkpt lat="45.8815" lon="3.48533">
        <ele>295.8</ele>
        <time>2024-05-01T13:08:29Z</time>
      </trkpt>
      <trkpt lat="45.88156" lon="3.48534">
        <ele>295.8</ele>
        <time>2024-05-01T13:08:30Z</time>
      </trkpt>
      <trkpt lat="45.88163" lon="3.48536">
        <ele>295.8</ele>
        <time>2024-05-01T13:08:31Z</time>
      </trkpt>
      <trkpt lat="45.88169" lon="3.48537">
        <ele>295.8</ele>
        <time>2024-05-01T13:08:32Z</time>
      </trkpt>
      <trkpt lat="45.88176" lon="3.48539">
        <ele>295.8</ele>
        <time>2024-05-01T13:08:33Z</time>
      </trkpt>
      <trkpt lat="45.88182" lon="3.4854">
        <ele>295.8</ele>
        <time>2024-05-01T13:08:34Z</time>
      </trkpt>
      <trkpt lat="45.88188" lon="3.48542">
        <ele>295.8</ele>
        <time>2024-05-01T13:08:35Z</time>
      </trkpt>
      <trkpt lat="45.88194" lon="3.48543">
        <ele>295.8</ele>
        <time>2024-05-01T13:08:36Z</time>
      </trkpt>
      <trkpt lat="45.88201" lon="3.48545">
        <ele>295.8</ele>
        <time>2024-05-01T13:08:37Z</time>
      </trkpt>
      <trkpt lat="45.88207" lon="3.48546">
        <ele>295.8</ele>
        <time>2024-05-01T13:08:38Z</time>
      </trkpt>
      <trkpt lat="45.88213" lon="3.48548">
        <ele>295.8</ele>
        <time>2024-05-01T13:08:39Z</time>
      </trkpt>
      <trkpt lat="45.8822" lon="3.48549">
        <ele>295.8</ele>
        <time>2024-05-01T13:08:40Z</time>
      </trkpt>
      <trkpt lat="45.88226" lon="3.48551">
        <ele>296</ele>
        <time>2024-05-01T13:08:41Z</time>
      </trkpt>
      <trkpt lat="45.88232" lon="3.48552">
        <ele>296</ele>
        <time>2024-05-01T13:08:42Z</time>
      </trkpt>
      <trkpt lat="45.88238" lon="3.48554">
        <ele>296</ele>
        <time>2024-05-01T13:08:43Z</time>
      </trkpt>
      <trkpt lat="45.88245" lon="3.48555">
        <ele>296</ele>
        <time>2024-05-01T13:08:44Z</time>
      </trkpt>
      <trkpt lat="45.88251" lon="3.48557">
        <ele>296</ele>
        <time>2024-05-01T13:08:45Z</time>
      </trkpt>
      <trkpt lat="45.88258" lon="3.48558">
        <ele>296.2</ele>
        <time>2024-05-01T13:08:46Z</time>
      </trkpt>
      <trkpt lat="45.88264" lon="3.4856">
        <ele>296.2</ele>
        <time>2024-05-01T13:08:47Z</time>
      </trkpt>
      <trkpt lat="45.8827" lon="3.48561">
        <ele>296.2</ele>
        <time>2024-05-01T13:08:48Z</time>
      </trkpt>
      <trkpt lat="45.88276" lon="3.48563">
        <ele>296.2</ele>
        <time>2024-05-01T13:08:49Z</time>
      </trkpt>
      <trkpt lat="45.88283" lon="3.48564">
        <ele>296.4</ele>
        <time>2024-05-01T13:08:50Z</time>
      </trkpt>
      <trkpt lat="45.88289" lon="3.48566">
        <ele>296.4</ele>
        <time>2024-05-01T13:08:51Z</time>
      </trkpt>
      <trkpt lat="45.88296" lon="3.48567">
        <ele>296.4</ele>
        <time>2024-05-01T13:08:52Z</time>
      </trkpt>
      <trkpt lat="45.88302" lon="3.48568">
        <ele>296.4</ele>
        <time>2024-05-01T13:08:53Z</time>
      </trkpt>
      <trkpt lat="45.88309" lon="3.4857">
        <ele>296.4</ele>
        <time>2024-05-01T13:08:54Z</time>
      </trkpt>
      <trkpt lat="45.88315" lon="3.48571">
        <ele>296.6</ele>
        <time>2024-05-01T13:08:55Z</time>
      </trkpt>
      <trkpt lat="45.88322" lon="3.48573">
        <ele>296.6</ele>
        <time>2024-05-01T13:08:56Z</time>
      </trkpt>
      <trkpt lat="45.88329" lon="3.48574">
        <ele>296.6</ele>
        <time>2024-05-01T13:08:57Z</time>
      </trkpt>
      <trkpt lat="45.88335" lon="3.48576">
        <ele>296.6</ele>
        <time>2024-05-01T13:08:58Z</time>
      </trkpt>
      <trkpt lat="45.88342" lon="3.48577">
        <ele>296.6</ele>
        <time>2024-05-01T13:08:59Z</time>
      </trkpt>
      <trkpt lat="45.88348" lon="3.48579">
        <ele>296.8</ele>
        <time>2024-05-01T13:09:00Z</time>
      </trkpt>
      <trkpt lat="45.88355" lon="3.4858">
        <ele>296.8</ele>
        <time>2024-05-01T13:09:01Z</time>
      </trkpt>
      <trkpt lat="45.88361" lon="3.48582">
        <ele>296.8</ele>
        <time>2024-05-01T13:09:02Z</time>
      </trkpt>
      <trkpt lat="45.88367" lon="3.48582">
        <ele>296.8</ele>
        <time>2024-05-01T13:09:03Z</time>
      </trkpt>
      <trkpt lat="45.88373" lon="3.48581">
        <ele>297</ele>
        <time>2024-05-01T13:09:04Z</time>
      </trkpt>
      <trkpt lat="45.8838" lon="3.48581">
        <ele>297</ele>
        <time>2024-05-01T13:09:05Z</time>
      </trkpt>
      <trkpt lat="45.88387" lon="3.4858">
        <ele>297.2</ele>
        <time>2024-05-01T13:09:06Z</time>
      </trkpt>
      <trkpt lat="45.88394" lon="3.4858">
        <ele>297.2</ele>
        <time>2024-05-01T13:09:07Z</time>
      </trkpt>
      <trkpt lat="45.884" lon="3.48579">
        <ele>297.4</ele>
        <time>2024-05-01T13:09:08Z</time>
      </trkpt>
      <trkpt lat="45.88407" lon="3.48579">
        <ele>297.4</ele>
        <time>2024-05-01T13:09:09Z</time>
      </trkpt>
      <trkpt lat="45.88414" lon="3.48578">
        <ele>297.6</ele>
        <time>2024-05-01T13:09:10Z</time>
      </trkpt>
      <trkpt lat="45.8842" lon="3.48578">
        <ele>297.6</ele>
        <time>2024-05-01T13:09:11Z</time>
      </trkpt>
      <trkpt lat="45.88427" lon="3.48577">
        <ele>297.8</ele>
        <time>2024-05-01T13:09:12Z</time>
      </trkpt>
      <trkpt lat="45.88433" lon="3.48575">
        <ele>297.8</ele>
        <time>2024-05-01T13:09:13Z</time>
      </trkpt>
      <trkpt lat="45.88439" lon="3.48574">
        <ele>298</ele>
        <time>2024-05-01T13:09:14Z</time>
      </trkpt>
      <trkpt lat="45.88446" lon="3.48572">
        <ele>298.2</ele>
        <time>2024-05-01T13:09:15Z</time>
      </trkpt>
      <trkpt lat="45.88453" lon="3.48571">
        <ele>298.2</ele>
        <time>2024-05-01T13:09:16Z</time>
      </trkpt>
      <trkpt lat="45.8846" lon="3.48569">
        <ele>298.4</ele>
        <time>2024-05-01T13:09:17Z</time>
      </trkpt>
      <trkpt lat="45.88467" lon="3.48567">
        <ele>298.4</ele>
        <time>2024-05-01T13:09:18Z</time>
      </trkpt>
      <trkpt lat="45.88473" lon="3.48566">
        <ele>298.6</ele>
        <time>2024-05-01T13:09:19Z</time>
      </trkpt>
      <trkpt lat="45.8848" lon="3.48564">
        <ele>298.6</ele>
        <time>2024-05-01T13:09:20Z</time>
      </trkpt>
      <trkpt lat="45.88487" lon="3.48563">
        <ele>298.8</ele>
        <time>2024-05-01T13:09:21Z</time>
      </trkpt>
      <trkpt lat="45.88493" lon="3.48561">
        <ele>299</ele>
        <time>2024-05-01T13:09:22Z</time>
      </trkpt>
      <trkpt lat="45.885" lon="3.4856">
        <ele>299</ele>
        <time>2024-05-01T13:09:23Z</time>
      </trkpt>
      <trkpt lat="45.88507" lon="3.48558">
        <ele>299.2</ele>
        <time>2024-05-01T13:09:24Z</time>
      </trkpt>
      <trkpt lat="45.88514" lon="3.48556">
        <ele>299.2</ele>
        <time>2024-05-01T13:09:25Z</time>
      </trkpt>
      <trkpt lat="45.88521" lon="3.48555">
        <ele>299.4</ele>
        <time>2024-05-01T13:09:26Z</time>
      </trkpt>
      <trkpt lat="45.88527" lon="3.48553">
        <ele>299.4</ele>
        <time>2024-05-01T13:09:27Z</time>
      </trkpt>
      <trkpt lat="45.88534" lon="3.48552">
        <ele>299.4</ele>
        <time>2024-05-01T13:09:28Z</time>
      </trkpt>
      <trkpt lat="45.8854" lon="3.4855">
        <ele>299.4</ele>
        <time>2024-05-01T13:09:29Z</time>
      </trkpt>
      <trkpt lat="45.88547" lon="3.48549">
        <ele>299.4</ele>
        <time>2024-05-01T13:09:30Z</time>
      </trkpt>
      <trkpt lat="45.88553" lon="3.48547">
        <ele>299.6</ele>
        <time>2024-05-01T13:09:31Z</time>
      </trkpt>
      <trkpt lat="45.88559" lon="3.48546">
        <ele>299.6</ele>
        <time>2024-05-01T13:09:32Z</time>
      </trkpt>
      <trkpt lat="45.88565" lon="3.48544">
        <ele>299.6</ele>
        <time>2024-05-01T13:09:33Z</time>
      </trkpt>
      <trkpt lat="45.8857" lon="3.48543">
        <ele>299.6</ele>
        <time>2024-05-01T13:09:34Z</time>
      </trkpt>
      <trkpt lat="45.88576" lon="3.48542">
        <ele>299.6</ele>
        <time>2024-05-01T13:09:35Z</time>
      </trkpt>
      <trkpt lat="45.88581" lon="3.48541">
        <ele>299.6</ele>
        <time>2024-05-01T13:09:36Z</time>
      </trkpt>
      <trkpt lat="45.88587" lon="3.48539">
        <ele>299.6</ele>
        <time>2024-05-01T13:09:37Z</time>
      </trkpt>
      <trkpt lat="45.88594" lon="3.48538">
        <ele>299.8</ele>
        <time>2024-05-01T13:09:38Z</time>
      </trkpt>
      <trkpt lat="45.88599" lon="3.48536">
        <ele>299.8</ele>
        <time>2024-05-01T13:09:39Z</time>
      </trkpt>
      <trkpt lat="45.88605" lon="3.48534">
        <ele>299.8</ele>
        <time>2024-05-01T13:09:40Z</time>
      </trkpt>
      <trkpt lat="45.8861" lon="3.48532">
        <ele>299.8</ele>
        <time>2024-05-01T13:09:41Z</time>
      </trkpt>
      <trkpt lat="45.88615" lon="3.4853">
        <ele>300</ele>
        <time>2024-05-01T13:09:42Z</time>
      </trkpt>
      <trkpt lat="45.8862" lon="3.48528">
        <ele>300</ele>
        <time>2024-05-01T13:09:43Z</time>
      </trkpt>
      <trkpt lat="45.88626" lon="3.48526">
        <ele>300</ele>
        <time>2024-05-01T13:09:44Z</time>
      </trkpt>
      <trkpt lat="45.88632" lon="3.48524">
        <ele>300</ele>
        <time>2024-05-01T13:09:45Z</time>
      </trkpt>
      <trkpt lat="45.88638" lon="3.48522">
        <ele>300</ele>
        <time>2024-05-01T13:09:46Z</time>
      </trkpt>
      <trkpt lat="45.88644" lon="3.4852">
        <ele>300</ele>
        <time>2024-05-01T13:09:47Z</time>
      </trkpt>
      <trkpt lat="45.88651" lon="3.48517">
        <ele>300</ele>
        <time>2024-05-01T13:09:48Z</time>
      </trkpt>
      <trkpt lat="45.88658" lon="3.48514">
        <ele>300</ele>
        <time>2024-05-01T13:09:49Z</time>
      </trkpt>
      <trkpt lat="45.88665" lon="3.48512">
        <ele>300</ele>
        <time>2024-05-01T13:09:50Z</time>
      </trkpt>
      <trkpt lat="45.88671" lon="3.4851">
        <ele>300</ele>
        <time>2024-05-01T13:09:51Z</time>
      </trkpt>
      <trkpt lat="45.88676" lon="3.48508">
        <ele>300</ele>
        <time>2024-05-01T13:09:52Z</time>
      </trkpt>
      <trkpt lat="45.88682" lon="3.48506">
        <ele>299.8</ele>
        <time>2024-05-01T13:09:53Z</time>
      </trkpt>
      <trkpt lat="45.88688" lon="3.48503">
        <ele>299.8</ele>
        <time>2024-05-01T13:09:54Z</time>
      </trkpt>
      <trkpt lat="45.88695" lon="3.48501">
        <ele>299.8</ele>
        <time>2024-05-01T13:09:55Z</time>
      </trkpt>
      <trkpt lat="45.88701" lon="3.48499">
        <ele>299.8</ele>
        <time>2024-05-01T13:09:56Z</time>
      </trkpt>
      <trkpt lat="45.88708" lon="3.48496">
        <ele>300.2</ele>
        <time>2024-05-01T13:09:57Z</time>
      </trkpt>
      <trkpt lat="45.88715" lon="3.48494">
        <ele>299.8</ele>
        <time>2024-05-01T13:09:58Z</time>
      </trkpt>
      <trkpt lat="45.88722" lon="3.48491">
        <ele>299.6</ele>
        <time>2024-05-01T13:09:59Z</time>
      </trkpt>
      <trkpt lat="45.88728" lon="3.48489">
        <ele>299.4</ele>
        <time>2024-05-01T13:10:00Z</time>
      </trkpt>
      <trkpt lat="45.88735" lon="3.48486">
        <ele>299.4</ele>
        <time>2024-05-01T13:10:01Z</time>
      </trkpt>
      <trkpt lat="45.88742" lon="3.48484">
        <ele>299.6</ele>
        <time>2024-05-01T13:10:02Z</time>
      </trkpt>
      <trkpt lat="45.88749" lon="3.48481">
        <ele>299.6</ele>
        <time>2024-05-01T13:10:03Z</time>
      </trkpt>
      <trkpt lat="45.88756" lon="3.48478">
        <ele>299.6</ele>
        <time>2024-05-01T13:10:04Z</time>
      </trkpt>
      <trkpt lat="45.88763" lon="3.48474">
        <ele>299.6</ele>
        <time>2024-05-01T13:10:05Z</time>
      </trkpt>
      <trkpt lat="45.88771" lon="3.48471">
        <ele>299.4</ele>
        <time>2024-05-01T13:10:06Z</time>
      </trkpt>
      <trkpt lat="45.88778" lon="3.48467">
        <ele>299.6</ele>
        <time>2024-05-01T13:10:07Z</time>
      </trkpt>
      <trkpt lat="45.88785" lon="3.48464">
        <ele>299.6</ele>
        <time>2024-05-01T13:10:08Z</time>
      </trkpt>
      <trkpt lat="45.88791" lon="3.48461">
        <ele>299.6</ele>
        <time>2024-05-01T13:10:09Z</time>
      </trkpt>
      <trkpt lat="45.88798" lon="3.48456">
        <ele>299.4</ele>
        <time>2024-05-01T13:10:10Z</time>
      </trkpt>
      <trkpt lat="45.88804" lon="3.48451">
        <ele>299.4</ele>
        <time>2024-05-01T13:10:11Z</time>
      </trkpt>
      <trkpt lat="45.88811" lon="3.48447">
        <ele>299.4</ele>
        <time>2024-05-01T13:10:12Z</time>
      </trkpt>
      <trkpt lat="45.88817" lon="3.48442">
        <ele>299.6</ele>
        <time>2024-05-01T13:10:13Z</time>
      </trkpt>
      <trkpt lat="45.88823" lon="3.48436">
        <ele>299.4</ele>
        <time>2024-05-01T13:10:14Z</time>
      </trkpt>
      <trkpt lat="45.88829" lon="3.4843">
        <ele>299.4</ele>
        <time>2024-05-01T13:10:15Z</time>
      </trkpt>
      <trkpt lat="45.88835" lon="3.48423">
        <ele>299.4</ele>
        <time>2024-05-01T13:10:16Z</time>
      </trkpt>
      <trkpt lat="45.88841" lon="3.48416">
        <ele>299.4</ele>
        <time>2024-05-01T13:10:17Z</time>
      </trkpt>
      <trkpt lat="45.88846" lon="3.48409">
        <ele>299.4</ele>
        <time>2024-05-01T13:10:18Z</time>
      </trkpt>
      <trkpt lat="45.88852" lon="3.48403">
        <ele>299.4</ele>
        <time>2024-05-01T13:10:19Z</time>
      </trkpt>
      <trkpt lat="45.88857" lon="3.48396">
        <ele>299.4</ele>
        <time>2024-05-01T13:10:20Z</time>
      </trkpt>
      <trkpt lat="45.88863" lon="3.4839">
        <ele>299.4</ele>
        <time>2024-05-01T13:10:21Z</time>
      </trkpt>
      <trkpt lat="45.88869" lon="3.48383">
        <ele>299.4</ele>
        <time>2024-05-01T13:10:22Z</time>
      </trkpt>
      <trkpt lat="45.88874" lon="3.48377">
        <ele>299.4</ele>
        <time>2024-05-01T13:10:23Z</time>
      </trkpt>
      <trkpt lat="45.88879" lon="3.48371">
        <ele>299.6</ele>
        <time>2024-05-01T13:10:24Z</time>
      </trkpt>
      <trkpt lat="45.88885" lon="3.48364">
        <ele>299.4</ele>
        <time>2024-05-01T13:10:25Z</time>
      </trkpt>
      <trkpt lat="45.8889" lon="3.48358">
        <ele>299.4</ele>
        <time>2024-05-01T13:10:26Z</time>
      </trkpt>
      <trkpt lat="45.88896" lon="3.48351">
        <ele>299.6</ele>
        <time>2024-05-01T13:10:27Z</time>
      </trkpt>
      <trkpt lat="45.88901" lon="3.48345">
        <ele>299.6</ele>
        <time>2024-05-01T13:10:28Z</time>
      </trkpt>
      <trkpt lat="45.88907" lon="3.48339">
        <ele>299.6</ele>
        <time>2024-05-01T13:10:29Z</time>
      </trkpt>
      <trkpt lat="45.88912" lon="3.48333">
        <ele>299.6</ele>
        <time>2024-05-01T13:10:30Z</time>
      </trkpt>
      <trkpt lat="45.88917" lon="3.48327">
        <ele>299.6</ele>
        <time>2024-05-01T13:10:31Z</time>
      </trkpt>
      <trkpt lat="45.88923" lon="3.4832">
        <ele>299.6</ele>
        <time>2024-05-01T13:10:32Z</time>
      </trkpt>
      <trkpt lat="45.88928" lon="3.48314">
        <ele>299.6</ele>
        <time>2024-05-01T13:10:33Z</time>
      </trkpt>
      <trkpt lat="45.88933" lon="3.48308">
        <ele>299.6</ele>
        <time>2024-05-01T13:10:34Z</time>
      </trkpt>
      <trkpt lat="45.88939" lon="3.48301">
        <ele>299.6</ele>
        <time>2024-05-01T13:10:35Z</time>
      </trkpt>
      <trkpt lat="45.88944" lon="3.48295">
        <ele>299.6</ele>
        <time>2024-05-01T13:10:36Z</time>
      </trkpt>
      <trkpt lat="45.88949" lon="3.48289">
        <ele>299.6</ele>
        <time>2024-05-01T13:10:37Z</time>
      </trkpt>
      <trkpt lat="45.88955" lon="3.48282">
        <ele>299.6</ele>
        <time>2024-05-01T13:10:38Z</time>
      </trkpt>
      <trkpt lat="45.8896" lon="3.48276">
        <ele>299.6</ele>
        <time>2024-05-01T13:10:39Z</time>
      </trkpt>
      <trkpt lat="45.88966" lon="3.4827">
        <ele>299.6</ele>
        <time>2024-05-01T13:10:40Z</time>
      </trkpt>
      <trkpt lat="45.88971" lon="3.48264">
        <ele>299.6</ele>
        <time>2024-05-01T13:10:41Z</time>
      </trkpt>
      <trkpt lat="45.88976" lon="3.48257">
        <ele>299.6</ele>
        <time>2024-05-01T13:10:42Z</time>
      </trkpt>
      <trkpt lat="45.88982" lon="3.48251">
        <ele>299.6</ele>
        <time>2024-05-01T13:10:43Z</time>
      </trkpt>
      <trkpt lat="45.88988" lon="3.48245">
        <ele>299.6</ele>
        <time>2024-05-01T13:10:44Z</time>
      </trkpt>
      <trkpt lat="45.88994" lon="3.48241">
        <ele>299.6</ele>
        <time>2024-05-01T13:10:45Z</time>
      </trkpt>
      <trkpt lat="45.89" lon="3.48237">
        <ele>299.6</ele>
        <time>2024-05-01T13:10:46Z</time>
      </trkpt>
      <trkpt lat="45.89006" lon="3.48234">
        <ele>299.4</ele>
        <time>2024-05-01T13:10:47Z</time>
      </trkpt>
      <trkpt lat="45.89012" lon="3.4823">
        <ele>299.4</ele>
        <time>2024-05-01T13:10:48Z</time>
      </trkpt>
      <trkpt lat="45.89018" lon="3.48225">
        <ele>299.4</ele>
        <time>2024-05-01T13:10:49Z</time>
      </trkpt>
      <trkpt lat="45.89024" lon="3.48221">
        <ele>299.4</ele>
        <time>2024-05-01T13:10:50Z</time>
      </trkpt>
      <trkpt lat="45.8903" lon="3.48217">
        <ele>299.4</ele>
        <time>2024-05-01T13:10:51Z</time>
      </trkpt>
      <trkpt lat="45.89036" lon="3.48213">
        <ele>299.4</ele>
        <time>2024-05-01T13:10:52Z</time>
      </trkpt>
      <trkpt lat="45.89042" lon="3.48209">
        <ele>299.4</ele>
        <time>2024-05-01T13:10:53Z</time>
      </trkpt>
      <trkpt lat="45.89049" lon="3.48204">
        <ele>299.4</ele>
        <time>2024-05-01T13:10:54Z</time>
      </trkpt>
      <trkpt lat="45.89056" lon="3.482">
        <ele>299.4</ele>
        <time>2024-05-01T13:10:55Z</time>
      </trkpt>
      <trkpt lat="45.89063" lon="3.48195">
        <ele>299.4</ele>
        <time>2024-05-01T13:10:56Z</time>
      </trkpt>
      <trkpt lat="45.89071" lon="3.4819">
        <ele>299.2</ele>
        <time>2024-05-01T13:10:57Z</time>
      </trkpt>
      <trkpt lat="45.89079" lon="3.48185">
        <ele>299.2</ele>
        <time>2024-05-01T13:10:58Z</time>
      </trkpt>
      <trkpt lat="45.89086" lon="3.4818">
        <ele>299</ele>
        <time>2024-05-01T13:10:59Z</time>
      </trkpt>
      <trkpt lat="45.89095" lon="3.48174">
        <ele>298.8</ele>
        <time>2024-05-01T13:11:00Z</time>
      </trkpt>
      <trkpt lat="45.89114" lon="3.48176">
        <ele>298.8</ele>
        <time>2024-05-01T13:11:01Z</time>
      </trkpt>
      <trkpt lat="45.89113" lon="3.48176">
        <ele>298.6</ele>
        <time>2024-05-01T13:11:02Z</time>
      </trkpt>
      <trkpt lat="45.89123" lon="3.48177">
        <ele>298.4</ele>
        <time>2024-05-01T13:11:03Z</time>
      </trkpt>
      <trkpt lat="45.89132" lon="3.48178">
        <ele>298.4</ele>
        <time>2024-05-01T13:11:04Z</time>
      </trkpt>
      <trkpt lat="45.89141" lon="3.48179">
        <ele>298.2</ele>
        <time>2024-05-01T13:11:05Z</time>
      </trkpt>
      <trkpt lat="45.8915" lon="3.4818">
        <ele>298.2</ele>
        <time>2024-05-01T13:11:06Z</time>
      </trkpt>
      <trkpt lat="45.89158" lon="3.48181">
        <ele>298.2</ele>
        <time>2024-05-01T13:11:07Z</time>
      </trkpt>
      <trkpt lat="45.89165" lon="3.48182">
        <ele>298.2</ele>
        <time>2024-05-01T13:11:08Z</time>
      </trkpt>
      <trkpt lat="45.89178" lon="3.48183">
        <ele>298.2</ele>
        <time>2024-05-01T13:11:09Z</time>
      </trkpt>
      <trkpt lat="45.89178" lon="3.48183">
        <ele>298.2</ele>
        <time>2024-05-01T13:11:10Z</time>
      </trkpt>
      <trkpt lat="45.89184" lon="3.48184">
        <ele>298.2</ele>
        <time>2024-05-01T13:11:11Z</time>
      </trkpt>
      <trkpt lat="45.89194" lon="3.48185">
        <ele>298.2</ele>
        <time>2024-05-01T13:11:12Z</time>
      </trkpt>
      <trkpt lat="45.89194" lon="3.48185">
        <ele>298</ele>
        <time>2024-05-01T13:11:13Z</time>
      </trkpt>
      <trkpt lat="45.89196" lon="3.48178">
        <ele>298</ele>
        <time>2024-05-01T13:11:14Z</time>
      </trkpt>
      <trkpt lat="45.892" lon="3.48165">
        <ele>298</ele>
        <time>2024-05-01T13:11:15Z</time>
      </trkpt>
      <trkpt lat="45.89203" lon="3.48158">
        <ele>298</ele>
        <time>2024-05-01T13:11:16Z</time>
      </trkpt>
      <trkpt lat="45.89206" lon="3.48151">
        <ele>298</ele>
        <time>2024-05-01T13:11:17Z</time>
      </trkpt>
      <trkpt lat="45.89208" lon="3.48143">
        <ele>298.2</ele>
        <time>2024-05-01T13:11:18Z</time>
      </trkpt>
      <trkpt lat="45.89208" lon="3.48133">
        <ele>298.2</ele>
        <time>2024-05-01T13:11:19Z</time>
      </trkpt>
      <trkpt lat="45.89208" lon="3.48123">
        <ele>298</ele>
        <time>2024-05-01T13:11:20Z</time>
      </trkpt>
      <trkpt lat="45.89207" lon="3.48112">
        <ele>298</ele>
        <time>2024-05-01T13:11:21Z</time>
      </trkpt>
      <trkpt lat="45.89207" lon="3.481">
        <ele>298</ele>
        <time>2024-05-01T13:11:22Z</time>
      </trkpt>
      <trkpt lat="45.89207" lon="3.48088">
        <ele>297.8</ele>
        <time>2024-05-01T13:11:23Z</time>
      </trkpt>
      <trkpt lat="45.89207" lon="3.48075">
        <ele>297.6</ele>
        <time>2024-05-01T13:11:24Z</time>
      </trkpt>
      <trkpt lat="45.89206" lon="3.48063">
        <ele>297.6</ele>
        <time>2024-05-01T13:11:25Z</time>
      </trkpt>
      <trkpt lat="45.89206" lon="3.48049">
        <ele>297.2</ele>
        <time>2024-05-01T13:11:26Z</time>
      </trkpt>
      <trkpt lat="45.89206" lon="3.48035">
        <ele>297</ele>
        <time>2024-05-01T13:11:27Z</time>
      </trkpt>
      <trkpt lat="45.89204" lon="3.48021">
        <ele>296.6</ele>
        <time>2024-05-01T13:11:28Z</time>
      </trkpt>
      <trkpt lat="45.89203" lon="3.48008">
        <ele>296.4</ele>
        <time>2024-05-01T13:11:29Z</time>
      </trkpt>
      <trkpt lat="45.89202" lon="3.47994">
        <ele>296.2</ele>
        <time>2024-05-01T13:11:30Z</time>
      </trkpt>
      <trkpt lat="45.892" lon="3.4798">
        <ele>296</ele>
        <time>2024-05-01T13:11:31Z</time>
      </trkpt>
      <trkpt lat="45.89196" lon="3.47968">
        <ele>295.8</ele>
        <time>2024-05-01T13:11:32Z</time>
      </trkpt>
      <trkpt lat="45.89193" lon="3.47955">
        <ele>295.6</ele>
        <time>2024-05-01T13:11:33Z</time>
      </trkpt>
      <trkpt lat="45.89189" lon="3.47943">
        <ele>295.6</ele>
        <time>2024-05-01T13:11:34Z</time>
      </trkpt>
      <trkpt lat="45.89186" lon="3.47932">
        <ele>295.4</ele>
        <time>2024-05-01T13:11:35Z</time>
      </trkpt>
      <trkpt lat="45.89183" lon="3.47921">
        <ele>295.4</ele>
        <time>2024-05-01T13:11:36Z</time>
      </trkpt>
      <trkpt lat="45.8918" lon="3.4791">
        <ele>295.2</ele>
        <time>2024-05-01T13:11:37Z</time>
      </trkpt>
      <trkpt lat="45.89177" lon="3.47899">
        <ele>295.2</ele>
        <time>2024-05-01T13:11:38Z</time>
      </trkpt>
      <trkpt lat="45.89173" lon="3.47889">
        <ele>295</ele>
        <time>2024-05-01T13:11:39Z</time>
      </trkpt>
      <trkpt lat="45.89168" lon="3.4788">
        <ele>295</ele>
        <time>2024-05-01T13:11:40Z</time>
      </trkpt>
      <trkpt lat="45.89164" lon="3.47871">
        <ele>295</ele>
        <time>2024-05-01T13:11:41Z</time>
      </trkpt>
      <trkpt lat="45.8916" lon="3.47863">
        <ele>295</ele>
        <time>2024-05-01T13:11:42Z</time>
      </trkpt>
      <trkpt lat="45.89155" lon="3.47854">
        <ele>294.8</ele>
        <time>2024-05-01T13:11:43Z</time>
      </trkpt>
      <trkpt lat="45.89151" lon="3.47845">
        <ele>294.8</ele>
        <time>2024-05-01T13:11:44Z</time>
      </trkpt>
      <trkpt lat="45.89146" lon="3.47836">
        <ele>294.8</ele>
        <time>2024-05-01T13:11:45Z</time>
      </trkpt>
      <trkpt lat="45.89142" lon="3.47828">
        <ele>294.8</ele>
        <time>2024-05-01T13:11:46Z</time>
      </trkpt>
      <trkpt lat="45.89138" lon="3.47819">
        <ele>294.8</ele>
        <time>2024-05-01T13:11:47Z</time>
      </trkpt>
      <trkpt lat="45.89133" lon="3.4781">
        <ele>294.8</ele>
        <time>2024-05-01T13:11:48Z</time>
      </trkpt>
      <trkpt lat="45.89129" lon="3.47801">
        <ele>294.8</ele>
        <time>2024-05-01T13:11:49Z</time>
      </trkpt>
      <trkpt lat="45.89124" lon="3.47792">
        <ele>294.8</ele>
        <time>2024-05-01T13:11:50Z</time>
      </trkpt>
      <trkpt lat="45.89119" lon="3.47783">
        <ele>294.8</ele>
        <time>2024-05-01T13:11:51Z</time>
      </trkpt>
      <trkpt lat="45.89115" lon="3.47774">
        <ele>294.8</ele>
        <time>2024-05-01T13:11:52Z</time>
      </trkpt>
      <trkpt lat="45.8911" lon="3.47765">
        <ele>294.8</ele>
        <time>2024-05-01T13:11:53Z</time>
      </trkpt>
      <trkpt lat="45.89105" lon="3.47756">
        <ele>294.8</ele>
        <time>2024-05-01T13:11:54Z</time>
      </trkpt>
      <trkpt lat="45.89101" lon="3.47748">
        <ele>294.6</ele>
        <time>2024-05-01T13:11:55Z</time>
      </trkpt>
      <trkpt lat="45.89096" lon="3.47739">
        <ele>294.6</ele>
        <time>2024-05-01T13:11:56Z</time>
      </trkpt>
      <trkpt lat="45.89092" lon="3.4773">
        <ele>294.6</ele>
        <time>2024-05-01T13:11:57Z</time>
      </trkpt>
      <trkpt lat="45.89087" lon="3.47722">
        <ele>294.4</ele>
        <time>2024-05-01T13:11:58Z</time>
      </trkpt>
      <trkpt lat="45.89083" lon="3.47713">
        <ele>294.4</ele>
        <time>2024-05-01T13:11:59Z</time>
      </trkpt>
      <trkpt lat="45.89078" lon="3.47704">
        <ele>294.2</ele>
        <time>2024-05-01T13:12:00Z</time>
      </trkpt>
      <trkpt lat="45.89074" lon="3.47695">
        <ele>294.2</ele>
        <time>2024-05-01T13:12:01Z</time>
      </trkpt>
      <trkpt lat="45.89069" lon="3.47685">
        <ele>294</ele>
        <time>2024-05-01T13:12:02Z</time>
      </trkpt>
      <trkpt lat="45.89064" lon="3.47676">
        <ele>294</ele>
        <time>2024-05-01T13:12:03Z</time>
      </trkpt>
      <trkpt lat="45.8906" lon="3.47666">
        <ele>293.8</ele>
        <time>2024-05-01T13:12:04Z</time>
      </trkpt>
      <trkpt lat="45.89055" lon="3.47656">
        <ele>293.6</ele>
        <time>2024-05-01T13:12:05Z</time>
      </trkpt>
      <trkpt lat="45.89052" lon="3.47645">
        <ele>293.6</ele>
        <time>2024-05-01T13:12:06Z</time>
      </trkpt>
      <trkpt lat="45.89049" lon="3.47634">
        <ele>293.4</ele>
        <time>2024-05-01T13:12:07Z</time>
      </trkpt>
      <trkpt lat="45.89049" lon="3.47634">
        <ele>293.2</ele>
        <time>2024-05-01T13:12:08Z</time>
      </trkpt>
      <trkpt lat="45.89044" lon="3.47611">
        <ele>293.2</ele>
        <time>2024-05-01T13:12:09Z</time>
      </trkpt>
      <trkpt lat="45.89041" lon="3.476">
        <ele>293.2</ele>
        <time>2024-05-01T13:12:10Z</time>
      </trkpt>
      <trkpt lat="45.89038" lon="3.47588">
        <ele>293</ele>
        <time>2024-05-01T13:12:11Z</time>
      </trkpt>
      <trkpt lat="45.89035" lon="3.47577">
        <ele>292.8</ele>
        <time>2024-05-01T13:12:12Z</time>
      </trkpt>
      <trkpt lat="45.89033" lon="3.47565">
        <ele>292.8</ele>
        <time>2024-05-01T13:12:13Z</time>
      </trkpt>
      <trkpt lat="45.8903" lon="3.47554">
        <ele>292.6</ele>
        <time>2024-05-01T13:12:14Z</time>
      </trkpt>
      <trkpt lat="45.89028" lon="3.47543">
        <ele>292.6</ele>
        <time>2024-05-01T13:12:15Z</time>
      </trkpt>
      <trkpt lat="45.89026" lon="3.47532">
        <ele>292.6</ele>
        <time>2024-05-01T13:12:16Z</time>
      </trkpt>
      <trkpt lat="45.89023" lon="3.47521">
        <ele>292.4</ele>
        <time>2024-05-01T13:12:17Z</time>
      </trkpt>
      <trkpt lat="45.89021" lon="3.4751">
        <ele>292.4</ele>
        <time>2024-05-01T13:12:18Z</time>
      </trkpt>
      <trkpt lat="45.89019" lon="3.47499">
        <ele>292.4</ele>
        <time>2024-05-01T13:12:19Z</time>
      </trkpt>
      <trkpt lat="45.89017" lon="3.47488">
        <ele>292.2</ele>
        <time>2024-05-01T13:12:20Z</time>
      </trkpt>
      <trkpt lat="45.89017" lon="3.47488">
        <ele>292</ele>
        <time>2024-05-01T13:12:21Z</time>
      </trkpt>
      <trkpt lat="45.89015" lon="3.47476">
        <ele>292</ele>
        <time>2024-05-01T13:12:22Z</time>
      </trkpt>
      <trkpt lat="45.89011" lon="3.47455">
        <ele>291.8</ele>
        <time>2024-05-01T13:12:23Z</time>
      </trkpt>
      <trkpt lat="45.89009" lon="3.47444">
        <ele>291.8</ele>
        <time>2024-05-01T13:12:24Z</time>
      </trkpt>
      <trkpt lat="45.89008" lon="3.47433">
        <ele>291.8</ele>
        <time>2024-05-01T13:12:25Z</time>
      </trkpt>
      <trkpt lat="45.89006" lon="3.47422">
        <ele>291.6</ele>
        <time>2024-05-01T13:12:26Z</time>
      </trkpt>
      <trkpt lat="45.89004" lon="3.47411">
        <ele>291.6</ele>
        <time>2024-05-01T13:12:27Z</time>
      </trkpt>
      <trkpt lat="45.89002" lon="3.474">
        <ele>291.4</ele>
        <time>2024-05-01T13:12:28Z</time>
      </trkpt>
      <trkpt lat="45.89" lon="3.47389">
        <ele>291.4</ele>
        <time>2024-05-01T13:12:29Z</time>
      </trkpt>
      <trkpt lat="45.88998" lon="3.47378">
        <ele>291.4</ele>
        <time>2024-05-01T13:12:30Z</time>
      </trkpt>
      <trkpt lat="45.88996" lon="3.47367">
        <ele>291.4</ele>
        <time>2024-05-01T13:12:31Z</time>
      </trkpt>
      <trkpt lat="45.88994" lon="3.47356">
        <ele>291.2</ele>
        <time>2024-05-01T13:12:32Z</time>
      </trkpt>
      <trkpt lat="45.88992" lon="3.47345">
        <ele>291.2</ele>
        <time>2024-05-01T13:12:33Z</time>
      </trkpt>
      <trkpt lat="45.88991" lon="3.47335">
        <ele>291.2</ele>
        <time>2024-05-01T13:12:34Z</time>
      </trkpt>
      <trkpt lat="45.88989" lon="3.47324">
        <ele>291.2</ele>
        <time>2024-05-01T13:12:35Z</time>
      </trkpt>
      <trkpt lat="45.88989" lon="3.47313">
        <ele>291</ele>
        <time>2024-05-01T13:12:36Z</time>
      </trkpt>
      <trkpt lat="45.88989" lon="3.47313">
        <ele>291</ele>
        <time>2024-05-01T13:12:37Z</time>
      </trkpt>
      <trkpt lat="45.88987" lon="3.47292">
        <ele>291</ele>
        <time>2024-05-01T13:12:38Z</time>
      </trkpt>
      <trkpt lat="45.88987" lon="3.47281">
        <ele>291</ele>
        <time>2024-05-01T13:12:39Z</time>
      </trkpt>
      <trkpt lat="45.88988" lon="3.4727">
        <ele>290.8</ele>
        <time>2024-05-01T13:12:40Z</time>
      </trkpt>
      <trkpt lat="45.88988" lon="3.4726">
        <ele>290.8</ele>
        <time>2024-05-01T13:12:41Z</time>
      </trkpt>
      <trkpt lat="45.88989" lon="3.47249">
        <ele>290.8</ele>
        <time>2024-05-01T13:12:42Z</time>
      </trkpt>
      <trkpt lat="45.8899" lon="3.47238">
        <ele>290.6</ele>
        <time>2024-05-01T13:12:43Z</time>
      </trkpt>
      <trkpt lat="45.88993" lon="3.47228">
        <ele>290.6</ele>
        <time>2024-05-01T13:12:44Z</time>
      </trkpt>
      <trkpt lat="45.88995" lon="3.47218">
        <ele>290.6</ele>
        <time>2024-05-01T13:12:45Z</time>
      </trkpt>
      <trkpt lat="45.88998" lon="3.47208">
        <ele>290.6</ele>
        <time>2024-05-01T13:12:46Z</time>
      </trkpt>
      <trkpt lat="45.89" lon="3.47198">
        <ele>290.6</ele>
        <time>2024-05-01T13:12:47Z</time>
      </trkpt>
      <trkpt lat="45.89003" lon="3.47188">
        <ele>290.6</ele>
        <time>2024-05-01T13:12:48Z</time>
      </trkpt>
      <trkpt lat="45.89006" lon="3.47178">
        <ele>290.6</ele>
        <time>2024-05-01T13:12:49Z</time>
      </trkpt>
      <trkpt lat="45.8901" lon="3.47169">
        <ele>290.6</ele>
        <time>2024-05-01T13:12:50Z</time>
      </trkpt>
      <trkpt lat="45.89014" lon="3.4716">
        <ele>290.4</ele>
        <time>2024-05-01T13:12:51Z</time>
      </trkpt>
      <trkpt lat="45.89018" lon="3.47151">
        <ele>290.2</ele>
        <time>2024-05-01T13:12:52Z</time>
      </trkpt>
      <trkpt lat="45.89022" lon="3.47142">
        <ele>290.2</ele>
        <time>2024-05-01T13:12:53Z</time>
      </trkpt>
      <trkpt lat="45.89026" lon="3.47134">
        <ele>290.2</ele>
        <time>2024-05-01T13:12:54Z</time>
      </trkpt>
      <trkpt lat="45.8903" lon="3.47125">
        <ele>290.2</ele>
        <time>2024-05-01T13:12:55Z</time>
      </trkpt>
      <trkpt lat="45.89034" lon="3.47116">
        <ele>290</ele>
        <time>2024-05-01T13:12:56Z</time>
      </trkpt>
      <trkpt lat="45.89038" lon="3.47108">
        <ele>290</ele>
        <time>2024-05-01T13:12:57Z</time>
      </trkpt>
      <trkpt lat="45.89042" lon="3.47099">
        <ele>289.8</ele>
        <time>2024-05-01T13:12:58Z</time>
      </trkpt>
      <trkpt lat="45.89046" lon="3.47091">
        <ele>289.8</ele>
        <time>2024-05-01T13:12:59Z</time>
      </trkpt>
      <trkpt lat="45.89049" lon="3.47083">
        <ele>289.6</ele>
        <time>2024-05-01T13:13:00Z</time>
      </trkpt>
      <trkpt lat="45.89053" lon="3.47075">
        <ele>289.6</ele>
        <time>2024-05-01T13:13:01Z</time>
      </trkpt>
      <trkpt lat="45.89057" lon="3.47067">
        <ele>289.4</ele>
        <time>2024-05-01T13:13:02Z</time>
      </trkpt>
      <trkpt lat="45.8906" lon="3.47059">
        <ele>289.4</ele>
        <time>2024-05-01T13:13:03Z</time>
      </trkpt>
      <trkpt lat="45.89064" lon="3.47051">
        <ele>289.4</ele>
        <time>2024-05-01T13:13:04Z</time>
      </trkpt>
      <trkpt lat="45.89067" lon="3.47044">
        <ele>289.4</ele>
        <time>2024-05-01T13:13:05Z</time>
      </trkpt>
      <trkpt lat="45.89069" lon="3.47035">
        <ele>289.2</ele>
        <time>2024-05-01T13:13:06Z</time>
      </trkpt>
      <trkpt lat="45.89071" lon="3.47026">
        <ele>289.2</ele>
        <time>2024-05-01T13:13:07Z</time>
      </trkpt>
      <trkpt lat="45.89073" lon="3.47017">
        <ele>289.2</ele>
        <time>2024-05-01T13:13:08Z</time>
      </trkpt>
      <trkpt lat="45.89074" lon="3.47007">
        <ele>289</ele>
        <time>2024-05-01T13:13:09Z</time>
      </trkpt>
      <trkpt lat="45.89074" lon="3.47007">
        <ele>289</ele>
        <time>2024-05-01T13:13:10Z</time>
      </trkpt>
      <trkpt lat="45.89077" lon="3.46989">
        <ele>288.8</ele>
        <time>2024-05-01T13:13:11Z</time>
      </trkpt>
      <trkpt lat="45.89077" lon="3.46979">
        <ele>288.8</ele>
        <time>2024-05-01T13:13:12Z</time>
      </trkpt>
      <trkpt lat="45.89077" lon="3.4697">
        <ele>288.8</ele>
        <time>2024-05-01T13:13:13Z</time>
      </trkpt>
      <trkpt lat="45.89077" lon="3.4696">
        <ele>288.8</ele>
        <time>2024-05-01T13:13:14Z</time>
      </trkpt>
      <trkpt lat="45.89077" lon="3.4695">
        <ele>288.8</ele>
        <time>2024-05-01T13:13:15Z</time>
      </trkpt>
      <trkpt lat="45.89077" lon="3.4694">
        <ele>288.8</ele>
        <time>2024-05-01T13:13:16Z</time>
      </trkpt>
      <trkpt lat="45.89077" lon="3.46931">
        <ele>288.8</ele>
        <time>2024-05-01T13:13:17Z</time>
      </trkpt>
      <trkpt lat="45.89077" lon="3.46921">
        <ele>288.8</ele>
        <time>2024-05-01T13:13:18Z</time>
      </trkpt>
      <trkpt lat="45.89076" lon="3.46912">
        <ele>288.8</ele>
        <time>2024-05-01T13:13:19Z</time>
      </trkpt>
      <trkpt lat="45.89076" lon="3.46903">
        <ele>288.8</ele>
        <time>2024-05-01T13:13:20Z</time>
      </trkpt>
      <trkpt lat="45.89076" lon="3.46894">
        <ele>288.8</ele>
        <time>2024-05-01T13:13:21Z</time>
      </trkpt>
      <trkpt lat="45.89076" lon="3.46884">
        <ele>288.6</ele>
        <time>2024-05-01T13:13:22Z</time>
      </trkpt>
      <trkpt lat="45.89076" lon="3.46875">
        <ele>288.6</ele>
        <time>2024-05-01T13:13:23Z</time>
      </trkpt>
      <trkpt lat="45.89076" lon="3.46866">
        <ele>288.6</ele>
        <time>2024-05-01T13:13:24Z</time>
      </trkpt>
      <trkpt lat="45.89076" lon="3.46857">
        <ele>288.6</ele>
        <time>2024-05-01T13:13:25Z</time>
      </trkpt>
      <trkpt lat="45.89076" lon="3.46848">
        <ele>288.6</ele>
        <time>2024-05-01T13:13:26Z</time>
      </trkpt>
      <trkpt lat="45.89076" lon="3.46838">
        <ele>288.6</ele>
        <time>2024-05-01T13:13:27Z</time>
      </trkpt>
      <trkpt lat="45.89076" lon="3.46829">
        <ele>288.6</ele>
        <time>2024-05-01T13:13:28Z</time>
      </trkpt>
      <trkpt lat="45.89076" lon="3.4682">
        <ele>288.6</ele>
        <time>2024-05-01T13:13:29Z</time>
      </trkpt>
      <trkpt lat="45.89075" lon="3.46811">
        <ele>288.4</ele>
        <time>2024-05-01T13:13:30Z</time>
      </trkpt>
      <trkpt lat="45.89075" lon="3.46801">
        <ele>288.4</ele>
        <time>2024-05-01T13:13:31Z</time>
      </trkpt>
      <trkpt lat="45.89075" lon="3.46792">
        <ele>288.4</ele>
        <time>2024-05-01T13:13:32Z</time>
      </trkpt>
      <trkpt lat="45.89075" lon="3.46783">
        <ele>288.4</ele>
        <time>2024-05-01T13:13:33Z</time>
      </trkpt>
      <trkpt lat="45.89075" lon="3.46774">
        <ele>288.4</ele>
        <time>2024-05-01T13:13:34Z</time>
      </trkpt>
      <trkpt lat="45.89076" lon="3.46764">
        <ele>288.4</ele>
        <time>2024-05-01T13:13:35Z</time>
      </trkpt>
      <trkpt lat="45.89078" lon="3.46756">
        <ele>288.4</ele>
        <time>2024-05-01T13:13:36Z</time>
      </trkpt>
      <trkpt lat="45.8908" lon="3.46747">
        <ele>288.4</ele>
        <time>2024-05-01T13:13:37Z</time>
      </trkpt>
      <trkpt lat="45.89082" lon="3.46738">
        <ele>288.4</ele>
        <time>2024-05-01T13:13:38Z</time>
      </trkpt>
      <trkpt lat="45.89084" lon="3.46729">
        <ele>288.4</ele>
        <time>2024-05-01T13:13:39Z</time>
      </trkpt>
      <trkpt lat="45.89086" lon="3.4672">
        <ele>288.2</ele>
        <time>2024-05-01T13:13:40Z</time>
      </trkpt>
      <trkpt lat="45.89088" lon="3.46712">
        <ele>288.2</ele>
        <time>2024-05-01T13:13:41Z</time>
      </trkpt>
      <trkpt lat="45.8909" lon="3.46703">
        <ele>288.2</ele>
        <time>2024-05-01T13:13:42Z</time>
      </trkpt>
      <trkpt lat="45.89092" lon="3.46695">
        <ele>288.2</ele>
        <time>2024-05-01T13:13:43Z</time>
      </trkpt>
      <trkpt lat="45.89095" lon="3.46687">
        <ele>288.2</ele>
        <time>2024-05-01T13:13:44Z</time>
      </trkpt>
      <trkpt lat="45.89098" lon="3.4668">
        <ele>288.2</ele>
        <time>2024-05-01T13:13:45Z</time>
      </trkpt>
      <trkpt lat="45.89101" lon="3.46673">
        <ele>288.2</ele>
        <time>2024-05-01T13:13:46Z</time>
      </trkpt>
      <trkpt lat="45.89104" lon="3.46667">
        <ele>288</ele>
        <time>2024-05-01T13:13:47Z</time>
      </trkpt>
      <trkpt lat="45.89107" lon="3.46661">
        <ele>288</ele>
        <time>2024-05-01T13:13:48Z</time>
      </trkpt>
      <trkpt lat="45.8911" lon="3.46655">
        <ele>288</ele>
        <time>2024-05-01T13:13:49Z</time>
      </trkpt>
      <trkpt lat="45.89112" lon="3.46649">
        <ele>287.8</ele>
        <time>2024-05-01T13:13:50Z</time>
      </trkpt>
      <trkpt lat="45.89115" lon="3.46644">
        <ele>287.8</ele>
        <time>2024-05-01T13:13:51Z</time>
      </trkpt>
      <trkpt lat="45.89117" lon="3.46639">
        <ele>287.8</ele>
        <time>2024-05-01T13:13:52Z</time>
      </trkpt>
      <trkpt lat="45.89119" lon="3.46634">
        <ele>287.8</ele>
        <time>2024-05-01T13:13:53Z</time>
      </trkpt>
      <trkpt lat="45.89122" lon="3.46629">
        <ele>287.8</ele>
        <time>2024-05-01T13:13:54Z</time>
      </trkpt>
      <trkpt lat="45.89124" lon="3.46623">
        <ele>287.8</ele>
        <time>2024-05-01T13:13:55Z</time>
      </trkpt>
      <trkpt lat="45.89126" lon="3.46619">
        <ele>287.8</ele>
        <time>2024-05-01T13:13:56Z</time>
      </trkpt>
      <trkpt lat="45.89128" lon="3.46614">
        <ele>287.8</ele>
        <time>2024-05-01T13:13:57Z</time>
      </trkpt>
      <trkpt lat="45.8913" lon="3.46609">
        <ele>287.8</ele>
        <time>2024-05-01T13:13:58Z</time>
      </trkpt>
      <trkpt lat="45.89132" lon="3.46604">
        <ele>287.8</ele>
        <time>2024-05-01T13:13:59Z</time>
      </trkpt>
      <trkpt lat="45.89134" lon="3.46599">
        <ele>287.8</ele>
        <time>2024-05-01T13:14:00Z</time>
      </trkpt>
      <trkpt lat="45.89136" lon="3.46594">
        <ele>287.8</ele>
        <time>2024-05-01T13:14:01Z</time>
      </trkpt>
      <trkpt lat="45.89138" lon="3.46589">
        <ele>287.8</ele>
        <time>2024-05-01T13:14:02Z</time>
      </trkpt>
      <trkpt lat="45.8914" lon="3.46584">
        <ele>288</ele>
        <time>2024-05-01T13:14:03Z</time>
      </trkpt>
      <trkpt lat="45.89142" lon="3.46578">
        <ele>287.6</ele>
        <time>2024-05-01T13:14:04Z</time>
      </trkpt>
      <trkpt lat="45.89144" lon="3.46573">
        <ele>288</ele>
        <time>2024-05-01T13:14:05Z</time>
      </trkpt>
      <trkpt lat="45.89146" lon="3.46569">
        <ele>288.4</ele>
        <time>2024-05-01T13:14:06Z</time>
      </trkpt>
      <trkpt lat="45.89147" lon="3.46564">
        <ele>288.2</ele>
        <time>2024-05-01T13:14:07Z</time>
      </trkpt>
      <trkpt lat="45.89148" lon="3.46559">
        <ele>288.2</ele>
        <time>2024-05-01T13:14:08Z</time>
      </trkpt>
      <trkpt lat="45.8915" lon="3.46554">
        <ele>288.4</ele>
        <time>2024-05-01T13:14:09Z</time>
      </trkpt>
      <trkpt lat="45.89151" lon="3.4655">
        <ele>288.4</ele>
        <time>2024-05-01T13:14:10Z</time>
      </trkpt>
      <trkpt lat="45.89152" lon="3.46545">
        <ele>288.4</ele>
        <time>2024-05-01T13:14:11Z</time>
      </trkpt>
      <trkpt lat="45.89153" lon="3.4654">
        <ele>288.6</ele>
        <time>2024-05-01T13:14:12Z</time>
      </trkpt>
      <trkpt lat="45.89154" lon="3.46536">
        <ele>288.6</ele>
        <time>2024-05-01T13:14:13Z</time>
      </trkpt>
      <trkpt lat="45.89155" lon="3.46531">
        <ele>288.6</ele>
        <time>2024-05-01T13:14:14Z</time>
      </trkpt>
      <trkpt lat="45.89156" lon="3.46527">
        <ele>288.8</ele>
        <time>2024-05-01T13:14:15Z</time>
      </trkpt>
      <trkpt lat="45.89157" lon="3.46522">
        <ele>288.8</ele>
        <time>2024-05-01T13:14:16Z</time>
      </trkpt>
      <trkpt lat="45.89158" lon="3.46518">
        <ele>288.8</ele>
        <time>2024-05-01T13:14:17Z</time>
      </trkpt>
      <trkpt lat="45.89159" lon="3.46514">
        <ele>289</ele>
        <time>2024-05-01T13:14:18Z</time>
      </trkpt>
      <trkpt lat="45.8916" lon="3.4651">
        <ele>289</ele>
        <time>2024-05-01T13:14:19Z</time>
      </trkpt>
      <trkpt lat="45.89161" lon="3.46505">
        <ele>289.2</ele>
        <time>2024-05-01T13:14:20Z</time>
      </trkpt>
      <trkpt lat="45.89161" lon="3.46501">
        <ele>289.2</ele>
        <time>2024-05-01T13:14:21Z</time>
      </trkpt>
      <trkpt lat="45.89162" lon="3.46496">
        <ele>289.2</ele>
        <time>2024-05-01T13:14:22Z</time>
      </trkpt>
      <trkpt lat="45.89162" lon="3.46492">
        <ele>289.4</ele>
        <time>2024-05-01T13:14:23Z</time>
      </trkpt>
      <trkpt lat="45.89162" lon="3.46487">
        <ele>289.4</ele>
        <time>2024-05-01T13:14:24Z</time>
      </trkpt>
      <trkpt lat="45.89162" lon="3.46483">
        <ele>289.6</ele>
        <time>2024-05-01T13:14:25Z</time>
      </trkpt>
      <trkpt lat="45.89163" lon="3.46479">
        <ele>289.6</ele>
        <time>2024-05-01T13:14:26Z</time>
      </trkpt>
      <trkpt lat="45.89163" lon="3.46474">
        <ele>289.8</ele>
        <time>2024-05-01T13:14:27Z</time>
      </trkpt>
      <trkpt lat="45.89163" lon="3.4647">
        <ele>289.8</ele>
        <time>2024-05-01T13:14:28Z</time>
      </trkpt>
      <trkpt lat="45.89164" lon="3.46466">
        <ele>290</ele>
        <time>2024-05-01T13:14:29Z</time>
      </trkpt>
      <trkpt lat="45.89164" lon="3.46461">
        <ele>290</ele>
        <time>2024-05-01T13:14:30Z</time>
      </trkpt>
      <trkpt lat="45.89164" lon="3.46457">
        <ele>290</ele>
        <time>2024-05-01T13:14:31Z</time>
      </trkpt>
      <trkpt lat="45.89164" lon="3.46452">
        <ele>290</ele>
        <time>2024-05-01T13:14:32Z</time>
      </trkpt>
      <trkpt lat="45.89165" lon="3.46448">
        <ele>290.2</ele>
        <time>2024-05-01T13:14:33Z</time>
      </trkpt>
      <trkpt lat="45.89165" lon="3.46443">
        <ele>290.2</ele>
        <time>2024-05-01T13:14:34Z</time>
      </trkpt>
      <trkpt lat="45.89165" lon="3.46437">
        <ele>290.2</ele>
        <time>2024-05-01T13:14:35Z</time>
      </trkpt>
      <trkpt lat="45.89164" lon="3.46432">
        <ele>290.4</ele>
        <time>2024-05-01T13:14:36Z</time>
      </trkpt>
      <trkpt lat="45.89163" lon="3.46427">
        <ele>290.4</ele>
        <time>2024-05-01T13:14:37Z</time>
      </trkpt>
      <trkpt lat="45.89162" lon="3.46422">
        <ele>290.4</ele>
        <time>2024-05-01T13:14:38Z</time>
      </trkpt>
      <trkpt lat="45.89161" lon="3.46417">
        <ele>290.4</ele>
        <time>2024-05-01T13:14:39Z</time>
      </trkpt>
      <trkpt lat="45.89161" lon="3.46413">
        <ele>290.4</ele>
        <time>2024-05-01T13:14:40Z</time>
      </trkpt>
      <trkpt lat="45.8916" lon="3.46408">
        <ele>290.6</ele>
        <time>2024-05-01T13:14:41Z</time>
      </trkpt>
      <trkpt lat="45.89159" lon="3.46403">
        <ele>290.6</ele>
        <time>2024-05-01T13:14:42Z</time>
      </trkpt>
      <trkpt lat="45.89158" lon="3.46398">
        <ele>290.6</ele>
        <time>2024-05-01T13:14:43Z</time>
      </trkpt>
      <trkpt lat="45.89158" lon="3.46393">
        <ele>290.8</ele>
        <time>2024-05-01T13:14:44Z</time>
      </trkpt>
      <trkpt lat="45.89157" lon="3.46387">
        <ele>290.8</ele>
        <time>2024-05-01T13:14:45Z</time>
      </trkpt>
      <trkpt lat="45.89156" lon="3.46381">
        <ele>290.8</ele>
        <time>2024-05-01T13:14:46Z</time>
      </trkpt>
      <trkpt lat="45.89155" lon="3.46376">
        <ele>291</ele>
        <time>2024-05-01T13:14:47Z</time>
      </trkpt>
      <trkpt lat="45.89154" lon="3.4637">
        <ele>291</ele>
        <time>2024-05-01T13:14:48Z</time>
      </trkpt>
      <trkpt lat="45.89153" lon="3.46364">
        <ele>291.2</ele>
        <time>2024-05-01T13:14:49Z</time>
      </trkpt>
      <trkpt lat="45.89152" lon="3.46358">
        <ele>291.2</ele>
        <time>2024-05-01T13:14:50Z</time>
      </trkpt>
      <trkpt lat="45.89151" lon="3.46352">
        <ele>291.2</ele>
        <time>2024-05-01T13:14:51Z</time>
      </trkpt>
      <trkpt lat="45.8915" lon="3.46345">
        <ele>291.2</ele>
        <time>2024-05-01T13:14:52Z</time>
      </trkpt>
      <trkpt lat="45.89149" lon="3.46339">
        <ele>291.4</ele>
        <time>2024-05-01T13:14:53Z</time>
      </trkpt>
      <trkpt lat="45.89148" lon="3.46332">
        <ele>291.4</ele>
        <time>2024-05-01T13:14:54Z</time>
      </trkpt>
      <trkpt lat="45.89147" lon="3.46326">
        <ele>291.4</ele>
        <time>2024-05-01T13:14:55Z</time>
      </trkpt>
      <trkpt lat="45.89146" lon="3.46319">
        <ele>291.6</ele>
        <time>2024-05-01T13:14:56Z</time>
      </trkpt>
      <trkpt lat="45.89145" lon="3.46312">
        <ele>291.6</ele>
        <time>2024-05-01T13:14:57Z</time>
      </trkpt>
      <trkpt lat="45.89144" lon="3.46305">
        <ele>291.6</ele>
        <time>2024-05-01T13:14:58Z</time>
      </trkpt>
      <trkpt lat="45.89143" lon="3.46298">
        <ele>291.8</ele>
        <time>2024-05-01T13:14:59Z</time>
      </trkpt>
      <trkpt lat="45.89142" lon="3.46291">
        <ele>292</ele>
        <time>2024-05-01T13:15:00Z</time>
      </trkpt>
      <trkpt lat="45.89141" lon="3.46283">
        <ele>292</ele>
        <time>2024-05-01T13:15:01Z</time>
      </trkpt>
      <trkpt lat="45.8914" lon="3.46276">
        <ele>292</ele>
        <time>2024-05-01T13:15:02Z</time>
      </trkpt>
      <trkpt lat="45.89139" lon="3.46268">
        <ele>292</ele>
        <time>2024-05-01T13:15:03Z</time>
      </trkpt>
      <trkpt lat="45.89138" lon="3.4626">
        <ele>292.2</ele>
        <time>2024-05-01T13:15:04Z</time>
      </trkpt>
      <trkpt lat="45.89137" lon="3.46252">
        <ele>292.2</ele>
        <time>2024-05-01T13:15:05Z</time>
      </trkpt>
      <trkpt lat="45.89136" lon="3.46244">
        <ele>292.4</ele>
        <time>2024-05-01T13:15:06Z</time>
      </trkpt>
      <trkpt lat="45.89135" lon="3.46236">
        <ele>292.4</ele>
        <time>2024-05-01T13:15:07Z</time>
      </trkpt>
      <trkpt lat="45.89133" lon="3.46228">
        <ele>292.6</ele>
        <time>2024-05-01T13:15:08Z</time>
      </trkpt>
      <trkpt lat="45.89132" lon="3.4622">
        <ele>292.6</ele>
        <time>2024-05-01T13:15:09Z</time>
      </trkpt>
      <trkpt lat="45.89131" lon="3.46211">
        <ele>292.6</ele>
        <time>2024-05-01T13:15:10Z</time>
      </trkpt>
      <trkpt lat="45.8913" lon="3.46202">
        <ele>292.8</ele>
        <time>2024-05-01T13:15:11Z</time>
      </trkpt>
      <trkpt lat="45.89129" lon="3.46194">
        <ele>292.8</ele>
        <time>2024-05-01T13:15:12Z</time>
      </trkpt>
      <trkpt lat="45.89128" lon="3.46185">
        <ele>293</ele>
        <time>2024-05-01T13:15:13Z</time>
      </trkpt>
      <trkpt lat="45.89127" lon="3.46177">
        <ele>293</ele>
        <time>2024-05-01T13:15:14Z</time>
      </trkpt>
      <trkpt lat="45.89125" lon="3.46168">
        <ele>293.2</ele>
        <time>2024-05-01T13:15:15Z</time>
      </trkpt>
      <trkpt lat="45.89123" lon="3.4616">
        <ele>293.4</ele>
        <time>2024-05-01T13:15:16Z</time>
      </trkpt>
      <trkpt lat="45.89121" lon="3.46151">
        <ele>293.4</ele>
        <time>2024-05-01T13:15:17Z</time>
      </trkpt>
      <trkpt lat="45.89119" lon="3.46143">
        <ele>293.6</ele>
        <time>2024-05-01T13:15:18Z</time>
      </trkpt>
      <trkpt lat="45.89117" lon="3.46135">
        <ele>293.6</ele>
        <time>2024-05-01T13:15:19Z</time>
      </trkpt>
      <trkpt lat="45.89116" lon="3.46126">
        <ele>293.8</ele>
        <time>2024-05-01T13:15:20Z</time>
      </trkpt>
      <trkpt lat="45.89114" lon="3.46118">
        <ele>293.8</ele>
        <time>2024-05-01T13:15:21Z</time>
      </trkpt>
      <trkpt lat="45.89112" lon="3.4611">
        <ele>294</ele>
        <time>2024-05-01T13:15:22Z</time>
      </trkpt>
      <trkpt lat="45.8911" lon="3.46102">
        <ele>294</ele>
        <time>2024-05-01T13:15:23Z</time>
      </trkpt>
      <trkpt lat="45.89108" lon="3.46094">
        <ele>294</ele>
        <time>2024-05-01T13:15:24Z</time>
      </trkpt>
      <trkpt lat="45.89107" lon="3.46085">
        <ele>294.2</ele>
        <time>2024-05-01T13:15:25Z</time>
      </trkpt>
      <trkpt lat="45.89105" lon="3.46077">
        <ele>294.2</ele>
        <time>2024-05-01T13:15:26Z</time>
      </trkpt>
      <trkpt lat="45.89103" lon="3.46068">
        <ele>294.4</ele>
        <time>2024-05-01T13:15:27Z</time>
      </trkpt>
      <trkpt lat="45.89101" lon="3.4606">
        <ele>294.4</ele>
        <time>2024-05-01T13:15:28Z</time>
      </trkpt>
      <trkpt lat="45.89099" lon="3.46051">
        <ele>294.6</ele>
        <time>2024-05-01T13:15:29Z</time>
      </trkpt>
      <trkpt lat="45.89097" lon="3.46043">
        <ele>294.6</ele>
        <time>2024-05-01T13:15:30Z</time>
      </trkpt>
      <trkpt lat="45.89095" lon="3.46034">
        <ele>294.8</ele>
        <time>2024-05-01T13:15:31Z</time>
      </trkpt>
      <trkpt lat="45.89094" lon="3.46025">
        <ele>295</ele>
        <time>2024-05-01T13:15:32Z</time>
      </trkpt>
      <trkpt lat="45.89092" lon="3.46017">
        <ele>295</ele>
        <time>2024-05-01T13:15:33Z</time>
      </trkpt>
      <trkpt lat="45.8909" lon="3.46008">
        <ele>295.2</ele>
        <time>2024-05-01T13:15:34Z</time>
      </trkpt>
      <trkpt lat="45.89088" lon="3.45999">
        <ele>295.2</ele>
        <time>2024-05-01T13:15:35Z</time>
      </trkpt>
      <trkpt lat="45.89086" lon="3.45991">
        <ele>295.4</ele>
        <time>2024-05-01T13:15:36Z</time>
      </trkpt>
      <trkpt lat="45.89084" lon="3.45982">
        <ele>295.4</ele>
        <time>2024-05-01T13:15:37Z</time>
      </trkpt>
      <trkpt lat="45.89082" lon="3.45974">
        <ele>295.6</ele>
        <time>2024-05-01T13:15:38Z</time>
      </trkpt>
      <trkpt lat="45.8908" lon="3.45965">
        <ele>295.6</ele>
        <time>2024-05-01T13:15:39Z</time>
      </trkpt>
      <trkpt lat="45.89079" lon="3.45957">
        <ele>295.6</ele>
        <time>2024-05-01T13:15:40Z</time>
      </trkpt>
      <trkpt lat="45.89077" lon="3.45948">
        <ele>295.8</ele>
        <time>2024-05-01T13:15:41Z</time>
      </trkpt>
      <trkpt lat="45.89075" lon="3.4594">
        <ele>295.8</ele>
        <time>2024-05-01T13:15:42Z</time>
      </trkpt>
      <trkpt lat="45.89073" lon="3.45931">
        <ele>296</ele>
        <time>2024-05-01T13:15:43Z</time>
      </trkpt>
      <trkpt lat="45.89071" lon="3.45923">
        <ele>296</ele>
        <time>2024-05-01T13:15:44Z</time>
      </trkpt>
      <trkpt lat="45.89069" lon="3.45915">
        <ele>296.2</ele>
        <time>2024-05-01T13:15:45Z</time>
      </trkpt>
      <trkpt lat="45.89068" lon="3.45907">
        <ele>296.2</ele>
        <time>2024-05-01T13:15:46Z</time>
      </trkpt>
      <trkpt lat="45.89066" lon="3.45899">
        <ele>296.4</ele>
        <time>2024-05-01T13:15:47Z</time>
      </trkpt>
      <trkpt lat="45.89064" lon="3.45891">
        <ele>296.4</ele>
        <time>2024-05-01T13:15:48Z</time>
      </trkpt>
      <trkpt lat="45.89062" lon="3.45882">
        <ele>296.6</ele>
        <time>2024-05-01T13:15:49Z</time>
      </trkpt>
      <trkpt lat="45.89061" lon="3.45874">
        <ele>296.6</ele>
        <time>2024-05-01T13:15:50Z</time>
      </trkpt>
      <trkpt lat="45.89059" lon="3.45866">
        <ele>296.6</ele>
        <time>2024-05-01T13:15:51Z</time>
      </trkpt>
      <trkpt lat="45.89057" lon="3.45858">
        <ele>296.8</ele>
        <time>2024-05-01T13:15:52Z</time>
      </trkpt>
      <trkpt lat="45.89055" lon="3.4585">
        <ele>296.8</ele>
        <time>2024-05-01T13:15:53Z</time>
      </trkpt>
      <trkpt lat="45.89054" lon="3.45842">
        <ele>297</ele>
        <time>2024-05-01T13:15:54Z</time>
      </trkpt>
      <trkpt lat="45.89052" lon="3.45834">
        <ele>297</ele>
        <time>2024-05-01T13:15:55Z</time>
      </trkpt>
      <trkpt lat="45.8905" lon="3.45826">
        <ele>297</ele>
        <time>2024-05-01T13:15:56Z</time>
      </trkpt>
      <trkpt lat="45.89048" lon="3.45818">
        <ele>297.2</ele>
        <time>2024-05-01T13:15:57Z</time>
      </trkpt>
      <trkpt lat="45.89047" lon="3.4581">
        <ele>297.2</ele>
        <time>2024-05-01T13:15:58Z</time>
      </trkpt>
      <trkpt lat="45.89045" lon="3.45802">
        <ele>297.2</ele>
        <time>2024-05-01T13:15:59Z</time>
      </trkpt>
      <trkpt lat="45.89043" lon="3.45794">
        <ele>297.4</ele>
        <time>2024-05-01T13:16:00Z</time>
      </trkpt>
      <trkpt lat="45.89041" lon="3.45786">
        <ele>297.4</ele>
        <time>2024-05-01T13:16:01Z</time>
      </trkpt>
      <trkpt lat="45.8904" lon="3.45778">
        <ele>297.4</ele>
        <time>2024-05-01T13:16:02Z</time>
      </trkpt>
      <trkpt lat="45.89038" lon="3.4577">
        <ele>297.6</ele>
        <time>2024-05-01T13:16:03Z</time>
      </trkpt>
      <trkpt lat="45.89036" lon="3.45762">
        <ele>297.6</ele>
        <time>2024-05-01T13:16:04Z</time>
      </trkpt>
      <trkpt lat="45.89034" lon="3.45755">
        <ele>297.6</ele>
        <time>2024-05-01T13:16:05Z</time>
      </trkpt>
      <trkpt lat="45.89033" lon="3.45747">
        <ele>297.8</ele>
        <time>2024-05-01T13:16:06Z</time>
      </trkpt>
      <trkpt lat="45.89031" lon="3.45739">
        <ele>297.8</ele>
        <time>2024-05-01T13:16:07Z</time>
      </trkpt>
      <trkpt lat="45.89029" lon="3.45732">
        <ele>297.8</ele>
        <time>2024-05-01T13:16:08Z</time>
      </trkpt>
      <trkpt lat="45.89027" lon="3.45724">
        <ele>298</ele>
        <time>2024-05-01T13:16:09Z</time>
      </trkpt>
      <trkpt lat="45.89025" lon="3.45716">
        <ele>298</ele>
        <time>2024-05-01T13:16:10Z</time>
      </trkpt>
      <trkpt lat="45.89024" lon="3.45708">
        <ele>298</ele>
        <time>2024-05-01T13:16:11Z</time>
      </trkpt>
      <trkpt lat="45.89022" lon="3.457">
        <ele>298.2</ele>
        <time>2024-05-01T13:16:12Z</time>
      </trkpt>
      <trkpt lat="45.8902" lon="3.45692">
        <ele>298.2</ele>
        <time>2024-05-01T13:16:13Z</time>
      </trkpt>
      <trkpt lat="45.89018" lon="3.45684">
        <ele>298.2</ele>
        <time>2024-05-01T13:16:14Z</time>
      </trkpt>
      <trkpt lat="45.89016" lon="3.45677">
        <ele>298.4</ele>
        <time>2024-05-01T13:16:15Z</time>
      </trkpt>
      <trkpt lat="45.89014" lon="3.45669">
        <ele>298.4</ele>
        <time>2024-05-01T13:16:16Z</time>
      </trkpt>
      <trkpt lat="45.89012" lon="3.45661">
        <ele>298.6</ele>
        <time>2024-05-01T13:16:17Z</time>
      </trkpt>
      <trkpt lat="45.89011" lon="3.45653">
        <ele>298.6</ele>
        <time>2024-05-01T13:16:18Z</time>
      </trkpt>
      <trkpt lat="45.89009" lon="3.45645">
        <ele>298.8</ele>
        <time>2024-05-01T13:16:19Z</time>
      </trkpt>
      <trkpt lat="45.89007" lon="3.45637">
        <ele>298.8</ele>
        <time>2024-05-01T13:16:20Z</time>
      </trkpt>
      <trkpt lat="45.89005" lon="3.45629">
        <ele>298.8</ele>
        <time>2024-05-01T13:16:21Z</time>
      </trkpt>
      <trkpt lat="45.89003" lon="3.45621">
        <ele>299</ele>
        <time>2024-05-01T13:16:22Z</time>
      </trkpt>
      <trkpt lat="45.89001" lon="3.45613">
        <ele>299</ele>
        <time>2024-05-01T13:16:23Z</time>
      </trkpt>
      <trkpt lat="45.88999" lon="3.45605">
        <ele>299.2</ele>
        <time>2024-05-01T13:16:24Z</time>
      </trkpt>
      <trkpt lat="45.88998" lon="3.45597">
        <ele>299.2</ele>
        <time>2024-05-01T13:16:25Z</time>
      </trkpt>
      <trkpt lat="45.88996" lon="3.45589">
        <ele>299.4</ele>
        <time>2024-05-01T13:16:26Z</time>
      </trkpt>
      <trkpt lat="45.88994" lon="3.45581">
        <ele>299.4</ele>
        <time>2024-05-01T13:16:27Z</time>
      </trkpt>
      <trkpt lat="45.88992" lon="3.45573">
        <ele>299.6</ele>
        <time>2024-05-01T13:16:28Z</time>
      </trkpt>
      <trkpt lat="45.8899" lon="3.45565">
        <ele>299.6</ele>
        <time>2024-05-01T13:16:29Z</time>
      </trkpt>
      <trkpt lat="45.88988" lon="3.45557">
        <ele>299.6</ele>
        <time>2024-05-01T13:16:30Z</time>
      </trkpt>
      <trkpt lat="45.88986" lon="3.45549">
        <ele>299.6</ele>
        <time>2024-05-01T13:16:31Z</time>
      </trkpt>
      <trkpt lat="45.88984" lon="3.45542">
        <ele>299.8</ele>
        <time>2024-05-01T13:16:32Z</time>
      </trkpt>
      <trkpt lat="45.88983" lon="3.45534">
        <ele>299.8</ele>
        <time>2024-05-01T13:16:33Z</time>
      </trkpt>
      <trkpt lat="45.88981" lon="3.45526">
        <ele>300</ele>
        <time>2024-05-01T13:16:34Z</time>
      </trkpt>
      <trkpt lat="45.88979" lon="3.45518">
        <ele>300</ele>
        <time>2024-05-01T13:16:35Z</time>
      </trkpt>
      <trkpt lat="45.88977" lon="3.45509">
        <ele>300</ele>
        <time>2024-05-01T13:16:36Z</time>
      </trkpt>
      <trkpt lat="45.88975" lon="3.455">
        <ele>300.2</ele>
        <time>2024-05-01T13:16:37Z</time>
      </trkpt>
      <trkpt lat="45.88972" lon="3.45492">
        <ele>300.2</ele>
        <time>2024-05-01T13:16:38Z</time>
      </trkpt>
      <trkpt lat="45.8897" lon="3.45484">
        <ele>300.2</ele>
        <time>2024-05-01T13:16:39Z</time>
      </trkpt>
      <trkpt lat="45.88968" lon="3.45476">
        <ele>300.2</ele>
        <time>2024-05-01T13:16:40Z</time>
      </trkpt>
      <trkpt lat="45.88965" lon="3.45468">
        <ele>300.2</ele>
        <time>2024-05-01T13:16:41Z</time>
      </trkpt>
      <trkpt lat="45.88963" lon="3.4546">
        <ele>300.4</ele>
        <time>2024-05-01T13:16:42Z</time>
      </trkpt>
      <trkpt lat="45.88961" lon="3.45451">
        <ele>300.4</ele>
        <time>2024-05-01T13:16:43Z</time>
      </trkpt>
      <trkpt lat="45.88959" lon="3.45443">
        <ele>300.4</ele>
        <time>2024-05-01T13:16:44Z</time>
      </trkpt>
      <trkpt lat="45.88956" lon="3.45435">
        <ele>300.4</ele>
        <time>2024-05-01T13:16:45Z</time>
      </trkpt>
      <trkpt lat="45.88954" lon="3.45427">
        <ele>300.6</ele>
        <time>2024-05-01T13:16:46Z</time>
      </trkpt>
      <trkpt lat="45.88952" lon="3.45419">
        <ele>300.6</ele>
        <time>2024-05-01T13:16:47Z</time>
      </trkpt>
      <trkpt lat="45.88949" lon="3.4541">
        <ele>300.6</ele>
        <time>2024-05-01T13:16:48Z</time>
      </trkpt>
      <trkpt lat="45.88947" lon="3.45402">
        <ele>300.6</ele>
        <time>2024-05-01T13:16:49Z</time>
      </trkpt>
      <trkpt lat="45.88945" lon="3.45394">
        <ele>300.8</ele>
        <time>2024-05-01T13:16:50Z</time>
      </trkpt>
      <trkpt lat="45.88943" lon="3.45385">
        <ele>300.8</ele>
        <time>2024-05-01T13:16:51Z</time>
      </trkpt>
      <trkpt lat="45.8894" lon="3.45377">
        <ele>301</ele>
        <time>2024-05-01T13:16:52Z</time>
      </trkpt>
      <trkpt lat="45.88938" lon="3.45369">
        <ele>301</ele>
        <time>2024-05-01T13:16:53Z</time>
      </trkpt>
      <trkpt lat="45.88936" lon="3.45361">
        <ele>301</ele>
        <time>2024-05-01T13:16:54Z</time>
      </trkpt>
      <trkpt lat="45.88934" lon="3.45353">
        <ele>301.2</ele>
        <time>2024-05-01T13:16:55Z</time>
      </trkpt>
      <trkpt lat="45.88931" lon="3.45345">
        <ele>301.2</ele>
        <time>2024-05-01T13:16:56Z</time>
      </trkpt>
      <trkpt lat="45.88929" lon="3.45337">
        <ele>301.2</ele>
        <time>2024-05-01T13:16:57Z</time>
      </trkpt>
      <trkpt lat="45.88927" lon="3.45329">
        <ele>301.4</ele>
        <time>2024-05-01T13:16:58Z</time>
      </trkpt>
      <trkpt lat="45.88925" lon="3.45321">
        <ele>301.4</ele>
        <time>2024-05-01T13:16:59Z</time>
      </trkpt>
      <trkpt lat="45.88922" lon="3.45313">
        <ele>301.4</ele>
        <time>2024-05-01T13:17:00Z</time>
      </trkpt>
      <trkpt lat="45.8892" lon="3.45304">
        <ele>301.6</ele>
        <time>2024-05-01T13:17:01Z</time>
      </trkpt>
      <trkpt lat="45.88918" lon="3.45296">
        <ele>301.8</ele>
        <time>2024-05-01T13:17:02Z</time>
      </trkpt>
      <trkpt lat="45.88915" lon="3.45287">
        <ele>301.8</ele>
        <time>2024-05-01T13:17:03Z</time>
      </trkpt>
      <trkpt lat="45.88913" lon="3.45279">
        <ele>302</ele>
        <time>2024-05-01T13:17:04Z</time>
      </trkpt>
      <trkpt lat="45.88911" lon="3.45271">
        <ele>302</ele>
        <time>2024-05-01T13:17:05Z</time>
      </trkpt>
      <trkpt lat="45.88908" lon="3.45262">
        <ele>302.2</ele>
        <time>2024-05-01T13:17:06Z</time>
      </trkpt>
      <trkpt lat="45.88906" lon="3.45254">
        <ele>302.2</ele>
        <time>2024-05-01T13:17:07Z</time>
      </trkpt>
      <trkpt lat="45.88904" lon="3.45245">
        <ele>302.4</ele>
        <time>2024-05-01T13:17:08Z</time>
      </trkpt>
      <trkpt lat="45.88901" lon="3.45237">
        <ele>302.4</ele>
        <time>2024-05-01T13:17:09Z</time>
      </trkpt>
      <trkpt lat="45.88899" lon="3.45229">
        <ele>302.4</ele>
        <time>2024-05-01T13:17:10Z</time>
      </trkpt>
      <trkpt lat="45.88897" lon="3.45221">
        <ele>302.6</ele>
        <time>2024-05-01T13:17:11Z</time>
      </trkpt>
      <trkpt lat="45.88895" lon="3.45213">
        <ele>302.6</ele>
        <time>2024-05-01T13:17:12Z</time>
      </trkpt>
      <trkpt lat="45.88892" lon="3.45205">
        <ele>302.6</ele>
        <time>2024-05-01T13:17:13Z</time>
      </trkpt>
      <trkpt lat="45.8889" lon="3.45197">
        <ele>302.8</ele>
        <time>2024-05-01T13:17:14Z</time>
      </trkpt>
      <trkpt lat="45.88889" lon="3.45188">
        <ele>302.8</ele>
        <time>2024-05-01T13:17:15Z</time>
      </trkpt>
      <trkpt lat="45.88888" lon="3.4518">
        <ele>302.8</ele>
        <time>2024-05-01T13:17:16Z</time>
      </trkpt>
      <trkpt lat="45.88887" lon="3.45171">
        <ele>303</ele>
        <time>2024-05-01T13:17:17Z</time>
      </trkpt>
      <trkpt lat="45.88886" lon="3.45163">
        <ele>303</ele>
        <time>2024-05-01T13:17:18Z</time>
      </trkpt>
      <trkpt lat="45.88884" lon="3.45155">
        <ele>303.2</ele>
        <time>2024-05-01T13:17:19Z</time>
      </trkpt>
      <trkpt lat="45.88883" lon="3.45147">
        <ele>303.2</ele>
        <time>2024-05-01T13:17:20Z</time>
      </trkpt>
      <trkpt lat="45.88882" lon="3.45139">
        <ele>303.2</ele>
        <time>2024-05-01T13:17:21Z</time>
      </trkpt>
      <trkpt lat="45.88881" lon="3.45131">
        <ele>303.4</ele>
        <time>2024-05-01T13:17:22Z</time>
      </trkpt>
      <trkpt lat="45.8888" lon="3.45123">
        <ele>303.4</ele>
        <time>2024-05-01T13:17:23Z</time>
      </trkpt>
      <trkpt lat="45.88879" lon="3.45116">
        <ele>303.4</ele>
        <time>2024-05-01T13:17:24Z</time>
      </trkpt>
      <trkpt lat="45.88878" lon="3.45108">
        <ele>303.6</ele>
        <time>2024-05-01T13:17:25Z</time>
      </trkpt>
      <trkpt lat="45.88877" lon="3.451">
        <ele>303.6</ele>
        <time>2024-05-01T13:17:26Z</time>
      </trkpt>
      <trkpt lat="45.88876" lon="3.45093">
        <ele>303.6</ele>
        <time>2024-05-01T13:17:27Z</time>
      </trkpt>
      <trkpt lat="45.88875" lon="3.45086">
        <ele>303.8</ele>
        <time>2024-05-01T13:17:28Z</time>
      </trkpt>
      <trkpt lat="45.88874" lon="3.45079">
        <ele>303.8</ele>
        <time>2024-05-01T13:17:29Z</time>
      </trkpt>
      <trkpt lat="45.88873" lon="3.45072">
        <ele>304</ele>
        <time>2024-05-01T13:17:30Z</time>
      </trkpt>
      <trkpt lat="45.88872" lon="3.45065">
        <ele>304</ele>
        <time>2024-05-01T13:17:31Z</time>
      </trkpt>
      <trkpt lat="45.88871" lon="3.45058">
        <ele>304</ele>
        <time>2024-05-01T13:17:32Z</time>
      </trkpt>
      <trkpt lat="45.8887" lon="3.4505">
        <ele>304.2</ele>
        <time>2024-05-01T13:17:33Z</time>
      </trkpt>
      <trkpt lat="45.88869" lon="3.45043">
        <ele>304.2</ele>
        <time>2024-05-01T13:17:34Z</time>
      </trkpt>
      <trkpt lat="45.88868" lon="3.45037">
        <ele>304.4</ele>
        <time>2024-05-01T13:17:35Z</time>
      </trkpt>
      <trkpt lat="45.88867" lon="3.4503">
        <ele>304.4</ele>
        <time>2024-05-01T13:17:36Z</time>
      </trkpt>
      <trkpt lat="45.88866" lon="3.45023">
        <ele>304.4</ele>
        <time>2024-05-01T13:17:37Z</time>
      </trkpt>
      <trkpt lat="45.88865" lon="3.45016">
        <ele>304.6</ele>
        <time>2024-05-01T13:17:38Z</time>
      </trkpt>
      <trkpt lat="45.88864" lon="3.45009">
        <ele>304.6</ele>
        <time>2024-05-01T13:17:39Z</time>
      </trkpt>
      <trkpt lat="45.88863" lon="3.45002">
        <ele>304.8</ele>
        <time>2024-05-01T13:17:40Z</time>
      </trkpt>
      <trkpt lat="45.88862" lon="3.44995">
        <ele>304.8</ele>
        <time>2024-05-01T13:17:41Z</time>
      </trkpt>
      <trkpt lat="45.88861" lon="3.44989">
        <ele>305</ele>
        <time>2024-05-01T13:17:42Z</time>
      </trkpt>
      <trkpt lat="45.8886" lon="3.44982">
        <ele>305.2</ele>
        <time>2024-05-01T13:17:43Z</time>
      </trkpt>
      <trkpt lat="45.88859" lon="3.44976">
        <ele>305.2</ele>
        <time>2024-05-01T13:17:44Z</time>
      </trkpt>
      <trkpt lat="45.88858" lon="3.44969">
        <ele>305.4</ele>
        <time>2024-05-01T13:17:45Z</time>
      </trkpt>
      <trkpt lat="45.88857" lon="3.44963">
        <ele>305.4</ele>
        <time>2024-05-01T13:17:46Z</time>
      </trkpt>
      <trkpt lat="45.88856" lon="3.44956">
        <ele>305.6</ele>
        <time>2024-05-01T13:17:47Z</time>
      </trkpt>
      <trkpt lat="45.88855" lon="3.4495">
        <ele>305.6</ele>
        <time>2024-05-01T13:17:48Z</time>
      </trkpt>
      <trkpt lat="45.88854" lon="3.44943">
        <ele>305.8</ele>
        <time>2024-05-01T13:17:49Z</time>
      </trkpt>
      <trkpt lat="45.88854" lon="3.44937">
        <ele>305.8</ele>
        <time>2024-05-01T13:17:50Z</time>
      </trkpt>
      <trkpt lat="45.88853" lon="3.44931">
        <ele>306</ele>
        <time>2024-05-01T13:17:51Z</time>
      </trkpt>
      <trkpt lat="45.88852" lon="3.44925">
        <ele>306.2</ele>
        <time>2024-05-01T13:17:52Z</time>
      </trkpt>
      <trkpt lat="45.88851" lon="3.44919">
        <ele>306.2</ele>
        <time>2024-05-01T13:17:53Z</time>
      </trkpt>
      <trkpt lat="45.8885" lon="3.44913">
        <ele>306.2</ele>
        <time>2024-05-01T13:17:54Z</time>
      </trkpt>
      <trkpt lat="45.88849" lon="3.44906">
        <ele>306.4</ele>
        <time>2024-05-01T13:17:55Z</time>
      </trkpt>
      <trkpt lat="45.88848" lon="3.449">
        <ele>306.4</ele>
        <time>2024-05-01T13:17:56Z</time>
      </trkpt>
      <trkpt lat="45.88847" lon="3.44893">
        <ele>306.4</ele>
        <time>2024-05-01T13:17:57Z</time>
      </trkpt>
      <trkpt lat="45.88842" lon="3.44888">
        <ele>306.6</ele>
        <time>2024-05-01T13:17:58Z</time>
      </trkpt>
      <trkpt lat="45.88838" lon="3.44884">
        <ele>306.6</ele>
        <time>2024-05-01T13:17:59Z</time>
      </trkpt>
      <trkpt lat="45.88834" lon="3.44879">
        <ele>306.8</ele>
        <time>2024-05-01T13:18:00Z</time>
      </trkpt>
      <trkpt lat="45.88831" lon="3.44874">
        <ele>306.8</ele>
        <time>2024-05-01T13:18:01Z</time>
      </trkpt>
      <trkpt lat="45.88826" lon="3.44871">
        <ele>307</ele>
        <time>2024-05-01T13:18:02Z</time>
      </trkpt>
      <trkpt lat="45.88821" lon="3.44867">
        <ele>307</ele>
        <time>2024-05-01T13:18:03Z</time>
      </trkpt>
      <trkpt lat="45.88817" lon="3.44864">
        <ele>307.2</ele>
        <time>2024-05-01T13:18:04Z</time>
      </trkpt>
      <trkpt lat="45.88812" lon="3.4486">
        <ele>307.2</ele>
        <time>2024-05-01T13:18:05Z</time>
      </trkpt>
      <trkpt lat="45.88808" lon="3.44857">
        <ele>307.4</ele>
        <time>2024-05-01T13:18:06Z</time>
      </trkpt>
      <trkpt lat="45.88803" lon="3.44853">
        <ele>307.4</ele>
        <time>2024-05-01T13:18:07Z</time>
      </trkpt>
      <trkpt lat="45.88798" lon="3.4485">
        <ele>307.4</ele>
        <time>2024-05-01T13:18:08Z</time>
      </trkpt>
      <trkpt lat="45.88793" lon="3.44846">
        <ele>307.6</ele>
        <time>2024-05-01T13:18:09Z</time>
      </trkpt>
      <trkpt lat="45.88789" lon="3.44843">
        <ele>307.6</ele>
        <time>2024-05-01T13:18:10Z</time>
      </trkpt>
      <trkpt lat="45.88784" lon="3.44839">
        <ele>307.8</ele>
        <time>2024-05-01T13:18:11Z</time>
      </trkpt>
      <trkpt lat="45.88779" lon="3.44835">
        <ele>307.8</ele>
        <time>2024-05-01T13:18:12Z</time>
      </trkpt>
      <trkpt lat="45.88774" lon="3.44832">
        <ele>308</ele>
        <time>2024-05-01T13:18:13Z</time>
      </trkpt>
      <trkpt lat="45.88769" lon="3.44828">
        <ele>308</ele>
        <time>2024-05-01T13:18:14Z</time>
      </trkpt>
      <trkpt lat="45.88764" lon="3.44825">
        <ele>308.2</ele>
        <time>2024-05-01T13:18:15Z</time>
      </trkpt>
      <trkpt lat="45.88759" lon="3.44821">
        <ele>308.2</ele>
        <time>2024-05-01T13:18:16Z</time>
      </trkpt>
      <trkpt lat="45.88755" lon="3.44817">
        <ele>308.4</ele>
        <time>2024-05-01T13:18:17Z</time>
      </trkpt>
      <trkpt lat="45.8875" lon="3.44814">
        <ele>308.4</ele>
        <time>2024-05-01T13:18:18Z</time>
      </trkpt>
      <trkpt lat="45.88745" lon="3.4481">
        <ele>308.6</ele>
        <time>2024-05-01T13:18:19Z</time>
      </trkpt>
      <trkpt lat="45.8874" lon="3.44806">
        <ele>308.6</ele>
        <time>2024-05-01T13:18:20Z</time>
      </trkpt>
      <trkpt lat="45.88735" lon="3.44803">
        <ele>308.8</ele>
        <time>2024-05-01T13:18:21Z</time>
      </trkpt>
      <trkpt lat="45.88731" lon="3.44798">
        <ele>308.8</ele>
        <time>2024-05-01T13:18:22Z</time>
      </trkpt>
      <trkpt lat="45.88727" lon="3.44794">
        <ele>309</ele>
        <time>2024-05-01T13:18:23Z</time>
      </trkpt>
      <trkpt lat="45.88722" lon="3.44789">
        <ele>309</ele>
        <time>2024-05-01T13:18:24Z</time>
      </trkpt>
      <trkpt lat="45.88718" lon="3.44784">
        <ele>309</ele>
        <time>2024-05-01T13:18:25Z</time>
      </trkpt>
      <trkpt lat="45.88714" lon="3.4478">
        <ele>309.2</ele>
        <time>2024-05-01T13:18:26Z</time>
      </trkpt>
      <trkpt lat="45.88709" lon="3.44775">
        <ele>309.2</ele>
        <time>2024-05-01T13:18:27Z</time>
      </trkpt>
      <trkpt lat="45.88705" lon="3.44771">
        <ele>309.4</ele>
        <time>2024-05-01T13:18:28Z</time>
      </trkpt>
      <trkpt lat="45.887" lon="3.44766">
        <ele>309.4</ele>
        <time>2024-05-01T13:18:29Z</time>
      </trkpt>
      <trkpt lat="45.88696" lon="3.44762">
        <ele>309.6</ele>
        <time>2024-05-01T13:18:30Z</time>
      </trkpt>
      <trkpt lat="45.88692" lon="3.44758">
        <ele>309.6</ele>
        <time>2024-05-01T13:18:31Z</time>
      </trkpt>
      <trkpt lat="45.88688" lon="3.44753">
        <ele>309.8</ele>
        <time>2024-05-01T13:18:32Z</time>
      </trkpt>
      <trkpt lat="45.88684" lon="3.44749">
        <ele>309.8</ele>
        <time>2024-05-01T13:18:33Z</time>
      </trkpt>
      <trkpt lat="45.88679" lon="3.44745">
        <ele>310</ele>
        <time>2024-05-01T13:18:34Z</time>
      </trkpt>
      <trkpt lat="45.88675" lon="3.4474">
        <ele>310</ele>
        <time>2024-05-01T13:18:35Z</time>
      </trkpt>
      <trkpt lat="45.88671" lon="3.44734">
        <ele>310.2</ele>
        <time>2024-05-01T13:18:36Z</time>
      </trkpt>
      <trkpt lat="45.88667" lon="3.44728">
        <ele>310.4</ele>
        <time>2024-05-01T13:18:37Z</time>
      </trkpt>
      <trkpt lat="45.88664" lon="3.44722">
        <ele>310.4</ele>
        <time>2024-05-01T13:18:38Z</time>
      </trkpt>
      <trkpt lat="45.8866" lon="3.44717">
        <ele>310.6</ele>
        <time>2024-05-01T13:18:39Z</time>
      </trkpt>
      <trkpt lat="45.88657" lon="3.44711">
        <ele>310.6</ele>
        <time>2024-05-01T13:18:40Z</time>
      </trkpt>
      <trkpt lat="45.88653" lon="3.44705">
        <ele>310.8</ele>
        <time>2024-05-01T13:18:41Z</time>
      </trkpt>
      <trkpt lat="45.8865" lon="3.44699">
        <ele>310.8</ele>
        <time>2024-05-01T13:18:42Z</time>
      </trkpt>
      <trkpt lat="45.88646" lon="3.44693">
        <ele>311</ele>
        <time>2024-05-01T13:18:43Z</time>
      </trkpt>
      <trkpt lat="45.88643" lon="3.44687">
        <ele>311</ele>
        <time>2024-05-01T13:18:44Z</time>
      </trkpt>
      <trkpt lat="45.88639" lon="3.44682">
        <ele>311.2</ele>
        <time>2024-05-01T13:18:45Z</time>
      </trkpt>
      <trkpt lat="45.88636" lon="3.44676">
        <ele>311.2</ele>
        <time>2024-05-01T13:18:46Z</time>
      </trkpt>
      <trkpt lat="45.88632" lon="3.4467">
        <ele>311.4</ele>
        <time>2024-05-01T13:18:47Z</time>
      </trkpt>
      <trkpt lat="45.88629" lon="3.44665">
        <ele>311.6</ele>
        <time>2024-05-01T13:18:48Z</time>
      </trkpt>
      <trkpt lat="45.88626" lon="3.44659">
        <ele>311.6</ele>
        <time>2024-05-01T13:18:49Z</time>
      </trkpt>
      <trkpt lat="45.88622" lon="3.44653">
        <ele>311.8</ele>
        <time>2024-05-01T13:18:50Z</time>
      </trkpt>
      <trkpt lat="45.88619" lon="3.44647">
        <ele>311.8</ele>
        <time>2024-05-01T13:18:51Z</time>
      </trkpt>
      <trkpt lat="45.88615" lon="3.44642">
        <ele>312</ele>
        <time>2024-05-01T13:18:52Z</time>
      </trkpt>
      <trkpt lat="45.88612" lon="3.44636">
        <ele>312</ele>
        <time>2024-05-01T13:18:53Z</time>
      </trkpt>
      <trkpt lat="45.88608" lon="3.4463">
        <ele>312.2</ele>
        <time>2024-05-01T13:18:54Z</time>
      </trkpt>
      <trkpt lat="45.88605" lon="3.44624">
        <ele>312.2</ele>
        <time>2024-05-01T13:18:55Z</time>
      </trkpt>
      <trkpt lat="45.88601" lon="3.44618">
        <ele>312.4</ele>
        <time>2024-05-01T13:18:56Z</time>
      </trkpt>
      <trkpt lat="45.88598" lon="3.44613">
        <ele>312.4</ele>
        <time>2024-05-01T13:18:57Z</time>
      </trkpt>
      <trkpt lat="45.88594" lon="3.44607">
        <ele>312.6</ele>
        <time>2024-05-01T13:18:58Z</time>
      </trkpt>
      <trkpt lat="45.88591" lon="3.44602">
        <ele>312.6</ele>
        <time>2024-05-01T13:18:59Z</time>
      </trkpt>
      <trkpt lat="45.88587" lon="3.44596">
        <ele>312.6</ele>
        <time>2024-05-01T13:19:00Z</time>
      </trkpt>
      <trkpt lat="45.88583" lon="3.44591">
        <ele>312.8</ele>
        <time>2024-05-01T13:19:01Z</time>
      </trkpt>
      <trkpt lat="45.88579" lon="3.44585">
        <ele>312.8</ele>
        <time>2024-05-01T13:19:02Z</time>
      </trkpt>
      <trkpt lat="45.88575" lon="3.4458">
        <ele>313</ele>
        <time>2024-05-01T13:19:03Z</time>
      </trkpt>
      <trkpt lat="45.88571" lon="3.44574">
        <ele>313</ele>
        <time>2024-05-01T13:19:04Z</time>
      </trkpt>
      <trkpt lat="45.88567" lon="3.44569">
        <ele>313.2</ele>
        <time>2024-05-01T13:19:05Z</time>
      </trkpt>
      <trkpt lat="45.88563" lon="3.44564">
        <ele>313.2</ele>
        <time>2024-05-01T13:19:06Z</time>
      </trkpt>
      <trkpt lat="45.88559" lon="3.44559">
        <ele>313.4</ele>
        <time>2024-05-01T13:19:07Z</time>
      </trkpt>
      <trkpt lat="45.88558" lon="3.4454">
        <ele>313.4</ele>
        <time>2024-05-01T13:19:08Z</time>
      </trkpt>
      <trkpt lat="45.88562" lon="3.44537">
        <ele>313.6</ele>
        <time>2024-05-01T13:19:09Z</time>
      </trkpt>
      <trkpt lat="45.88566" lon="3.44532">
        <ele>313.6</ele>
        <time>2024-05-01T13:19:10Z</time>
      </trkpt>
      <trkpt lat="45.8857" lon="3.44527">
        <ele>313.8</ele>
        <time>2024-05-01T13:19:11Z</time>
      </trkpt>
      <trkpt lat="45.88574" lon="3.44523">
        <ele>313.8</ele>
        <time>2024-05-01T13:19:12Z</time>
      </trkpt>
      <trkpt lat="45.88578" lon="3.44518">
        <ele>313.8</ele>
        <time>2024-05-01T13:19:13Z</time>
      </trkpt>
      <trkpt lat="45.88582" lon="3.44513">
        <ele>314</ele>
        <time>2024-05-01T13:19:14Z</time>
      </trkpt>
      <trkpt lat="45.88587" lon="3.44509">
        <ele>314</ele>
        <time>2024-05-01T13:19:15Z</time>
      </trkpt>
      <trkpt lat="45.88591" lon="3.44504">
        <ele>314.2</ele>
        <time>2024-05-01T13:19:16Z</time>
      </trkpt>
      <trkpt lat="45.88596" lon="3.445">
        <ele>314.2</ele>
        <time>2024-05-01T13:19:17Z</time>
      </trkpt>
      <trkpt lat="45.886" lon="3.44495">
        <ele>314.2</ele>
        <time>2024-05-01T13:19:18Z</time>
      </trkpt>
      <trkpt lat="45.88605" lon="3.44491">
        <ele>314.4</ele>
        <time>2024-05-01T13:19:19Z</time>
      </trkpt>
      <trkpt lat="45.8861" lon="3.44486">
        <ele>314.4</ele>
        <time>2024-05-01T13:19:20Z</time>
      </trkpt>
      <trkpt lat="45.88614" lon="3.44482">
        <ele>314.4</ele>
        <time>2024-05-01T13:19:21Z</time>
      </trkpt>
      <trkpt lat="45.88619" lon="3.44477">
        <ele>314.6</ele>
        <time>2024-05-01T13:19:22Z</time>
      </trkpt>
      <trkpt lat="45.88623" lon="3.44473">
        <ele>314.6</ele>
        <time>2024-05-01T13:19:23Z</time>
      </trkpt>
      <trkpt lat="45.88628" lon="3.44468">
        <ele>314.6</ele>
        <time>2024-05-01T13:19:24Z</time>
      </trkpt>
      <trkpt lat="45.88632" lon="3.44464">
        <ele>314.8</ele>
        <time>2024-05-01T13:19:25Z</time>
      </trkpt>
      <trkpt lat="45.88637" lon="3.44459">
        <ele>314.8</ele>
        <time>2024-05-01T13:19:26Z</time>
      </trkpt>
      <trkpt lat="45.88641" lon="3.44455">
        <ele>314.8</ele>
        <time>2024-05-01T13:19:27Z</time>
      </trkpt>
      <trkpt lat="45.88645" lon="3.44451">
        <ele>315</ele>
        <time>2024-05-01T13:19:28Z</time>
      </trkpt>
      <trkpt lat="45.8865" lon="3.44446">
        <ele>315</ele>
        <time>2024-05-01T13:19:29Z</time>
      </trkpt>
      <trkpt lat="45.88654" lon="3.44442">
        <ele>315</ele>
        <time>2024-05-01T13:19:30Z</time>
      </trkpt>
      <trkpt lat="45.88659" lon="3.44437">
        <ele>315.2</ele>
        <time>2024-05-01T13:19:31Z</time>
      </trkpt>
      <trkpt lat="45.88664" lon="3.44433">
        <ele>315.2</ele>
        <time>2024-05-01T13:19:32Z</time>
      </trkpt>
      <trkpt lat="45.88668" lon="3.44428">
        <ele>315.2</ele>
        <time>2024-05-01T13:19:33Z</time>
      </trkpt>
      <trkpt lat="45.88673" lon="3.44424">
        <ele>315.4</ele>
        <time>2024-05-01T13:19:34Z</time>
      </trkpt>
      <trkpt lat="45.88677" lon="3.44419">
        <ele>315.4</ele>
        <time>2024-05-01T13:19:35Z</time>
      </trkpt>
      <trkpt lat="45.88682" lon="3.44415">
        <ele>315.4</ele>
        <time>2024-05-01T13:19:36Z</time>
      </trkpt>
      <trkpt lat="45.88686" lon="3.4441">
        <ele>315.6</ele>
        <time>2024-05-01T13:19:37Z</time>
      </trkpt>
      <trkpt lat="45.88691" lon="3.44406">
        <ele>315.6</ele>
        <time>2024-05-01T13:19:38Z</time>
      </trkpt>
      <trkpt lat="45.88696" lon="3.44401">
        <ele>315.6</ele>
        <time>2024-05-01T13:19:39Z</time>
      </trkpt>
      <trkpt lat="45.887" lon="3.44396">
        <ele>315.8</ele>
        <time>2024-05-01T13:19:40Z</time>
      </trkpt>
      <trkpt lat="45.88705" lon="3.44392">
        <ele>315.8</ele>
        <time>2024-05-01T13:19:41Z</time>
      </trkpt>
      <trkpt lat="45.8871" lon="3.44387">
        <ele>315.8</ele>
        <time>2024-05-01T13:19:42Z</time>
      </trkpt>
      <trkpt lat="45.88715" lon="3.44382">
        <ele>316</ele>
        <time>2024-05-01T13:19:43Z</time>
      </trkpt>
      <trkpt lat="45.8872" lon="3.44377">
        <ele>316</ele>
        <time>2024-05-01T13:19:44Z</time>
      </trkpt>
      <trkpt lat="45.88725" lon="3.44372">
        <ele>316</ele>
        <time>2024-05-01T13:19:45Z</time>
      </trkpt>
      <trkpt lat="45.8873" lon="3.44367">
        <ele>316</ele>
        <time>2024-05-01T13:19:46Z</time>
      </trkpt>
      <trkpt lat="45.88735" lon="3.44362">
        <ele>316</ele>
        <time>2024-05-01T13:19:47Z</time>
      </trkpt>
      <trkpt lat="45.8874" lon="3.44357">
        <ele>316.2</ele>
        <time>2024-05-01T13:19:48Z</time>
      </trkpt>
      <trkpt lat="45.88745" lon="3.44352">
        <ele>316.2</ele>
        <time>2024-05-01T13:19:49Z</time>
      </trkpt>
      <trkpt lat="45.8875" lon="3.44346">
        <ele>316.2</ele>
        <time>2024-05-01T13:19:50Z</time>
      </trkpt>
      <trkpt lat="45.88754" lon="3.44341">
        <ele>316.4</ele>
        <time>2024-05-01T13:19:51Z</time>
      </trkpt>
      <trkpt lat="45.88759" lon="3.44335">
        <ele>316.4</ele>
        <time>2024-05-01T13:19:52Z</time>
      </trkpt>
      <trkpt lat="45.88763" lon="3.44329">
        <ele>316.4</ele>
        <time>2024-05-01T13:19:53Z</time>
      </trkpt>
      <trkpt lat="45.88768" lon="3.44323">
        <ele>316.4</ele>
        <time>2024-05-01T13:19:54Z</time>
      </trkpt>
      <trkpt lat="45.88773" lon="3.44317">
        <ele>316.6</ele>
        <time>2024-05-01T13:19:55Z</time>
      </trkpt>
      <trkpt lat="45.88777" lon="3.44312">
        <ele>316.6</ele>
        <time>2024-05-01T13:19:56Z</time>
      </trkpt>
      <trkpt lat="45.88782" lon="3.44306">
        <ele>316.6</ele>
        <time>2024-05-01T13:19:57Z</time>
      </trkpt>
      <trkpt lat="45.88787" lon="3.443">
        <ele>316.6</ele>
        <time>2024-05-01T13:19:58Z</time>
      </trkpt>
      <trkpt lat="45.88792" lon="3.44294">
        <ele>316.6</ele>
        <time>2024-05-01T13:19:59Z</time>
      </trkpt>
      <trkpt lat="45.88797" lon="3.44287">
        <ele>316.8</ele>
        <time>2024-05-01T13:20:00Z</time>
      </trkpt>
      <trkpt lat="45.88801" lon="3.44281">
        <ele>316.8</ele>
        <time>2024-05-01T13:20:01Z</time>
      </trkpt>
      <trkpt lat="45.88806" lon="3.44275">
        <ele>316.8</ele>
        <time>2024-05-01T13:20:02Z</time>
      </trkpt>
      <trkpt lat="45.88811" lon="3.44269">
        <ele>316.8</ele>
        <time>2024-05-01T13:20:03Z</time>
      </trkpt>
      <trkpt lat="45.88816" lon="3.44263">
        <ele>317</ele>
        <time>2024-05-01T13:20:04Z</time>
      </trkpt>
      <trkpt lat="45.88821" lon="3.44256">
        <ele>317</ele>
        <time>2024-05-01T13:20:05Z</time>
      </trkpt>
      <trkpt lat="45.88826" lon="3.4425">
        <ele>317</ele>
        <time>2024-05-01T13:20:06Z</time>
      </trkpt>
      <trkpt lat="45.88831" lon="3.44244">
        <ele>317</ele>
        <time>2024-05-01T13:20:07Z</time>
      </trkpt>
      <trkpt lat="45.88835" lon="3.44237">
        <ele>317</ele>
        <time>2024-05-01T13:20:08Z</time>
      </trkpt>
      <trkpt lat="45.8884" lon="3.4423">
        <ele>317</ele>
        <time>2024-05-01T13:20:09Z</time>
      </trkpt>
      <trkpt lat="45.88844" lon="3.44224">
        <ele>317</ele>
        <time>2024-05-01T13:20:10Z</time>
      </trkpt>
      <trkpt lat="45.88849" lon="3.44217">
        <ele>317</ele>
        <time>2024-05-01T13:20:11Z</time>
      </trkpt>
      <trkpt lat="45.88853" lon="3.4421">
        <ele>317</ele>
        <time>2024-05-01T13:20:12Z</time>
      </trkpt>
      <trkpt lat="45.88858" lon="3.44203">
        <ele>317.2</ele>
        <time>2024-05-01T13:20:13Z</time>
      </trkpt>
      <trkpt lat="45.88862" lon="3.44196">
        <ele>317.2</ele>
        <time>2024-05-01T13:20:14Z</time>
      </trkpt>
      <trkpt lat="45.88866" lon="3.44188">
        <ele>317.2</ele>
        <time>2024-05-01T13:20:15Z</time>
      </trkpt>
      <trkpt lat="45.8887" lon="3.44181">
        <ele>317.2</ele>
        <time>2024-05-01T13:20:16Z</time>
      </trkpt>
      <trkpt lat="45.88873" lon="3.44174">
        <ele>317.2</ele>
        <time>2024-05-01T13:20:17Z</time>
      </trkpt>
      <trkpt lat="45.88877" lon="3.44167">
        <ele>317</ele>
        <time>2024-05-01T13:20:18Z</time>
      </trkpt>
      <trkpt lat="45.88881" lon="3.44159">
        <ele>317</ele>
        <time>2024-05-01T13:20:19Z</time>
      </trkpt>
      <trkpt lat="45.88885" lon="3.44152">
        <ele>317.2</ele>
        <time>2024-05-01T13:20:20Z</time>
      </trkpt>
      <trkpt lat="45.88889" lon="3.44144">
        <ele>317.2</ele>
        <time>2024-05-01T13:20:21Z</time>
      </trkpt>
      <trkpt lat="45.88893" lon="3.44137">
        <ele>317.2</ele>
        <time>2024-05-01T13:20:22Z</time>
      </trkpt>
      <trkpt lat="45.88897" lon="3.4413">
        <ele>317.2</ele>
        <time>2024-05-01T13:20:23Z</time>
      </trkpt>
      <trkpt lat="45.88901" lon="3.44123">
        <ele>317.2</ele>
        <time>2024-05-01T13:20:24Z</time>
      </trkpt>
      <trkpt lat="45.88904" lon="3.44115">
        <ele>317.2</ele>
        <time>2024-05-01T13:20:25Z</time>
      </trkpt>
      <trkpt lat="45.88908" lon="3.44108">
        <ele>317.2</ele>
        <time>2024-05-01T13:20:26Z</time>
      </trkpt>
      <trkpt lat="45.88912" lon="3.44101">
        <ele>317.2</ele>
        <time>2024-05-01T13:20:27Z</time>
      </trkpt>
      <trkpt lat="45.88916" lon="3.44094">
        <ele>317.4</ele>
        <time>2024-05-01T13:20:28Z</time>
      </trkpt>
      <trkpt lat="45.8892" lon="3.44086">
        <ele>317.4</ele>
        <time>2024-05-01T13:20:29Z</time>
      </trkpt>
      <trkpt lat="45.88923" lon="3.44078">
        <ele>317.4</ele>
        <time>2024-05-01T13:20:30Z</time>
      </trkpt>
      <trkpt lat="45.88926" lon="3.4407">
        <ele>317.4</ele>
        <time>2024-05-01T13:20:31Z</time>
      </trkpt>
      <trkpt lat="45.88929" lon="3.44062">
        <ele>317.4</ele>
        <time>2024-05-01T13:20:32Z</time>
      </trkpt>
      <trkpt lat="45.88932" lon="3.44055">
        <ele>317.4</ele>
        <time>2024-05-01T13:20:33Z</time>
      </trkpt>
      <trkpt lat="45.88935" lon="3.44047">
        <ele>317.4</ele>
        <time>2024-05-01T13:20:34Z</time>
      </trkpt>
      <trkpt lat="45.88938" lon="3.44039">
        <ele>317.4</ele>
        <time>2024-05-01T13:20:35Z</time>
      </trkpt>
      <trkpt lat="45.88942" lon="3.44031">
        <ele>317.6</ele>
        <time>2024-05-01T13:20:36Z</time>
      </trkpt>
      <trkpt lat="45.88945" lon="3.44023">
        <ele>317.6</ele>
        <time>2024-05-01T13:20:37Z</time>
      </trkpt>
      <trkpt lat="45.88948" lon="3.44015">
        <ele>317.6</ele>
        <time>2024-05-01T13:20:38Z</time>
      </trkpt>
      <trkpt lat="45.88951" lon="3.44006">
        <ele>317.6</ele>
        <time>2024-05-01T13:20:39Z</time>
      </trkpt>
      <trkpt lat="45.88954" lon="3.43998">
        <ele>317.6</ele>
        <time>2024-05-01T13:20:40Z</time>
      </trkpt>
      <trkpt lat="45.88957" lon="3.43989">
        <ele>317.6</ele>
        <time>2024-05-01T13:20:41Z</time>
      </trkpt>
      <trkpt lat="45.88959" lon="3.43981">
        <ele>317.6</ele>
        <time>2024-05-01T13:20:42Z</time>
      </trkpt>
      <trkpt lat="45.88962" lon="3.43972">
        <ele>317.6</ele>
        <time>2024-05-01T13:20:43Z</time>
      </trkpt>
      <trkpt lat="45.88965" lon="3.43964">
        <ele>317.6</ele>
        <time>2024-05-01T13:20:44Z</time>
      </trkpt>
      <trkpt lat="45.88968" lon="3.43955">
        <ele>317.6</ele>
        <time>2024-05-01T13:20:45Z</time>
      </trkpt>
      <trkpt lat="45.8897" lon="3.43947">
        <ele>317.6</ele>
        <time>2024-05-01T13:20:46Z</time>
      </trkpt>
      <trkpt lat="45.88973" lon="3.43939">
        <ele>317.6</ele>
        <time>2024-05-01T13:20:47Z</time>
      </trkpt>
      <trkpt lat="45.88976" lon="3.4393">
        <ele>317.6</ele>
        <time>2024-05-01T13:20:48Z</time>
      </trkpt>
      <trkpt lat="45.88979" lon="3.43922">
        <ele>317.6</ele>
        <time>2024-05-01T13:20:49Z</time>
      </trkpt>
      <trkpt lat="45.88981" lon="3.43914">
        <ele>317.6</ele>
        <time>2024-05-01T13:20:50Z</time>
      </trkpt>
      <trkpt lat="45.88984" lon="3.43906">
        <ele>317.6</ele>
        <time>2024-05-01T13:20:51Z</time>
      </trkpt>
      <trkpt lat="45.88987" lon="3.43898">
        <ele>317.6</ele>
        <time>2024-05-01T13:20:52Z</time>
      </trkpt>
      <trkpt lat="45.88989" lon="3.4389">
        <ele>317.6</ele>
        <time>2024-05-01T13:20:53Z</time>
      </trkpt>
      <trkpt lat="45.88992" lon="3.43882">
        <ele>317.6</ele>
        <time>2024-05-01T13:20:54Z</time>
      </trkpt>
      <trkpt lat="45.88994" lon="3.43875">
        <ele>317.6</ele>
        <time>2024-05-01T13:20:55Z</time>
      </trkpt>
      <trkpt lat="45.88997" lon="3.43866">
        <ele>317.4</ele>
        <time>2024-05-01T13:20:56Z</time>
      </trkpt>
      <trkpt lat="45.88999" lon="3.43858">
        <ele>317.4</ele>
        <time>2024-05-01T13:20:57Z</time>
      </trkpt>
      <trkpt lat="45.89002" lon="3.4385">
        <ele>317.4</ele>
        <time>2024-05-01T13:20:58Z</time>
      </trkpt>
      <trkpt lat="45.89004" lon="3.43841">
        <ele>317.4</ele>
        <time>2024-05-01T13:20:59Z</time>
      </trkpt>
      <trkpt lat="45.89006" lon="3.43833">
        <ele>317.4</ele>
        <time>2024-05-01T13:21:00Z</time>
      </trkpt>
      <trkpt lat="45.89009" lon="3.43824">
        <ele>317.4</ele>
        <time>2024-05-01T13:21:01Z</time>
      </trkpt>
      <trkpt lat="45.89011" lon="3.43816">
        <ele>317.4</ele>
        <time>2024-05-01T13:21:02Z</time>
      </trkpt>
      <trkpt lat="45.89014" lon="3.43808">
        <ele>317.4</ele>
        <time>2024-05-01T13:21:03Z</time>
      </trkpt>
      <trkpt lat="45.89016" lon="3.438">
        <ele>317.2</ele>
        <time>2024-05-01T13:21:04Z</time>
      </trkpt>
      <trkpt lat="45.89019" lon="3.43792">
        <ele>317.2</ele>
        <time>2024-05-01T13:21:05Z</time>
      </trkpt>
      <trkpt lat="45.89021" lon="3.43784">
        <ele>317.2</ele>
        <time>2024-05-01T13:21:06Z</time>
      </trkpt>
      <trkpt lat="45.89023" lon="3.43776">
        <ele>317.2</ele>
        <time>2024-05-01T13:21:07Z</time>
      </trkpt>
      <trkpt lat="45.89026" lon="3.43768">
        <ele>317.2</ele>
        <time>2024-05-01T13:21:08Z</time>
      </trkpt>
      <trkpt lat="45.89028" lon="3.4376">
        <ele>317.2</ele>
        <time>2024-05-01T13:21:09Z</time>
      </trkpt>
      <trkpt lat="45.8903" lon="3.43752">
        <ele>317.2</ele>
        <time>2024-05-01T13:21:10Z</time>
      </trkpt>
      <trkpt lat="45.89033" lon="3.43744">
        <ele>317.2</ele>
        <time>2024-05-01T13:21:11Z</time>
      </trkpt>
      <trkpt lat="45.89035" lon="3.43736">
        <ele>317.2</ele>
        <time>2024-05-01T13:21:12Z</time>
      </trkpt>
      <trkpt lat="45.89038" lon="3.43728">
        <ele>317.2</ele>
        <time>2024-05-01T13:21:13Z</time>
      </trkpt>
      <trkpt lat="45.8904" lon="3.4372">
        <ele>317.2</ele>
        <time>2024-05-01T13:21:14Z</time>
      </trkpt>
      <trkpt lat="45.89042" lon="3.43712">
        <ele>317.2</ele>
        <time>2024-05-01T13:21:15Z</time>
      </trkpt>
      <trkpt lat="45.89045" lon="3.43703">
        <ele>317.2</ele>
        <time>2024-05-01T13:21:16Z</time>
      </trkpt>
      <trkpt lat="45.89047" lon="3.43696">
        <ele>317.2</ele>
        <time>2024-05-01T13:21:17Z</time>
      </trkpt>
      <trkpt lat="45.8905" lon="3.43688">
        <ele>317.2</ele>
        <time>2024-05-01T13:21:18Z</time>
      </trkpt>
      <trkpt lat="45.89052" lon="3.4368">
        <ele>317.4</ele>
        <time>2024-05-01T13:21:19Z</time>
      </trkpt>
      <trkpt lat="45.89054" lon="3.43672">
        <ele>317.2</ele>
        <time>2024-05-01T13:21:20Z</time>
      </trkpt>
      <trkpt lat="45.89056" lon="3.43664">
        <ele>317.2</ele>
        <time>2024-05-01T13:21:21Z</time>
      </trkpt>
      <trkpt lat="45.89059" lon="3.43657">
        <ele>317.6</ele>
        <time>2024-05-01T13:21:22Z</time>
      </trkpt>
      <trkpt lat="45.89061" lon="3.43649">
        <ele>317.6</ele>
        <time>2024-05-01T13:21:23Z</time>
      </trkpt>
      <trkpt lat="45.89063" lon="3.43641">
        <ele>317.4</ele>
        <time>2024-05-01T13:21:24Z</time>
      </trkpt>
      <trkpt lat="45.89066" lon="3.43633">
        <ele>317.4</ele>
        <time>2024-05-01T13:21:25Z</time>
      </trkpt>
      <trkpt lat="45.89068" lon="3.43626">
        <ele>317.4</ele>
        <time>2024-05-01T13:21:26Z</time>
      </trkpt>
      <trkpt lat="45.8907" lon="3.43618">
        <ele>317.6</ele>
        <time>2024-05-01T13:21:27Z</time>
      </trkpt>
      <trkpt lat="45.89072" lon="3.43611">
        <ele>317.6</ele>
        <time>2024-05-01T13:21:28Z</time>
      </trkpt>
      <trkpt lat="45.89074" lon="3.43604">
        <ele>317.6</ele>
        <time>2024-05-01T13:21:29Z</time>
      </trkpt>
      <trkpt lat="45.89077" lon="3.43596">
        <ele>317.6</ele>
        <time>2024-05-01T13:21:30Z</time>
      </trkpt>
      <trkpt lat="45.89079" lon="3.43589">
        <ele>317.6</ele>
        <time>2024-05-01T13:21:31Z</time>
      </trkpt>
      <trkpt lat="45.89081" lon="3.43582">
        <ele>317.6</ele>
        <time>2024-05-01T13:21:32Z</time>
      </trkpt>
      <trkpt lat="45.89083" lon="3.43575">
        <ele>317.8</ele>
        <time>2024-05-01T13:21:33Z</time>
      </trkpt>
      <trkpt lat="45.89085" lon="3.43568">
        <ele>317.8</ele>
        <time>2024-05-01T13:21:34Z</time>
      </trkpt>
      <trkpt lat="45.89087" lon="3.4356">
        <ele>317.8</ele>
        <time>2024-05-01T13:21:35Z</time>
      </trkpt>
      <trkpt lat="45.8909" lon="3.43553">
        <ele>317.8</ele>
        <time>2024-05-01T13:21:36Z</time>
      </trkpt>
      <trkpt lat="45.89092" lon="3.43546">
        <ele>317.8</ele>
        <time>2024-05-01T13:21:37Z</time>
      </trkpt>
      <trkpt lat="45.89094" lon="3.43538">
        <ele>318</ele>
        <time>2024-05-01T13:21:38Z</time>
      </trkpt>
      <trkpt lat="45.89096" lon="3.43531">
        <ele>318</ele>
        <time>2024-05-01T13:21:39Z</time>
      </trkpt>
      <trkpt lat="45.89098" lon="3.43524">
        <ele>318</ele>
        <time>2024-05-01T13:21:40Z</time>
      </trkpt>
      <trkpt lat="45.891" lon="3.43517">
        <ele>318</ele>
        <time>2024-05-01T13:21:41Z</time>
      </trkpt>
      <trkpt lat="45.89102" lon="3.4351">
        <ele>318.2</ele>
        <time>2024-05-01T13:21:42Z</time>
      </trkpt>
      <trkpt lat="45.89105" lon="3.43502">
        <ele>318.2</ele>
        <time>2024-05-01T13:21:43Z</time>
      </trkpt>
      <trkpt lat="45.89107" lon="3.43495">
        <ele>318.2</ele>
        <time>2024-05-01T13:21:44Z</time>
      </trkpt>
      <trkpt lat="45.89109" lon="3.43488">
        <ele>318.4</ele>
        <time>2024-05-01T13:21:45Z</time>
      </trkpt>
      <trkpt lat="45.89111" lon="3.43482">
        <ele>318.4</ele>
        <time>2024-05-01T13:21:46Z</time>
      </trkpt>
      <trkpt lat="45.89113" lon="3.43475">
        <ele>318.4</ele>
        <time>2024-05-01T13:21:47Z</time>
      </trkpt>
      <trkpt lat="45.89115" lon="3.43468">
        <ele>318.4</ele>
        <time>2024-05-01T13:21:48Z</time>
      </trkpt>
      <trkpt lat="45.89117" lon="3.43461">
        <ele>318.6</ele>
        <time>2024-05-01T13:21:49Z</time>
      </trkpt>
      <trkpt lat="45.89119" lon="3.43455">
        <ele>318.6</ele>
        <time>2024-05-01T13:21:50Z</time>
      </trkpt>
      <trkpt lat="45.89121" lon="3.43448">
        <ele>318.6</ele>
        <time>2024-05-01T13:21:51Z</time>
      </trkpt>
      <trkpt lat="45.89123" lon="3.43441">
        <ele>318.6</ele>
        <time>2024-05-01T13:21:52Z</time>
      </trkpt>
      <trkpt lat="45.89125" lon="3.43434">
        <ele>318.8</ele>
        <time>2024-05-01T13:21:53Z</time>
      </trkpt>
      <trkpt lat="45.89127" lon="3.43427">
        <ele>318.8</ele>
        <time>2024-05-01T13:21:54Z</time>
      </trkpt>
      <trkpt lat="45.89129" lon="3.4342">
        <ele>319</ele>
        <time>2024-05-01T13:21:55Z</time>
      </trkpt>
      <trkpt lat="45.89131" lon="3.43413">
        <ele>319</ele>
        <time>2024-05-01T13:21:56Z</time>
      </trkpt>
      <trkpt lat="45.89133" lon="3.43406">
        <ele>319.2</ele>
        <time>2024-05-01T13:21:57Z</time>
      </trkpt>
      <trkpt lat="45.89135" lon="3.43399">
        <ele>319.2</ele>
        <time>2024-05-01T13:21:58Z</time>
      </trkpt>
      <trkpt lat="45.89137" lon="3.43392">
        <ele>319.2</ele>
        <time>2024-05-01T13:21:59Z</time>
      </trkpt>
      <trkpt lat="45.89139" lon="3.43385">
        <ele>319.2</ele>
        <time>2024-05-01T13:22:00Z</time>
      </trkpt>
      <trkpt lat="45.89141" lon="3.43378">
        <ele>319.4</ele>
        <time>2024-05-01T13:22:01Z</time>
      </trkpt>
      <trkpt lat="45.89143" lon="3.43371">
        <ele>319.6</ele>
        <time>2024-05-01T13:22:02Z</time>
      </trkpt>
      <trkpt lat="45.89145" lon="3.43365">
        <ele>319.6</ele>
        <time>2024-05-01T13:22:03Z</time>
      </trkpt>
      <trkpt lat="45.89148" lon="3.43358">
        <ele>319.6</ele>
        <time>2024-05-01T13:22:04Z</time>
      </trkpt>
      <trkpt lat="45.8915" lon="3.43351">
        <ele>319.8</ele>
        <time>2024-05-01T13:22:05Z</time>
      </trkpt>
      <trkpt lat="45.89152" lon="3.43344">
        <ele>319.8</ele>
        <time>2024-05-01T13:22:06Z</time>
      </trkpt>
      <trkpt lat="45.89154" lon="3.43337">
        <ele>320</ele>
        <time>2024-05-01T13:22:07Z</time>
      </trkpt>
      <trkpt lat="45.89156" lon="3.4333">
        <ele>320</ele>
        <time>2024-05-01T13:22:08Z</time>
      </trkpt>
      <trkpt lat="45.89158" lon="3.43323">
        <ele>320.2</ele>
        <time>2024-05-01T13:22:09Z</time>
      </trkpt>
      <trkpt lat="45.8916" lon="3.43317">
        <ele>320.2</ele>
        <time>2024-05-01T13:22:10Z</time>
      </trkpt>
      <trkpt lat="45.89162" lon="3.4331">
        <ele>320.2</ele>
        <time>2024-05-01T13:22:11Z</time>
      </trkpt>
      <trkpt lat="45.89164" lon="3.43304">
        <ele>320.4</ele>
        <time>2024-05-01T13:22:12Z</time>
      </trkpt>
      <trkpt lat="45.89166" lon="3.43297">
        <ele>320.4</ele>
        <time>2024-05-01T13:22:13Z</time>
      </trkpt>
      <trkpt lat="45.89167" lon="3.4329">
        <ele>320.4</ele>
        <time>2024-05-01T13:22:14Z</time>
      </trkpt>
      <trkpt lat="45.89169" lon="3.43284">
        <ele>320.6</ele>
        <time>2024-05-01T13:22:15Z</time>
      </trkpt>
      <trkpt lat="45.89171" lon="3.43277">
        <ele>320.6</ele>
        <time>2024-05-01T13:22:16Z</time>
      </trkpt>
      <trkpt lat="45.89173" lon="3.43271">
        <ele>320.8</ele>
        <time>2024-05-01T13:22:17Z</time>
      </trkpt>
      <trkpt lat="45.89175" lon="3.43264">
        <ele>320.8</ele>
        <time>2024-05-01T13:22:18Z</time>
      </trkpt>
      <trkpt lat="45.89177" lon="3.43257">
        <ele>320.8</ele>
        <time>2024-05-01T13:22:19Z</time>
      </trkpt>
      <trkpt lat="45.89179" lon="3.4325">
        <ele>321</ele>
        <time>2024-05-01T13:22:20Z</time>
      </trkpt>
      <trkpt lat="45.89182" lon="3.43243">
        <ele>321.2</ele>
        <time>2024-05-01T13:22:21Z</time>
      </trkpt>
      <trkpt lat="45.89184" lon="3.43236">
        <ele>321.2</ele>
        <time>2024-05-01T13:22:22Z</time>
      </trkpt>
      <trkpt lat="45.89185" lon="3.4323">
        <ele>321.2</ele>
        <time>2024-05-01T13:22:23Z</time>
      </trkpt>
      <trkpt lat="45.89187" lon="3.43223">
        <ele>321.4</ele>
        <time>2024-05-01T13:22:24Z</time>
      </trkpt>
      <trkpt lat="45.89189" lon="3.43217">
        <ele>321.4</ele>
        <time>2024-05-01T13:22:25Z</time>
      </trkpt>
      <trkpt lat="45.89191" lon="3.4321">
        <ele>321.6</ele>
        <time>2024-05-01T13:22:26Z</time>
      </trkpt>
      <trkpt lat="45.89193" lon="3.43204">
        <ele>321.6</ele>
        <time>2024-05-01T13:22:27Z</time>
      </trkpt>
      <trkpt lat="45.89195" lon="3.43197">
        <ele>321.8</ele>
        <time>2024-05-01T13:22:28Z</time>
      </trkpt>
      <trkpt lat="45.89197" lon="3.43191">
        <ele>321.8</ele>
        <time>2024-05-01T13:22:29Z</time>
      </trkpt>
      <trkpt lat="45.89199" lon="3.43185">
        <ele>322</ele>
        <time>2024-05-01T13:22:30Z</time>
      </trkpt>
      <trkpt lat="45.89201" lon="3.43178">
        <ele>322.2</ele>
        <time>2024-05-01T13:22:31Z</time>
      </trkpt>
      <trkpt lat="45.89203" lon="3.43172">
        <ele>322.2</ele>
        <time>2024-05-01T13:22:32Z</time>
      </trkpt>
      <trkpt lat="45.89205" lon="3.43166">
        <ele>322.4</ele>
        <time>2024-05-01T13:22:33Z</time>
      </trkpt>
      <trkpt lat="45.89206" lon="3.43159">
        <ele>322.4</ele>
        <time>2024-05-01T13:22:34Z</time>
      </trkpt>
      <trkpt lat="45.89208" lon="3.43153">
        <ele>322.6</ele>
        <time>2024-05-01T13:22:35Z</time>
      </trkpt>
      <trkpt lat="45.8921" lon="3.43146">
        <ele>322.6</ele>
        <time>2024-05-01T13:22:36Z</time>
      </trkpt>
      <trkpt lat="45.89212" lon="3.4314">
        <ele>322.8</ele>
        <time>2024-05-01T13:22:37Z</time>
      </trkpt>
      <trkpt lat="45.89214" lon="3.43133">
        <ele>322.8</ele>
        <time>2024-05-01T13:22:38Z</time>
      </trkpt>
      <trkpt lat="45.89216" lon="3.43127">
        <ele>322.8</ele>
        <time>2024-05-01T13:22:39Z</time>
      </trkpt>
      <trkpt lat="45.89218" lon="3.4312">
        <ele>323</ele>
        <time>2024-05-01T13:22:40Z</time>
      </trkpt>
      <trkpt lat="45.8922" lon="3.43114">
        <ele>323.2</ele>
        <time>2024-05-01T13:22:41Z</time>
      </trkpt>
      <trkpt lat="45.89222" lon="3.43108">
        <ele>323.2</ele>
        <time>2024-05-01T13:22:42Z</time>
      </trkpt>
      <trkpt lat="45.89224" lon="3.43101">
        <ele>323.4</ele>
        <time>2024-05-01T13:22:43Z</time>
      </trkpt>
      <trkpt lat="45.89226" lon="3.43095">
        <ele>323.4</ele>
        <time>2024-05-01T13:22:44Z</time>
      </trkpt>
      <trkpt lat="45.89227" lon="3.43088">
        <ele>323.6</ele>
        <time>2024-05-01T13:22:45Z</time>
      </trkpt>
      <trkpt lat="45.89229" lon="3.43082">
        <ele>323.6</ele>
        <time>2024-05-01T13:22:46Z</time>
      </trkpt>
      <trkpt lat="45.89231" lon="3.43076">
        <ele>323.8</ele>
        <time>2024-05-01T13:22:47Z</time>
      </trkpt>
      <trkpt lat="45.89233" lon="3.4307">
        <ele>324</ele>
        <time>2024-05-01T13:22:48Z</time>
      </trkpt>
      <trkpt lat="45.89235" lon="3.43063">
        <ele>324</ele>
        <time>2024-05-01T13:22:49Z</time>
      </trkpt>
      <trkpt lat="45.89237" lon="3.43057">
        <ele>324.2</ele>
        <time>2024-05-01T13:22:50Z</time>
      </trkpt>
      <trkpt lat="45.89239" lon="3.43051">
        <ele>324.2</ele>
        <time>2024-05-01T13:22:51Z</time>
      </trkpt>
      <trkpt lat="45.8924" lon="3.43045">
        <ele>324.4</ele>
        <time>2024-05-01T13:22:52Z</time>
      </trkpt>
      <trkpt lat="45.89242" lon="3.43038">
        <ele>324.4</ele>
        <time>2024-05-01T13:22:53Z</time>
      </trkpt>
      <trkpt lat="45.89244" lon="3.43032">
        <ele>324.6</ele>
        <time>2024-05-01T13:22:54Z</time>
      </trkpt>
      <trkpt lat="45.89246" lon="3.43026">
        <ele>324.6</ele>
        <time>2024-05-01T13:22:55Z</time>
      </trkpt>
      <trkpt lat="45.89248" lon="3.4302">
        <ele>324.8</ele>
        <time>2024-05-01T13:22:56Z</time>
      </trkpt>
      <trkpt lat="45.8925" lon="3.43014">
        <ele>324.8</ele>
        <time>2024-05-01T13:22:57Z</time>
      </trkpt>
      <trkpt lat="45.89251" lon="3.43008">
        <ele>325</ele>
        <time>2024-05-01T13:22:58Z</time>
      </trkpt>
      <trkpt lat="45.89253" lon="3.43002">
        <ele>325.2</ele>
        <time>2024-05-01T13:22:59Z</time>
      </trkpt>
      <trkpt lat="45.89255" lon="3.42995">
        <ele>325.2</ele>
        <time>2024-05-01T13:23:00Z</time>
      </trkpt>
      <trkpt lat="45.89256" lon="3.42988">
        <ele>325.4</ele>
        <time>2024-05-01T13:23:01Z</time>
      </trkpt>
      <trkpt lat="45.89257" lon="3.42982">
        <ele>325.4</ele>
        <time>2024-05-01T13:23:02Z</time>
      </trkpt>
      <trkpt lat="45.89258" lon="3.42975">
        <ele>325.6</ele>
        <time>2024-05-01T13:23:03Z</time>
      </trkpt>
      <trkpt lat="45.89259" lon="3.42969">
        <ele>325.6</ele>
        <time>2024-05-01T13:23:04Z</time>
      </trkpt>
      <trkpt lat="45.8926" lon="3.42962">
        <ele>325.8</ele>
        <time>2024-05-01T13:23:05Z</time>
      </trkpt>
      <trkpt lat="45.89261" lon="3.42956">
        <ele>325.8</ele>
        <time>2024-05-01T13:23:06Z</time>
      </trkpt>
      <trkpt lat="45.89262" lon="3.4295">
        <ele>326</ele>
        <time>2024-05-01T13:23:07Z</time>
      </trkpt>
      <trkpt lat="45.89263" lon="3.42943">
        <ele>326</ele>
        <time>2024-05-01T13:23:08Z</time>
      </trkpt>
      <trkpt lat="45.89264" lon="3.42937">
        <ele>326.2</ele>
        <time>2024-05-01T13:23:09Z</time>
      </trkpt>
      <trkpt lat="45.89265" lon="3.4293">
        <ele>326.2</ele>
        <time>2024-05-01T13:23:10Z</time>
      </trkpt>
      <trkpt lat="45.89266" lon="3.42924">
        <ele>326.4</ele>
        <time>2024-05-01T13:23:11Z</time>
      </trkpt>
      <trkpt lat="45.89267" lon="3.42918">
        <ele>326.4</ele>
        <time>2024-05-01T13:23:12Z</time>
      </trkpt>
      <trkpt lat="45.89268" lon="3.42911">
        <ele>326.6</ele>
        <time>2024-05-01T13:23:13Z</time>
      </trkpt>
      <trkpt lat="45.89269" lon="3.42905">
        <ele>326.8</ele>
        <time>2024-05-01T13:23:14Z</time>
      </trkpt>
      <trkpt lat="45.8927" lon="3.42899">
        <ele>326.8</ele>
        <time>2024-05-01T13:23:15Z</time>
      </trkpt>
      <trkpt lat="45.8927" lon="3.42892">
        <ele>327</ele>
        <time>2024-05-01T13:23:16Z</time>
      </trkpt>
      <trkpt lat="45.89271" lon="3.42886">
        <ele>327</ele>
        <time>2024-05-01T13:23:17Z</time>
      </trkpt>
      <trkpt lat="45.89271" lon="3.4288">
        <ele>327.2</ele>
        <time>2024-05-01T13:23:18Z</time>
      </trkpt>
      <trkpt lat="45.89271" lon="3.42873">
        <ele>327.2</ele>
        <time>2024-05-01T13:23:19Z</time>
      </trkpt>
      <trkpt lat="45.89271" lon="3.42867">
        <ele>327.4</ele>
        <time>2024-05-01T13:23:20Z</time>
      </trkpt>
      <trkpt lat="45.89272" lon="3.42861">
        <ele>327.4</ele>
        <time>2024-05-01T13:23:21Z</time>
      </trkpt>
      <trkpt lat="45.89272" lon="3.42855">
        <ele>327.6</ele>
        <time>2024-05-01T13:23:22Z</time>
      </trkpt>
      <trkpt lat="45.89272" lon="3.42849">
        <ele>327.8</ele>
        <time>2024-05-01T13:23:23Z</time>
      </trkpt>
      <trkpt lat="45.89272" lon="3.42842">
        <ele>327.8</ele>
        <time>2024-05-01T13:23:24Z</time>
      </trkpt>
      <trkpt lat="45.89272" lon="3.42836">
        <ele>328</ele>
        <time>2024-05-01T13:23:25Z</time>
      </trkpt>
      <trkpt lat="45.89272" lon="3.4283">
        <ele>328.2</ele>
        <time>2024-05-01T13:23:26Z</time>
      </trkpt>
      <trkpt lat="45.89272" lon="3.42823">
        <ele>328.2</ele>
        <time>2024-05-01T13:23:27Z</time>
      </trkpt>
      <trkpt lat="45.89271" lon="3.42818">
        <ele>328.4</ele>
        <time>2024-05-01T13:23:28Z</time>
      </trkpt>
      <trkpt lat="45.89271" lon="3.42812">
        <ele>328.4</ele>
        <time>2024-05-01T13:23:29Z</time>
      </trkpt>
      <trkpt lat="45.8927" lon="3.42806">
        <ele>328.6</ele>
        <time>2024-05-01T13:23:30Z</time>
      </trkpt>
      <trkpt lat="45.8927" lon="3.428">
        <ele>328.6</ele>
        <time>2024-05-01T13:23:31Z</time>
      </trkpt>
      <trkpt lat="45.8927" lon="3.42794">
        <ele>328.8</ele>
        <time>2024-05-01T13:23:32Z</time>
      </trkpt>
      <trkpt lat="45.89269" lon="3.42789">
        <ele>328.8</ele>
        <time>2024-05-01T13:23:33Z</time>
      </trkpt>
      <trkpt lat="45.89269" lon="3.42783">
        <ele>328.8</ele>
        <time>2024-05-01T13:23:34Z</time>
      </trkpt>
      <trkpt lat="45.89268" lon="3.42777">
        <ele>329</ele>
        <time>2024-05-01T13:23:35Z</time>
      </trkpt>
      <trkpt lat="45.89268" lon="3.42772">
        <ele>329</ele>
        <time>2024-05-01T13:23:36Z</time>
      </trkpt>
      <trkpt lat="45.89267" lon="3.42766">
        <ele>329.2</ele>
        <time>2024-05-01T13:23:37Z</time>
      </trkpt>
      <trkpt lat="45.89267" lon="3.4276">
        <ele>329.2</ele>
        <time>2024-05-01T13:23:38Z</time>
      </trkpt>
      <trkpt lat="45.89267" lon="3.42754">
        <ele>329.4</ele>
        <time>2024-05-01T13:23:39Z</time>
      </trkpt>
      <trkpt lat="45.89266" lon="3.42749">
        <ele>329.4</ele>
        <time>2024-05-01T13:23:40Z</time>
      </trkpt>
      <trkpt lat="45.89266" lon="3.42743">
        <ele>329.6</ele>
        <time>2024-05-01T13:23:41Z</time>
      </trkpt>
      <trkpt lat="45.89265" lon="3.42738">
        <ele>329.8</ele>
        <time>2024-05-01T13:23:42Z</time>
      </trkpt>
      <trkpt lat="45.89265" lon="3.42732">
        <ele>329.8</ele>
        <time>2024-05-01T13:23:43Z</time>
      </trkpt>
      <trkpt lat="45.89265" lon="3.42727">
        <ele>330</ele>
        <time>2024-05-01T13:23:44Z</time>
      </trkpt>
      <trkpt lat="45.89264" lon="3.42721">
        <ele>330</ele>
        <time>2024-05-01T13:23:45Z</time>
      </trkpt>
      <trkpt lat="45.89264" lon="3.42715">
        <ele>330.2</ele>
        <time>2024-05-01T13:23:46Z</time>
      </trkpt>
      <trkpt lat="45.89263" lon="3.4271">
        <ele>330.2</ele>
        <time>2024-05-01T13:23:47Z</time>
      </trkpt>
      <trkpt lat="45.89262" lon="3.42704">
        <ele>330.4</ele>
        <time>2024-05-01T13:23:48Z</time>
      </trkpt>
      <trkpt lat="45.89262" lon="3.42699">
        <ele>330.4</ele>
        <time>2024-05-01T13:23:49Z</time>
      </trkpt>
      <trkpt lat="45.89261" lon="3.42694">
        <ele>330.6</ele>
        <time>2024-05-01T13:23:50Z</time>
      </trkpt>
      <trkpt lat="45.89261" lon="3.42689">
        <ele>330.6</ele>
        <time>2024-05-01T13:23:51Z</time>
      </trkpt>
      <trkpt lat="45.8926" lon="3.42683">
        <ele>330.8</ele>
        <time>2024-05-01T13:23:52Z</time>
      </trkpt>
      <trkpt lat="45.89259" lon="3.42678">
        <ele>331</ele>
        <time>2024-05-01T13:23:53Z</time>
      </trkpt>
      <trkpt lat="45.89259" lon="3.42672">
        <ele>331</ele>
        <time>2024-05-01T13:23:54Z</time>
      </trkpt>
      <trkpt lat="45.89258" lon="3.42667">
        <ele>331.2</ele>
        <time>2024-05-01T13:23:55Z</time>
      </trkpt>
      <trkpt lat="45.89257" lon="3.42661">
        <ele>331.2</ele>
        <time>2024-05-01T13:23:56Z</time>
      </trkpt>
      <trkpt lat="45.89257" lon="3.42655">
        <ele>331.4</ele>
        <time>2024-05-01T13:23:57Z</time>
      </trkpt>
      <trkpt lat="45.89256" lon="3.42649">
        <ele>331.6</ele>
        <time>2024-05-01T13:23:58Z</time>
      </trkpt>
      <trkpt lat="45.89255" lon="3.42644">
        <ele>331.8</ele>
        <time>2024-05-01T13:23:59Z</time>
      </trkpt>
      <trkpt lat="45.89255" lon="3.42638">
        <ele>332</ele>
        <time>2024-05-01T13:24:00Z</time>
      </trkpt>
      <trkpt lat="45.89254" lon="3.42633">
        <ele>332.2</ele>
        <time>2024-05-01T13:24:01Z</time>
      </trkpt>
      <trkpt lat="45.89253" lon="3.42627">
        <ele>332.2</ele>
        <time>2024-05-01T13:24:02Z</time>
      </trkpt>
      <trkpt lat="45.89253" lon="3.42622">
        <ele>332.4</ele>
        <time>2024-05-01T13:24:03Z</time>
      </trkpt>
      <trkpt lat="45.89252" lon="3.42616">
        <ele>332.6</ele>
        <time>2024-05-01T13:24:04Z</time>
      </trkpt>
      <trkpt lat="45.89252" lon="3.42611">
        <ele>332.8</ele>
        <time>2024-05-01T13:24:05Z</time>
      </trkpt>
      <trkpt lat="45.89251" lon="3.42606">
        <ele>333</ele>
        <time>2024-05-01T13:24:06Z</time>
      </trkpt>
      <trkpt lat="45.8925" lon="3.426">
        <ele>333.2</ele>
        <time>2024-05-01T13:24:07Z</time>
      </trkpt>
      <trkpt lat="45.8925" lon="3.42594">
        <ele>333.4</ele>
        <time>2024-05-01T13:24:08Z</time>
      </trkpt>
      <trkpt lat="45.89249" lon="3.42589">
        <ele>333.6</ele>
        <time>2024-05-01T13:24:09Z</time>
      </trkpt>
      <trkpt lat="45.89249" lon="3.42583">
        <ele>333.8</ele>
        <time>2024-05-01T13:24:10Z</time>
      </trkpt>
      <trkpt lat="45.89249" lon="3.42578">
        <ele>334</ele>
        <time>2024-05-01T13:24:11Z</time>
      </trkpt>
      <trkpt lat="45.8925" lon="3.42572">
        <ele>334.2</ele>
        <time>2024-05-01T13:24:12Z</time>
      </trkpt>
      <trkpt lat="45.8925" lon="3.42567">
        <ele>334.4</ele>
        <time>2024-05-01T13:24:13Z</time>
      </trkpt>
      <trkpt lat="45.8925" lon="3.42562">
        <ele>334.8</ele>
        <time>2024-05-01T13:24:14Z</time>
      </trkpt>
      <trkpt lat="45.89251" lon="3.42557">
        <ele>335</ele>
        <time>2024-05-01T13:24:15Z</time>
      </trkpt>
      <trkpt lat="45.89251" lon="3.42551">
        <ele>335.2</ele>
        <time>2024-05-01T13:24:16Z</time>
      </trkpt>
      <trkpt lat="45.89252" lon="3.42546">
        <ele>335.4</ele>
        <time>2024-05-01T13:24:17Z</time>
      </trkpt>
      <trkpt lat="45.89252" lon="3.42541">
        <ele>335.4</ele>
        <time>2024-05-01T13:24:18Z</time>
      </trkpt>
      <trkpt lat="45.89253" lon="3.42536">
        <ele>335.6</ele>
        <time>2024-05-01T13:24:19Z</time>
      </trkpt>
      <trkpt lat="45.89254" lon="3.42531">
        <ele>335.8</ele>
        <time>2024-05-01T13:24:20Z</time>
      </trkpt>
      <trkpt lat="45.89255" lon="3.42525">
        <ele>336</ele>
        <time>2024-05-01T13:24:21Z</time>
      </trkpt>
      <trkpt lat="45.89256" lon="3.4252">
        <ele>336.2</ele>
        <time>2024-05-01T13:24:22Z</time>
      </trkpt>
      <trkpt lat="45.89257" lon="3.42515">
        <ele>336.4</ele>
        <time>2024-05-01T13:24:23Z</time>
      </trkpt>
      <trkpt lat="45.89258" lon="3.42509">
        <ele>336.6</ele>
        <time>2024-05-01T13:24:24Z</time>
      </trkpt>
      <trkpt lat="45.8926" lon="3.42505">
        <ele>336.8</ele>
        <time>2024-05-01T13:24:25Z</time>
      </trkpt>
      <trkpt lat="45.89262" lon="3.425">
        <ele>337</ele>
        <time>2024-05-01T13:24:26Z</time>
      </trkpt>
      <trkpt lat="45.89264" lon="3.42496">
        <ele>337.2</ele>
        <time>2024-05-01T13:24:27Z</time>
      </trkpt>
      <trkpt lat="45.89266" lon="3.42492">
        <ele>337.4</ele>
        <time>2024-05-01T13:24:28Z</time>
      </trkpt>
      <trkpt lat="45.89268" lon="3.42487">
        <ele>337.4</ele>
        <time>2024-05-01T13:24:29Z</time>
      </trkpt>
      <trkpt lat="45.8927" lon="3.42483">
        <ele>337.6</ele>
        <time>2024-05-01T13:24:30Z</time>
      </trkpt>
      <trkpt lat="45.89272" lon="3.42478">
        <ele>337.8</ele>
        <time>2024-05-01T13:24:31Z</time>
      </trkpt>
      <trkpt lat="45.89274" lon="3.42473">
        <ele>338</ele>
        <time>2024-05-01T13:24:32Z</time>
      </trkpt>
      <trkpt lat="45.89276" lon="3.42468">
        <ele>338.2</ele>
        <time>2024-05-01T13:24:33Z</time>
      </trkpt>
      <trkpt lat="45.89279" lon="3.42463">
        <ele>338.2</ele>
        <time>2024-05-01T13:24:34Z</time>
      </trkpt>
      <trkpt lat="45.89281" lon="3.42458">
        <ele>338.4</ele>
        <time>2024-05-01T13:24:35Z</time>
      </trkpt>
      <trkpt lat="45.89283" lon="3.42453">
        <ele>338.6</ele>
        <time>2024-05-01T13:24:36Z</time>
      </trkpt>
      <trkpt lat="45.89286" lon="3.42448">
        <ele>338.8</ele>
        <time>2024-05-01T13:24:37Z</time>
      </trkpt>
      <trkpt lat="45.89288" lon="3.42443">
        <ele>339</ele>
        <time>2024-05-01T13:24:38Z</time>
      </trkpt>
      <trkpt lat="45.89291" lon="3.42438">
        <ele>339.2</ele>
        <time>2024-05-01T13:24:39Z</time>
      </trkpt>
      <trkpt lat="45.89293" lon="3.42433">
        <ele>339.2</ele>
        <time>2024-05-01T13:24:40Z</time>
      </trkpt>
      <trkpt lat="45.89295" lon="3.42427">
        <ele>339.4</ele>
        <time>2024-05-01T13:24:41Z</time>
      </trkpt>
      <trkpt lat="45.89298" lon="3.42422">
        <ele>339.6</ele>
        <time>2024-05-01T13:24:42Z</time>
      </trkpt>
      <trkpt lat="45.89301" lon="3.42416">
        <ele>339.8</ele>
        <time>2024-05-01T13:24:43Z</time>
      </trkpt>
      <trkpt lat="45.89303" lon="3.4241">
        <ele>339.8</ele>
        <time>2024-05-01T13:24:44Z</time>
      </trkpt>
      <trkpt lat="45.89306" lon="3.42404">
        <ele>340</ele>
        <time>2024-05-01T13:24:45Z</time>
      </trkpt>
      <trkpt lat="45.89309" lon="3.42399">
        <ele>340.2</ele>
        <time>2024-05-01T13:24:46Z</time>
      </trkpt>
      <trkpt lat="45.89311" lon="3.42392">
        <ele>340.2</ele>
        <time>2024-05-01T13:24:47Z</time>
      </trkpt>
      <trkpt lat="45.89313" lon="3.42385">
        <ele>340.4</ele>
        <time>2024-05-01T13:24:48Z</time>
      </trkpt>
      <trkpt lat="45.89315" lon="3.42379">
        <ele>340.6</ele>
        <time>2024-05-01T13:24:49Z</time>
      </trkpt>
      <trkpt lat="45.89317" lon="3.42372">
        <ele>340.8</ele>
        <time>2024-05-01T13:24:50Z</time>
      </trkpt>
      <trkpt lat="45.8932" lon="3.42366">
        <ele>340.8</ele>
        <time>2024-05-01T13:24:51Z</time>
      </trkpt>
      <trkpt lat="45.89322" lon="3.42359">
        <ele>341</ele>
        <time>2024-05-01T13:24:52Z</time>
      </trkpt>
      <trkpt lat="45.89324" lon="3.42352">
        <ele>341</ele>
        <time>2024-05-01T13:24:53Z</time>
      </trkpt>
      <trkpt lat="45.89326" lon="3.42345">
        <ele>341.2</ele>
        <time>2024-05-01T13:24:54Z</time>
      </trkpt>
      <trkpt lat="45.89328" lon="3.42338">
        <ele>341.2</ele>
        <time>2024-05-01T13:24:55Z</time>
      </trkpt>
      <trkpt lat="45.89331" lon="3.42331">
        <ele>341.4</ele>
        <time>2024-05-01T13:24:56Z</time>
      </trkpt>
      <trkpt lat="45.89333" lon="3.42324">
        <ele>341.6</ele>
        <time>2024-05-01T13:24:57Z</time>
      </trkpt>
      <trkpt lat="45.89335" lon="3.42317">
        <ele>341.6</ele>
        <time>2024-05-01T13:24:58Z</time>
      </trkpt>
      <trkpt lat="45.89338" lon="3.42309">
        <ele>341.8</ele>
        <time>2024-05-01T13:24:59Z</time>
      </trkpt>
      <trkpt lat="45.8934" lon="3.42302">
        <ele>341.8</ele>
        <time>2024-05-01T13:25:00Z</time>
      </trkpt>
      <trkpt lat="45.89343" lon="3.42295">
        <ele>342</ele>
        <time>2024-05-01T13:25:01Z</time>
      </trkpt>
      <trkpt lat="45.89345" lon="3.42287">
        <ele>342.2</ele>
        <time>2024-05-01T13:25:02Z</time>
      </trkpt>
      <trkpt lat="45.89347" lon="3.4228">
        <ele>342.2</ele>
        <time>2024-05-01T13:25:03Z</time>
      </trkpt>
      <trkpt lat="45.8935" lon="3.42272">
        <ele>342.4</ele>
        <time>2024-05-01T13:25:04Z</time>
      </trkpt>
      <trkpt lat="45.89352" lon="3.42264">
        <ele>342.4</ele>
        <time>2024-05-01T13:25:05Z</time>
      </trkpt>
      <trkpt lat="45.89355" lon="3.42257">
        <ele>342.6</ele>
        <time>2024-05-01T13:25:06Z</time>
      </trkpt>
      <trkpt lat="45.89357" lon="3.42249">
        <ele>342.6</ele>
        <time>2024-05-01T13:25:07Z</time>
      </trkpt>
      <trkpt lat="45.8936" lon="3.42241">
        <ele>342.8</ele>
        <time>2024-05-01T13:25:08Z</time>
      </trkpt>
      <trkpt lat="45.89362" lon="3.42234">
        <ele>342.8</ele>
        <time>2024-05-01T13:25:09Z</time>
      </trkpt>
      <trkpt lat="45.89365" lon="3.42226">
        <ele>343</ele>
        <time>2024-05-01T13:25:10Z</time>
      </trkpt>
      <trkpt lat="45.89367" lon="3.42219">
        <ele>343.2</ele>
        <time>2024-05-01T13:25:11Z</time>
      </trkpt>
      <trkpt lat="45.89371" lon="3.42212">
        <ele>343.2</ele>
        <time>2024-05-01T13:25:12Z</time>
      </trkpt>
      <trkpt lat="45.89375" lon="3.42207">
        <ele>343.4</ele>
        <time>2024-05-01T13:25:13Z</time>
      </trkpt>
      <trkpt lat="45.8938" lon="3.42202">
        <ele>343.4</ele>
        <time>2024-05-01T13:25:14Z</time>
      </trkpt>
      <trkpt lat="45.89385" lon="3.42197">
        <ele>343.6</ele>
        <time>2024-05-01T13:25:15Z</time>
      </trkpt>
      <trkpt lat="45.8939" lon="3.42192">
        <ele>343.6</ele>
        <time>2024-05-01T13:25:16Z</time>
      </trkpt>
      <trkpt lat="45.89395" lon="3.42187">
        <ele>343.6</ele>
        <time>2024-05-01T13:25:17Z</time>
      </trkpt>
      <trkpt lat="45.894" lon="3.42182">
        <ele>343.8</ele>
        <time>2024-05-01T13:25:18Z</time>
      </trkpt>
      <trkpt lat="45.89405" lon="3.42176">
        <ele>343.8</ele>
        <time>2024-05-01T13:25:19Z</time>
      </trkpt>
      <trkpt lat="45.8941" lon="3.42171">
        <ele>344</ele>
        <time>2024-05-01T13:25:20Z</time>
      </trkpt>
      <trkpt lat="45.89415" lon="3.42166">
        <ele>344</ele>
        <time>2024-05-01T13:25:21Z</time>
      </trkpt>
      <trkpt lat="45.8942" lon="3.42161">
        <ele>344</ele>
        <time>2024-05-01T13:25:22Z</time>
      </trkpt>
      <trkpt lat="45.89425" lon="3.42156">
        <ele>344.2</ele>
        <time>2024-05-01T13:25:23Z</time>
      </trkpt>
      <trkpt lat="45.8943" lon="3.42151">
        <ele>344.2</ele>
        <time>2024-05-01T13:25:24Z</time>
      </trkpt>
      <trkpt lat="45.89435" lon="3.42145">
        <ele>344.4</ele>
        <time>2024-05-01T13:25:25Z</time>
      </trkpt>
      <trkpt lat="45.8944" lon="3.4214">
        <ele>344.4</ele>
        <time>2024-05-01T13:25:26Z</time>
      </trkpt>
      <trkpt lat="45.89446" lon="3.42134">
        <ele>344.4</ele>
        <time>2024-05-01T13:25:27Z</time>
      </trkpt>
      <trkpt lat="45.89451" lon="3.42128">
        <ele>344.6</ele>
        <time>2024-05-01T13:25:28Z</time>
      </trkpt>
      <trkpt lat="45.89457" lon="3.42123">
        <ele>344.6</ele>
        <time>2024-05-01T13:25:29Z</time>
      </trkpt>
      <trkpt lat="45.89462" lon="3.42117">
        <ele>344.6</ele>
        <time>2024-05-01T13:25:30Z</time>
      </trkpt>
      <trkpt lat="45.89468" lon="3.42111">
        <ele>344.8</ele>
        <time>2024-05-01T13:25:31Z</time>
      </trkpt>
      <trkpt lat="45.89473" lon="3.42105">
        <ele>344.8</ele>
        <time>2024-05-01T13:25:32Z</time>
      </trkpt>
      <trkpt lat="45.89479" lon="3.421">
        <ele>345</ele>
        <time>2024-05-01T13:25:33Z</time>
      </trkpt>
      <trkpt lat="45.89484" lon="3.42094">
        <ele>345</ele>
        <time>2024-05-01T13:25:34Z</time>
      </trkpt>
      <trkpt lat="45.8949" lon="3.42088">
        <ele>345.2</ele>
        <time>2024-05-01T13:25:35Z</time>
      </trkpt>
      <trkpt lat="45.89495" lon="3.42083">
        <ele>345.2</ele>
        <time>2024-05-01T13:25:36Z</time>
      </trkpt>
      <trkpt lat="45.895" lon="3.42077">
        <ele>345.4</ele>
        <time>2024-05-01T13:25:37Z</time>
      </trkpt>
      <trkpt lat="45.89506" lon="3.42072">
        <ele>345.4</ele>
        <time>2024-05-01T13:25:38Z</time>
      </trkpt>
      <trkpt lat="45.89511" lon="3.42066">
        <ele>345.4</ele>
        <time>2024-05-01T13:25:39Z</time>
      </trkpt>
      <trkpt lat="45.89516" lon="3.42061">
        <ele>345.4</ele>
        <time>2024-05-01T13:25:40Z</time>
      </trkpt>
      <trkpt lat="45.89522" lon="3.42055">
        <ele>345.6</ele>
        <time>2024-05-01T13:25:41Z</time>
      </trkpt>
      <trkpt lat="45.89527" lon="3.4205">
        <ele>345.6</ele>
        <time>2024-05-01T13:25:42Z</time>
      </trkpt>
      <trkpt lat="45.89533" lon="3.42044">
        <ele>345.6</ele>
        <time>2024-05-01T13:25:43Z</time>
      </trkpt>
      <trkpt lat="45.89538" lon="3.42039">
        <ele>345.6</ele>
        <time>2024-05-01T13:25:44Z</time>
      </trkpt>
      <trkpt lat="45.89543" lon="3.42033">
        <ele>345.8</ele>
        <time>2024-05-01T13:25:45Z</time>
      </trkpt>
      <trkpt lat="45.89549" lon="3.42027">
        <ele>345.8</ele>
        <time>2024-05-01T13:25:46Z</time>
      </trkpt>
      <trkpt lat="45.89554" lon="3.42021">
        <ele>345.8</ele>
        <time>2024-05-01T13:25:47Z</time>
      </trkpt>
      <trkpt lat="45.8956" lon="3.42016">
        <ele>345.8</ele>
        <time>2024-05-01T13:25:48Z</time>
      </trkpt>
      <trkpt lat="45.89565" lon="3.4201">
        <ele>346</ele>
        <time>2024-05-01T13:25:49Z</time>
      </trkpt>
      <trkpt lat="45.89571" lon="3.42004">
        <ele>346</ele>
        <time>2024-05-01T13:25:50Z</time>
      </trkpt>
      <trkpt lat="45.89576" lon="3.41999">
        <ele>346</ele>
        <time>2024-05-01T13:25:51Z</time>
      </trkpt>
      <trkpt lat="45.89582" lon="3.41993">
        <ele>346.2</ele>
        <time>2024-05-01T13:25:52Z</time>
      </trkpt>
      <trkpt lat="45.89587" lon="3.41988">
        <ele>346.2</ele>
        <time>2024-05-01T13:25:53Z</time>
      </trkpt>
      <trkpt lat="45.89592" lon="3.41982">
        <ele>346.2</ele>
        <time>2024-05-01T13:25:54Z</time>
      </trkpt>
      <trkpt lat="45.89597" lon="3.41977">
        <ele>346.2</ele>
        <time>2024-05-01T13:25:55Z</time>
      </trkpt>
      <trkpt lat="45.89602" lon="3.41972">
        <ele>346.2</ele>
        <time>2024-05-01T13:25:56Z</time>
      </trkpt>
      <trkpt lat="45.89607" lon="3.41967">
        <ele>346.4</ele>
        <time>2024-05-01T13:25:57Z</time>
      </trkpt>
      <trkpt lat="45.89611" lon="3.41959">
        <ele>346.4</ele>
        <time>2024-05-01T13:25:58Z</time>
      </trkpt>
      <trkpt lat="45.89614" lon="3.41952">
        <ele>346.6</ele>
        <time>2024-05-01T13:25:59Z</time>
      </trkpt>
      <trkpt lat="45.89617" lon="3.41944">
        <ele>346.6</ele>
        <time>2024-05-01T13:26:00Z</time>
      </trkpt>
      <trkpt lat="45.8962" lon="3.41937">
        <ele>346.6</ele>
        <time>2024-05-01T13:26:01Z</time>
      </trkpt>
      <trkpt lat="45.89623" lon="3.4193">
        <ele>346.8</ele>
        <time>2024-05-01T13:26:02Z</time>
      </trkpt>
      <trkpt lat="45.89626" lon="3.41922">
        <ele>346.8</ele>
        <time>2024-05-01T13:26:03Z</time>
      </trkpt>
      <trkpt lat="45.89628" lon="3.41915">
        <ele>347</ele>
        <time>2024-05-01T13:26:04Z</time>
      </trkpt>
      <trkpt lat="45.89631" lon="3.41907">
        <ele>347</ele>
        <time>2024-05-01T13:26:05Z</time>
      </trkpt>
      <trkpt lat="45.89634" lon="3.41899">
        <ele>347</ele>
        <time>2024-05-01T13:26:06Z</time>
      </trkpt>
      <trkpt lat="45.89637" lon="3.41891">
        <ele>347</ele>
        <time>2024-05-01T13:26:07Z</time>
      </trkpt>
      <trkpt lat="45.8964" lon="3.41884">
        <ele>347.2</ele>
        <time>2024-05-01T13:26:08Z</time>
      </trkpt>
      <trkpt lat="45.89643" lon="3.41876">
        <ele>347.2</ele>
        <time>2024-05-01T13:26:09Z</time>
      </trkpt>
      <trkpt lat="45.89647" lon="3.41867">
        <ele>347.4</ele>
        <time>2024-05-01T13:26:10Z</time>
      </trkpt>
      <trkpt lat="45.8965" lon="3.41859">
        <ele>347.4</ele>
        <time>2024-05-01T13:26:11Z</time>
      </trkpt>
      <trkpt lat="45.89653" lon="3.41851">
        <ele>347.4</ele>
        <time>2024-05-01T13:26:12Z</time>
      </trkpt>
      <trkpt lat="45.89656" lon="3.41843">
        <ele>347.6</ele>
        <time>2024-05-01T13:26:13Z</time>
      </trkpt>
      <trkpt lat="45.89659" lon="3.41835">
        <ele>347.6</ele>
        <time>2024-05-01T13:26:14Z</time>
      </trkpt>
      <trkpt lat="45.89662" lon="3.41827">
        <ele>347.6</ele>
        <time>2024-05-01T13:26:15Z</time>
      </trkpt>
      <trkpt lat="45.89665" lon="3.41819">
        <ele>347.6</ele>
        <time>2024-05-01T13:26:16Z</time>
      </trkpt>
      <trkpt lat="45.89668" lon="3.4181">
        <ele>347.8</ele>
        <time>2024-05-01T13:26:17Z</time>
      </trkpt>
      <trkpt lat="45.89672" lon="3.41802">
        <ele>347.8</ele>
        <time>2024-05-01T13:26:18Z</time>
      </trkpt>
      <trkpt lat="45.89675" lon="3.41793">
        <ele>347.8</ele>
        <time>2024-05-01T13:26:19Z</time>
      </trkpt>
      <trkpt lat="45.89678" lon="3.41785">
        <ele>348</ele>
        <time>2024-05-01T13:26:20Z</time>
      </trkpt>
      <trkpt lat="45.89681" lon="3.41777">
        <ele>348</ele>
        <time>2024-05-01T13:26:21Z</time>
      </trkpt>
      <trkpt lat="45.89684" lon="3.41769">
        <ele>348</ele>
        <time>2024-05-01T13:26:22Z</time>
      </trkpt>
      <trkpt lat="45.89687" lon="3.41761">
        <ele>348.2</ele>
        <time>2024-05-01T13:26:23Z</time>
      </trkpt>
      <trkpt lat="45.8969" lon="3.41753">
        <ele>348.2</ele>
        <time>2024-05-01T13:26:24Z</time>
      </trkpt>
      <trkpt lat="45.89693" lon="3.41746">
        <ele>348.2</ele>
        <time>2024-05-01T13:26:25Z</time>
      </trkpt>
      <trkpt lat="45.89697" lon="3.41739">
        <ele>348.4</ele>
        <time>2024-05-01T13:26:26Z</time>
      </trkpt>
      <trkpt lat="45.897" lon="3.41732">
        <ele>348.4</ele>
        <time>2024-05-01T13:26:27Z</time>
      </trkpt>
      <trkpt lat="45.89704" lon="3.41725">
        <ele>348.6</ele>
        <time>2024-05-01T13:26:28Z</time>
      </trkpt>
      <trkpt lat="45.89707" lon="3.41718">
        <ele>348.6</ele>
        <time>2024-05-01T13:26:29Z</time>
      </trkpt>
      <trkpt lat="45.89711" lon="3.41712">
        <ele>348.6</ele>
        <time>2024-05-01T13:26:30Z</time>
      </trkpt>
      <trkpt lat="45.89714" lon="3.41705">
        <ele>348.8</ele>
        <time>2024-05-01T13:26:31Z</time>
      </trkpt>
      <trkpt lat="45.89718" lon="3.41698">
        <ele>348.8</ele>
        <time>2024-05-01T13:26:32Z</time>
      </trkpt>
      <trkpt lat="45.89721" lon="3.41691">
        <ele>349</ele>
        <time>2024-05-01T13:26:33Z</time>
      </trkpt>
      <trkpt lat="45.89725" lon="3.41684">
        <ele>349</ele>
        <time>2024-05-01T13:26:34Z</time>
      </trkpt>
      <trkpt lat="45.89728" lon="3.41677">
        <ele>349.2</ele>
        <time>2024-05-01T13:26:35Z</time>
      </trkpt>
      <trkpt lat="45.89732" lon="3.4167">
        <ele>349.2</ele>
        <time>2024-05-01T13:26:36Z</time>
      </trkpt>
      <trkpt lat="45.89737" lon="3.41664">
        <ele>349.4</ele>
        <time>2024-05-01T13:26:37Z</time>
      </trkpt>
      <trkpt lat="45.89742" lon="3.41658">
        <ele>349.4</ele>
        <time>2024-05-01T13:26:38Z</time>
      </trkpt>
      <trkpt lat="45.89746" lon="3.41652">
        <ele>349.4</ele>
        <time>2024-05-01T13:26:39Z</time>
      </trkpt>
      <trkpt lat="45.89751" lon="3.41646">
        <ele>349.4</ele>
        <time>2024-05-01T13:26:40Z</time>
      </trkpt>
      <trkpt lat="45.89756" lon="3.4164">
        <ele>349.6</ele>
        <time>2024-05-01T13:26:41Z</time>
      </trkpt>
      <trkpt lat="45.89761" lon="3.41633">
        <ele>349.6</ele>
        <time>2024-05-01T13:26:42Z</time>
      </trkpt>
      <trkpt lat="45.89766" lon="3.41627">
        <ele>349.6</ele>
        <time>2024-05-01T13:26:43Z</time>
      </trkpt>
      <trkpt lat="45.89771" lon="3.4162">
        <ele>349.6</ele>
        <time>2024-05-01T13:26:44Z</time>
      </trkpt>
      <trkpt lat="45.89776" lon="3.41614">
        <ele>349.6</ele>
        <time>2024-05-01T13:26:45Z</time>
      </trkpt>
      <trkpt lat="45.89782" lon="3.41607">
        <ele>349.6</ele>
        <time>2024-05-01T13:26:46Z</time>
      </trkpt>
      <trkpt lat="45.89787" lon="3.416">
        <ele>349.6</ele>
        <time>2024-05-01T13:26:47Z</time>
      </trkpt>
      <trkpt lat="45.89792" lon="3.41593">
        <ele>349.6</ele>
        <time>2024-05-01T13:26:48Z</time>
      </trkpt>
      <trkpt lat="45.89798" lon="3.41587">
        <ele>349.6</ele>
        <time>2024-05-01T13:26:49Z</time>
      </trkpt>
      <trkpt lat="45.89803" lon="3.4158">
        <ele>349.8</ele>
        <time>2024-05-01T13:26:50Z</time>
      </trkpt>
      <trkpt lat="45.89808" lon="3.41573">
        <ele>349.8</ele>
        <time>2024-05-01T13:26:51Z</time>
      </trkpt>
      <trkpt lat="45.89813" lon="3.41566">
        <ele>349.8</ele>
        <time>2024-05-01T13:26:52Z</time>
      </trkpt>
      <trkpt lat="45.89817" lon="3.41559">
        <ele>349.8</ele>
        <time>2024-05-01T13:26:53Z</time>
      </trkpt>
      <trkpt lat="45.89822" lon="3.41551">
        <ele>349.8</ele>
        <time>2024-05-01T13:26:54Z</time>
      </trkpt>
      <trkpt lat="45.89826" lon="3.41544">
        <ele>350</ele>
        <time>2024-05-01T13:26:55Z</time>
      </trkpt>
      <trkpt lat="45.89831" lon="3.41536">
        <ele>350</ele>
        <time>2024-05-01T13:26:56Z</time>
      </trkpt>
      <trkpt lat="45.89835" lon="3.41529">
        <ele>350</ele>
        <time>2024-05-01T13:26:57Z</time>
      </trkpt>
      <trkpt lat="45.89839" lon="3.41522">
        <ele>350</ele>
        <time>2024-05-01T13:26:58Z</time>
      </trkpt>
      <trkpt lat="45.89843" lon="3.41514">
        <ele>350.2</ele>
        <time>2024-05-01T13:26:59Z</time>
      </trkpt>
      <trkpt lat="45.89848" lon="3.41507">
        <ele>350.2</ele>
        <time>2024-05-01T13:27:00Z</time>
      </trkpt>
      <trkpt lat="45.89852" lon="3.415">
        <ele>350.2</ele>
        <time>2024-05-01T13:27:01Z</time>
      </trkpt>
      <trkpt lat="45.89856" lon="3.41493">
        <ele>350.4</ele>
        <time>2024-05-01T13:27:02Z</time>
      </trkpt>
      <trkpt lat="45.8986" lon="3.41486">
        <ele>350.4</ele>
        <time>2024-05-01T13:27:03Z</time>
      </trkpt>
      <trkpt lat="45.89864" lon="3.41479">
        <ele>350.4</ele>
        <time>2024-05-01T13:27:04Z</time>
      </trkpt>
      <trkpt lat="45.89867" lon="3.41471">
        <ele>350.6</ele>
        <time>2024-05-01T13:27:05Z</time>
      </trkpt>
      <trkpt lat="45.8987" lon="3.41463">
        <ele>350.6</ele>
        <time>2024-05-01T13:27:06Z</time>
      </trkpt>
      <trkpt lat="45.89874" lon="3.41456">
        <ele>350.6</ele>
        <time>2024-05-01T13:27:07Z</time>
      </trkpt>
      <trkpt lat="45.89877" lon="3.41448">
        <ele>350.6</ele>
        <time>2024-05-01T13:27:08Z</time>
      </trkpt>
      <trkpt lat="45.8988" lon="3.4144">
        <ele>350.6</ele>
        <time>2024-05-01T13:27:09Z</time>
      </trkpt>
      <trkpt lat="45.89884" lon="3.41432">
        <ele>350.8</ele>
        <time>2024-05-01T13:27:10Z</time>
      </trkpt>
      <trkpt lat="45.89887" lon="3.41424">
        <ele>350.8</ele>
        <time>2024-05-01T13:27:11Z</time>
      </trkpt>
      <trkpt lat="45.89891" lon="3.41415">
        <ele>350.8</ele>
        <time>2024-05-01T13:27:12Z</time>
      </trkpt>
      <trkpt lat="45.89894" lon="3.41407">
        <ele>350.8</ele>
        <time>2024-05-01T13:27:13Z</time>
      </trkpt>
      <trkpt lat="45.89898" lon="3.41398">
        <ele>350.8</ele>
        <time>2024-05-01T13:27:14Z</time>
      </trkpt>
      <trkpt lat="45.89902" lon="3.4139">
        <ele>351</ele>
        <time>2024-05-01T13:27:15Z</time>
      </trkpt>
      <trkpt lat="45.89905" lon="3.41381">
        <ele>350.8</ele>
        <time>2024-05-01T13:27:16Z</time>
      </trkpt>
      <trkpt lat="45.89909" lon="3.41372">
        <ele>351</ele>
        <time>2024-05-01T13:27:17Z</time>
      </trkpt>
      <trkpt lat="45.89912" lon="3.41364">
        <ele>351</ele>
        <time>2024-05-01T13:27:18Z</time>
      </trkpt>
      <trkpt lat="45.89915" lon="3.41355">
        <ele>351</ele>
        <time>2024-05-01T13:27:19Z</time>
      </trkpt>
      <trkpt lat="45.89917" lon="3.41346">
        <ele>351</ele>
        <time>2024-05-01T13:27:20Z</time>
      </trkpt>
      <trkpt lat="45.89919" lon="3.41337">
        <ele>351</ele>
        <time>2024-05-01T13:27:21Z</time>
      </trkpt>
      <trkpt lat="45.8992" lon="3.41327">
        <ele>351</ele>
        <time>2024-05-01T13:27:22Z</time>
      </trkpt>
      <trkpt lat="45.89921" lon="3.41317">
        <ele>351</ele>
        <time>2024-05-01T13:27:23Z</time>
      </trkpt>
      <trkpt lat="45.89922" lon="3.41307">
        <ele>351</ele>
        <time>2024-05-01T13:27:24Z</time>
      </trkpt>
      <trkpt lat="45.89923" lon="3.41297">
        <ele>351</ele>
        <time>2024-05-01T13:27:25Z</time>
      </trkpt>
      <trkpt lat="45.89924" lon="3.41287">
        <ele>351</ele>
        <time>2024-05-01T13:27:26Z</time>
      </trkpt>
      <trkpt lat="45.89925" lon="3.41278">
        <ele>351</ele>
        <time>2024-05-01T13:27:27Z</time>
      </trkpt>
      <trkpt lat="45.89926" lon="3.41268">
        <ele>351</ele>
        <time>2024-05-01T13:27:28Z</time>
      </trkpt>
      <trkpt lat="45.89927" lon="3.41258">
        <ele>351.2</ele>
        <time>2024-05-01T13:27:29Z</time>
      </trkpt>
      <trkpt lat="45.89928" lon="3.41248">
        <ele>351.2</ele>
        <time>2024-05-01T13:27:30Z</time>
      </trkpt>
      <trkpt lat="45.89929" lon="3.41239">
        <ele>351.4</ele>
        <time>2024-05-01T13:27:31Z</time>
      </trkpt>
      <trkpt lat="45.89931" lon="3.41229">
        <ele>351.4</ele>
        <time>2024-05-01T13:27:32Z</time>
      </trkpt>
      <trkpt lat="45.89932" lon="3.41219">
        <ele>351.4</ele>
        <time>2024-05-01T13:27:33Z</time>
      </trkpt>
      <trkpt lat="45.89934" lon="3.4121">
        <ele>351.6</ele>
        <time>2024-05-01T13:27:34Z</time>
      </trkpt>
      <trkpt lat="45.89936" lon="3.412">
        <ele>351.6</ele>
        <time>2024-05-01T13:27:35Z</time>
      </trkpt>
      <trkpt lat="45.89938" lon="3.41191">
        <ele>351.6</ele>
        <time>2024-05-01T13:27:36Z</time>
      </trkpt>
      <trkpt lat="45.8994" lon="3.41181">
        <ele>351.6</ele>
        <time>2024-05-01T13:27:37Z</time>
      </trkpt>
      <trkpt lat="45.89942" lon="3.41172">
        <ele>351.8</ele>
        <time>2024-05-01T13:27:38Z</time>
      </trkpt>
      <trkpt lat="45.89946" lon="3.41164">
        <ele>351.8</ele>
        <time>2024-05-01T13:27:39Z</time>
      </trkpt>
      <trkpt lat="45.89949" lon="3.41156">
        <ele>351.8</ele>
        <time>2024-05-01T13:27:40Z</time>
      </trkpt>
      <trkpt lat="45.89954" lon="3.41147">
        <ele>352</ele>
        <time>2024-05-01T13:27:41Z</time>
      </trkpt>
      <trkpt lat="45.89958" lon="3.41139">
        <ele>352</ele>
        <time>2024-05-01T13:27:42Z</time>
      </trkpt>
      <trkpt lat="45.89962" lon="3.41131">
        <ele>352</ele>
        <time>2024-05-01T13:27:43Z</time>
      </trkpt>
      <trkpt lat="45.89965" lon="3.41124">
        <ele>352</ele>
        <time>2024-05-01T13:27:44Z</time>
      </trkpt>
      <trkpt lat="45.89969" lon="3.41116">
        <ele>352.2</ele>
        <time>2024-05-01T13:27:45Z</time>
      </trkpt>
      <trkpt lat="45.89973" lon="3.41108">
        <ele>352.2</ele>
        <time>2024-05-01T13:27:46Z</time>
      </trkpt>
      <trkpt lat="45.89977" lon="3.411">
        <ele>352.2</ele>
        <time>2024-05-01T13:27:47Z</time>
      </trkpt>
      <trkpt lat="45.89981" lon="3.41093">
        <ele>352.2</ele>
        <time>2024-05-01T13:27:48Z</time>
      </trkpt>
      <trkpt lat="45.89985" lon="3.41085">
        <ele>352.2</ele>
        <time>2024-05-01T13:27:49Z</time>
      </trkpt>
      <trkpt lat="45.89989" lon="3.41078">
        <ele>352.4</ele>
        <time>2024-05-01T13:27:50Z</time>
      </trkpt>
      <trkpt lat="45.89993" lon="3.41072">
        <ele>352.2</ele>
        <time>2024-05-01T13:27:51Z</time>
      </trkpt>
      <trkpt lat="45.89998" lon="3.41065">
        <ele>352.4</ele>
        <time>2024-05-01T13:27:52Z</time>
      </trkpt>
      <trkpt lat="45.90003" lon="3.41059">
        <ele>352.4</ele>
        <time>2024-05-01T13:27:53Z</time>
      </trkpt>
      <trkpt lat="45.90008" lon="3.41052">
        <ele>352.4</ele>
        <time>2024-05-01T13:27:54Z</time>
      </trkpt>
      <trkpt lat="45.90012" lon="3.41046">
        <ele>352.4</ele>
        <time>2024-05-01T13:27:55Z</time>
      </trkpt>
      <trkpt lat="45.90017" lon="3.41039">
        <ele>352.4</ele>
        <time>2024-05-01T13:27:56Z</time>
      </trkpt>
      <trkpt lat="45.90022" lon="3.41033">
        <ele>352.4</ele>
        <time>2024-05-01T13:27:57Z</time>
      </trkpt>
      <trkpt lat="45.90026" lon="3.41027">
        <ele>352.6</ele>
        <time>2024-05-01T13:27:58Z</time>
      </trkpt>
      <trkpt lat="45.90031" lon="3.4102">
        <ele>352.6</ele>
        <time>2024-05-01T13:27:59Z</time>
      </trkpt>
      <trkpt lat="45.90035" lon="3.41014">
        <ele>352.6</ele>
        <time>2024-05-01T13:28:00Z</time>
      </trkpt>
      <trkpt lat="45.9004" lon="3.41008">
        <ele>352.6</ele>
        <time>2024-05-01T13:28:01Z</time>
      </trkpt>
      <trkpt lat="45.90045" lon="3.41002">
        <ele>352.8</ele>
        <time>2024-05-01T13:28:02Z</time>
      </trkpt>
      <trkpt lat="45.90049" lon="3.40996">
        <ele>352.8</ele>
        <time>2024-05-01T13:28:03Z</time>
      </trkpt>
      <trkpt lat="45.90053" lon="3.40989">
        <ele>352.8</ele>
        <time>2024-05-01T13:28:04Z</time>
      </trkpt>
      <trkpt lat="45.90057" lon="3.40982">
        <ele>352.8</ele>
        <time>2024-05-01T13:28:05Z</time>
      </trkpt>
      <trkpt lat="45.90061" lon="3.40975">
        <ele>353</ele>
        <time>2024-05-01T13:28:06Z</time>
      </trkpt>
      <trkpt lat="45.90065" lon="3.40968">
        <ele>353</ele>
        <time>2024-05-01T13:28:07Z</time>
      </trkpt>
      <trkpt lat="45.90069" lon="3.40961">
        <ele>353</ele>
        <time>2024-05-01T13:28:08Z</time>
      </trkpt>
      <trkpt lat="45.90073" lon="3.40954">
        <ele>353.2</ele>
        <time>2024-05-01T13:28:09Z</time>
      </trkpt>
      <trkpt lat="45.90076" lon="3.40947">
        <ele>353.2</ele>
        <time>2024-05-01T13:28:10Z</time>
      </trkpt>
      <trkpt lat="45.9008" lon="3.4094">
        <ele>353.2</ele>
        <time>2024-05-01T13:28:11Z</time>
      </trkpt>
      <trkpt lat="45.90083" lon="3.40934">
        <ele>353.2</ele>
        <time>2024-05-01T13:28:12Z</time>
      </trkpt>
      <trkpt lat="45.90086" lon="3.40927">
        <ele>353.2</ele>
        <time>2024-05-01T13:28:13Z</time>
      </trkpt>
      <trkpt lat="45.90089" lon="3.4092">
        <ele>353.2</ele>
        <time>2024-05-01T13:28:14Z</time>
      </trkpt>
      <trkpt lat="45.90092" lon="3.40913">
        <ele>353.4</ele>
        <time>2024-05-01T13:28:15Z</time>
      </trkpt>
      <trkpt lat="45.90095" lon="3.40907">
        <ele>353.4</ele>
        <time>2024-05-01T13:28:16Z</time>
      </trkpt>
      <trkpt lat="45.90098" lon="3.409">
        <ele>353.4</ele>
        <time>2024-05-01T13:28:17Z</time>
      </trkpt>
      <trkpt lat="45.90101" lon="3.40893">
        <ele>353.6</ele>
        <time>2024-05-01T13:28:18Z</time>
      </trkpt>
      <trkpt lat="45.90104" lon="3.40887">
        <ele>353.6</ele>
        <time>2024-05-01T13:28:19Z</time>
      </trkpt>
      <trkpt lat="45.90106" lon="3.4088">
        <ele>353.8</ele>
        <time>2024-05-01T13:28:20Z</time>
      </trkpt>
      <trkpt lat="45.90109" lon="3.40874">
        <ele>353.8</ele>
        <time>2024-05-01T13:28:21Z</time>
      </trkpt>
      <trkpt lat="45.90112" lon="3.40867">
        <ele>353.8</ele>
        <time>2024-05-01T13:28:22Z</time>
      </trkpt>
      <trkpt lat="45.90115" lon="3.4086">
        <ele>353.8</ele>
        <time>2024-05-01T13:28:23Z</time>
      </trkpt>
      <trkpt lat="45.90118" lon="3.40854">
        <ele>354</ele>
        <time>2024-05-01T13:28:24Z</time>
      </trkpt>
      <trkpt lat="45.90121" lon="3.40847">
        <ele>354</ele>
        <time>2024-05-01T13:28:25Z</time>
      </trkpt>
      <trkpt lat="45.90124" lon="3.4084">
        <ele>354</ele>
        <time>2024-05-01T13:28:26Z</time>
      </trkpt>
      <trkpt lat="45.90127" lon="3.40833">
        <ele>354.2</ele>
        <time>2024-05-01T13:28:27Z</time>
      </trkpt>
      <trkpt lat="45.9013" lon="3.40826">
        <ele>354.2</ele>
        <time>2024-05-01T13:28:28Z</time>
      </trkpt>
      <trkpt lat="45.90133" lon="3.40819">
        <ele>354.2</ele>
        <time>2024-05-01T13:28:29Z</time>
      </trkpt>
      <trkpt lat="45.90136" lon="3.40812">
        <ele>354.4</ele>
        <time>2024-05-01T13:28:30Z</time>
      </trkpt>
      <trkpt lat="45.90139" lon="3.40805">
        <ele>354.4</ele>
        <time>2024-05-01T13:28:31Z</time>
      </trkpt>
      <trkpt lat="45.90142" lon="3.40798">
        <ele>354.4</ele>
        <time>2024-05-01T13:28:32Z</time>
      </trkpt>
      <trkpt lat="45.90145" lon="3.40791">
        <ele>354.6</ele>
        <time>2024-05-01T13:28:33Z</time>
      </trkpt>
      <trkpt lat="45.90148" lon="3.40784">
        <ele>354.6</ele>
        <time>2024-05-01T13:28:34Z</time>
      </trkpt>
      <trkpt lat="45.90151" lon="3.40776">
        <ele>354.6</ele>
        <time>2024-05-01T13:28:35Z</time>
      </trkpt>
      <trkpt lat="45.90154" lon="3.4077">
        <ele>354.6</ele>
        <time>2024-05-01T13:28:36Z</time>
      </trkpt>
      <trkpt lat="45.90157" lon="3.40763">
        <ele>354.6</ele>
        <time>2024-05-01T13:28:37Z</time>
      </trkpt>
      <trkpt lat="45.9016" lon="3.40756">
        <ele>354.8</ele>
        <time>2024-05-01T13:28:38Z</time>
      </trkpt>
      <trkpt lat="45.90163" lon="3.40749">
        <ele>354.8</ele>
        <time>2024-05-01T13:28:39Z</time>
      </trkpt>
      <trkpt lat="45.90166" lon="3.40741">
        <ele>354.8</ele>
        <time>2024-05-01T13:28:40Z</time>
      </trkpt>
      <trkpt lat="45.90169" lon="3.40734">
        <ele>354.8</ele>
        <time>2024-05-01T13:28:41Z</time>
      </trkpt>
      <trkpt lat="45.90172" lon="3.40727">
        <ele>354.8</ele>
        <time>2024-05-01T13:28:42Z</time>
      </trkpt>
      <trkpt lat="45.90176" lon="3.4072">
        <ele>354.8</ele>
        <time>2024-05-01T13:28:43Z</time>
      </trkpt>
      <trkpt lat="45.90179" lon="3.40712">
        <ele>355</ele>
        <time>2024-05-01T13:28:44Z</time>
      </trkpt>
      <trkpt lat="45.90183" lon="3.40705">
        <ele>355</ele>
        <time>2024-05-01T13:28:45Z</time>
      </trkpt>
      <trkpt lat="45.90188" lon="3.40698">
        <ele>355</ele>
        <time>2024-05-01T13:28:46Z</time>
      </trkpt>
      <trkpt lat="45.90193" lon="3.40692">
        <ele>355</ele>
        <time>2024-05-01T13:28:47Z</time>
      </trkpt>
      <trkpt lat="45.90198" lon="3.40686">
        <ele>355.2</ele>
        <time>2024-05-01T13:28:48Z</time>
      </trkpt>
      <trkpt lat="45.90202" lon="3.40679">
        <ele>355.2</ele>
        <time>2024-05-01T13:28:49Z</time>
      </trkpt>
      <trkpt lat="45.90207" lon="3.40672">
        <ele>355.2</ele>
        <time>2024-05-01T13:28:50Z</time>
      </trkpt>
      <trkpt lat="45.90212" lon="3.40666">
        <ele>355.2</ele>
        <time>2024-05-01T13:28:51Z</time>
      </trkpt>
      <trkpt lat="45.90217" lon="3.40659">
        <ele>355.2</ele>
        <time>2024-05-01T13:28:52Z</time>
      </trkpt>
      <trkpt lat="45.90221" lon="3.40653">
        <ele>355.2</ele>
        <time>2024-05-01T13:28:53Z</time>
      </trkpt>
      <trkpt lat="45.90226" lon="3.40647">
        <ele>355.2</ele>
        <time>2024-05-01T13:28:54Z</time>
      </trkpt>
      <trkpt lat="45.90231" lon="3.4064">
        <ele>355.2</ele>
        <time>2024-05-01T13:28:55Z</time>
      </trkpt>
      <trkpt lat="45.90235" lon="3.40634">
        <ele>355.4</ele>
        <time>2024-05-01T13:28:56Z</time>
      </trkpt>
      <trkpt lat="45.9024" lon="3.40628">
        <ele>355.4</ele>
        <time>2024-05-01T13:28:57Z</time>
      </trkpt>
      <trkpt lat="45.90244" lon="3.40622">
        <ele>355.4</ele>
        <time>2024-05-01T13:28:58Z</time>
      </trkpt>
      <trkpt lat="45.90248" lon="3.40616">
        <ele>355.4</ele>
        <time>2024-05-01T13:28:59Z</time>
      </trkpt>
      <trkpt lat="45.90253" lon="3.4061">
        <ele>355.4</ele>
        <time>2024-05-01T13:29:00Z</time>
      </trkpt>
      <trkpt lat="45.90257" lon="3.40604">
        <ele>355.6</ele>
        <time>2024-05-01T13:29:01Z</time>
      </trkpt>
      <trkpt lat="45.90262" lon="3.40598">
        <ele>355.6</ele>
        <time>2024-05-01T13:29:02Z</time>
      </trkpt>
      <trkpt lat="45.90266" lon="3.40592">
        <ele>355.6</ele>
        <time>2024-05-01T13:29:03Z</time>
      </trkpt>
      <trkpt lat="45.90271" lon="3.40585">
        <ele>355.6</ele>
        <time>2024-05-01T13:29:04Z</time>
      </trkpt>
      <trkpt lat="45.90276" lon="3.40579">
        <ele>355.6</ele>
        <time>2024-05-01T13:29:05Z</time>
      </trkpt>
      <trkpt lat="45.9028" lon="3.40572">
        <ele>355.6</ele>
        <time>2024-05-01T13:29:06Z</time>
      </trkpt>
      <trkpt lat="45.90285" lon="3.40565">
        <ele>355.6</ele>
        <time>2024-05-01T13:29:07Z</time>
      </trkpt>
      <trkpt lat="45.90289" lon="3.40558">
        <ele>355.6</ele>
        <time>2024-05-01T13:29:08Z</time>
      </trkpt>
      <trkpt lat="45.90294" lon="3.40551">
        <ele>355.6</ele>
        <time>2024-05-01T13:29:09Z</time>
      </trkpt>
      <trkpt lat="45.90299" lon="3.40544">
        <ele>355.8</ele>
        <time>2024-05-01T13:29:10Z</time>
      </trkpt>
      <trkpt lat="45.90304" lon="3.40537">
        <ele>355.8</ele>
        <time>2024-05-01T13:29:11Z</time>
      </trkpt>
      <trkpt lat="45.90308" lon="3.4053">
        <ele>355.8</ele>
        <time>2024-05-01T13:29:12Z</time>
      </trkpt>
      <trkpt lat="45.90313" lon="3.40522">
        <ele>355.8</ele>
        <time>2024-05-01T13:29:13Z</time>
      </trkpt>
      <trkpt lat="45.90318" lon="3.40515">
        <ele>355.8</ele>
        <time>2024-05-01T13:29:14Z</time>
      </trkpt>
      <trkpt lat="45.90323" lon="3.40508">
        <ele>355.8</ele>
        <time>2024-05-01T13:29:15Z</time>
      </trkpt>
      <trkpt lat="45.90328" lon="3.405">
        <ele>355.8</ele>
        <time>2024-05-01T13:29:16Z</time>
      </trkpt>
      <trkpt lat="45.90333" lon="3.40493">
        <ele>355.8</ele>
        <time>2024-05-01T13:29:17Z</time>
      </trkpt>
      <trkpt lat="45.90338" lon="3.40485">
        <ele>355.8</ele>
        <time>2024-05-01T13:29:18Z</time>
      </trkpt>
      <trkpt lat="45.90343" lon="3.40478">
        <ele>355.8</ele>
        <time>2024-05-01T13:29:19Z</time>
      </trkpt>
      <trkpt lat="45.90348" lon="3.4047">
        <ele>355.8</ele>
        <time>2024-05-01T13:29:20Z</time>
      </trkpt>
      <trkpt lat="45.90353" lon="3.40463">
        <ele>355.8</ele>
        <time>2024-05-01T13:29:21Z</time>
      </trkpt>
      <trkpt lat="45.90358" lon="3.40455">
        <ele>355.8</ele>
        <time>2024-05-01T13:29:22Z</time>
      </trkpt>
      <trkpt lat="45.90363" lon="3.40447">
        <ele>355.8</ele>
        <time>2024-05-01T13:29:23Z</time>
      </trkpt>
      <trkpt lat="45.90368" lon="3.4044">
        <ele>355.8</ele>
        <time>2024-05-01T13:29:24Z</time>
      </trkpt>
      <trkpt lat="45.90373" lon="3.40432">
        <ele>355.8</ele>
        <time>2024-05-01T13:29:25Z</time>
      </trkpt>
      <trkpt lat="45.90378" lon="3.40425">
        <ele>355.8</ele>
        <time>2024-05-01T13:29:26Z</time>
      </trkpt>
      <trkpt lat="45.90383" lon="3.40418">
        <ele>356</ele>
        <time>2024-05-01T13:29:27Z</time>
      </trkpt>
      <trkpt lat="45.90387" lon="3.4041">
        <ele>356</ele>
        <time>2024-05-01T13:29:28Z</time>
      </trkpt>
      <trkpt lat="45.90392" lon="3.40403">
        <ele>356</ele>
        <time>2024-05-01T13:29:29Z</time>
      </trkpt>
      <trkpt lat="45.90397" lon="3.40396">
        <ele>356</ele>
        <time>2024-05-01T13:29:30Z</time>
      </trkpt>
      <trkpt lat="45.90402" lon="3.40388">
        <ele>356</ele>
        <time>2024-05-01T13:29:31Z</time>
      </trkpt>
      <trkpt lat="45.90407" lon="3.40381">
        <ele>356</ele>
        <time>2024-05-01T13:29:32Z</time>
      </trkpt>
      <trkpt lat="45.90412" lon="3.40374">
        <ele>356</ele>
        <time>2024-05-01T13:29:33Z</time>
      </trkpt>
      <trkpt lat="45.90416" lon="3.40363">
        <ele>356</ele>
        <time>2024-05-01T13:29:34Z</time>
      </trkpt>
      <trkpt lat="45.90419" lon="3.40354">
        <ele>356.2</ele>
        <time>2024-05-01T13:29:35Z</time>
      </trkpt>
      <trkpt lat="45.90422" lon="3.40345">
        <ele>356.2</ele>
        <time>2024-05-01T13:29:36Z</time>
      </trkpt>
      <trkpt lat="45.90425" lon="3.40336">
        <ele>356.2</ele>
        <time>2024-05-01T13:29:37Z</time>
      </trkpt>
      <trkpt lat="45.90428" lon="3.40326">
        <ele>356.2</ele>
        <time>2024-05-01T13:29:38Z</time>
      </trkpt>
      <trkpt lat="45.9043" lon="3.40317">
        <ele>356.2</ele>
        <time>2024-05-01T13:29:39Z</time>
      </trkpt>
      <trkpt lat="45.90433" lon="3.40308">
        <ele>356.2</ele>
        <time>2024-05-01T13:29:40Z</time>
      </trkpt>
      <trkpt lat="45.90436" lon="3.40298">
        <ele>356.2</ele>
        <time>2024-05-01T13:29:41Z</time>
      </trkpt>
      <trkpt lat="45.90439" lon="3.40289">
        <ele>356.2</ele>
        <time>2024-05-01T13:29:42Z</time>
      </trkpt>
      <trkpt lat="45.90441" lon="3.40279">
        <ele>356.2</ele>
        <time>2024-05-01T13:29:43Z</time>
      </trkpt>
      <trkpt lat="45.90444" lon="3.4027">
        <ele>356.2</ele>
        <time>2024-05-01T13:29:44Z</time>
      </trkpt>
      <trkpt lat="45.90446" lon="3.4026">
        <ele>356.2</ele>
        <time>2024-05-01T13:29:45Z</time>
      </trkpt>
      <trkpt lat="45.90449" lon="3.40251">
        <ele>356.2</ele>
        <time>2024-05-01T13:29:46Z</time>
      </trkpt>
      <trkpt lat="45.90452" lon="3.40241">
        <ele>356.4</ele>
        <time>2024-05-01T13:29:47Z</time>
      </trkpt>
      <trkpt lat="45.90454" lon="3.40231">
        <ele>356.4</ele>
        <time>2024-05-01T13:29:48Z</time>
      </trkpt>
      <trkpt lat="45.90457" lon="3.40222">
        <ele>356.4</ele>
        <time>2024-05-01T13:29:49Z</time>
      </trkpt>
      <trkpt lat="45.9046" lon="3.40212">
        <ele>356.4</ele>
        <time>2024-05-01T13:29:50Z</time>
      </trkpt>
      <trkpt lat="45.90462" lon="3.40203">
        <ele>356.4</ele>
        <time>2024-05-01T13:29:51Z</time>
      </trkpt>
      <trkpt lat="45.90465" lon="3.40193">
        <ele>356.4</ele>
        <time>2024-05-01T13:29:52Z</time>
      </trkpt>
      <trkpt lat="45.90467" lon="3.40184">
        <ele>356.4</ele>
        <time>2024-05-01T13:29:53Z</time>
      </trkpt>
      <trkpt lat="45.9047" lon="3.40174">
        <ele>356.4</ele>
        <time>2024-05-01T13:29:54Z</time>
      </trkpt>
      <trkpt lat="45.90473" lon="3.40165">
        <ele>356.4</ele>
        <time>2024-05-01T13:29:55Z</time>
      </trkpt>
      <trkpt lat="45.90475" lon="3.40155">
        <ele>356.4</ele>
        <time>2024-05-01T13:29:56Z</time>
      </trkpt>
      <trkpt lat="45.90478" lon="3.40145">
        <ele>356.4</ele>
        <time>2024-05-01T13:29:57Z</time>
      </trkpt>
      <trkpt lat="45.90481" lon="3.40135">
        <ele>356.4</ele>
        <time>2024-05-01T13:29:58Z</time>
      </trkpt>
      <trkpt lat="45.90484" lon="3.40125">
        <ele>356.4</ele>
        <time>2024-05-01T13:29:59Z</time>
      </trkpt>
      <trkpt lat="45.90487" lon="3.40115">
        <ele>356.4</ele>
        <time>2024-05-01T13:30:00Z</time>
      </trkpt>
      <trkpt lat="45.90489" lon="3.40105">
        <ele>356.4</ele>
        <time>2024-05-01T13:30:01Z</time>
      </trkpt>
      <trkpt lat="45.90492" lon="3.40095">
        <ele>356.4</ele>
        <time>2024-05-01T13:30:02Z</time>
      </trkpt>
      <trkpt lat="45.90495" lon="3.40084">
        <ele>356.4</ele>
        <time>2024-05-01T13:30:03Z</time>
      </trkpt>
      <trkpt lat="45.90498" lon="3.40074">
        <ele>356.4</ele>
        <time>2024-05-01T13:30:04Z</time>
      </trkpt>
      <trkpt lat="45.905" lon="3.40064">
        <ele>356.4</ele>
        <time>2024-05-01T13:30:05Z</time>
      </trkpt>
      <trkpt lat="45.90503" lon="3.40054">
        <ele>356.4</ele>
        <time>2024-05-01T13:30:06Z</time>
      </trkpt>
      <trkpt lat="45.90506" lon="3.40044">
        <ele>356.6</ele>
        <time>2024-05-01T13:30:07Z</time>
      </trkpt>
      <trkpt lat="45.90509" lon="3.40033">
        <ele>356.4</ele>
        <time>2024-05-01T13:30:08Z</time>
      </trkpt>
      <trkpt lat="45.90511" lon="3.40023">
        <ele>356.2</ele>
        <time>2024-05-01T13:30:09Z</time>
      </trkpt>
      <trkpt lat="45.90512" lon="3.40012">
        <ele>356.2</ele>
        <time>2024-05-01T13:30:10Z</time>
      </trkpt>
      <trkpt lat="45.90513" lon="3.40001">
        <ele>356.2</ele>
        <time>2024-05-01T13:30:11Z</time>
      </trkpt>
      <trkpt lat="45.90514" lon="3.39991">
        <ele>356.2</ele>
        <time>2024-05-01T13:30:12Z</time>
      </trkpt>
      <trkpt lat="45.90515" lon="3.39981">
        <ele>356.2</ele>
        <time>2024-05-01T13:30:13Z</time>
      </trkpt>
      <trkpt lat="45.90516" lon="3.39971">
        <ele>356</ele>
        <time>2024-05-01T13:30:14Z</time>
      </trkpt>
      <trkpt lat="45.90517" lon="3.3996">
        <ele>356</ele>
        <time>2024-05-01T13:30:15Z</time>
      </trkpt>
      <trkpt lat="45.90516" lon="3.3995">
        <ele>356</ele>
        <time>2024-05-01T13:30:16Z</time>
      </trkpt>
      <trkpt lat="45.90515" lon="3.39939">
        <ele>356</ele>
        <time>2024-05-01T13:30:17Z</time>
      </trkpt>
      <trkpt lat="45.90515" lon="3.39929">
        <ele>356</ele>
        <time>2024-05-01T13:30:18Z</time>
      </trkpt>
      <trkpt lat="45.90514" lon="3.39919">
        <ele>356</ele>
        <time>2024-05-01T13:30:19Z</time>
      </trkpt>
      <trkpt lat="45.90513" lon="3.39909">
        <ele>356</ele>
        <time>2024-05-01T13:30:20Z</time>
      </trkpt>
      <trkpt lat="45.90513" lon="3.39899">
        <ele>356</ele>
        <time>2024-05-01T13:30:21Z</time>
      </trkpt>
      <trkpt lat="45.90512" lon="3.39889">
        <ele>356</ele>
        <time>2024-05-01T13:30:22Z</time>
      </trkpt>
      <trkpt lat="45.90511" lon="3.39879">
        <ele>356</ele>
        <time>2024-05-01T13:30:23Z</time>
      </trkpt>
      <trkpt lat="45.9051" lon="3.39869">
        <ele>356</ele>
        <time>2024-05-01T13:30:24Z</time>
      </trkpt>
      <trkpt lat="45.90509" lon="3.39859">
        <ele>356</ele>
        <time>2024-05-01T13:30:25Z</time>
      </trkpt>
      <trkpt lat="45.90509" lon="3.39849">
        <ele>356</ele>
        <time>2024-05-01T13:30:26Z</time>
      </trkpt>
      <trkpt lat="45.90508" lon="3.39838">
        <ele>356</ele>
        <time>2024-05-01T13:30:27Z</time>
      </trkpt>
      <trkpt lat="45.90507" lon="3.39827">
        <ele>356</ele>
        <time>2024-05-01T13:30:28Z</time>
      </trkpt>
      <trkpt lat="45.90506" lon="3.39816">
        <ele>356</ele>
        <time>2024-05-01T13:30:29Z</time>
      </trkpt>
      <trkpt lat="45.90505" lon="3.39805">
        <ele>355.8</ele>
        <time>2024-05-01T13:30:30Z</time>
      </trkpt>
      <trkpt lat="45.90504" lon="3.39794">
        <ele>355.8</ele>
        <time>2024-05-01T13:30:31Z</time>
      </trkpt>
      <trkpt lat="45.90503" lon="3.39783">
        <ele>355.8</ele>
        <time>2024-05-01T13:30:32Z</time>
      </trkpt>
      <trkpt lat="45.90502" lon="3.39772">
        <ele>355.8</ele>
        <time>2024-05-01T13:30:33Z</time>
      </trkpt>
      <trkpt lat="45.90502" lon="3.39761">
        <ele>355.8</ele>
        <time>2024-05-01T13:30:34Z</time>
      </trkpt>
      <trkpt lat="45.90501" lon="3.39751">
        <ele>355.6</ele>
        <time>2024-05-01T13:30:35Z</time>
      </trkpt>
      <trkpt lat="45.905" lon="3.3974">
        <ele>355.6</ele>
        <time>2024-05-01T13:30:36Z</time>
      </trkpt>
      <trkpt lat="45.90499" lon="3.3973">
        <ele>355.6</ele>
        <time>2024-05-01T13:30:37Z</time>
      </trkpt>
      <trkpt lat="45.90498" lon="3.3972">
        <ele>355.4</ele>
        <time>2024-05-01T13:30:38Z</time>
      </trkpt>
      <trkpt lat="45.90497" lon="3.3971">
        <ele>355.4</ele>
        <time>2024-05-01T13:30:39Z</time>
      </trkpt>
      <trkpt lat="45.90497" lon="3.39701">
        <ele>355.4</ele>
        <time>2024-05-01T13:30:40Z</time>
      </trkpt>
      <trkpt lat="45.90496" lon="3.39691">
        <ele>355.4</ele>
        <time>2024-05-01T13:30:41Z</time>
      </trkpt>
      <trkpt lat="45.90496" lon="3.39682">
        <ele>355.2</ele>
        <time>2024-05-01T13:30:42Z</time>
      </trkpt>
      <trkpt lat="45.90497" lon="3.39673">
        <ele>355.2</ele>
        <time>2024-05-01T13:30:43Z</time>
      </trkpt>
      <trkpt lat="45.90498" lon="3.39663">
        <ele>355</ele>
        <time>2024-05-01T13:30:44Z</time>
      </trkpt>
      <trkpt lat="45.90499" lon="3.39654">
        <ele>355</ele>
        <time>2024-05-01T13:30:45Z</time>
      </trkpt>
      <trkpt lat="45.905" lon="3.39645">
        <ele>354.8</ele>
        <time>2024-05-01T13:30:46Z</time>
      </trkpt>
      <trkpt lat="45.90502" lon="3.39635">
        <ele>354.8</ele>
        <time>2024-05-01T13:30:47Z</time>
      </trkpt>
      <trkpt lat="45.90504" lon="3.39625">
        <ele>354.6</ele>
        <time>2024-05-01T13:30:48Z</time>
      </trkpt>
      <trkpt lat="45.90506" lon="3.39616">
        <ele>354.6</ele>
        <time>2024-05-01T13:30:49Z</time>
      </trkpt>
      <trkpt lat="45.90508" lon="3.39607">
        <ele>354.6</ele>
        <time>2024-05-01T13:30:50Z</time>
      </trkpt>
      <trkpt lat="45.9051" lon="3.39598">
        <ele>354.6</ele>
        <time>2024-05-01T13:30:51Z</time>
      </trkpt>
      <trkpt lat="45.90511" lon="3.39589">
        <ele>354.6</ele>
        <time>2024-05-01T13:30:52Z</time>
      </trkpt>
      <trkpt lat="45.90513" lon="3.3958">
        <ele>354.6</ele>
        <time>2024-05-01T13:30:53Z</time>
      </trkpt>
      <trkpt lat="45.90515" lon="3.39571">
        <ele>354.4</ele>
        <time>2024-05-01T13:30:54Z</time>
      </trkpt>
      <trkpt lat="45.90517" lon="3.39562">
        <ele>354.4</ele>
        <time>2024-05-01T13:30:55Z</time>
      </trkpt>
      <trkpt lat="45.90519" lon="3.39553">
        <ele>354.4</ele>
        <time>2024-05-01T13:30:56Z</time>
      </trkpt>
      <trkpt lat="45.90521" lon="3.39545">
        <ele>354.2</ele>
        <time>2024-05-01T13:30:57Z</time>
      </trkpt>
      <trkpt lat="45.90523" lon="3.39536">
        <ele>354.2</ele>
        <time>2024-05-01T13:30:58Z</time>
      </trkpt>
      <trkpt lat="45.90525" lon="3.39527">
        <ele>354</ele>
        <time>2024-05-01T13:30:59Z</time>
      </trkpt>
      <trkpt lat="45.90527" lon="3.39517">
        <ele>354</ele>
        <time>2024-05-01T13:31:00Z</time>
      </trkpt>
      <trkpt lat="45.90529" lon="3.39508">
        <ele>353.8</ele>
        <time>2024-05-01T13:31:01Z</time>
      </trkpt>
      <trkpt lat="45.90531" lon="3.39499">
        <ele>353.8</ele>
        <time>2024-05-01T13:31:02Z</time>
      </trkpt>
      <trkpt lat="45.90533" lon="3.3949">
        <ele>353.6</ele>
        <time>2024-05-01T13:31:03Z</time>
      </trkpt>
      <trkpt lat="45.90535" lon="3.3948">
        <ele>353.6</ele>
        <time>2024-05-01T13:31:04Z</time>
      </trkpt>
      <trkpt lat="45.90537" lon="3.39472">
        <ele>353.4</ele>
        <time>2024-05-01T13:31:05Z</time>
      </trkpt>
      <trkpt lat="45.90539" lon="3.39463">
        <ele>353.2</ele>
        <time>2024-05-01T13:31:06Z</time>
      </trkpt>
      <trkpt lat="45.90541" lon="3.39454">
        <ele>353.2</ele>
        <time>2024-05-01T13:31:07Z</time>
      </trkpt>
      <trkpt lat="45.90543" lon="3.39445">
        <ele>353.2</ele>
        <time>2024-05-01T13:31:08Z</time>
      </trkpt>
      <trkpt lat="45.90544" lon="3.39436">
        <ele>353</ele>
        <time>2024-05-01T13:31:09Z</time>
      </trkpt>
      <trkpt lat="45.90546" lon="3.39427">
        <ele>353</ele>
        <time>2024-05-01T13:31:10Z</time>
      </trkpt>
      <trkpt lat="45.90548" lon="3.39418">
        <ele>352.8</ele>
        <time>2024-05-01T13:31:11Z</time>
      </trkpt>
      <trkpt lat="45.9055" lon="3.39409">
        <ele>352.8</ele>
        <time>2024-05-01T13:31:12Z</time>
      </trkpt>
      <trkpt lat="45.90552" lon="3.394">
        <ele>352.8</ele>
        <time>2024-05-01T13:31:13Z</time>
      </trkpt>
      <trkpt lat="45.90554" lon="3.39391">
        <ele>352.6</ele>
        <time>2024-05-01T13:31:14Z</time>
      </trkpt>
      <trkpt lat="45.90556" lon="3.39382">
        <ele>352.6</ele>
        <time>2024-05-01T13:31:15Z</time>
      </trkpt>
      <trkpt lat="45.90558" lon="3.39373">
        <ele>352.4</ele>
        <time>2024-05-01T13:31:16Z</time>
      </trkpt>
      <trkpt lat="45.9056" lon="3.39364">
        <ele>352.4</ele>
        <time>2024-05-01T13:31:17Z</time>
      </trkpt>
      <trkpt lat="45.90561" lon="3.39354">
        <ele>352.4</ele>
        <time>2024-05-01T13:31:18Z</time>
      </trkpt>
      <trkpt lat="45.90563" lon="3.39345">
        <ele>352.4</ele>
        <time>2024-05-01T13:31:19Z</time>
      </trkpt>
      <trkpt lat="45.90564" lon="3.39335">
        <ele>352.4</ele>
        <time>2024-05-01T13:31:20Z</time>
      </trkpt>
      <trkpt lat="45.90566" lon="3.39325">
        <ele>352.4</ele>
        <time>2024-05-01T13:31:21Z</time>
      </trkpt>
      <trkpt lat="45.90567" lon="3.39315">
        <ele>352.2</ele>
        <time>2024-05-01T13:31:22Z</time>
      </trkpt>
      <trkpt lat="45.90569" lon="3.39305">
        <ele>352.2</ele>
        <time>2024-05-01T13:31:23Z</time>
      </trkpt>
      <trkpt lat="45.90571" lon="3.39294">
        <ele>352.2</ele>
        <time>2024-05-01T13:31:24Z</time>
      </trkpt>
      <trkpt lat="45.90572" lon="3.39284">
        <ele>352</ele>
        <time>2024-05-01T13:31:25Z</time>
      </trkpt>
      <trkpt lat="45.90574" lon="3.39274">
        <ele>352</ele>
        <time>2024-05-01T13:31:26Z</time>
      </trkpt>
      <trkpt lat="45.90575" lon="3.39264">
        <ele>351.8</ele>
        <time>2024-05-01T13:31:27Z</time>
      </trkpt>
      <trkpt lat="45.90577" lon="3.39253">
        <ele>351.8</ele>
        <time>2024-05-01T13:31:28Z</time>
      </trkpt>
      <trkpt lat="45.90578" lon="3.39243">
        <ele>351.8</ele>
        <time>2024-05-01T13:31:29Z</time>
      </trkpt>
      <trkpt lat="45.9058" lon="3.39233">
        <ele>351.6</ele>
        <time>2024-05-01T13:31:30Z</time>
      </trkpt>
      <trkpt lat="45.90582" lon="3.39223">
        <ele>351.6</ele>
        <time>2024-05-01T13:31:31Z</time>
      </trkpt>
      <trkpt lat="45.90583" lon="3.39212">
        <ele>351.6</ele>
        <time>2024-05-01T13:31:32Z</time>
      </trkpt>
      <trkpt lat="45.90585" lon="3.39201">
        <ele>351.6</ele>
        <time>2024-05-01T13:31:33Z</time>
      </trkpt>
      <trkpt lat="45.90586" lon="3.3919">
        <ele>351.4</ele>
        <time>2024-05-01T13:31:34Z</time>
      </trkpt>
      <trkpt lat="45.90588" lon="3.39178">
        <ele>351.4</ele>
        <time>2024-05-01T13:31:35Z</time>
      </trkpt>
      <trkpt lat="45.90589" lon="3.39167">
        <ele>351.4</ele>
        <time>2024-05-01T13:31:36Z</time>
      </trkpt>
      <trkpt lat="45.90589" lon="3.39156">
        <ele>351.2</ele>
        <time>2024-05-01T13:31:37Z</time>
      </trkpt>
      <trkpt lat="45.9059" lon="3.39144">
        <ele>351.2</ele>
        <time>2024-05-01T13:31:38Z</time>
      </trkpt>
      <trkpt lat="45.90591" lon="3.39133">
        <ele>351.2</ele>
        <time>2024-05-01T13:31:39Z</time>
      </trkpt>
      <trkpt lat="45.90591" lon="3.39122">
        <ele>351.2</ele>
        <time>2024-05-01T13:31:40Z</time>
      </trkpt>
      <trkpt lat="45.90592" lon="3.39111">
        <ele>351.2</ele>
        <time>2024-05-01T13:31:41Z</time>
      </trkpt>
      <trkpt lat="45.90592" lon="3.391">
        <ele>351.2</ele>
        <time>2024-05-01T13:31:42Z</time>
      </trkpt>
      <trkpt lat="45.90592" lon="3.39089">
        <ele>351.2</ele>
        <time>2024-05-01T13:31:43Z</time>
      </trkpt>
      <trkpt lat="45.90592" lon="3.39078">
        <ele>351.2</ele>
        <time>2024-05-01T13:31:44Z</time>
      </trkpt>
      <trkpt lat="45.90591" lon="3.39067">
        <ele>351.2</ele>
        <time>2024-05-01T13:31:45Z</time>
      </trkpt>
      <trkpt lat="45.90591" lon="3.39057">
        <ele>351.2</ele>
        <time>2024-05-01T13:31:46Z</time>
      </trkpt>
      <trkpt lat="45.90591" lon="3.39046">
        <ele>351.2</ele>
        <time>2024-05-01T13:31:47Z</time>
      </trkpt>
      <trkpt lat="45.90591" lon="3.39036">
        <ele>351.2</ele>
        <time>2024-05-01T13:31:48Z</time>
      </trkpt>
      <trkpt lat="45.9059" lon="3.39025">
        <ele>351.4</ele>
        <time>2024-05-01T13:31:49Z</time>
      </trkpt>
      <trkpt lat="45.9059" lon="3.39014">
        <ele>351.4</ele>
        <time>2024-05-01T13:31:50Z</time>
      </trkpt>
      <trkpt lat="45.9059" lon="3.39003">
        <ele>350.8</ele>
        <time>2024-05-01T13:31:51Z</time>
      </trkpt>
      <trkpt lat="45.90587" lon="3.38992">
        <ele>351</ele>
        <time>2024-05-01T13:31:52Z</time>
      </trkpt>
      <trkpt lat="45.90585" lon="3.38982">
        <ele>351.2</ele>
        <time>2024-05-01T13:31:53Z</time>
      </trkpt>
      <trkpt lat="45.90582" lon="3.38972">
        <ele>351.4</ele>
        <time>2024-05-01T13:31:54Z</time>
      </trkpt>
      <trkpt lat="45.90579" lon="3.38961">
        <ele>351.2</ele>
        <time>2024-05-01T13:31:55Z</time>
      </trkpt>
      <trkpt lat="45.90576" lon="3.38949">
        <ele>351</ele>
        <time>2024-05-01T13:31:56Z</time>
      </trkpt>
      <trkpt lat="45.90573" lon="3.38938">
        <ele>351</ele>
        <time>2024-05-01T13:31:57Z</time>
      </trkpt>
      <trkpt lat="45.9057" lon="3.38926">
        <ele>350.8</ele>
        <time>2024-05-01T13:31:58Z</time>
      </trkpt>
      <trkpt lat="45.90567" lon="3.38915">
        <ele>350.8</ele>
        <time>2024-05-01T13:31:59Z</time>
      </trkpt>
      <trkpt lat="45.90564" lon="3.38903">
        <ele>351</ele>
        <time>2024-05-01T13:32:00Z</time>
      </trkpt>
      <trkpt lat="45.90561" lon="3.38891">
        <ele>350.8</ele>
        <time>2024-05-01T13:32:01Z</time>
      </trkpt>
      <trkpt lat="45.90558" lon="3.38879">
        <ele>351</ele>
        <time>2024-05-01T13:32:02Z</time>
      </trkpt>
      <trkpt lat="45.90555" lon="3.38866">
        <ele>351</ele>
        <time>2024-05-01T13:32:03Z</time>
      </trkpt>
      <trkpt lat="45.90552" lon="3.38854">
        <ele>350.8</ele>
        <time>2024-05-01T13:32:04Z</time>
      </trkpt>
      <trkpt lat="45.90549" lon="3.38841">
        <ele>350.6</ele>
        <time>2024-05-01T13:32:05Z</time>
      </trkpt>
      <trkpt lat="45.90548" lon="3.38827">
        <ele>350.4</ele>
        <time>2024-05-01T13:32:06Z</time>
      </trkpt>
      <trkpt lat="45.90547" lon="3.38814">
        <ele>350.4</ele>
        <time>2024-05-01T13:32:07Z</time>
      </trkpt>
      <trkpt lat="45.90549" lon="3.38801">
        <ele>350.2</ele>
        <time>2024-05-01T13:32:08Z</time>
      </trkpt>
      <trkpt lat="45.90551" lon="3.38787">
        <ele>350</ele>
        <time>2024-05-01T13:32:09Z</time>
      </trkpt>
      <trkpt lat="45.90553" lon="3.38774">
        <ele>349.8</ele>
        <time>2024-05-01T13:32:10Z</time>
      </trkpt>
      <trkpt lat="45.90555" lon="3.3876">
        <ele>349.6</ele>
        <time>2024-05-01T13:32:11Z</time>
      </trkpt>
      <trkpt lat="45.90557" lon="3.38747">
        <ele>349.6</ele>
        <time>2024-05-01T13:32:12Z</time>
      </trkpt>
      <trkpt lat="45.90559" lon="3.38734">
        <ele>349.4</ele>
        <time>2024-05-01T13:32:13Z</time>
      </trkpt>
      <trkpt lat="45.90561" lon="3.38722">
        <ele>349.4</ele>
        <time>2024-05-01T13:32:14Z</time>
      </trkpt>
      <trkpt lat="45.90564" lon="3.38709">
        <ele>349.2</ele>
        <time>2024-05-01T13:32:15Z</time>
      </trkpt>
      <trkpt lat="45.90566" lon="3.38696">
        <ele>349</ele>
        <time>2024-05-01T13:32:16Z</time>
      </trkpt>
      <trkpt lat="45.90568" lon="3.38683">
        <ele>349</ele>
        <time>2024-05-01T13:32:17Z</time>
      </trkpt>
      <trkpt lat="45.9057" lon="3.3867">
        <ele>348.8</ele>
        <time>2024-05-01T13:32:18Z</time>
      </trkpt>
      <trkpt lat="45.90572" lon="3.38657">
        <ele>348.6</ele>
        <time>2024-05-01T13:32:19Z</time>
      </trkpt>
      <trkpt lat="45.90574" lon="3.38645">
        <ele>348.4</ele>
        <time>2024-05-01T13:32:20Z</time>
      </trkpt>
      <trkpt lat="45.90576" lon="3.38632">
        <ele>348.2</ele>
        <time>2024-05-01T13:32:21Z</time>
      </trkpt>
      <trkpt lat="45.90578" lon="3.38619">
        <ele>348</ele>
        <time>2024-05-01T13:32:22Z</time>
      </trkpt>
      <trkpt lat="45.9058" lon="3.38606">
        <ele>347.8</ele>
        <time>2024-05-01T13:32:23Z</time>
      </trkpt>
      <trkpt lat="45.90582" lon="3.38593">
        <ele>347.6</ele>
        <time>2024-05-01T13:32:24Z</time>
      </trkpt>
      <trkpt lat="45.90584" lon="3.38581">
        <ele>347.4</ele>
        <time>2024-05-01T13:32:25Z</time>
      </trkpt>
      <trkpt lat="45.90586" lon="3.38568">
        <ele>347</ele>
        <time>2024-05-01T13:32:26Z</time>
      </trkpt>
      <trkpt lat="45.9059" lon="3.38556">
        <ele>346.8</ele>
        <time>2024-05-01T13:32:27Z</time>
      </trkpt>
      <trkpt lat="45.90593" lon="3.38545">
        <ele>346.6</ele>
        <time>2024-05-01T13:32:28Z</time>
      </trkpt>
      <trkpt lat="45.90596" lon="3.38534">
        <ele>346.4</ele>
        <time>2024-05-01T13:32:29Z</time>
      </trkpt>
      <trkpt lat="45.906" lon="3.38522">
        <ele>346.2</ele>
        <time>2024-05-01T13:32:30Z</time>
      </trkpt>
      <trkpt lat="45.90603" lon="3.38511">
        <ele>346</ele>
        <time>2024-05-01T13:32:31Z</time>
      </trkpt>
      <trkpt lat="45.90606" lon="3.385">
        <ele>345.8</ele>
        <time>2024-05-01T13:32:32Z</time>
      </trkpt>
      <trkpt lat="45.90609" lon="3.3849">
        <ele>345.8</ele>
        <time>2024-05-01T13:32:33Z</time>
      </trkpt>
      <trkpt lat="45.90612" lon="3.38479">
        <ele>345.6</ele>
        <time>2024-05-01T13:32:34Z</time>
      </trkpt>
      <trkpt lat="45.90615" lon="3.38469">
        <ele>345.4</ele>
        <time>2024-05-01T13:32:35Z</time>
      </trkpt>
      <trkpt lat="45.90618" lon="3.38458">
        <ele>345.4</ele>
        <time>2024-05-01T13:32:36Z</time>
      </trkpt>
      <trkpt lat="45.90621" lon="3.38447">
        <ele>345.2</ele>
        <time>2024-05-01T13:32:37Z</time>
      </trkpt>
      <trkpt lat="45.90624" lon="3.38437">
        <ele>345.2</ele>
        <time>2024-05-01T13:32:38Z</time>
      </trkpt>
      <trkpt lat="45.90627" lon="3.38426">
        <ele>345</ele>
        <time>2024-05-01T13:32:39Z</time>
      </trkpt>
      <trkpt lat="45.9063" lon="3.38416">
        <ele>345</ele>
        <time>2024-05-01T13:32:40Z</time>
      </trkpt>
      <trkpt lat="45.90634" lon="3.38405">
        <ele>344.8</ele>
        <time>2024-05-01T13:32:41Z</time>
      </trkpt>
      <trkpt lat="45.90637" lon="3.38395">
        <ele>344.6</ele>
        <time>2024-05-01T13:32:42Z</time>
      </trkpt>
      <trkpt lat="45.9064" lon="3.38384">
        <ele>344.4</ele>
        <time>2024-05-01T13:32:43Z</time>
      </trkpt>
      <trkpt lat="45.90642" lon="3.38374">
        <ele>344.4</ele>
        <time>2024-05-01T13:32:44Z</time>
      </trkpt>
      <trkpt lat="45.90644" lon="3.38364">
        <ele>344.2</ele>
        <time>2024-05-01T13:32:45Z</time>
      </trkpt>
      <trkpt lat="45.90645" lon="3.38354">
        <ele>344</ele>
        <time>2024-05-01T13:32:46Z</time>
      </trkpt>
      <trkpt lat="45.90646" lon="3.38343">
        <ele>344</ele>
        <time>2024-05-01T13:32:47Z</time>
      </trkpt>
      <trkpt lat="45.90647" lon="3.38332">
        <ele>343.8</ele>
        <time>2024-05-01T13:32:48Z</time>
      </trkpt>
      <trkpt lat="45.90648" lon="3.38321">
        <ele>343.6</ele>
        <time>2024-05-01T13:32:49Z</time>
      </trkpt>
      <trkpt lat="45.90649" lon="3.38311">
        <ele>343.6</ele>
        <time>2024-05-01T13:32:50Z</time>
      </trkpt>
      <trkpt lat="45.90651" lon="3.383">
        <ele>343.4</ele>
        <time>2024-05-01T13:32:51Z</time>
      </trkpt>
      <trkpt lat="45.90652" lon="3.38289">
        <ele>343.2</ele>
        <time>2024-05-01T13:32:52Z</time>
      </trkpt>
      <trkpt lat="45.90653" lon="3.38278">
        <ele>343</ele>
        <time>2024-05-01T13:32:53Z</time>
      </trkpt>
      <trkpt lat="45.90654" lon="3.38267">
        <ele>342.8</ele>
        <time>2024-05-01T13:32:54Z</time>
      </trkpt>
      <trkpt lat="45.90655" lon="3.38256">
        <ele>342.8</ele>
        <time>2024-05-01T13:32:55Z</time>
      </trkpt>
      <trkpt lat="45.90656" lon="3.38246">
        <ele>342.6</ele>
        <time>2024-05-01T13:32:56Z</time>
      </trkpt>
      <trkpt lat="45.90657" lon="3.38235">
        <ele>342.4</ele>
        <time>2024-05-01T13:32:57Z</time>
      </trkpt>
      <trkpt lat="45.90658" lon="3.38224">
        <ele>342.2</ele>
        <time>2024-05-01T13:32:58Z</time>
      </trkpt>
      <trkpt lat="45.90659" lon="3.38213">
        <ele>342.2</ele>
        <time>2024-05-01T13:32:59Z</time>
      </trkpt>
      <trkpt lat="45.9066" lon="3.38203">
        <ele>342</ele>
        <time>2024-05-01T13:33:00Z</time>
      </trkpt>
      <trkpt lat="45.90661" lon="3.38192">
        <ele>341.8</ele>
        <time>2024-05-01T13:33:01Z</time>
      </trkpt>
      <trkpt lat="45.90662" lon="3.38182">
        <ele>341.6</ele>
        <time>2024-05-01T13:33:02Z</time>
      </trkpt>
      <trkpt lat="45.90663" lon="3.38172">
        <ele>341.6</ele>
        <time>2024-05-01T13:33:03Z</time>
      </trkpt>
      <trkpt lat="45.90664" lon="3.38161">
        <ele>341.4</ele>
        <time>2024-05-01T13:33:04Z</time>
      </trkpt>
      <trkpt lat="45.90665" lon="3.38151">
        <ele>341.2</ele>
        <time>2024-05-01T13:33:05Z</time>
      </trkpt>
      <trkpt lat="45.90666" lon="3.3814">
        <ele>341.2</ele>
        <time>2024-05-01T13:33:06Z</time>
      </trkpt>
      <trkpt lat="45.90667" lon="3.38129">
        <ele>341</ele>
        <time>2024-05-01T13:33:07Z</time>
      </trkpt>
      <trkpt lat="45.90668" lon="3.38119">
        <ele>340.8</ele>
        <time>2024-05-01T13:33:08Z</time>
      </trkpt>
      <trkpt lat="45.90669" lon="3.38109">
        <ele>340.8</ele>
        <time>2024-05-01T13:33:09Z</time>
      </trkpt>
      <trkpt lat="45.9067" lon="3.38099">
        <ele>340.6</ele>
        <time>2024-05-01T13:33:10Z</time>
      </trkpt>
      <trkpt lat="45.90671" lon="3.38089">
        <ele>340.4</ele>
        <time>2024-05-01T13:33:11Z</time>
      </trkpt>
      <trkpt lat="45.90672" lon="3.38079">
        <ele>340.4</ele>
        <time>2024-05-01T13:33:12Z</time>
      </trkpt>
      <trkpt lat="45.90673" lon="3.3807">
        <ele>340.2</ele>
        <time>2024-05-01T13:33:13Z</time>
      </trkpt>
      <trkpt lat="45.90674" lon="3.3806">
        <ele>340</ele>
        <time>2024-05-01T13:33:14Z</time>
      </trkpt>
      <trkpt lat="45.90675" lon="3.38051">
        <ele>339.8</ele>
        <time>2024-05-01T13:33:15Z</time>
      </trkpt>
      <trkpt lat="45.90676" lon="3.38041">
        <ele>339.6</ele>
        <time>2024-05-01T13:33:16Z</time>
      </trkpt>
      <trkpt lat="45.90677" lon="3.38032">
        <ele>339.6</ele>
        <time>2024-05-01T13:33:17Z</time>
      </trkpt>
      <trkpt lat="45.90678" lon="3.38023">
        <ele>339.4</ele>
        <time>2024-05-01T13:33:18Z</time>
      </trkpt>
      <trkpt lat="45.90678" lon="3.38015">
        <ele>339.2</ele>
        <time>2024-05-01T13:33:19Z</time>
      </trkpt>
      <trkpt lat="45.90679" lon="3.38006">
        <ele>339.2</ele>
        <time>2024-05-01T13:33:20Z</time>
      </trkpt>
      <trkpt lat="45.9068" lon="3.37998">
        <ele>339</ele>
        <time>2024-05-01T13:33:21Z</time>
      </trkpt>
      <trkpt lat="45.90681" lon="3.37988">
        <ele>338.8</ele>
        <time>2024-05-01T13:33:22Z</time>
      </trkpt>
      <trkpt lat="45.90682" lon="3.37979">
        <ele>338.8</ele>
        <time>2024-05-01T13:33:23Z</time>
      </trkpt>
      <trkpt lat="45.90683" lon="3.37969">
        <ele>338.6</ele>
        <time>2024-05-01T13:33:24Z</time>
      </trkpt>
      <trkpt lat="45.90684" lon="3.3796">
        <ele>338.6</ele>
        <time>2024-05-01T13:33:25Z</time>
      </trkpt>
      <trkpt lat="45.90697" lon="3.3795">
        <ele>338.4</ele>
        <time>2024-05-01T13:33:26Z</time>
      </trkpt>
      <trkpt lat="45.90698" lon="3.37947">
        <ele>338.4</ele>
        <time>2024-05-01T13:33:27Z</time>
      </trkpt>
      <trkpt lat="45.90701" lon="3.37939">
        <ele>338.2</ele>
        <time>2024-05-01T13:33:28Z</time>
      </trkpt>
      <trkpt lat="45.90699" lon="3.37925">
        <ele>338.2</ele>
        <time>2024-05-01T13:33:29Z</time>
      </trkpt>
      <trkpt lat="45.90697" lon="3.3792">
        <ele>338.2</ele>
        <time>2024-05-01T13:33:30Z</time>
      </trkpt>
      <trkpt lat="45.90704" lon="3.37916">
        <ele>338</ele>
        <time>2024-05-01T13:33:31Z</time>
      </trkpt>
      <trkpt lat="45.9071" lon="3.37912">
        <ele>337.8</ele>
        <time>2024-05-01T13:33:32Z</time>
      </trkpt>
      <trkpt lat="45.90716" lon="3.37908">
        <ele>337.8</ele>
        <time>2024-05-01T13:33:33Z</time>
      </trkpt>
      <trkpt lat="45.90723" lon="3.37904">
        <ele>337.6</ele>
        <time>2024-05-01T13:33:34Z</time>
      </trkpt>
      <trkpt lat="45.90729" lon="3.379">
        <ele>337.6</ele>
        <time>2024-05-01T13:33:35Z</time>
      </trkpt>
      <trkpt lat="45.90736" lon="3.37895">
        <ele>337.4</ele>
        <time>2024-05-01T13:33:36Z</time>
      </trkpt>
      <trkpt lat="45.90743" lon="3.37891">
        <ele>337.2</ele>
        <time>2024-05-01T13:33:37Z</time>
      </trkpt>
      <trkpt lat="45.9075" lon="3.37887">
        <ele>337.2</ele>
        <time>2024-05-01T13:33:38Z</time>
      </trkpt>
      <trkpt lat="45.90757" lon="3.37882">
        <ele>337</ele>
        <time>2024-05-01T13:33:39Z</time>
      </trkpt>
      <trkpt lat="45.90764" lon="3.37878">
        <ele>337</ele>
        <time>2024-05-01T13:33:40Z</time>
      </trkpt>
      <trkpt lat="45.9077" lon="3.37874">
        <ele>336.8</ele>
        <time>2024-05-01T13:33:41Z</time>
      </trkpt>
      <trkpt lat="45.90777" lon="3.37869">
        <ele>336.6</ele>
        <time>2024-05-01T13:33:42Z</time>
      </trkpt>
      <trkpt lat="45.90784" lon="3.37865">
        <ele>336.6</ele>
        <time>2024-05-01T13:33:43Z</time>
      </trkpt>
      <trkpt lat="45.90791" lon="3.37861">
        <ele>336.4</ele>
        <time>2024-05-01T13:33:44Z</time>
      </trkpt>
      <trkpt lat="45.90797" lon="3.37857">
        <ele>336.4</ele>
        <time>2024-05-01T13:33:45Z</time>
      </trkpt>
      <trkpt lat="45.90804" lon="3.37852">
        <ele>336.2</ele>
        <time>2024-05-01T13:33:46Z</time>
      </trkpt>
      <trkpt lat="45.90811" lon="3.37848">
        <ele>336.2</ele>
        <time>2024-05-01T13:33:47Z</time>
      </trkpt>
      <trkpt lat="45.90818" lon="3.37844">
        <ele>336</ele>
        <time>2024-05-01T13:33:48Z</time>
      </trkpt>
      <trkpt lat="45.90825" lon="3.3784">
        <ele>336</ele>
        <time>2024-05-01T13:33:49Z</time>
      </trkpt>
      <trkpt lat="45.90831" lon="3.37836">
        <ele>335.8</ele>
        <time>2024-05-01T13:33:50Z</time>
      </trkpt>
      <trkpt lat="45.90838" lon="3.37832">
        <ele>335.8</ele>
        <time>2024-05-01T13:33:51Z</time>
      </trkpt>
      <trkpt lat="45.90845" lon="3.37829">
        <ele>335.6</ele>
        <time>2024-05-01T13:33:52Z</time>
      </trkpt>
      <trkpt lat="45.90851" lon="3.37825">
        <ele>335.6</ele>
        <time>2024-05-01T13:33:53Z</time>
      </trkpt>
      <trkpt lat="45.90858" lon="3.37821">
        <ele>335.4</ele>
        <time>2024-05-01T13:33:54Z</time>
      </trkpt>
      <trkpt lat="45.90865" lon="3.37818">
        <ele>335.4</ele>
        <time>2024-05-01T13:33:55Z</time>
      </trkpt>
      <trkpt lat="45.90871" lon="3.37814">
        <ele>335.2</ele>
        <time>2024-05-01T13:33:56Z</time>
      </trkpt>
      <trkpt lat="45.90878" lon="3.3781">
        <ele>335</ele>
        <time>2024-05-01T13:33:57Z</time>
      </trkpt>
      <trkpt lat="45.90884" lon="3.37806">
        <ele>335</ele>
        <time>2024-05-01T13:33:58Z</time>
      </trkpt>
      <trkpt lat="45.90891" lon="3.37803">
        <ele>334.8</ele>
        <time>2024-05-01T13:33:59Z</time>
      </trkpt>
      <trkpt lat="45.90897" lon="3.37799">
        <ele>334.8</ele>
        <time>2024-05-01T13:34:00Z</time>
      </trkpt>
      <trkpt lat="45.90904" lon="3.37795">
        <ele>334.6</ele>
        <time>2024-05-01T13:34:01Z</time>
      </trkpt>
      <trkpt lat="45.9091" lon="3.37792">
        <ele>334.6</ele>
        <time>2024-05-01T13:34:02Z</time>
      </trkpt>
      <trkpt lat="45.90917" lon="3.37788">
        <ele>334.4</ele>
        <time>2024-05-01T13:34:03Z</time>
      </trkpt>
      <trkpt lat="45.90923" lon="3.37784">
        <ele>334.2</ele>
        <time>2024-05-01T13:34:04Z</time>
      </trkpt>
      <trkpt lat="45.9093" lon="3.3778">
        <ele>334.2</ele>
        <time>2024-05-01T13:34:05Z</time>
      </trkpt>
      <trkpt lat="45.90936" lon="3.37777">
        <ele>334</ele>
        <time>2024-05-01T13:34:06Z</time>
      </trkpt>
      <trkpt lat="45.90942" lon="3.37773">
        <ele>334</ele>
        <time>2024-05-01T13:34:07Z</time>
      </trkpt>
      <trkpt lat="45.90948" lon="3.3777">
        <ele>333.8</ele>
        <time>2024-05-01T13:34:08Z</time>
      </trkpt>
      <trkpt lat="45.90954" lon="3.37766">
        <ele>333.8</ele>
        <time>2024-05-01T13:34:09Z</time>
      </trkpt>
      <trkpt lat="45.9096" lon="3.37763">
        <ele>333.6</ele>
        <time>2024-05-01T13:34:10Z</time>
      </trkpt>
      <trkpt lat="45.90966" lon="3.3776">
        <ele>333.4</ele>
        <time>2024-05-01T13:34:11Z</time>
      </trkpt>
      <trkpt lat="45.90973" lon="3.37756">
        <ele>333.4</ele>
        <time>2024-05-01T13:34:12Z</time>
      </trkpt>
      <trkpt lat="45.90979" lon="3.37753">
        <ele>333.2</ele>
        <time>2024-05-01T13:34:13Z</time>
      </trkpt>
      <trkpt lat="45.90985" lon="3.37749">
        <ele>333.2</ele>
        <time>2024-05-01T13:34:14Z</time>
      </trkpt>
      <trkpt lat="45.90991" lon="3.37746">
        <ele>333</ele>
        <time>2024-05-01T13:34:15Z</time>
      </trkpt>
      <trkpt lat="45.90997" lon="3.37742">
        <ele>333</ele>
        <time>2024-05-01T13:34:16Z</time>
      </trkpt>
      <trkpt lat="45.91003" lon="3.37739">
        <ele>333</ele>
        <time>2024-05-01T13:34:17Z</time>
      </trkpt>
      <trkpt lat="45.91009" lon="3.37735">
        <ele>332.8</ele>
        <time>2024-05-01T13:34:18Z</time>
      </trkpt>
      <trkpt lat="45.91015" lon="3.37732">
        <ele>332.8</ele>
        <time>2024-05-01T13:34:19Z</time>
      </trkpt>
      <trkpt lat="45.91021" lon="3.37728">
        <ele>332.6</ele>
        <time>2024-05-01T13:34:20Z</time>
      </trkpt>
      <trkpt lat="45.91027" lon="3.37725">
        <ele>332.4</ele>
        <time>2024-05-01T13:34:21Z</time>
      </trkpt>
      <trkpt lat="45.91033" lon="3.37722">
        <ele>332.4</ele>
        <time>2024-05-01T13:34:22Z</time>
      </trkpt>
      <trkpt lat="45.91039" lon="3.37718">
        <ele>332.2</ele>
        <time>2024-05-01T13:34:23Z</time>
      </trkpt>
      <trkpt lat="45.91045" lon="3.37715">
        <ele>332.2</ele>
        <time>2024-05-01T13:34:24Z</time>
      </trkpt>
      <trkpt lat="45.91051" lon="3.37712">
        <ele>332</ele>
        <time>2024-05-01T13:34:25Z</time>
      </trkpt>
      <trkpt lat="45.91057" lon="3.37708">
        <ele>331.8</ele>
        <time>2024-05-01T13:34:26Z</time>
      </trkpt>
      <trkpt lat="45.91063" lon="3.37705">
        <ele>331.8</ele>
        <time>2024-05-01T13:34:27Z</time>
      </trkpt>
      <trkpt lat="45.91069" lon="3.37702">
        <ele>331.6</ele>
        <time>2024-05-01T13:34:28Z</time>
      </trkpt>
      <trkpt lat="45.91075" lon="3.37698">
        <ele>331.6</ele>
        <time>2024-05-01T13:34:29Z</time>
      </trkpt>
      <trkpt lat="45.91081" lon="3.37695">
        <ele>331.4</ele>
        <time>2024-05-01T13:34:30Z</time>
      </trkpt>
      <trkpt lat="45.91086" lon="3.37692">
        <ele>331.4</ele>
        <time>2024-05-01T13:34:31Z</time>
      </trkpt>
      <trkpt lat="45.91092" lon="3.37688">
        <ele>331.2</ele>
        <time>2024-05-01T13:34:32Z</time>
      </trkpt>
      <trkpt lat="45.91098" lon="3.37685">
        <ele>331.2</ele>
        <time>2024-05-01T13:34:33Z</time>
      </trkpt>
      <trkpt lat="45.91103" lon="3.37682">
        <ele>331</ele>
        <time>2024-05-01T13:34:34Z</time>
      </trkpt>
      <trkpt lat="45.91109" lon="3.37679">
        <ele>331</ele>
        <time>2024-05-01T13:34:35Z</time>
      </trkpt>
      <trkpt lat="45.91113" lon="3.37669">
        <ele>331</ele>
        <time>2024-05-01T13:34:36Z</time>
      </trkpt>
      <trkpt lat="45.91115" lon="3.3766">
        <ele>330.8</ele>
        <time>2024-05-01T13:34:37Z</time>
      </trkpt>
      <trkpt lat="45.91117" lon="3.37651">
        <ele>330.8</ele>
        <time>2024-05-01T13:34:38Z</time>
      </trkpt>
      <trkpt lat="45.91122" lon="3.37643">
        <ele>330.6</ele>
        <time>2024-05-01T13:34:39Z</time>
      </trkpt>
      <trkpt lat="45.91126" lon="3.37635">
        <ele>330.6</ele>
        <time>2024-05-01T13:34:40Z</time>
      </trkpt>
      <trkpt lat="45.91129" lon="3.37628">
        <ele>330.4</ele>
        <time>2024-05-01T13:34:41Z</time>
      </trkpt>
      <trkpt lat="45.91133" lon="3.37621">
        <ele>330.4</ele>
        <time>2024-05-01T13:34:42Z</time>
      </trkpt>
      <trkpt lat="45.91137" lon="3.37614">
        <ele>330.2</ele>
        <time>2024-05-01T13:34:43Z</time>
      </trkpt>
      <trkpt lat="45.9114" lon="3.37607">
        <ele>330.2</ele>
        <time>2024-05-01T13:34:44Z</time>
      </trkpt>
      <trkpt lat="45.91144" lon="3.37601">
        <ele>330</ele>
        <time>2024-05-01T13:34:45Z</time>
      </trkpt>
      <trkpt lat="45.91147" lon="3.37594">
        <ele>330</ele>
        <time>2024-05-01T13:34:46Z</time>
      </trkpt>
      <trkpt lat="45.91151" lon="3.37588">
        <ele>329.8</ele>
        <time>2024-05-01T13:34:47Z</time>
      </trkpt>
      <trkpt lat="45.91155" lon="3.37582">
        <ele>329.8</ele>
        <time>2024-05-01T13:34:48Z</time>
      </trkpt>
      <trkpt lat="45.91159" lon="3.37576">
        <ele>329.8</ele>
        <time>2024-05-01T13:34:49Z</time>
      </trkpt>
      <trkpt lat="45.91163" lon="3.37571">
        <ele>329.6</ele>
        <time>2024-05-01T13:34:50Z</time>
      </trkpt>
      <trkpt lat="45.91167" lon="3.37565">
        <ele>329.6</ele>
        <time>2024-05-01T13:34:51Z</time>
      </trkpt>
      <trkpt lat="45.9117" lon="3.3756">
        <ele>329.4</ele>
        <time>2024-05-01T13:34:52Z</time>
      </trkpt>
      <trkpt lat="45.91174" lon="3.37554">
        <ele>329.4</ele>
        <time>2024-05-01T13:34:53Z</time>
      </trkpt>
      <trkpt lat="45.91178" lon="3.37549">
        <ele>329.4</ele>
        <time>2024-05-01T13:34:54Z</time>
      </trkpt>
      <trkpt lat="45.91182" lon="3.37543">
        <ele>329.2</ele>
        <time>2024-05-01T13:34:55Z</time>
      </trkpt>
      <trkpt lat="45.91186" lon="3.37537">
        <ele>329</ele>
        <time>2024-05-01T13:34:56Z</time>
      </trkpt>
      <trkpt lat="45.91191" lon="3.3753">
        <ele>329</ele>
        <time>2024-05-01T13:34:57Z</time>
      </trkpt>
      <trkpt lat="45.91195" lon="3.37524">
        <ele>328.8</ele>
        <time>2024-05-01T13:34:58Z</time>
      </trkpt>
      <trkpt lat="45.91199" lon="3.37518">
        <ele>328.8</ele>
        <time>2024-05-01T13:34:59Z</time>
      </trkpt>
      <trkpt lat="45.91204" lon="3.37512">
        <ele>328.6</ele>
        <time>2024-05-01T13:35:00Z</time>
      </trkpt>
      <trkpt lat="45.91208" lon="3.37506">
        <ele>328.4</ele>
        <time>2024-05-01T13:35:01Z</time>
      </trkpt>
      <trkpt lat="45.91212" lon="3.375">
        <ele>328.4</ele>
        <time>2024-05-01T13:35:02Z</time>
      </trkpt>
      <trkpt lat="45.91216" lon="3.37494">
        <ele>328.2</ele>
        <time>2024-05-01T13:35:03Z</time>
      </trkpt>
      <trkpt lat="45.91221" lon="3.37487">
        <ele>328</ele>
        <time>2024-05-01T13:35:04Z</time>
      </trkpt>
      <trkpt lat="45.91225" lon="3.37481">
        <ele>327.8</ele>
        <time>2024-05-01T13:35:05Z</time>
      </trkpt>
      <trkpt lat="45.9123" lon="3.37474">
        <ele>327.6</ele>
        <time>2024-05-01T13:35:06Z</time>
      </trkpt>
      <trkpt lat="45.91235" lon="3.37467">
        <ele>327.4</ele>
        <time>2024-05-01T13:35:07Z</time>
      </trkpt>
      <trkpt lat="45.91239" lon="3.3746">
        <ele>327.2</ele>
        <time>2024-05-01T13:35:08Z</time>
      </trkpt>
      <trkpt lat="45.91244" lon="3.37454">
        <ele>327</ele>
        <time>2024-05-01T13:35:09Z</time>
      </trkpt>
      <trkpt lat="45.91248" lon="3.37447">
        <ele>326.8</ele>
        <time>2024-05-01T13:35:10Z</time>
      </trkpt>
      <trkpt lat="45.91251" lon="3.37438">
        <ele>326.6</ele>
        <time>2024-05-01T13:35:11Z</time>
      </trkpt>
      <trkpt lat="45.91255" lon="3.3743">
        <ele>326.4</ele>
        <time>2024-05-01T13:35:12Z</time>
      </trkpt>
      <trkpt lat="45.91258" lon="3.37421">
        <ele>326</ele>
        <time>2024-05-01T13:35:13Z</time>
      </trkpt>
      <trkpt lat="45.9126" lon="3.37411">
        <ele>325.8</ele>
        <time>2024-05-01T13:35:14Z</time>
      </trkpt>
      <trkpt lat="45.91263" lon="3.37401">
        <ele>325.6</ele>
        <time>2024-05-01T13:35:15Z</time>
      </trkpt>
      <trkpt lat="45.91265" lon="3.37392">
        <ele>325.4</ele>
        <time>2024-05-01T13:35:16Z</time>
      </trkpt>
      <trkpt lat="45.91268" lon="3.37379">
        <ele>325</ele>
        <time>2024-05-01T13:35:17Z</time>
      </trkpt>
      <trkpt lat="45.91274" lon="3.37376">
        <ele>325</ele>
        <time>2024-05-01T13:35:18Z</time>
      </trkpt>
      <trkpt lat="45.91281" lon="3.37374">
        <ele>324.8</ele>
        <time>2024-05-01T13:35:19Z</time>
      </trkpt>
      <trkpt lat="45.91287" lon="3.37371">
        <ele>324.8</ele>
        <time>2024-05-01T13:35:20Z</time>
      </trkpt>
      <trkpt lat="45.91294" lon="3.37369">
        <ele>324.6</ele>
        <time>2024-05-01T13:35:21Z</time>
      </trkpt>
      <trkpt lat="45.913" lon="3.37366">
        <ele>324.6</ele>
        <time>2024-05-01T13:35:22Z</time>
      </trkpt>
      <trkpt lat="45.91305" lon="3.37364">
        <ele>324.4</ele>
        <time>2024-05-01T13:35:23Z</time>
      </trkpt>
      <trkpt lat="45.91311" lon="3.37362">
        <ele>324.2</ele>
        <time>2024-05-01T13:35:24Z</time>
      </trkpt>
      <trkpt lat="45.91316" lon="3.3736">
        <ele>324.2</ele>
        <time>2024-05-01T13:35:25Z</time>
      </trkpt>
      <trkpt lat="45.91321" lon="3.37358">
        <ele>324</ele>
        <time>2024-05-01T13:35:26Z</time>
      </trkpt>
    </trkseg>
  </trk>
</gpx>